<?xml version="1.0" encoding="UTF-8" standalone="no" ?><gpx xmlns="http://www.topografix.com/GPX/1/1" xmlns:gpxx="http://www.garmin.com/xmlschemas/GpxExtensions/v3" xmlns:gpxtrkx="http://www.garmin.com/xmlschemas/TrackStatsExtension/v1" xmlns:wptx1="http://www.garmin.com/xmlschemas/WaypointExtension/v1" xmlns:gpxtpx="http://www.garmin.com/xmlschemas/TrackPointExtension/v1" creator="Montana 680t" version="1.1" xmlns:xsi="http://www.w3.org/2001/XMLSchema-instance" xsi:schemaLocation="http://www.topografix.com/GPX/1/1 http://www.topografix.com/GPX/1/1/gpx.xsd http://www.garmin.com/xmlschemas/GpxExtensions/v3 http://www8.garmin.com/xmlschemas/GpxExtensionsv3.xsd http://www.garmin.com/xmlschemas/TrackStatsExtension/v1 http://www8.garmin.com/xmlschemas/TrackStatsExtension.xsd http://www.garmin.com/xmlschemas/WaypointExtension/v1 http://www8.garmin.com/xmlschemas/WaypointExtensionv1.xsd http://www.garmin.com/xmlschemas/TrackPointExtension/v1 http://www.garmin.com/xmlschemas/TrackPointExtensionv1.xsd"><metadata><link href="http://www.garmin.com"><text>Garmin International</text></link><time>2026-08-13T22:56:51Z</time></metadata><trk><name>Текущий трек: 22 OKT 2024 10:04</name><extensions><gpxx:TrackExtension><gpxx:DisplayColor>Cyan</gpxx:DisplayColor></gpxx:TrackExtension><gpxtrkx:TrackStatsExtension><gpxtrkx:Distance>8490924</gpxtrkx:Distance></gpxtrkx:TrackStatsExtension></extensions><trkseg><trkpt lat="60.1196237840" lon="32.3211368825"><ele>8.91</ele><time>2024-10-22T07:04:28Z</time></trkpt><trkpt lat="60.1182303764" lon="32.3206781410"><ele>11.91</ele><time>2024-10-22T07:07:13Z</time></trkpt><trkpt lat="60.1184208971" lon="32.3205444496"><ele>15.24</ele><time>2024-10-22T07:07:59Z</time></trkpt><trkpt lat="60.1184245013" lon="32.3205401748"><ele>15.26</ele><time>2024-10-22T07:08:00Z</time></trkpt><trkpt lat="60.1184459589" lon="32.3205032945"><ele>18.28</ele><time>2024-10-22T07:10:37Z</time></trkpt><trkpt lat="60.1184728649" lon="32.3204980139"><ele>18.42</ele><time>2024-10-22T07:10:45Z</time></trkpt><trkpt lat="60.1184225734" lon="32.3204551823"><ele>18.49</ele><time>2024-10-22T07:10:49Z</time></trkpt><trkpt lat="60.1181886345" lon="32.3202763125"><ele>21.52</ele><time>2024-10-22T07:13:00Z</time></trkpt><trkpt lat="60.1182473917" lon="32.3204954155"><ele>24.55</ele><time>2024-10-22T07:15:33Z</time></trkpt><trkpt lat="60.1182604674" lon="32.3203669209"><ele>27.56</ele><time>2024-10-22T07:18:47Z</time></trkpt><trkpt lat="60.1182110142" lon="32.3206458706"><ele>30.57</ele><time>2024-10-22T07:21:54Z</time></trkpt><trkpt lat="60.1181715354" lon="32.3205043003"><ele>33.59</ele><time>2024-10-22T07:25:51Z</time></trkpt><trkpt lat="60.1183317136" lon="32.3209146783"><ele>35.16</ele><time>2024-10-22T07:29:27Z</time></trkpt><trkpt lat="60.1182565279" lon="32.3208482936"><ele>35.50</ele><time>2024-10-22T07:30:24Z</time></trkpt><trkpt lat="60.1183706895" lon="32.3209660593"><ele>32.50</ele><time>2024-10-22T07:41:03Z</time></trkpt><trkpt lat="60.1183945779" lon="32.3209183663"><ele>31.99</ele><time>2024-10-22T07:41:56Z</time></trkpt><trkpt lat="60.1183606312" lon="32.3208104074"><ele>28.98</ele><time>2024-10-22T07:47:08Z</time></trkpt><trkpt lat="60.1183053106" lon="32.3208062164"><ele>27.04</ele><time>2024-10-22T07:49:54Z</time></trkpt><trkpt lat="60.1183887944" lon="32.3207776342"><ele>24.06</ele><time>2024-10-22T07:54:56Z</time></trkpt><trkpt lat="60.1184649859" lon="32.3208112456"><ele>22.90</ele><time>2024-10-22T07:56:57Z</time></trkpt><trkpt lat="60.1184343081" lon="32.3207285162"><ele>20.41</ele><time>2024-10-22T07:57:18Z</time></trkpt><trkpt lat="60.1183645707" lon="32.3206242453"><ele>20.24</ele><time>2024-10-22T07:57:39Z</time></trkpt><trkpt lat="60.1183346473" lon="32.3206780571"><ele>19.58</ele><time>2024-10-22T07:58:45Z</time></trkpt><trkpt lat="60.1185042132" lon="32.3209202103"><ele>18.21</ele><time>2024-10-22T08:00:55Z</time></trkpt><trkpt lat="60.1187001821" lon="32.3214403912"><ele>18.04</ele><time>2024-10-22T08:01:16Z</time></trkpt><trkpt lat="60.1185200550" lon="32.3209377285"><ele>17.63</ele><time>2024-10-22T08:01:53Z</time></trkpt><trkpt lat="60.1184485573" lon="32.3207943141"><ele>17.49</ele><time>2024-10-22T08:02:08Z</time></trkpt><trkpt lat="60.1183887944" lon="32.3209456913"><ele>13.94</ele><time>2024-10-22T08:05:39Z</time></trkpt><trkpt lat="60.1183656603" lon="32.3209242336"><ele>12.26</ele><time>2024-10-22T08:07:50Z</time></trkpt><trkpt lat="60.1183041371" lon="32.3207518179"><ele>11.63</ele><time>2024-10-22T08:08:43Z</time></trkpt><trkpt lat="60.1182407700" lon="32.3207490519"><ele>8.59</ele><time>2024-10-22T08:12:34Z</time></trkpt><trkpt lat="60.1182240900" lon="32.3207006045"><ele>7.05</ele><time>2024-10-22T08:13:29Z</time></trkpt><trkpt lat="60.1180761494" lon="32.3203483131"><ele>6.39</ele><time>2024-10-22T08:14:15Z</time></trkpt><trkpt lat="60.1183347311" lon="32.3207416758"><ele>4.18</ele><time>2024-10-22T08:16:41Z</time></trkpt><trkpt lat="60.1183314621" lon="32.3205971718"><ele>3.48</ele><time>2024-10-22T08:17:29Z</time></trkpt><trkpt lat="60.1183602121" lon="32.3206523247"><ele>1.89</ele><time>2024-10-22T08:19:49Z</time></trkpt><trkpt lat="60.1183832623" lon="32.3206063919"><ele>1.72</ele><time>2024-10-22T08:20:10Z</time></trkpt><trkpt lat="60.1183345634" lon="32.3205954116"><ele>1.52</ele><time>2024-10-22T08:20:29Z</time></trkpt><trkpt lat="60.1183398440" lon="32.3206125107"><ele>1.52</ele><time>2024-10-22T08:20:31Z</time></trkpt><trkpt lat="60.1182911452" lon="32.3208922986"><ele>1.12</ele><time>2024-10-22T08:21:15Z</time></trkpt><trkpt lat="60.1184294466" lon="32.3210559972"><ele>-0.05</ele><time>2024-10-22T08:23:54Z</time></trkpt><trkpt lat="60.1184013672" lon="32.3210695758"><ele>-0.26</ele><time>2024-10-22T08:24:27Z</time></trkpt><trkpt lat="60.1183856931" lon="32.3210553266"><ele>-0.28</ele><time>2024-10-22T08:24:29Z</time></trkpt><trkpt lat="60.1182814222" lon="32.3208572622"><ele>-1.02</ele><time>2024-10-22T08:26:40Z</time></trkpt><trkpt lat="60.1182419434" lon="32.3207765445"><ele>-1.41</ele><time>2024-10-22T08:28:11Z</time></trkpt><trkpt lat="60.1186023653" lon="32.3210392334"><ele>-1.62</ele><time>2024-10-22T08:29:43Z</time></trkpt><trkpt lat="60.1186157763" lon="32.3211008403"><ele>-1.70</ele><time>2024-10-22T08:30:18Z</time></trkpt><trkpt lat="60.1186482981" lon="32.3211528920"><ele>-1.72</ele><time>2024-10-22T08:30:21Z</time></trkpt><trkpt lat="60.1185492240" lon="32.3209555820"><ele>-1.85</ele><time>2024-10-22T08:31:07Z</time></trkpt><trkpt lat="60.1183831785" lon="32.3209234793"><ele>-2.06</ele><time>2024-10-22T08:31:57Z</time></trkpt><trkpt lat="60.1184006128" lon="32.3208156042"><ele>-2.42</ele><time>2024-10-22T08:34:18Z</time></trkpt><trkpt lat="60.1183242537" lon="32.3207294382"><ele>-2.55</ele><time>2024-10-22T08:35:00Z</time></trkpt><trkpt lat="60.1182447094" lon="32.3207027838"><ele>-2.58</ele><time>2024-10-22T08:35:16Z</time></trkpt><trkpt lat="60.1184507366" lon="32.3204379156"><ele>-3.01</ele><time>2024-10-22T08:38:06Z</time></trkpt><trkpt lat="60.1184773911" lon="32.3203762248"><ele>-3.01</ele><time>2024-10-22T08:38:18Z</time></trkpt><trkpt lat="60.1184289437" lon="32.3205095809"><ele>-3.01</ele><time>2024-10-22T08:38:28Z</time></trkpt><trkpt lat="60.1183964219" lon="32.3206507321"><ele>-4.02</ele><time>2024-10-22T08:39:33Z</time></trkpt><trkpt lat="60.1185072307" lon="32.3207710963"><ele>-4.06</ele><time>2024-10-22T08:39:45Z</time></trkpt><trkpt lat="60.1185809914" lon="32.3208405823"><ele>-4.07</ele><time>2024-10-22T08:39:51Z</time></trkpt><trkpt lat="60.1186195482" lon="32.3208849225"><ele>-4.09</ele><time>2024-10-22T08:39:55Z</time></trkpt><trkpt lat="60.1184773073" lon="32.3208200466"><ele>-4.84</ele><time>2024-10-22T08:42:33Z</time></trkpt><trkpt lat="60.1183902193" lon="32.3206711840"><ele>-4.98</ele><time>2024-10-22T08:43:05Z</time></trkpt><trkpt lat="60.1184726134" lon="32.3207160272"><ele>-5.08</ele><time>2024-10-22T08:43:22Z</time></trkpt><trkpt lat="60.1185015310" lon="32.3207467049"><ele>-5.09</ele><time>2024-10-22T08:43:26Z</time></trkpt><trkpt lat="60.1185282692" lon="32.3206607066"><ele>-5.47</ele><time>2024-10-22T08:44:49Z</time></trkpt><trkpt lat="60.1183286123" lon="32.3206118401"><ele>-5.56</ele><time>2024-10-22T08:45:13Z</time></trkpt><trkpt lat="60.1180883870" lon="32.3208825756"><ele>-6.03</ele><time>2024-10-22T08:47:03Z</time></trkpt><trkpt lat="60.1179640833" lon="32.3207340483"><ele>-6.07</ele><time>2024-10-22T08:47:19Z</time></trkpt><trkpt lat="60.1181008760" lon="32.3209579289"><ele>-6.17</ele><time>2024-10-22T08:48:17Z</time></trkpt><trkpt lat="60.1182179712" lon="32.3208045401"><ele>-6.93</ele><time>2024-10-22T08:51:14Z</time></trkpt><trkpt lat="60.1183785684" lon="32.3206979223"><ele>-6.88</ele><time>2024-10-22T08:51:49Z</time></trkpt><trkpt lat="60.1183063164" lon="32.3207976669"><ele>-6.84</ele><time>2024-10-22T08:52:23Z</time></trkpt><trkpt lat="60.1184041332" lon="32.3211290874"><ele>-5.67</ele><time>2024-10-22T08:59:46Z</time></trkpt><trkpt lat="60.1183140278" lon="32.3208182026"><ele>-5.62</ele><time>2024-10-22T09:01:04Z</time></trkpt><trkpt lat="60.1183682587" lon="32.3208501376"><ele>-5.61</ele><time>2024-10-22T09:01:19Z</time></trkpt><trkpt lat="60.1183778141" lon="32.3208736070"><ele>-5.60</ele><time>2024-10-22T09:01:21Z</time></trkpt><trkpt lat="60.1183878724" lon="32.3208959028"><ele>-8.99</ele><time>2024-10-22T09:11:25Z</time></trkpt><trkpt lat="60.1185266767" lon="32.3208742775"><ele>-8.96</ele><time>2024-10-22T09:15:05Z</time></trkpt><trkpt lat="60.1185032073" lon="32.3207851779"><ele>-8.94</ele><time>2024-10-22T09:17:30Z</time></trkpt><trkpt lat="60.1185248327" lon="32.3208238184"><ele>-6.44</ele><time>2024-10-22T09:18:39Z</time></trkpt><trkpt lat="60.1185198035" lon="32.3208083957"><ele>-6.39</ele><time>2024-10-22T09:18:42Z</time></trkpt><trkpt lat="60.1184700988" lon="32.3208187893"><ele>-8.53</ele><time>2024-10-22T09:21:08Z</time></trkpt><trkpt lat="60.1184768882" lon="32.3209901154"><ele>-8.40</ele><time>2024-10-22T09:22:20Z</time></trkpt><trkpt lat="60.1185288560" lon="32.3209954798"><ele>-8.38</ele><time>2024-10-22T09:22:36Z</time></trkpt><trkpt lat="60.1186746173" lon="32.3207194638"><ele>-6.07</ele><time>2024-10-22T09:25:45Z</time></trkpt><trkpt lat="60.1186331268" lon="32.3208144307"><ele>-6.14</ele><time>2024-10-22T09:26:12Z</time></trkpt><trkpt lat="60.1187565085" lon="32.3211361282"><ele>-6.14</ele><time>2024-10-22T09:26:48Z</time></trkpt><trkpt lat="60.1187102403" lon="32.3211164307"><ele>-6.14</ele><time>2024-10-22T09:26:52Z</time></trkpt><trkpt lat="60.1185683347" lon="32.3208525684"><ele>-6.16</ele><time>2024-10-22T09:27:13Z</time></trkpt><trkpt lat="60.1186659839" lon="32.3208490480"><ele>-8.61</ele><time>2024-10-22T09:30:19Z</time></trkpt><trkpt lat="60.1186634693" lon="32.3209573422"><ele>-8.77</ele><time>2024-10-22T09:32:07Z</time></trkpt><trkpt lat="60.1189177763" lon="32.3209927976"><ele>-9.73</ele><time>2024-10-22T09:36:14Z</time></trkpt><trkpt lat="60.1186876930" lon="32.3208254948"><ele>-9.94</ele><time>2024-10-22T09:37:23Z</time></trkpt><trkpt lat="60.1185814105" lon="32.3206681665"><ele>-10.17</ele><time>2024-10-22T09:38:50Z</time></trkpt><trkpt lat="60.1187042054" lon="32.3208816536"><ele>-11.35</ele><time>2024-10-22T09:41:34Z</time></trkpt><trkpt lat="60.1187109947" lon="32.3210292589"><ele>-11.43</ele><time>2024-10-22T09:42:26Z</time></trkpt><trkpt lat="60.1187363081" lon="32.3208549153"><ele>-11.48</ele><time>2024-10-22T09:42:58Z</time></trkpt><trkpt lat="60.1184558496" lon="32.3206488043"><ele>-11.56</ele><time>2024-10-22T09:43:45Z</time></trkpt><trkpt lat="60.1185322087" lon="32.3209101520"><ele>-11.67</ele><time>2024-10-22T09:46:14Z</time></trkpt><trkpt lat="60.1183348149" lon="32.3208140116"><ele>-11.82</ele><time>2024-10-22T09:49:56Z</time></trkpt><trkpt lat="60.1183973439" lon="32.3207319528"><ele>-11.93</ele><time>2024-10-22T09:51:08Z</time></trkpt><trkpt lat="60.1184879523" lon="32.3206180427"><ele>-12.04</ele><time>2024-10-22T09:52:03Z</time></trkpt><trkpt lat="60.1185227372" lon="32.3205991834"><ele>-12.08</ele><time>2024-10-22T09:52:13Z</time></trkpt><trkpt lat="60.1185299456" lon="32.3206807394"><ele>-12.19</ele><time>2024-10-22T09:52:48Z</time></trkpt><trkpt lat="60.1184459589" lon="32.3207061365"><ele>-12.21</ele><time>2024-10-22T09:52:55Z</time></trkpt><trkpt lat="60.1182573661" lon="32.3207816575"><ele>-14.07</ele><time>2024-10-22T09:57:10Z</time></trkpt><trkpt lat="60.1184141077" lon="32.3207912128"><ele>-14.56</ele><time>2024-10-22T09:59:04Z</time></trkpt><trkpt lat="60.1182808354" lon="32.3206783086"><ele>-15.28</ele><time>2024-10-22T10:02:32Z</time></trkpt><trkpt lat="60.1184647344" lon="32.3207886983"><ele>-15.39</ele><time>2024-10-22T10:03:12Z</time></trkpt><trkpt lat="60.1182791591" lon="32.3207682464"><ele>-15.50</ele><time>2024-10-22T10:06:41Z</time></trkpt><trkpt lat="60.1182031352" lon="32.3207016103"><ele>-13.98</ele><time>2024-10-22T10:08:07Z</time></trkpt><trkpt lat="60.1184575260" lon="32.3208317813"><ele>-13.99</ele><time>2024-10-22T10:10:03Z</time></trkpt><trkpt lat="60.1183932368" lon="32.3209875170"><ele>-13.98</ele><time>2024-10-22T10:12:28Z</time></trkpt><trkpt lat="60.1182991080" lon="32.3209471162"><ele>-13.96</ele><time>2024-10-22T10:12:48Z</time></trkpt><trkpt lat="60.1182079967" lon="32.3207437713"><ele>-13.88</ele><time>2024-10-22T10:13:56Z</time></trkpt><trkpt lat="60.1183415204" lon="32.3208697513"><ele>-13.79</ele><time>2024-10-22T10:15:15Z</time></trkpt><trkpt lat="60.1182894688" lon="32.3208432645"><ele>-13.79</ele><time>2024-10-22T10:15:31Z</time></trkpt><trkpt lat="60.1182836015" lon="32.3207457829"><ele>-13.83</ele><time>2024-10-22T10:16:23Z</time></trkpt><trkpt lat="60.1182469726" lon="32.3207287677"><ele>-13.83</ele><time>2024-10-22T10:16:34Z</time></trkpt><trkpt lat="60.1182205696" lon="32.3207407538"><ele>-13.86</ele><time>2024-10-22T10:16:46Z</time></trkpt><trkpt lat="60.1183028799" lon="32.3207527399"><ele>-13.88</ele><time>2024-10-22T10:16:59Z</time></trkpt><trkpt lat="60.1183416881" lon="32.3207760416"><ele>-13.88</ele><time>2024-10-22T10:17:06Z</time></trkpt><trkpt lat="60.1183946617" lon="32.3208336253"><ele>-13.89</ele><time>2024-10-22T10:17:20Z</time></trkpt><trkpt lat="60.1184927300" lon="32.3209093139"><ele>-13.87</ele><time>2024-10-22T10:17:40Z</time></trkpt><trkpt lat="60.1184945740" lon="32.3208410013"><ele>-13.81</ele><time>2024-10-22T10:19:40Z</time></trkpt><trkpt lat="60.1186228171" lon="32.3208782170"><ele>-11.74</ele><time>2024-10-22T10:26:53Z</time></trkpt><trkpt lat="60.1185506489" lon="32.3207751196"><ele>-11.70</ele><time>2024-10-22T10:27:06Z</time></trkpt><trkpt lat="60.1184985135" lon="32.3207068909"><ele>-11.66</ele><time>2024-10-22T10:27:25Z</time></trkpt><trkpt lat="60.1185326278" lon="32.3208764568"><ele>-11.13</ele><time>2024-10-22T10:29:57Z</time></trkpt><trkpt lat="60.1185933128" lon="32.3208474554"><ele>-11.06</ele><time>2024-10-22T10:30:06Z</time></trkpt><trkpt lat="60.1186122559" lon="32.3206648976"><ele>-10.81</ele><time>2024-10-22T10:31:00Z</time></trkpt><trkpt lat="60.1184818335" lon="32.3206928093"><ele>-10.72</ele><time>2024-10-22T10:31:13Z</time></trkpt><trkpt lat="60.1184628066" lon="32.3207021132"><ele>-10.73</ele><time>2024-10-22T10:31:15Z</time></trkpt><trkpt lat="60.1184854377" lon="32.3206363153"><ele>-10.51</ele><time>2024-10-22T10:31:53Z</time></trkpt><trkpt lat="60.1182526723" lon="32.3207980860"><ele>-9.95</ele><time>2024-10-22T10:33:48Z</time></trkpt><trkpt lat="60.1183108427" lon="32.3208843358"><ele>-9.57</ele><time>2024-10-22T10:35:02Z</time></trkpt><trkpt lat="60.1183452923" lon="32.3207845073"><ele>-9.59</ele><time>2024-10-22T10:35:08Z</time></trkpt><trkpt lat="60.1182489004" lon="32.3206339683"><ele>-9.13</ele><time>2024-10-22T10:36:49Z</time></trkpt><trkpt lat="60.1182037219" lon="32.3206348903"><ele>-9.06</ele><time>2024-10-22T10:37:05Z</time></trkpt><trkpt lat="60.1185140200" lon="32.3208126705"><ele>-8.47</ele><time>2024-10-22T10:40:13Z</time></trkpt><trkpt lat="60.1186327916" lon="32.3208126705"><ele>-8.30</ele><time>2024-10-22T10:41:04Z</time></trkpt><trkpt lat="60.1183328032" lon="32.3208339605"><ele>-8.10</ele><time>2024-10-22T10:42:39Z</time></trkpt><trkpt lat="60.1184361521" lon="32.3208035342"><ele>-7.36</ele><time>2024-10-22T10:48:03Z</time></trkpt><trkpt lat="60.1184473839" lon="32.3207488004"><ele>-7.15</ele><time>2024-10-22T10:51:33Z</time></trkpt><trkpt lat="60.1183956675" lon="32.3206960782"><ele>-7.05</ele><time>2024-10-22T10:52:45Z</time></trkpt><trkpt lat="60.1180855371" lon="32.3205257580"><ele>-6.03</ele><time>2024-10-22T11:03:07Z</time></trkpt><trkpt lat="60.1179526839" lon="32.3205548432"><ele>-6.03</ele><time>2024-10-22T11:03:32Z</time></trkpt><trkpt lat="60.1179173123" lon="32.3205414321"><ele>-6.00</ele><time>2024-10-22T11:03:44Z</time></trkpt><trkpt lat="60.1180202421" lon="32.3205831740"><ele>-6.02</ele><time>2024-10-22T11:05:09Z</time></trkpt><trkpt lat="60.1183444541" lon="32.3208763730"><ele>-6.01</ele><time>2024-10-22T11:05:41Z</time></trkpt><trkpt lat="60.1185554266" lon="32.3209187016"><ele>-5.21</ele><time>2024-10-22T11:07:33Z</time></trkpt><trkpt lat="60.1185121760" lon="32.3209437635"><ele>-5.23</ele><time>2024-10-22T11:07:36Z</time></trkpt><trkpt lat="60.1184698474" lon="32.3209088948"><ele>-5.25</ele><time>2024-10-22T11:08:04Z</time></trkpt><trkpt lat="60.1183942426" lon="32.3208167776"><ele>-5.25</ele><time>2024-10-22T11:08:14Z</time></trkpt><trkpt lat="60.1183675043" lon="32.3207969964"><ele>-5.25</ele><time>2024-10-22T11:08:18Z</time></trkpt><trkpt lat="60.1184130181" lon="32.3207508959"><ele>-4.46</ele><time>2024-10-22T11:09:26Z</time></trkpt><trkpt lat="60.1184312906" lon="32.3208065517"><ele>-4.47</ele><time>2024-10-22T11:11:10Z</time></trkpt><trkpt lat="60.1185172051" lon="32.3208697513"><ele>-4.48</ele><time>2024-10-22T11:11:18Z</time></trkpt><trkpt lat="60.1185249165" lon="32.3208692484"><ele>-4.48</ele><time>2024-10-22T11:11:27Z</time></trkpt><trkpt lat="60.1185799018" lon="32.3209158517"><ele>-4.48</ele><time>2024-10-22T11:12:16Z</time></trkpt><trkpt lat="60.1183847710" lon="32.3209497984"><ele>-4.48</ele><time>2024-10-22T11:12:46Z</time></trkpt><trkpt lat="60.1182999462" lon="32.3210248165"><ele>-4.50</ele><time>2024-10-22T11:14:15Z</time></trkpt><trkpt lat="60.1185643952" lon="32.3209216353"><ele>-4.51</ele><time>2024-10-22T11:15:59Z</time></trkpt><trkpt lat="60.1185904630" lon="32.3209448531"><ele>-4.52</ele><time>2024-10-22T11:16:03Z</time></trkpt><trkpt lat="60.1184389181" lon="32.3207686655"><ele>-4.53</ele><time>2024-10-22T11:16:44Z</time></trkpt><trkpt lat="60.1184198912" lon="32.3207530752"><ele>-4.52</ele><time>2024-10-22T11:16:47Z</time></trkpt><trkpt lat="60.1184260100" lon="32.3208565079"><ele>-2.71</ele><time>2024-10-22T11:24:10Z</time></trkpt><trkpt lat="60.1184596214" lon="32.3208254110"><ele>-2.78</ele><time>2024-10-22T11:24:22Z</time></trkpt><trkpt lat="60.1186498906" lon="32.3210681509"><ele>-3.04</ele><time>2024-10-22T11:25:52Z</time></trkpt><trkpt lat="60.1185395010" lon="32.3207295220"><ele>-3.26</ele><time>2024-10-22T11:27:19Z</time></trkpt><trkpt lat="60.1184735354" lon="32.3207558412"><ele>-3.30</ele><time>2024-10-22T11:27:40Z</time></trkpt><trkpt lat="60.1184257586" lon="32.3207696714"><ele>-5.63</ele><time>2024-10-22T11:28:07Z</time></trkpt><trkpt lat="60.1183168776" lon="32.3207102437"><ele>-6.83</ele><time>2024-10-22T11:33:56Z</time></trkpt><trkpt lat="60.1184317097" lon="32.3209497146"><ele>-7.49</ele><time>2024-10-22T11:39:54Z</time></trkpt><trkpt lat="60.1185283531" lon="32.3209984135"><ele>-7.69</ele><time>2024-10-22T11:40:50Z</time></trkpt><trkpt lat="60.1184475515" lon="32.3209663108"><ele>-7.73</ele><time>2024-10-22T11:40:56Z</time></trkpt><trkpt lat="60.1183582004" lon="32.3206755426"><ele>-8.23</ele><time>2024-10-22T11:43:52Z</time></trkpt><trkpt lat="60.1183846872" lon="32.3207678273"><ele>-8.52</ele><time>2024-10-22T11:46:10Z</time></trkpt><trkpt lat="60.1184504014" lon="32.3208498862"><ele>-8.53</ele><time>2024-10-22T11:46:17Z</time></trkpt><trkpt lat="60.1185049675" lon="32.3208856769"><ele>-8.54</ele><time>2024-10-22T11:46:22Z</time></trkpt><trkpt lat="60.1185543370" lon="32.3209515586"><ele>-8.54</ele><time>2024-10-22T11:46:39Z</time></trkpt><trkpt lat="60.1185204741" lon="32.3208423425"><ele>-8.55</ele><time>2024-10-22T11:47:29Z</time></trkpt><trkpt lat="60.1185121760" lon="32.3208420910"><ele>-8.55</ele><time>2024-10-22T11:47:46Z</time></trkpt><trkpt lat="60.1185218152" lon="32.3208376486"><ele>-7.83</ele><time>2024-10-22T12:02:01Z</time></trkpt><trkpt lat="60.1185255032" lon="32.3207947332"><ele>-7.73</ele><time>2024-10-22T12:03:35Z</time></trkpt><trkpt lat="60.1185039617" lon="32.3208259139"><ele>-7.72</ele><time>2024-10-22T12:03:45Z</time></trkpt><trkpt lat="60.1184508204" lon="32.3206952401"><ele>-7.50</ele><time>2024-10-22T12:07:14Z</time></trkpt><trkpt lat="60.1184614655" lon="32.3206427693"><ele>-7.48</ele><time>2024-10-22T12:07:28Z</time></trkpt><trkpt lat="60.1185038779" lon="32.3206649814"><ele>-7.47</ele><time>2024-10-22T12:07:42Z</time></trkpt><trkpt lat="60.1184182148" lon="32.3205566034"><ele>-6.46</ele><time>2024-10-22T12:12:57Z</time></trkpt><trkpt lat="60.1183877885" lon="32.3207186256"><ele>-3.45</ele><time>2024-10-22T12:19:55Z</time></trkpt><trkpt lat="60.1184612140" lon="32.3205058090"><ele>-4.91</ele><time>2024-10-22T12:21:48Z</time></trkpt><trkpt lat="60.1183978468" lon="32.3206182942"><ele>-4.35</ele><time>2024-10-22T12:22:53Z</time></trkpt><trkpt lat="60.1181646623" lon="32.3209679034"><ele>-4.59</ele><time>2024-10-22T12:24:08Z</time></trkpt><trkpt lat="60.1183180511" lon="32.3209951445"><ele>-0.57</ele><time>2024-10-22T12:27:39Z</time></trkpt><trkpt lat="60.1183157880" lon="32.3209858406"><ele>-0.55</ele><time>2024-10-22T12:27:40Z</time></trkpt><trkpt lat="60.1183110103" lon="32.3209215514"><ele>-2.79</ele><time>2024-10-22T12:27:52Z</time></trkpt><trkpt lat="60.1183502376" lon="32.3209019378"><ele>-0.28</ele><time>2024-10-22T12:28:13Z</time></trkpt><trkpt lat="60.1181095093" lon="32.3209261615"><ele>2.23</ele><time>2024-10-22T12:33:16Z</time></trkpt><trkpt lat="60.1180781610" lon="32.3209150136"><ele>3.32</ele><time>2024-10-22T12:35:02Z</time></trkpt><trkpt lat="60.1180237625" lon="32.3208052944"><ele>3.42</ele><time>2024-10-22T12:35:11Z</time></trkpt><trkpt lat="60.1182634011" lon="32.3211327754"><ele>4.05</ele><time>2024-10-22T12:36:10Z</time></trkpt><trkpt lat="60.1183250081" lon="32.3210124113"><ele>4.26</ele><time>2024-10-22T12:36:25Z</time></trkpt><trkpt lat="60.1182931568" lon="32.3206467927"><ele>4.42</ele><time>2024-10-22T12:36:35Z</time></trkpt><trkpt lat="60.1182355732" lon="32.3207448609"><ele>6.19</ele><time>2024-10-22T12:38:22Z</time></trkpt><trkpt lat="60.1182467211" lon="32.3208760377"><ele>6.71</ele><time>2024-10-22T12:38:51Z</time></trkpt><trkpt lat="60.1183622237" lon="32.3206661548"><ele>9.73</ele><time>2024-10-22T12:42:14Z</time></trkpt><trkpt lat="60.1183712762" lon="32.3206488043"><ele>10.16</ele><time>2024-10-22T12:42:46Z</time></trkpt><trkpt lat="60.1184217352" lon="32.3207415920"><ele>10.40</ele><time>2024-10-22T12:43:05Z</time></trkpt><trkpt lat="60.1183943264" lon="32.3206266761"><ele>12.17</ele><time>2024-10-22T12:45:51Z</time></trkpt><trkpt lat="60.1184657402" lon="32.3206774704"><ele>15.18</ele><time>2024-10-22T12:51:54Z</time></trkpt><trkpt lat="60.1184795704" lon="32.3207254149"><ele>16.46</ele><time>2024-10-22T12:55:08Z</time></trkpt><trkpt lat="60.1184498984" lon="32.3207784723"><ele>17.46</ele><time>2024-10-22T13:00:55Z</time></trkpt><trkpt lat="60.1184861083" lon="32.3207257502"><ele>16.52</ele><time>2024-10-22T13:15:47Z</time></trkpt><trkpt lat="60.1185420156" lon="32.3208938912"><ele>16.41</ele><time>2024-10-22T13:16:15Z</time></trkpt><trkpt lat="60.1186234038" lon="32.3208425939"><ele>16.35</ele><time>2024-10-22T13:16:28Z</time></trkpt><trkpt lat="60.1184183825" lon="32.3211119045"><ele>16.81</ele><time>2024-10-22T13:17:37Z</time></trkpt><trkpt lat="60.1183385029" lon="32.3208530713"><ele>16.47</ele><time>2024-10-22T13:19:00Z</time></trkpt><trkpt lat="60.1183235832" lon="32.3208114970"><ele>16.41</ele><time>2024-10-22T13:19:13Z</time></trkpt><trkpt lat="60.1183790714" lon="32.3209099844"><ele>16.37</ele><time>2024-10-22T13:19:25Z</time></trkpt><trkpt lat="60.1183734555" lon="32.3209480383"><ele>16.33</ele><time>2024-10-22T13:19:35Z</time></trkpt><trkpt lat="60.1183428615" lon="32.3211023491"><ele>16.15</ele><time>2024-10-22T13:20:22Z</time></trkpt><trkpt lat="60.1183404308" lon="32.3211244773"><ele>16.14</ele><time>2024-10-22T13:20:24Z</time></trkpt><trkpt lat="60.1183885429" lon="32.3208237346"><ele>15.89</ele><time>2024-10-22T13:21:31Z</time></trkpt><trkpt lat="60.1185255032" lon="32.3208441027"><ele>15.29</ele><time>2024-10-22T13:24:40Z</time></trkpt><trkpt lat="60.1185176242" lon="32.3208376486"><ele>15.24</ele><time>2024-10-22T13:24:58Z</time></trkpt><trkpt lat="60.1183096692" lon="32.3209060449"><ele>14.52</ele><time>2024-10-22T13:26:44Z</time></trkpt><trkpt lat="60.1182936598" lon="32.3209015187"><ele>14.37</ele><time>2024-10-22T13:27:00Z</time></trkpt><trkpt lat="60.1183445379" lon="32.3207795620"><ele>11.54</ele><time>2024-10-22T13:28:05Z</time></trkpt><trkpt lat="60.1184670813" lon="32.3206798173"><ele>10.25</ele><time>2024-10-22T13:30:48Z</time></trkpt><trkpt lat="60.1186765451" lon="32.3207796458"><ele>9.32</ele><time>2024-10-22T13:33:06Z</time></trkpt><trkpt lat="60.1186521538" lon="32.3207467049"><ele>9.11</ele><time>2024-10-22T13:33:38Z</time></trkpt><trkpt lat="60.1184079889" lon="32.3207922187"><ele>8.12</ele><time>2024-10-22T13:36:11Z</time></trkpt><trkpt lat="60.1183852740" lon="32.3208634648"><ele>7.50</ele><time>2024-10-22T13:38:00Z</time></trkpt><trkpt lat="60.1183399279" lon="32.3208242375"><ele>7.44</ele><time>2024-10-22T13:38:07Z</time></trkpt><trkpt lat="60.1182955876" lon="32.3207900394"><ele>7.44</ele><time>2024-10-22T13:38:13Z</time></trkpt><trkpt lat="60.1182758901" lon="32.3207798973"><ele>7.42</ele><time>2024-10-22T13:38:15Z</time></trkpt><trkpt lat="60.1182726212" lon="32.3207536619"><ele>7.26</ele><time>2024-10-22T13:38:46Z</time></trkpt><trkpt lat="60.1182894688" lon="32.3205570225"><ele>6.90</ele><time>2024-10-22T13:39:53Z</time></trkpt><trkpt lat="60.1182159595" lon="32.3204222415"><ele>6.77</ele><time>2024-10-22T13:40:15Z</time></trkpt><trkpt lat="60.1184517425" lon="32.3207727727"><ele>5.94</ele><time>2024-10-22T13:44:42Z</time></trkpt><trkpt lat="60.1184169576" lon="32.3207583558"><ele>5.22</ele><time>2024-10-22T13:50:36Z</time></trkpt><trkpt lat="60.1183489803" lon="32.3207555898"><ele>5.19</ele><time>2024-10-22T13:50:45Z</time></trkpt><trkpt lat="60.1183485612" lon="32.3208293505"><ele>5.11</ele><time>2024-10-22T13:51:20Z</time></trkpt><trkpt lat="60.1183044724" lon="32.3208096530"><ele>4.81</ele><time>2024-10-22T13:53:40Z</time></trkpt><trkpt lat="60.1181846950" lon="32.3207376525"><ele>3.98</ele><time>2024-10-22T13:54:10Z</time></trkpt><trkpt lat="60.1181713678" lon="32.3205524124"><ele>3.95</ele><time>2024-10-22T13:54:25Z</time></trkpt><trkpt lat="60.1181754749" lon="32.3206460383"><ele>3.94</ele><time>2024-10-22T13:54:28Z</time></trkpt><trkpt lat="60.1182859484" lon="32.3205558490"><ele>3.91</ele><time>2024-10-22T13:54:47Z</time></trkpt><trkpt lat="60.1181675959" lon="32.3202749714"><ele>5.99</ele><time>2024-10-22T13:56:33Z</time></trkpt><trkpt lat="60.1183484774" lon="32.3207579367"><ele>5.74</ele><time>2024-10-22T13:58:15Z</time></trkpt><trkpt lat="60.1184344757" lon="32.3208460305"><ele>5.32</ele><time>2024-10-22T14:00:19Z</time></trkpt><trkpt lat="60.1184120961" lon="32.3208509758"><ele>5.31</ele><time>2024-10-22T14:00:22Z</time></trkpt><trkpt lat="60.1183692645" lon="32.3206423502"><ele>5.15</ele><time>2024-10-22T14:03:56Z</time></trkpt><trkpt lat="60.1183707733" lon="32.3206560127"><ele>85.10</ele><time>2024-10-22T14:20:11Z</time></trkpt><trkpt lat="60.1189679001" lon="32.3211344518"><ele>85.10</ele><time>2024-10-22T14:20:12Z</time></trkpt><trkpt lat="60.1185678318" lon="32.3211840726"><ele>82.10</ele><time>2024-10-22T14:25:09Z</time></trkpt><trkpt lat="60.1185541693" lon="32.3210654687"><ele>80.08</ele><time>2024-10-22T14:26:21Z</time></trkpt><trkpt lat="60.1183779817" lon="32.3209796380"><ele>77.02</ele><time>2024-10-22T14:27:42Z</time></trkpt><trkpt lat="60.1183584519" lon="32.3209799733"><ele>74.02</ele><time>2024-10-22T14:29:04Z</time></trkpt><trkpt lat="60.1183816697" lon="32.3206726089"><ele>71.00</ele><time>2024-10-22T14:30:29Z</time></trkpt><trkpt lat="60.1183780655" lon="32.3206607904"><ele>67.23</ele><time>2024-10-22T14:30:50Z</time></trkpt></trkseg><trkseg><trkpt lat="59.6868818812" lon="32.9473539814"><ele>73.92</ele><time>2024-11-23T09:23:04Z</time></trkpt><trkpt lat="59.6868421510" lon="32.9473984055"><ele>73.86</ele><time>2024-11-23T09:23:39Z</time></trkpt><trkpt lat="59.6868207771" lon="32.9473957233"><ele>73.73</ele><time>2024-11-23T09:24:17Z</time></trkpt><trkpt lat="59.6867664624" lon="32.9474939592"><ele>73.66</ele><time>2024-11-23T09:24:51Z</time></trkpt><trkpt lat="59.6867973078" lon="32.9474927019"><ele>73.57</ele><time>2024-11-23T09:25:31Z</time></trkpt><trkpt lat="59.6868014149" lon="32.9474306758"><ele>73.50</ele><time>2024-11-23T09:26:23Z</time></trkpt><trkpt lat="59.6867793705" lon="32.9473923706"><ele>73.40</ele><time>2024-11-23T09:27:12Z</time></trkpt><trkpt lat="59.6867816336" lon="32.9473898560"><ele>75.65</ele><time>2024-11-23T09:27:26Z</time></trkpt><trkpt lat="59.6867753472" lon="32.9473929573"><ele>75.41</ele><time>2024-11-23T09:28:18Z</time></trkpt><trkpt lat="59.6867849026" lon="32.9473742656"><ele>75.87</ele><time>2024-11-23T09:29:24Z</time></trkpt><trkpt lat="59.6868010797" lon="32.9473316856"><ele>75.59</ele><time>2024-11-23T09:30:09Z</time></trkpt><trkpt lat="59.6867839806" lon="32.9473546520"><ele>75.04</ele><time>2024-11-23T09:31:10Z</time></trkpt><trkpt lat="59.6867707372" lon="32.9474217072"><ele>74.58</ele><time>2024-11-23T09:31:55Z</time></trkpt><trkpt lat="59.6868040133" lon="32.9474024288"><ele>73.98</ele><time>2024-11-23T09:32:48Z</time></trkpt><trkpt lat="59.6868201904" lon="32.9473787080"><ele>73.35</ele><time>2024-11-23T09:33:45Z</time></trkpt><trkpt lat="59.6867885068" lon="32.9473942984"><ele>72.88</ele><time>2024-11-23T09:34:25Z</time></trkpt><trkpt lat="59.6868119761" lon="32.9473663867"><ele>72.46</ele><time>2024-11-23T09:34:58Z</time></trkpt><trkpt lat="59.6868226212" lon="32.9473596811"><ele>71.87</ele><time>2024-11-23T09:35:46Z</time></trkpt><trkpt lat="59.6867867466" lon="32.9474034347"><ele>71.31</ele><time>2024-11-23T09:36:33Z</time></trkpt><trkpt lat="59.6867607627" lon="32.9473912809"><ele>70.59</ele><time>2024-11-23T09:37:28Z</time></trkpt><trkpt lat="59.6867631096" lon="32.9473804682"><ele>69.91</ele><time>2024-11-23T09:38:21Z</time></trkpt><trkpt lat="59.6867773589" lon="32.9473978188"><ele>69.37</ele><time>2024-11-23T09:39:03Z</time></trkpt><trkpt lat="59.6867657918" lon="32.9473861679"><ele>68.92</ele><time>2024-11-23T09:39:39Z</time></trkpt><trkpt lat="59.6867621038" lon="32.9474309273"><ele>68.54</ele><time>2024-11-23T09:40:10Z</time></trkpt><trkpt lat="59.6867302526" lon="32.9473891016"><ele>67.81</ele><time>2024-11-23T09:41:08Z</time></trkpt><trkpt lat="59.6867486928" lon="32.9473332781"><ele>67.28</ele><time>2024-11-23T09:41:54Z</time></trkpt><trkpt lat="59.6867367905" lon="32.9473550711"><ele>66.71</ele><time>2024-11-23T09:42:44Z</time></trkpt><trkpt lat="59.6867453400" lon="32.9473316856"><ele>66.19</ele><time>2024-11-23T09:43:28Z</time></trkpt><trkpt lat="59.6867419034" lon="32.9473652970"><ele>65.64</ele><time>2024-11-23T09:44:15Z</time></trkpt><trkpt lat="59.6867403109" lon="32.9473635368"><ele>65.15</ele><time>2024-11-23T09:44:56Z</time></trkpt><trkpt lat="59.6867567394" lon="32.9473870900"><ele>64.63</ele><time>2024-11-23T09:45:50Z</time></trkpt><trkpt lat="59.6867289115" lon="32.9473782051"><ele>64.25</ele><time>2024-11-23T09:46:33Z</time></trkpt><trkpt lat="59.6867078729" lon="32.9473652970"><ele>63.89</ele><time>2024-11-23T09:47:13Z</time></trkpt><trkpt lat="59.6867250558" lon="32.9473885987"><ele>63.51</ele><time>2024-11-23T09:47:57Z</time></trkpt><trkpt lat="59.6867236309" lon="32.9474004172"><ele>63.09</ele><time>2024-11-23T09:48:47Z</time></trkpt><trkpt lat="59.6867357008" lon="32.9474253953"><ele>62.75</ele><time>2024-11-23T09:49:25Z</time></trkpt><trkpt lat="59.6867400594" lon="32.9473660514"><ele>62.38</ele><time>2024-11-23T09:49:59Z</time></trkpt><trkpt lat="59.6867446695" lon="32.9473242257"><ele>62.00</ele><time>2024-11-23T09:50:31Z</time></trkpt><trkpt lat="59.6867600083" lon="32.9473526403"><ele>61.64</ele><time>2024-11-23T09:51:10Z</time></trkpt><trkpt lat="59.6867556497" lon="32.9473344516"><ele>61.34</ele><time>2024-11-23T09:51:57Z</time></trkpt><trkpt lat="59.6867478546" lon="32.9473171011"><ele>61.13</ele><time>2024-11-23T09:52:33Z</time></trkpt><trkpt lat="59.6867573261" lon="32.9473176040"><ele>60.88</ele><time>2024-11-23T09:53:09Z</time></trkpt><trkpt lat="59.6867392212" lon="32.9473285004"><ele>60.54</ele><time>2024-11-23T09:53:54Z</time></trkpt><trkpt lat="59.6867305040" lon="32.9473663028"><ele>60.19</ele><time>2024-11-23T09:54:32Z</time></trkpt><trkpt lat="59.6867495310" lon="32.9473487847"><ele>59.92</ele><time>2024-11-23T09:55:00Z</time></trkpt><trkpt lat="59.6867460944" lon="32.9473865032"><ele>59.60</ele><time>2024-11-23T09:55:30Z</time></trkpt><trkpt lat="59.6867416520" lon="32.9473632853"><ele>59.14</ele><time>2024-11-23T09:56:13Z</time></trkpt><trkpt lat="59.6867527161" lon="32.9473730922"><ele>58.77</ele><time>2024-11-23T09:56:49Z</time></trkpt><trkpt lat="59.6867052745" lon="32.9473944660"><ele>58.48</ele><time>2024-11-23T09:57:17Z</time></trkpt><trkpt lat="59.6866827272" lon="32.9474046081"><ele>58.16</ele><time>2024-11-23T09:57:50Z</time></trkpt><trkpt lat="59.6867088787" lon="32.9473835696"><ele>57.67</ele><time>2024-11-23T09:58:39Z</time></trkpt><trkpt lat="59.6867168415" lon="32.9473261535"><ele>57.30</ele><time>2024-11-23T09:59:19Z</time></trkpt><trkpt lat="59.6867087111" lon="32.9473566636"><ele>56.97</ele><time>2024-11-23T09:59:56Z</time></trkpt><trkpt lat="59.6867080405" lon="32.9473587591"><ele>56.66</ele><time>2024-11-23T10:00:30Z</time></trkpt><trkpt lat="59.6867407300" lon="32.9473622795"><ele>56.44</ele><time>2024-11-23T10:01:01Z</time></trkpt><trkpt lat="59.6867520455" lon="32.9473985732"><ele>56.24</ele><time>2024-11-23T10:01:28Z</time></trkpt><trkpt lat="59.6867794544" lon="32.9473533109"><ele>56.02</ele><time>2024-11-23T10:01:54Z</time></trkpt><trkpt lat="59.6867497824" lon="32.9473388940"><ele>55.76</ele><time>2024-11-23T10:02:23Z</time></trkpt><trkpt lat="59.6867217869" lon="32.9473310988"><ele>55.53</ele><time>2024-11-23T10:02:52Z</time></trkpt><trkpt lat="59.6867442504" lon="32.9474107269"><ele>55.32</ele><time>2024-11-23T10:03:21Z</time></trkpt><trkpt lat="59.6867448371" lon="32.9473318532"><ele>55.09</ele><time>2024-11-23T10:03:56Z</time></trkpt><trkpt lat="59.6867486089" lon="32.9473124072"><ele>54.90</ele><time>2024-11-23T10:04:35Z</time></trkpt><trkpt lat="59.6867594216" lon="32.9473703261"><ele>54.75</ele><time>2024-11-23T10:05:05Z</time></trkpt><trkpt lat="59.6867947932" lon="32.9473231360"><ele>54.57</ele><time>2024-11-23T10:05:38Z</time></trkpt><trkpt lat="59.6867195237" lon="32.9474347830"><ele>54.40</ele><time>2024-11-23T10:06:07Z</time></trkpt><trkpt lat="59.6867101360" lon="32.9473994952"><ele>54.19</ele><time>2024-11-23T10:06:43Z</time></trkpt><trkpt lat="59.6867416520" lon="32.9473398998"><ele>53.93</ele><time>2024-11-23T10:07:32Z</time></trkpt><trkpt lat="59.6867613494" lon="32.9473849107"><ele>53.77</ele><time>2024-11-23T10:08:18Z</time></trkpt><trkpt lat="59.6867332701" lon="32.9473761097"><ele>53.58</ele><time>2024-11-23T10:09:08Z</time></trkpt><trkpt lat="59.6867559012" lon="32.9473349545"><ele>53.42</ele><time>2024-11-23T10:09:51Z</time></trkpt><trkpt lat="59.6867302526" lon="32.9473766126"><ele>53.28</ele><time>2024-11-23T10:10:34Z</time></trkpt><trkpt lat="59.6867235471" lon="32.9473907780"><ele>53.21</ele><time>2024-11-23T10:11:08Z</time></trkpt><trkpt lat="59.6867335215" lon="32.9474097211"><ele>53.15</ele><time>2024-11-23T10:11:49Z</time></trkpt><trkpt lat="59.6867351141" lon="32.9473765288"><ele>50.79</ele><time>2024-11-23T10:12:07Z</time></trkpt><trkpt lat="59.6867446695" lon="32.9473971482"><ele>50.74</ele><time>2024-11-23T10:12:51Z</time></trkpt><trkpt lat="59.6867537219" lon="32.9474377166"><ele>50.64</ele><time>2024-11-23T10:13:29Z</time></trkpt><trkpt lat="59.6867114771" lon="32.9474152531"><ele>50.52</ele><time>2024-11-23T10:14:00Z</time></trkpt><trkpt lat="59.6866901033" lon="32.9474425782"><ele>50.30</ele><time>2024-11-23T10:14:43Z</time></trkpt><trkpt lat="59.6866839845" lon="32.9474394768"><ele>50.11</ele><time>2024-11-23T10:15:24Z</time></trkpt><trkpt lat="59.6867066994" lon="32.9474709928"><ele>49.94</ele><time>2024-11-23T10:16:25Z</time></trkpt><trkpt lat="59.6867210325" lon="32.9474490322"><ele>49.81</ele><time>2024-11-23T10:17:14Z</time></trkpt><trkpt lat="59.6867280733" lon="32.9474018421"><ele>49.73</ele><time>2024-11-23T10:18:06Z</time></trkpt><trkpt lat="59.6867236309" lon="32.9474058654"><ele>49.61</ele><time>2024-11-23T10:18:53Z</time></trkpt><trkpt lat="59.6867279895" lon="32.9474038538"><ele>49.44</ele><time>2024-11-23T10:19:43Z</time></trkpt><trkpt lat="59.6867209487" lon="32.9474025127"><ele>49.25</ele><time>2024-11-23T10:20:21Z</time></trkpt><trkpt lat="59.6867369581" lon="32.9473983217"><ele>49.00</ele><time>2024-11-23T10:21:07Z</time></trkpt><trkpt lat="59.6867248043" lon="32.9474239703"><ele>48.63</ele><time>2024-11-23T10:22:05Z</time></trkpt><trkpt lat="59.6867071185" lon="32.9474171810"><ele>48.13</ele><time>2024-11-23T10:23:11Z</time></trkpt><trkpt lat="59.6867201105" lon="32.9474253953"><ele>47.61</ele><time>2024-11-23T10:24:17Z</time></trkpt><trkpt lat="59.6867270675" lon="32.9474470206"><ele>46.36</ele><time>2024-11-23T10:25:11Z</time></trkpt><trkpt lat="59.6867167577" lon="32.9474601801"><ele>46.07</ele><time>2024-11-23T10:26:04Z</time></trkpt><trkpt lat="59.6867351141" lon="32.9474279936"><ele>45.92</ele><time>2024-11-23T10:26:47Z</time></trkpt><trkpt lat="59.6867331024" lon="32.9474256467"><ele>45.79</ele><time>2024-11-23T10:27:33Z</time></trkpt><trkpt lat="59.6867460106" lon="32.9474087153"><ele>44.82</ele><time>2024-11-23T10:28:27Z</time></trkpt><trkpt lat="59.6867334377" lon="32.9474107269"><ele>44.66</ele><time>2024-11-23T10:29:16Z</time></trkpt><trkpt lat="59.6867453400" lon="32.9473557416"><ele>44.50</ele><time>2024-11-23T10:30:05Z</time></trkpt><trkpt lat="59.6867539734" lon="32.9473772831"><ele>44.38</ele><time>2024-11-23T10:30:47Z</time></trkpt><trkpt lat="59.6867409814" lon="32.9473534785"><ele>44.26</ele><time>2024-11-23T10:31:41Z</time></trkpt><trkpt lat="59.6867269836" lon="32.9473910294"><ele>44.15</ele><time>2024-11-23T10:32:27Z</time></trkpt><trkpt lat="59.6867163386" lon="32.9474098049"><ele>41.30</ele><time>2024-11-23T10:32:36Z</time></trkpt><trkpt lat="59.6867162548" lon="32.9474107269"><ele>45.88</ele><time>2024-11-23T10:32:37Z</time></trkpt><trkpt lat="59.6867158357" lon="32.9474100564"><ele>45.88</ele><time>2024-11-23T10:32:38Z</time></trkpt><trkpt lat="59.6867471002" lon="32.9474281613"><ele>45.78</ele><time>2024-11-23T10:33:09Z</time></trkpt><trkpt lat="59.6867458429" lon="32.9473903589"><ele>45.70</ele><time>2024-11-23T10:33:42Z</time></trkpt><trkpt lat="59.6867652051" lon="32.9473593459"><ele>45.61</ele><time>2024-11-23T10:34:10Z</time></trkpt><trkpt lat="59.6867661271" lon="32.9473565798"><ele>42.61</ele><time>2024-11-23T10:34:11Z</time></trkpt><trkpt lat="59.6867659595" lon="32.9473559093"><ele>42.61</ele><time>2024-11-23T10:34:12Z</time></trkpt><trkpt lat="59.6867650375" lon="32.9473519698"><ele>45.65</ele><time>2024-11-23T10:34:13Z</time></trkpt><trkpt lat="59.6867660433" lon="32.9473471921"><ele>45.69</ele><time>2024-11-23T10:34:14Z</time></trkpt><trkpt lat="59.6867670491" lon="32.9473139998"><ele>46.48</ele><time>2024-11-23T10:34:39Z</time></trkpt><trkpt lat="59.6867609303" lon="32.9473046958"><ele>46.42</ele><time>2024-11-23T10:35:07Z</time></trkpt><trkpt lat="59.6867347788" lon="32.9473303445"><ele>46.38</ele><time>2024-11-23T10:35:37Z</time></trkpt><trkpt lat="59.6867732517" lon="32.9472741019"><ele>46.32</ele><time>2024-11-23T10:36:07Z</time></trkpt><trkpt lat="59.6867651213" lon="32.9472563323"><ele>46.28</ele><time>2024-11-23T10:36:34Z</time></trkpt><trkpt lat="59.6867494471" lon="32.9473423306"><ele>46.29</ele><time>2024-11-23T10:37:05Z</time></trkpt><trkpt lat="59.6867441665" lon="32.9473501258"><ele>46.24</ele><time>2024-11-23T10:37:39Z</time></trkpt><trkpt lat="59.6867210325" lon="32.9472869262"><ele>46.15</ele><time>2024-11-23T10:38:09Z</time></trkpt><trkpt lat="59.6867460106" lon="32.9472645465"><ele>46.08</ele><time>2024-11-23T10:38:46Z</time></trkpt><trkpt lat="59.6867200267" lon="32.9472517222"><ele>46.11</ele><time>2024-11-23T10:39:14Z</time></trkpt><trkpt lat="59.6867264807" lon="32.9473048635"><ele>46.17</ele><time>2024-11-23T10:39:50Z</time></trkpt><trkpt lat="59.6867226250" lon="32.9472694080"><ele>46.18</ele><time>2024-11-23T10:40:26Z</time></trkpt><trkpt lat="59.6867194399" lon="32.9472997505"><ele>46.18</ele><time>2024-11-23T10:40:55Z</time></trkpt><trkpt lat="59.6867349464" lon="32.9473824799"><ele>46.20</ele><time>2024-11-23T10:41:25Z</time></trkpt><trkpt lat="59.6867458429" lon="32.9473906104"><ele>46.23</ele><time>2024-11-23T10:42:13Z</time></trkpt><trkpt lat="59.6867244691" lon="32.9474128224"><ele>46.24</ele><time>2024-11-23T10:43:07Z</time></trkpt><trkpt lat="59.6867257264" lon="32.9474278260"><ele>46.18</ele><time>2024-11-23T10:43:56Z</time></trkpt><trkpt lat="59.6867117286" lon="32.9474112298"><ele>46.23</ele><time>2024-11-23T10:44:39Z</time></trkpt><trkpt lat="59.6867087111" lon="32.9474340286"><ele>46.26</ele><time>2024-11-23T10:45:21Z</time></trkpt><trkpt lat="59.6867025923" lon="32.9474408180"><ele>43.99</ele><time>2024-11-23T10:45:36Z</time></trkpt><trkpt lat="59.6867006645" lon="32.9474548157"><ele>43.93</ele><time>2024-11-23T10:46:19Z</time></trkpt><trkpt lat="59.6867048554" lon="32.9474471044"><ele>43.84</ele><time>2024-11-23T10:47:07Z</time></trkpt><trkpt lat="59.6867330186" lon="32.9474164266"><ele>43.77</ele><time>2024-11-23T10:47:37Z</time></trkpt><trkpt lat="59.6867331024" lon="32.9473703261"><ele>43.74</ele><time>2024-11-23T10:48:06Z</time></trkpt><trkpt lat="59.6867310070" lon="32.9473445099"><ele>40.61</ele><time>2024-11-23T10:48:28Z</time></trkpt><trkpt lat="59.6867310070" lon="32.9473486170"><ele>40.61</ele><time>2024-11-23T10:48:29Z</time></trkpt><trkpt lat="59.6867308393" lon="32.9473513830"><ele>44.02</ele><time>2024-11-23T10:48:30Z</time></trkpt><trkpt lat="59.6867313422" lon="32.9473654646"><ele>44.00</ele><time>2024-11-23T10:48:31Z</time></trkpt><trkpt lat="59.6867224574" lon="32.9472394846"><ele>44.00</ele><time>2024-11-23T10:48:45Z</time></trkpt><trkpt lat="59.6866142470" lon="32.9471144266"><ele>43.97</ele><time>2024-11-23T10:49:04Z</time></trkpt><trkpt lat="59.6865655482" lon="32.9470396601"><ele>41.60</ele><time>2024-11-23T10:49:12Z</time></trkpt><trkpt lat="59.6864809748" lon="32.9468945693"><ele>43.94</ele><time>2024-11-23T10:49:23Z</time></trkpt><trkpt lat="59.6863358002" lon="32.9467056412"><ele>45.05</ele><time>2024-11-23T10:49:41Z</time></trkpt><trkpt lat="59.6863259934" lon="32.9466839321"><ele>45.04</ele><time>2024-11-23T10:49:42Z</time></trkpt><trkpt lat="59.6861705929" lon="32.9464556091"><ele>45.68</ele><time>2024-11-23T10:49:59Z</time></trkpt><trkpt lat="59.6860131808" lon="32.9461984523"><ele>47.21</ele><time>2024-11-23T10:50:17Z</time></trkpt><trkpt lat="59.6859037969" lon="32.9460034054"><ele>47.00</ele><time>2024-11-23T10:50:32Z</time></trkpt><trkpt lat="59.6857539285" lon="32.9458438139"><ele>46.78</ele><time>2024-11-23T10:50:50Z</time></trkpt><trkpt lat="59.6855555288" lon="32.9458537884"><ele>46.55</ele><time>2024-11-23T10:51:07Z</time></trkpt><trkpt lat="59.6853575483" lon="32.9458946921"><ele>46.35</ele><time>2024-11-23T10:51:23Z</time></trkpt><trkpt lat="59.6852442250" lon="32.9459382780"><ele>46.24</ele><time>2024-11-23T10:51:32Z</time></trkpt><trkpt lat="59.6850200929" lon="32.9458985478"><ele>46.02</ele><time>2024-11-23T10:51:50Z</time></trkpt><trkpt lat="59.6848111320" lon="32.9457709752"><ele>45.82</ele><time>2024-11-23T10:52:08Z</time></trkpt><trkpt lat="59.6846806258" lon="32.9457265511"><ele>45.67</ele><time>2024-11-23T10:52:21Z</time></trkpt><trkpt lat="59.6845001634" lon="32.9457516130"><ele>45.46</ele><time>2024-11-23T10:52:39Z</time></trkpt><trkpt lat="59.6843312681" lon="32.9457378667"><ele>45.28</ele><time>2024-11-23T10:52:53Z</time></trkpt><trkpt lat="59.6841943916" lon="32.9457735736"><ele>45.11</ele><time>2024-11-23T10:53:07Z</time></trkpt><trkpt lat="59.6839866042" lon="32.9458239488"><ele>44.87</ele><time>2024-11-23T10:53:25Z</time></trkpt><trkpt lat="59.6837752964" lon="32.9458758328"><ele>44.60</ele><time>2024-11-23T10:53:44Z</time></trkpt><trkpt lat="59.6835697722" lon="32.9459461570"><ele>44.36</ele><time>2024-11-23T10:54:02Z</time></trkpt><trkpt lat="59.6833819337" lon="32.9459573887"><ele>44.12</ele><time>2024-11-23T10:54:19Z</time></trkpt><trkpt lat="59.6832153015" lon="32.9459850490"><ele>43.92</ele><time>2024-11-23T10:54:35Z</time></trkpt><trkpt lat="59.6830471605" lon="32.9459543712"><ele>41.06</ele><time>2024-11-23T10:54:50Z</time></trkpt><trkpt lat="59.6828697994" lon="32.9459117912"><ele>40.85</ele><time>2024-11-23T10:55:06Z</time></trkpt><trkpt lat="59.6826645266" lon="32.9459051695"><ele>40.55</ele><time>2024-11-23T10:55:25Z</time></trkpt><trkpt lat="59.6825169213" lon="32.9458916746"><ele>40.28</ele><time>2024-11-23T10:55:41Z</time></trkpt><trkpt lat="59.6823124029" lon="32.9461222608"><ele>39.91</ele><time>2024-11-23T10:56:02Z</time></trkpt><trkpt lat="59.6821925417" lon="32.9463367537"><ele>39.56</ele><time>2024-11-23T10:56:22Z</time></trkpt><trkpt lat="59.6820972394" lon="32.9466103390"><ele>39.18</ele><time>2024-11-23T10:56:40Z</time></trkpt><trkpt lat="59.6819949802" lon="32.9468617961"><ele>40.36</ele><time>2024-11-23T10:56:55Z</time></trkpt><trkpt lat="59.6818265878" lon="32.9470872693"><ele>40.07</ele><time>2024-11-23T10:57:12Z</time></trkpt><trkpt lat="59.6817757096" lon="32.9471209645"><ele>40.01</ele><time>2024-11-23T10:57:16Z</time></trkpt><trkpt lat="59.6815462131" lon="32.9470933881"><ele>39.74</ele><time>2024-11-23T10:57:34Z</time></trkpt><trkpt lat="59.6814965922" lon="32.9470949806"><ele>37.27</ele><time>2024-11-23T10:57:39Z</time></trkpt><trkpt lat="59.6812945884" lon="32.9470042884"><ele>37.00</ele><time>2024-11-23T10:57:55Z</time></trkpt><trkpt lat="59.6811149642" lon="32.9469410889"><ele>36.77</ele><time>2024-11-23T10:58:10Z</time></trkpt><trkpt lat="59.6810804307" lon="32.9469397478"><ele>36.72</ele><time>2024-11-23T10:58:13Z</time></trkpt><trkpt lat="59.6809765790" lon="32.9469057173"><ele>36.59</ele><time>2024-11-23T10:58:22Z</time></trkpt><trkpt lat="59.6807692945" lon="32.9468796495"><ele>36.38</ele><time>2024-11-23T10:58:37Z</time></trkpt><trkpt lat="59.6805786062" lon="32.9468583595"><ele>36.13</ele><time>2024-11-23T10:58:55Z</time></trkpt><trkpt lat="59.6804010775" lon="32.9469746165"><ele>35.91</ele><time>2024-11-23T10:59:12Z</time></trkpt><trkpt lat="59.6803341899" lon="32.9468732793"><ele>34.78</ele><time>2024-11-23T10:59:36Z</time></trkpt><trkpt lat="59.6802976448" lon="32.9466073215"><ele>34.62</ele><time>2024-11-23T10:59:55Z</time></trkpt><trkpt lat="59.6802861616" lon="32.9464199021"><ele>34.42</ele><time>2024-11-23T11:00:17Z</time></trkpt><trkpt lat="59.6803530492" lon="32.9463118594"><ele>34.30</ele><time>2024-11-23T11:00:35Z</time></trkpt><trkpt lat="59.6803973895" lon="32.9460405372"><ele>34.17</ele><time>2024-11-23T11:00:55Z</time></trkpt><trkpt lat="59.6805454977" lon="32.9458501004"><ele>33.23</ele><time>2024-11-23T11:01:18Z</time></trkpt><trkpt lat="59.6807006467" lon="32.9456967115"><ele>32.31</ele><time>2024-11-23T11:01:40Z</time></trkpt><trkpt lat="59.6808505990" lon="32.9455448315"><ele>32.32</ele><time>2024-11-23T11:02:00Z</time></trkpt><trkpt lat="59.6810466517" lon="32.9454783630"><ele>31.52</ele><time>2024-11-23T11:02:24Z</time></trkpt><trkpt lat="59.6812173910" lon="32.9453434143"><ele>31.53</ele><time>2024-11-23T11:02:45Z</time></trkpt><trkpt lat="59.6813532617" lon="32.9451523907"><ele>30.75</ele><time>2024-11-23T11:03:06Z</time></trkpt><trkpt lat="59.6814491507" lon="32.9449628759"><ele>30.82</ele><time>2024-11-23T11:03:25Z</time></trkpt><trkpt lat="59.6815528348" lon="32.9447545856"><ele>30.09</ele><time>2024-11-23T11:03:46Z</time></trkpt><trkpt lat="59.6816267632" lon="32.9445110075"><ele>30.16</ele><time>2024-11-23T11:04:09Z</time></trkpt><trkpt lat="59.6816146933" lon="32.9442043975"><ele>29.24</ele><time>2024-11-23T11:04:32Z</time></trkpt><trkpt lat="59.6815894637" lon="32.9440381005"><ele>29.33</ele><time>2024-11-23T11:04:57Z</time></trkpt><trkpt lat="59.6815724485" lon="32.9438543692"><ele>28.32</ele><time>2024-11-23T11:05:15Z</time></trkpt><trkpt lat="59.6814847738" lon="32.9438417964"><ele>28.43</ele><time>2024-11-23T11:05:31Z</time></trkpt><trkpt lat="59.6814789064" lon="32.9438003898"><ele>26.64</ele><time>2024-11-23T11:05:36Z</time></trkpt><trkpt lat="59.6814644057" lon="32.9437727295"><ele>29.39</ele><time>2024-11-23T11:05:38Z</time></trkpt><trkpt lat="59.6814087499" lon="32.9435759224"><ele>29.50</ele><time>2024-11-23T11:05:56Z</time></trkpt><trkpt lat="59.6814281959" lon="32.9433743376"><ele>27.24</ele><time>2024-11-23T11:06:15Z</time></trkpt><trkpt lat="59.6814001165" lon="32.9432429932"><ele>27.36</ele><time>2024-11-23T11:06:36Z</time></trkpt><trkpt lat="59.6813131962" lon="32.9431083798"><ele>27.43</ele><time>2024-11-23T11:06:57Z</time></trkpt><trkpt lat="59.6812155470" lon="32.9430410732"><ele>27.56</ele><time>2024-11-23T11:07:16Z</time></trkpt><trkpt lat="59.6811083425" lon="32.9429042805"><ele>26.74</ele><time>2024-11-23T11:07:36Z</time></trkpt><trkpt lat="59.6810505074" lon="32.9426941462"><ele>26.86</ele><time>2024-11-23T11:07:57Z</time></trkpt><trkpt lat="59.6810528543" lon="32.9426721856"><ele>24.99</ele><time>2024-11-23T11:08:07Z</time></trkpt><trkpt lat="59.6810506750" lon="32.9426736943"><ele>27.84</ele><time>2024-11-23T11:08:10Z</time></trkpt><trkpt lat="59.6809804346" lon="32.9425581917"><ele>27.93</ele><time>2024-11-23T11:08:32Z</time></trkpt><trkpt lat="59.6809740644" lon="32.9425286874"><ele>28.06</ele><time>2024-11-23T11:09:03Z</time></trkpt><trkpt lat="59.6809738968" lon="32.9425263405"><ele>25.44</ele><time>2024-11-23T11:09:05Z</time></trkpt><trkpt lat="59.6809754055" lon="32.9425306991"><ele>25.63</ele><time>2024-11-23T11:09:50Z</time></trkpt><trkpt lat="59.6809918340" lon="32.9425827507"><ele>25.74</ele><time>2024-11-23T11:10:18Z</time></trkpt><trkpt lat="59.6810042392" lon="32.9425790627"><ele>25.03</ele><time>2024-11-23T11:10:35Z</time></trkpt><trkpt lat="59.6809992101" lon="32.9425667413"><ele>25.19</ele><time>2024-11-23T11:11:04Z</time></trkpt><trkpt lat="59.6810194105" lon="32.9426234867"><ele>24.37</ele><time>2024-11-23T11:11:20Z</time></trkpt><trkpt lat="59.6810667682" lon="32.9427733552"><ele>24.51</ele><time>2024-11-23T11:11:36Z</time></trkpt><trkpt lat="59.6810730547" lon="32.9427990038"><ele>17.98</ele><time>2024-11-23T11:11:38Z</time></trkpt><trkpt lat="59.6810758207" lon="32.9428121634"><ele>26.10</ele><time>2024-11-23T11:11:39Z</time></trkpt><trkpt lat="59.6810779162" lon="32.9428255744"><ele>26.11</ele><time>2024-11-23T11:11:40Z</time></trkpt><trkpt lat="59.6810888965" lon="32.9428669810"><ele>26.10</ele><time>2024-11-23T11:11:43Z</time></trkpt><trkpt lat="59.6811354160" lon="32.9429352097"><ele>23.83</ele><time>2024-11-23T11:11:51Z</time></trkpt><trkpt lat="59.6812204923" lon="32.9430333618"><ele>24.03</ele><time>2024-11-23T11:12:06Z</time></trkpt><trkpt lat="59.6812410280" lon="32.9430612735"><ele>18.40</ele><time>2024-11-23T11:12:11Z</time></trkpt><trkpt lat="59.6812467277" lon="32.9430699907"><ele>18.37</ele><time>2024-11-23T11:12:12Z</time></trkpt><trkpt lat="59.6812503319" lon="32.9430766124"><ele>23.74</ele><time>2024-11-23T11:12:13Z</time></trkpt><trkpt lat="59.6812593006" lon="32.9430919513"><ele>24.91</ele><time>2024-11-23T11:12:15Z</time></trkpt><trkpt lat="59.6812952589" lon="32.9431070387"><ele>22.57</ele><time>2024-11-23T11:12:20Z</time></trkpt><trkpt lat="59.6813634876" lon="32.9431451764"><ele>22.79</ele><time>2024-11-23T11:12:38Z</time></trkpt><trkpt lat="59.6814079955" lon="32.9432730004"><ele>22.90</ele><time>2024-11-23T11:12:53Z</time></trkpt><trkpt lat="59.6814305428" lon="32.9434325919"><ele>23.02</ele><time>2024-11-23T11:13:08Z</time></trkpt><trkpt lat="59.6814247593" lon="32.9435869865"><ele>23.11</ele><time>2024-11-23T11:13:25Z</time></trkpt><trkpt lat="59.6814390924" lon="32.9436709732"><ele>23.21</ele><time>2024-11-23T11:13:38Z</time></trkpt><trkpt lat="59.6814740449" lon="32.9437767528"><ele>23.35</ele><time>2024-11-23T11:13:57Z</time></trkpt><trkpt lat="59.6815509070" lon="32.9438747372"><ele>23.47</ele><time>2024-11-23T11:14:14Z</time></trkpt><trkpt lat="59.6815680899" lon="32.9440102726"><ele>23.60</ele><time>2024-11-23T11:14:34Z</time></trkpt><trkpt lat="59.6815841831" lon="32.9440842848"><ele>25.99</ele><time>2024-11-23T11:14:41Z</time></trkpt><trkpt lat="59.6816428564" lon="32.9442527611"><ele>26.07</ele><time>2024-11-23T11:15:02Z</time></trkpt><trkpt lat="59.6817081515" lon="32.9444108438"><ele>26.18</ele><time>2024-11-23T11:15:21Z</time></trkpt><trkpt lat="59.6818134282" lon="32.9445706028"><ele>27.28</ele><time>2024-11-23T11:15:41Z</time></trkpt><trkpt lat="59.6818653122" lon="32.9448441882"><ele>27.27</ele><time>2024-11-23T11:16:01Z</time></trkpt><trkpt lat="59.6819323674" lon="32.9450477008"><ele>28.03</ele><time>2024-11-23T11:16:24Z</time></trkpt><trkpt lat="59.6819865983" lon="32.9452792089"><ele>28.71</ele><time>2024-11-23T11:16:45Z</time></trkpt><trkpt lat="59.6820202097" lon="32.9455711506"><ele>29.40</ele><time>2024-11-23T11:17:05Z</time></trkpt><trkpt lat="59.6820710879" lon="32.9457826260"><ele>30.09</ele><time>2024-11-23T11:17:26Z</time></trkpt><trkpt lat="59.6820166055" lon="32.9460453149"><ele>29.95</ele><time>2024-11-23T11:17:46Z</time></trkpt><trkpt lat="59.6820521448" lon="32.9461895674"><ele>30.59</ele><time>2024-11-23T11:18:07Z</time></trkpt><trkpt lat="59.6820917912" lon="32.9461488314"><ele>30.52</ele><time>2024-11-23T11:18:23Z</time></trkpt><trkpt lat="59.6822257340" lon="32.9459925927"><ele>30.50</ele><time>2024-11-23T11:18:40Z</time></trkpt><trkpt lat="59.6823157556" lon="32.9459207598"><ele>30.50</ele><time>2024-11-23T11:18:49Z</time></trkpt><trkpt lat="59.6824579965" lon="32.9458019882"><ele>30.53</ele><time>2024-11-23T11:19:04Z</time></trkpt><trkpt lat="59.6826097090" lon="32.9457428958"><ele>30.57</ele><time>2024-11-23T11:19:21Z</time></trkpt><trkpt lat="59.6827983018" lon="32.9457263835"><ele>30.65</ele><time>2024-11-23T11:19:40Z</time></trkpt><trkpt lat="59.6829998028" lon="32.9457609169"><ele>30.77</ele><time>2024-11-23T11:20:00Z</time></trkpt><trkpt lat="59.6830606554" lon="32.9458140582"><ele>30.82</ele><time>2024-11-23T11:20:06Z</time></trkpt><trkpt lat="59.6832175646" lon="32.9458236974"><ele>30.95</ele><time>2024-11-23T11:20:21Z</time></trkpt><trkpt lat="59.6833769884" lon="32.9458488431"><ele>31.08</ele><time>2024-11-23T11:20:36Z</time></trkpt><trkpt lat="59.6834162995" lon="32.9458546266"><ele>31.12</ele><time>2024-11-23T11:20:40Z</time></trkpt><trkpt lat="59.6835929062" lon="32.9458228592"><ele>32.16</ele><time>2024-11-23T11:20:54Z</time></trkpt><trkpt lat="59.6837824211" lon="32.9457549658"><ele>32.37</ele><time>2024-11-23T11:21:14Z</time></trkpt><trkpt lat="59.6839695051" lon="32.9457204323"><ele>32.48</ele><time>2024-11-23T11:21:33Z</time></trkpt><trkpt lat="59.6841463633" lon="32.9456876591"><ele>32.55</ele><time>2024-11-23T11:21:51Z</time></trkpt><trkpt lat="59.6843126602" lon="32.9456817918"><ele>32.60</ele><time>2024-11-23T11:22:08Z</time></trkpt><trkpt lat="59.6844844054" lon="32.9456803668"><ele>32.69</ele><time>2024-11-23T11:22:26Z</time></trkpt><trkpt lat="59.6846829727" lon="32.9456742480"><ele>32.74</ele><time>2024-11-23T11:22:47Z</time></trkpt><trkpt lat="59.6848589089" lon="32.9457385372"><ele>32.87</ele><time>2024-11-23T11:23:06Z</time></trkpt><trkpt lat="59.6850131359" lon="32.9458750784"><ele>32.95</ele><time>2024-11-23T11:23:22Z</time></trkpt><trkpt lat="59.6850451548" lon="32.9458878189"><ele>30.68</ele><time>2024-11-23T11:23:25Z</time></trkpt><trkpt lat="59.6852062549" lon="32.9459061753"><ele>30.82</ele><time>2024-11-23T11:23:42Z</time></trkpt><trkpt lat="59.6853614040" lon="32.9458468314"><ele>30.93</ele><time>2024-11-23T11:23:59Z</time></trkpt><trkpt lat="59.6854914073" lon="32.9457935225"><ele>31.04</ele><time>2024-11-23T11:24:15Z</time></trkpt><trkpt lat="59.6856576204" lon="32.9457595758"><ele>31.16</ele><time>2024-11-23T11:24:32Z</time></trkpt><trkpt lat="59.6857841033" lon="32.9457163252"><ele>31.25</ele><time>2024-11-23T11:24:47Z</time></trkpt><trkpt lat="59.6857992746" lon="32.9457325023"><ele>31.25</ele><time>2024-11-23T11:24:49Z</time></trkpt><trkpt lat="59.6858735383" lon="32.9459091928"><ele>30.52</ele><time>2024-11-23T11:25:02Z</time></trkpt><trkpt lat="59.6859699301" lon="32.9461350851"><ele>30.59</ele><time>2024-11-23T11:25:16Z</time></trkpt><trkpt lat="59.6860933118" lon="32.9463266954"><ele>30.68</ele><time>2024-11-23T11:25:32Z</time></trkpt><trkpt lat="59.6862302721" lon="32.9465167969"><ele>29.98</ele><time>2024-11-23T11:25:48Z</time></trkpt><trkpt lat="59.6863368060" lon="32.9466286115"><ele>30.05</ele><time>2024-11-23T11:26:01Z</time></trkpt><trkpt lat="59.6864706650" lon="32.9468450323"><ele>30.14</ele><time>2024-11-23T11:26:17Z</time></trkpt><trkpt lat="59.6866098884" lon="32.9470641352"><ele>30.24</ele><time>2024-11-23T11:26:35Z</time></trkpt><trkpt lat="59.6867193561" lon="32.9472648818"><ele>30.31</ele><time>2024-11-23T11:26:50Z</time></trkpt><trkpt lat="59.6867289115" lon="32.9474329390"><ele>30.38</ele><time>2024-11-23T11:27:07Z</time></trkpt><trkpt lat="59.6867305040" lon="32.9474657122"><ele>30.51</ele><time>2024-11-23T11:27:31Z</time></trkpt><trkpt lat="59.6867030114" lon="32.9474639520"><ele>30.68</ele><time>2024-11-23T11:28:06Z</time></trkpt><trkpt lat="59.6867085434" lon="32.9474172648"><ele>30.80</ele><time>2024-11-23T11:28:29Z</time></trkpt><trkpt lat="59.6867158357" lon="32.9474393930"><ele>25.96</ele><time>2024-11-23T11:28:46Z</time></trkpt><trkpt lat="59.6867168415" lon="32.9474351183"><ele>25.97</ele><time>2024-11-23T11:28:47Z</time></trkpt><trkpt lat="59.6867195237" lon="32.9474278260"><ele>31.99</ele><time>2024-11-23T11:28:48Z</time></trkpt><trkpt lat="59.6867196076" lon="32.9474217910"><ele>32.00</ele><time>2024-11-23T11:28:49Z</time></trkpt><trkpt lat="59.6867456753" lon="32.9472996667"><ele>29.81</ele><time>2024-11-23T11:29:11Z</time></trkpt><trkpt lat="59.6867260616" lon="32.9473648779"><ele>28.51</ele><time>2024-11-23T11:29:51Z</time></trkpt><trkpt lat="59.6867227927" lon="32.9474018421"><ele>28.19</ele><time>2024-11-23T11:30:32Z</time></trkpt><trkpt lat="59.6866875049" lon="32.9474141635"><ele>27.85</ele><time>2024-11-23T11:31:15Z</time></trkpt><trkpt lat="59.6867190208" lon="32.9474127386"><ele>28.21</ele><time>2024-11-23T11:31:44Z</time></trkpt><trkpt lat="59.6866853256" lon="32.9474293347"><ele>28.61</ele><time>2024-11-23T11:32:19Z</time></trkpt><trkpt lat="59.6867114771" lon="32.9473997466"><ele>29.07</ele><time>2024-11-23T11:33:03Z</time></trkpt><trkpt lat="59.6867206134" lon="32.9474073742"><ele>29.62</ele><time>2024-11-23T11:33:51Z</time></trkpt><trkpt lat="59.6867055260" lon="32.9473840725"><ele>30.10</ele><time>2024-11-23T11:34:37Z</time></trkpt><trkpt lat="59.6867066156" lon="32.9473658837"><ele>30.57</ele><time>2024-11-23T11:35:29Z</time></trkpt><trkpt lat="59.6867212001" lon="32.9473667219"><ele>30.97</ele><time>2024-11-23T11:36:18Z</time></trkpt><trkpt lat="59.6867382154" lon="32.9474296700"><ele>31.24</ele><time>2024-11-23T11:37:01Z</time></trkpt><trkpt lat="59.6867229603" lon="32.9474776145"><ele>31.52</ele><time>2024-11-23T11:37:44Z</time></trkpt><trkpt lat="59.6867346112" lon="32.9474300891"><ele>31.83</ele><time>2024-11-23T11:38:28Z</time></trkpt><trkpt lat="59.6867368743" lon="32.9474067874"><ele>32.13</ele><time>2024-11-23T11:39:13Z</time></trkpt><trkpt lat="59.6867451724" lon="32.9473893531"><ele>32.40</ele><time>2024-11-23T11:39:55Z</time></trkpt><trkpt lat="59.6867265645" lon="32.9473416600"><ele>32.60</ele><time>2024-11-23T11:40:31Z</time></trkpt><trkpt lat="59.6867019217" lon="32.9473945498"><ele>32.78</ele><time>2024-11-23T11:41:08Z</time></trkpt><trkpt lat="59.6866882592" lon="32.9474275745"><ele>32.89</ele><time>2024-11-23T11:41:33Z</time></trkpt><trkpt lat="59.6867738385" lon="32.9474644549"><ele>33.02</ele><time>2024-11-23T11:42:00Z</time></trkpt><trkpt lat="59.6867459267" lon="32.9475013353"><ele>33.20</ele><time>2024-11-23T11:42:29Z</time></trkpt><trkpt lat="59.6867409814" lon="32.9474775307"><ele>33.37</ele><time>2024-11-23T11:43:05Z</time></trkpt><trkpt lat="59.6867445856" lon="32.9474512115"><ele>33.64</ele><time>2024-11-23T11:43:58Z</time></trkpt><trkpt lat="59.6867592540" lon="32.9474830627"><ele>33.87</ele><time>2024-11-23T11:44:36Z</time></trkpt><trkpt lat="59.6867408138" lon="32.9474628624"><ele>34.22</ele><time>2024-11-23T11:45:31Z</time></trkpt><trkpt lat="59.6867274866" lon="32.9474380519"><ele>36.84</ele><time>2024-11-23T11:46:18Z</time></trkpt><trkpt lat="59.6867304202" lon="32.9474111460"><ele>37.12</ele><time>2024-11-23T11:47:15Z</time></trkpt><trkpt lat="59.6867156681" lon="32.9474367946"><ele>37.28</ele><time>2024-11-23T11:47:51Z</time></trkpt><trkpt lat="59.6867177635" lon="32.9474280775"><ele>37.42</ele><time>2024-11-23T11:48:31Z</time></trkpt><trkpt lat="59.6867612656" lon="32.9473697394"><ele>37.54</ele><time>2024-11-23T11:49:07Z</time></trkpt><trkpt lat="59.6867465135" lon="32.9474054463"><ele>37.63</ele><time>2024-11-23T11:49:36Z</time></trkpt><trkpt lat="59.6867938712" lon="32.9474113137"><ele>37.83</ele><time>2024-11-23T11:50:22Z</time></trkpt><trkpt lat="59.6867646184" lon="32.9473934602"><ele>38.06</ele><time>2024-11-23T11:50:59Z</time></trkpt><trkpt lat="59.6867503691" lon="32.9474590905"><ele>38.26</ele><time>2024-11-23T11:51:31Z</time></trkpt><trkpt lat="59.6867487766" lon="32.9474464338"><ele>39.23</ele><time>2024-11-23T11:52:01Z</time></trkpt><trkpt lat="59.6867945418" lon="32.9473905265"><ele>16.58</ele><time>2024-11-23T11:52:20Z</time></trkpt></trkseg><trkseg><trkpt lat="60.5258240551" lon="32.6204509567"><ele>-69.40</ele><time>2024-11-27T19:56:17Z</time></trkpt><trkpt lat="60.5259574112" lon="32.6203849073"><ele>-69.40</ele><time>2024-11-27T19:56:33Z</time></trkpt><trkpt lat="60.5260104686" lon="32.6203782018"><ele>-69.06</ele><time>2024-11-27T19:56:56Z</time></trkpt><trkpt lat="60.5260074511" lon="32.6203673054"><ele>-68.13</ele><time>2024-11-27T19:57:22Z</time></trkpt><trkpt lat="60.5260212813" lon="32.6203330234"><ele>-67.18</ele><time>2024-11-27T19:57:47Z</time></trkpt><trkpt lat="60.5260274839" lon="32.6203955524"><ele>-68.19</ele><time>2024-11-27T19:58:12Z</time></trkpt><trkpt lat="60.5260352790" lon="32.6204165909"><ele>-67.26</ele><time>2024-11-27T19:58:36Z</time></trkpt><trkpt lat="60.5260408111" lon="32.6204410661"><ele>-66.32</ele><time>2024-11-27T19:59:00Z</time></trkpt><trkpt lat="60.5260126479" lon="32.6203886792"><ele>-66.51</ele><time>2024-11-27T19:59:20Z</time></trkpt><trkpt lat="60.5260444153" lon="32.6203886792"><ele>-65.72</ele><time>2024-11-27T19:59:40Z</time></trkpt><trkpt lat="60.5260268971" lon="32.6204076223"><ele>-64.89</ele><time>2024-11-27T19:59:57Z</time></trkpt><trkpt lat="60.5260166712" lon="32.6204015873"><ele>-63.95</ele><time>2024-11-27T20:00:21Z</time></trkpt><trkpt lat="60.5259973090" lon="32.6203625277"><ele>-63.15</ele><time>2024-11-27T20:00:42Z</time></trkpt><trkpt lat="60.5260110553" lon="32.6203830633"><ele>-62.11</ele><time>2024-11-27T20:01:09Z</time></trkpt><trkpt lat="60.5260249693" lon="32.6203660481"><ele>-61.02</ele><time>2024-11-27T20:01:37Z</time></trkpt><trkpt lat="60.5260215327" lon="32.6203553192"><ele>-60.03</ele><time>2024-11-27T20:02:03Z</time></trkpt><trkpt lat="60.5260505341" lon="32.6203130744"><ele>-59.52</ele><time>2024-11-27T20:02:16Z</time></trkpt><trkpt lat="60.5260393023" lon="32.6203037705"><ele>-62.97</ele><time>2024-11-27T20:02:23Z</time></trkpt><trkpt lat="60.5260396376" lon="32.6203029323"><ele>-62.93</ele><time>2024-11-27T20:02:24Z</time></trkpt><trkpt lat="60.5260291602" lon="32.6202823967"><ele>-60.52</ele><time>2024-11-27T20:02:28Z</time></trkpt><trkpt lat="60.5259715766" lon="32.6202106476"><ele>-57.25</ele><time>2024-11-27T20:02:32Z</time></trkpt><trkpt lat="60.5259103887" lon="32.6201440115"><ele>-60.65</ele><time>2024-11-27T20:02:35Z</time></trkpt><trkpt lat="60.5258889310" lon="32.6201255713"><ele>-60.61</ele><time>2024-11-27T20:02:36Z</time></trkpt><trkpt lat="60.5255141761" lon="32.6199685782"><ele>-60.08</ele><time>2024-11-27T20:02:50Z</time></trkpt><trkpt lat="60.5250509083" lon="32.6203346997"><ele>-59.58</ele><time>2024-11-27T20:03:04Z</time></trkpt><trkpt lat="60.5249304604" lon="32.6205176767"><ele>-56.50</ele><time>2024-11-27T20:03:09Z</time></trkpt><trkpt lat="60.5249062367" lon="32.6205585804"><ele>-56.46</ele><time>2024-11-27T20:03:10Z</time></trkpt><trkpt lat="60.5245174840" lon="32.6211103611"><ele>-55.93</ele><time>2024-11-27T20:03:25Z</time></trkpt><trkpt lat="60.5240638554" lon="32.6214198209"><ele>-55.36</ele><time>2024-11-27T20:03:41Z</time></trkpt><trkpt lat="60.5235518049" lon="32.6214784943"><ele>-54.82</ele><time>2024-11-27T20:03:56Z</time></trkpt><trkpt lat="60.5234005116" lon="32.6215090882"><ele>-53.43</ele><time>2024-11-27T20:04:00Z</time></trkpt><trkpt lat="60.5233017728" lon="32.6215147879"><ele>-56.08</ele><time>2024-11-27T20:04:03Z</time></trkpt><trkpt lat="60.5230698455" lon="32.6211054157"><ele>-55.70</ele><time>2024-11-27T20:04:14Z</time></trkpt><trkpt lat="60.5230243318" lon="32.6209790166"><ele>-55.22</ele><time>2024-11-27T20:04:27Z</time></trkpt><trkpt lat="60.5230187159" lon="32.6209772564"><ele>-56.58</ele><time>2024-11-27T20:04:39Z</time></trkpt><trkpt lat="60.5230220687" lon="32.6209682878"><ele>-49.56</ele><time>2024-11-27T20:04:42Z</time></trkpt><trkpt lat="60.5230210628" lon="32.6209618337"><ele>-52.46</ele><time>2024-11-27T20:04:43Z</time></trkpt><trkpt lat="60.5230102502" lon="32.6209108718"><ele>-55.25</ele><time>2024-11-27T20:04:46Z</time></trkpt><trkpt lat="60.5229732022" lon="32.6207485981"><ele>-54.77</ele><time>2024-11-27T20:05:02Z</time></trkpt><trkpt lat="60.5229846016" lon="32.6207463350"><ele>-53.65</ele><time>2024-11-27T20:05:39Z</time></trkpt><trkpt lat="60.5229882058" lon="32.6207392104"><ele>-56.35</ele><time>2024-11-27T20:06:02Z</time></trkpt><trkpt lat="60.5229877029" lon="32.6207397133"><ele>-52.02</ele><time>2024-11-27T20:06:04Z</time></trkpt><trkpt lat="60.5229908042" lon="32.6207387075"><ele>-49.32</ele><time>2024-11-27T20:06:06Z</time></trkpt><trkpt lat="60.5229903851" lon="32.6207473408"><ele>-51.77</ele><time>2024-11-27T20:06:08Z</time></trkpt><trkpt lat="60.5229846016" lon="32.6207586564"><ele>-57.82</ele><time>2024-11-27T20:06:39Z</time></trkpt><trkpt lat="60.5229849368" lon="32.6207558066"><ele>-57.82</ele><time>2024-11-27T20:06:40Z</time></trkpt><trkpt lat="60.5229848530" lon="32.6207548846"><ele>-53.15</ele><time>2024-11-27T20:06:42Z</time></trkpt><trkpt lat="60.5229847692" lon="32.6207530405"><ele>-51.91</ele><time>2024-11-27T20:06:44Z</time></trkpt><trkpt lat="60.5229818355" lon="32.6207455806"><ele>-52.10</ele><time>2024-11-27T20:07:04Z</time></trkpt><trkpt lat="60.5229815841" lon="32.6207470894"><ele>-48.57</ele><time>2024-11-27T20:07:05Z</time></trkpt><trkpt lat="60.5229809135" lon="32.6207469217"><ele>-48.51</ele><time>2024-11-27T20:07:06Z</time></trkpt><trkpt lat="60.5229859427" lon="32.6207541302"><ele>-50.63</ele><time>2024-11-27T20:07:16Z</time></trkpt><trkpt lat="60.5229954980" lon="32.6206113026"><ele>-50.14</ele><time>2024-11-27T20:07:32Z</time></trkpt><trkpt lat="60.5229716096" lon="32.6204745099"><ele>-49.58</ele><time>2024-11-27T20:07:50Z</time></trkpt><trkpt lat="60.5229684245" lon="32.6204333548"><ele>-49.58</ele><time>2024-11-27T20:07:52Z</time></trkpt><trkpt lat="60.5229905527" lon="32.6201361325"><ele>-49.14</ele><time>2024-11-27T20:08:08Z</time></trkpt><trkpt lat="60.5229987670" lon="32.6198556740"><ele>-48.75</ele><time>2024-11-27T20:08:23Z</time></trkpt><trkpt lat="60.5230150279" lon="32.6194913965"><ele>-49.10</ele><time>2024-11-27T20:08:39Z</time></trkpt><trkpt lat="60.5231221486" lon="32.6192203257"><ele>-49.67</ele><time>2024-11-27T20:08:57Z</time></trkpt><trkpt lat="60.5232451949" lon="32.6190635841"><ele>-49.28</ele><time>2024-11-27T20:09:11Z</time></trkpt><trkpt lat="60.5233994219" lon="32.6189013943"><ele>-48.74</ele><time>2024-11-27T20:09:30Z</time></trkpt><trkpt lat="60.5234467797" lon="32.6188315731"><ele>-48.39</ele><time>2024-11-27T20:09:45Z</time></trkpt><trkpt lat="60.5234570894" lon="32.6188235264"><ele>-47.92</ele><time>2024-11-27T20:10:03Z</time></trkpt><trkpt lat="60.5234448519" lon="32.6188543718"><ele>-47.49</ele><time>2024-11-27T20:10:24Z</time></trkpt><trkpt lat="60.5233757012" lon="32.6189687848"><ele>-47.08</ele><time>2024-11-27T20:10:38Z</time></trkpt><trkpt lat="60.5233099032" lon="32.6190099400"><ele>-46.84</ele><time>2024-11-27T20:10:51Z</time></trkpt><trkpt lat="60.5232684128" lon="32.6190473232"><ele>-46.67</ele><time>2024-11-27T20:10:58Z</time></trkpt><trkpt lat="60.5231627170" lon="32.6191840321"><ele>-46.20</ele><time>2024-11-27T20:11:15Z</time></trkpt><trkpt lat="60.5231518205" lon="32.6191603113"><ele>-47.84</ele><time>2024-11-27T20:11:57Z</time></trkpt><trkpt lat="60.5231523234" lon="32.6191630773"><ele>-42.25</ele><time>2024-11-27T20:11:58Z</time></trkpt><trkpt lat="60.5231524073" lon="32.6191648375"><ele>-38.75</ele><time>2024-11-27T20:11:59Z</time></trkpt><trkpt lat="60.5231524911" lon="32.6191653404"><ele>-41.02</ele><time>2024-11-27T20:12:00Z</time></trkpt><trkpt lat="60.5231515691" lon="32.6191655081"><ele>-42.26</ele><time>2024-11-27T20:12:02Z</time></trkpt><trkpt lat="60.5231596995" lon="32.6191636641"><ele>-42.54</ele><time>2024-11-27T20:12:25Z</time></trkpt><trkpt lat="60.5231445283" lon="32.6191701181"><ele>-42.04</ele><time>2024-11-27T20:12:48Z</time></trkpt><trkpt lat="60.5231327098" lon="32.6191651728"><ele>-43.33</ele><time>2024-11-27T20:13:28Z</time></trkpt><trkpt lat="60.5231170356" lon="32.6191813499"><ele>-39.98</ele><time>2024-11-27T20:13:30Z</time></trkpt><trkpt lat="60.5231112521" lon="32.6191889774"><ele>-39.97</ele><time>2024-11-27T20:13:31Z</time></trkpt><trkpt lat="60.5231026188" lon="32.6192434598"><ele>-39.67</ele><time>2024-11-27T20:13:43Z</time></trkpt><trkpt lat="60.5230583623" lon="32.6193572860"><ele>-39.15</ele><time>2024-11-27T20:14:07Z</time></trkpt><trkpt lat="60.5229883734" lon="32.6195701864"><ele>-38.76</ele><time>2024-11-27T20:14:22Z</time></trkpt><trkpt lat="60.5230204761" lon="32.6199658960"><ele>-37.37</ele><time>2024-11-27T20:14:41Z</time></trkpt><trkpt lat="60.5230194703" lon="32.6202666387"><ele>-36.96</ele><time>2024-11-27T20:14:57Z</time></trkpt><trkpt lat="60.5229918100" lon="32.6204561535"><ele>-36.86</ele><time>2024-11-27T20:15:09Z</time></trkpt><trkpt lat="60.5229956657" lon="32.6207466703"><ele>-36.47</ele><time>2024-11-27T20:15:23Z</time></trkpt><trkpt lat="60.5229940731" lon="32.6209930982"><ele>-35.19</ele><time>2024-11-27T20:15:40Z</time></trkpt><trkpt lat="60.5230054725" lon="32.6209640969"><ele>-34.52</ele><time>2024-11-27T20:16:10Z</time></trkpt><trkpt lat="60.5229810812" lon="32.6209160686"><ele>-33.71</ele><time>2024-11-27T20:16:50Z</time></trkpt><trkpt lat="60.5229711067" lon="32.6209107880"><ele>-33.08</ele><time>2024-11-27T20:17:23Z</time></trkpt><trkpt lat="60.5229794886" lon="32.6209286414"><ele>-32.46</ele><time>2024-11-27T20:17:55Z</time></trkpt><trkpt lat="60.5229665805" lon="32.6208895817"><ele>-31.90</ele><time>2024-11-27T20:18:24Z</time></trkpt><trkpt lat="60.5229725316" lon="32.6208781824"><ele>-31.19</ele><time>2024-11-27T20:19:02Z</time></trkpt><trkpt lat="60.5229707714" lon="32.6208666991"><ele>-33.34</ele><time>2024-11-27T20:19:13Z</time></trkpt><trkpt lat="60.5229672510" lon="32.6208490133"><ele>-32.80</ele><time>2024-11-27T20:19:43Z</time></trkpt><trkpt lat="60.5229708552" lon="32.6208378654"><ele>-34.22</ele><time>2024-11-27T20:19:53Z</time></trkpt><trkpt lat="60.5229864456" lon="32.6208915096"><ele>-33.73</ele><time>2024-11-27T20:20:20Z</time></trkpt><trkpt lat="60.5229799077" lon="32.6208647713"><ele>-33.38</ele><time>2024-11-27T20:20:39Z</time></trkpt><trkpt lat="60.5229839310" lon="32.6208363567"><ele>-33.01</ele><time>2024-11-27T20:20:59Z</time></trkpt><trkpt lat="60.5229732860" lon="32.6206048485"><ele>-32.70</ele><time>2024-11-27T20:21:16Z</time></trkpt><trkpt lat="60.5229667481" lon="32.6205150783"><ele>-32.57</ele><time>2024-11-27T20:21:22Z</time></trkpt><trkpt lat="60.5229409318" lon="32.6203192770"><ele>-32.23</ele><time>2024-11-27T20:21:40Z</time></trkpt><trkpt lat="60.5229755491" lon="32.6201076340"><ele>-31.98</ele><time>2024-11-27T20:21:55Z</time></trkpt><trkpt lat="60.5229859427" lon="32.6199861802"><ele>-29.43</ele><time>2024-11-27T20:22:01Z</time></trkpt><trkpt lat="60.5229877029" lon="32.6197645627"><ele>-34.34</ele><time>2024-11-27T20:22:12Z</time></trkpt><trkpt lat="60.5229874514" lon="32.6197498944"><ele>-34.32</ele><time>2024-11-27T20:22:13Z</time></trkpt><trkpt lat="60.5229844339" lon="32.6197150256"><ele>-29.06</ele><time>2024-11-27T20:22:15Z</time></trkpt><trkpt lat="60.5229825899" lon="32.6197018661"><ele>-29.03</ele><time>2024-11-27T20:22:16Z</time></trkpt><trkpt lat="60.5229814164" lon="32.6196900476"><ele>-32.42</ele><time>2024-11-27T20:22:18Z</time></trkpt><trkpt lat="60.5229845177" lon="32.6196058933"><ele>-29.77</ele><time>2024-11-27T20:22:23Z</time></trkpt><trkpt lat="60.5230130162" lon="32.6195723657"><ele>-33.67</ele><time>2024-11-27T20:22:33Z</time></trkpt><trkpt lat="60.5230069812" lon="32.6195846032"><ele>-33.65</ele><time>2024-11-27T20:22:34Z</time></trkpt><trkpt lat="60.5229918938" lon="32.6195905544"><ele>-27.73</ele><time>2024-11-27T20:22:36Z</time></trkpt><trkpt lat="60.5229861103" lon="32.6195867825"><ele>-27.60</ele><time>2024-11-27T20:22:37Z</time></trkpt><trkpt lat="60.5229837634" lon="32.6195811667"><ele>-30.85</ele><time>2024-11-27T20:22:38Z</time></trkpt><trkpt lat="60.5229787342" lon="32.6195841003"><ele>-27.84</ele><time>2024-11-27T20:22:43Z</time></trkpt><trkpt lat="60.5229761358" lon="32.6195828430"><ele>-30.43</ele><time>2024-11-27T20:22:50Z</time></trkpt><trkpt lat="60.5229839310" lon="32.6195975114"><ele>-27.06</ele><time>2024-11-27T20:22:53Z</time></trkpt><trkpt lat="60.5229811650" lon="32.6195975114"><ele>-26.94</ele><time>2024-11-27T20:22:54Z</time></trkpt><trkpt lat="60.5230322946" lon="32.6194782369"><ele>-26.71</ele><time>2024-11-27T20:23:09Z</time></trkpt><trkpt lat="60.5230317917" lon="32.6194748003"><ele>-24.80</ele><time>2024-11-27T20:23:11Z</time></trkpt><trkpt lat="60.5230296962" lon="32.6194683462"><ele>-27.39</ele><time>2024-11-27T20:23:14Z</time></trkpt><trkpt lat="60.5230240803" lon="32.6194694359"><ele>-25.10</ele><time>2024-11-27T20:23:22Z</time></trkpt><trkpt lat="60.5229906365" lon="32.6195158716"><ele>-24.86</ele><time>2024-11-27T20:23:41Z</time></trkpt><trkpt lat="60.5229813326" lon="32.6195419393"><ele>-24.60</ele><time>2024-11-27T20:24:02Z</time></trkpt><trkpt lat="60.5229856074" lon="32.6195761375"><ele>-24.04</ele><time>2024-11-27T20:24:43Z</time></trkpt><trkpt lat="60.5229846854" lon="32.6195711084"><ele>-29.20</ele><time>2024-11-27T20:24:59Z</time></trkpt><trkpt lat="60.5229857750" lon="32.6195690967"><ele>-22.43</ele><time>2024-11-27T20:25:00Z</time></trkpt><trkpt lat="60.5229862779" lon="32.6195673365"><ele>-30.47</ele><time>2024-11-27T20:25:01Z</time></trkpt><trkpt lat="60.5229860265" lon="32.6195652410"><ele>-30.46</ele><time>2024-11-27T20:25:02Z</time></trkpt><trkpt lat="60.5229858588" lon="32.6195630617"><ele>-20.09</ele><time>2024-11-27T20:25:03Z</time></trkpt><trkpt lat="60.5229855236" lon="32.6195618045"><ele>-24.71</ele><time>2024-11-27T20:25:04Z</time></trkpt><trkpt lat="60.5229851883" lon="32.6195602957"><ele>-20.83</ele><time>2024-11-27T20:25:05Z</time></trkpt><trkpt lat="60.5229843501" lon="32.6195558533"><ele>-24.68</ele><time>2024-11-27T20:25:07Z</time></trkpt><trkpt lat="60.5229851045" lon="32.6195552666"><ele>-24.67</ele><time>2024-11-27T20:25:08Z</time></trkpt><trkpt lat="60.5229786504" lon="32.6195685100"><ele>-29.49</ele><time>2024-11-27T20:25:17Z</time></trkpt><trkpt lat="60.5229789019" lon="32.6195701864"><ele>-23.90</ele><time>2024-11-27T20:25:18Z</time></trkpt><trkpt lat="60.5229812488" lon="32.6195718627"><ele>-21.12</ele><time>2024-11-27T20:25:20Z</time></trkpt><trkpt lat="60.5229832605" lon="32.6195646543"><ele>-29.78</ele><time>2024-11-27T20:25:22Z</time></trkpt><trkpt lat="60.5229853559" lon="32.6195563562"><ele>-23.45</ele><time>2024-11-27T20:25:23Z</time></trkpt><trkpt lat="60.5229920615" lon="32.6195438672"><ele>-20.81</ele><time>2024-11-27T20:25:25Z</time></trkpt><trkpt lat="60.5229960848" lon="32.6195509918"><ele>-23.52</ele><time>2024-11-27T20:25:27Z</time></trkpt><trkpt lat="60.5230053887" lon="32.6195525005"><ele>-24.54</ele><time>2024-11-27T20:25:29Z</time></trkpt><trkpt lat="60.5230244994" lon="32.6194966771"><ele>-24.17</ele><time>2024-11-27T20:25:42Z</time></trkpt><trkpt lat="60.5230370723" lon="32.6194799971"><ele>-23.77</ele><time>2024-11-27T20:26:08Z</time></trkpt><trkpt lat="60.5230379105" lon="32.6194788236"><ele>22.15</ele><time>2024-11-27T20:26:10Z</time></trkpt><trkpt lat="60.5230296962" lon="32.6194611378"><ele>-25.14</ele><time>2024-11-27T20:26:43Z</time></trkpt><trkpt lat="60.5230667442" lon="32.6194161270"><ele>-24.58</ele><time>2024-11-27T20:27:19Z</time></trkpt><trkpt lat="60.5230597872" lon="32.6194606349"><ele>-24.33</ele><time>2024-11-27T20:27:36Z</time></trkpt><trkpt lat="60.5230295286" lon="32.6194583718"><ele>-23.99</ele><time>2024-11-27T20:28:00Z</time></trkpt><trkpt lat="60.5230452865" lon="32.6194728725"><ele>-26.30</ele><time>2024-11-27T20:29:15Z</time></trkpt><trkpt lat="60.5230197217" lon="32.6194654964"><ele>-28.59</ele><time>2024-11-27T20:30:12Z</time></trkpt><trkpt lat="60.5230172072" lon="32.6194933243"><ele>-30.04</ele><time>2024-11-27T20:31:05Z</time></trkpt><trkpt lat="60.5230356473" lon="32.6195124350"><ele>-30.36</ele><time>2024-11-27T20:32:11Z</time></trkpt><trkpt lat="60.5230410956" lon="32.6195049752"><ele>-29.24</ele><time>2024-11-27T20:33:02Z</time></trkpt><trkpt lat="60.5230605416" lon="32.6194965094"><ele>-28.49</ele><time>2024-11-27T20:33:38Z</time></trkpt><trkpt lat="60.5230628047" lon="32.6194965933"><ele>-25.91</ele><time>2024-11-27T20:34:13Z</time></trkpt><trkpt lat="60.5230589490" lon="32.6195027959"><ele>-25.34</ele><time>2024-11-27T20:34:43Z</time></trkpt><trkpt lat="60.5230506510" lon="32.6195203979"><ele>-24.90</ele><time>2024-11-27T20:35:05Z</time></trkpt><trkpt lat="60.5230544228" lon="32.6195764728"><ele>-23.33</ele><time>2024-11-27T20:35:36Z</time></trkpt><trkpt lat="60.5230575241" lon="32.6195449568"><ele>-22.28</ele><time>2024-11-27T20:35:49Z</time></trkpt><trkpt lat="60.5230526626" lon="32.6195241697"><ele>-19.26</ele><time>2024-11-27T20:36:17Z</time></trkpt><trkpt lat="60.5230475497" lon="32.6194867864"><ele>-17.78</ele><time>2024-11-27T20:37:01Z</time></trkpt><trkpt lat="60.5230499804" lon="32.6194862835"><ele>-16.48</ele><time>2024-11-27T20:37:40Z</time></trkpt><trkpt lat="60.5230333842" lon="32.6194786560"><ele>-16.02</ele><time>2024-11-27T20:38:16Z</time></trkpt><trkpt lat="60.5230188835" lon="32.6195104234"><ele>-15.69</ele><time>2024-11-27T20:38:40Z</time></trkpt><trkpt lat="60.5230213981" lon="32.6195304561"><ele>-15.47</ele><time>2024-11-27T20:38:57Z</time></trkpt><trkpt lat="60.5230354797" lon="32.6195498183"><ele>-15.05</ele><time>2024-11-27T20:39:27Z</time></trkpt><trkpt lat="60.5230457056" lon="32.6195321325"><ele>-37.54</ele><time>2024-11-27T20:39:36Z</time></trkpt><trkpt lat="60.5230462924" lon="32.6195281092"><ele>-46.32</ele><time>2024-11-27T20:39:37Z</time></trkpt><trkpt lat="60.5230473820" lon="32.6195266005"><ele>-4.97</ele><time>2024-11-27T20:39:38Z</time></trkpt><trkpt lat="60.5230474658" lon="32.6195330545"><ele>6.43</ele><time>2024-11-27T20:39:39Z</time></trkpt><trkpt lat="60.5230471306" lon="32.6195347309"><ele>-4.64</ele><time>2024-11-27T20:39:40Z</time></trkpt><trkpt lat="60.5230485555" lon="32.6195364911"><ele>-10.29</ele><time>2024-11-27T20:39:41Z</time></trkpt><trkpt lat="60.5230467115" lon="32.6195486449"><ele>-13.77</ele><time>2024-11-27T20:39:43Z</time></trkpt><trkpt lat="60.5230354797" lon="32.6195784844"><ele>-15.19</ele><time>2024-11-27T20:39:45Z</time></trkpt><trkpt lat="60.5230271816" lon="32.6195949968"><ele>-21.70</ele><time>2024-11-27T20:39:48Z</time></trkpt><trkpt lat="60.5230286065" lon="32.6195949130"><ele>-16.35</ele><time>2024-11-27T20:39:49Z</time></trkpt><trkpt lat="60.5230288580" lon="32.6195939071"><ele>-19.73</ele><time>2024-11-27T20:39:51Z</time></trkpt><trkpt lat="60.5230301153" lon="32.6195894647"><ele>-12.60</ele><time>2024-11-27T20:39:52Z</time></trkpt><trkpt lat="60.5230366532" lon="32.6195212360"><ele>-15.04</ele><time>2024-11-27T20:40:00Z</time></trkpt><trkpt lat="60.5230318755" lon="32.6195499860"><ele>-15.04</ele><time>2024-11-27T20:40:07Z</time></trkpt><trkpt lat="60.5230286904" lon="32.6195747964"><ele>-14.82</ele><time>2024-11-27T20:40:20Z</time></trkpt><trkpt lat="60.5230427720" lon="32.6195039693"><ele>-14.62</ele><time>2024-11-27T20:40:35Z</time></trkpt><trkpt lat="60.5230361503" lon="32.6195212360"><ele>-19.03</ele><time>2024-11-27T20:40:54Z</time></trkpt><trkpt lat="60.5230367370" lon="32.6195246726"><ele>-14.14</ele><time>2024-11-27T20:40:55Z</time></trkpt><trkpt lat="60.5230355635" lon="32.6195255946"><ele>-12.78</ele><time>2024-11-27T20:40:57Z</time></trkpt><trkpt lat="60.5230193026" lon="32.6195426937"><ele>-12.42</ele><time>2024-11-27T20:41:28Z</time></trkpt><trkpt lat="60.5230121780" lon="32.6196234953"><ele>-12.15</ele><time>2024-11-27T20:41:51Z</time></trkpt><trkpt lat="60.5230010301" lon="32.6196394209"><ele>-14.53</ele><time>2024-11-27T20:42:09Z</time></trkpt><trkpt lat="60.5230059754" lon="32.6196374092"><ele>-16.42</ele><time>2024-11-27T20:42:45Z</time></trkpt><trkpt lat="60.5230065621" lon="32.6196368225"><ele>-22.43</ele><time>2024-11-27T20:42:47Z</time></trkpt><trkpt lat="60.5230066460" lon="32.6196369901"><ele>-11.35</ele><time>2024-11-27T20:42:48Z</time></trkpt><trkpt lat="60.5230074842" lon="32.6196378283"><ele>-41.46</ele><time>2024-11-27T20:42:49Z</time></trkpt><trkpt lat="60.5230092444" lon="32.6196374930"><ele>-67.80</ele><time>2024-11-27T20:42:50Z</time></trkpt><trkpt lat="60.5230103340" lon="32.6196379121"><ele>-2.40</ele><time>2024-11-27T20:42:51Z</time></trkpt><trkpt lat="60.5230125971" lon="32.6196369063"><ele>5.36</ele><time>2024-11-27T20:42:52Z</time></trkpt><trkpt lat="60.5230143573" lon="32.6196325477"><ele>-4.37</ele><time>2024-11-27T20:42:53Z</time></trkpt><trkpt lat="60.5230149440" lon="32.6196283568"><ele>-9.28</ele><time>2024-11-27T20:42:54Z</time></trkpt><trkpt lat="60.5230092444" lon="32.6196302008"><ele>-13.81</ele><time>2024-11-27T20:42:57Z</time></trkpt><trkpt lat="60.5230056401" lon="32.6196214836"><ele>-13.73</ele><time>2024-11-27T20:42:58Z</time></trkpt><trkpt lat="60.5229999404" lon="32.6196066476"><ele>-17.43</ele><time>2024-11-27T20:43:11Z</time></trkpt><trkpt lat="60.5229997728" lon="32.6196053065"><ele>-9.42</ele><time>2024-11-27T20:43:12Z</time></trkpt><trkpt lat="60.5229998566" lon="32.6196052227"><ele>-9.41</ele><time>2024-11-27T20:43:13Z</time></trkpt><trkpt lat="60.5230003595" lon="32.6196046360"><ele>-11.88</ele><time>2024-11-27T20:43:15Z</time></trkpt><trkpt lat="60.5230001919" lon="32.6196135208"><ele>-13.29</ele><time>2024-11-27T20:43:42Z</time></trkpt><trkpt lat="60.5229966715" lon="32.6196201425"><ele>-12.66</ele><time>2024-11-27T20:44:07Z</time></trkpt><trkpt lat="60.5230022036" lon="32.6195675880"><ele>-12.50</ele><time>2024-11-27T20:44:23Z</time></trkpt><trkpt lat="60.5229905527" lon="32.6195961703"><ele>-14.78</ele><time>2024-11-27T20:44:30Z</time></trkpt><trkpt lat="60.5229903013" lon="32.6195984334"><ele>-11.74</ele><time>2024-11-27T20:44:46Z</time></trkpt><trkpt lat="60.5229896307" lon="32.6195997745"><ele>-11.73</ele><time>2024-11-27T20:44:47Z</time></trkpt><trkpt lat="60.5230176263" lon="32.6195568591"><ele>-16.82</ele><time>2024-11-27T20:45:04Z</time></trkpt><trkpt lat="60.5230231583" lon="32.6195439510"><ele>-11.40</ele><time>2024-11-27T20:45:05Z</time></trkpt><trkpt lat="60.5230474658" lon="32.6195064839"><ele>-11.17</ele><time>2024-11-27T20:45:21Z</time></trkpt><trkpt lat="60.5230353959" lon="32.6195195597"><ele>-13.99</ele><time>2024-11-27T20:45:49Z</time></trkpt><trkpt lat="60.5230317079" lon="32.6195315458"><ele>-13.71</ele><time>2024-11-27T20:46:19Z</time></trkpt><trkpt lat="60.5230312049" lon="32.6195576973"><ele>-11.43</ele><time>2024-11-27T20:46:36Z</time></trkpt><trkpt lat="60.5230277684" lon="32.6195631456"><ele>-14.55</ele><time>2024-11-27T20:46:42Z</time></trkpt><trkpt lat="60.5230276007" lon="32.6195642352"><ele>-14.54</ele><time>2024-11-27T20:46:43Z</time></trkpt><trkpt lat="60.5230398383" lon="32.6195271872"><ele>-11.77</ele><time>2024-11-27T20:47:00Z</time></trkpt><trkpt lat="60.5230806582" lon="32.6194147021"><ele>-14.18</ele><time>2024-11-27T20:47:12Z</time></trkpt><trkpt lat="60.5231001880" lon="32.6193530951"><ele>-11.19</ele><time>2024-11-27T20:47:16Z</time></trkpt><trkpt lat="60.5231031217" lon="32.6193362474"><ele>-13.63</ele><time>2024-11-27T20:47:18Z</time></trkpt><trkpt lat="60.5231155269" lon="32.6192944217"><ele>-14.76</ele><time>2024-11-27T20:47:24Z</time></trkpt><trkpt lat="60.5231537484" lon="32.6192404423"><ele>-16.82</ele><time>2024-11-27T20:47:29Z</time></trkpt><trkpt lat="60.5231648963" lon="32.6192202419"><ele>-13.43</ele><time>2024-11-27T20:47:31Z</time></trkpt><trkpt lat="60.5231672432" lon="32.6192137040"><ele>-13.42</ele><time>2024-11-27T20:47:32Z</time></trkpt><trkpt lat="60.5231890362" lon="32.6191676874"><ele>-15.84</ele><time>2024-11-27T20:47:40Z</time></trkpt><trkpt lat="60.5232103262" lon="32.6190706249"><ele>-15.41</ele><time>2024-11-27T20:48:00Z</time></trkpt><trkpt lat="60.5232090689" lon="32.6190049108"><ele>-12.68</ele><time>2024-11-27T20:48:16Z</time></trkpt><trkpt lat="60.5232197978" lon="32.6189749036"><ele>-14.86</ele><time>2024-11-27T20:48:22Z</time></trkpt><trkpt lat="60.5232333764" lon="32.6189398672"><ele>-16.65</ele><time>2024-11-27T20:48:26Z</time></trkpt><trkpt lat="60.5232373159" lon="32.6189262886"><ele>-13.08</ele><time>2024-11-27T20:48:27Z</time></trkpt><trkpt lat="60.5232410040" lon="32.6189118717"><ele>-13.14</ele><time>2024-11-27T20:48:28Z</time></trkpt><trkpt lat="60.5232454464" lon="32.6188850496"><ele>-16.24</ele><time>2024-11-27T20:48:30Z</time></trkpt><trkpt lat="60.5232480448" lon="32.6188747399"><ele>-13.02</ele><time>2024-11-27T20:48:31Z</time></trkpt><trkpt lat="60.5232638028" lon="32.6188263763"><ele>-16.26</ele><time>2024-11-27T20:48:42Z</time></trkpt><trkpt lat="60.5232682452" lon="32.6188127976"><ele>-16.24</ele><time>2024-11-27T20:48:43Z</time></trkpt><trkpt lat="60.5232812371" lon="32.6187874004"><ele>-13.69</ele><time>2024-11-27T20:48:45Z</time></trkpt><trkpt lat="60.5233253259" lon="32.6186104584"><ele>-13.45</ele><time>2024-11-27T20:49:02Z</time></trkpt><trkpt lat="60.5233306903" lon="32.6185896713"><ele>-15.77</ele><time>2024-11-27T20:49:09Z</time></trkpt><trkpt lat="60.5233328696" lon="32.6185952034"><ele>-12.74</ele><time>2024-11-27T20:49:41Z</time></trkpt><trkpt lat="60.5233326182" lon="32.6185955387"><ele>-12.70</ele><time>2024-11-27T20:49:42Z</time></trkpt><trkpt lat="60.5233301036" lon="32.6186079439"><ele>-15.23</ele><time>2024-11-27T20:49:47Z</time></trkpt><trkpt lat="60.5233286787" lon="32.6186209358"><ele>-14.94</ele><time>2024-11-27T20:50:16Z</time></trkpt><trkpt lat="60.5233260803" lon="32.6186333410"><ele>-12.81</ele><time>2024-11-27T20:50:33Z</time></trkpt><trkpt lat="60.5233329535" lon="32.6186468359"><ele>-12.05</ele><time>2024-11-27T20:51:17Z</time></trkpt><trkpt lat="60.5233402457" lon="32.6186435670"><ele>-14.28</ele><time>2024-11-27T20:51:28Z</time></trkpt><trkpt lat="60.5233407486" lon="32.6186442375"><ele>-10.65</ele><time>2024-11-27T20:51:30Z</time></trkpt><trkpt lat="60.5233401619" lon="32.6186442375"><ele>-10.64</ele><time>2024-11-27T20:51:31Z</time></trkpt><trkpt lat="60.5233399943" lon="32.6186372805"><ele>-12.79</ele><time>2024-11-27T20:51:48Z</time></trkpt><trkpt lat="60.5233329535" lon="32.6186810341"><ele>-12.56</ele><time>2024-11-27T20:52:09Z</time></trkpt><trkpt lat="60.5233372282" lon="32.6186972111"><ele>-37.04</ele><time>2024-11-27T20:52:11Z</time></trkpt><trkpt lat="60.5233387370" lon="32.6187025756"><ele>-22.34</ele><time>2024-11-27T20:52:12Z</time></trkpt><trkpt lat="60.5233390722" lon="32.6186954509"><ele>-15.19</ele><time>2024-11-27T20:52:13Z</time></trkpt><trkpt lat="60.5233392399" lon="32.6186930202"><ele>-23.55</ele><time>2024-11-27T20:52:14Z</time></trkpt><trkpt lat="60.5233389046" lon="32.6186925173"><ele>-15.26</ele><time>2024-11-27T20:52:15Z</time></trkpt><trkpt lat="60.5233410001" lon="32.6186910924"><ele>-10.91</ele><time>2024-11-27T20:52:17Z</time></trkpt><trkpt lat="60.5233425926" lon="32.6186889969"><ele>-10.90</ele><time>2024-11-27T20:52:18Z</time></trkpt><trkpt lat="60.5233435147" lon="32.6186880749"><ele>-15.43</ele><time>2024-11-27T20:52:19Z</time></trkpt><trkpt lat="60.5233407486" lon="32.6186851412"><ele>-11.72</ele><time>2024-11-27T20:52:20Z</time></trkpt><trkpt lat="60.5233395752" lon="32.6186851412"><ele>-17.63</ele><time>2024-11-27T20:52:23Z</time></trkpt><trkpt lat="60.5233414192" lon="32.6186896674"><ele>-14.24</ele><time>2024-11-27T20:52:24Z</time></trkpt><trkpt lat="60.5233464483" lon="32.6186962891"><ele>-10.15</ele><time>2024-11-27T20:52:26Z</time></trkpt><trkpt lat="60.5233442690" lon="32.6186951157"><ele>-10.37</ele><time>2024-11-27T20:52:27Z</time></trkpt><trkpt lat="60.5233433470" lon="32.6186996419"><ele>-14.51</ele><time>2024-11-27T20:52:31Z</time></trkpt><trkpt lat="60.5233430956" lon="32.6186995581"><ele>-11.81</ele><time>2024-11-27T20:52:32Z</time></trkpt><trkpt lat="60.5233277567" lon="32.6187153161"><ele>-15.60</ele><time>2024-11-27T20:52:50Z</time></trkpt><trkpt lat="60.5233282596" lon="32.6187159866"><ele>-15.59</ele><time>2024-11-27T20:52:51Z</time></trkpt><trkpt lat="60.5233299360" lon="32.6187109575"><ele>-11.14</ele><time>2024-11-27T20:52:54Z</time></trkpt><trkpt lat="60.5233310256" lon="32.6187102031"><ele>-6.79</ele><time>2024-11-27T20:52:55Z</time></trkpt><trkpt lat="60.5233311094" lon="32.6187059283"><ele>-6.78</ele><time>2024-11-27T20:52:56Z</time></trkpt><trkpt lat="60.5233321153" lon="32.6186999772"><ele>-9.41</ele><time>2024-11-27T20:52:58Z</time></trkpt><trkpt lat="60.5233264994" lon="32.6186871529"><ele>-12.91</ele><time>2024-11-27T20:53:18Z</time></trkpt><trkpt lat="60.5233276729" lon="32.6186879072"><ele>-8.87</ele><time>2024-11-27T20:53:20Z</time></trkpt><trkpt lat="60.5233280081" lon="32.6186883263"><ele>-8.86</ele><time>2024-11-27T20:53:21Z</time></trkpt><trkpt lat="60.5233306065" lon="32.6186984684"><ele>-11.99</ele><time>2024-11-27T20:53:27Z</time></trkpt><trkpt lat="60.5233361386" lon="32.6187007315"><ele>-8.71</ele><time>2024-11-27T20:53:38Z</time></trkpt><trkpt lat="60.5233171955" lon="32.6187430602"><ele>-8.57</ele><time>2024-11-27T20:53:54Z</time></trkpt><trkpt lat="60.5233286787" lon="32.6186763402"><ele>-8.43</ele><time>2024-11-27T20:54:10Z</time></trkpt><trkpt lat="60.5233311933" lon="32.6186812855"><ele>-21.95</ele><time>2024-11-27T20:54:12Z</time></trkpt><trkpt lat="60.5233333725" lon="32.6186859794"><ele>-10.53</ele><time>2024-11-27T20:54:13Z</time></trkpt><trkpt lat="60.5233389884" lon="32.6186681259"><ele>-8.59</ele><time>2024-11-27T20:54:17Z</time></trkpt><trkpt lat="60.5233401619" lon="32.6186715625"><ele>-12.79</ele><time>2024-11-27T20:54:18Z</time></trkpt><trkpt lat="60.5233426765" lon="32.6186677068"><ele>-7.01</ele><time>2024-11-27T20:54:19Z</time></trkpt><trkpt lat="60.5233455263" lon="32.6186687965"><ele>-7.04</ele><time>2024-11-27T20:54:20Z</time></trkpt><trkpt lat="60.5233477056" lon="32.6186741609"><ele>-9.57</ele><time>2024-11-27T20:54:22Z</time></trkpt><trkpt lat="60.5233466998" lon="32.6186779328"><ele>-6.84</ele><time>2024-11-27T20:54:25Z</time></trkpt><trkpt lat="60.5233487114" lon="32.6186677068"><ele>-15.29</ele><time>2024-11-27T20:54:27Z</time></trkpt><trkpt lat="60.5233452749" lon="32.6186706405"><ele>-5.54</ele><time>2024-11-27T20:54:28Z</time></trkpt><trkpt lat="60.5233443528" lon="32.6186705567"><ele>-0.13</ele><time>2024-11-27T20:54:29Z</time></trkpt><trkpt lat="60.5233436823" lon="32.6186696347"><ele>-0.12</ele><time>2024-11-27T20:54:30Z</time></trkpt><trkpt lat="60.5233430956" lon="32.6186676230"><ele>-4.66</ele><time>2024-11-27T20:54:31Z</time></trkpt><trkpt lat="60.5233420059" lon="32.6186667010"><ele>-6.25</ele><time>2024-11-27T20:54:33Z</time></trkpt><trkpt lat="60.5233377311" lon="32.6186605822"><ele>-10.59</ele><time>2024-11-27T20:54:43Z</time></trkpt><trkpt lat="60.5233392399" lon="32.6186573133"><ele>-10.63</ele><time>2024-11-27T20:54:44Z</time></trkpt><trkpt lat="60.5233435985" lon="32.6186398789"><ele>-7.71</ele><time>2024-11-27T20:54:47Z</time></trkpt><trkpt lat="60.5234519765" lon="32.6184359472"><ele>-6.71</ele><time>2024-11-27T20:55:16Z</time></trkpt><trkpt lat="60.5235124100" lon="32.6183413155"><ele>-5.69</ele><time>2024-11-27T20:55:39Z</time></trkpt><trkpt lat="60.5235803034" lon="32.6182114799"><ele>-5.55</ele><time>2024-11-27T20:56:03Z</time></trkpt><trkpt lat="60.5235978216" lon="32.6181819756"><ele>-8.35</ele><time>2024-11-27T20:56:13Z</time></trkpt><trkpt lat="60.5236063711" lon="32.6181743480"><ele>-5.98</ele><time>2024-11-27T20:56:15Z</time></trkpt><trkpt lat="60.5236062873" lon="32.6181691512"><ele>-3.40</ele><time>2024-11-27T20:56:28Z</time></trkpt><trkpt lat="60.5236021802" lon="32.6181735098"><ele>-7.49</ele><time>2024-11-27T20:56:32Z</time></trkpt><trkpt lat="60.5236009229" lon="32.6181777008"><ele>-7.48</ele><time>2024-11-27T20:56:33Z</time></trkpt><trkpt lat="60.5235979054" lon="32.6181787066"><ele>-13.88</ele><time>2024-11-27T20:56:35Z</time></trkpt><trkpt lat="60.5235963967" lon="32.6181802154"><ele>-9.66</ele><time>2024-11-27T20:56:36Z</time></trkpt><trkpt lat="60.5235951394" lon="32.6181846578"><ele>-5.60</ele><time>2024-11-27T20:56:38Z</time></trkpt><trkpt lat="60.5235955585" lon="32.6181849930"><ele>-3.29</ele><time>2024-11-27T20:56:40Z</time></trkpt><trkpt lat="60.5235958099" lon="32.6181819756"><ele>-6.17</ele><time>2024-11-27T20:56:43Z</time></trkpt><trkpt lat="60.5235925410" lon="32.6181775331"><ele>-20.10</ele><time>2024-11-27T20:56:58Z</time></trkpt><trkpt lat="60.5235952232" lon="32.6181777846"><ele>-20.09</ele><time>2024-11-27T20:56:59Z</time></trkpt><trkpt lat="60.5235974863" lon="32.6181787904"><ele>-7.22</ele><time>2024-11-27T20:57:00Z</time></trkpt><trkpt lat="60.5235991627" lon="32.6181778684"><ele>-3.87</ele><time>2024-11-27T20:57:02Z</time></trkpt><trkpt lat="60.5236012582" lon="32.6181782875"><ele>-3.86</ele><time>2024-11-27T20:57:03Z</time></trkpt><trkpt lat="60.5236066226" lon="32.6181701571"><ele>-7.39</ele><time>2024-11-27T20:57:06Z</time></trkpt><trkpt lat="60.5236078799" lon="32.6181690674"><ele>-7.37</ele><time>2024-11-27T20:57:07Z</time></trkpt><trkpt lat="60.5236353725" lon="32.6181261521"><ele>-14.44</ele><time>2024-11-27T20:57:18Z</time></trkpt><trkpt lat="60.5236393120" lon="32.6181161776"><ele>-8.97</ele><time>2024-11-27T20:57:19Z</time></trkpt><trkpt lat="60.5236427486" lon="32.6181050297"><ele>-4.35</ele><time>2024-11-27T20:57:20Z</time></trkpt><trkpt lat="60.5236453470" lon="32.6180961449"><ele>-7.25</ele><time>2024-11-27T20:57:21Z</time></trkpt><trkpt lat="60.5236490350" lon="32.6180662215"><ele>-11.38</ele><time>2024-11-27T20:57:24Z</time></trkpt><trkpt lat="60.5236505438" lon="32.6180579234"><ele>-11.29</ele><time>2024-11-27T20:57:25Z</time></trkpt><trkpt lat="60.5236526392" lon="32.6180514693"><ele>-5.95</ele><time>2024-11-27T20:57:26Z</time></trkpt><trkpt lat="60.5236555729" lon="32.6180457696"><ele>-5.87</ele><time>2024-11-27T20:57:27Z</time></trkpt><trkpt lat="60.5236643739" lon="32.6180243120"><ele>-10.75</ele><time>2024-11-27T20:57:31Z</time></trkpt><trkpt lat="60.5236657988" lon="32.6180173550"><ele>-10.86</ele><time>2024-11-27T20:57:32Z</time></trkpt><trkpt lat="60.5236647930" lon="32.6180217974"><ele>-4.61</ele><time>2024-11-27T20:57:33Z</time></trkpt><trkpt lat="60.5236655474" lon="32.6180233061"><ele>-4.60</ele><time>2024-11-27T20:57:34Z</time></trkpt><trkpt lat="60.5236633681" lon="32.6180353761"><ele>-8.51</ele><time>2024-11-27T20:57:39Z</time></trkpt><trkpt lat="60.5236624461" lon="32.6180386450"><ele>-8.50</ele><time>2024-11-27T20:57:40Z</time></trkpt><trkpt lat="60.5236600153" lon="32.6180474460"><ele>-5.49</ele><time>2024-11-27T20:57:42Z</time></trkpt><trkpt lat="60.5236459337" lon="32.6180883497"><ele>-6.28</ele><time>2024-11-27T20:58:10Z</time></trkpt><trkpt lat="60.5236948840" lon="32.6179452706"><ele>-6.15</ele><time>2024-11-27T20:58:42Z</time></trkpt><trkpt lat="60.5237029307" lon="32.6179347932"><ele>-3.86</ele><time>2024-11-27T20:58:44Z</time></trkpt><trkpt lat="60.5237229634" lon="32.6179122459"><ele>-6.14</ele><time>2024-11-27T20:58:48Z</time></trkpt><trkpt lat="60.5237555690" lon="32.6178729348"><ele>-3.02</ele><time>2024-11-27T20:58:54Z</time></trkpt><trkpt lat="60.5237608496" lon="32.6178679056"><ele>-3.05</ele><time>2024-11-27T20:58:55Z</time></trkpt><trkpt lat="60.5237638671" lon="32.6178645529"><ele>-14.01</ele><time>2024-11-27T20:58:56Z</time></trkpt><trkpt lat="60.5237672199" lon="32.6178627089"><ele>-14.00</ele><time>2024-11-27T20:58:57Z</time></trkpt><trkpt lat="60.5237715784" lon="32.6178565063"><ele>-18.91</ele><time>2024-11-27T20:58:58Z</time></trkpt><trkpt lat="60.5237763561" lon="32.6178499684"><ele>-11.71</ele><time>2024-11-27T20:58:59Z</time></trkpt><trkpt lat="60.5237825587" lon="32.6178358868"><ele>-7.19</ele><time>2024-11-27T20:59:01Z</time></trkpt><trkpt lat="60.5237817205" lon="32.6178303547"><ele>-3.59</ele><time>2024-11-27T20:59:02Z</time></trkpt><trkpt lat="60.5237820558" lon="32.6178250741"><ele>-8.00</ele><time>2024-11-27T20:59:03Z</time></trkpt><trkpt lat="60.5237863306" lon="32.6178147644"><ele>-2.33</ele><time>2024-11-27T20:59:05Z</time></trkpt><trkpt lat="60.5237881746" lon="32.6178086456"><ele>-2.36</ele><time>2024-11-27T20:59:06Z</time></trkpt><trkpt lat="60.5238007475" lon="32.6177651435"><ele>-8.91</ele><time>2024-11-27T20:59:12Z</time></trkpt><trkpt lat="60.5238039326" lon="32.6177575998"><ele>-5.86</ele><time>2024-11-27T20:59:13Z</time></trkpt><trkpt lat="60.5238094646" lon="32.6177545823"><ele>-1.54</ele><time>2024-11-27T20:59:14Z</time></trkpt><trkpt lat="60.5238147452" lon="32.6177506428"><ele>-6.22</ele><time>2024-11-27T20:59:15Z</time></trkpt><trkpt lat="60.5238191038" lon="32.6177401654"><ele>-2.48</ele><time>2024-11-27T20:59:16Z</time></trkpt><trkpt lat="60.5238299165" lon="32.6177026145"><ele>-4.81</ele><time>2024-11-27T20:59:20Z</time></trkpt><trkpt lat="60.5238894280" lon="32.6174690947"><ele>-4.71</ele><time>2024-11-27T20:59:43Z</time></trkpt><trkpt lat="60.5239435751" lon="32.6171504147"><ele>-4.61</ele><time>2024-11-27T21:00:09Z</time></trkpt><trkpt lat="60.5240983889" lon="32.6170363370"><ele>-6.04</ele><time>2024-11-27T21:00:35Z</time></trkpt><trkpt lat="60.5242381152" lon="32.6171876304"><ele>-5.93</ele><time>2024-11-27T21:01:01Z</time></trkpt><trkpt lat="60.5243865587" lon="32.6173212379"><ele>-7.39</ele><time>2024-11-27T21:01:26Z</time></trkpt><trkpt lat="60.5245637521" lon="32.6172641572"><ele>-7.25</ele><time>2024-11-27T21:01:54Z</time></trkpt><trkpt lat="60.5247680191" lon="32.6170660928"><ele>-7.08</ele><time>2024-11-27T21:02:33Z</time></trkpt><trkpt lat="60.5248924904" lon="32.6172169670"><ele>-7.03</ele><time>2024-11-27T21:02:59Z</time></trkpt><trkpt lat="60.5250065681" lon="32.6173592918"><ele>19.46</ele><time>2024-11-27T21:03:21Z</time></trkpt><trkpt lat="60.5252182111" lon="32.6173612196"><ele>-5.25</ele><time>2024-11-27T21:03:56Z</time></trkpt><trkpt lat="60.5253856815" lon="32.6172752213"><ele>-6.86</ele><time>2024-11-27T21:04:27Z</time></trkpt><trkpt lat="60.5255708378" lon="32.6173112635"><ele>-7.53</ele><time>2024-11-27T21:05:00Z</time></trkpt><trkpt lat="60.5257472768" lon="32.6174882054"><ele>-7.32</ele><time>2024-11-27T21:05:34Z</time></trkpt><trkpt lat="60.5258911941" lon="32.6174096670"><ele>-7.15</ele><time>2024-11-27T21:06:05Z</time></trkpt><trkpt lat="60.5259553995" lon="32.6171727106"><ele>-6.98</ele><time>2024-11-27T21:06:29Z</time></trkpt><trkpt lat="60.5260444153" lon="32.6169544458"><ele>-9.01</ele><time>2024-11-27T21:06:53Z</time></trkpt><trkpt lat="60.5261054356" lon="32.6167060062"><ele>-8.84</ele><time>2024-11-27T21:07:19Z</time></trkpt><trkpt lat="60.5261427350" lon="32.6165125519"><ele>-8.72</ele><time>2024-11-27T21:07:39Z</time></trkpt><trkpt lat="60.5261657853" lon="32.6162284892"><ele>-9.66</ele><time>2024-11-27T21:08:07Z</time></trkpt><trkpt lat="60.5261524580" lon="32.6159953047"><ele>-9.50</ele><time>2024-11-27T21:08:30Z</time></trkpt><trkpt lat="60.5261501949" lon="32.6159436721"><ele>-10.84</ele><time>2024-11-27T21:08:35Z</time></trkpt><trkpt lat="60.5261494406" lon="32.6159228012"><ele>-8.44</ele><time>2024-11-27T21:08:37Z</time></trkpt><trkpt lat="60.5262475088" lon="32.6156609505"><ele>-8.23</ele><time>2024-11-27T21:09:09Z</time></trkpt><trkpt lat="60.5263399612" lon="32.6155557577"><ele>-8.09</ele><time>2024-11-27T21:09:28Z</time></trkpt><trkpt lat="60.5264568888" lon="32.6154133491"><ele>-7.92</ele><time>2024-11-27T21:09:55Z</time></trkpt><trkpt lat="60.5266059190" lon="32.6152929850"><ele>-7.68</ele><time>2024-11-27T21:10:28Z</time></trkpt><trkpt lat="60.5266661011" lon="32.6153157838"><ele>-6.23</ele><time>2024-11-27T21:10:51Z</time></trkpt><trkpt lat="60.5266886484" lon="32.6153439470"><ele>-9.31</ele><time>2024-11-27T21:11:01Z</time></trkpt><trkpt lat="60.5266971141" lon="32.6153656561"><ele>-8.70</ele><time>2024-11-27T21:11:19Z</time></trkpt><trkpt lat="60.5267196614" lon="32.6153823361"><ele>-7.59</ele><time>2024-11-27T21:11:54Z</time></trkpt><trkpt lat="60.5267232656" lon="32.6153836772"><ele>-10.18</ele><time>2024-11-27T21:12:00Z</time></trkpt><trkpt lat="60.5267307255" lon="32.6153873652"><ele>-11.09</ele><time>2024-11-27T21:12:29Z</time></trkpt><trkpt lat="60.5267438013" lon="32.6153939031"><ele>-12.38</ele><time>2024-11-27T21:13:02Z</time></trkpt><trkpt lat="60.5267631635" lon="32.6154407579"><ele>-14.42</ele><time>2024-11-27T21:13:28Z</time></trkpt><trkpt lat="60.5268067494" lon="32.6154831704"><ele>-14.04</ele><time>2024-11-27T21:14:05Z</time></trkpt><trkpt lat="60.5270147882" lon="32.6155104954"><ele>-13.83</ele><time>2024-11-27T21:14:25Z</time></trkpt><trkpt lat="60.5270935781" lon="32.6152064838"><ele>-13.69</ele><time>2024-11-27T21:14:40Z</time></trkpt><trkpt lat="60.5272207316" lon="32.6145430561"><ele>-14.20</ele><time>2024-11-27T21:15:05Z</time></trkpt><trkpt lat="60.5272359867" lon="32.6144557167"><ele>-11.77</ele><time>2024-11-27T21:15:08Z</time></trkpt><trkpt lat="60.5273901299" lon="32.6135761198"><ele>-11.45</ele><time>2024-11-27T21:15:35Z</time></trkpt><trkpt lat="60.5275618751" lon="32.6128407754"><ele>-11.28</ele><time>2024-11-27T21:16:00Z</time></trkpt><trkpt lat="60.5278170202" lon="32.6119968854"><ele>-11.14</ele><time>2024-11-27T21:16:28Z</time></trkpt><trkpt lat="60.5280417390" lon="32.6112864353"><ele>-10.15</ele><time>2024-11-27T21:16:53Z</time></trkpt><trkpt lat="60.5281706527" lon="32.6109514106"><ele>-10.08</ele><time>2024-11-27T21:17:15Z</time></trkpt><trkpt lat="60.5282622669" lon="32.6108706929"><ele>-9.96</ele><time>2024-11-27T21:17:50Z</time></trkpt><trkpt lat="60.5283141509" lon="32.6108328067"><ele>-7.23</ele><time>2024-11-27T21:18:23Z</time></trkpt><trkpt lat="60.5284716468" lon="32.6105760690"><ele>-5.22</ele><time>2024-11-27T21:18:43Z</time></trkpt><trkpt lat="60.5285043363" lon="32.6105337404"><ele>-5.22</ele><time>2024-11-27T21:18:50Z</time></trkpt><trkpt lat="60.5285652727" lon="32.6104854606"><ele>-4.22</ele><time>2024-11-27T21:18:55Z</time></trkpt><trkpt lat="60.5287138838" lon="32.6100872364"><ele>-3.40</ele><time>2024-11-27T21:19:10Z</time></trkpt><trkpt lat="60.5287478305" lon="32.6090625487"><ele>-2.60</ele><time>2024-11-27T21:19:38Z</time></trkpt><trkpt lat="60.5288522691" lon="32.6080048364"><ele>-0.87</ele><time>2024-11-27T21:20:02Z</time></trkpt><trkpt lat="60.5290492438" lon="32.6067469642"><ele>0.16</ele><time>2024-11-27T21:20:30Z</time></trkpt><trkpt lat="60.5291774869" lon="32.6053889282"><ele>1.01</ele><time>2024-11-27T21:20:55Z</time></trkpt><trkpt lat="60.5294338055" lon="32.6040256955"><ele>1.04</ele><time>2024-11-27T21:21:20Z</time></trkpt><trkpt lat="60.5298538227" lon="32.6025932282"><ele>1.84</ele><time>2024-11-27T21:21:45Z</time></trkpt><trkpt lat="60.5301510449" lon="32.6008944679"><ele>2.58</ele><time>2024-11-27T21:22:09Z</time></trkpt><trkpt lat="60.5303862412" lon="32.5994092785"><ele>2.63</ele><time>2024-11-27T21:22:30Z</time></trkpt><trkpt lat="60.5309231021" lon="32.5978597999"><ele>3.37</ele><time>2024-11-27T21:22:53Z</time></trkpt><trkpt lat="60.5315893795" lon="32.5956453010"><ele>3.39</ele><time>2024-11-27T21:23:21Z</time></trkpt><trkpt lat="60.5316473823" lon="32.5953948498"><ele>4.78</ele><time>2024-11-27T21:23:24Z</time></trkpt><trkpt lat="60.5317923892" lon="32.5947265606"><ele>1.17</ele><time>2024-11-27T21:23:32Z</time></trkpt><trkpt lat="60.5318096559" lon="32.5946421549"><ele>4.61</ele><time>2024-11-27T21:23:33Z</time></trkpt><trkpt lat="60.5318265874" lon="32.5945590064"><ele>-0.92</ele><time>2024-11-27T21:23:34Z</time></trkpt><trkpt lat="60.5318438541" lon="32.5944755226"><ele>5.09</ele><time>2024-11-27T21:23:35Z</time></trkpt><trkpt lat="60.5318770465" lon="32.5943079684"><ele>6.04</ele><time>2024-11-27T21:23:37Z</time></trkpt><trkpt lat="60.5318938103" lon="32.5942254905"><ele>2.80</ele><time>2024-11-27T21:23:38Z</time></trkpt><trkpt lat="60.5319105741" lon="32.5941426773"><ele>2.82</ele><time>2024-11-27T21:23:39Z</time></trkpt><trkpt lat="60.5319267511" lon="32.5940581039"><ele>6.53</ele><time>2024-11-27T21:23:40Z</time></trkpt><trkpt lat="60.5319421738" lon="32.5939731114"><ele>3.38</ele><time>2024-11-27T21:23:41Z</time></trkpt><trkpt lat="60.5321225524" lon="32.5929445680"><ele>4.76</ele><time>2024-11-27T21:23:53Z</time></trkpt><trkpt lat="60.5322059523" lon="32.5923186913"><ele>2.46</ele><time>2024-11-27T21:24:00Z</time></trkpt><trkpt lat="60.5322465207" lon="32.5919408351"><ele>5.99</ele><time>2024-11-27T21:24:04Z</time></trkpt><trkpt lat="60.5322548188" lon="32.5918442756"><ele>5.84</ele><time>2024-11-27T21:24:05Z</time></trkpt><trkpt lat="60.5322751869" lon="32.5915529206"><ele>2.53</ele><time>2024-11-27T21:24:08Z</time></trkpt><trkpt lat="60.5322803836" lon="32.5914563611"><ele>2.65</ele><time>2024-11-27T21:24:09Z</time></trkpt><trkpt lat="60.5322886817" lon="32.5912628230"><ele>-1.62</ele><time>2024-11-27T21:24:11Z</time></trkpt><trkpt lat="60.5322913639" lon="32.5911675207"><ele>4.31</ele><time>2024-11-27T21:24:12Z</time></trkpt><trkpt lat="60.5322960578" lon="32.5910702068"><ele>4.36</ele><time>2024-11-27T21:24:13Z</time></trkpt><trkpt lat="60.5323164258" lon="32.5907016546"><ele>-0.82</ele><time>2024-11-27T21:24:17Z</time></trkpt><trkpt lat="60.5323205329" lon="32.5906273909"><ele>-0.71</ele><time>2024-11-27T21:24:18Z</time></trkpt><trkpt lat="60.5323240533" lon="32.5905618444"><ele>4.15</ele><time>2024-11-27T21:24:19Z</time></trkpt><trkpt lat="60.5323339440" lon="32.5903099682"><ele>-0.76</ele><time>2024-11-27T21:24:24Z</time></trkpt><trkpt lat="60.5323353689" lon="32.5902602635"><ele>5.31</ele><time>2024-11-27T21:24:25Z</time></trkpt><trkpt lat="60.5323356204" lon="32.5902111456"><ele>1.25</ele><time>2024-11-27T21:24:26Z</time></trkpt><trkpt lat="60.5323360395" lon="32.5901652966"><ele>5.69</ele><time>2024-11-27T21:24:27Z</time></trkpt><trkpt lat="60.5323409010" lon="32.5899206288"><ele>2.03</ele><time>2024-11-27T21:24:32Z</time></trkpt><trkpt lat="60.5323435832" lon="32.5898690801"><ele>2.19</ele><time>2024-11-27T21:24:33Z</time></trkpt><trkpt lat="60.5323512945" lon="32.5897201337"><ele>5.65</ele><time>2024-11-27T21:24:36Z</time></trkpt><trkpt lat="60.5323548149" lon="32.5896715187"><ele>5.45</ele><time>2024-11-27T21:24:37Z</time></trkpt><trkpt lat="60.5323819723" lon="32.5893763080"><ele>0.71</ele><time>2024-11-27T21:24:43Z</time></trkpt><trkpt lat="60.5323859118" lon="32.5893297885"><ele>6.36</ele><time>2024-11-27T21:24:44Z</time></trkpt><trkpt lat="60.5324049387" lon="32.5891876314"><ele>3.17</ele><time>2024-11-27T21:24:47Z</time></trkpt><trkpt lat="60.5324116442" lon="32.5891401898"><ele>3.34</ele><time>2024-11-27T21:24:48Z</time></trkpt><trkpt lat="60.5324330181" lon="32.5889938418"><ele>4.73</ele><time>2024-11-27T21:24:51Z</time></trkpt><trkpt lat="60.5324554816" lon="32.5888490025"><ele>2.47</ele><time>2024-11-27T21:24:54Z</time></trkpt><trkpt lat="60.5326396320" lon="32.5879442599"><ele>2.51</ele><time>2024-11-27T21:25:12Z</time></trkpt><trkpt lat="60.5331047438" lon="32.5867477432"><ele>2.53</ele><time>2024-11-27T21:25:34Z</time></trkpt><trkpt lat="60.5334767327" lon="32.5851714425"><ele>2.57</ele><time>2024-11-27T21:26:00Z</time></trkpt><trkpt lat="60.5337386671" lon="32.5837046094"><ele>5.04</ele><time>2024-11-27T21:26:28Z</time></trkpt><trkpt lat="60.5339121725" lon="32.5824299734"><ele>-1.20</ele><time>2024-11-27T21:26:49Z</time></trkpt><trkpt lat="60.5339219794" lon="32.5823671930"><ele>5.80</ele><time>2024-11-27T21:26:50Z</time></trkpt><trkpt lat="60.5340038706" lon="32.5819434877"><ele>1.93</ele><time>2024-11-27T21:26:57Z</time></trkpt><trkpt lat="60.5340156052" lon="32.5818864070"><ele>5.60</ele><time>2024-11-27T21:26:58Z</time></trkpt><trkpt lat="60.5340279266" lon="32.5818304997"><ele>5.60</ele><time>2024-11-27T21:26:59Z</time></trkpt><trkpt lat="60.5340941437" lon="32.5815606862"><ele>-0.82</ele><time>2024-11-27T21:27:04Z</time></trkpt><trkpt lat="60.5341073032" lon="32.5815084670"><ele>4.43</ele><time>2024-11-27T21:27:05Z</time></trkpt><trkpt lat="60.5342774559" lon="32.5808830932"><ele>0.90</ele><time>2024-11-27T21:27:17Z</time></trkpt><trkpt lat="60.5342912022" lon="32.5808317959"><ele>0.95</ele><time>2024-11-27T21:27:18Z</time></trkpt><trkpt lat="60.5343049485" lon="32.5807810854"><ele>4.41</ele><time>2024-11-27T21:27:19Z</time></trkpt><trkpt lat="60.5343187787" lon="32.5807308778"><ele>4.38</ele><time>2024-11-27T21:27:20Z</time></trkpt><trkpt lat="60.5343782902" lon="32.5805291254"><ele>0.24</ele><time>2024-11-27T21:27:24Z</time></trkpt><trkpt lat="60.5343934614" lon="32.5804795884"><ele>3.75</ele><time>2024-11-27T21:27:25Z</time></trkpt><trkpt lat="60.5344088841" lon="32.5804300513"><ele>6.88</ele><time>2024-11-27T21:27:26Z</time></trkpt><trkpt lat="60.5344237201" lon="32.5803805143"><ele>6.90</ele><time>2024-11-27T21:27:27Z</time></trkpt><trkpt lat="60.5344543979" lon="32.5802800991"><ele>3.60</ele><time>2024-11-27T21:27:29Z</time></trkpt><trkpt lat="60.5344699882" lon="32.5802299753"><ele>3.68</ele><time>2024-11-27T21:27:30Z</time></trkpt><trkpt lat="60.5346015003" lon="32.5798284821"><ele>2.54</ele><time>2024-11-27T21:27:38Z</time></trkpt><trkpt lat="60.5346314237" lon="32.5797243789"><ele>5.00</ele><time>2024-11-27T21:27:40Z</time></trkpt><trkpt lat="60.5349641014" lon="32.5783491600"><ele>5.07</ele><time>2024-11-27T21:28:06Z</time></trkpt><trkpt lat="60.5348030850" lon="32.5773304235"><ele>5.07</ele><time>2024-11-27T21:28:25Z</time></trkpt><trkpt lat="60.5346669629" lon="32.5766156148"><ele>2.59</ele><time>2024-11-27T21:28:39Z</time></trkpt><trkpt lat="60.5344922002" lon="32.5752088800"><ele>2.67</ele><time>2024-11-27T21:29:05Z</time></trkpt><trkpt lat="60.5343373865" lon="32.5737526082"><ele>2.72</ele><time>2024-11-27T21:29:31Z</time></trkpt><trkpt lat="60.5343660526" lon="32.5721668359"><ele>1.99</ele><time>2024-11-27T21:29:58Z</time></trkpt><trkpt lat="60.5343797151" lon="32.5712240394"><ele>2.02</ele><time>2024-11-27T21:30:13Z</time></trkpt><trkpt lat="60.5342981592" lon="32.5701998547"><ele>2.01</ele><time>2024-11-27T21:30:29Z</time></trkpt><trkpt lat="60.5340113305" lon="32.5697874650"><ele>1.22</ele><time>2024-11-27T21:30:42Z</time></trkpt><trkpt lat="60.5333422031" lon="32.5693920068"><ele>1.30</ele><time>2024-11-27T21:31:07Z</time></trkpt><trkpt lat="60.5328407977" lon="32.5684746914"><ele>1.38</ele><time>2024-11-27T21:31:31Z</time></trkpt><trkpt lat="60.5323973112" lon="32.5672034919"><ele>1.42</ele><time>2024-11-27T21:31:58Z</time></trkpt><trkpt lat="60.5321415793" lon="32.5661569275"><ele>3.87</ele><time>2024-11-27T21:32:18Z</time></trkpt><trkpt lat="60.5316525791" lon="32.5649475865"><ele>4.86</ele><time>2024-11-27T21:32:45Z</time></trkpt><trkpt lat="60.5309738964" lon="32.5636944920"><ele>4.91</ele><time>2024-11-27T21:33:18Z</time></trkpt><trkpt lat="60.5306123011" lon="32.5622575823"><ele>5.85</ele><time>2024-11-27T21:33:46Z</time></trkpt><trkpt lat="60.5303652864" lon="32.5613257661"><ele>5.83</ele><time>2024-11-27T21:34:06Z</time></trkpt><trkpt lat="60.5303413142" lon="32.5613020454"><ele>1.11</ele><time>2024-11-27T21:34:07Z</time></trkpt><trkpt lat="60.5303165037" lon="32.5612791628"><ele>4.55</ele><time>2024-11-27T21:34:08Z</time></trkpt><trkpt lat="60.5297812354" lon="32.5609829463"><ele>4.62</ele><time>2024-11-27T21:34:28Z</time></trkpt><trkpt lat="60.5291307159" lon="32.5604991429"><ele>4.66</ele><time>2024-11-27T21:34:53Z</time></trkpt><trkpt lat="60.5287182424" lon="32.5602140743"><ele>0.48</ele><time>2024-11-27T21:35:09Z</time></trkpt><trkpt lat="60.5286930967" lon="32.5601908565"><ele>3.30</ele><time>2024-11-27T21:35:10Z</time></trkpt><trkpt lat="60.5286037456" lon="32.5600813888"><ele>-0.30</ele><time>2024-11-27T21:35:14Z</time></trkpt><trkpt lat="60.5285817012" lon="32.5600512978"><ele>3.85</ele><time>2024-11-27T21:35:15Z</time></trkpt><trkpt lat="60.5282391328" lon="32.5591328088"><ele>3.97</ele><time>2024-11-27T21:35:35Z</time></trkpt><trkpt lat="60.5281577446" lon="32.5588943437"><ele>0.50</ele><time>2024-11-27T21:35:40Z</time></trkpt><trkpt lat="60.5281425733" lon="32.5588444714"><ele>0.50</ele><time>2024-11-27T21:35:41Z</time></trkpt><trkpt lat="60.5281124823" lon="32.5587395299"><ele>2.88</ele><time>2024-11-27T21:35:43Z</time></trkpt><trkpt lat="60.5280833971" lon="32.5586364325"><ele>0.53</ele><time>2024-11-27T21:35:45Z</time></trkpt><trkpt lat="60.5280579999" lon="32.5585273001"><ele>3.25</ele><time>2024-11-27T21:35:47Z</time></trkpt><trkpt lat="60.5279076286" lon="32.5572572742"><ele>3.34</ele><time>2024-11-27T21:36:10Z</time></trkpt><trkpt lat="60.5275881942" lon="32.5561268907"><ele>3.47</ele><time>2024-11-27T21:36:34Z</time></trkpt><trkpt lat="60.5269474816" lon="32.5555794686"><ele>3.49</ele><time>2024-11-27T21:36:58Z</time></trkpt><trkpt lat="60.5262669548" lon="32.5548640732"><ele>3.56</ele><time>2024-11-27T21:37:25Z</time></trkpt><trkpt lat="60.5255047046" lon="32.5538389664"><ele>5.18</ele><time>2024-11-27T21:37:54Z</time></trkpt><trkpt lat="60.5250408500" lon="32.5528036337"><ele>5.15</ele><time>2024-11-27T21:38:14Z</time></trkpt><trkpt lat="60.5247403588" lon="32.5513854157"><ele>5.20</ele><time>2024-11-27T21:38:38Z</time></trkpt><trkpt lat="60.5246861279" lon="32.5510543305"><ele>0.82</ele><time>2024-11-27T21:38:43Z</time></trkpt><trkpt lat="60.5246753152" lon="32.5509877782"><ele>5.67</ele><time>2024-11-27T21:38:44Z</time></trkpt><trkpt lat="60.5244798493" lon="32.5496655330"><ele>5.69</ele><time>2024-11-27T21:39:04Z</time></trkpt><trkpt lat="60.5239128135" lon="32.5492754392"><ele>5.74</ele><time>2024-11-27T21:39:22Z</time></trkpt><trkpt lat="60.5231545027" lon="32.5483838562"><ele>5.80</ele><time>2024-11-27T21:39:50Z</time></trkpt><trkpt lat="60.5225730501" lon="32.5473144092"><ele>5.84</ele><time>2024-11-27T21:40:14Z</time></trkpt><trkpt lat="60.5225235131" lon="32.5472315960"><ele>2.73</ele><time>2024-11-27T21:40:16Z</time></trkpt><trkpt lat="60.5224984512" lon="32.5471905246"><ele>2.73</ele><time>2024-11-27T21:40:17Z</time></trkpt><trkpt lat="60.5224483274" lon="32.5471073762"><ele>5.20</ele><time>2024-11-27T21:40:19Z</time></trkpt><trkpt lat="60.5218072794" lon="32.5461365841"><ele>5.29</ele><time>2024-11-27T21:40:45Z</time></trkpt><trkpt lat="60.5211467855" lon="32.5453616772"><ele>5.29</ele><time>2024-11-27T21:41:10Z</time></trkpt><trkpt lat="60.5208596215" lon="32.5440724567"><ele>5.35</ele><time>2024-11-27T21:41:32Z</time></trkpt><trkpt lat="60.5204453040" lon="32.5434695464"><ele>5.38</ele><time>2024-11-27T21:41:49Z</time></trkpt><trkpt lat="60.5194622744" lon="32.5428457651"><ele>5.43</ele><time>2024-11-27T21:42:21Z</time></trkpt><trkpt lat="60.5188068096" lon="32.5420221593"><ele>5.48</ele><time>2024-11-27T21:42:45Z</time></trkpt><trkpt lat="60.5183727946" lon="32.5410966296"><ele>5.52</ele><time>2024-11-27T21:43:04Z</time></trkpt><trkpt lat="60.5177467503" lon="32.5400080718"><ele>5.56</ele><time>2024-11-27T21:43:28Z</time></trkpt><trkpt lat="60.5173574109" lon="32.5392055884"><ele>5.59</ele><time>2024-11-27T21:43:48Z</time></trkpt><trkpt lat="60.5169605277" lon="32.5386837311"><ele>2.65</ele><time>2024-11-27T21:44:04Z</time></trkpt><trkpt lat="60.5163121037" lon="32.5383669790"><ele>2.72</ele><time>2024-11-27T21:44:26Z</time></trkpt><trkpt lat="60.5154855642" lon="32.5376748852"><ele>2.80</ele><time>2024-11-27T21:44:53Z</time></trkpt><trkpt lat="60.5149456020" lon="32.5375407748"><ele>2.83</ele><time>2024-11-27T21:45:10Z</time></trkpt><trkpt lat="60.5140860379" lon="32.5374180637"><ele>2.93</ele><time>2024-11-27T21:45:35Z</time></trkpt><trkpt lat="60.5131953768" lon="32.5369480066"><ele>3.02</ele><time>2024-11-27T21:46:00Z</time></trkpt><trkpt lat="60.5124227330" lon="32.5363625307"><ele>3.10</ele><time>2024-11-27T21:46:22Z</time></trkpt><trkpt lat="60.5115894880" lon="32.5360636320"><ele>3.17</ele><time>2024-11-27T21:46:47Z</time></trkpt><trkpt lat="60.5108575802" lon="32.5353700295"><ele>3.27</ele><time>2024-11-27T21:47:13Z</time></trkpt><trkpt lat="60.5100936536" lon="32.5343367085"><ele>2.63</ele><time>2024-11-27T21:47:41Z</time></trkpt><trkpt lat="60.5096229259" lon="32.5339462794"><ele>2.69</ele><time>2024-11-27T21:47:59Z</time></trkpt><trkpt lat="60.5087474361" lon="32.5339005981"><ele>2.84</ele><time>2024-11-27T21:48:27Z</time></trkpt><trkpt lat="60.5078776460" lon="32.5337243266"><ele>2.05</ele><time>2024-11-27T21:48:53Z</time></trkpt><trkpt lat="60.5068319198" lon="32.5335457083"><ele>1.33</ele><time>2024-11-27T21:49:21Z</time></trkpt><trkpt lat="60.5059473775" lon="32.5331852026"><ele>1.45</ele><time>2024-11-27T21:49:47Z</time></trkpt><trkpt lat="60.5052363407" lon="32.5321412366"><ele>1.57</ele><time>2024-11-27T21:50:12Z</time></trkpt><trkpt lat="60.5050543696" lon="32.5310059078"><ele>1.64</ele><time>2024-11-27T21:50:28Z</time></trkpt><trkpt lat="60.5050844606" lon="32.5303497724"><ele>0.04</ele><time>2024-11-27T21:50:37Z</time></trkpt><trkpt lat="60.5049400404" lon="32.5298006739"><ele>0.09</ele><time>2024-11-27T21:50:51Z</time></trkpt><trkpt lat="60.5041818134" lon="32.5296664797"><ele>0.18</ele><time>2024-11-27T21:51:13Z</time></trkpt><trkpt lat="60.5033038929" lon="32.5289458036"><ele>0.31</ele><time>2024-11-27T21:51:39Z</time></trkpt><trkpt lat="60.5026812851" lon="32.5284584798"><ele>1.20</ele><time>2024-11-27T21:51:58Z</time></trkpt><trkpt lat="60.5024038441" lon="32.5281652808"><ele>-4.04</ele><time>2024-11-27T21:52:06Z</time></trkpt><trkpt lat="60.5023688078" lon="32.5281265564"><ele>1.51</ele><time>2024-11-27T21:52:07Z</time></trkpt><trkpt lat="60.5017721839" lon="32.5277086347"><ele>1.61</ele><time>2024-11-27T21:52:24Z</time></trkpt><trkpt lat="60.5013437010" lon="32.5272296090"><ele>1.70</ele><time>2024-11-27T21:52:41Z</time></trkpt><trkpt lat="60.5008398648" lon="32.5271372404"><ele>1.83</ele><time>2024-11-27T21:53:03Z</time></trkpt><trkpt lat="60.5003202707" lon="32.5275461935"><ele>1.95</ele><time>2024-11-27T21:53:26Z</time></trkpt><trkpt lat="60.5000311788" lon="32.5278890133"><ele>-2.02</ele><time>2024-11-27T21:53:40Z</time></trkpt><trkpt lat="60.5000155885" lon="32.5279273186"><ele>1.32</ele><time>2024-11-27T21:53:41Z</time></trkpt><trkpt lat="60.4999059532" lon="32.5281957909"><ele>-2.27</ele><time>2024-11-27T21:53:48Z</time></trkpt><trkpt lat="60.4998884350" lon="32.5282334257"><ele>3.80</ele><time>2024-11-27T21:53:49Z</time></trkpt><trkpt lat="60.4998704977" lon="32.5282697193"><ele>3.79</ele><time>2024-11-27T21:53:50Z</time></trkpt><trkpt lat="60.4998525605" lon="32.5283039175"><ele>-1.65</ele><time>2024-11-27T21:53:51Z</time></trkpt><trkpt lat="60.4998337850" lon="32.5283371937"><ele>2.53</ele><time>2024-11-27T21:53:52Z</time></trkpt><trkpt lat="60.4997382313" lon="32.5284941867"><ele>4.05</ele><time>2024-11-27T21:53:57Z</time></trkpt><trkpt lat="60.4996998422" lon="32.5285549555"><ele>1.71</ele><time>2024-11-27T21:53:59Z</time></trkpt><trkpt lat="60.4996208008" lon="32.5286760740"><ele>-2.03</ele><time>2024-11-27T21:54:03Z</time></trkpt><trkpt lat="60.4996011034" lon="32.5287048239"><ele>-2.03</ele><time>2024-11-27T21:54:04Z</time></trkpt><trkpt lat="60.4995811544" lon="32.5287334900"><ele>3.33</ele><time>2024-11-27T21:54:05Z</time></trkpt><trkpt lat="60.4995607864" lon="32.5287627429"><ele>3.20</ele><time>2024-11-27T21:54:06Z</time></trkpt><trkpt lat="60.4994807392" lon="32.5288742222"><ele>1.03</ele><time>2024-11-27T21:54:10Z</time></trkpt><trkpt lat="60.4992209841" lon="32.5291654095"><ele>1.14</ele><time>2024-11-27T21:54:24Z</time></trkpt><trkpt lat="60.4990996141" lon="32.5293871947"><ele>-3.14</ele><time>2024-11-27T21:54:39Z</time></trkpt><trkpt lat="60.4990894720" lon="32.5294212252"><ele>1.75</ele><time>2024-11-27T21:54:41Z</time></trkpt><trkpt lat="60.4990856163" lon="32.5294384081"><ele>1.73</ele><time>2024-11-27T21:54:42Z</time></trkpt><trkpt lat="60.4990816768" lon="32.5294552557"><ele>-2.09</ele><time>2024-11-27T21:54:43Z</time></trkpt><trkpt lat="60.4990781564" lon="32.5294730254"><ele>-2.09</ele><time>2024-11-27T21:54:44Z</time></trkpt><trkpt lat="60.4990670085" lon="32.5295275077"><ele>0.92</ele><time>2024-11-27T21:54:47Z</time></trkpt><trkpt lat="60.4990621470" lon="32.5295479596"><ele>0.93</ele><time>2024-11-27T21:54:48Z</time></trkpt><trkpt lat="60.4990146216" lon="32.5296917930"><ele>-1.02</ele><time>2024-11-27T21:54:55Z</time></trkpt><trkpt lat="60.4989932477" lon="32.5297482871"><ele>1.01</ele><time>2024-11-27T21:54:58Z</time></trkpt><trkpt lat="60.4989608936" lon="32.5298247300"><ele>-1.40</ele><time>2024-11-27T21:55:02Z</time></trkpt><trkpt lat="60.4989246000" lon="32.5299016759"><ele>-0.10</ele><time>2024-11-27T21:55:06Z</time></trkpt><trkpt lat="60.4987057485" lon="32.5302811246"><ele>0.39</ele><time>2024-11-27T21:55:30Z</time></trkpt><trkpt lat="60.4986575525" lon="32.5303584058"><ele>-4.19</ele><time>2024-11-27T21:55:35Z</time></trkpt><trkpt lat="60.4986480810" lon="32.5303761754"><ele>0.62</ele><time>2024-11-27T21:55:36Z</time></trkpt><trkpt lat="60.4985987116" lon="32.5304877385"><ele>0.84</ele><time>2024-11-27T21:55:41Z</time></trkpt><trkpt lat="60.4984555487" lon="32.5308667682"><ele>-1.47</ele><time>2024-11-27T21:55:54Z</time></trkpt><trkpt lat="60.4980704002" lon="32.5318913721"><ele>-1.18</ele><time>2024-11-27T21:56:25Z</time></trkpt><trkpt lat="60.4976572562" lon="32.5323527120"><ele>-2.29</ele><time>2024-11-27T21:56:47Z</time></trkpt><trkpt lat="60.4970847722" lon="32.5327912532"><ele>-2.05</ele><time>2024-11-27T21:57:14Z</time></trkpt><trkpt lat="60.4969113506" lon="32.5328841247"><ele>-0.48</ele><time>2024-11-27T21:57:22Z</time></trkpt><trkpt lat="60.4963852186" lon="32.5332022179"><ele>-0.38</ele><time>2024-11-27T21:57:45Z</time></trkpt><trkpt lat="60.4963352624" lon="32.5332220830"><ele>-3.60</ele><time>2024-11-27T21:57:47Z</time></trkpt><trkpt lat="60.4963091109" lon="32.5332307164"><ele>-3.60</ele><time>2024-11-27T21:57:48Z</time></trkpt><trkpt lat="60.4962829594" lon="32.5332371704"><ele>-0.19</ele><time>2024-11-27T21:57:49Z</time></trkpt><trkpt lat="60.4962563049" lon="32.5332424510"><ele>-0.18</ele><time>2024-11-27T21:57:50Z</time></trkpt><trkpt lat="60.4962028284" lon="32.5332494918"><ele>-2.78</ele><time>2024-11-27T21:57:52Z</time></trkpt><trkpt lat="60.4956470244" lon="32.5331234280"><ele>-2.72</ele><time>2024-11-27T21:58:13Z</time></trkpt><trkpt lat="60.4952918831" lon="32.5328788441"><ele>-5.79</ele><time>2024-11-27T21:58:26Z</time></trkpt><trkpt lat="60.4952368978" lon="32.5328323245"><ele>-1.14</ele><time>2024-11-27T21:58:28Z</time></trkpt><trkpt lat="60.4952088185" lon="32.5328099448"><ele>-1.14</ele><time>2024-11-27T21:58:29Z</time></trkpt><trkpt lat="60.4947018810" lon="32.5327611621"><ele>-1.01</ele><time>2024-11-27T21:58:47Z</time></trkpt><trkpt lat="60.4941506870" lon="32.5328116212"><ele>-0.94</ele><time>2024-11-27T21:59:07Z</time></trkpt><trkpt lat="60.4935937095" lon="32.5326920114"><ele>-0.77</ele><time>2024-11-27T21:59:26Z</time></trkpt><trkpt lat="60.4929427709" lon="32.5331553631"><ele>-0.64</ele><time>2024-11-27T21:59:48Z</time></trkpt><trkpt lat="60.4921994638" lon="32.5334157050"><ele>-0.52</ele><time>2024-11-27T22:00:09Z</time></trkpt><trkpt lat="60.4915823042" lon="32.5338860974"><ele>-0.36</ele><time>2024-11-27T22:00:29Z</time></trkpt><trkpt lat="60.4910362232" lon="32.5344888400"><ele>-0.28</ele><time>2024-11-27T22:00:50Z</time></trkpt><trkpt lat="60.4903918225" lon="32.5352058280"><ele>-0.16</ele><time>2024-11-27T22:01:13Z</time></trkpt><trkpt lat="60.4898164887" lon="32.5358537491"><ele>-0.10</ele><time>2024-11-27T22:01:34Z</time></trkpt><trkpt lat="60.4892637860" lon="32.5368351862"><ele>0.14</ele><time>2024-11-27T22:01:58Z</time></trkpt><trkpt lat="60.4886996001" lon="32.5378467143"><ele>0.29</ele><time>2024-11-27T22:02:23Z</time></trkpt><trkpt lat="60.4880461469" lon="32.5387932826"><ele>0.58</ele><time>2024-11-27T22:02:51Z</time></trkpt><trkpt lat="60.4878652655" lon="32.5389701407"><ele>2.96</ele><time>2024-11-27T22:02:58Z</time></trkpt><trkpt lat="60.4873185977" lon="32.5394599792"><ele>-0.15</ele><time>2024-11-27T22:03:19Z</time></trkpt><trkpt lat="60.4872915242" lon="32.5394827779"><ele>-0.15</ele><time>2024-11-27T22:03:20Z</time></trkpt><trkpt lat="60.4868047033" lon="32.5399265997"><ele>-0.07</ele><time>2024-11-27T22:03:36Z</time></trkpt><trkpt lat="60.4862740450" lon="32.5409927778"><ele>0.11</ele><time>2024-11-27T22:03:59Z</time></trkpt><trkpt lat="60.4856101982" lon="32.5419287849"><ele>0.22</ele><time>2024-11-27T22:04:23Z</time></trkpt><trkpt lat="60.4849687312" lon="32.5426401570"><ele>0.32</ele><time>2024-11-27T22:04:45Z</time></trkpt><trkpt lat="60.4844906274" lon="32.5436668564"><ele>0.46</ele><time>2024-11-27T22:05:06Z</time></trkpt><trkpt lat="60.4841806646" lon="32.5447083917"><ele>0.50</ele><time>2024-11-27T22:05:26Z</time></trkpt><trkpt lat="60.4836876411" lon="32.5456441473"><ele>0.68</ele><time>2024-11-27T22:05:49Z</time></trkpt><trkpt lat="60.4834651854" lon="32.5465809088"><ele>0.76</ele><time>2024-11-27T22:06:07Z</time></trkpt><trkpt lat="60.4834693763" lon="32.5475354400"><ele>0.83</ele><time>2024-11-27T22:06:23Z</time></trkpt><trkpt lat="60.4834440630" lon="32.5486580282"><ele>0.90</ele><time>2024-11-27T22:06:41Z</time></trkpt><trkpt lat="60.4830988962" lon="32.5501422118"><ele>0.98</ele><time>2024-11-27T22:07:05Z</time></trkpt><trkpt lat="60.4826797172" lon="32.5509686675"><ele>1.06</ele><time>2024-11-27T22:07:24Z</time></trkpt><trkpt lat="60.4824737739" lon="32.5525475666"><ele>1.12</ele><time>2024-11-27T22:07:49Z</time></trkpt><trkpt lat="60.4823664017" lon="32.5532472879"><ele>4.35</ele><time>2024-11-27T22:08:00Z</time></trkpt><trkpt lat="60.4823537450" lon="32.5533017702"><ele>4.35</ele><time>2024-11-27T22:08:01Z</time></trkpt><trkpt lat="60.4823278449" lon="32.5534127466"><ele>2.02</ele><time>2024-11-27T22:08:03Z</time></trkpt><trkpt lat="60.4819417745" lon="32.5546651706"><ele>1.18</ele><time>2024-11-27T22:08:26Z</time></trkpt><trkpt lat="60.4814885650" lon="32.5559025910"><ele>0.40</ele><time>2024-11-27T22:08:50Z</time></trkpt><trkpt lat="60.4812921770" lon="32.5574390776"><ele>0.51</ele><time>2024-11-27T22:09:13Z</time></trkpt><trkpt lat="60.4811495170" lon="32.5584744103"><ele>0.57</ele><time>2024-11-27T22:09:30Z</time></trkpt><trkpt lat="60.4810787737" lon="32.5599771179"><ele>0.65</ele><time>2024-11-27T22:09:53Z</time></trkpt><trkpt lat="60.4810441565" lon="32.5616778061"><ele>0.72</ele><time>2024-11-27T22:10:17Z</time></trkpt><trkpt lat="60.4809433222" lon="32.5634614751"><ele>0.81</ele><time>2024-11-27T22:10:41Z</time></trkpt><trkpt lat="60.4808596708" lon="32.5651864707"><ele>0.90</ele><time>2024-11-27T22:11:06Z</time></trkpt><trkpt lat="60.4808158334" lon="32.5669129752"><ele>0.96</ele><time>2024-11-27T22:11:30Z</time></trkpt><trkpt lat="60.4808296636" lon="32.5687312614"><ele>1.05</ele><time>2024-11-27T22:11:55Z</time></trkpt><trkpt lat="60.4808381293" lon="32.5697554462"><ele>4.89</ele><time>2024-11-27T22:12:10Z</time></trkpt><trkpt lat="60.4808375426" lon="32.5698258542"><ele>4.88</ele><time>2024-11-27T22:12:11Z</time></trkpt><trkpt lat="60.4808361176" lon="32.5698971841"><ele>1.43</ele><time>2024-11-27T22:12:12Z</time></trkpt><trkpt lat="60.4808341898" lon="32.5699684303"><ele>1.43</ele><time>2024-11-27T22:12:13Z</time></trkpt><trkpt lat="60.4807291646" lon="32.5713250414"><ele>1.40</ele><time>2024-11-27T22:12:33Z</time></trkpt><trkpt lat="60.4808143247" lon="32.5727613643"><ele>1.51</ele><time>2024-11-27T22:12:55Z</time></trkpt><trkpt lat="60.4807149153" lon="32.5743313786"><ele>1.55</ele><time>2024-11-27T22:13:18Z</time></trkpt><trkpt lat="60.4806897696" lon="32.5757966191"><ele>1.59</ele><time>2024-11-27T22:13:39Z</time></trkpt><trkpt lat="60.4805688187" lon="32.5774584990"><ele>0.90</ele><time>2024-11-27T22:14:01Z</time></trkpt><trkpt lat="60.4804296792" lon="32.5788606238"><ele>0.96</ele><time>2024-11-27T22:14:22Z</time></trkpt><trkpt lat="60.4804105684" lon="32.5790710095"><ele>-4.53</ele><time>2024-11-27T22:14:25Z</time></trkpt><trkpt lat="60.4804032762" lon="32.5791400764"><ele>4.73</ele><time>2024-11-27T22:14:26Z</time></trkpt><trkpt lat="60.4803961515" lon="32.5792096462"><ele>4.73</ele><time>2024-11-27T22:14:27Z</time></trkpt><trkpt lat="60.4803886078" lon="32.5792786293"><ele>1.70</ele><time>2024-11-27T22:14:28Z</time></trkpt><trkpt lat="60.4803716764" lon="32.5794164278"><ele>0.18</ele><time>2024-11-27T22:14:30Z</time></trkpt><trkpt lat="60.4803452734" lon="32.5796244666"><ele>-4.04</ele><time>2024-11-27T22:14:33Z</time></trkpt><trkpt lat="60.4803359695" lon="32.5796956290"><ele>1.54</ele><time>2024-11-27T22:14:34Z</time></trkpt><trkpt lat="60.4803265817" lon="32.5797686353"><ele>1.53</ele><time>2024-11-27T22:14:35Z</time></trkpt><trkpt lat="60.4800918046" lon="32.5810923893"><ele>2.16</ele><time>2024-11-27T22:14:55Z</time></trkpt><trkpt lat="60.4800794832" lon="32.5811539125"><ele>-2.85</ele><time>2024-11-27T22:14:56Z</time></trkpt><trkpt lat="60.4800678324" lon="32.5812145136"><ele>2.24</ele><time>2024-11-27T22:14:57Z</time></trkpt><trkpt lat="60.4800501466" lon="32.5813404936"><ele>3.32</ele><time>2024-11-27T22:14:59Z</time></trkpt><trkpt lat="60.4800416809" lon="32.5814041123"><ele>-0.01</ele><time>2024-11-27T22:15:00Z</time></trkpt><trkpt lat="60.4800333828" lon="32.5814678986"><ele>0.02</ele><time>2024-11-27T22:15:01Z</time></trkpt><trkpt lat="60.4800172057" lon="32.5815950520"><ele>2.88</ele><time>2024-11-27T22:15:03Z</time></trkpt><trkpt lat="60.4799045529" lon="32.5830555987"><ele>3.00</ele><time>2024-11-27T22:15:26Z</time></trkpt><trkpt lat="60.4799050558" lon="32.5833802298"><ele>0.68</ele><time>2024-11-27T22:15:31Z</time></trkpt><trkpt lat="60.4797350708" lon="32.5848475657"><ele>0.76</ele><time>2024-11-27T22:15:53Z</time></trkpt><trkpt lat="60.4793099407" lon="32.5861464255"><ele>0.03</ele><time>2024-11-27T22:16:17Z</time></trkpt><trkpt lat="60.4791865591" lon="32.5872109272"><ele>0.09</ele><time>2024-11-27T22:16:35Z</time></trkpt><trkpt lat="60.4794439673" lon="32.5883451663"><ele>0.13</ele><time>2024-11-27T22:16:53Z</time></trkpt><trkpt lat="60.4797982704" lon="32.5900824834"><ele>-7.93</ele><time>2024-11-27T22:17:16Z</time></trkpt><trkpt lat="60.4798074067" lon="32.5901669730"><ele>2.30</ele><time>2024-11-27T22:17:17Z</time></trkpt><trkpt lat="60.4798246734" lon="32.5903367065"><ele>-0.11</ele><time>2024-11-27T22:17:19Z</time></trkpt><trkpt lat="60.4798152018" lon="32.5921025220"><ele>-0.90</ele><time>2024-11-27T22:17:40Z</time></trkpt><trkpt lat="60.4798139445" lon="32.5921838265"><ele>-7.25</ele><time>2024-11-27T22:17:41Z</time></trkpt><trkpt lat="60.4798121005" lon="32.5922636222"><ele>-0.79</ele><time>2024-11-27T22:17:42Z</time></trkpt><trkpt lat="60.4798083287" lon="32.5923389755"><ele>3.37</ele><time>2024-11-27T22:17:43Z</time></trkpt><trkpt lat="60.4798030481" lon="32.5924128201"><ele>3.37</ele><time>2024-11-27T22:17:44Z</time></trkpt><trkpt lat="60.4797969293" lon="32.5924854074"><ele>0.36</ele><time>2024-11-27T22:17:45Z</time></trkpt><trkpt lat="60.4797914810" lon="32.5925553124"><ele>0.36</ele><time>2024-11-27T22:17:46Z</time></trkpt><trkpt lat="60.4797717836" lon="32.5927408878"><ele>-1.44</ele><time>2024-11-27T22:17:49Z</time></trkpt><trkpt lat="60.4797130264" lon="32.5930477493"><ele>-4.67</ele><time>2024-11-27T22:17:55Z</time></trkpt><trkpt lat="60.4797017947" lon="32.5930968672"><ele>-4.68</ele><time>2024-11-27T22:17:56Z</time></trkpt><trkpt lat="60.4796887189" lon="32.5931469072"><ele>2.25</ele><time>2024-11-27T22:17:57Z</time></trkpt><trkpt lat="60.4796749726" lon="32.5932008028"><ele>2.22</ele><time>2024-11-27T22:17:58Z</time></trkpt><trkpt lat="60.4796358291" lon="32.5933748949"><ele>-0.38</ele><time>2024-11-27T22:18:01Z</time></trkpt><trkpt lat="60.4792718869" lon="32.5947215315"><ele>-0.26</ele><time>2024-11-27T22:18:24Z</time></trkpt><trkpt lat="60.4791846313" lon="32.5953328237"><ele>-1.15</ele><time>2024-11-27T22:18:37Z</time></trkpt><trkpt lat="60.4791788477" lon="32.5956606399"><ele>-1.93</ele><time>2024-11-27T22:18:54Z</time></trkpt><trkpt lat="60.4791718908" lon="32.5960074831"><ele>-2.76</ele><time>2024-11-27T22:19:11Z</time></trkpt><trkpt lat="60.4793396126" lon="32.5964086410"><ele>-2.69</ele><time>2024-11-27T22:19:31Z</time></trkpt><trkpt lat="60.4796613939" lon="32.5967978965"><ele>-2.63</ele><time>2024-11-27T22:19:54Z</time></trkpt><trkpt lat="60.4799278546" lon="32.5972095318"><ele>-0.31</ele><time>2024-11-27T22:20:13Z</time></trkpt><trkpt lat="60.4799390025" lon="32.5972429756"><ele>-0.31</ele><time>2024-11-27T22:20:14Z</time></trkpt><trkpt lat="60.4800058901" lon="32.5980159547"><ele>-0.28</ele><time>2024-11-27T22:20:33Z</time></trkpt><trkpt lat="60.4797446262" lon="32.5985647179"><ele>-0.23</ele><time>2024-11-27T22:20:51Z</time></trkpt><trkpt lat="60.4796276148" lon="32.5986079685"><ele>-0.18</ele><time>2024-11-27T22:21:07Z</time></trkpt><trkpt lat="60.4795769881" lon="32.5985705014"><ele>-0.05</ele><time>2024-11-27T22:21:42Z</time></trkpt><trkpt lat="60.4795898125" lon="32.5985426735"><ele>0.05</ele><time>2024-11-27T22:22:15Z</time></trkpt><trkpt lat="60.4795421194" lon="32.5984698348"><ele>0.16</ele><time>2024-11-27T22:22:51Z</time></trkpt><trkpt lat="60.4796250165" lon="32.5985158514"><ele>1.89</ele><time>2024-11-27T22:23:07Z</time></trkpt><trkpt lat="60.4796592146" lon="32.5983713474"><ele>1.89</ele><time>2024-11-27T22:23:16Z</time></trkpt><trkpt lat="60.4795822687" lon="32.5979034696"><ele>1.95</ele><time>2024-11-27T22:23:39Z</time></trkpt><trkpt lat="60.4795698635" lon="32.5981178787"><ele>1.97</ele><time>2024-11-27T22:23:57Z</time></trkpt><trkpt lat="60.4795879684" lon="32.5981318764"><ele>1.97</ele><time>2024-11-27T22:23:59Z</time></trkpt><trkpt lat="60.4798035510" lon="32.5979632325"><ele>2.01</ele><time>2024-11-27T22:24:19Z</time></trkpt><trkpt lat="60.4799705185" lon="32.5979828462"><ele>2.06</ele><time>2024-11-27T22:24:38Z</time></trkpt><trkpt lat="60.4798209015" lon="32.5980838481"><ele>2.10</ele><time>2024-11-27T22:24:56Z</time></trkpt><trkpt lat="60.4797344841" lon="32.5977490749"><ele>2.14</ele><time>2024-11-27T22:25:15Z</time></trkpt><trkpt lat="60.4797961749" lon="32.5975262839"><ele>2.61</ele><time>2024-11-27T22:25:30Z</time></trkpt><trkpt lat="60.4799620528" lon="32.5974361785"><ele>2.64</ele><time>2024-11-27T22:25:51Z</time></trkpt><trkpt lat="60.4799205624" lon="32.5972913392"><ele>2.67</ele><time>2024-11-27T22:26:03Z</time></trkpt><trkpt lat="60.4797964264" lon="32.5975380186"><ele>2.71</ele><time>2024-11-27T22:26:29Z</time></trkpt><trkpt lat="60.4798757192" lon="32.5977023039"><ele>2.74</ele><time>2024-11-27T22:26:44Z</time></trkpt><trkpt lat="60.4801052157" lon="32.5981524959"><ele>2.78</ele><time>2024-11-27T22:27:08Z</time></trkpt><trkpt lat="60.4800055549" lon="32.5987081323"><ele>2.81</ele><time>2024-11-27T22:27:30Z</time></trkpt><trkpt lat="60.4798134416" lon="32.5984497182"><ele>2.83</ele><time>2024-11-27T22:27:47Z</time></trkpt><trkpt lat="60.4798144475" lon="32.5981318764"><ele>2.85</ele><time>2024-11-27T22:28:03Z</time></trkpt><trkpt lat="60.4799058940" lon="32.5980042201"><ele>2.87</ele><time>2024-11-27T22:28:20Z</time></trkpt><trkpt lat="60.4799496476" lon="32.5979877915"><ele>2.88</ele><time>2024-11-27T22:28:29Z</time></trkpt><trkpt lat="60.4799950775" lon="32.5981333852"><ele>2.91</ele><time>2024-11-27T22:28:38Z</time></trkpt><trkpt lat="60.4798089154" lon="32.5984384865"><ele>2.93</ele><time>2024-11-27T22:29:02Z</time></trkpt><trkpt lat="60.4795121960" lon="32.5987567473"><ele>2.96</ele><time>2024-11-27T22:29:30Z</time></trkpt><trkpt lat="60.4794721305" lon="32.5990595855"><ele>2.98</ele><time>2024-11-27T22:29:49Z</time></trkpt><trkpt lat="60.4795160517" lon="32.5991121400"><ele>2.99</ele><time>2024-11-27T22:29:54Z</time></trkpt><trkpt lat="60.4797030520" lon="32.5988173485"><ele>3.02</ele><time>2024-11-27T22:30:16Z</time></trkpt><trkpt lat="60.4796012118" lon="32.5984616205"><ele>0.71</ele><time>2024-11-27T22:30:30Z</time></trkpt><trkpt lat="60.4794366751" lon="32.5983306114"><ele>0.82</ele><time>2024-11-27T22:30:54Z</time></trkpt><trkpt lat="60.4794236831" lon="32.5983970799"><ele>0.81</ele><time>2024-11-27T22:30:58Z</time></trkpt><trkpt lat="60.4793934245" lon="32.5989056937"><ele>0.86</ele><time>2024-11-27T22:31:25Z</time></trkpt><trkpt lat="60.4792713840" lon="32.5992713124"><ele>0.07</ele><time>2024-11-27T22:31:49Z</time></trkpt><trkpt lat="60.4792650975" lon="32.5993051752"><ele>0.09</ele><time>2024-11-27T22:31:51Z</time></trkpt><trkpt lat="60.4791611619" lon="32.5999205746"><ele>0.15</ele><time>2024-11-27T22:32:21Z</time></trkpt><trkpt lat="60.4791178275" lon="32.6004385762"><ele>-0.57</ele><time>2024-11-27T22:32:47Z</time></trkpt><trkpt lat="60.4790848028" lon="32.6008362975"><ele>-0.56</ele><time>2024-11-27T22:33:12Z</time></trkpt><trkpt lat="60.4790810309" lon="32.6008544862"><ele>-1.28</ele><time>2024-11-27T22:33:32Z</time></trkpt><trkpt lat="60.4790223576" lon="32.6009190269"><ele>-1.18</ele><time>2024-11-27T22:34:01Z</time></trkpt><trkpt lat="60.4789769277" lon="32.6012481842"><ele>-1.12</ele><time>2024-11-27T22:34:31Z</time></trkpt><trkpt lat="60.4789793584" lon="32.6013582386"><ele>-1.10</ele><time>2024-11-27T22:34:55Z</time></trkpt><trkpt lat="60.4789790232" lon="32.6013584062"><ele>1.21</ele><time>2024-11-27T22:34:57Z</time></trkpt><trkpt lat="60.4789778497" lon="32.6013552211"><ele>1.21</ele><time>2024-11-27T22:35:34Z</time></trkpt><trkpt lat="60.4789672047" lon="32.6013576519"><ele>2.73</ele><time>2024-11-27T22:36:27Z</time></trkpt><trkpt lat="60.4789747484" lon="32.6013969630"><ele>3.45</ele><time>2024-11-27T22:37:14Z</time></trkpt><trkpt lat="60.4789801966" lon="32.6014087815"><ele>4.20</ele><time>2024-11-27T22:37:39Z</time></trkpt><trkpt lat="60.4789793584" lon="32.6014085300"><ele>4.89</ele><time>2024-11-27T22:38:28Z</time></trkpt><trkpt lat="60.4789770115" lon="32.6014066022"><ele>4.80</ele><time>2024-11-27T22:39:13Z</time></trkpt><trkpt lat="60.4789803643" lon="32.6013849769"><ele>0.95</ele><time>2024-11-27T22:39:25Z</time></trkpt><trkpt lat="60.4789813701" lon="32.6013856474"><ele>6.68</ele><time>2024-11-27T22:39:26Z</time></trkpt><trkpt lat="60.4789825436" lon="32.6013843063"><ele>8.38</ele><time>2024-11-27T22:39:28Z</time></trkpt><trkpt lat="60.4789822083" lon="32.6013833005"><ele>3.92</ele><time>2024-11-27T22:39:29Z</time></trkpt><trkpt lat="60.4789818730" lon="32.6013848931"><ele>3.92</ele><time>2024-11-27T22:39:30Z</time></trkpt><trkpt lat="60.4789832141" lon="32.6013901737"><ele>7.35</ele><time>2024-11-27T22:39:32Z</time></trkpt><trkpt lat="60.4789834656" lon="32.6013910118"><ele>7.35</ele><time>2024-11-27T22:39:33Z</time></trkpt><trkpt lat="60.4789844714" lon="32.6014013216"><ele>3.88</ele><time>2024-11-27T22:40:00Z</time></trkpt><trkpt lat="60.4789835494" lon="32.6014047582"><ele>3.88</ele><time>2024-11-27T22:40:01Z</time></trkpt><trkpt lat="60.4789900873" lon="32.6014044229"><ele>2.60</ele><time>2024-11-27T22:40:24Z</time></trkpt><trkpt lat="60.4789913446" lon="32.6014071051"><ele>2.59</ele><time>2024-11-27T22:40:51Z</time></trkpt><trkpt lat="60.4790031631" lon="32.6013955381"><ele>0.86</ele><time>2024-11-27T22:41:27Z</time></trkpt><trkpt lat="60.4789969604" lon="32.6014041714"><ele>1.88</ele><time>2024-11-27T22:41:40Z</time></trkpt><trkpt lat="60.4789933562" lon="32.6014035847"><ele>-0.58</ele><time>2024-11-27T22:41:47Z</time></trkpt><trkpt lat="60.4789955355" lon="32.6014092844"><ele>-2.83</ele><time>2024-11-27T22:41:59Z</time></trkpt><trkpt lat="60.4789950326" lon="32.6014107931"><ele>0.20</ele><time>2024-11-27T22:42:00Z</time></trkpt><trkpt lat="60.4789946135" lon="32.6014133915"><ele>0.20</ele><time>2024-11-27T22:42:01Z</time></trkpt><trkpt lat="60.4789970443" lon="32.6014219411"><ele>-2.09</ele><time>2024-11-27T22:42:09Z</time></trkpt><trkpt lat="60.4789994750" lon="32.6014109608"><ele>-4.31</ele><time>2024-11-27T22:42:24Z</time></trkpt><trkpt lat="60.4789987206" lon="32.6014082786"><ele>2.10</ele><time>2024-11-27T22:42:26Z</time></trkpt><trkpt lat="60.4789981339" lon="32.6014055125"><ele>-0.27</ele><time>2024-11-27T22:42:27Z</time></trkpt><trkpt lat="60.4789964575" lon="32.6014037523"><ele>-1.07</ele><time>2024-11-27T22:42:29Z</time></trkpt><trkpt lat="60.4789926857" lon="32.6014006510"><ele>-4.14</ele><time>2024-11-27T22:42:33Z</time></trkpt><trkpt lat="60.4789920151" lon="32.6014005672"><ele>-4.13</ele><time>2024-11-27T22:42:34Z</time></trkpt><trkpt lat="60.4789905902" lon="32.6013988908"><ele>-0.50</ele><time>2024-11-27T22:42:36Z</time></trkpt><trkpt lat="60.4789905902" lon="32.6013989747"><ele>-0.49</ele><time>2024-11-27T22:42:37Z</time></trkpt><trkpt lat="60.4789926019" lon="32.6013978850"><ele>-2.09</ele><time>2024-11-27T22:42:41Z</time></trkpt><trkpt lat="60.4789922666" lon="32.6014133077"><ele>-0.03</ele><time>2024-11-27T22:43:00Z</time></trkpt><trkpt lat="60.4789936915" lon="32.6014045067"><ele>-2.65</ele><time>2024-11-27T22:43:04Z</time></trkpt><trkpt lat="60.4789978825" lon="32.6013939455"><ele>-3.35</ele><time>2024-11-27T22:43:36Z</time></trkpt><trkpt lat="60.4789935239" lon="32.6013951190"><ele>0.15</ele><time>2024-11-27T22:43:39Z</time></trkpt><trkpt lat="60.4789920151" lon="32.6013963763"><ele>0.15</ele><time>2024-11-27T22:43:40Z</time></trkpt><trkpt lat="60.4789953679" lon="32.6013861503"><ele>-1.23</ele><time>2024-11-27T22:43:48Z</time></trkpt><trkpt lat="60.4789983016" lon="32.6013899222"><ele>1.82</ele><time>2024-11-27T22:43:59Z</time></trkpt><trkpt lat="60.4789980501" lon="32.6013908442"><ele>-1.50</ele><time>2024-11-27T22:44:01Z</time></trkpt><trkpt lat="60.4789970443" lon="32.6013967115"><ele>0.66</ele><time>2024-11-27T22:44:05Z</time></trkpt><trkpt lat="60.4789932724" lon="32.6014016569"><ele>-2.30</ele><time>2024-11-27T22:44:14Z</time></trkpt><trkpt lat="60.4789821245" lon="32.6014126372"><ele>-2.15</ele><time>2024-11-27T22:44:48Z</time></trkpt><trkpt lat="60.4789848067" lon="32.6014242042"><ele>-5.16</ele><time>2024-11-27T22:45:04Z</time></trkpt><trkpt lat="60.4789848905" lon="32.6014228631"><ele>6.85</ele><time>2024-11-27T22:45:05Z</time></trkpt><trkpt lat="60.4789841361" lon="32.6014208514"><ele>2.90</ele><time>2024-11-27T22:45:06Z</time></trkpt><trkpt lat="60.4789823759" lon="32.6014150679"><ele>-0.78</ele><time>2024-11-27T22:45:08Z</time></trkpt><trkpt lat="60.4789820407" lon="32.6014141459"><ele>-0.81</ele><time>2024-11-27T22:45:09Z</time></trkpt><trkpt lat="60.4789841361" lon="32.6014155708"><ele>0.89</ele><time>2024-11-27T22:45:16Z</time></trkpt><trkpt lat="60.4789731558" lon="32.6014009025"><ele>0.96</ele><time>2024-11-27T22:45:47Z</time></trkpt><trkpt lat="60.4789794423" lon="32.6013909280"><ele>1.02</ele><time>2024-11-27T22:46:11Z</time></trkpt><trkpt lat="60.4789820407" lon="32.6014021598"><ele>1.10</ele><time>2024-11-27T22:46:41Z</time></trkpt><trkpt lat="60.4789681267" lon="32.6013900898"><ele>1.15</ele><time>2024-11-27T22:47:06Z</time></trkpt><trkpt lat="60.4789774306" lon="32.6013941970"><ele>1.22</ele><time>2024-11-27T22:47:39Z</time></trkpt><trkpt lat="60.4789769277" lon="32.6014152355"><ele>1.26</ele><time>2024-11-27T22:48:14Z</time></trkpt><trkpt lat="60.4789737426" lon="32.6014422253"><ele>1.27</ele><time>2024-11-27T22:48:55Z</time></trkpt><trkpt lat="60.4789764248" lon="32.6014304068"><ele>2.67</ele><time>2024-11-27T22:49:26Z</time></trkpt><trkpt lat="60.4789791070" lon="32.6014210191"><ele>0.01</ele><time>2024-11-27T22:49:34Z</time></trkpt><trkpt lat="60.4789822921" lon="32.6014132239"><ele>0.01</ele><time>2024-11-27T22:50:07Z</time></trkpt><trkpt lat="60.4789770953" lon="32.6014064346"><ele>0.02</ele><time>2024-11-27T22:50:36Z</time></trkpt><trkpt lat="60.4789714795" lon="32.6014154870"><ele>0.03</ele><time>2024-11-27T22:51:06Z</time></trkpt><trkpt lat="60.4789733235" lon="32.6014055964"><ele>0.04</ele><time>2024-11-27T22:51:29Z</time></trkpt><trkpt lat="60.4789752513" lon="32.6014118828"><ele>0.06</ele><time>2024-11-27T22:51:57Z</time></trkpt><trkpt lat="60.4789811186" lon="32.6014210191"><ele>0.08</ele><time>2024-11-27T22:52:24Z</time></trkpt><trkpt lat="60.4789782688" lon="32.6014215220"><ele>0.09</ele><time>2024-11-27T22:52:53Z</time></trkpt><trkpt lat="60.4789741617" lon="32.6014259644"><ele>0.09</ele><time>2024-11-27T22:53:29Z</time></trkpt><trkpt lat="60.4789696354" lon="32.6014281437"><ele>0.08</ele><time>2024-11-27T22:54:00Z</time></trkpt><trkpt lat="60.4789650254" lon="32.6014280599"><ele>0.06</ele><time>2024-11-27T22:54:32Z</time></trkpt><trkpt lat="60.4789730720" lon="32.6014335081"><ele>0.04</ele><time>2024-11-27T22:55:10Z</time></trkpt><trkpt lat="60.4789766762" lon="32.6014431473"><ele>0.05</ele><time>2024-11-27T22:55:47Z</time></trkpt><trkpt lat="60.4789791070" lon="32.6014382858"><ele>-3.48</ele><time>2024-11-27T22:56:06Z</time></trkpt><trkpt lat="60.4789793584" lon="32.6014382020"><ele>0.41</ele><time>2024-11-27T22:56:07Z</time></trkpt><trkpt lat="60.4789791070" lon="32.6014397107"><ele>3.82</ele><time>2024-11-27T22:56:08Z</time></trkpt><trkpt lat="60.4789786879" lon="32.6014410518"><ele>3.82</ele><time>2024-11-27T22:56:09Z</time></trkpt><trkpt lat="60.4789791070" lon="32.6014412194"><ele>0.69</ele><time>2024-11-27T22:56:11Z</time></trkpt><trkpt lat="60.4789794423" lon="32.6014407165"><ele>0.69</ele><time>2024-11-27T22:56:12Z</time></trkpt><trkpt lat="60.4789799452" lon="32.6014423929"><ele>-0.35</ele><time>2024-11-27T22:56:50Z</time></trkpt><trkpt lat="60.4789792746" lon="32.6014375314"><ele>-0.31</ele><time>2024-11-27T22:57:22Z</time></trkpt><trkpt lat="60.4789837170" lon="32.6014281437"><ele>0.98</ele><time>2024-11-27T22:57:55Z</time></trkpt><trkpt lat="60.4789852258" lon="32.6014099550"><ele>1.01</ele><time>2024-11-27T22:58:21Z</time></trkpt><trkpt lat="60.4789876565" lon="32.6014173310"><ele>1.04</ele><time>2024-11-27T22:58:51Z</time></trkpt><trkpt lat="60.4789861478" lon="32.6014147326"><ele>-8.62</ele><time>2024-11-27T22:59:00Z</time></trkpt><trkpt lat="60.4789855611" lon="32.6014150679"><ele>3.54</ele><time>2024-11-27T22:59:02Z</time></trkpt><trkpt lat="60.4789833818" lon="32.6014143974"><ele>3.54</ele><time>2024-11-27T22:59:03Z</time></trkpt><trkpt lat="60.4789815377" lon="32.6014164928"><ele>1.07</ele><time>2024-11-27T22:59:05Z</time></trkpt><trkpt lat="60.4789667856" lon="32.6013845578"><ele>-0.03</ele><time>2024-11-27T22:59:33Z</time></trkpt><trkpt lat="60.4789585713" lon="32.6013990585"><ele>0.01</ele><time>2024-11-27T23:00:06Z</time></trkpt><trkpt lat="60.4789579846" lon="32.6014014892"><ele>0.04</ele><time>2024-11-27T23:00:31Z</time></trkpt><trkpt lat="60.4789560568" lon="32.6013912633"><ele>0.10</ele><time>2024-11-27T23:00:57Z</time></trkpt><trkpt lat="60.4789544642" lon="32.6013392955"><ele>0.16</ele><time>2024-11-27T23:01:26Z</time></trkpt><trkpt lat="60.4789692163" lon="32.6013670396"><ele>5.23</ele><time>2024-11-27T23:01:39Z</time></trkpt><trkpt lat="60.4789722338" lon="32.6013728231"><ele>5.23</ele><time>2024-11-27T23:01:40Z</time></trkpt><trkpt lat="60.4789767601" lon="32.6013798639"><ele>2.33</ele><time>2024-11-27T23:01:42Z</time></trkpt><trkpt lat="60.4789792746" lon="32.6013853960"><ele>-3.59</ele><time>2024-11-27T23:02:04Z</time></trkpt><trkpt lat="60.4789797775" lon="32.6013861503"><ele>2.05</ele><time>2024-11-27T23:02:05Z</time></trkpt><trkpt lat="60.4789792746" lon="32.6013880782"><ele>3.07</ele><time>2024-11-27T23:02:07Z</time></trkpt><trkpt lat="60.4789776821" lon="32.6013881620"><ele>0.06</ele><time>2024-11-27T23:02:10Z</time></trkpt><trkpt lat="60.4789770953" lon="32.6013895869"><ele>0.06</ele><time>2024-11-27T23:02:11Z</time></trkpt><trkpt lat="60.4789769277" lon="32.6013898384"><ele>3.17</ele><time>2024-11-27T23:02:12Z</time></trkpt><trkpt lat="60.4789760057" lon="32.6013912633"><ele>3.17</ele><time>2024-11-27T23:02:13Z</time></trkpt><trkpt lat="60.4789675400" lon="32.6013924368"><ele>3.18</ele><time>2024-11-27T23:02:47Z</time></trkpt><trkpt lat="60.4789658636" lon="32.6013941132"><ele>3.17</ele><time>2024-11-27T23:03:23Z</time></trkpt><trkpt lat="60.4789778497" lon="32.6014067698"><ele>3.15</ele><time>2024-11-27T23:03:58Z</time></trkpt><trkpt lat="60.4789818730" lon="32.6013900898"><ele>3.13</ele><time>2024-11-27T23:04:25Z</time></trkpt><trkpt lat="60.4789869022" lon="32.6013915986"><ele>3.09</ele><time>2024-11-27T23:04:56Z</time></trkpt><trkpt lat="60.4789861478" lon="32.6013848931"><ele>6.00</ele><time>2024-11-27T23:05:07Z</time></trkpt><trkpt lat="60.4789856449" lon="32.6013839711"><ele>3.35</ele><time>2024-11-27T23:05:09Z</time></trkpt><trkpt lat="60.4789827112" lon="32.6013807859"><ele>3.30</ele><time>2024-11-27T23:05:41Z</time></trkpt><trkpt lat="60.4789776821" lon="32.6014020760"><ele>-10.46</ele><time>2024-11-27T23:05:59Z</time></trkpt><trkpt lat="60.4789774306" lon="32.6014029142"><ele>-7.43</ele><time>2024-11-27T23:06:00Z</time></trkpt><trkpt lat="60.4789764248" lon="32.6014033332"><ele>-0.63</ele><time>2024-11-27T23:06:01Z</time></trkpt><trkpt lat="60.4789765924" lon="32.6014038362"><ele>5.41</ele><time>2024-11-27T23:06:02Z</time></trkpt><trkpt lat="60.4789772630" lon="32.6014043391"><ele>5.42</ele><time>2024-11-27T23:06:03Z</time></trkpt><trkpt lat="60.4789781850" lon="32.6014087815"><ele>1.99</ele><time>2024-11-27T23:06:05Z</time></trkpt><trkpt lat="60.4789795261" lon="32.6014124695"><ele>1.99</ele><time>2024-11-27T23:06:06Z</time></trkpt><trkpt lat="60.4789739940" lon="32.6014430635"><ele>-1.45</ele><time>2024-11-27T23:06:19Z</time></trkpt><trkpt lat="60.4789660312" lon="32.6013833843"><ele>10.50</ele><time>2024-11-27T23:06:22Z</time></trkpt><trkpt lat="60.4789625946" lon="32.6013842225"><ele>6.46</ele><time>2024-11-27T23:06:23Z</time></trkpt><trkpt lat="60.4789596610" lon="32.6013911795"><ele>4.84</ele><time>2024-11-27T23:06:25Z</time></trkpt><trkpt lat="60.4789661150" lon="32.6013998967"><ele>-18.15</ele><time>2024-11-27T23:06:48Z</time></trkpt><trkpt lat="60.4789651092" lon="32.6013971306"><ele>-18.15</ele><time>2024-11-27T23:06:49Z</time></trkpt><trkpt lat="60.4789656121" lon="32.6013960410"><ele>3.49</ele><time>2024-11-27T23:06:50Z</time></trkpt><trkpt lat="60.4789695516" lon="32.6014020760"><ele>12.13</ele><time>2024-11-27T23:06:51Z</time></trkpt><trkpt lat="60.4789718986" lon="32.6014008187"><ele>6.03</ele><time>2024-11-27T23:06:54Z</time></trkpt><trkpt lat="60.4789725691" lon="32.6014038362"><ele>4.70</ele><time>2024-11-27T23:06:56Z</time></trkpt><trkpt lat="60.4789738264" lon="32.6013942808"><ele>-2.60</ele><time>2024-11-27T23:07:11Z</time></trkpt><trkpt lat="60.4789732397" lon="32.6013920177"><ele>-2.60</ele><time>2024-11-27T23:07:12Z</time></trkpt><trkpt lat="60.4789725691" lon="32.6013916824"><ele>-8.09</ele><time>2024-11-27T23:07:13Z</time></trkpt><trkpt lat="60.4789721500" lon="32.6013898384"><ele>0.95</ele><time>2024-11-27T23:07:14Z</time></trkpt><trkpt lat="60.4789717309" lon="32.6013928559"><ele>0.95</ele><time>2024-11-27T23:07:15Z</time></trkpt><trkpt lat="60.4789724015" lon="32.6013933588"><ele>7.40</ele><time>2024-11-27T23:07:16Z</time></trkpt><trkpt lat="60.4789734911" lon="32.6013926882"><ele>2.06</ele><time>2024-11-27T23:07:17Z</time></trkpt><trkpt lat="60.4789740779" lon="32.6013957057"><ele>5.42</ele><time>2024-11-27T23:07:18Z</time></trkpt><trkpt lat="60.4789739940" lon="32.6013944484"><ele>1.11</ele><time>2024-11-27T23:07:19Z</time></trkpt><trkpt lat="60.4789738264" lon="32.6013945322"><ele>4.55</ele><time>2024-11-27T23:07:22Z</time></trkpt><trkpt lat="60.4789755866" lon="32.6013979688"><ele>4.55</ele><time>2024-11-27T23:07:23Z</time></trkpt><trkpt lat="60.4789681267" lon="32.6014024112"><ele>0.42</ele><time>2024-11-27T23:07:26Z</time></trkpt><trkpt lat="60.4789677076" lon="32.6014073566"><ele>0.39</ele><time>2024-11-27T23:07:27Z</time></trkpt><trkpt lat="60.4789679591" lon="32.6014122181"><ele>-7.07</ele><time>2024-11-27T23:07:28Z</time></trkpt><trkpt lat="60.4789679591" lon="32.6014122181"><ele>5.83</ele><time>2024-11-27T23:07:29Z</time></trkpt><trkpt lat="60.4789693002" lon="32.6014131401"><ele>-6.73</ele><time>2024-11-27T23:07:30Z</time></trkpt><trkpt lat="60.4789698031" lon="32.6014146488"><ele>-19.32</ele><time>2024-11-27T23:07:31Z</time></trkpt><trkpt lat="60.4789761733" lon="32.6014130563"><ele>8.03</ele><time>2024-11-27T23:07:32Z</time></trkpt><trkpt lat="60.4789781850" lon="32.6014104579"><ele>18.96</ele><time>2024-11-27T23:07:33Z</time></trkpt><trkpt lat="60.4789804481" lon="32.6014103740"><ele>18.73</ele><time>2024-11-27T23:07:34Z</time></trkpt><trkpt lat="60.4789819568" lon="32.6014102902"><ele>-5.89</ele><time>2024-11-27T23:07:35Z</time></trkpt><trkpt lat="60.4789812863" lon="32.6014113799"><ele>-5.89</ele><time>2024-11-27T23:07:36Z</time></trkpt><trkpt lat="60.4789831303" lon="32.6014163252"><ele>6.19</ele><time>2024-11-27T23:07:38Z</time></trkpt><trkpt lat="60.4789848067" lon="32.6014200971"><ele>6.11</ele><time>2024-11-27T23:07:39Z</time></trkpt><trkpt lat="60.4789827112" lon="32.6014144812"><ele>14.15</ele><time>2024-11-27T23:07:41Z</time></trkpt><trkpt lat="60.4789786041" lon="32.6013999805"><ele>14.14</ele><time>2024-11-27T23:07:42Z</time></trkpt><trkpt lat="60.4789742455" lon="32.6013863180"><ele>-1.91</ele><time>2024-11-27T23:07:44Z</time></trkpt><trkpt lat="60.4789715633" lon="32.6013907604"><ele>-9.79</ele><time>2024-11-27T23:07:46Z</time></trkpt><trkpt lat="60.4789734911" lon="32.6013893355"><ele>-7.34</ele><time>2024-11-27T23:07:47Z</time></trkpt><trkpt lat="60.4789746646" lon="32.6013886649"><ele>4.26</ele><time>2024-11-27T23:07:49Z</time></trkpt><trkpt lat="60.4789760895" lon="32.6013827976"><ele>21.69</ele><time>2024-11-27T23:07:50Z</time></trkpt><trkpt lat="60.4789723177" lon="32.6013839711"><ele>6.72</ele><time>2024-11-27T23:07:51Z</time></trkpt><trkpt lat="60.4789697193" lon="32.6013843901"><ele>10.57</ele><time>2024-11-27T23:07:53Z</time></trkpt><trkpt lat="60.4789668694" lon="32.6013765950"><ele>10.57</ele><time>2024-11-27T23:07:54Z</time></trkpt><trkpt lat="60.4789575655" lon="32.6013796125"><ele>5.94</ele><time>2024-11-27T23:07:56Z</time></trkpt><trkpt lat="60.4789531231" lon="32.6013822109"><ele>0.06</ele><time>2024-11-27T23:07:57Z</time></trkpt><trkpt lat="60.4789511114" lon="32.6013845578"><ele>-5.66</ele><time>2024-11-27T23:07:58Z</time></trkpt><trkpt lat="60.4789511114" lon="32.6013845578"><ele>-5.75</ele><time>2024-11-27T23:07:59Z</time></trkpt><trkpt lat="60.4789514467" lon="32.6013852283"><ele>7.61</ele><time>2024-11-27T23:08:00Z</time></trkpt><trkpt lat="60.4789451603" lon="32.6013988908"><ele>-3.60</ele><time>2024-11-27T23:08:02Z</time></trkpt><trkpt lat="60.4789446574" lon="32.6014023274"><ele>3.15</ele><time>2024-11-27T23:08:03Z</time></trkpt><trkpt lat="60.4789395444" lon="32.6013843901"><ele>4.08</ele><time>2024-11-27T23:08:05Z</time></trkpt><trkpt lat="60.4789262172" lon="32.6013951190"><ele>0.01</ele><time>2024-11-27T23:08:12Z</time></trkpt><trkpt lat="60.4789257981" lon="32.6014021598"><ele>4.14</ele><time>2024-11-27T23:08:15Z</time></trkpt><trkpt lat="60.4789235350" lon="32.6014074404"><ele>4.14</ele><time>2024-11-27T23:08:16Z</time></trkpt><trkpt lat="60.4789228644" lon="32.6014088653"><ele>0.65</ele><time>2024-11-27T23:08:17Z</time></trkpt><trkpt lat="60.4789277259" lon="32.6014054287"><ele>0.65</ele><time>2024-11-27T23:08:18Z</time></trkpt><trkpt lat="60.4789330065" lon="32.6014056802"><ele>6.18</ele><time>2024-11-27T23:08:19Z</time></trkpt><trkpt lat="60.4789340962" lon="32.6014066860"><ele>5.88</ele><time>2024-11-27T23:08:20Z</time></trkpt><trkpt lat="60.4789324198" lon="32.6014075242"><ele>-2.11</ele><time>2024-11-27T23:08:21Z</time></trkpt><trkpt lat="60.4789313301" lon="32.6014044229"><ele>2.73</ele><time>2024-11-27T23:08:22Z</time></trkpt><trkpt lat="60.4789321683" lon="32.6014049258"><ele>-11.20</ele><time>2024-11-27T23:08:23Z</time></trkpt><trkpt lat="60.4789319169" lon="32.6014101226"><ele>10.97</ele><time>2024-11-27T23:08:24Z</time></trkpt><trkpt lat="60.4789348505" lon="32.6014035009"><ele>6.25</ele><time>2024-11-27T23:08:25Z</time></trkpt><trkpt lat="60.4789590742" lon="32.6013661176"><ele>2.90</ele><time>2024-11-27T23:08:31Z</time></trkpt><trkpt lat="60.4789619241" lon="32.6013569813"><ele>3.55</ele><time>2024-11-27T23:08:32Z</time></trkpt><trkpt lat="60.4789712280" lon="32.6013801992"><ele>-5.94</ele><time>2024-11-27T23:08:37Z</time></trkpt><trkpt lat="60.4789687134" lon="32.6013869047"><ele>-5.94</ele><time>2024-11-27T23:08:38Z</time></trkpt><trkpt lat="60.4789685458" lon="32.6013915986"><ele>5.21</ele><time>2024-11-27T23:08:39Z</time></trkpt><trkpt lat="60.4789687134" lon="32.6013910957"><ele>5.21</ele><time>2024-11-27T23:08:40Z</time></trkpt><trkpt lat="60.4789724015" lon="32.6013957057"><ele>3.91</ele><time>2024-11-27T23:08:42Z</time></trkpt><trkpt lat="60.4789772630" lon="32.6014258806"><ele>1.45</ele><time>2024-11-27T23:08:47Z</time></trkpt><trkpt lat="60.4789760057" lon="32.6015249547"><ele>1.49</ele><time>2024-11-27T23:09:08Z</time></trkpt><trkpt lat="60.4789597448" lon="32.6015480049"><ele>3.90</ele><time>2024-11-27T23:09:22Z</time></trkpt><trkpt lat="60.4789413884" lon="32.6015670318"><ele>1.41</ele><time>2024-11-27T23:09:30Z</time></trkpt><trkpt lat="60.4789210204" lon="32.6016469114"><ele>4.01</ele><time>2024-11-27T23:09:49Z</time></trkpt><trkpt lat="60.4788616765" lon="32.6017341670"><ele>3.92</ele><time>2024-11-27T23:10:10Z</time></trkpt><trkpt lat="60.4788482655" lon="32.6017619111"><ele>3.93</ele><time>2024-11-27T23:10:29Z</time></trkpt><trkpt lat="60.4788184259" lon="32.6018406171"><ele>4.76</ele><time>2024-11-27T23:10:51Z</time></trkpt><trkpt lat="60.4787990637" lon="32.6018709596"><ele>5.73</ele><time>2024-11-27T23:11:03Z</time></trkpt><trkpt lat="60.4787859879" lon="32.6018831134"><ele>2.61</ele><time>2024-11-27T23:11:08Z</time></trkpt><trkpt lat="60.4787879996" lon="32.6018835325"><ele>2.69</ele><time>2024-11-27T23:11:09Z</time></trkpt><trkpt lat="60.4787822161" lon="32.6018978655"><ele>5.54</ele><time>2024-11-27T23:11:14Z</time></trkpt><trkpt lat="60.4787409771" lon="32.6019446366"><ele>5.37</ele><time>2024-11-27T23:11:34Z</time></trkpt><trkpt lat="60.4787353612" lon="32.6019505877"><ele>3.25</ele><time>2024-11-27T23:11:38Z</time></trkpt><trkpt lat="60.4787293263" lon="32.6019630767"><ele>5.57</ele><time>2024-11-27T23:11:42Z</time></trkpt><trkpt lat="60.4786916077" lon="32.6019942574"><ele>5.53</ele><time>2024-11-27T23:12:00Z</time></trkpt><trkpt lat="60.4786406457" lon="32.6020416152"><ele>5.57</ele><time>2024-11-27T23:12:22Z</time></trkpt><trkpt lat="60.4785958026" lon="32.6020967681"><ele>3.33</ele><time>2024-11-27T23:12:45Z</time></trkpt><trkpt lat="60.4785947967" lon="32.6021022163"><ele>3.42</ele><time>2024-11-27T23:12:46Z</time></trkpt><trkpt lat="60.4785818886" lon="32.6021385100"><ele>5.81</ele><time>2024-11-27T23:12:56Z</time></trkpt><trkpt lat="60.4785590898" lon="32.6022032183"><ele>5.80</ele><time>2024-11-27T23:13:15Z</time></trkpt><trkpt lat="60.4785551503" lon="32.6022523362"><ele>5.78</ele><time>2024-11-27T23:13:34Z</time></trkpt><trkpt lat="60.4785698187" lon="32.6023112610"><ele>6.90</ele><time>2024-11-27T23:13:52Z</time></trkpt><trkpt lat="60.4785621911" lon="32.6023426931"><ele>4.35</ele><time>2024-11-27T23:14:01Z</time></trkpt><trkpt lat="60.4785616044" lon="32.6023465488"><ele>6.87</ele><time>2024-11-27T23:14:03Z</time></trkpt><trkpt lat="60.4785585869" lon="32.6024495624"><ele>6.74</ele><time>2024-11-27T23:14:23Z</time></trkpt><trkpt lat="60.4785248917" lon="32.6025167853"><ele>6.70</ele><time>2024-11-27T23:14:42Z</time></trkpt><trkpt lat="60.4784611892" lon="32.6025853492"><ele>6.80</ele><time>2024-11-27T23:15:03Z</time></trkpt><trkpt lat="60.4784125742" lon="32.6026198827"><ele>6.74</ele><time>2024-11-27T23:15:22Z</time></trkpt><trkpt lat="60.4783737659" lon="32.6026662346"><ele>6.85</ele><time>2024-11-27T23:15:41Z</time></trkpt><trkpt lat="60.4783599358" lon="32.6026967447"><ele>2.69</ele><time>2024-11-27T23:15:47Z</time></trkpt><trkpt lat="60.4783551581" lon="32.6027007680"><ele>5.75</ele><time>2024-11-27T23:15:48Z</time></trkpt><trkpt lat="60.4783502128" lon="32.6027088147"><ele>7.56</ele><time>2024-11-27T23:15:50Z</time></trkpt><trkpt lat="60.4783171881" lon="32.6027973276"><ele>7.39</ele><time>2024-11-27T23:16:09Z</time></trkpt><trkpt lat="60.4782834928" lon="32.6029399037"><ele>7.15</ele><time>2024-11-27T23:16:30Z</time></trkpt><trkpt lat="60.4782805592" lon="32.6029399876"><ele>5.14</ele><time>2024-11-27T23:16:32Z</time></trkpt><trkpt lat="60.4782313574" lon="32.6030512154"><ele>5.13</ele><time>2024-11-27T23:16:53Z</time></trkpt><trkpt lat="60.4782021884" lon="32.6031097211"><ele>5.01</ele><time>2024-11-27T23:17:12Z</time></trkpt><trkpt lat="60.4781681579" lon="32.6031864155"><ele>5.08</ele><time>2024-11-27T23:17:30Z</time></trkpt><trkpt lat="60.4781237338" lon="32.6032985654"><ele>5.05</ele><time>2024-11-27T23:17:50Z</time></trkpt><trkpt lat="60.4780923855" lon="32.6032943744"><ele>8.51</ele><time>2024-11-27T23:18:05Z</time></trkpt><trkpt lat="60.4780918825" lon="32.6033026725"><ele>8.51</ele><time>2024-11-27T23:18:06Z</time></trkpt><trkpt lat="60.4780758731" lon="32.6033185143"><ele>6.00</ele><time>2024-11-27T23:18:14Z</time></trkpt><trkpt lat="60.4779809900" lon="32.6034158282"><ele>6.18</ele><time>2024-11-27T23:18:36Z</time></trkpt><trkpt lat="60.4779296089" lon="32.6034526248"><ele>8.01</ele><time>2024-11-27T23:18:56Z</time></trkpt><trkpt lat="60.4779177904" lon="32.6034848951"><ele>7.98</ele><time>2024-11-27T23:19:21Z</time></trkpt><trkpt lat="60.4779092409" lon="32.6034693886"><ele>1.02</ele><time>2024-11-27T23:19:48Z</time></trkpt><trkpt lat="60.4779070616" lon="32.6034706458"><ele>-17.18</ele><time>2024-11-27T23:19:49Z</time></trkpt><trkpt lat="60.4779042117" lon="32.6034691371"><ele>-1.32</ele><time>2024-11-27T23:19:50Z</time></trkpt><trkpt lat="60.4778996017" lon="32.6034740824"><ele>8.44</ele><time>2024-11-27T23:19:52Z</time></trkpt><trkpt lat="60.4778969195" lon="32.6034760103"><ele>9.62</ele><time>2024-11-27T23:19:54Z</time></trkpt><trkpt lat="60.4778920580" lon="32.6034785248"><ele>7.15</ele><time>2024-11-27T23:19:59Z</time></trkpt><trkpt lat="60.4778825864" lon="32.6034847274"><ele>5.73</ele><time>2024-11-27T23:20:04Z</time></trkpt><trkpt lat="60.4778786469" lon="32.6034749206"><ele>2.92</ele><time>2024-11-27T23:20:11Z</time></trkpt><trkpt lat="60.4778848495" lon="32.6034709811"><ele>12.31</ele><time>2024-11-27T23:20:12Z</time></trkpt><trkpt lat="60.4778876994" lon="32.6034682989"><ele>12.14</ele><time>2024-11-27T23:20:13Z</time></trkpt><trkpt lat="60.4778897949" lon="32.6034656167"><ele>8.11</ele><time>2024-11-27T23:20:14Z</time></trkpt><trkpt lat="60.4778908845" lon="32.6034677122"><ele>8.03</ele><time>2024-11-27T23:20:15Z</time></trkpt><trkpt lat="60.4779174551" lon="32.6034306642"><ele>7.07</ele><time>2024-11-27T23:20:39Z</time></trkpt><trkpt lat="60.4779202212" lon="32.6034518704"><ele>4.85</ele><time>2024-11-27T23:21:10Z</time></trkpt><trkpt lat="60.4779180419" lon="32.6034583244"><ele>7.18</ele><time>2024-11-27T23:21:17Z</time></trkpt><trkpt lat="60.4779136833" lon="32.6034874097"><ele>7.97</ele><time>2024-11-27T23:21:54Z</time></trkpt><trkpt lat="60.4779137671" lon="32.6034868229"><ele>5.54</ele><time>2024-11-27T23:22:24Z</time></trkpt><trkpt lat="60.4779187962" lon="32.6034865715"><ele>5.47</ele><time>2024-11-27T23:23:00Z</time></trkpt><trkpt lat="60.4779185448" lon="32.6034770999"><ele>5.40</ele><time>2024-11-27T23:23:36Z</time></trkpt><trkpt lat="60.4779178742" lon="32.6034631860"><ele>5.32</ele><time>2024-11-27T23:24:11Z</time></trkpt><trkpt lat="60.4779104982" lon="32.6034535468"><ele>4.28</ele><time>2024-11-27T23:24:45Z</time></trkpt><trkpt lat="60.4779253341" lon="32.6034413930"><ele>4.18</ele><time>2024-11-27T23:25:17Z</time></trkpt><trkpt lat="60.4779395834" lon="32.6034598332"><ele>4.10</ele><time>2024-11-27T23:25:46Z</time></trkpt><trkpt lat="60.4779371526" lon="32.6034446619"><ele>5.70</ele><time>2024-11-27T23:26:12Z</time></trkpt><trkpt lat="60.4779307824" lon="32.6034443267"><ele>-0.21</ele><time>2024-11-27T23:26:19Z</time></trkpt><trkpt lat="60.4779282678" lon="32.6034433208"><ele>-0.21</ele><time>2024-11-27T23:26:20Z</time></trkpt><trkpt lat="60.4779266752" lon="32.6034402195"><ele>2.26</ele><time>2024-11-27T23:26:22Z</time></trkpt><trkpt lat="60.4779195506" lon="32.6034473442"><ele>5.68</ele><time>2024-11-27T23:26:36Z</time></trkpt><trkpt lat="60.4779164493" lon="32.6034620125"><ele>4.46</ele><time>2024-11-27T23:26:40Z</time></trkpt><trkpt lat="60.4779149406" lon="32.6034534629"><ele>1.41</ele><time>2024-11-27T23:26:46Z</time></trkpt><trkpt lat="60.4779130127" lon="32.6034466736"><ele>-3.50</ele><time>2024-11-27T23:26:48Z</time></trkpt><trkpt lat="60.4779097438" lon="32.6034455001"><ele>-3.57</ele><time>2024-11-27T23:26:49Z</time></trkpt><trkpt lat="60.4779084027" lon="32.6034448296"><ele>-0.39</ele><time>2024-11-27T23:26:51Z</time></trkpt><trkpt lat="60.4779075645" lon="32.6034424827"><ele>0.66</ele><time>2024-11-27T23:26:53Z</time></trkpt><trkpt lat="60.4779099952" lon="32.6034442428"><ele>-4.37</ele><time>2024-11-27T23:26:56Z</time></trkpt><trkpt lat="60.4779120907" lon="32.6034419797"><ele>-1.49</ele><time>2024-11-27T23:26:57Z</time></trkpt><trkpt lat="60.4779164493" lon="32.6034375373"><ele>5.21</ele><time>2024-11-27T23:26:59Z</time></trkpt><trkpt lat="60.4779172037" lon="32.6034330111"><ele>12.38</ele><time>2024-11-27T23:27:00Z</time></trkpt><trkpt lat="60.4779183771" lon="32.6034289040"><ele>12.33</ele><time>2024-11-27T23:27:01Z</time></trkpt><trkpt lat="60.4779206403" lon="32.6034273114"><ele>9.01</ele><time>2024-11-27T23:27:02Z</time></trkpt><trkpt lat="60.4779191315" lon="32.6034475118"><ele>5.09</ele><time>2024-11-27T23:27:04Z</time></trkpt><trkpt lat="60.4779157788" lon="32.6034513675"><ele>4.18</ele><time>2024-11-27T23:27:06Z</time></trkpt><trkpt lat="60.4779245798" lon="32.6034512836"><ele>3.64</ele><time>2024-11-27T23:27:30Z</time></trkpt><trkpt lat="60.4779364821" lon="32.6034285687"><ele>2.77</ele><time>2024-11-27T23:27:59Z</time></trkpt><trkpt lat="60.4779914673" lon="32.6033087913"><ele>2.71</ele><time>2024-11-27T23:28:25Z</time></trkpt><trkpt lat="60.4780451953" lon="32.6031785365"><ele>2.67</ele><time>2024-11-27T23:28:50Z</time></trkpt><trkpt lat="60.4780600313" lon="32.6031113137"><ele>2.53</ele><time>2024-11-27T23:29:14Z</time></trkpt><trkpt lat="60.4780910444" lon="32.6030650456"><ele>2.47</ele><time>2024-11-27T23:29:36Z</time></trkpt><trkpt lat="60.4781019408" lon="32.6030081324"><ele>2.38</ele><time>2024-11-27T23:29:57Z</time></trkpt><trkpt lat="60.4781410843" lon="32.6029728446"><ele>2.33</ele><time>2024-11-27T23:30:23Z</time></trkpt><trkpt lat="60.4781665653" lon="32.6029263251"><ele>2.22</ele><time>2024-11-27T23:30:42Z</time></trkpt><trkpt lat="60.4782015178" lon="32.6028643828"><ele>2.19</ele><time>2024-11-27T23:31:03Z</time></trkpt><trkpt lat="60.4782336205" lon="32.6028166059"><ele>-1.64</ele><time>2024-11-27T23:31:25Z</time></trkpt><trkpt lat="60.4782330338" lon="32.6028148457"><ele>3.59</ele><time>2024-11-27T23:31:26Z</time></trkpt><trkpt lat="60.4782335367" lon="32.6028125826"><ele>3.59</ele><time>2024-11-27T23:31:27Z</time></trkpt><trkpt lat="60.4782399908" lon="32.6027997583"><ele>5.60</ele><time>2024-11-27T23:31:30Z</time></trkpt><trkpt lat="60.4782817326" lon="32.6027350500"><ele>5.51</ele><time>2024-11-27T23:31:54Z</time></trkpt><trkpt lat="60.4783250671" lon="32.6026521530"><ele>5.37</ele><time>2024-11-27T23:32:18Z</time></trkpt><trkpt lat="60.4783636238" lon="32.6025709324"><ele>5.32</ele><time>2024-11-27T23:32:42Z</time></trkpt><trkpt lat="60.4783780407" lon="32.6025363989"><ele>2.65</ele><time>2024-11-27T23:32:59Z</time></trkpt><trkpt lat="60.4783817288" lon="32.6025334653"><ele>4.94</ele><time>2024-11-27T23:33:03Z</time></trkpt><trkpt lat="60.4784198664" lon="32.6024910528"><ele>4.83</ele><time>2024-11-27T23:33:30Z</time></trkpt><trkpt lat="60.4790442344" lon="32.6013545506"><ele>5.41</ele><time>2024-11-27T23:43:34Z</time></trkpt><trkpt lat="60.4790439829" lon="32.6013509464"><ele>2.38</ele><time>2024-11-27T23:43:37Z</time></trkpt><trkpt lat="60.4790436476" lon="32.6013501082"><ele>2.38</ele><time>2024-11-27T23:43:38Z</time></trkpt><trkpt lat="60.4790472519" lon="32.6013566460"><ele>2.37</ele><time>2024-11-27T23:43:47Z</time></trkpt><trkpt lat="60.4790656082" lon="32.6013699733"><ele>0.04</ele><time>2024-11-27T23:45:13Z</time></trkpt><trkpt lat="60.4932886921" lon="32.5880448427"><ele>-1.06</ele><time>2024-11-28T02:02:41Z</time></trkpt><trkpt lat="60.4933659732" lon="32.5877395738"><ele>-3.78</ele><time>2024-11-28T02:03:25Z</time></trkpt><trkpt lat="60.4933089763" lon="32.5876042899"><ele>-3.64</ele><time>2024-11-28T02:03:53Z</time></trkpt></trkseg><trkseg><trkpt lat="60.1183582004" lon="32.3205763008"><ele>-18.11</ele><time>2024-12-01T05:34:01Z</time></trkpt><trkpt lat="60.1185664907" lon="32.3199600633"><ele>-21.13</ele><time>2024-12-01T05:37:15Z</time></trkpt><trkpt lat="60.1185672451" lon="32.3202541843"><ele>-21.58</ele><time>2024-12-01T05:37:35Z</time></trkpt><trkpt lat="60.1185796503" lon="32.3203477263"><ele>-22.45</ele><time>2024-12-01T05:38:20Z</time></trkpt><trkpt lat="60.1185246650" lon="32.3196825385"><ele>-23.21</ele><time>2024-12-01T05:39:08Z</time></trkpt><trkpt lat="60.1185070630" lon="32.3195474222"><ele>-24.12</ele><time>2024-12-01T05:39:20Z</time></trkpt><trkpt lat="60.1183883753" lon="32.3198013101"><ele>-24.63</ele><time>2024-12-01T05:40:05Z</time></trkpt><trkpt lat="60.1183130220" lon="32.3211083002"><ele>-24.72</ele><time>2024-12-01T05:41:33Z</time></trkpt><trkpt lat="60.1183244213" lon="32.3213610984"><ele>-24.51</ele><time>2024-12-01T05:42:10Z</time></trkpt><trkpt lat="60.1183173805" lon="32.3214632738"><ele>-24.52</ele><time>2024-12-01T05:42:14Z</time></trkpt><trkpt lat="60.1183656603" lon="32.3213001620"><ele>-24.37</ele><time>2024-12-01T05:42:41Z</time></trkpt><trkpt lat="60.1184337214" lon="32.3210786283"><ele>-24.10</ele><time>2024-12-01T05:43:12Z</time></trkpt><trkpt lat="60.1183889620" lon="32.3211371340"><ele>-23.24</ele><time>2024-12-01T05:44:32Z</time></trkpt><trkpt lat="60.1183839329" lon="32.3211022653"><ele>-23.24</ele><time>2024-12-01T05:44:35Z</time></trkpt><trkpt lat="60.1183789037" lon="32.3210290074"><ele>-23.19</ele><time>2024-12-01T05:44:40Z</time></trkpt><trkpt lat="60.1183778979" lon="32.3210000899"><ele>-23.17</ele><time>2024-12-01T05:44:42Z</time></trkpt><trkpt lat="60.1183571946" lon="32.3209580965"><ele>-23.10</ele><time>2024-12-01T05:44:49Z</time></trkpt><trkpt lat="60.1183552667" lon="32.3209321126"><ele>-23.08</ele><time>2024-12-01T05:44:51Z</time></trkpt><trkpt lat="60.1183412690" lon="32.3208617885"><ele>-23.00</ele><time>2024-12-01T05:44:57Z</time></trkpt><trkpt lat="60.1183540933" lon="32.3210276663"><ele>-22.72</ele><time>2024-12-01T05:45:29Z</time></trkpt><trkpt lat="60.1183730364" lon="32.3209282570"><ele>-22.39</ele><time>2024-12-01T05:45:59Z</time></trkpt><trkpt lat="60.1183786523" lon="32.3209784646"><ele>-22.04</ele><time>2024-12-01T05:46:31Z</time></trkpt><trkpt lat="60.1184326317" lon="32.3209162708"><ele>-21.69</ele><time>2024-12-01T05:47:03Z</time></trkpt><trkpt lat="60.1184333861" lon="32.3209528998"><ele>-21.37</ele><time>2024-12-01T05:47:37Z</time></trkpt><trkpt lat="60.1184312906" lon="32.3209225573"><ele>-21.14</ele><time>2024-12-01T05:48:07Z</time></trkpt><trkpt lat="60.1184103359" lon="32.3208673205"><ele>-21.65</ele><time>2024-12-01T05:48:38Z</time></trkpt><trkpt lat="60.1184816658" lon="32.3207877763"><ele>-21.30</ele><time>2024-12-01T05:49:20Z</time></trkpt><trkpt lat="60.1184842642" lon="32.3205712717"><ele>-20.91</ele><time>2024-12-01T05:50:13Z</time></trkpt><trkpt lat="60.1185213123" lon="32.3204667494"><ele>-20.66</ele><time>2024-12-01T05:50:44Z</time></trkpt><trkpt lat="60.1184657402" lon="32.3204545118"><ele>-20.40</ele><time>2024-12-01T05:51:19Z</time></trkpt><trkpt lat="60.1184513234" lon="32.3205187172"><ele>-20.07</ele><time>2024-12-01T05:52:00Z</time></trkpt><trkpt lat="60.1184232440" lon="32.3207331263"><ele>-19.87</ele><time>2024-12-01T05:52:31Z</time></trkpt><trkpt lat="60.1183872018" lon="32.3208059650"><ele>-19.66</ele><time>2024-12-01T05:53:02Z</time></trkpt><trkpt lat="60.1184032112" lon="32.3208228126"><ele>-19.29</ele><time>2024-12-01T05:53:52Z</time></trkpt><trkpt lat="60.1184084080" lon="32.3208649736"><ele>-19.06</ele><time>2024-12-01T05:54:28Z</time></trkpt><trkpt lat="60.1183714438" lon="32.3209546600"><ele>-18.77</ele><time>2024-12-01T05:55:13Z</time></trkpt><trkpt lat="60.1183925662" lon="32.3209145945"><ele>-18.58</ele><time>2024-12-01T05:55:44Z</time></trkpt><trkpt lat="60.1184276864" lon="32.3207950685"><ele>-18.38</ele><time>2024-12-01T05:56:14Z</time></trkpt><trkpt lat="60.1184274349" lon="32.3206919711"><ele>-18.20</ele><time>2024-12-01T05:56:49Z</time></trkpt><trkpt lat="60.1183677558" lon="32.3207359761"><ele>-17.90</ele><time>2024-12-01T05:57:49Z</time></trkpt><trkpt lat="60.1183823403" lon="32.3206001893"><ele>-17.82</ele><time>2024-12-01T05:58:19Z</time></trkpt><trkpt lat="60.1183986850" lon="32.3205566034"><ele>-17.73</ele><time>2024-12-01T05:58:54Z</time></trkpt><trkpt lat="60.1184231602" lon="32.3205995187"><ele>-17.68</ele><time>2024-12-01T05:59:26Z</time></trkpt><trkpt lat="60.1183986012" lon="32.3207327910"><ele>-17.63</ele><time>2024-12-01T06:00:01Z</time></trkpt><trkpt lat="60.1183241699" lon="32.3210927099"><ele>-17.60</ele><time>2024-12-01T06:00:44Z</time></trkpt><trkpt lat="60.1183230802" lon="32.3210428376"><ele>-17.61</ele><time>2024-12-01T06:01:36Z</time></trkpt><trkpt lat="60.1183049753" lon="32.3209772073"><ele>-17.60</ele><time>2024-12-01T06:01:46Z</time></trkpt><trkpt lat="60.1183360722" lon="32.3208070546"><ele>-17.62</ele><time>2024-12-01T06:01:58Z</time></trkpt><trkpt lat="60.1183762215" lon="32.3207588587"><ele>-17.66</ele><time>2024-12-01T06:02:32Z</time></trkpt><trkpt lat="60.1183868665" lon="32.3207885306"><ele>-17.76</ele><time>2024-12-01T06:03:02Z</time></trkpt><trkpt lat="60.1183845196" lon="32.3208382353"><ele>-17.89</ele><time>2024-12-01T06:03:30Z</time></trkpt><trkpt lat="60.1183985174" lon="32.3207661510"><ele>-17.98</ele><time>2024-12-01T06:04:04Z</time></trkpt><trkpt lat="60.1184114255" lon="32.3207616247"><ele>-18.10</ele><time>2024-12-01T06:04:34Z</time></trkpt><trkpt lat="60.1184178796" lon="32.3207585234"><ele>-18.21</ele><time>2024-12-01T06:05:03Z</time></trkpt><trkpt lat="60.1183421072" lon="32.3209475353"><ele>-18.31</ele><time>2024-12-01T06:05:37Z</time></trkpt><trkpt lat="60.1183651574" lon="32.3209765367"><ele>-18.41</ele><time>2024-12-01T06:06:07Z</time></trkpt><trkpt lat="60.1184223220" lon="32.3209128343"><ele>-18.55</ele><time>2024-12-01T06:06:41Z</time></trkpt><trkpt lat="60.1184411813" lon="32.3208524007"><ele>-18.71</ele><time>2024-12-01T06:07:13Z</time></trkpt><trkpt lat="60.1184646506" lon="32.3206879478"><ele>-18.85</ele><time>2024-12-01T06:07:43Z</time></trkpt><trkpt lat="60.1184468810" lon="32.3205946572"><ele>-19.04</ele><time>2024-12-01T06:08:15Z</time></trkpt><trkpt lat="60.1184349786" lon="32.3206403386"><ele>-19.17</ele><time>2024-12-01T06:08:46Z</time></trkpt><trkpt lat="60.1184456237" lon="32.3206676636"><ele>-19.34</ele><time>2024-12-01T06:09:17Z</time></trkpt><trkpt lat="60.1184312906" lon="32.3207117524"><ele>-19.50</ele><time>2024-12-01T06:09:48Z</time></trkpt><trkpt lat="60.1183980983" lon="32.3207638040"><ele>-19.64</ele><time>2024-12-01T06:10:14Z</time></trkpt><trkpt lat="60.1183876209" lon="32.3207629658"><ele>-19.82</ele><time>2024-12-01T06:10:50Z</time></trkpt><trkpt lat="60.1183896326" lon="32.3207259178"><ele>-19.94</ele><time>2024-12-01T06:11:22Z</time></trkpt><trkpt lat="60.1183983497" lon="32.3207287677"><ele>-20.05</ele><time>2024-12-01T06:11:54Z</time></trkpt><trkpt lat="60.1183852740" lon="32.3207340483"><ele>-20.10</ele><time>2024-12-01T06:12:22Z</time></trkpt><trkpt lat="60.1184172090" lon="32.3206719384"><ele>-20.14</ele><time>2024-12-01T06:12:52Z</time></trkpt><trkpt lat="60.1184208971" lon="32.3206912167"><ele>-20.15</ele><time>2024-12-01T06:13:24Z</time></trkpt><trkpt lat="60.1184501499" lon="32.3206793144"><ele>-20.14</ele><time>2024-12-01T06:13:56Z</time></trkpt><trkpt lat="60.1184402592" lon="32.3206041288"><ele>-20.15</ele><time>2024-12-01T06:14:36Z</time></trkpt><trkpt lat="60.1184339728" lon="32.3205846827"><ele>-20.18</ele><time>2024-12-01T06:15:11Z</time></trkpt><trkpt lat="60.1184037142" lon="32.3206723575"><ele>-20.30</ele><time>2024-12-01T06:15:40Z</time></trkpt><trkpt lat="60.1183658279" lon="32.3207934760"><ele>-20.29</ele><time>2024-12-01T06:16:11Z</time></trkpt><trkpt lat="60.1183553506" lon="32.3208006844"><ele>-20.34</ele><time>2024-12-01T06:16:39Z</time></trkpt><trkpt lat="60.1183557697" lon="32.3207772989"><ele>-20.40</ele><time>2024-12-01T06:17:10Z</time></trkpt><trkpt lat="60.1183768082" lon="32.3207276780"><ele>-20.45</ele><time>2024-12-01T06:17:38Z</time></trkpt><trkpt lat="60.1183929853" lon="32.3206517380"><ele>-20.52</ele><time>2024-12-01T06:18:11Z</time></trkpt><trkpt lat="60.1184132695" lon="32.3206799012"><ele>-20.61</ele><time>2024-12-01T06:18:46Z</time></trkpt><trkpt lat="60.1184543408" lon="32.3207229003"><ele>-20.82</ele><time>2024-12-01T06:20:11Z</time></trkpt><trkpt lat="60.1184675004" lon="32.3207099084"><ele>-20.88</ele><time>2024-12-01T06:20:33Z</time></trkpt><trkpt lat="60.1184861921" lon="32.3206382431"><ele>-20.94</ele><time>2024-12-01T06:21:01Z</time></trkpt><trkpt lat="60.1185358129" lon="32.3205251712"><ele>-20.97</ele><time>2024-12-01T06:21:36Z</time></trkpt><trkpt lat="60.1184174605" lon="32.3208595254"><ele>-20.93</ele><time>2024-12-01T06:21:57Z</time></trkpt><trkpt lat="60.1183504891" lon="32.3210775387"><ele>-20.65</ele><time>2024-12-01T06:22:28Z</time></trkpt><trkpt lat="60.1183376648" lon="32.3211569991"><ele>-20.29</ele><time>2024-12-01T06:22:57Z</time></trkpt><trkpt lat="60.1183397602" lon="32.3212176841"><ele>-19.96</ele><time>2024-12-01T06:23:23Z</time></trkpt><trkpt lat="60.1183128543" lon="32.3212297540"><ele>-19.53</ele><time>2024-12-01T06:23:53Z</time></trkpt><trkpt lat="60.1183414366" lon="32.3212303407"><ele>-19.04</ele><time>2024-12-01T06:24:27Z</time></trkpt><trkpt lat="60.1183517464" lon="32.3212093022"><ele>-18.22</ele><time>2024-12-01T06:25:24Z</time></trkpt><trkpt lat="60.1183478907" lon="32.3212348670"><ele>-17.81</ele><time>2024-12-01T06:25:56Z</time></trkpt><trkpt lat="60.1183394250" lon="32.3212512955"><ele>-17.45</ele><time>2024-12-01T06:26:25Z</time></trkpt><trkpt lat="60.1183417719" lon="32.3210996669"><ele>-17.01</ele><time>2024-12-01T06:27:02Z</time></trkpt><trkpt lat="60.1183349825" lon="32.3210384790"><ele>-16.58</ele><time>2024-12-01T06:27:33Z</time></trkpt><trkpt lat="60.1182863675" lon="32.3210328631"><ele>-16.22</ele><time>2024-12-01T06:28:04Z</time></trkpt><trkpt lat="60.1182497386" lon="32.3210664745"><ele>-15.94</ele><time>2024-12-01T06:28:30Z</time></trkpt><trkpt lat="60.1182494871" lon="32.3210682347"><ele>-15.61</ele><time>2024-12-01T06:28:58Z</time></trkpt><trkpt lat="60.1182830986" lon="32.3210696597"><ele>-15.28</ele><time>2024-12-01T06:29:28Z</time></trkpt><trkpt lat="60.1182703581" lon="32.3210948892"><ele>-15.00</ele><time>2024-12-01T06:29:53Z</time></trkpt><trkpt lat="60.1182551868" lon="32.3211258184"><ele>-14.70</ele><time>2024-12-01T06:30:21Z</time></trkpt><trkpt lat="60.1182726212" lon="32.3211251479"><ele>-14.38</ele><time>2024-12-01T06:30:55Z</time></trkpt><trkpt lat="60.1182840206" lon="32.3211077135"><ele>-13.95</ele><time>2024-12-01T06:31:43Z</time></trkpt><trkpt lat="60.1183016226" lon="32.3212033510"><ele>-13.68</ele><time>2024-12-01T06:32:12Z</time></trkpt><trkpt lat="60.1183076575" lon="32.3212621082"><ele>-13.47</ele><time>2024-12-01T06:32:41Z</time></trkpt><trkpt lat="60.1183479745" lon="32.3212847393"><ele>-13.26</ele><time>2024-12-01T06:33:10Z</time></trkpt><trkpt lat="60.1183446217" lon="32.3213484418"><ele>-13.07</ele><time>2024-12-01T06:33:39Z</time></trkpt><trkpt lat="60.1183121838" lon="32.3213217035"><ele>-12.86</ele><time>2024-12-01T06:34:11Z</time></trkpt><trkpt lat="60.1183044724" lon="32.3211621121"><ele>-12.61</ele><time>2024-12-01T06:34:45Z</time></trkpt><trkpt lat="60.1182597969" lon="32.3210462742"><ele>-12.19</ele><time>2024-12-01T06:35:34Z</time></trkpt><trkpt lat="60.1182344835" lon="32.3210587632"><ele>-11.91</ele><time>2024-12-01T06:36:04Z</time></trkpt><trkpt lat="60.1182183065" lon="32.3210869264"><ele>-11.61</ele><time>2024-12-01T06:36:34Z</time></trkpt><trkpt lat="60.1182691846" lon="32.3210168537"><ele>-11.15</ele><time>2024-12-01T06:37:23Z</time></trkpt><trkpt lat="60.1183161233" lon="32.3209383991"><ele>-10.85</ele><time>2024-12-01T06:37:59Z</time></trkpt><trkpt lat="60.1183909737" lon="32.3208694998"><ele>-10.65</ele><time>2024-12-01T06:38:24Z</time></trkpt><trkpt lat="60.1184118446" lon="32.3208078090"><ele>-10.45</ele><time>2024-12-01T06:38:46Z</time></trkpt><trkpt lat="60.1184860244" lon="32.3207452800"><ele>-10.12</ele><time>2024-12-01T06:39:19Z</time></trkpt><trkpt lat="60.1183581166" lon="32.3209957313"><ele>-9.06</ele><time>2024-12-01T06:40:54Z</time></trkpt><trkpt lat="60.1183614694" lon="32.3209827393"><ele>-9.01</ele><time>2024-12-01T06:40:58Z</time></trkpt><trkpt lat="60.1183711085" lon="32.3207130097"><ele>-8.68</ele><time>2024-12-01T06:41:27Z</time></trkpt><trkpt lat="60.1183903031" lon="32.3207732756"><ele>-8.50</ele><time>2024-12-01T06:41:44Z</time></trkpt><trkpt lat="60.1184594538" lon="32.3207475431"><ele>-8.35</ele><time>2024-12-01T06:42:02Z</time></trkpt><trkpt lat="60.1184913050" lon="32.3207529075"><ele>-8.22</ele><time>2024-12-01T06:42:18Z</time></trkpt><trkpt lat="60.1185126789" lon="32.3206964135"><ele>-8.03</ele><time>2024-12-01T06:42:45Z</time></trkpt><trkpt lat="60.1185006090" lon="32.3205663264"><ele>-7.90</ele><time>2024-12-01T06:43:05Z</time></trkpt><trkpt lat="60.1184888743" lon="32.3205794021"><ele>-7.86</ele><time>2024-12-01T06:43:22Z</time></trkpt><trkpt lat="60.1184550114" lon="32.3205267638"><ele>-7.81</ele><time>2024-12-01T06:43:38Z</time></trkpt><trkpt lat="60.1184470486" lon="32.3205426894"><ele>-7.75</ele><time>2024-12-01T06:44:02Z</time></trkpt><trkpt lat="60.1183823403" lon="32.3207433522"><ele>-7.60</ele><time>2024-12-01T06:44:49Z</time></trkpt><trkpt lat="60.1183463819" lon="32.3207799811"><ele>-7.55</ele><time>2024-12-01T06:45:00Z</time></trkpt><trkpt lat="60.1182426978" lon="32.3208763730"><ele>-7.37</ele><time>2024-12-01T06:45:49Z</time></trkpt><trkpt lat="60.1182983536" lon="32.3210003413"><ele>-7.29</ele><time>2024-12-01T06:46:12Z</time></trkpt><trkpt lat="60.1183751319" lon="32.3209295981"><ele>-7.01</ele><time>2024-12-01T06:47:05Z</time></trkpt><trkpt lat="60.1183126867" lon="32.3210210446"><ele>-6.84</ele><time>2024-12-01T06:47:32Z</time></trkpt><trkpt lat="60.1182986051" lon="32.3210133333"><ele>-6.78</ele><time>2024-12-01T06:47:45Z</time></trkpt><trkpt lat="60.1183112618" lon="32.3210735992"><ele>-6.70</ele><time>2024-12-01T06:48:02Z</time></trkpt><trkpt lat="60.1183155365" lon="32.3211939633"><ele>-6.62</ele><time>2024-12-01T06:48:20Z</time></trkpt><trkpt lat="60.1183426101" lon="32.3211759422"><ele>-6.53</ele><time>2024-12-01T06:48:35Z</time></trkpt><trkpt lat="60.1183566917" lon="32.3211974837"><ele>-6.42</ele><time>2024-12-01T06:48:57Z</time></trkpt><trkpt lat="60.1183499023" lon="32.3211186100"><ele>-6.34</ele><time>2024-12-01T06:49:18Z</time></trkpt><trkpt lat="60.1183132734" lon="32.3210287560"><ele>-6.23</ele><time>2024-12-01T06:49:45Z</time></trkpt><trkpt lat="60.1183334738" lon="32.3209845833"><ele>-6.13</ele><time>2024-12-01T06:50:11Z</time></trkpt><trkpt lat="60.1183103397" lon="32.3210359644"><ele>-6.04</ele><time>2024-12-01T06:50:38Z</time></trkpt><trkpt lat="60.1183613017" lon="32.3208668176"><ele>-5.75</ele><time>2024-12-01T06:51:54Z</time></trkpt><trkpt lat="60.1183467172" lon="32.3208477907"><ele>-5.62</ele><time>2024-12-01T06:52:21Z</time></trkpt><trkpt lat="60.1183634810" lon="32.3208068032"><ele>-5.52</ele><time>2024-12-01T06:52:38Z</time></trkpt><trkpt lat="60.1183775626" lon="32.3207831662"><ele>-5.44</ele><time>2024-12-01T06:52:52Z</time></trkpt><trkpt lat="60.1183713600" lon="32.3208316974"><ele>-5.32</ele><time>2024-12-01T06:53:08Z</time></trkpt><trkpt lat="60.1183690969" lon="32.3208108265"><ele>-5.23</ele><time>2024-12-01T06:53:20Z</time></trkpt><trkpt lat="60.1183648221" lon="32.3208000977"><ele>-5.17</ele><time>2024-12-01T06:53:31Z</time></trkpt><trkpt lat="60.1183552667" lon="32.3208396602"><ele>-5.09</ele><time>2024-12-01T06:53:44Z</time></trkpt><trkpt lat="60.1183627266" lon="32.3208259139"><ele>-5.06</ele><time>2024-12-01T06:53:49Z</time></trkpt><trkpt lat="60.1183272712" lon="32.3209031951"><ele>-4.97</ele><time>2024-12-01T06:54:14Z</time></trkpt><trkpt lat="60.1183458790" lon="32.3208000138"><ele>-4.37</ele><time>2024-12-01T06:55:37Z</time></trkpt><trkpt lat="60.1183235832" lon="32.3208018579"><ele>-4.22</ele><time>2024-12-01T06:56:04Z</time></trkpt><trkpt lat="60.1183191407" lon="32.3208649736"><ele>-4.10</ele><time>2024-12-01T06:56:23Z</time></trkpt><trkpt lat="60.1183138601" lon="32.3209083918"><ele>-4.00</ele><time>2024-12-01T06:56:39Z</time></trkpt><trkpt lat="60.1183189731" lon="32.3208626267"><ele>-3.87</ele><time>2024-12-01T06:57:00Z</time></trkpt><trkpt lat="60.1183328871" lon="32.3208046239"><ele>-3.82</ele><time>2024-12-01T06:57:07Z</time></trkpt><trkpt lat="60.1183619723" lon="32.3207664862"><ele>-3.78</ele><time>2024-12-01T06:57:13Z</time></trkpt><trkpt lat="60.1184165385" lon="32.3206400871"><ele>-3.71</ele><time>2024-12-01T06:57:28Z</time></trkpt><trkpt lat="60.1183971763" lon="32.3207727727"><ele>-3.66</ele><time>2024-12-01T06:57:44Z</time></trkpt><trkpt lat="60.1183910575" lon="32.3208132572"><ele>-3.68</ele><time>2024-12-01T06:57:46Z</time></trkpt><trkpt lat="60.1183250081" lon="32.3209893610"><ele>-3.62</ele><time>2024-12-01T06:58:03Z</time></trkpt><trkpt lat="60.1183352340" lon="32.3209942225"><ele>-3.59</ele><time>2024-12-01T06:58:19Z</time></trkpt><trkpt lat="60.1183664985" lon="32.3208993394"><ele>-3.57</ele><time>2024-12-01T06:58:35Z</time></trkpt><trkpt lat="60.1183965895" lon="32.3208335415"><ele>-3.54</ele><time>2024-12-01T06:58:49Z</time></trkpt><trkpt lat="60.1184557658" lon="32.3206889536"><ele>-3.52</ele><time>2024-12-01T06:59:19Z</time></trkpt><trkpt lat="60.1184545923" lon="32.3206710164"><ele>-3.52</ele><time>2024-12-01T06:59:46Z</time></trkpt><trkpt lat="60.1184341405" lon="32.3206521571"><ele>-3.55</ele><time>2024-12-01T07:00:18Z</time></trkpt><trkpt lat="60.1184113417" lon="32.3208322842"><ele>-3.83</ele><time>2024-12-01T07:02:03Z</time></trkpt><trkpt lat="60.1183633134" lon="32.3209201265"><ele>-3.94</ele><time>2024-12-01T07:02:37Z</time></trkpt><trkpt lat="60.1183652412" lon="32.3209846672"><ele>-4.02</ele><time>2024-12-01T07:03:00Z</time></trkpt><trkpt lat="60.1183493994" lon="32.3208315298"><ele>-4.18</ele><time>2024-12-01T07:03:50Z</time></trkpt><trkpt lat="60.1182848588" lon="32.3211641237"><ele>-5.14</ele><time>2024-12-01T07:04:49Z</time></trkpt><trkpt lat="60.1182084996" lon="32.3209751118"><ele>-5.80</ele><time>2024-12-01T07:08:15Z</time></trkpt><trkpt lat="60.1182622276" lon="32.3211259861"><ele>-6.52</ele><time>2024-12-01T07:11:31Z</time></trkpt><trkpt lat="60.1181791630" lon="32.3212120682"><ele>-6.42</ele><time>2024-12-01T07:12:33Z</time></trkpt><trkpt lat="60.1181899756" lon="32.3211101443"><ele>-6.39</ele><time>2024-12-01T07:13:02Z</time></trkpt><trkpt lat="60.1182162948" lon="32.3210692406"><ele>-6.33</ele><time>2024-12-01T07:15:09Z</time></trkpt><trkpt lat="60.1182023808" lon="32.3210850824"><ele>-6.34</ele><time>2024-12-01T07:15:36Z</time></trkpt><trkpt lat="60.1181885507" lon="32.3212062009"><ele>-6.38</ele><time>2024-12-01T07:16:09Z</time></trkpt><trkpt lat="60.1182188094" lon="32.3212704062"><ele>-6.44</ele><time>2024-12-01T07:16:26Z</time></trkpt><trkpt lat="60.1182492357" lon="32.3212515470"><ele>-6.47</ele><time>2024-12-01T07:16:45Z</time></trkpt><trkpt lat="60.1182665024" lon="32.3212109786"><ele>-6.56</ele><time>2024-12-01T07:17:14Z</time></trkpt><trkpt lat="60.1181911491" lon="32.3210629541"><ele>-6.74</ele><time>2024-12-01T07:18:00Z</time></trkpt><trkpt lat="60.1181972679" lon="32.3210873455"><ele>-6.87</ele><time>2024-12-01T07:18:33Z</time></trkpt><trkpt lat="60.1182193123" lon="32.3209582642"><ele>-7.05</ele><time>2024-12-01T07:19:20Z</time></trkpt><trkpt lat="60.1182549354" lon="32.3209128343"><ele>-7.12</ele><time>2024-12-01T07:19:57Z</time></trkpt><trkpt lat="60.1182737947" lon="32.3207973316"><ele>-7.17</ele><time>2024-12-01T07:20:35Z</time></trkpt><trkpt lat="60.1183362398" lon="32.3207523208"><ele>-7.21</ele><time>2024-12-01T07:20:59Z</time></trkpt><trkpt lat="60.1185407583" lon="32.3204593733"><ele>-7.37</ele><time>2024-12-01T07:22:41Z</time></trkpt><trkpt lat="60.1181739662" lon="32.3211173527"><ele>-7.74</ele><time>2024-12-01T07:28:00Z</time></trkpt><trkpt lat="60.1181490719" lon="32.3208857607"><ele>-7.54</ele><time>2024-12-01T07:30:02Z</time></trkpt><trkpt lat="60.1181311347" lon="32.3208700027"><ele>-7.46</ele><time>2024-12-01T07:30:27Z</time></trkpt><trkpt lat="60.1181678474" lon="32.3208511434"><ele>-7.40</ele><time>2024-12-01T07:30:50Z</time></trkpt><trkpt lat="60.1182072423" lon="32.3207893688"><ele>-7.29</ele><time>2024-12-01T07:31:19Z</time></trkpt><trkpt lat="60.1182007045" lon="32.3207690008"><ele>-7.17</ele><time>2024-12-01T07:31:50Z</time></trkpt><trkpt lat="60.1182136126" lon="32.3207337130"><ele>-7.05</ele><time>2024-12-01T07:32:18Z</time></trkpt><trkpt lat="60.1181961782" lon="32.3206756264"><ele>-6.89</ele><time>2024-12-01T07:32:53Z</time></trkpt><trkpt lat="60.1184407622" lon="32.3206705973"><ele>-5.67</ele><time>2024-12-01T07:37:51Z</time></trkpt><trkpt lat="60.1183784008" lon="32.3204866983"><ele>-6.29</ele><time>2024-12-01T07:38:49Z</time></trkpt><trkpt lat="60.1182888821" lon="32.3206355609"><ele>-6.22</ele><time>2024-12-01T07:39:14Z</time></trkpt><trkpt lat="60.1182955876" lon="32.3207220621"><ele>-6.13</ele><time>2024-12-01T07:39:39Z</time></trkpt><trkpt lat="60.1183587871" lon="32.3207352217"><ele>-5.98</ele><time>2024-12-01T07:40:27Z</time></trkpt><trkpt lat="60.1184317935" lon="32.3205445334"><ele>-5.90</ele><time>2024-12-01T07:41:14Z</time></trkpt><trkpt lat="60.1184246689" lon="32.3205734510"><ele>-5.85</ele><time>2024-12-01T07:41:42Z</time></trkpt><trkpt lat="60.1184334699" lon="32.3205669131"><ele>-5.81</ele><time>2024-12-01T07:42:10Z</time></trkpt><trkpt lat="60.1184694283" lon="32.3205490597"><ele>-5.75</ele><time>2024-12-01T07:42:44Z</time></trkpt><trkpt lat="60.1183930691" lon="32.3207921349"><ele>-5.65</ele><time>2024-12-01T07:44:37Z</time></trkpt><trkpt lat="60.1183850225" lon="32.3209119961"><ele>-5.40</ele><time>2024-12-01T07:46:50Z</time></trkpt><trkpt lat="60.1145305205" lon="32.2769026458"><ele>-13.41</ele><time>2024-12-01T08:15:11Z</time></trkpt><trkpt lat="60.1145358849" lon="32.2769007180"><ele>-10.03</ele><time>2024-12-01T08:15:19Z</time></trkpt><trkpt lat="60.1145405788" lon="32.2769065015"><ele>-6.61</ele><time>2024-12-01T08:15:26Z</time></trkpt><trkpt lat="60.1145400759" lon="32.2769134585"><ele>-3.53</ele><time>2024-12-01T08:15:34Z</time></trkpt><trkpt lat="60.1145697478" lon="32.2769013885"><ele>-0.44</ele><time>2024-12-01T08:15:51Z</time></trkpt><trkpt lat="60.1146077178" lon="32.2769294679"><ele>3.20</ele><time>2024-12-01T08:16:08Z</time></trkpt><trkpt lat="60.1146086399" lon="32.2769312281"><ele>3.20</ele><time>2024-12-01T08:16:09Z</time></trkpt><trkpt lat="60.1145839132" lon="32.2768449783"><ele>4.25</ele><time>2024-12-01T08:16:42Z</time></trkpt><trkpt lat="60.1145916246" lon="32.2769014724"><ele>5.99</ele><time>2024-12-01T08:17:11Z</time></trkpt></trkseg><trkseg><trkpt lat="60.1183460467" lon="32.3206459545"><ele>-14.33</ele><time>2024-12-01T12:58:10Z</time></trkpt><trkpt lat="60.1183572784" lon="32.3206896242"><ele>-14.37</ele><time>2024-12-01T12:58:38Z</time></trkpt><trkpt lat="60.1183949970" lon="32.3207256664"><ele>-12.03</ele><time>2024-12-01T12:58:53Z</time></trkpt><trkpt lat="60.1183745451" lon="32.3206193838"><ele>-12.37</ele><time>2024-12-01T12:59:24Z</time></trkpt><trkpt lat="60.1183809992" lon="32.3205453716"><ele>-11.80</ele><time>2024-12-01T12:59:53Z</time></trkpt><trkpt lat="60.1183979306" lon="32.3204934038"><ele>-11.21</ele><time>2024-12-01T13:00:24Z</time></trkpt><trkpt lat="60.1184561010" lon="32.3202927411"><ele>-10.64</ele><time>2024-12-01T13:00:55Z</time></trkpt><trkpt lat="60.1184663270" lon="32.3203235026"><ele>-10.79</ele><time>2024-12-01T13:01:25Z</time></trkpt><trkpt lat="60.1184989326" lon="32.3204865307"><ele>-10.09</ele><time>2024-12-01T13:01:57Z</time></trkpt><trkpt lat="60.1185002737" lon="32.3205559328"><ele>-10.22</ele><time>2024-12-01T13:02:27Z</time></trkpt><trkpt lat="60.1184985973" lon="32.3206198029"><ele>-9.58</ele><time>2024-12-01T13:02:58Z</time></trkpt><trkpt lat="60.1184778940" lon="32.3207442742"><ele>-9.63</ele><time>2024-12-01T13:03:08Z</time></trkpt><trkpt lat="60.1185260061" lon="32.3207248282"><ele>-9.74</ele><time>2024-12-01T13:03:34Z</time></trkpt><trkpt lat="60.1185525768" lon="32.3206024524"><ele>-9.85</ele><time>2024-12-01T13:04:07Z</time></trkpt><trkpt lat="60.1185995992" lon="32.3205236625"><ele>-9.21</ele><time>2024-12-01T13:04:38Z</time></trkpt><trkpt lat="60.1186596975" lon="32.3202736303"><ele>-9.39</ele><time>2024-12-01T13:05:13Z</time></trkpt><trkpt lat="60.1185792312" lon="32.3204999417"><ele>-9.57</ele><time>2024-12-01T13:05:44Z</time></trkpt><trkpt lat="60.1184804924" lon="32.3207353894"><ele>-9.73</ele><time>2024-12-01T13:06:15Z</time></trkpt><trkpt lat="60.1185207255" lon="32.3206498940"><ele>-9.83</ele><time>2024-12-01T13:06:42Z</time></trkpt><trkpt lat="60.1185566839" lon="32.3206023686"><ele>-9.90</ele><time>2024-12-01T13:07:06Z</time></trkpt><trkpt lat="60.1184792351" lon="32.3207986727"><ele>-9.95</ele><time>2024-12-01T13:07:44Z</time></trkpt><trkpt lat="60.1184624713" lon="32.3207597807"><ele>-9.99</ele><time>2024-12-01T13:08:12Z</time></trkpt><trkpt lat="60.1184525806" lon="32.3207862675"><ele>-10.08</ele><time>2024-12-01T13:08:41Z</time></trkpt><trkpt lat="60.1184352301" lon="32.3208660632"><ele>-10.21</ele><time>2024-12-01T13:09:11Z</time></trkpt><trkpt lat="60.1184040494" lon="32.3209799733"><ele>-10.37</ele><time>2024-12-01T13:09:42Z</time></trkpt><trkpt lat="60.1183922309" lon="32.3209363874"><ele>-10.55</ele><time>2024-12-01T13:10:11Z</time></trkpt><trkpt lat="60.1183690969" lon="32.3210473638"><ele>-10.77</ele><time>2024-12-01T13:10:47Z</time></trkpt><trkpt lat="60.1183934882" lon="32.3210371379"><ele>-11.08</ele><time>2024-12-01T13:11:19Z</time></trkpt><trkpt lat="60.1184053905" lon="32.3209893610"><ele>-11.34</ele><time>2024-12-01T13:11:53Z</time></trkpt><trkpt lat="60.1184316259" lon="32.3209703341"><ele>-11.55</ele><time>2024-12-01T13:12:24Z</time></trkpt><trkpt lat="60.1185238268" lon="32.3207755387"><ele>-11.73</ele><time>2024-12-01T13:12:57Z</time></trkpt><trkpt lat="60.1185536664" lon="32.3207135964"><ele>-11.84</ele><time>2024-12-01T13:13:27Z</time></trkpt><trkpt lat="60.1185901277" lon="32.3205454554"><ele>-11.12</ele><time>2024-12-01T13:14:06Z</time></trkpt><trkpt lat="60.1186253317" lon="32.3203705251"><ele>-11.23</ele><time>2024-12-01T13:14:38Z</time></trkpt><trkpt lat="60.1186436880" lon="32.3202583753"><ele>-11.34</ele><time>2024-12-01T13:15:05Z</time></trkpt><trkpt lat="60.1185985096" lon="32.3203335609"><ele>-11.41</ele><time>2024-12-01T13:15:22Z</time></trkpt><trkpt lat="60.1185149420" lon="32.3205680028"><ele>-11.53</ele><time>2024-12-01T13:15:56Z</time></trkpt><trkpt lat="60.1184581965" lon="32.3206936475"><ele>-11.58</ele><time>2024-12-01T13:16:27Z</time></trkpt><trkpt lat="60.1184568554" lon="32.3207959905"><ele>-11.56</ele><time>2024-12-01T13:16:58Z</time></trkpt><trkpt lat="60.1184975076" lon="32.3208264168"><ele>-11.50</ele><time>2024-12-01T13:17:29Z</time></trkpt><trkpt lat="60.1185437758" lon="32.3208774626"><ele>-11.37</ele><time>2024-12-01T13:18:00Z</time></trkpt><trkpt lat="60.1185387466" lon="32.3208301049"><ele>-11.22</ele><time>2024-12-01T13:18:32Z</time></trkpt><trkpt lat="60.1185234077" lon="32.3207850102"><ele>-11.13</ele><time>2024-12-01T13:19:02Z</time></trkpt><trkpt lat="60.1185298618" lon="32.3208368104"><ele>-11.07</ele><time>2024-12-01T13:19:35Z</time></trkpt><trkpt lat="60.1185247488" lon="32.3208356369"><ele>-11.03</ele><time>2024-12-01T13:20:08Z</time></trkpt><trkpt lat="60.1184876170" lon="32.3207900394"><ele>-10.98</ele><time>2024-12-01T13:20:39Z</time></trkpt><trkpt lat="60.1184736192" lon="32.3207917158"><ele>-10.89</ele><time>2024-12-01T13:21:08Z</time></trkpt><trkpt lat="60.1184871979" lon="32.3208561726"><ele>-10.82</ele><time>2024-12-01T13:21:38Z</time></trkpt><trkpt lat="60.1184683386" lon="32.3209086433"><ele>-10.71</ele><time>2024-12-01T13:22:07Z</time></trkpt><trkpt lat="60.1184466295" lon="32.3209401593"><ele>-10.58</ele><time>2024-12-01T13:22:37Z</time></trkpt><trkpt lat="60.1184888743" lon="32.3210096452"><ele>-10.43</ele><time>2024-12-01T13:23:07Z</time></trkpt><trkpt lat="60.1184992678" lon="32.3210060410"><ele>-10.27</ele><time>2024-12-01T13:23:38Z</time></trkpt><trkpt lat="60.1184805762" lon="32.3209059611"><ele>-10.18</ele><time>2024-12-01T13:24:07Z</time></trkpt><trkpt lat="60.1184477191" lon="32.3208111618"><ele>-10.04</ele><time>2024-12-01T13:24:41Z</time></trkpt><trkpt lat="60.1184220705" lon="32.3207270075"><ele>-9.92</ele><time>2024-12-01T13:25:08Z</time></trkpt><trkpt lat="60.1184125990" lon="32.3206265084"><ele>-9.79</ele><time>2024-12-01T13:25:35Z</time></trkpt><trkpt lat="60.1184478868" lon="32.3205711879"><ele>-9.65</ele><time>2024-12-01T13:26:04Z</time></trkpt><trkpt lat="60.1184597891" lon="32.3206003569"><ele>-9.53</ele><time>2024-12-01T13:26:31Z</time></trkpt><trkpt lat="60.1184431929" lon="32.3205501493"><ele>-9.36</ele><time>2024-12-01T13:27:06Z</time></trkpt><trkpt lat="60.1185009442" lon="32.3204844352"><ele>-9.19</ele><time>2024-12-01T13:27:39Z</time></trkpt><trkpt lat="60.1185472123" lon="32.3205108382"><ele>-9.02</ele><time>2024-12-01T13:28:10Z</time></trkpt><trkpt lat="60.1185679995" lon="32.3205828387"><ele>-8.83</ele><time>2024-12-01T13:28:44Z</time></trkpt><trkpt lat="60.1185378246" lon="32.3206738662"><ele>-8.62</ele><time>2024-12-01T13:29:14Z</time></trkpt><trkpt lat="60.1184771396" lon="32.3208291829"><ele>-8.42</ele><time>2024-12-01T13:29:44Z</time></trkpt><trkpt lat="60.1184705179" lon="32.3208966572"><ele>-8.27</ele><time>2024-12-01T13:30:10Z</time></trkpt><trkpt lat="60.1184888743" lon="32.3207808193"><ele>-8.16</ele><time>2024-12-01T13:30:43Z</time></trkpt><trkpt lat="60.1184994355" lon="32.3206656519"><ele>-8.12</ele><time>2024-12-01T13:31:16Z</time></trkpt><trkpt lat="60.1185009442" lon="32.3206114210"><ele>-8.08</ele><time>2024-12-01T13:31:52Z</time></trkpt><trkpt lat="60.1185079850" lon="32.3205146100"><ele>-7.98</ele><time>2024-12-01T13:32:27Z</time></trkpt><trkpt lat="60.1184840128" lon="32.3206172045"><ele>-7.90</ele><time>2024-12-01T13:33:03Z</time></trkpt><trkpt lat="60.1184657402" lon="32.3206048831"><ele>-7.87</ele><time>2024-12-01T13:33:33Z</time></trkpt><trkpt lat="60.1184624713" lon="32.3206891213"><ele>-7.86</ele><time>2024-12-01T13:34:04Z</time></trkpt><trkpt lat="60.1184937358" lon="32.3205844313"><ele>-7.86</ele><time>2024-12-01T13:34:36Z</time></trkpt><trkpt lat="60.1185037941" lon="32.3204544280"><ele>-7.84</ele><time>2024-12-01T13:35:04Z</time></trkpt><trkpt lat="60.1185301133" lon="32.3202949204"><ele>-7.75</ele><time>2024-12-01T13:35:37Z</time></trkpt><trkpt lat="60.1185835898" lon="32.3201981932"><ele>-7.56</ele><time>2024-12-01T13:36:13Z</time></trkpt><trkpt lat="60.1185768843" lon="32.3201566190"><ele>-7.37</ele><time>2024-12-01T13:36:46Z</time></trkpt><trkpt lat="60.1185905468" lon="32.3201987799"><ele>-7.19</ele><time>2024-12-01T13:37:21Z</time></trkpt><trkpt lat="60.1185956597" lon="32.3202068266"><ele>-6.33</ele><time>2024-12-01T13:37:44Z</time></trkpt><trkpt lat="60.1185265090" lon="32.3205090780"><ele>-6.18</ele><time>2024-12-01T13:38:19Z</time></trkpt><trkpt lat="60.1185820810" lon="32.3205761332"><ele>-6.13</ele><time>2024-12-01T13:38:39Z</time></trkpt><trkpt lat="60.1186174527" lon="32.3208999261"><ele>-6.09</ele><time>2024-12-01T13:39:19Z</time></trkpt><trkpt lat="60.1185995992" lon="32.3209374771"><ele>-6.03</ele><time>2024-12-01T13:39:54Z</time></trkpt><trkpt lat="60.1185848471" lon="32.3208350502"><ele>-5.93</ele><time>2024-12-01T13:40:30Z</time></trkpt><trkpt lat="60.1185492240" lon="32.3207343835"><ele>-5.84</ele><time>2024-12-01T13:41:03Z</time></trkpt><trkpt lat="60.1185757108" lon="32.3206519056"><ele>-5.69</ele><time>2024-12-01T13:41:37Z</time></trkpt><trkpt lat="60.1185282692" lon="32.3206546716"><ele>-5.47</ele><time>2024-12-01T13:42:14Z</time></trkpt><trkpt lat="60.1185811590" lon="32.3204938229"><ele>-5.12</ele><time>2024-12-01T13:43:13Z</time></trkpt><trkpt lat="60.1186408382" lon="32.3205326311"><ele>-4.93</ele><time>2024-12-01T13:43:48Z</time></trkpt><trkpt lat="60.1185834222" lon="32.3206138518"><ele>-4.74</ele><time>2024-12-01T13:44:26Z</time></trkpt><trkpt lat="60.1185705140" lon="32.3206050508"><ele>-4.51</ele><time>2024-12-01T13:45:05Z</time></trkpt><trkpt lat="60.1185490564" lon="32.3205239978"><ele>-4.26</ele><time>2024-12-01T13:45:41Z</time></trkpt><trkpt lat="60.1185191330" lon="32.3204240017"><ele>-4.01</ele><time>2024-12-01T13:46:15Z</time></trkpt><trkpt lat="60.1184760500" lon="32.3204397596"><ele>-3.74</ele><time>2024-12-01T13:46:48Z</time></trkpt><trkpt lat="60.1185863558" lon="32.3208082281"><ele>-2.89</ele><time>2024-12-01T13:48:22Z</time></trkpt><trkpt lat="60.1185472123" lon="32.3206909653"><ele>-2.54</ele><time>2024-12-01T13:48:59Z</time></trkpt><trkpt lat="60.1185474638" lon="32.3206877802"><ele>-2.19</ele><time>2024-12-01T13:49:35Z</time></trkpt><trkpt lat="60.1185332984" lon="32.3207302764"><ele>-1.90</ele><time>2024-12-01T13:50:08Z</time></trkpt><trkpt lat="60.1184506528" lon="32.3206864391"><ele>-1.65</ele><time>2024-12-01T13:50:44Z</time></trkpt><trkpt lat="60.1184909698" lon="32.3207794782"><ele>-1.42</ele><time>2024-12-01T13:51:24Z</time></trkpt><trkpt lat="60.1184964180" lon="32.3207627982"><ele>-1.27</ele><time>2024-12-01T13:51:55Z</time></trkpt><trkpt lat="60.1184802409" lon="32.3207028676"><ele>-1.15</ele><time>2024-12-01T13:52:25Z</time></trkpt><trkpt lat="60.1184949931" lon="32.3206928093"><ele>-1.05</ele><time>2024-12-01T13:52:53Z</time></trkpt><trkpt lat="60.1184553467" lon="32.3205623031"><ele>-0.95</ele><time>2024-12-01T13:53:29Z</time></trkpt><trkpt lat="60.1184689254" lon="32.3206460383"><ele>-0.34</ele><time>2024-12-01T13:56:13Z</time></trkpt><trkpt lat="60.1184403431" lon="32.3206078168"><ele>-0.25</ele><time>2024-12-01T13:56:34Z</time></trkpt><trkpt lat="60.1184515748" lon="32.3206384107"><ele>-0.26</ele><time>2024-12-01T13:56:38Z</time></trkpt><trkpt lat="60.1184799057" lon="32.3207292706"><ele>-0.25</ele><time>2024-12-01T13:56:43Z</time></trkpt><trkpt lat="60.1185452007" lon="32.3209249880"><ele>-0.23</ele><time>2024-12-01T13:57:21Z</time></trkpt><trkpt lat="60.1185371540" lon="32.3211643752"><ele>-0.38</ele><time>2024-12-01T13:58:01Z</time></trkpt><trkpt lat="60.1185630541" lon="32.3211585078"><ele>-0.77</ele><time>2024-12-01T13:59:05Z</time></trkpt><trkpt lat="60.1185418479" lon="32.3211692367"><ele>-0.97</ele><time>2024-12-01T13:59:32Z</time></trkpt><trkpt lat="60.1185121760" lon="32.3210912850"><ele>-1.21</ele><time>2024-12-01T14:00:07Z</time></trkpt><trkpt lat="60.1185241621" lon="32.3210897762"><ele>-1.42</ele><time>2024-12-01T14:00:46Z</time></trkpt><trkpt lat="60.1184597053" lon="32.3212242220"><ele>-1.50</ele><time>2024-12-01T14:01:13Z</time></trkpt><trkpt lat="60.1184303686" lon="32.3210018501"><ele>-1.61</ele><time>2024-12-01T14:01:45Z</time></trkpt><trkpt lat="60.1184130181" lon="32.3207526561"><ele>-1.64</ele><time>2024-12-01T14:02:17Z</time></trkpt><trkpt lat="60.1184013672" lon="32.3207919672"><ele>-1.67</ele><time>2024-12-01T14:02:52Z</time></trkpt><trkpt lat="60.1184728649" lon="32.3209296819"><ele>-1.65</ele><time>2024-12-01T14:03:25Z</time></trkpt><trkpt lat="60.1184988488" lon="32.3210603558"><ele>-1.70</ele><time>2024-12-01T14:03:53Z</time></trkpt><trkpt lat="60.1184597891" lon="32.3211173527"><ele>-1.74</ele><time>2024-12-01T14:04:30Z</time></trkpt><trkpt lat="60.1184915565" lon="32.3209860921"><ele>-1.76</ele><time>2024-12-01T14:04:53Z</time></trkpt><trkpt lat="60.1184712723" lon="32.3208630458"><ele>-1.74</ele><time>2024-12-01T14:05:29Z</time></trkpt><trkpt lat="60.1183628105" lon="32.3207982536"><ele>-1.76</ele><time>2024-12-01T14:06:05Z</time></trkpt><trkpt lat="60.1183547638" lon="32.3206915520"><ele>-1.77</ele><time>2024-12-01T14:06:42Z</time></trkpt><trkpt lat="60.1183939911" lon="32.3208736070"><ele>-1.77</ele><time>2024-12-01T14:07:16Z</time></trkpt><trkpt lat="60.1184648182" lon="32.3210544046"><ele>-1.76</ele><time>2024-12-01T14:07:51Z</time></trkpt><trkpt lat="60.1184420194" lon="32.3212748487"><ele>-1.71</ele><time>2024-12-01T14:08:28Z</time></trkpt><trkpt lat="60.1184870303" lon="32.3213918600"><ele>-1.65</ele><time>2024-12-01T14:08:56Z</time></trkpt><trkpt lat="60.1184957474" lon="32.3214272317"><ele>-1.56</ele><time>2024-12-01T14:09:32Z</time></trkpt><trkpt lat="60.1184853539" lon="32.3214553948"><ele>-1.48</ele><time>2024-12-01T14:09:58Z</time></trkpt><trkpt lat="60.1185246650" lon="32.3212309275"><ele>-1.42</ele><time>2024-12-01T14:10:21Z</time></trkpt><trkpt lat="60.1185106672" lon="32.3212314304"><ele>-1.38</ele><time>2024-12-01T14:10:35Z</time></trkpt><trkpt lat="60.1184991840" lon="32.3212494515"><ele>-1.29</ele><time>2024-12-01T14:11:00Z</time></trkpt><trkpt lat="60.1185088232" lon="32.3213524651"><ele>-1.18</ele><time>2024-12-01T14:11:27Z</time></trkpt><trkpt lat="60.1184737869" lon="32.3213950451"><ele>-1.05</ele><time>2024-12-01T14:11:54Z</time></trkpt><trkpt lat="60.1184615493" lon="32.3213817179"><ele>-0.87</ele><time>2024-12-01T14:12:24Z</time></trkpt><trkpt lat="60.1184752956" lon="32.3213908542"><ele>-0.64</ele><time>2024-12-01T14:12:56Z</time></trkpt><trkpt lat="60.1184438635" lon="32.3214784451"><ele>-0.46</ele><time>2024-12-01T14:13:24Z</time></trkpt><trkpt lat="60.1184799895" lon="32.3215460032"><ele>-0.24</ele><time>2024-12-01T14:13:54Z</time></trkpt><trkpt lat="60.1184918918" lon="32.3214897607"><ele>-2.31</ele><time>2024-12-01T14:14:22Z</time></trkpt><trkpt lat="60.1185029559" lon="32.3214818817"><ele>-2.01</ele><time>2024-12-01T14:15:03Z</time></trkpt><trkpt lat="60.1184994355" lon="32.3215004057"><ele>-1.81</ele><time>2024-12-01T14:15:31Z</time></trkpt><trkpt lat="60.1184473839" lon="32.3216407187"><ele>-1.63</ele><time>2024-12-01T14:15:58Z</time></trkpt><trkpt lat="60.1184894610" lon="32.3215646949"><ele>-1.49</ele><time>2024-12-01T14:16:24Z</time></trkpt><trkpt lat="60.1185154449" lon="32.3215175886"><ele>-2.09</ele><time>2024-12-01T14:16:58Z</time></trkpt><trkpt lat="60.1185148582" lon="32.3215635214"><ele>-1.97</ele><time>2024-12-01T14:17:30Z</time></trkpt><trkpt lat="60.1184698474" lon="32.3216611706"><ele>-1.84</ele><time>2024-12-01T14:18:01Z</time></trkpt><trkpt lat="60.1185144391" lon="32.3216334265"><ele>-1.74</ele><time>2024-12-01T14:18:50Z</time></trkpt><trkpt lat="60.1185139362" lon="32.3216053471"><ele>-1.66</ele><time>2024-12-01T14:19:16Z</time></trkpt><trkpt lat="60.1185643114" lon="32.3214424867"><ele>-1.37</ele><time>2024-12-01T14:20:53Z</time></trkpt><trkpt lat="60.1185403392" lon="32.3215358611"><ele>-1.29</ele><time>2024-12-01T14:21:46Z</time></trkpt><trkpt lat="60.1185287721" lon="32.3215241265"><ele>-1.92</ele><time>2024-12-01T14:22:27Z</time></trkpt><trkpt lat="60.1184345596" lon="32.3215023335"><ele>-1.48</ele><time>2024-12-01T14:23:24Z</time></trkpt><trkpt lat="60.1183874533" lon="32.3213909380"><ele>-1.07</ele><time>2024-12-01T14:24:12Z</time></trkpt><trkpt lat="60.1184177119" lon="32.3213503696"><ele>0.00</ele><time>2024-12-01T14:25:37Z</time></trkpt><trkpt lat="60.1184325479" lon="32.3214323446"><ele>0.43</ele><time>2024-12-01T14:26:13Z</time></trkpt><trkpt lat="60.1184141915" lon="32.3214255553"><ele>0.70</ele><time>2024-12-01T14:26:45Z</time></trkpt><trkpt lat="60.1183776464" lon="32.3215455003"><ele>1.49</ele><time>2024-12-01T14:28:17Z</time></trkpt><trkpt lat="60.1183645707" lon="32.3215489369"><ele>1.76</ele><time>2024-12-01T14:28:51Z</time></trkpt><trkpt lat="60.1183934882" lon="32.3215990607"><ele>1.98</ele><time>2024-12-01T14:29:23Z</time></trkpt><trkpt lat="60.1183701027" lon="32.3214469291"><ele>2.22</ele><time>2024-12-01T14:30:12Z</time></trkpt><trkpt lat="60.1183795743" lon="32.3214212805"><ele>2.36</ele><time>2024-12-01T14:30:43Z</time></trkpt><trkpt lat="60.1183950808" lon="32.3213657085"><ele>2.48</ele><time>2024-12-01T14:31:11Z</time></trkpt><trkpt lat="60.1184128504" lon="32.3213063646"><ele>2.61</ele><time>2024-12-01T14:31:39Z</time></trkpt><trkpt lat="60.1184126828" lon="32.3212000821"><ele>2.78</ele><time>2024-12-01T14:32:11Z</time></trkpt><trkpt lat="60.1184024569" lon="32.3212020937"><ele>2.94</ele><time>2024-12-01T14:32:43Z</time></trkpt><trkpt lat="60.1183654089" lon="32.3213183507"><ele>3.08</ele><time>2024-12-01T14:33:14Z</time></trkpt><trkpt lat="60.1183519978" lon="32.3214231245"><ele>3.25</ele><time>2024-12-01T14:33:43Z</time></trkpt><trkpt lat="60.1183607988" lon="32.3214206100"><ele>3.27</ele><time>2024-12-01T14:33:46Z</time></trkpt><trkpt lat="60.1184897963" lon="32.3212953005"><ele>3.39</ele><time>2024-12-01T14:34:15Z</time></trkpt><trkpt lat="60.1184981782" lon="32.3213895131"><ele>3.50</ele><time>2024-12-01T14:34:49Z</time></trkpt><trkpt lat="60.1184517425" lon="32.3214236274"><ele>3.58</ele><time>2024-12-01T14:35:17Z</time></trkpt><trkpt lat="60.1184617169" lon="32.3209905345"><ele>3.66</ele><time>2024-12-01T14:35:50Z</time></trkpt><trkpt lat="60.1184230763" lon="32.3209183663"><ele>3.69</ele><time>2024-12-01T14:36:26Z</time></trkpt><trkpt lat="60.1184189692" lon="32.3209813144"><ele>3.76</ele><time>2024-12-01T14:37:01Z</time></trkpt><trkpt lat="60.1184390858" lon="32.3209497146"><ele>3.84</ele><time>2024-12-01T14:37:34Z</time></trkpt><trkpt lat="60.1184732001" lon="32.3209518939"><ele>3.95</ele><time>2024-12-01T14:38:04Z</time></trkpt><trkpt lat="60.1185028721" lon="32.3210547399"><ele>3.98</ele><time>2024-12-01T14:38:35Z</time></trkpt><trkpt lat="60.1185170375" lon="32.3208073061"><ele>4.02</ele><time>2024-12-01T14:39:08Z</time></trkpt><trkpt lat="60.1185151096" lon="32.3207173683"><ele>4.03</ele><time>2024-12-01T14:39:42Z</time></trkpt><trkpt lat="60.1185802370" lon="32.3205340561"><ele>4.01</ele><time>2024-12-01T14:40:12Z</time></trkpt><trkpt lat="60.1185896248" lon="32.3205893766"><ele>3.98</ele><time>2024-12-01T14:40:44Z</time></trkpt><trkpt lat="60.1185342204" lon="32.3206842598"><ele>3.97</ele><time>2024-12-01T14:41:01Z</time></trkpt><trkpt lat="60.1184180472" lon="32.3209427577"><ele>3.95</ele><time>2024-12-01T14:41:19Z</time></trkpt><trkpt lat="60.1183843520" lon="32.3211285844"><ele>3.91</ele><time>2024-12-01T14:41:54Z</time></trkpt><trkpt lat="60.1184057258" lon="32.3209324479"><ele>3.87</ele><time>2024-12-01T14:42:18Z</time></trkpt><trkpt lat="60.1184356492" lon="32.3206850979"><ele>3.79</ele><time>2024-12-01T14:42:50Z</time></trkpt><trkpt lat="60.1184914727" lon="32.3207385745"><ele>3.56</ele><time>2024-12-01T14:44:12Z</time></trkpt><trkpt lat="60.1184768882" lon="32.3208689131"><ele>3.48</ele><time>2024-12-01T14:44:41Z</time></trkpt><trkpt lat="60.1184961665" lon="32.3207481299"><ele>3.37</ele><time>2024-12-01T14:45:12Z</time></trkpt><trkpt lat="60.1184483059" lon="32.3208908737"><ele>3.24</ele><time>2024-12-01T14:45:46Z</time></trkpt><trkpt lat="60.1184400916" lon="32.3209007643"><ele>3.21</ele><time>2024-12-01T14:45:54Z</time></trkpt><trkpt lat="60.1184633933" lon="32.3208292667"><ele>3.11</ele><time>2024-12-01T14:46:26Z</time></trkpt><trkpt lat="60.1184124313" lon="32.3210776225"><ele>2.99</ele><time>2024-12-01T14:47:02Z</time></trkpt><trkpt lat="60.1184137724" lon="32.3210675642"><ele>2.99</ele><time>2024-12-01T14:47:03Z</time></trkpt><trkpt lat="60.1184690930" lon="32.3207742814"><ele>2.95</ele><time>2024-12-01T14:47:31Z</time></trkpt><trkpt lat="60.1184902992" lon="32.3206908815"><ele>2.94</ele><time>2024-12-01T14:47:39Z</time></trkpt><trkpt lat="60.1185125113" lon="32.3206772190"><ele>2.90</ele><time>2024-12-01T14:48:01Z</time></trkpt><trkpt lat="60.1184758823" lon="32.3208516464"><ele>2.89</ele><time>2024-12-01T14:48:33Z</time></trkpt><trkpt lat="60.1184516586" lon="32.3209181149"><ele>5.18</ele><time>2024-12-01T14:48:43Z</time></trkpt><trkpt lat="60.1184042171" lon="32.3210456874"><ele>5.18</ele><time>2024-12-01T14:49:15Z</time></trkpt><trkpt lat="60.1184149459" lon="32.3212157562"><ele>5.16</ele><time>2024-12-01T14:49:48Z</time></trkpt><trkpt lat="60.1184325479" lon="32.3211287521"><ele>5.13</ele><time>2024-12-01T14:50:23Z</time></trkpt><trkpt lat="60.1184390020" lon="32.3210234754"><ele>5.06</ele><time>2024-12-01T14:50:55Z</time></trkpt><trkpt lat="60.1184038818" lon="32.3211648781"><ele>4.94</ele><time>2024-12-01T14:51:30Z</time></trkpt><trkpt lat="60.1184583642" lon="32.3210010957"><ele>4.85</ele><time>2024-12-01T14:52:01Z</time></trkpt><trkpt lat="60.1185522415" lon="32.3205685057"><ele>4.74</ele><time>2024-12-01T14:52:31Z</time></trkpt><trkpt lat="60.1185801532" lon="32.3204115964"><ele>4.63</ele><time>2024-12-01T14:53:03Z</time></trkpt><trkpt lat="60.1185685862" lon="32.3205172084"><ele>4.54</ele><time>2024-12-01T14:53:34Z</time></trkpt><trkpt lat="60.1185590308" lon="32.3206065595"><ele>4.45</ele><time>2024-12-01T14:54:05Z</time></trkpt><trkpt lat="60.1185352262" lon="32.3207564279"><ele>4.37</ele><time>2024-12-01T14:54:33Z</time></trkpt><trkpt lat="60.1185326278" lon="32.3207651451"><ele>4.37</ele><time>2024-12-01T14:54:34Z</time></trkpt><trkpt lat="60.1185276825" lon="32.3207592778"><ele>4.25</ele><time>2024-12-01T14:55:08Z</time></trkpt><trkpt lat="60.1185161155" lon="32.3206049670"><ele>4.08</ele><time>2024-12-01T14:55:45Z</time></trkpt><trkpt lat="60.1183776464" lon="32.3212301731"><ele>3.98</ele><time>2024-12-01T14:56:23Z</time></trkpt><trkpt lat="60.1184222382" lon="32.3208486289"><ele>3.92</ele><time>2024-12-01T14:56:46Z</time></trkpt><trkpt lat="60.1184308715" lon="32.3207087349"><ele>3.90</ele><time>2024-12-01T14:56:53Z</time></trkpt><trkpt lat="60.1184524130" lon="32.3201789148"><ele>3.79</ele><time>2024-12-01T14:57:26Z</time></trkpt><trkpt lat="60.1184459589" lon="32.3202714510"><ele>3.65</ele><time>2024-12-01T14:57:56Z</time></trkpt><trkpt lat="60.1184518263" lon="32.3203340638"><ele>3.43</ele><time>2024-12-01T14:58:34Z</time></trkpt><trkpt lat="60.1184731163" lon="32.3202863708"><ele>3.20</ele><time>2024-12-01T14:59:06Z</time></trkpt><trkpt lat="60.1184618007" lon="32.3206420988"><ele>2.98</ele><time>2024-12-01T14:59:39Z</time></trkpt><trkpt lat="60.1184313744" lon="32.3206288554"><ele>2.81</ele><time>2024-12-01T15:00:10Z</time></trkpt><trkpt lat="60.1184696797" lon="32.3206196353"><ele>2.65</ele><time>2024-12-01T15:00:41Z</time></trkpt><trkpt lat="60.1184763853" lon="32.3205533344"><ele>2.49</ele><time>2024-12-01T15:01:15Z</time></trkpt><trkpt lat="60.1183765568" lon="32.3210412450"><ele>2.32</ele><time>2024-12-01T15:01:48Z</time></trkpt><trkpt lat="60.1184063125" lon="32.3209990002"><ele>2.20</ele><time>2024-12-01T15:02:20Z</time></trkpt><trkpt lat="60.1184249204" lon="32.3209904507"><ele>2.13</ele><time>2024-12-01T15:02:47Z</time></trkpt><trkpt lat="60.1184409298" lon="32.3209373932"><ele>2.12</ele><time>2024-12-01T15:02:51Z</time></trkpt><trkpt lat="60.1185017824" lon="32.3206793983"><ele>2.04</ele><time>2024-12-01T15:03:21Z</time></trkpt><trkpt lat="60.1184366550" lon="32.3208221421"><ele>2.00</ele><time>2024-12-01T15:03:51Z</time></trkpt><trkpt lat="60.1184338890" lon="32.3208064679"><ele>1.98</ele><time>2024-12-01T15:03:58Z</time></trkpt><trkpt lat="60.1184093300" lon="32.3208621237"><ele>1.97</ele><time>2024-12-01T15:04:05Z</time></trkpt><trkpt lat="60.1183836814" lon="32.3208904546"><ele>1.96</ele><time>2024-12-01T15:04:12Z</time></trkpt><trkpt lat="60.1183131896" lon="32.3211027682"><ele>1.94</ele><time>2024-12-01T15:04:27Z</time></trkpt><trkpt lat="60.1183436159" lon="32.3212122358"><ele>1.93</ele><time>2024-12-01T15:05:23Z</time></trkpt><trkpt lat="60.1184553467" lon="32.3206063081"><ele>2.09</ele><time>2024-12-01T15:06:53Z</time></trkpt><trkpt lat="60.1184607949" lon="32.3206588626"><ele>2.11</ele><time>2024-12-01T15:07:05Z</time></trkpt><trkpt lat="60.1184270158" lon="32.3209614493"><ele>2.15</ele><time>2024-12-01T15:07:17Z</time></trkpt><trkpt lat="60.1183614694" lon="32.3213542253"><ele>2.26</ele><time>2024-12-01T15:07:51Z</time></trkpt><trkpt lat="60.1183944102" lon="32.3213262297"><ele>2.35</ele><time>2024-12-01T15:08:15Z</time></trkpt><trkpt lat="60.1184183825" lon="32.3212425783"><ele>2.47</ele><time>2024-12-01T15:08:47Z</time></trkpt><trkpt lat="60.1183917280" lon="32.3212212045"><ele>2.63</ele><time>2024-12-01T15:09:20Z</time></trkpt><trkpt lat="60.1184020378" lon="32.3212519661"><ele>2.77</ele><time>2024-12-01T15:09:49Z</time></trkpt><trkpt lat="60.1184135210" lon="32.3213035986"><ele>2.94</ele><time>2024-12-01T15:10:21Z</time></trkpt><trkpt lat="60.1183943264" lon="32.3213456757"><ele>3.22</ele><time>2024-12-01T15:11:09Z</time></trkpt><trkpt lat="60.1183752995" lon="32.3211352061"><ele>3.74</ele><time>2024-12-01T15:12:45Z</time></trkpt><trkpt lat="60.1183632296" lon="32.3210903630"><ele>3.86</ele><time>2024-12-01T15:13:14Z</time></trkpt><trkpt lat="60.1183965057" lon="32.3211617768"><ele>4.01</ele><time>2024-12-01T15:13:47Z</time></trkpt><trkpt lat="60.1184259262" lon="32.3212390579"><ele>4.15</ele><time>2024-12-01T15:14:19Z</time></trkpt><trkpt lat="60.1184472162" lon="32.3212506250"><ele>4.27</ele><time>2024-12-01T15:14:47Z</time></trkpt><trkpt lat="60.1184426062" lon="32.3212740943"><ele>4.36</ele><time>2024-12-01T15:15:18Z</time></trkpt><trkpt lat="60.1184034627" lon="32.3212647904"><ele>4.46</ele><time>2024-12-01T15:15:49Z</time></trkpt><trkpt lat="60.1184105873" lon="32.3212679755"><ele>4.54</ele><time>2024-12-01T15:16:17Z</time></trkpt><trkpt lat="60.1184255909" lon="32.3212757707"><ele>4.64</ele><time>2024-12-01T15:16:46Z</time></trkpt><trkpt lat="60.1184019540" lon="32.3212481104"><ele>4.72</ele><time>2024-12-01T15:17:16Z</time></trkpt><trkpt lat="60.1184763014" lon="32.3213875853"><ele>4.80</ele><time>2024-12-01T15:17:47Z</time></trkpt><trkpt lat="60.1185429376" lon="32.3214105517"><ele>4.92</ele><time>2024-12-01T15:18:21Z</time></trkpt><trkpt lat="60.1186001021" lon="32.3215071950"><ele>5.01</ele><time>2024-12-01T15:18:53Z</time></trkpt><trkpt lat="60.1186095737" lon="32.3215476796"><ele>5.07</ele><time>2024-12-01T15:19:19Z</time></trkpt><trkpt lat="60.1186154410" lon="32.3215316702"><ele>5.16</ele><time>2024-12-01T15:20:10Z</time></trkpt><trkpt lat="60.1185922232" lon="32.3213983141"><ele>5.17</ele><time>2024-12-01T15:20:47Z</time></trkpt><trkpt lat="60.1185284369" lon="32.3212805483"><ele>5.07</ele><time>2024-12-01T15:22:01Z</time></trkpt><trkpt lat="60.1184765529" lon="32.3211333621"><ele>4.96</ele><time>2024-12-01T15:22:34Z</time></trkpt><trkpt lat="60.1184863597" lon="32.3211164307"><ele>4.83</ele><time>2024-12-01T15:23:07Z</time></trkpt><trkpt lat="60.1184628904" lon="32.3209912051"><ele>4.70</ele><time>2024-12-01T15:23:40Z</time></trkpt><trkpt lat="60.1184437796" lon="32.3207734432"><ele>4.56</ele><time>2024-12-01T15:24:11Z</time></trkpt><trkpt lat="60.1184215676" lon="32.3206884507"><ele>4.43</ele><time>2024-12-01T15:24:41Z</time></trkpt><trkpt lat="60.1183776464" lon="32.3206393328"><ele>4.29</ele><time>2024-12-01T15:25:19Z</time></trkpt><trkpt lat="60.1184191369" lon="32.3205444496"><ele>4.13</ele><time>2024-12-01T15:25:47Z</time></trkpt><trkpt lat="60.1184285246" lon="32.3207138479"><ele>3.94</ele><time>2024-12-01T15:26:18Z</time></trkpt><trkpt lat="60.1184426062" lon="32.3208446056"><ele>3.80</ele><time>2024-12-01T15:26:49Z</time></trkpt><trkpt lat="60.1184456237" lon="32.3208907899"><ele>3.61</ele><time>2024-12-01T15:27:20Z</time></trkpt><trkpt lat="60.1184524968" lon="32.3208833300"><ele>3.52</ele><time>2024-12-01T15:27:33Z</time></trkpt></trkseg><trkseg><trkpt lat="60.1184199750" lon="32.2790862154"><ele>129.35</ele><time>2024-12-05T08:07:48Z</time></trkpt><trkpt lat="60.1184168737" lon="32.2790386900"><ele>129.27</ele><time>2024-12-05T08:07:49Z</time></trkpt><trkpt lat="60.1184231602" lon="32.2785053495"><ele>129.40</ele><time>2024-12-05T08:08:05Z</time></trkpt><trkpt lat="60.1180245169" lon="32.2786359396"><ele>128.19</ele><time>2024-12-05T08:08:30Z</time></trkpt><trkpt lat="60.1180204097" lon="32.2786188405"><ele>124.88</ele><time>2024-12-05T08:08:46Z</time></trkpt><trkpt lat="60.1180204097" lon="32.2786128055"><ele>124.88</ele><time>2024-12-05T08:08:47Z</time></trkpt><trkpt lat="60.1180583797" lon="32.2787428927"><ele>122.32</ele><time>2024-12-05T08:09:07Z</time></trkpt><trkpt lat="60.1180635765" lon="32.2787583154"><ele>124.75</ele><time>2024-12-05T08:09:09Z</time></trkpt><trkpt lat="60.1180792507" lon="32.2787703015"><ele>121.45</ele><time>2024-12-05T08:09:12Z</time></trkpt><trkpt lat="60.1180815976" lon="32.2787732352"><ele>121.38</ele><time>2024-12-05T08:09:13Z</time></trkpt><trkpt lat="60.1180879679" lon="32.2787855566"><ele>124.35</ele><time>2024-12-05T08:09:16Z</time></trkpt><trkpt lat="60.1180514228" lon="32.2788762487"><ele>122.27</ele><time>2024-12-05T08:09:49Z</time></trkpt><trkpt lat="60.1180453878" lon="32.2788495105"><ele>120.15</ele><time>2024-12-05T08:10:22Z</time></trkpt><trkpt lat="60.1180507522" lon="32.2788414638"><ele>119.74</ele><time>2024-12-05T08:10:27Z</time></trkpt><trkpt lat="60.1181245968" lon="32.2786570620"><ele>119.15</ele><time>2024-12-05T08:10:36Z</time></trkpt><trkpt lat="60.1183396764" lon="32.2783464286"><ele>118.02</ele><time>2024-12-05T08:10:53Z</time></trkpt><trkpt lat="60.1183334738" lon="32.2780533135"><ele>116.96</ele><time>2024-12-05T08:11:10Z</time></trkpt><trkpt lat="60.1183384191" lon="32.2780481167"><ele>115.97</ele><time>2024-12-05T08:11:24Z</time></trkpt><trkpt lat="60.1182651613" lon="32.2774353996"><ele>115.95</ele><time>2024-12-05T08:11:40Z</time></trkpt><trkpt lat="60.1181484014" lon="32.2765161563"><ele>114.56</ele><time>2024-12-05T08:12:00Z</time></trkpt><trkpt lat="60.1180825196" lon="32.2757627908"><ele>114.18</ele><time>2024-12-05T08:12:19Z</time></trkpt><trkpt lat="60.1180002093" lon="32.2752060648"><ele>113.73</ele><time>2024-12-05T08:12:39Z</time></trkpt><trkpt lat="60.1179187372" lon="32.2744897474"><ele>112.60</ele><time>2024-12-05T08:12:57Z</time></trkpt><trkpt lat="60.1179086789" lon="32.2737344541"><ele>112.32</ele><time>2024-12-05T08:13:16Z</time></trkpt><trkpt lat="60.1178237703" lon="32.2733239923"><ele>111.27</ele><time>2024-12-05T08:13:31Z</time></trkpt><trkpt lat="60.1178376842" lon="32.2732162848"><ele>110.96</ele><time>2024-12-05T08:13:36Z</time></trkpt><trkpt lat="60.1177894883" lon="32.2729240917"><ele>109.81</ele><time>2024-12-05T08:13:55Z</time></trkpt><trkpt lat="60.1177495066" lon="32.2726330720"><ele>108.86</ele><time>2024-12-05T08:14:10Z</time></trkpt><trkpt lat="60.1176407095" lon="32.2721334267"><ele>107.68</ele><time>2024-12-05T08:14:29Z</time></trkpt><trkpt lat="60.1176395360" lon="32.2721228655"><ele>106.58</ele><time>2024-12-05T08:15:00Z</time></trkpt><trkpt lat="60.1176327467" lon="32.2721309960"><ele>103.56</ele><time>2024-12-05T08:15:51Z</time></trkpt><trkpt lat="60.1176339202" lon="32.2721169982"><ele>101.92</ele><time>2024-12-05T08:16:19Z</time></trkpt><trkpt lat="60.1176678669" lon="32.2718848195"><ele>101.04</ele><time>2024-12-05T08:16:34Z</time></trkpt><trkpt lat="60.1178129576" lon="32.2718587518"><ele>100.18</ele><time>2024-12-05T08:16:49Z</time></trkpt><trkpt lat="60.1178229321" lon="32.2718655411"><ele>99.23</ele><time>2024-12-05T08:17:05Z</time></trkpt><trkpt lat="60.1177593134" lon="32.2718064487"><ele>95.50</ele><time>2024-12-05T08:17:22Z</time></trkpt><trkpt lat="60.1177588105" lon="32.2718015034"><ele>98.66</ele><time>2024-12-05T08:17:23Z</time></trkpt><trkpt lat="60.1177395321" lon="32.2717534751"><ele>97.38</ele><time>2024-12-05T08:17:46Z</time></trkpt><trkpt lat="60.1177243609" lon="32.2717336100"><ele>94.21</ele><time>2024-12-05T08:17:59Z</time></trkpt><trkpt lat="60.1177208405" lon="32.2717435844"><ele>94.16</ele><time>2024-12-05T08:18:00Z</time></trkpt><trkpt lat="60.1176644303" lon="32.2718430776"><ele>93.07</ele><time>2024-12-05T08:18:20Z</time></trkpt><trkpt lat="60.1176762488" lon="32.2717785370"><ele>90.92</ele><time>2024-12-05T08:18:43Z</time></trkpt><trkpt lat="60.1176735666" lon="32.2717790399"><ele>89.83</ele><time>2024-12-05T08:19:04Z</time></trkpt><trkpt lat="60.1176448166" lon="32.2718522977"><ele>88.81</ele><time>2024-12-05T08:19:24Z</time></trkpt><trkpt lat="60.1176346745" lon="32.2719116416"><ele>87.72</ele><time>2024-12-05T08:19:45Z</time></trkpt><trkpt lat="60.1176683698" lon="32.2718022577"><ele>85.47</ele><time>2024-12-05T08:20:08Z</time></trkpt><trkpt lat="60.1176899113" lon="32.2717630304"><ele>87.39</ele><time>2024-12-05T08:20:17Z</time></trkpt><trkpt lat="60.1177318208" lon="32.2717538103"><ele>86.26</ele><time>2024-12-05T08:20:40Z</time></trkpt><trkpt lat="60.1177268755" lon="32.2717271559"><ele>85.30</ele><time>2024-12-05T08:21:00Z</time></trkpt><trkpt lat="60.1177747361" lon="32.2717779502"><ele>84.19</ele><time>2024-12-05T08:21:24Z</time></trkpt><trkpt lat="60.1177707128" lon="32.2717791237"><ele>82.88</ele><time>2024-12-05T08:21:52Z</time></trkpt><trkpt lat="60.1177879795" lon="32.2717961390"><ele>79.09</ele><time>2024-12-05T08:22:18Z</time></trkpt><trkpt lat="60.1177900750" lon="32.2717973124"><ele>79.10</ele><time>2024-12-05T08:22:19Z</time></trkpt><trkpt lat="60.1177908294" lon="32.2717937920"><ele>84.79</ele><time>2024-12-05T08:22:21Z</time></trkpt><trkpt lat="60.1177929249" lon="32.2717931215"><ele>84.74</ele><time>2024-12-05T08:22:22Z</time></trkpt><trkpt lat="60.1177955233" lon="32.2717955522"><ele>82.04</ele><time>2024-12-05T08:22:25Z</time></trkpt><trkpt lat="60.1178301405" lon="32.2718853224"><ele>80.43</ele><time>2024-12-05T08:22:42Z</time></trkpt><trkpt lat="60.1178358402" lon="32.2719075345"><ele>81.15</ele><time>2024-12-05T08:22:55Z</time></trkpt><trkpt lat="60.1178352535" lon="32.2719030082"><ele>78.73</ele><time>2024-12-05T08:22:58Z</time></trkpt><trkpt lat="60.1178358402" lon="32.2718988173"><ele>81.17</ele><time>2024-12-05T08:23:00Z</time></trkpt><trkpt lat="60.1178427134" lon="32.2718902677"><ele>77.42</ele><time>2024-12-05T08:23:14Z</time></trkpt><trkpt lat="60.1178449765" lon="32.2718931176"><ele>62.34</ele><time>2024-12-05T08:23:15Z</time></trkpt><trkpt lat="60.1178422943" lon="32.2718897648"><ele>72.17</ele><time>2024-12-05T08:23:16Z</time></trkpt><trkpt lat="60.1178412046" lon="32.2718907706"><ele>94.95</ele><time>2024-12-05T08:23:17Z</time></trkpt><trkpt lat="60.1178417914" lon="32.2718885913"><ele>89.50</ele><time>2024-12-05T08:23:18Z</time></trkpt><trkpt lat="60.1178418752" lon="32.2718847357"><ele>80.87</ele><time>2024-12-05T08:23:19Z</time></trkpt><trkpt lat="60.1178414561" lon="32.2718834784"><ele>58.65</ele><time>2024-12-05T08:23:20Z</time></trkpt><trkpt lat="60.1178427972" lon="32.2718813829"><ele>64.86</ele><time>2024-12-05T08:23:21Z</time></trkpt><trkpt lat="60.1178439707" lon="32.2718804609"><ele>86.26</ele><time>2024-12-05T08:23:22Z</time></trkpt><trkpt lat="60.1178440545" lon="32.2718811315"><ele>69.80</ele><time>2024-12-05T08:23:23Z</time></trkpt><trkpt lat="60.1178436354" lon="32.2718807962"><ele>51.05</ele><time>2024-12-05T08:23:24Z</time></trkpt><trkpt lat="60.1178438868" lon="32.2718805447"><ele>71.34</ele><time>2024-12-05T08:23:25Z</time></trkpt><trkpt lat="60.1178438030" lon="32.2718800418"><ele>62.31</ele><time>2024-12-05T08:23:26Z</time></trkpt><trkpt lat="60.1178418752" lon="32.2718818858"><ele>72.77</ele><time>2024-12-05T08:23:28Z</time></trkpt><trkpt lat="60.1178392768" lon="32.2718859930"><ele>126.08</ele><time>2024-12-05T08:23:29Z</time></trkpt><trkpt lat="60.1178383548" lon="32.2718912736"><ele>109.46</ele><time>2024-12-05T08:23:30Z</time></trkpt><trkpt lat="60.1178380195" lon="32.2718894295"><ele>93.73</ele><time>2024-12-05T08:23:31Z</time></trkpt><trkpt lat="60.1178386062" lon="32.2718876693"><ele>86.64</ele><time>2024-12-05T08:23:32Z</time></trkpt><trkpt lat="60.1178383548" lon="32.2718852386"><ele>82.64</ele><time>2024-12-05T08:23:33Z</time></trkpt><trkpt lat="60.1178377680" lon="32.2718838137"><ele>82.59</ele><time>2024-12-05T08:23:34Z</time></trkpt><trkpt lat="60.1178372651" lon="32.2718837298"><ele>80.98</ele><time>2024-12-05T08:23:36Z</time></trkpt><trkpt lat="60.1178376842" lon="32.2718838137"><ele>42.30</ele><time>2024-12-05T08:23:37Z</time></trkpt><trkpt lat="60.1178376004" lon="32.2718824726"><ele>51.68</ele><time>2024-12-05T08:23:38Z</time></trkpt><trkpt lat="60.1178381033" lon="32.2718802094"><ele>61.07</ele><time>2024-12-05T08:23:39Z</time></trkpt><trkpt lat="60.1178381033" lon="32.2718809638"><ele>97.40</ele><time>2024-12-05T08:23:40Z</time></trkpt><trkpt lat="60.1178407855" lon="32.2718720790"><ele>89.52</ele><time>2024-12-05T08:23:42Z</time></trkpt><trkpt lat="60.1178408694" lon="32.2718676366"><ele>76.93</ele><time>2024-12-05T08:23:43Z</time></trkpt><trkpt lat="60.1178382710" lon="32.2718725819"><ele>80.95</ele><time>2024-12-05T08:23:44Z</time></trkpt><trkpt lat="60.1178160589" lon="32.2718947101"><ele>76.92</ele><time>2024-12-05T08:23:48Z</time></trkpt><trkpt lat="60.1178138796" lon="32.2718896810"><ele>80.34</ele><time>2024-12-05T08:23:49Z</time></trkpt><trkpt lat="60.1178111974" lon="32.2718654573"><ele>72.73</ele><time>2024-12-05T08:23:53Z</time></trkpt><trkpt lat="60.1178142149" lon="32.2718708217"><ele>79.54</ele><time>2024-12-05T08:23:54Z</time></trkpt><trkpt lat="60.1178162266" lon="32.2718716599"><ele>87.67</ele><time>2024-12-05T08:23:55Z</time></trkpt><trkpt lat="60.1178182382" lon="32.2718711570"><ele>87.63</ele><time>2024-12-05T08:23:56Z</time></trkpt><trkpt lat="60.1178189088" lon="32.2718698159"><ele>77.39</ele><time>2024-12-05T08:23:57Z</time></trkpt><trkpt lat="60.1178216748" lon="32.2718739230"><ele>74.57</ele><time>2024-12-05T08:23:59Z</time></trkpt><trkpt lat="60.1178223453" lon="32.2718756832"><ele>81.69</ele><time>2024-12-05T08:24:00Z</time></trkpt><trkpt lat="60.1178232674" lon="32.2718792036"><ele>83.45</ele><time>2024-12-05T08:24:02Z</time></trkpt><trkpt lat="60.1178246085" lon="32.2718828917"><ele>76.35</ele><time>2024-12-05T08:24:05Z</time></trkpt><trkpt lat="60.1178243570" lon="32.2718846519"><ele>76.30</ele><time>2024-12-05T08:24:06Z</time></trkpt><trkpt lat="60.1178246085" lon="32.2718863282"><ele>83.44</ele><time>2024-12-05T08:24:07Z</time></trkpt><trkpt lat="60.1178248599" lon="32.2718876693"><ele>83.40</ele><time>2024-12-05T08:24:08Z</time></trkpt><trkpt lat="60.1178257819" lon="32.2718884237"><ele>77.99</ele><time>2024-12-05T08:24:09Z</time></trkpt><trkpt lat="60.1178260334" lon="32.2718891781"><ele>82.76</ele><time>2024-12-05T08:24:10Z</time></trkpt><trkpt lat="60.1178276259" lon="32.2718910221"><ele>77.80</ele><time>2024-12-05T08:24:14Z</time></trkpt><trkpt lat="60.1178278774" lon="32.2718925308"><ele>77.75</ele><time>2024-12-05T08:24:15Z</time></trkpt><trkpt lat="60.1178286318" lon="32.2718949616"><ele>82.83</ele><time>2024-12-05T08:24:16Z</time></trkpt><trkpt lat="60.1178308111" lon="32.2718995716"><ele>82.78</ele><time>2024-12-05T08:24:17Z</time></trkpt><trkpt lat="60.1178350858" lon="32.2719082888"><ele>79.77</ele><time>2024-12-05T08:24:19Z</time></trkpt><trkpt lat="60.1178344991" lon="32.2719077859"><ele>79.05</ele><time>2024-12-05T08:24:21Z</time></trkpt><trkpt lat="60.1178378519" lon="32.2719153296"><ele>81.38</ele><time>2024-12-05T08:24:25Z</time></trkpt><trkpt lat="60.1178454794" lon="32.2719300818"><ele>78.14</ele><time>2024-12-05T08:24:29Z</time></trkpt><trkpt lat="60.1178518496" lon="32.2719492763"><ele>80.42</ele><time>2024-12-05T08:24:32Z</time></trkpt><trkpt lat="60.1178624108" lon="32.2719645314"><ele>80.27</ele><time>2024-12-05T08:24:36Z</time></trkpt><trkpt lat="60.1178693678" lon="32.2719720751"><ele>81.78</ele><time>2024-12-05T08:24:42Z</time></trkpt><trkpt lat="60.1178622432" lon="32.2719662916"><ele>81.56</ele><time>2024-12-05T08:24:43Z</time></trkpt><trkpt lat="60.1177583914" lon="32.2718276549"><ele>78.56</ele><time>2024-12-05T08:24:51Z</time></trkpt><trkpt lat="60.1177512668" lon="32.2717994079"><ele>78.55</ele><time>2024-12-05T08:24:52Z</time></trkpt><trkpt lat="60.1177498419" lon="32.2717471886"><ele>78.33</ele><time>2024-12-05T08:24:57Z</time></trkpt><trkpt lat="60.1177289709" lon="32.2717854939"><ele>78.14</ele><time>2024-12-05T08:25:02Z</time></trkpt><trkpt lat="60.1178117841" lon="32.2719513718"><ele>77.86</ele><time>2024-12-05T08:25:08Z</time></trkpt><trkpt lat="60.1178481616" lon="32.2718521301"><ele>77.55</ele><time>2024-12-05T08:24:21Z</time></trkpt><trkpt lat="60.1178294700" lon="32.2718610149"><ele>68.20</ele><time>2024-12-05T08:24:27Z</time></trkpt><trkpt lat="60.1178267878" lon="32.2718669660"><ele>84.71</ele><time>2024-12-05T08:24:28Z</time></trkpt><trkpt lat="60.1178239379" lon="32.2718735039"><ele>84.59</ele><time>2024-12-05T08:24:29Z</time></trkpt><trkpt lat="60.1178234350" lon="32.2718814667"><ele>77.69</ele><time>2024-12-05T08:24:30Z</time></trkpt><trkpt lat="60.1178170647" lon="32.2718838137"><ele>72.89</ele><time>2024-12-05T08:24:31Z</time></trkpt><trkpt lat="60.1178144664" lon="32.2718866635"><ele>72.90</ele><time>2024-12-05T08:24:32Z</time></trkpt><trkpt lat="60.1178147178" lon="32.2718863282"><ele>81.01</ele><time>2024-12-05T08:24:33Z</time></trkpt><trkpt lat="60.1178125385" lon="32.2718849871"><ele>78.98</ele><time>2024-12-05T08:24:38Z</time></trkpt><trkpt lat="60.1178171486" lon="32.2718718275"><ele>77.50</ele><time>2024-12-05T08:24:40Z</time></trkpt><trkpt lat="60.1178170647" lon="32.2718294989"><ele>76.22</ele><time>2024-12-05T08:24:58Z</time></trkpt><trkpt lat="60.1178427134" lon="32.2717910260"><ele>78.49</ele><time>2024-12-05T08:25:07Z</time></trkpt><trkpt lat="60.1178722177" lon="32.2718123998"><ele>75.30</ele><time>2024-12-05T08:25:29Z</time></trkpt><trkpt lat="60.1178716309" lon="32.2718112264"><ele>75.27</ele><time>2024-12-05T08:25:30Z</time></trkpt><trkpt lat="60.1178695355" lon="32.2718206979"><ele>73.27</ele><time>2024-12-05T08:25:51Z</time></trkpt><trkpt lat="60.1178648416" lon="32.2718282416"><ele>75.45</ele><time>2024-12-05T08:25:53Z</time></trkpt><trkpt lat="60.1178629976" lon="32.2718203627"><ele>68.95</ele><time>2024-12-05T08:26:04Z</time></trkpt><trkpt lat="60.1178649254" lon="32.2718143277"><ele>74.90</ele><time>2024-12-05T08:26:05Z</time></trkpt><trkpt lat="60.1178683620" lon="32.2718120646"><ele>71.89</ele><time>2024-12-05T08:26:13Z</time></trkpt><trkpt lat="60.1178675238" lon="32.2718125675"><ele>71.85</ele><time>2024-12-05T08:26:14Z</time></trkpt><trkpt lat="60.1178670209" lon="32.2718129028"><ele>74.38</ele><time>2024-12-05T08:26:16Z</time></trkpt><trkpt lat="60.1178656798" lon="32.2718072031"><ele>73.73</ele><time>2024-12-05T08:26:34Z</time></trkpt><trkpt lat="60.1178678591" lon="32.2718206141"><ele>71.20</ele><time>2024-12-05T08:26:41Z</time></trkpt><trkpt lat="60.1178676076" lon="32.2718243022"><ele>73.48</ele><time>2024-12-05T08:26:43Z</time></trkpt><trkpt lat="60.1178639196" lon="32.2718314268"><ele>70.39</ele><time>2024-12-05T08:26:57Z</time></trkpt><trkpt lat="60.1178672723" lon="32.2718312591"><ele>70.37</ele><time>2024-12-05T08:27:15Z</time></trkpt><trkpt lat="60.1178777497" lon="32.2718076222"><ele>62.92</ele><time>2024-12-05T08:27:32Z</time></trkpt><trkpt lat="60.1178769954" lon="32.2718071193"><ele>59.79</ele><time>2024-12-05T08:27:33Z</time></trkpt><trkpt lat="60.1178819407" lon="32.2718065325"><ele>75.70</ele><time>2024-12-05T08:27:34Z</time></trkpt><trkpt lat="60.1178904902" lon="32.2718176804"><ele>70.55</ele><time>2024-12-05T08:27:37Z</time></trkpt><trkpt lat="60.1178858802" lon="32.2718210332"><ele>70.50</ele><time>2024-12-05T08:27:38Z</time></trkpt><trkpt lat="60.1178808510" lon="32.2718407307"><ele>69.95</ele><time>2024-12-05T08:27:57Z</time></trkpt><trkpt lat="60.1178687811" lon="32.2718029283"><ele>70.29</ele><time>2024-12-05T08:28:10Z</time></trkpt><trkpt lat="60.1178693678" lon="32.2718177643"><ele>69.46</ele><time>2024-12-05T08:28:36Z</time></trkpt><trkpt lat="60.1178709604" lon="32.2718168423"><ele>60.57</ele><time>2024-12-05T08:28:39Z</time></trkpt><trkpt lat="60.1178715471" lon="32.2718156688"><ele>60.54</ele><time>2024-12-05T08:28:40Z</time></trkpt><trkpt lat="60.1178717986" lon="32.2718097176"><ele>69.19</ele><time>2024-12-05T08:28:41Z</time></trkpt><trkpt lat="60.1178717986" lon="32.2718034312"><ele>73.66</ele><time>2024-12-05T08:28:42Z</time></trkpt><trkpt lat="60.1178714633" lon="32.2717998270"><ele>68.84</ele><time>2024-12-05T08:28:43Z</time></trkpt><trkpt lat="60.1178728044" lon="32.2718020901"><ele>63.69</ele><time>2024-12-05T08:28:44Z</time></trkpt><trkpt lat="60.1178709604" lon="32.2717999946"><ele>70.72</ele><time>2024-12-05T08:28:45Z</time></trkpt><trkpt lat="60.1178702898" lon="32.2718013357"><ele>71.78</ele><time>2024-12-05T08:28:47Z</time></trkpt><trkpt lat="60.1178687811" lon="32.2718024254"><ele>57.62</ele><time>2024-12-05T08:28:48Z</time></trkpt><trkpt lat="60.1178669371" lon="32.2718022577"><ele>61.31</ele><time>2024-12-05T08:28:49Z</time></trkpt><trkpt lat="60.1178652607" lon="32.2718034312"><ele>66.23</ele><time>2024-12-05T08:28:50Z</time></trkpt><trkpt lat="60.1178626623" lon="32.2718064487"><ele>71.81</ele><time>2024-12-05T08:28:52Z</time></trkpt><trkpt lat="60.1178600639" lon="32.2718067002"><ele>75.46</ele><time>2024-12-05T08:28:53Z</time></trkpt><trkpt lat="60.1178585552" lon="32.2718090471"><ele>72.01</ele><time>2024-12-05T08:28:55Z</time></trkpt><trkpt lat="60.1178600639" lon="32.2718127351"><ele>68.70</ele><time>2024-12-05T08:28:57Z</time></trkpt><trkpt lat="60.1178617403" lon="32.2718139086"><ele>68.67</ele><time>2024-12-05T08:28:58Z</time></trkpt><trkpt lat="60.1178735588" lon="32.2718378808"><ele>67.17</ele><time>2024-12-05T08:29:48Z</time></trkpt><trkpt lat="60.1178638358" lon="32.2718290798"><ele>64.52</ele><time>2024-12-05T08:31:37Z</time></trkpt><trkpt lat="60.1178781688" lon="32.2718874179"><ele>63.20</ele><time>2024-12-05T08:32:23Z</time></trkpt><trkpt lat="60.1178614050" lon="32.2719015833"><ele>62.02</ele><time>2024-12-05T08:33:04Z</time></trkpt><trkpt lat="60.1178493351" lon="32.2718776949"><ele>60.52</ele><time>2024-12-05T08:33:54Z</time></trkpt><trkpt lat="60.1178528555" lon="32.2718466818"><ele>59.43</ele><time>2024-12-05T08:34:30Z</time></trkpt><trkpt lat="60.1178532746" lon="32.2718573269"><ele>57.98</ele><time>2024-12-05T08:35:19Z</time></trkpt><trkpt lat="60.1178659312" lon="32.2718156688"><ele>56.39</ele><time>2024-12-05T08:35:30Z</time></trkpt><trkpt lat="60.1178719662" lon="32.2718181834"><ele>52.19</ele><time>2024-12-05T08:35:36Z</time></trkpt><trkpt lat="60.1178722177" lon="32.2718216199"><ele>52.17</ele><time>2024-12-05T08:35:37Z</time></trkpt><trkpt lat="60.1178733073" lon="32.2718263138"><ele>57.38</ele><time>2024-12-05T08:35:38Z</time></trkpt><trkpt lat="60.1178758219" lon="32.2718290798"><ele>57.33</ele><time>2024-12-05T08:35:39Z</time></trkpt><trkpt lat="60.1178682782" lon="32.2718328517"><ele>60.68</ele><time>2024-12-05T08:35:42Z</time></trkpt><trkpt lat="60.1178652607" lon="32.2718316782"><ele>56.85</ele><time>2024-12-05T08:35:43Z</time></trkpt><trkpt lat="60.1178634167" lon="32.2718308400"><ele>56.90</ele><time>2024-12-05T08:35:44Z</time></trkpt><trkpt lat="60.1178647578" lon="32.2718265653"><ele>52.44</ele><time>2024-12-05T08:35:47Z</time></trkpt><trkpt lat="60.1178638358" lon="32.2718250565"><ele>55.69</ele><time>2024-12-05T08:35:48Z</time></trkpt><trkpt lat="60.1178639196" lon="32.2718212847"><ele>58.16</ele><time>2024-12-05T08:35:50Z</time></trkpt><trkpt lat="60.1178606506" lon="32.2717938758"><ele>57.81</ele><time>2024-12-05T08:36:02Z</time></trkpt><trkpt lat="60.1178649254" lon="32.2717207856"><ele>54.74</ele><time>2024-12-05T08:36:05Z</time></trkpt><trkpt lat="60.1178670209" lon="32.2717108112"><ele>54.74</ele><time>2024-12-05T08:36:06Z</time></trkpt><trkpt lat="60.1178676914" lon="32.2717091348"><ele>57.86</ele><time>2024-12-05T08:36:08Z</time></trkpt><trkpt lat="60.1178681105" lon="32.2717088833"><ele>57.84</ele><time>2024-12-05T08:36:09Z</time></trkpt><trkpt lat="60.1178716309" lon="32.2717050277"><ele>57.68</ele><time>2024-12-05T08:36:14Z</time></trkpt><trkpt lat="60.1179199107" lon="32.2716274112"><ele>57.59</ele><time>2024-12-05T08:36:18Z</time></trkpt><trkpt lat="60.1182235032" lon="32.2711716034"><ele>57.08</ele><time>2024-12-05T08:36:34Z</time></trkpt><trkpt lat="60.1182619762" lon="32.2709565237"><ele>56.92</ele><time>2024-12-05T08:36:39Z</time></trkpt><trkpt lat="60.1182301249" lon="32.2703115363"><ele>56.42</ele><time>2024-12-05T08:36:54Z</time></trkpt><trkpt lat="60.1182533428" lon="32.2694285028"><ele>55.93</ele><time>2024-12-05T08:37:09Z</time></trkpt><trkpt lat="60.1183085795" lon="32.2687628958"><ele>55.52</ele><time>2024-12-05T08:37:22Z</time></trkpt><trkpt lat="60.1182825118" lon="32.2680481710"><ele>55.85</ele><time>2024-12-05T08:37:35Z</time></trkpt><trkpt lat="60.1181795821" lon="32.2678074427"><ele>53.24</ele><time>2024-12-05T08:37:42Z</time></trkpt><trkpt lat="60.1181763131" lon="32.2678038385"><ele>56.36</ele><time>2024-12-05T08:37:44Z</time></trkpt><trkpt lat="60.1182099245" lon="32.2675809637"><ele>56.13</ele><time>2024-12-05T08:37:51Z</time></trkpt><trkpt lat="60.1184389181" lon="32.2670560051"><ele>55.65</ele><time>2024-12-05T08:38:06Z</time></trkpt><trkpt lat="60.1186021138" lon="32.2665951680"><ele>55.31</ele><time>2024-12-05T08:38:17Z</time></trkpt><trkpt lat="60.1186166145" lon="32.2665749677"><ele>55.22</ele><time>2024-12-05T08:38:20Z</time></trkpt><trkpt lat="60.1188700832" lon="32.2664828505"><ele>54.83</ele><time>2024-12-05T08:38:33Z</time></trkpt><trkpt lat="60.1188926306" lon="32.2664681822"><ele>52.46</ele><time>2024-12-05T08:38:36Z</time></trkpt><trkpt lat="60.1190882642" lon="32.2663732991"><ele>52.10</ele><time>2024-12-05T08:38:48Z</time></trkpt><trkpt lat="60.1194772683" lon="32.2663562838"><ele>51.60</ele><time>2024-12-05T08:39:06Z</time></trkpt><trkpt lat="60.1198091917" lon="32.2662524320"><ele>51.09</ele><time>2024-12-05T08:39:24Z</time></trkpt><trkpt lat="60.1200821064" lon="32.2661999613"><ele>50.68</ele><time>2024-12-05T08:39:39Z</time></trkpt><trkpt lat="60.1204152033" lon="32.2661670204"><ele>50.25</ele><time>2024-12-05T08:39:53Z</time></trkpt><trkpt lat="60.1204967592" lon="32.2661445569"><ele>49.97</ele><time>2024-12-05T08:40:03Z</time></trkpt><trkpt lat="60.1209233981" lon="32.2659713030"><ele>48.71</ele><time>2024-12-05T08:40:21Z</time></trkpt><trkpt lat="60.1211914513" lon="32.2658946924"><ele>48.26</ele><time>2024-12-05T08:40:37Z</time></trkpt><trkpt lat="60.1213368773" lon="32.2658532020"><ele>46.71</ele><time>2024-12-05T08:40:50Z</time></trkpt><trkpt lat="60.1213775296" lon="32.2658638470"><ele>46.59</ele><time>2024-12-05T08:40:54Z</time></trkpt><trkpt lat="60.1215245482" lon="32.2659761645"><ele>46.31</ele><time>2024-12-05T08:41:04Z</time></trkpt><trkpt lat="60.1219577249" lon="32.2659472469"><ele>45.84</ele><time>2024-12-05T08:41:21Z</time></trkpt><trkpt lat="60.1222149655" lon="32.2661650088"><ele>45.52</ele><time>2024-12-05T08:41:33Z</time></trkpt><trkpt lat="60.1223313063" lon="32.2667395882"><ele>45.16</ele><time>2024-12-05T08:41:46Z</time></trkpt><trkpt lat="60.1225582883" lon="32.2675481066"><ele>44.72</ele><time>2024-12-05T08:42:02Z</time></trkpt><trkpt lat="60.1227802411" lon="32.2678617574"><ele>44.38</ele><time>2024-12-05T08:42:14Z</time></trkpt><trkpt lat="60.1228750404" lon="32.2685611434"><ele>43.98</ele><time>2024-12-05T08:42:29Z</time></trkpt><trkpt lat="60.1232321933" lon="32.2689048015"><ele>43.54</ele><time>2024-12-05T08:42:45Z</time></trkpt><trkpt lat="60.1236331835" lon="32.2690146044"><ele>43.00</ele><time>2024-12-05T08:43:04Z</time></trkpt><trkpt lat="60.1236266457" lon="32.2690028697"><ele>42.21</ele><time>2024-12-05T08:43:36Z</time></trkpt><trkpt lat="60.1236285735" lon="32.2689990140"><ele>41.58</ele><time>2024-12-05T08:44:01Z</time></trkpt><trkpt lat="60.1237878297" lon="32.2685859539"><ele>41.19</ele><time>2024-12-05T08:44:16Z</time></trkpt><trkpt lat="60.1237932779" lon="32.2685762309"><ele>40.75</ele><time>2024-12-05T08:44:34Z</time></trkpt><trkpt lat="60.1238024980" lon="32.2685439605"><ele>40.47</ele><time>2024-12-05T08:44:45Z</time></trkpt><trkpt lat="60.1237993967" lon="32.2685828526"><ele>40.41</ele><time>2024-12-05T08:44:47Z</time></trkpt><trkpt lat="60.1237990614" lon="32.2686186433"><ele>40.23</ele><time>2024-12-05T08:44:55Z</time></trkpt><trkpt lat="60.1237475127" lon="32.2685564496"><ele>40.10</ele><time>2024-12-05T08:45:00Z</time></trkpt><trkpt lat="60.1232366357" lon="32.2685163841"><ele>39.52</ele><time>2024-12-05T08:45:23Z</time></trkpt><trkpt lat="60.1228842605" lon="32.2681210097"><ele>39.09</ele><time>2024-12-05T08:45:40Z</time></trkpt><trkpt lat="60.1226614695" lon="32.2676542215"><ele>38.71</ele><time>2024-12-05T08:45:55Z</time></trkpt><trkpt lat="60.1226271037" lon="32.2676280700"><ele>38.41</ele><time>2024-12-05T08:46:07Z</time></trkpt><trkpt lat="60.1224437915" lon="32.2672432568"><ele>38.11</ele><time>2024-12-05T08:46:19Z</time></trkpt><trkpt lat="60.1222974434" lon="32.2663853690"><ele>37.72</ele><time>2024-12-05T08:46:35Z</time></trkpt><trkpt lat="60.1222854573" lon="32.2662918270"><ele>37.68</ele><time>2024-12-05T08:46:37Z</time></trkpt><trkpt lat="60.1222018059" lon="32.2661297210"><ele>33.97</ele><time>2024-12-05T08:46:49Z</time></trkpt><trkpt lat="60.1222016383" lon="32.2661262844"><ele>38.14</ele><time>2024-12-05T08:46:50Z</time></trkpt><trkpt lat="60.1222035661" lon="32.2661185730"><ele>26.85</ele><time>2024-12-05T08:46:53Z</time></trkpt><trkpt lat="60.1222040690" lon="32.2661156394"><ele>26.85</ele><time>2024-12-05T08:46:54Z</time></trkpt><trkpt lat="60.1222060807" lon="32.2661148012"><ele>42.19</ele><time>2024-12-05T08:46:55Z</time></trkpt><trkpt lat="60.1222102717" lon="32.2661194112"><ele>42.17</ele><time>2024-12-05T08:46:56Z</time></trkpt><trkpt lat="60.1222139597" lon="32.2661265358"><ele>36.99</ele><time>2024-12-05T08:46:57Z</time></trkpt><trkpt lat="60.1222153846" lon="32.2661306430"><ele>36.98</ele><time>2024-12-05T08:46:58Z</time></trkpt><trkpt lat="60.1222345792" lon="32.2662089299"><ele>35.64</ele><time>2024-12-05T08:47:17Z</time></trkpt><trkpt lat="60.1222053263" lon="32.2661274578"><ele>37.67</ele><time>2024-12-05T08:47:31Z</time></trkpt><trkpt lat="60.1221988723" lon="32.2661236860"><ele>37.64</ele><time>2024-12-05T08:47:32Z</time></trkpt><trkpt lat="60.1221964415" lon="32.2661234345"><ele>33.31</ele><time>2024-12-05T08:47:35Z</time></trkpt><trkpt lat="60.1221973635" lon="32.2661246080"><ele>33.29</ele><time>2024-12-05T08:47:36Z</time></trkpt><trkpt lat="60.1221940946" lon="32.2661378514"><ele>40.66</ele><time>2024-12-05T08:47:39Z</time></trkpt><trkpt lat="60.1221948490" lon="32.2661360912"><ele>37.37</ele><time>2024-12-05T08:47:40Z</time></trkpt><trkpt lat="60.1221946813" lon="32.2661350016"><ele>35.65</ele><time>2024-12-05T08:47:42Z</time></trkpt><trkpt lat="60.1221971121" lon="32.2661347501"><ele>38.61</ele><time>2024-12-05T08:47:46Z</time></trkpt><trkpt lat="60.1221932564" lon="32.2661391087"><ele>38.19</ele><time>2024-12-05T08:48:05Z</time></trkpt><trkpt lat="60.1221498381" lon="32.2661222611"><ele>35.76</ele><time>2024-12-05T08:48:08Z</time></trkpt><trkpt lat="60.1218697149" lon="32.2658832930"><ele>35.50</ele><time>2024-12-05T08:48:21Z</time></trkpt><trkpt lat="60.1214450877" lon="32.2659977898"><ele>35.12</ele><time>2024-12-05T08:48:38Z</time></trkpt><trkpt lat="60.1211616956" lon="32.2659591492"><ele>34.82</ele><time>2024-12-05T08:48:52Z</time></trkpt><trkpt lat="60.1209845860" lon="32.2659762483"><ele>33.10</ele><time>2024-12-05T08:49:00Z</time></trkpt><trkpt lat="60.1209452748" lon="32.2659933474"><ele>36.06</ele><time>2024-12-05T08:49:02Z</time></trkpt><trkpt lat="60.1206473820" lon="32.2660574690"><ele>35.76</ele><time>2024-12-05T08:49:17Z</time></trkpt><trkpt lat="60.1202080864" lon="32.2661761567"><ele>35.40</ele><time>2024-12-05T08:49:35Z</time></trkpt><trkpt lat="60.1198844612" lon="32.2662092652"><ele>35.15</ele><time>2024-12-05T08:49:49Z</time></trkpt><trkpt lat="60.1195584051" lon="32.2663256899"><ele>34.81</ele><time>2024-12-05T08:50:06Z</time></trkpt><trkpt lat="60.1191583369" lon="32.2663276177"><ele>34.47</ele><time>2024-12-05T08:50:25Z</time></trkpt><trkpt lat="60.1189828198" lon="32.2663977742"><ele>32.00</ele><time>2024-12-05T08:50:34Z</time></trkpt><trkpt lat="60.1186472084" lon="32.2665252630"><ele>31.73</ele><time>2024-12-05T08:50:50Z</time></trkpt><trkpt lat="60.1184479706" lon="32.2668977547"><ele>31.50</ele><time>2024-12-05T08:51:02Z</time></trkpt><trkpt lat="60.1182306278" lon="32.2674718313"><ele>31.23</ele><time>2024-12-05T08:51:17Z</time></trkpt><trkpt lat="60.1181560289" lon="32.2676387988"><ele>31.17</ele><time>2024-12-05T08:51:21Z</time></trkpt><trkpt lat="60.1182474755" lon="32.2679835465"><ele>30.94</ele><time>2024-12-05T08:51:32Z</time></trkpt><trkpt lat="60.1182664186" lon="32.2680639289"><ele>30.88</ele><time>2024-12-05T08:51:34Z</time></trkpt><trkpt lat="60.1183203980" lon="32.2685999516"><ele>30.72</ele><time>2024-12-05T08:51:45Z</time></trkpt><trkpt lat="60.1182350703" lon="32.2691812366"><ele>30.50</ele><time>2024-12-05T08:51:58Z</time></trkpt><trkpt lat="60.1182329748" lon="32.2698823828"><ele>30.29</ele><time>2024-12-05T08:52:11Z</time></trkpt><trkpt lat="60.1182561927" lon="32.2706484050"><ele>30.07</ele><time>2024-12-05T08:52:25Z</time></trkpt><trkpt lat="60.1182637364" lon="32.2708886303"><ele>29.98</ele><time>2024-12-05T08:52:31Z</time></trkpt><trkpt lat="60.1182082482" lon="32.2711655684"><ele>29.86</ele><time>2024-12-05T08:52:38Z</time></trkpt><trkpt lat="60.1179985330" lon="32.2714926302"><ele>29.71</ele><time>2024-12-05T08:52:51Z</time></trkpt><trkpt lat="60.1178207528" lon="32.2717582528"><ele>29.42</ele><time>2024-12-05T08:53:04Z</time></trkpt><trkpt lat="60.1178224292" lon="32.2717569955"><ele>27.32</ele><time>2024-12-05T08:53:11Z</time></trkpt><trkpt lat="60.1178178191" lon="32.2717544809"><ele>21.19</ele><time>2024-12-05T08:53:12Z</time></trkpt><trkpt lat="60.1178138796" lon="32.2717523016"><ele>34.04</ele><time>2024-12-05T08:53:13Z</time></trkpt><trkpt lat="60.1178116165" lon="32.2717506252"><ele>34.01</ele><time>2024-12-05T08:53:14Z</time></trkpt><trkpt lat="60.1178088505" lon="32.2717597615"><ele>29.68</ele><time>2024-12-05T08:53:16Z</time></trkpt><trkpt lat="60.1178090181" lon="32.2717569955"><ele>29.73</ele><time>2024-12-05T08:53:17Z</time></trkpt><trkpt lat="60.1178075094" lon="32.2717603482"><ele>24.93</ele><time>2024-12-05T08:53:18Z</time></trkpt><trkpt lat="60.1178080123" lon="32.2717613541"><ele>29.82</ele><time>2024-12-05T08:53:19Z</time></trkpt><trkpt lat="60.1178048272" lon="32.2717629466"><ele>30.72</ele><time>2024-12-05T08:53:21Z</time></trkpt><trkpt lat="60.1177951880" lon="32.2717596777"><ele>27.52</ele><time>2024-12-05T08:53:32Z</time></trkpt><trkpt lat="60.1177943498" lon="32.2717614379"><ele>27.51</ele><time>2024-12-05T08:53:33Z</time></trkpt><trkpt lat="60.1177957747" lon="32.2717759386"><ele>27.22</ele><time>2024-12-05T08:53:52Z</time></trkpt><trkpt lat="60.1177836210" lon="32.2717550676"><ele>25.16</ele><time>2024-12-05T08:54:14Z</time></trkpt><trkpt lat="60.1177801844" lon="32.2717535589"><ele>28.27</ele><time>2024-12-05T08:54:15Z</time></trkpt><trkpt lat="60.1177822798" lon="32.2717509605"><ele>28.24</ele><time>2024-12-05T08:54:16Z</time></trkpt><trkpt lat="60.1177766640" lon="32.2717827279"><ele>27.89</ele><time>2024-12-05T08:54:40Z</time></trkpt><trkpt lat="60.1177692041" lon="32.2717833146"><ele>25.27</ele><time>2024-12-05T08:54:45Z</time></trkpt><trkpt lat="60.1177703775" lon="32.2717844043"><ele>27.66</ele><time>2024-12-05T08:54:47Z</time></trkpt><trkpt lat="60.1177738141" lon="32.2717758548"><ele>23.04</ele><time>2024-12-05T08:54:49Z</time></trkpt><trkpt lat="60.1177692041" lon="32.2717773635"><ele>25.44</ele><time>2024-12-05T08:54:50Z</time></trkpt><trkpt lat="60.1177679468" lon="32.2717773635"><ele>27.15</ele><time>2024-12-05T08:54:52Z</time></trkpt><trkpt lat="60.1177657675" lon="32.2717785370"><ele>28.39</ele><time>2024-12-05T08:54:56Z</time></trkpt><trkpt lat="60.1177723892" lon="32.2717706580"><ele>25.63</ele><time>2024-12-05T08:55:04Z</time></trkpt><trkpt lat="60.1178137120" lon="32.2718362045"><ele>28.37</ele><time>2024-12-05T08:55:14Z</time></trkpt><trkpt lat="60.1178220939" lon="32.2718078736"><ele>24.21</ele><time>2024-12-05T08:55:34Z</time></trkpt><trkpt lat="60.1178198308" lon="32.2717963066"><ele>21.29</ele><time>2024-12-05T08:55:36Z</time></trkpt><trkpt lat="60.1178170647" lon="32.2717913613"><ele>31.34</ele><time>2024-12-05T08:55:37Z</time></trkpt><trkpt lat="60.1178151369" lon="32.2717880085"><ele>31.31</ele><time>2024-12-05T08:55:38Z</time></trkpt><trkpt lat="60.1178127900" lon="32.2717846557"><ele>27.42</ele><time>2024-12-05T08:55:39Z</time></trkpt><trkpt lat="60.1178106945" lon="32.2717902716"><ele>26.58</ele><time>2024-12-05T08:55:41Z</time></trkpt><trkpt lat="60.1178149693" lon="32.2718483582"><ele>26.35</ele><time>2024-12-05T08:55:58Z</time></trkpt><trkpt lat="60.1178239379" lon="32.2718396410"><ele>25.91</ele><time>2024-12-05T08:56:31Z</time></trkpt><trkpt lat="60.1178271230" lon="32.2718309239"><ele>25.52</ele><time>2024-12-05T08:57:01Z</time></trkpt><trkpt lat="60.1178085152" lon="32.2718341090"><ele>25.04</ele><time>2024-12-05T08:57:38Z</time></trkpt><trkpt lat="60.1178355049" lon="32.2718067002"><ele>24.39</ele><time>2024-12-05T08:58:28Z</time></trkpt><trkpt lat="60.1178438030" lon="32.2718325164"><ele>23.95</ele><time>2024-12-05T08:59:01Z</time></trkpt><trkpt lat="60.1178323198" lon="32.2718015872"><ele>23.86</ele><time>2024-12-05T08:59:16Z</time></trkpt><trkpt lat="60.1178247761" lon="32.2718255594"><ele>23.58</ele><time>2024-12-05T08:59:32Z</time></trkpt><trkpt lat="60.1178100239" lon="32.2718507890"><ele>23.08</ele><time>2024-12-05T09:00:12Z</time></trkpt><trkpt lat="60.1178160589" lon="32.2717979830"><ele>22.88</ele><time>2024-12-05T09:00:29Z</time></trkpt><trkpt lat="60.1178113651" lon="32.2718077060"><ele>22.10</ele><time>2024-12-05T09:01:36Z</time></trkpt><trkpt lat="60.1178048272" lon="32.2718096338"><ele>21.84</ele><time>2024-12-05T09:02:00Z</time></trkpt><trkpt lat="60.1178163104" lon="32.2718038503"><ele>20.33</ele><time>2024-12-05T09:02:42Z</time></trkpt><trkpt lat="60.1178055815" lon="32.2717879247"><ele>20.08</ele><time>2024-12-05T09:03:07Z</time></trkpt><trkpt lat="60.1178030670" lon="32.2717929538"><ele>19.42</ele><time>2024-12-05T09:04:13Z</time></trkpt><trkpt lat="60.1178121194" lon="32.2717760224"><ele>18.96</ele><time>2024-12-05T09:05:04Z</time></trkpt><trkpt lat="60.1177872252" lon="32.2717914451"><ele>20.70</ele><time>2024-12-05T09:05:38Z</time></trkpt><trkpt lat="60.1177883148" lon="32.2717873380"><ele>13.99</ele><time>2024-12-05T09:05:40Z</time></trkpt><trkpt lat="60.1177890692" lon="32.2717858292"><ele>20.15</ele><time>2024-12-05T09:05:41Z</time></trkpt><trkpt lat="60.1177771669" lon="32.2717637010"><ele>16.17</ele><time>2024-12-05T09:05:50Z</time></trkpt><trkpt lat="60.1177775022" lon="32.2717647068"><ele>19.98</ele><time>2024-12-05T09:05:52Z</time></trkpt><trkpt lat="60.1177775022" lon="32.2717652936"><ele>19.97</ele><time>2024-12-05T09:05:53Z</time></trkpt><trkpt lat="60.1177690364" lon="32.2717818059"><ele>20.30</ele><time>2024-12-05T09:06:37Z</time></trkpt><trkpt lat="60.1177630853" lon="32.2718025092"><ele>19.90</ele><time>2024-12-05T09:07:18Z</time></trkpt><trkpt lat="60.1177557930" lon="32.2717840690"><ele>19.45</ele><time>2024-12-05T09:08:04Z</time></trkpt><trkpt lat="60.1177582238" lon="32.2717762738"><ele>18.97</ele><time>2024-12-05T09:08:55Z</time></trkpt><trkpt lat="60.1177606545" lon="32.2717802133"><ele>16.45</ele><time>2024-12-05T09:09:03Z</time></trkpt><trkpt lat="60.1177630853" lon="32.2717791237"><ele>15.04</ele><time>2024-12-05T09:09:09Z</time></trkpt><trkpt lat="60.1177648455" lon="32.2717805486"><ele>17.54</ele><time>2024-12-05T09:09:13Z</time></trkpt><trkpt lat="60.1177723054" lon="32.2717878409"><ele>14.96</ele><time>2024-12-05T09:09:43Z</time></trkpt><trkpt lat="60.1177693717" lon="32.2717996594"><ele>13.12</ele><time>2024-12-05T09:10:25Z</time></trkpt><trkpt lat="60.1177654322" lon="32.2717841528"><ele>12.43</ele><time>2024-12-05T09:11:31Z</time></trkpt><trkpt lat="60.1177697908" lon="32.2717804648"><ele>10.68</ele><time>2024-12-05T09:12:32Z</time></trkpt><trkpt lat="60.1177782565" lon="32.2718040179"><ele>10.22</ele><time>2024-12-05T09:13:21Z</time></trkpt><trkpt lat="60.1177685335" lon="32.2718156688"><ele>9.76</ele><time>2024-12-05T09:14:11Z</time></trkpt><trkpt lat="60.1177687012" lon="32.2718148306"><ele>6.69</ele><time>2024-12-05T09:14:13Z</time></trkpt><trkpt lat="60.1177684497" lon="32.2718139924"><ele>9.81</ele><time>2024-12-05T09:14:14Z</time></trkpt><trkpt lat="60.1177684497" lon="32.2718134057"><ele>10.91</ele><time>2024-12-05T09:14:16Z</time></trkpt><trkpt lat="60.1177671924" lon="32.2718063649"><ele>8.10</ele><time>2024-12-05T09:14:27Z</time></trkpt><trkpt lat="60.1177690364" lon="32.2718044370"><ele>7.64</ele><time>2024-12-05T09:15:19Z</time></trkpt><trkpt lat="60.1177763287" lon="32.2717883438"><ele>7.21</ele><time>2024-12-05T09:16:11Z</time></trkpt><trkpt lat="60.1177713834" lon="32.2717699874"><ele>6.79</ele><time>2024-12-05T09:17:02Z</time></trkpt><trkpt lat="60.1177787594" lon="32.2717559896"><ele>6.40</ele><time>2024-12-05T09:17:56Z</time></trkpt><trkpt lat="60.1177724730" lon="32.2717673890"><ele>6.07</ele><time>2024-12-05T09:18:44Z</time></trkpt><trkpt lat="60.1177772507" lon="32.2717718314"><ele>3.27</ele><time>2024-12-05T09:19:35Z</time></trkpt><trkpt lat="60.1177780889" lon="32.2717742622"><ele>6.31</ele><time>2024-12-05T09:19:38Z</time></trkpt><trkpt lat="60.1177782565" lon="32.2717739269"><ele>9.39</ele><time>2024-12-05T09:19:39Z</time></trkpt><trkpt lat="60.1177782565" lon="32.2717735078"><ele>9.38</ele><time>2024-12-05T09:19:40Z</time></trkpt><trkpt lat="60.1177780889" lon="32.2717726696"><ele>6.20</ele><time>2024-12-05T09:19:41Z</time></trkpt><trkpt lat="60.1177780889" lon="32.2717719991"><ele>6.20</ele><time>2024-12-05T09:19:42Z</time></trkpt><trkpt lat="60.1177778374" lon="32.2717652936"><ele>4.49</ele><time>2024-12-05T09:19:45Z</time></trkpt><trkpt lat="60.1177765802" lon="32.2717567440"><ele>8.58</ele><time>2024-12-05T09:19:49Z</time></trkpt><trkpt lat="60.1177796815" lon="32.2717628628"><ele>9.72</ele><time>2024-12-05T09:19:51Z</time></trkpt><trkpt lat="60.1177807711" lon="32.2717661317"><ele>6.68</ele><time>2024-12-05T09:19:52Z</time></trkpt><trkpt lat="60.1177815255" lon="32.2717642039"><ele>5.98</ele><time>2024-12-05T09:19:54Z</time></trkpt><trkpt lat="60.1177943498" lon="32.2717909422"><ele>4.12</ele><time>2024-12-05T09:20:12Z</time></trkpt><trkpt lat="60.1177992951" lon="32.2717879247"><ele>3.97</ele><time>2024-12-05T09:20:46Z</time></trkpt><trkpt lat="60.1178047433" lon="32.2717823088"><ele>7.56</ele><time>2024-12-05T09:21:01Z</time></trkpt><trkpt lat="60.1178076770" lon="32.2717906069"><ele>7.56</ele><time>2024-12-05T09:21:02Z</time></trkpt><trkpt lat="60.1178169809" lon="32.2718067840"><ele>4.26</ele><time>2024-12-05T09:21:05Z</time></trkpt><trkpt lat="60.1178180706" lon="32.2718084604"><ele>4.26</ele><time>2024-12-05T09:21:06Z</time></trkpt><trkpt lat="60.1177975349" lon="32.2718185186"><ele>6.48</ele><time>2024-12-05T09:21:28Z</time></trkpt><trkpt lat="60.1177977864" lon="32.2718261462"><ele>1.37</ele><time>2024-12-05T09:21:45Z</time></trkpt><trkpt lat="60.1178015582" lon="32.2718320135"><ele>4.89</ele><time>2024-12-05T09:21:46Z</time></trkpt><trkpt lat="60.1178044919" lon="32.2718342766"><ele>7.55</ele><time>2024-12-05T09:21:49Z</time></trkpt><trkpt lat="60.1178003009" lon="32.2718294151"><ele>4.75</ele><time>2024-12-05T09:22:00Z</time></trkpt><trkpt lat="60.1178021450" lon="32.2718591709"><ele>4.60</ele><time>2024-12-05T09:22:42Z</time></trkpt><trkpt lat="60.1178074256" lon="32.2718446702"><ele>7.10</ele><time>2024-12-05T09:22:46Z</time></trkpt><trkpt lat="60.1178028155" lon="32.2718010843"><ele>7.00</ele><time>2024-12-05T09:23:13Z</time></trkpt><trkpt lat="60.1177671924" lon="32.2717434168"><ele>2.96</ele><time>2024-12-05T09:23:22Z</time></trkpt><trkpt lat="60.1177601516" lon="32.2717381362"><ele>7.02</ele><time>2024-12-05T09:23:23Z</time></trkpt><trkpt lat="60.1177534461" lon="32.2717317659"><ele>7.02</ele><time>2024-12-05T09:23:24Z</time></trkpt><trkpt lat="60.1177014783" lon="32.2717175167"><ele>7.93</ele><time>2024-12-05T09:23:40Z</time></trkpt><trkpt lat="60.1176419668" lon="32.2718187701"><ele>7.85</ele><time>2024-12-05T09:23:56Z</time></trkpt><trkpt lat="60.1177073456" lon="32.2717900202"><ele>7.77</ele><time>2024-12-05T09:24:18Z</time></trkpt><trkpt lat="60.1176922582" lon="32.2717659641"><ele>7.72</ele><time>2024-12-05T09:24:33Z</time></trkpt><trkpt lat="60.1176198386" lon="32.2719059419"><ele>8.46</ele><time>2024-12-05T09:24:51Z</time></trkpt><trkpt lat="60.1176102832" lon="32.2719614301"><ele>8.40</ele><time>2024-12-05T09:25:08Z</time></trkpt><trkpt lat="60.1176682860" lon="32.2718050238"><ele>8.34</ele><time>2024-12-05T09:25:24Z</time></trkpt><trkpt lat="60.1177628338" lon="32.2717737593"><ele>8.22</ele><time>2024-12-05T09:25:44Z</time></trkpt><trkpt lat="60.1178085152" lon="32.2718305048"><ele>9.11</ele><time>2024-12-05T09:25:59Z</time></trkpt><trkpt lat="60.1178092696" lon="32.2718184348"><ele>5.45</ele><time>2024-12-05T09:26:11Z</time></trkpt><trkpt lat="60.1178113651" lon="32.2718217876"><ele>5.41</ele><time>2024-12-05T09:26:12Z</time></trkpt><trkpt lat="60.1178153884" lon="32.2718259785"><ele>10.73</ele><time>2024-12-05T09:26:13Z</time></trkpt><trkpt lat="60.1178177353" lon="32.2718295828"><ele>7.68</ele><time>2024-12-05T09:26:14Z</time></trkpt><trkpt lat="60.1177941822" lon="32.2718034312"><ele>7.72</ele><time>2024-12-05T09:26:27Z</time></trkpt><trkpt lat="60.1177946012" lon="32.2718043532"><ele>0.90</ele><time>2024-12-05T09:26:31Z</time></trkpt><trkpt lat="60.1177928410" lon="32.2718041856"><ele>0.90</ele><time>2024-12-05T09:26:32Z</time></trkpt><trkpt lat="60.1177889016" lon="32.2718017548"><ele>13.86</ele><time>2024-12-05T09:26:33Z</time></trkpt><trkpt lat="60.1177855488" lon="32.2717946302"><ele>13.84</ele><time>2024-12-05T09:26:34Z</time></trkpt><trkpt lat="60.1177832019" lon="32.2717845719"><ele>8.49</ele><time>2024-12-05T09:26:36Z</time></trkpt><trkpt lat="60.1177822798" lon="32.2717869189"><ele>12.71</ele><time>2024-12-05T09:26:39Z</time></trkpt><trkpt lat="60.1177821122" lon="32.2717867512"><ele>9.76</ele><time>2024-12-05T09:26:40Z</time></trkpt><trkpt lat="60.1177825313" lon="32.2717865836"><ele>8.88</ele><time>2024-12-05T09:26:42Z</time></trkpt><trkpt lat="60.1177851297" lon="32.2717891820"><ele>1.23</ele><time>2024-12-05T09:26:57Z</time></trkpt><trkpt lat="60.1177879795" lon="32.2717903554"><ele>1.23</ele><time>2024-12-05T09:26:58Z</time></trkpt><trkpt lat="60.1177911647" lon="32.2717931215"><ele>11.08</ele><time>2024-12-05T09:26:59Z</time></trkpt><trkpt lat="60.1177931763" lon="32.2717946302"><ele>11.12</ele><time>2024-12-05T09:27:00Z</time></trkpt><trkpt lat="60.1177985407" lon="32.2718007490"><ele>7.94</ele><time>2024-12-05T09:27:03Z</time></trkpt><trkpt lat="60.1178008877" lon="32.2718015034"><ele>7.89</ele><time>2024-12-05T09:27:04Z</time></trkpt><trkpt lat="60.1177928410" lon="32.2717906069"><ele>8.56</ele><time>2024-12-05T09:27:44Z</time></trkpt><trkpt lat="60.1177846268" lon="32.2717902716"><ele>10.06</ele><time>2024-12-05T09:27:46Z</time></trkpt><trkpt lat="60.1177885663" lon="32.2717681434"><ele>9.84</ele><time>2024-12-05T09:28:16Z</time></trkpt><trkpt lat="60.1177937631" lon="32.2717292514"><ele>9.60</ele><time>2024-12-05T09:28:53Z</time></trkpt><trkpt lat="60.1178019773" lon="32.2717378847"><ele>6.21</ele><time>2024-12-05T09:29:23Z</time></trkpt><trkpt lat="60.1178070903" lon="32.2717457637"><ele>9.83</ele><time>2024-12-05T09:29:24Z</time></trkpt><trkpt lat="60.1178000495" lon="32.2717678081"><ele>8.21</ele><time>2024-12-05T09:29:32Z</time></trkpt><trkpt lat="60.1177828666" lon="32.2717590071"><ele>8.26</ele><time>2024-12-05T09:29:55Z</time></trkpt><trkpt lat="60.1178145502" lon="32.2717758548"><ele>8.16</ele><time>2024-12-05T09:30:11Z</time></trkpt><trkpt lat="60.1178067550" lon="32.2717707418"><ele>7.97</ele><time>2024-12-05T09:30:43Z</time></trkpt><trkpt lat="60.1178029831" lon="32.2717699036"><ele>7.81</ele><time>2024-12-05T09:31:11Z</time></trkpt><trkpt lat="60.1178054139" lon="32.2717778664"><ele>9.21</ele><time>2024-12-05T09:31:39Z</time></trkpt><trkpt lat="60.1178023964" lon="32.2717820574"><ele>5.34</ele><time>2024-12-05T09:31:49Z</time></trkpt><trkpt lat="60.1177983731" lon="32.2717938758"><ele>9.26</ele><time>2024-12-05T09:31:50Z</time></trkpt><trkpt lat="60.1177915838" lon="32.2718227934"><ele>5.94</ele><time>2024-12-05T09:31:56Z</time></trkpt><trkpt lat="60.1177906618" lon="32.2718237992"><ele>9.77</ele><time>2024-12-05T09:31:58Z</time></trkpt><trkpt lat="60.1177911647" lon="32.2718253918"><ele>9.76</ele><time>2024-12-05T09:31:59Z</time></trkpt><trkpt lat="60.1177882310" lon="32.2718300018"><ele>7.05</ele><time>2024-12-05T09:32:01Z</time></trkpt><trkpt lat="60.1177847106" lon="32.2718318459"><ele>9.76</ele><time>2024-12-05T09:32:03Z</time></trkpt><trkpt lat="60.1177889016" lon="32.2718191892"><ele>5.40</ele><time>2024-12-05T09:32:07Z</time></trkpt><trkpt lat="60.1177855488" lon="32.2718035989"><ele>5.52</ele><time>2024-12-05T09:32:08Z</time></trkpt><trkpt lat="60.1177830342" lon="32.2717931215"><ele>8.84</ele><time>2024-12-05T09:32:09Z</time></trkpt><trkpt lat="60.1177827828" lon="32.2717890143"><ele>8.89</ele><time>2024-12-05T09:32:10Z</time></trkpt><trkpt lat="60.1178060845" lon="32.2717560735"><ele>8.84</ele><time>2024-12-05T09:32:32Z</time></trkpt><trkpt lat="60.1178062521" lon="32.2717512120"><ele>2.86</ele><time>2024-12-05T09:32:36Z</time></trkpt><trkpt lat="60.1178024802" lon="32.2717538103"><ele>8.17</ele><time>2024-12-05T09:32:37Z</time></trkpt><trkpt lat="60.1177940145" lon="32.2717632819"><ele>9.87</ele><time>2024-12-05T09:32:39Z</time></trkpt><trkpt lat="60.1177982055" lon="32.2717897687"><ele>9.56</ele><time>2024-12-05T09:33:12Z</time></trkpt><trkpt lat="60.1178038213" lon="32.2718146630"><ele>9.36</ele><time>2024-12-05T09:33:54Z</time></trkpt><trkpt lat="60.1177997142" lon="32.2717867512"><ele>6.35</ele><time>2024-12-05T09:34:19Z</time></trkpt><trkpt lat="60.1177952718" lon="32.2717849072"><ele>6.34</ele><time>2024-12-05T09:34:20Z</time></trkpt><trkpt lat="60.1177647617" lon="32.2718067840"><ele>6.31</ele><time>2024-12-05T09:34:26Z</time></trkpt><trkpt lat="60.1177678630" lon="32.2718103044"><ele>0.18</ele><time>2024-12-05T09:34:35Z</time></trkpt><trkpt lat="60.1177688688" lon="32.2718114778"><ele>0.18</ele><time>2024-12-05T09:34:36Z</time></trkpt><trkpt lat="60.1177685335" lon="32.2718123160"><ele>4.05</ele><time>2024-12-05T09:34:37Z</time></trkpt><trkpt lat="60.1177681983" lon="32.2718122322"><ele>10.54</ele><time>2024-12-05T09:34:38Z</time></trkpt><trkpt lat="60.1177671924" lon="32.2718121484"><ele>7.92</ele><time>2024-12-05T09:34:39Z</time></trkpt><trkpt lat="60.1177642588" lon="32.2718103044"><ele>10.83</ele><time>2024-12-05T09:34:42Z</time></trkpt><trkpt lat="60.1177615765" lon="32.2718051914"><ele>7.86</ele><time>2024-12-05T09:34:46Z</time></trkpt><trkpt lat="60.1177605707" lon="32.2717968095"><ele>6.62</ele><time>2024-12-05T09:34:49Z</time></trkpt><trkpt lat="60.1177598163" lon="32.2717829794"><ele>2.27</ele><time>2024-12-05T09:34:58Z</time></trkpt><trkpt lat="60.1177596487" lon="32.2717821412"><ele>6.98</ele><time>2024-12-05T09:34:59Z</time></trkpt><trkpt lat="60.1177596487" lon="32.2717779502"><ele>8.12</ele><time>2024-12-05T09:35:01Z</time></trkpt><trkpt lat="60.1177679468" lon="32.2717477754"><ele>9.30</ele><time>2024-12-05T09:35:16Z</time></trkpt><trkpt lat="60.1177520212" lon="32.2717838176"><ele>9.04</ele><time>2024-12-05T09:36:02Z</time></trkpt><trkpt lat="60.1177464891" lon="32.2717853263"><ele>6.55</ele><time>2024-12-05T09:36:09Z</time></trkpt><trkpt lat="60.1177238580" lon="32.2717927024"><ele>5.50</ele><time>2024-12-05T09:37:03Z</time></trkpt><trkpt lat="60.1177217625" lon="32.2718017548"><ele>-0.50</ele><time>2024-12-05T09:37:43Z</time></trkpt><trkpt lat="60.1177221816" lon="32.2718027607"><ele>7.07</ele><time>2024-12-05T09:37:44Z</time></trkpt><trkpt lat="60.1177226007" lon="32.2718029283"><ele>7.06</ele><time>2024-12-05T09:37:45Z</time></trkpt><trkpt lat="60.1177247800" lon="32.2718082089"><ele>-8.70</ele><time>2024-12-05T09:37:48Z</time></trkpt><trkpt lat="60.1177251991" lon="32.2718063649"><ele>-19.01</ele><time>2024-12-05T09:37:49Z</time></trkpt><trkpt lat="60.1177260373" lon="32.2718061134"><ele>16.19</ele><time>2024-12-05T09:37:50Z</time></trkpt><trkpt lat="60.1177272946" lon="32.2718034312"><ele>9.13</ele><time>2024-12-05T09:37:52Z</time></trkpt><trkpt lat="60.1177279651" lon="32.2718040179"><ele>4.22</ele><time>2024-12-05T09:37:53Z</time></trkpt><trkpt lat="60.1177283004" lon="32.2718030959"><ele>-2.05</ele><time>2024-12-05T09:37:54Z</time></trkpt><trkpt lat="60.1177286357" lon="32.2718022577"><ele>-2.06</ele><time>2024-12-05T09:37:55Z</time></trkpt><trkpt lat="60.1177288871" lon="32.2718003299"><ele>1.63</ele><time>2024-12-05T09:37:56Z</time></trkpt><trkpt lat="60.1177294739" lon="32.2717979830"><ele>5.67</ele><time>2024-12-05T09:37:58Z</time></trkpt><trkpt lat="60.1177295577" lon="32.2717971448"><ele>5.67</ele><time>2024-12-05T09:37:59Z</time></trkpt><trkpt lat="60.1177309826" lon="32.2717972286"><ele>7.49</ele><time>2024-12-05T09:38:14Z</time></trkpt><trkpt lat="60.1177313179" lon="32.2717949655"><ele>3.80</ele><time>2024-12-05T09:38:16Z</time></trkpt><trkpt lat="60.1177324913" lon="32.2717897687"><ele>5.34</ele><time>2024-12-05T09:38:20Z</time></trkpt><trkpt lat="60.1177298930" lon="32.2717770282"><ele>3.00</ele><time>2024-12-05T09:38:27Z</time></trkpt><trkpt lat="60.1177409571" lon="32.2717835661"><ele>1.82</ele><time>2024-12-05T09:39:23Z</time></trkpt><trkpt lat="60.1177578885" lon="32.2717809677"><ele>-1.41</ele><time>2024-12-05T09:40:31Z</time></trkpt><trkpt lat="60.1177592296" lon="32.2717812192"><ele>-8.58</ele><time>2024-12-05T09:40:32Z</time></trkpt><trkpt lat="60.1177600678" lon="32.2717815544"><ele>-0.73</ele><time>2024-12-05T09:40:33Z</time></trkpt><trkpt lat="60.1177612413" lon="32.2717806324"><ele>3.67</ele><time>2024-12-05T09:40:35Z</time></trkpt><trkpt lat="60.1177612413" lon="32.2717806324"><ele>3.68</ele><time>2024-12-05T09:40:36Z</time></trkpt><trkpt lat="60.1177613251" lon="32.2717808001"><ele>0.04</ele><time>2024-12-05T09:40:38Z</time></trkpt><trkpt lat="60.1177613251" lon="32.2717809677"><ele>0.04</ele><time>2024-12-05T09:40:39Z</time></trkpt><trkpt lat="60.1177608222" lon="32.2717843205"><ele>-0.78</ele><time>2024-12-05T09:41:31Z</time></trkpt><trkpt lat="60.1177606545" lon="32.2717828117"><ele>-12.37</ele><time>2024-12-05T09:41:36Z</time></trkpt><trkpt lat="60.1177608222" lon="32.2717830632"><ele>0.93</ele><time>2024-12-05T09:41:37Z</time></trkpt><trkpt lat="60.1177609060" lon="32.2717838176"><ele>4.44</ele><time>2024-12-05T09:41:38Z</time></trkpt><trkpt lat="60.1177608222" lon="32.2717838176"><ele>1.71</ele><time>2024-12-05T09:41:39Z</time></trkpt><trkpt lat="60.1177608222" lon="32.2717846557"><ele>0.18</ele><time>2024-12-05T09:41:41Z</time></trkpt><trkpt lat="60.1177611575" lon="32.2717864998"><ele>-7.55</ele><time>2024-12-05T09:41:43Z</time></trkpt><trkpt lat="60.1177612413" lon="32.2717858292"><ele>-3.75</ele><time>2024-12-05T09:41:44Z</time></trkpt><trkpt lat="60.1177615765" lon="32.2717869189"><ele>0.39</ele><time>2024-12-05T09:41:45Z</time></trkpt><trkpt lat="60.1177622471" lon="32.2717874218"><ele>0.39</ele><time>2024-12-05T09:41:46Z</time></trkpt><trkpt lat="60.1177723054" lon="32.2717876732"><ele>-1.94</ele><time>2024-12-05T09:42:08Z</time></trkpt><trkpt lat="60.1177723892" lon="32.2717835661"><ele>-7.21</ele><time>2024-12-05T09:42:12Z</time></trkpt><trkpt lat="60.1177711319" lon="32.2717829794"><ele>5.94</ele><time>2024-12-05T09:42:15Z</time></trkpt><trkpt lat="60.1177707966" lon="32.2717828956"><ele>3.66</ele><time>2024-12-05T09:42:16Z</time></trkpt><trkpt lat="60.1177707128" lon="32.2717822250"><ele>0.18</ele><time>2024-12-05T09:42:17Z</time></trkpt><trkpt lat="60.1177700423" lon="32.2717847396"><ele>-2.19</ele><time>2024-12-05T09:42:19Z</time></trkpt><trkpt lat="60.1177704614" lon="32.2717854101"><ele>-12.09</ele><time>2024-12-05T09:42:20Z</time></trkpt><trkpt lat="60.1177705452" lon="32.2717851587"><ele>-12.09</ele><time>2024-12-05T09:42:21Z</time></trkpt><trkpt lat="60.1177702099" lon="32.2717852425"><ele>-3.09</ele><time>2024-12-05T09:42:22Z</time></trkpt><trkpt lat="60.1177697908" lon="32.2717841528"><ele>-6.35</ele><time>2024-12-05T09:42:23Z</time></trkpt><trkpt lat="60.1177699585" lon="32.2717833985"><ele>-21.58</ele><time>2024-12-05T09:42:24Z</time></trkpt><trkpt lat="60.1177684497" lon="32.2717839014"><ele>11.18</ele><time>2024-12-05T09:42:25Z</time></trkpt><trkpt lat="60.1177664381" lon="32.2717839014"><ele>4.83</ele><time>2024-12-05T09:42:27Z</time></trkpt><trkpt lat="60.1177650131" lon="32.2717839852"><ele>0.94</ele><time>2024-12-05T09:42:28Z</time></trkpt><trkpt lat="60.1177654322" lon="32.2717824765"><ele>-2.61</ele><time>2024-12-05T09:42:30Z</time></trkpt><trkpt lat="60.1177661028" lon="32.2717837337"><ele>-5.74</ele><time>2024-12-05T09:42:31Z</time></trkpt><trkpt lat="60.1177661028" lon="32.2717846557"><ele>-5.74</ele><time>2024-12-05T09:42:32Z</time></trkpt><trkpt lat="60.1177649293" lon="32.2717870865"><ele>-2.84</ele><time>2024-12-05T09:42:34Z</time></trkpt><trkpt lat="60.1177646779" lon="32.2717875056"><ele>1.42</ele><time>2024-12-05T09:42:35Z</time></trkpt><trkpt lat="60.1177643426" lon="32.2717881761"><ele>1.42</ele><time>2024-12-05T09:42:36Z</time></trkpt><trkpt lat="60.1177640073" lon="32.2717883438"><ele>-2.67</ele><time>2024-12-05T09:42:38Z</time></trkpt><trkpt lat="60.1177635044" lon="32.2717882600"><ele>-2.67</ele><time>2024-12-05T09:42:39Z</time></trkpt><trkpt lat="60.1177440584" lon="32.2717643715"><ele>-2.68</ele><time>2024-12-05T09:43:26Z</time></trkpt><trkpt lat="60.1177262049" lon="32.2718030121"><ele>-2.68</ele><time>2024-12-05T09:44:13Z</time></trkpt><trkpt lat="60.1177373528" lon="32.2718208656"><ele>-2.66</ele><time>2024-12-05T09:45:02Z</time></trkpt><trkpt lat="60.1177390292" lon="32.2718189377"><ele>-4.23</ele><time>2024-12-05T09:45:18Z</time></trkpt><trkpt lat="60.1177370176" lon="32.2718160041"><ele>1.63</ele><time>2024-12-05T09:45:32Z</time></trkpt><trkpt lat="60.1177369338" lon="32.2718164232"><ele>-1.27</ele><time>2024-12-05T09:45:33Z</time></trkpt><trkpt lat="60.1177362632" lon="32.2718158364"><ele>-6.07</ele><time>2024-12-05T09:45:34Z</time></trkpt><trkpt lat="60.1177363470" lon="32.2718159202"><ele>0.39</ele><time>2024-12-05T09:45:35Z</time></trkpt><trkpt lat="60.1177369338" lon="32.2718161717"><ele>0.39</ele><time>2024-12-05T09:45:36Z</time></trkpt><trkpt lat="60.1177403703" lon="32.2718147468"><ele>-2.39</ele><time>2024-12-05T09:45:39Z</time></trkpt><trkpt lat="60.1177465729" lon="32.2718098015"><ele>-4.22</ele><time>2024-12-05T09:46:08Z</time></trkpt><trkpt lat="60.1177577209" lon="32.2718023416"><ele>-5.43</ele><time>2024-12-05T09:46:43Z</time></trkpt><trkpt lat="60.1177641749" lon="32.2717986535"><ele>-5.39</ele><time>2024-12-05T09:47:14Z</time></trkpt><trkpt lat="60.1177576371" lon="32.2717880923"><ele>-5.35</ele><time>2024-12-05T09:47:51Z</time></trkpt><trkpt lat="60.1177461538" lon="32.2718005814"><ele>-5.33</ele><time>2024-12-05T09:48:26Z</time></trkpt><trkpt lat="60.1177376043" lon="32.2717629466"><ele>-5.29</ele><time>2024-12-05T09:49:13Z</time></trkpt><trkpt lat="60.1177300606" lon="32.2717481107"><ele>-5.25</ele><time>2024-12-05T09:49:43Z</time></trkpt><trkpt lat="60.1177172363" lon="32.2717433330"><ele>-5.22</ele><time>2024-12-05T09:50:11Z</time></trkpt><trkpt lat="60.1177292224" lon="32.2717217915"><ele>-5.20</ele><time>2024-12-05T09:50:49Z</time></trkpt><trkpt lat="60.1177345030" lon="32.2717744298"><ele>-5.17</ele><time>2024-12-05T09:51:25Z</time></trkpt><trkpt lat="60.1177448966" lon="32.2717806324"><ele>-5.17</ele><time>2024-12-05T09:51:56Z</time></trkpt><trkpt lat="60.1177421305" lon="32.2718056105"><ele>-5.20</ele><time>2024-12-05T09:52:38Z</time></trkpt><trkpt lat="60.1177410409" lon="32.2717973962"><ele>-5.24</ele><time>2024-12-05T09:53:09Z</time></trkpt><trkpt lat="60.1177355926" lon="32.2717911936"><ele>-5.34</ele><time>2024-12-05T09:53:51Z</time></trkpt><trkpt lat="60.1177357603" lon="32.2717904393"><ele>-2.96</ele><time>2024-12-05T09:53:56Z</time></trkpt><trkpt lat="60.1177493390" lon="32.2717730887"><ele>-3.09</ele><time>2024-12-05T09:54:42Z</time></trkpt><trkpt lat="60.1177500933" lon="32.2717431653"><ele>-1.58</ele><time>2024-12-05T09:55:29Z</time></trkpt><trkpt lat="60.1177488361" lon="32.2717715800"><ele>-1.71</ele><time>2024-12-05T09:56:10Z</time></trkpt><trkpt lat="60.1177422982" lon="32.2717963066"><ele>-0.92</ele><time>2024-12-05T09:56:50Z</time></trkpt><trkpt lat="60.1177578885" lon="32.2718003299"><ele>-1.08</ele><time>2024-12-05T09:57:25Z</time></trkpt><trkpt lat="60.1177609060" lon="32.2717896849"><ele>-0.52</ele><time>2024-12-05T09:58:08Z</time></trkpt><trkpt lat="60.1177598163" lon="32.2717827279"><ele>-126.44</ele><time>2024-12-05T09:58:29Z</time></trkpt></trkseg><trkseg><trkpt lat="60.1183299534" lon="32.3207000177"><ele>64.38</ele><time>2025-02-27T06:19:13Z</time></trkpt><trkpt lat="60.1183107588" lon="32.3206270114"><ele>63.31</ele><time>2025-02-27T06:22:11Z</time></trkpt><trkpt lat="60.1184520777" lon="32.3204379156"><ele>60.29</ele><time>2025-02-27T06:24:06Z</time></trkpt><trkpt lat="60.1183727849" lon="32.3205262609"><ele>59.05</ele><time>2025-02-27T06:25:47Z</time></trkpt><trkpt lat="60.1184249204" lon="32.3204655759"><ele>58.51</ele><time>2025-02-27T06:26:30Z</time></trkpt><trkpt lat="60.1183922309" lon="32.3205494788"><ele>58.31</ele><time>2025-02-27T06:26:45Z</time></trkpt><trkpt lat="60.1183605473" lon="32.3209212162"><ele>57.88</ele><time>2025-02-27T06:27:16Z</time></trkpt><trkpt lat="60.1185363997" lon="32.3208634648"><ele>56.98</ele><time>2025-02-27T06:28:35Z</time></trkpt><trkpt lat="60.1183362398" lon="32.3204177152"><ele>55.65</ele><time>2025-02-27T06:30:20Z</time></trkpt><trkpt lat="60.1183664147" lon="32.3204913083"><ele>54.40</ele><time>2025-02-27T06:33:11Z</time></trkpt><trkpt lat="60.1185449492" lon="32.3209719267"><ele>54.08</ele><time>2025-02-27T06:35:21Z</time></trkpt><trkpt lat="60.1185215637" lon="32.3208606150"><ele>53.95</ele><time>2025-02-27T06:36:04Z</time></trkpt><trkpt lat="60.1182865351" lon="32.3204185534"><ele>53.72</ele><time>2025-02-27T06:37:15Z</time></trkpt><trkpt lat="60.1182774827" lon="32.3203639034"><ele>53.65</ele><time>2025-02-27T06:37:57Z</time></trkpt><trkpt lat="60.1183409337" lon="32.3205265962"><ele>53.65</ele><time>2025-02-27T06:38:12Z</time></trkpt><trkpt lat="60.1183584519" lon="32.3205851018"><ele>53.65</ele><time>2025-02-27T06:38:16Z</time></trkpt><trkpt lat="60.1183850225" lon="32.3206747882"><ele>53.65</ele><time>2025-02-27T06:38:21Z</time></trkpt><trkpt lat="60.1184539218" lon="32.3208368942"><ele>53.65</ele><time>2025-02-27T06:38:50Z</time></trkpt><trkpt lat="60.1185001899" lon="32.3209620360"><ele>53.66</ele><time>2025-02-27T06:40:05Z</time></trkpt><trkpt lat="60.1184923109" lon="32.3209327832"><ele>53.67</ele><time>2025-02-27T06:40:08Z</time></trkpt></trkseg><trkseg><trkpt lat="60.2379514463" lon="32.3579578288"><ele>-8.55</ele><time>2025-03-15T08:59:25Z</time></trkpt><trkpt lat="60.2379625104" lon="32.3579422385"><ele>-10.21</ele><time>2025-03-15T09:00:05Z</time></trkpt><trkpt lat="60.2379560564" lon="32.3579339404"><ele>-10.15</ele><time>2025-03-15T09:00:33Z</time></trkpt><trkpt lat="60.2378628496" lon="32.3579618521"><ele>-7.72</ele><time>2025-03-15T09:00:39Z</time></trkpt><trkpt lat="60.2378224488" lon="32.3580072820"><ele>-7.78</ele><time>2025-03-15T09:00:41Z</time></trkpt><trkpt lat="60.2374953032" lon="32.3584677000"><ele>-6.54</ele><time>2025-03-15T09:00:50Z</time></trkpt><trkpt lat="60.2371836640" lon="32.3584208451"><ele>-2.50</ele><time>2025-03-15T09:00:57Z</time></trkpt><trkpt lat="60.2371661458" lon="32.3583399598"><ele>-2.52</ele><time>2025-03-15T09:00:58Z</time></trkpt><trkpt lat="60.2371188719" lon="32.3581128940"><ele>-6.15</ele><time>2025-03-15T09:01:01Z</time></trkpt><trkpt lat="60.2370959055" lon="32.3580496944"><ele>-6.19</ele><time>2025-03-15T09:01:02Z</time></trkpt><trkpt lat="60.2367473859" lon="32.3579599243"><ele>-6.06</ele><time>2025-03-15T09:01:09Z</time></trkpt><trkpt lat="60.2361536957" lon="32.3582012393"><ele>-6.22</ele><time>2025-03-15T09:01:16Z</time></trkpt><trkpt lat="60.2351360489" lon="32.3590244260"><ele>-7.07</ele><time>2025-03-15T09:01:31Z</time></trkpt><trkpt lat="60.2350452729" lon="32.3591338936"><ele>-7.07</ele><time>2025-03-15T09:01:33Z</time></trkpt><trkpt lat="60.2345493995" lon="32.3593969177"><ele>-6.96</ele><time>2025-03-15T09:01:46Z</time></trkpt><trkpt lat="60.2343688533" lon="32.3594628833"><ele>-6.85</ele><time>2025-03-15T09:01:52Z</time></trkpt><trkpt lat="60.2341726329" lon="32.3596002627"><ele>-4.12</ele><time>2025-03-15T09:01:55Z</time></trkpt><trkpt lat="60.2332382184" lon="32.3606084380"><ele>-5.65</ele><time>2025-03-15T09:02:06Z</time></trkpt><trkpt lat="60.2331566624" lon="32.3606916703"><ele>-5.63</ele><time>2025-03-15T09:02:07Z</time></trkpt><trkpt lat="60.2322233375" lon="32.3615811579"><ele>-3.21</ele><time>2025-03-15T09:02:17Z</time></trkpt><trkpt lat="60.2313898411" lon="32.3624315858"><ele>-5.56</ele><time>2025-03-15T09:02:26Z</time></trkpt><trkpt lat="60.2304828353" lon="32.3631256912"><ele>-5.59</ele><time>2025-03-15T09:02:39Z</time></trkpt><trkpt lat="60.2301406022" lon="32.3632692732"><ele>-7.46</ele><time>2025-03-15T09:02:49Z</time></trkpt><trkpt lat="60.2299675997" lon="32.3633014597"><ele>-9.57</ele><time>2025-03-15T09:03:01Z</time></trkpt><trkpt lat="60.2298748121" lon="32.3635809962"><ele>-7.47</ele><time>2025-03-15T09:03:13Z</time></trkpt><trkpt lat="60.2300016303" lon="32.3638803139"><ele>-7.39</ele><time>2025-03-15T09:03:30Z</time></trkpt><trkpt lat="60.2300324757" lon="32.3637915496"><ele>-6.39</ele><time>2025-03-15T09:03:44Z</time></trkpt><trkpt lat="60.2299578767" lon="32.3638489656"><ele>-4.34</ele><time>2025-03-15T09:03:48Z</time></trkpt><trkpt lat="60.2298935875" lon="32.3639013525"><ele>-4.36</ele><time>2025-03-15T09:03:50Z</time></trkpt><trkpt lat="60.2292220294" lon="32.3638339620"><ele>-1.95</ele><time>2025-03-15T09:04:02Z</time></trkpt><trkpt lat="60.2281172108" lon="32.3636603728"><ele>0.07</ele><time>2025-03-15T09:04:14Z</time></trkpt><trkpt lat="60.2264249045" lon="32.3633543495"><ele>0.88</ele><time>2025-03-15T09:04:28Z</time></trkpt><trkpt lat="60.2247849014" lon="32.3632292077"><ele>1.57</ele><time>2025-03-15T09:04:39Z</time></trkpt><trkpt lat="60.2230298985" lon="32.3628479987"><ele>1.52</ele><time>2025-03-15T09:04:50Z</time></trkpt><trkpt lat="60.2224011719" lon="32.3627374414"><ele>1.48</ele><time>2025-03-15T09:04:54Z</time></trkpt><trkpt lat="60.2210737299" lon="32.3633834347"><ele>2.47</ele><time>2025-03-15T09:05:03Z</time></trkpt><trkpt lat="60.2198499721" lon="32.3631552793"><ele>2.45</ele><time>2025-03-15T09:05:11Z</time></trkpt><trkpt lat="60.2178185340" lon="32.3623131495"><ele>3.17</ele><time>2025-03-15T09:05:23Z</time></trkpt><trkpt lat="60.2160497010" lon="32.3615382425"><ele>3.11</ele><time>2025-03-15T09:05:34Z</time></trkpt><trkpt lat="60.2136201225" lon="32.3604372796"><ele>4.03</ele><time>2025-03-15T09:05:48Z</time></trkpt><trkpt lat="60.2127567027" lon="32.3600204475"><ele>0.10</ele><time>2025-03-15T09:05:53Z</time></trkpt><trkpt lat="60.2123554610" lon="32.3597801384"><ele>-2.28</ele><time>2025-03-15T09:05:56Z</time></trkpt><trkpt lat="60.2118406445" lon="32.3595881090"><ele>-4.69</ele><time>2025-03-15T09:06:01Z</time></trkpt><trkpt lat="60.2113834117" lon="32.3594853468"><ele>-6.77</ele><time>2025-03-15T09:06:09Z</time></trkpt><trkpt lat="60.2113490459" lon="32.3594909627"><ele>-7.38</ele><time>2025-03-15T09:06:19Z</time></trkpt><trkpt lat="60.2113549970" lon="32.3595073912"><ele>-7.35</ele><time>2025-03-15T09:07:02Z</time></trkpt><trkpt lat="60.2113719285" lon="32.3595235683"><ele>-7.32</ele><time>2025-03-15T09:07:42Z</time></trkpt><trkpt lat="60.2113763709" lon="32.3595346324"><ele>-7.24</ele><time>2025-03-15T09:08:31Z</time></trkpt><trkpt lat="60.2113759518" lon="32.3595581017"><ele>-7.17</ele><time>2025-03-15T09:09:09Z</time></trkpt><trkpt lat="60.2113755327" lon="32.3595689144"><ele>-7.10</ele><time>2025-03-15T09:09:49Z</time></trkpt><trkpt lat="60.2113744430" lon="32.3595366441"><ele>-7.01</ele><time>2025-03-15T09:10:34Z</time></trkpt><trkpt lat="60.2113707550" lon="32.3595182877"><ele>-6.92</ele><time>2025-03-15T09:11:15Z</time></trkpt><trkpt lat="60.2113641333" lon="32.3595115822"><ele>-3.54</ele><time>2025-03-15T09:11:25Z</time></trkpt><trkpt lat="60.2113500517" lon="32.3595079780"><ele>-3.53</ele><time>2025-03-15T09:11:26Z</time></trkpt><trkpt lat="60.2110408433" lon="32.3593747057"><ele>-0.27</ele><time>2025-03-15T09:11:32Z</time></trkpt><trkpt lat="60.2103252802" lon="32.3589881323"><ele>2.02</ele><time>2025-03-15T09:11:39Z</time></trkpt><trkpt lat="60.2090694197" lon="32.3581341840"><ele>4.72</ele><time>2025-03-15T09:11:47Z</time></trkpt><trkpt lat="60.2065586206" lon="32.3564419616"><ele>6.80</ele><time>2025-03-15T09:12:00Z</time></trkpt><trkpt lat="60.2050808910" lon="32.3550498951"><ele>6.74</ele><time>2025-03-15T09:12:08Z</time></trkpt><trkpt lat="60.2045172919" lon="32.3546565324"><ele>7.48</ele><time>2025-03-15T09:12:11Z</time></trkpt><trkpt lat="60.2041353285" lon="32.3545997031"><ele>8.29</ele><time>2025-03-15T09:12:13Z</time></trkpt><trkpt lat="60.2035827097" lon="32.3547834344"><ele>5.49</ele><time>2025-03-15T09:12:16Z</time></trkpt><trkpt lat="60.2029064577" lon="32.3551759589"><ele>0.87</ele><time>2025-03-15T09:12:20Z</time></trkpt><trkpt lat="60.2022797428" lon="32.3552240711"><ele>0.96</ele><time>2025-03-15T09:12:24Z</time></trkpt><trkpt lat="60.2009856608" lon="32.3548175488"><ele>3.60</ele><time>2025-03-15T09:12:32Z</time></trkpt><trkpt lat="60.1986608561" lon="32.3541758303"><ele>3.53</ele><time>2025-03-15T09:12:45Z</time></trkpt><trkpt lat="60.1973728091" lon="32.3537444137"><ele>-0.04</ele><time>2025-03-15T09:12:52Z</time></trkpt><trkpt lat="60.1972000580" lon="32.3536827229"><ele>-0.05</ele><time>2025-03-15T09:12:53Z</time></trkpt><trkpt lat="60.1959291939" lon="32.3531076405"><ele>1.92</ele><time>2025-03-15T09:13:01Z</time></trkpt><trkpt lat="60.1939603686" lon="32.3520921730"><ele>3.70</ele><time>2025-03-15T09:13:12Z</time></trkpt><trkpt lat="60.1918753702" lon="32.3510949779"><ele>6.47</ele><time>2025-03-15T09:13:22Z</time></trkpt><trkpt lat="60.1893257629" lon="32.3495766800"><ele>6.36</ele><time>2025-03-15T09:13:34Z</time></trkpt><trkpt lat="60.1885022409" lon="32.3490378913"><ele>3.08</ele><time>2025-03-15T09:13:38Z</time></trkpt><trkpt lat="60.1878064591" lon="32.3484586179"><ele>0.15</ele><time>2025-03-15T09:13:42Z</time></trkpt><trkpt lat="60.1866149716" lon="32.3478310648"><ele>-2.86</ele><time>2025-03-15T09:13:50Z</time></trkpt><trkpt lat="60.1848145388" lon="32.3469089717"><ele>-3.72</ele><time>2025-03-15T09:14:05Z</time></trkpt><trkpt lat="60.1837026794" lon="32.3461250961"><ele>-4.50</ele><time>2025-03-15T09:14:17Z</time></trkpt><trkpt lat="60.1830311213" lon="32.3456997983"><ele>-5.98</ele><time>2025-03-15T09:14:25Z</time></trkpt><trkpt lat="60.1822072640" lon="32.3452643584"><ele>-2.97</ele><time>2025-03-15T09:14:38Z</time></trkpt><trkpt lat="60.1819278114" lon="32.3450538889"><ele>-1.11</ele><time>2025-03-15T09:14:41Z</time></trkpt><trkpt lat="60.1816916931" lon="32.3448882625"><ele>0.16</ele><time>2025-03-15T09:14:43Z</time></trkpt><trkpt lat="60.1806118526" lon="32.3442263436"><ele>3.03</ele><time>2025-03-15T09:14:50Z</time></trkpt><trkpt lat="60.1789040398" lon="32.3426382244"><ele>2.91</ele><time>2025-03-15T09:15:00Z</time></trkpt><trkpt lat="60.1784076635" lon="32.3421327118"><ele>-0.64</ele><time>2025-03-15T09:15:03Z</time></trkpt><trkpt lat="60.1782491617" lon="32.3419877049"><ele>-0.66</ele><time>2025-03-15T09:15:04Z</time></trkpt><trkpt lat="60.1778086089" lon="32.3416195717"><ele>-4.99</ele><time>2025-03-15T09:15:07Z</time></trkpt><trkpt lat="60.1776745822" lon="32.3415146302"><ele>-4.99</ele><time>2025-03-15T09:15:08Z</time></trkpt><trkpt lat="60.1771791279" lon="32.3410855606"><ele>-2.05</ele><time>2025-03-15T09:15:12Z</time></trkpt><trkpt lat="60.1768763736" lon="32.3406520486"><ele>-0.61</ele><time>2025-03-15T09:15:15Z</time></trkpt><trkpt lat="60.1761843637" lon="32.3397048097"><ele>-3.34</ele><time>2025-03-15T09:15:22Z</time></trkpt><trkpt lat="60.1751067862" lon="32.3387738317"><ele>-1.27</ele><time>2025-03-15T09:15:33Z</time></trkpt><trkpt lat="60.1748611964" lon="32.3386489414"><ele>-0.42</ele><time>2025-03-15T09:15:35Z</time></trkpt><trkpt lat="60.1736091077" lon="32.3376146145"><ele>1.38</ele><time>2025-03-15T09:15:44Z</time></trkpt><trkpt lat="60.1716541965" lon="32.3359924648"><ele>2.74</ele><time>2025-03-15T09:15:56Z</time></trkpt><trkpt lat="60.1687555667" lon="32.3340893537"><ele>4.38</ele><time>2025-03-15T09:16:11Z</time></trkpt><trkpt lat="60.1679425221" lon="32.3335915525"><ele>1.31</ele><time>2025-03-15T09:16:15Z</time></trkpt><trkpt lat="60.1677489839" lon="32.3334683385"><ele>1.30</ele><time>2025-03-15T09:16:16Z</time></trkpt><trkpt lat="60.1669801120" lon="32.3329256941"><ele>5.01</ele><time>2025-03-15T09:16:20Z</time></trkpt><trkpt lat="60.1667865738" lon="32.3327745683"><ele>5.01</ele><time>2025-03-15T09:16:21Z</time></trkpt><trkpt lat="60.1658254210" lon="32.3320015892"><ele>2.30</ele><time>2025-03-15T09:16:26Z</time></trkpt><trkpt lat="60.1652703714" lon="32.3316835798"><ele>1.03</ele><time>2025-03-15T09:16:29Z</time></trkpt><trkpt lat="60.1644343603" lon="32.3312436976"><ele>3.73</ele><time>2025-03-15T09:16:34Z</time></trkpt><trkpt lat="60.1641711686" lon="32.3309392668"><ele>4.88</ele><time>2025-03-15T09:16:36Z</time></trkpt><trkpt lat="60.1639396604" lon="32.3305718042"><ele>0.87</ele><time>2025-03-15T09:16:38Z</time></trkpt><trkpt lat="60.1638174523" lon="32.3303946946"><ele>0.86</ele><time>2025-03-15T09:16:39Z</time></trkpt><trkpt lat="60.1632905658" lon="32.3299269844"><ele>-1.34</ele><time>2025-03-15T09:16:43Z</time></trkpt><trkpt lat="60.1630466525" lon="32.3298051115"><ele>-3.07</ele><time>2025-03-15T09:16:45Z</time></trkpt><trkpt lat="60.1621113159" lon="32.3289036378"><ele>-5.25</ele><time>2025-03-15T09:16:54Z</time></trkpt><trkpt lat="60.1610039826" lon="32.3280096240"><ele>-6.32</ele><time>2025-03-15T09:17:07Z</time></trkpt><trkpt lat="60.1609316468" lon="32.3279770184"><ele>-6.31</ele><time>2025-03-15T09:17:08Z</time></trkpt><trkpt lat="60.1605200116" lon="32.3279998172"><ele>-3.95</ele><time>2025-03-15T09:17:14Z</time></trkpt><trkpt lat="60.1603276469" lon="32.3279581591"><ele>-2.68</ele><time>2025-03-15T09:17:16Z</time></trkpt><trkpt lat="60.1602177601" lon="32.3279434908"><ele>-1.60</ele><time>2025-03-15T09:17:17Z</time></trkpt><trkpt lat="60.1599743497" lon="32.3279760126"><ele>-0.78</ele><time>2025-03-15T09:17:19Z</time></trkpt><trkpt lat="60.1586147211" lon="32.3285242729"><ele>-0.81</ele><time>2025-03-15T09:17:28Z</time></trkpt><trkpt lat="60.1574804820" lon="32.3284237739"><ele>1.17</ele><time>2025-03-15T09:17:35Z</time></trkpt><trkpt lat="60.1564863045" lon="32.3280913476"><ele>-3.25</ele><time>2025-03-15T09:17:41Z</time></trkpt><trkpt lat="60.1563360170" lon="32.3280351888"><ele>-3.26</ele><time>2025-03-15T09:17:42Z</time></trkpt><trkpt lat="60.1548123546" lon="32.3273104895"><ele>-5.41</ele><time>2025-03-15T09:17:53Z</time></trkpt><trkpt lat="60.1544570457" lon="32.3271446116"><ele>-5.50</ele><time>2025-03-15T09:17:56Z</time></trkpt><trkpt lat="60.1542209275" lon="32.3271310329"><ele>-1.53</ele><time>2025-03-15T09:17:58Z</time></trkpt><trkpt lat="60.1540996414" lon="32.3271653987"><ele>-1.51</ele><time>2025-03-15T09:17:59Z</time></trkpt><trkpt lat="60.1539800316" lon="32.3272250779"><ele>-1.51</ele><time>2025-03-15T09:18:00Z</time></trkpt><trkpt lat="60.1533829048" lon="32.3276166804"><ele>-3.86</ele><time>2025-03-15T09:18:05Z</time></trkpt><trkpt lat="60.1518505253" lon="32.3280536290"><ele>-4.97</ele><time>2025-03-15T09:18:18Z</time></trkpt><trkpt lat="60.1513362955" lon="32.3280682974"><ele>-6.29</ele><time>2025-03-15T09:18:23Z</time></trkpt><trkpt lat="60.1504502445" lon="32.3280838877"><ele>-3.74</ele><time>2025-03-15T09:18:33Z</time></trkpt><trkpt lat="60.1502155513" lon="32.3281185888"><ele>-2.44</ele><time>2025-03-15T09:18:35Z</time></trkpt><trkpt lat="60.1496217772" lon="32.3281701375"><ele>-0.11</ele><time>2025-03-15T09:18:39Z</time></trkpt><trkpt lat="60.1492746826" lon="32.3282084428"><ele>1.17</ele><time>2025-03-15T09:18:41Z</time></trkpt><trkpt lat="60.1485462952" lon="32.3284070939"><ele>-1.95</ele><time>2025-03-15T09:18:45Z</time></trkpt><trkpt lat="60.1482183114" lon="32.3285816889"><ele>-3.04</ele><time>2025-03-15T09:18:47Z</time></trkpt><trkpt lat="60.1476364397" lon="32.3290198110"><ele>-5.01</ele><time>2025-03-15T09:18:51Z</time></trkpt><trkpt lat="60.1473727450" lon="32.3292128462"><ele>-6.23</ele><time>2025-03-15T09:18:53Z</time></trkpt><trkpt lat="60.1462849416" lon="32.3299145792"><ele>-7.38</ele><time>2025-03-15T09:19:03Z</time></trkpt><trkpt lat="60.1459074207" lon="32.3300210293"><ele>-4.96</ele><time>2025-03-15T09:19:07Z</time></trkpt><trkpt lat="60.1444256678" lon="32.3306169827"><ele>-3.08</ele><time>2025-03-15T09:19:22Z</time></trkpt><trkpt lat="60.1433797739" lon="32.3310734611"><ele>-5.82</ele><time>2025-03-15T09:19:32Z</time></trkpt><trkpt lat="60.1422801521" lon="32.3314569332"><ele>-5.73</ele><time>2025-03-15T09:19:45Z</time></trkpt><trkpt lat="60.1411720645" lon="32.3315838352"><ele>-3.32</ele><time>2025-03-15T09:19:58Z</time></trkpt><trkpt lat="60.1395981107" lon="32.3314614594"><ele>-1.77</ele><time>2025-03-15T09:20:12Z</time></trkpt><trkpt lat="60.1380002685" lon="32.3316116631"><ele>-0.99</ele><time>2025-03-15T09:20:25Z</time></trkpt><trkpt lat="60.1357895415" lon="32.3318051174"><ele>-0.19</ele><time>2025-03-15T09:20:42Z</time></trkpt><trkpt lat="60.1339654718" lon="32.3317095637"><ele>0.75</ele><time>2025-03-15T09:20:56Z</time></trkpt><trkpt lat="60.1313252561" lon="32.3314912990"><ele>0.72</ele><time>2025-03-15T09:21:16Z</time></trkpt><trkpt lat="60.1293535810" lon="32.3311638180"><ele>-1.68</ele><time>2025-03-15T09:21:31Z</time></trkpt><trkpt lat="60.1273180358" lon="32.3309173901"><ele>-1.69</ele><time>2025-03-15T09:21:48Z</time></trkpt><trkpt lat="60.1257118117" lon="32.3306651786"><ele>-1.68</ele><time>2025-03-15T09:22:01Z</time></trkpt><trkpt lat="60.1239844691" lon="32.3301596660"><ele>-1.73</ele><time>2025-03-15T09:22:15Z</time></trkpt><trkpt lat="60.1223219186" lon="32.3299486935"><ele>-1.78</ele><time>2025-03-15T09:22:29Z</time></trkpt><trkpt lat="60.1207673270" lon="32.3294798937"><ele>-4.12</ele><time>2025-03-15T09:22:43Z</time></trkpt><trkpt lat="60.1194966305" lon="32.3290484771"><ele>-5.83</ele><time>2025-03-15T09:22:57Z</time></trkpt><trkpt lat="60.1188136730" lon="32.3283481691"><ele>-6.87</ele><time>2025-03-15T09:23:09Z</time></trkpt><trkpt lat="60.1183485612" lon="32.3275372200"><ele>-7.77</ele><time>2025-03-15T09:23:25Z</time></trkpt><trkpt lat="60.1180183142" lon="32.3265841138"><ele>-8.61</ele><time>2025-03-15T09:23:43Z</time></trkpt><trkpt lat="60.1181416959" lon="32.3256820533"><ele>-8.51</ele><time>2025-03-15T09:23:56Z</time></trkpt><trkpt lat="60.1186619606" lon="32.3244339041"><ele>-8.47</ele><time>2025-03-15T09:24:12Z</time></trkpt><trkpt lat="60.1192947105" lon="32.3230931349"><ele>-8.53</ele><time>2025-03-15T09:24:26Z</time></trkpt><trkpt lat="60.1195832156" lon="32.3224791605"><ele>-6.87</ele><time>2025-03-15T09:24:37Z</time></trkpt><trkpt lat="60.1195718162" lon="32.3221034836"><ele>-6.84</ele><time>2025-03-15T09:24:42Z</time></trkpt><trkpt lat="60.1193090435" lon="32.3217586521"><ele>-5.85</ele><time>2025-03-15T09:24:53Z</time></trkpt><trkpt lat="60.1192772761" lon="32.3217213526"><ele>-4.71</ele><time>2025-03-15T09:24:55Z</time></trkpt><trkpt lat="60.1189212967" lon="32.3216254637"><ele>-4.90</ele><time>2025-03-15T09:25:09Z</time></trkpt><trkpt lat="60.1187510602" lon="32.3215340171"><ele>-7.80</ele><time>2025-03-15T09:25:22Z</time></trkpt><trkpt lat="60.1187282614" lon="32.3215244617"><ele>-5.08</ele><time>2025-03-15T09:26:05Z</time></trkpt><trkpt lat="60.1184909698" lon="32.3212058656"><ele>-5.16</ele><time>2025-03-15T09:26:18Z</time></trkpt><trkpt lat="60.1182769798" lon="32.3208920471"><ele>-7.82</ele><time>2025-03-15T09:26:33Z</time></trkpt><trkpt lat="60.1182514150" lon="32.3208976630"><ele>-8.64</ele><time>2025-03-15T09:27:04Z</time></trkpt><trkpt lat="60.1182254311" lon="32.3208803963"><ele>-8.69</ele><time>2025-03-15T09:27:42Z</time></trkpt><trkpt lat="60.1182622276" lon="32.3210720066"><ele>-8.65</ele><time>2025-03-15T09:28:00Z</time></trkpt><trkpt lat="60.1182798296" lon="32.3211258184"><ele>-8.71</ele><time>2025-03-15T09:28:39Z</time></trkpt><trkpt lat="60.1183241699" lon="32.3211496230"><ele>-8.68</ele><time>2025-03-15T09:29:18Z</time></trkpt><trkpt lat="60.1183781493" lon="32.3211261537"><ele>-8.67</ele><time>2025-03-15T09:29:39Z</time></trkpt><trkpt lat="60.1183882076" lon="32.3211432528"><ele>-8.56</ele><time>2025-03-15T09:30:21Z</time></trkpt><trkpt lat="60.1183926500" lon="32.3211481143"><ele>-8.48</ele><time>2025-03-15T09:30:56Z</time></trkpt><trkpt lat="60.1184069831" lon="32.3211319372"><ele>-9.23</ele><time>2025-03-15T09:31:27Z</time></trkpt><trkpt lat="60.1183940750" lon="32.3210807238"><ele>-6.67</ele><time>2025-03-15T09:31:32Z</time></trkpt><trkpt lat="60.1183851901" lon="32.3210235592"><ele>-3.95</ele><time>2025-03-15T09:31:41Z</time></trkpt><trkpt lat="60.1183716115" lon="32.3210027721"><ele>-6.34</ele><time>2025-03-15T09:31:43Z</time></trkpt><trkpt lat="60.1183581166" lon="32.3208974954"><ele>-4.88</ele><time>2025-03-15T09:31:58Z</time></trkpt><trkpt lat="60.1183533389" lon="32.3208773788"><ele>-4.83</ele><time>2025-03-15T09:32:03Z</time></trkpt></trkseg><trkseg><trkpt lat="60.1183800772" lon="32.3209444340"><ele>3.19</ele><time>2025-03-20T04:55:20Z</time></trkpt><trkpt lat="60.1184206456" lon="32.3208819050"><ele>3.17</ele><time>2025-03-20T04:57:30Z</time></trkpt><trkpt lat="60.1183126029" lon="32.3210582603"><ele>3.26</ele><time>2025-03-20T04:58:15Z</time></trkpt><trkpt lat="60.1182682626" lon="32.3210965656"><ele>3.45</ele><time>2025-03-20T04:58:45Z</time></trkpt><trkpt lat="60.1183147822" lon="32.3211622797"><ele>2.87</ele><time>2025-03-20T04:59:15Z</time></trkpt><trkpt lat="60.1183041371" lon="32.3212056141"><ele>3.15</ele><time>2025-03-20T04:59:46Z</time></trkpt><trkpt lat="60.1182830147" lon="32.3212341126"><ele>3.39</ele><time>2025-03-20T05:00:16Z</time></trkpt><trkpt lat="60.1183166262" lon="32.3212248925"><ele>3.53</ele><time>2025-03-20T05:00:36Z</time></trkpt><trkpt lat="60.1182985213" lon="32.3212196119"><ele>3.64</ele><time>2025-03-20T05:00:53Z</time></trkpt><trkpt lat="60.1182557736" lon="32.3212177679"><ele>3.77</ele><time>2025-03-20T05:01:15Z</time></trkpt><trkpt lat="60.1182682626" lon="32.3211564962"><ele>3.86</ele><time>2025-03-20T05:01:32Z</time></trkpt><trkpt lat="60.1183983497" lon="32.3211638723"><ele>3.55</ele><time>2025-03-20T05:02:41Z</time></trkpt><trkpt lat="60.1183839329" lon="32.3211578373"><ele>3.70</ele><time>2025-03-20T05:03:00Z</time></trkpt><trkpt lat="60.1183761377" lon="32.3211876769"><ele>3.82</ele><time>2025-03-20T05:03:18Z</time></trkpt><trkpt lat="60.1183851063" lon="32.3212126549"><ele>3.93</ele><time>2025-03-20T05:03:35Z</time></trkpt><trkpt lat="60.1183908898" lon="32.3211058695"><ele>4.04</ele><time>2025-03-20T05:04:07Z</time></trkpt><trkpt lat="60.1183162909" lon="32.3210638762"><ele>3.90</ele><time>2025-03-20T05:07:14Z</time></trkpt><trkpt lat="60.1183587871" lon="32.3208833300"><ele>3.98</ele><time>2025-03-20T05:07:41Z</time></trkpt><trkpt lat="60.1183799095" lon="32.3208694160"><ele>4.01</ele><time>2025-03-20T05:08:01Z</time></trkpt><trkpt lat="60.1184289437" lon="32.3207381554"><ele>4.04</ele><time>2025-03-20T05:08:22Z</time></trkpt><trkpt lat="60.1184631418" lon="32.3205634765"><ele>3.26</ele><time>2025-03-20T05:08:59Z</time></trkpt><trkpt lat="60.1184390020" lon="32.3206542525"><ele>3.31</ele><time>2025-03-20T05:09:56Z</time></trkpt><trkpt lat="60.1184446178" lon="32.3206906300"><ele>3.31</ele><time>2025-03-20T05:10:14Z</time></trkpt><trkpt lat="60.1184351463" lon="32.3208332900"><ele>3.28</ele><time>2025-03-20T05:10:28Z</time></trkpt><trkpt lat="60.1184140239" lon="32.3209127504"><ele>3.25</ele><time>2025-03-20T05:10:50Z</time></trkpt><trkpt lat="60.1183794905" lon="32.3209590185"><ele>3.21</ele><time>2025-03-20T05:11:36Z</time></trkpt><trkpt lat="60.1183814183" lon="32.3208240699"><ele>3.19</ele><time>2025-03-20T05:12:01Z</time></trkpt><trkpt lat="60.1184032951" lon="32.3207098246"><ele>3.22</ele><time>2025-03-20T05:13:03Z</time></trkpt><trkpt lat="60.1184281055" lon="32.3206786439"><ele>3.25</ele><time>2025-03-20T05:13:20Z</time></trkpt><trkpt lat="60.1184689254" lon="32.3205105029"><ele>3.27</ele><time>2025-03-20T05:13:38Z</time></trkpt><trkpt lat="60.1184656564" lon="32.3204562720"><ele>3.34</ele><time>2025-03-20T05:13:59Z</time></trkpt><trkpt lat="60.1184430253" lon="32.3204073217"><ele>2.59</ele><time>2025-03-20T05:14:18Z</time></trkpt><trkpt lat="60.1184322126" lon="32.3203905579"><ele>2.61</ele><time>2025-03-20T05:14:35Z</time></trkpt><trkpt lat="60.1184505690" lon="32.3205540050"><ele>2.61</ele><time>2025-03-20T05:14:56Z</time></trkpt><trkpt lat="60.1183750480" lon="32.3207680788"><ele>2.63</ele><time>2025-03-20T05:15:20Z</time></trkpt><trkpt lat="60.1183698513" lon="32.3209075537"><ele>2.67</ele><time>2025-03-20T05:16:43Z</time></trkpt><trkpt lat="60.1183054782" lon="32.3212075420"><ele>2.63</ele><time>2025-03-20T05:17:23Z</time></trkpt><trkpt lat="60.1182680950" lon="32.3212821409"><ele>2.66</ele><time>2025-03-20T05:20:41Z</time></trkpt><trkpt lat="60.1183058973" lon="32.3211569991"><ele>1.84</ele><time>2025-03-20T05:21:43Z</time></trkpt><trkpt lat="60.1183157880" lon="32.3211337812"><ele>1.85</ele><time>2025-03-20T05:21:48Z</time></trkpt></trkseg><trkseg><trkpt lat="60.1714873966" lon="32.1247803234"><ele>-3.64</ele><time>2025-05-14T17:24:21Z</time></trkpt><trkpt lat="60.1714450680" lon="32.1248540003"><ele>-3.64</ele><time>2025-05-14T17:24:34Z</time></trkpt></trkseg><trkseg><trkpt lat="59.9504552688" lon="32.1012337971"><ele>59.80</ele><time>2025-06-11T08:27:02Z</time></trkpt><trkpt lat="59.9504003674" lon="32.1013078932"><ele>59.81</ele><time>2025-06-11T08:27:23Z</time></trkpt><trkpt lat="59.9504426122" lon="32.1012700908"><ele>59.84</ele><time>2025-06-11T08:27:41Z</time></trkpt><trkpt lat="59.9503925722" lon="32.1012446936"><ele>59.87</ele><time>2025-06-11T08:28:10Z</time></trkpt><trkpt lat="59.9504183047" lon="32.1012401674"><ele>59.88</ele><time>2025-06-11T08:28:33Z</time></trkpt><trkpt lat="59.9504167121" lon="32.1012565121"><ele>59.76</ele><time>2025-06-11T08:29:09Z</time></trkpt><trkpt lat="59.9504126050" lon="32.1012782212"><ele>59.64</ele><time>2025-06-11T08:29:36Z</time></trkpt><trkpt lat="59.9504253455" lon="32.1012875251"><ele>59.58</ele><time>2025-06-11T08:30:01Z</time></trkpt><trkpt lat="59.9504331406" lon="32.1012832504"><ele>59.53</ele><time>2025-06-11T08:30:24Z</time></trkpt><trkpt lat="59.9504264351" lon="32.1012723539"><ele>59.51</ele><time>2025-06-11T08:30:47Z</time></trkpt><trkpt lat="59.9504174665" lon="32.1012503933"><ele>59.50</ele><time>2025-06-11T08:31:08Z</time></trkpt><trkpt lat="59.9504196458" lon="32.1012587752"><ele>59.50</ele><time>2025-06-11T08:31:30Z</time></trkpt><trkpt lat="59.9504298717" lon="32.1013012715"><ele>59.51</ele><time>2025-06-11T08:31:56Z</time></trkpt><trkpt lat="59.9504176341" lon="32.1012714319"><ele>59.51</ele><time>2025-06-11T08:32:14Z</time></trkpt><trkpt lat="59.9504209869" lon="32.1013067197"><ele>59.49</ele><time>2025-06-11T08:32:35Z</time></trkpt><trkpt lat="59.9504110962" lon="32.1012975834"><ele>59.51</ele><time>2025-06-11T08:32:49Z</time></trkpt><trkpt lat="59.9504195619" lon="32.1012684982"><ele>59.52</ele><time>2025-06-11T08:33:10Z</time></trkpt><trkpt lat="59.9504128564" lon="32.1012735274"><ele>59.56</ele><time>2025-06-11T08:33:30Z</time></trkpt><trkpt lat="59.9504790734" lon="32.1012415085"><ele>59.52</ele><time>2025-06-11T08:33:46Z</time></trkpt><trkpt lat="59.9504768103" lon="32.1012483817"><ele>59.54</ele><time>2025-06-11T08:34:01Z</time></trkpt><trkpt lat="59.9505058117" lon="32.1012662351"><ele>59.51</ele><time>2025-06-11T08:34:19Z</time></trkpt><trkpt lat="59.9505126011" lon="32.1012736950"><ele>59.47</ele><time>2025-06-11T08:34:38Z</time></trkpt><trkpt lat="59.9505107570" lon="32.1012881957"><ele>59.40</ele><time>2025-06-11T08:34:57Z</time></trkpt><trkpt lat="59.9505193066" lon="32.1013176162"><ele>59.33</ele><time>2025-06-11T08:35:13Z</time></trkpt><trkpt lat="59.9505181331" lon="32.1012993436"><ele>59.24</ele><time>2025-06-11T08:35:31Z</time></trkpt><trkpt lat="59.9504781514" lon="32.1012508962"><ele>59.16</ele><time>2025-06-11T08:35:47Z</time></trkpt><trkpt lat="59.9504695181" lon="32.1012324560"><ele>59.01</ele><time>2025-06-11T08:36:11Z</time></trkpt><trkpt lat="59.9504421931" lon="32.1012384072"><ele>58.87</ele><time>2025-06-11T08:36:35Z</time></trkpt><trkpt lat="59.9504020438" lon="32.1012962423"><ele>58.79</ele><time>2025-06-11T08:36:48Z</time></trkpt><trkpt lat="59.9504408520" lon="32.1012691688"><ele>58.69</ele><time>2025-06-11T08:37:05Z</time></trkpt><trkpt lat="59.9504422769" lon="32.1012509800"><ele>58.52</ele><time>2025-06-11T08:37:31Z</time></trkpt><trkpt lat="59.9504303746" lon="32.1012176201"><ele>58.36</ele><time>2025-06-11T08:37:56Z</time></trkpt><trkpt lat="59.9504402652" lon="32.1013062168"><ele>58.25</ele><time>2025-06-11T08:38:14Z</time></trkpt><trkpt lat="59.9504543468" lon="32.1013321169"><ele>58.13</ele><time>2025-06-11T08:38:32Z</time></trkpt><trkpt lat="59.9504566938" lon="32.1013595257"><ele>58.02</ele><time>2025-06-11T08:38:51Z</time></trkpt><trkpt lat="59.9504820909" lon="32.1014160197"><ele>57.89</ele><time>2025-06-11T08:39:10Z</time></trkpt><trkpt lat="59.9504524190" lon="32.1013035346"><ele>57.78</ele><time>2025-06-11T08:39:27Z</time></trkpt><trkpt lat="59.9504603818" lon="32.1012275945"><ele>57.63</ele><time>2025-06-11T08:39:52Z</time></trkpt><trkpt lat="59.9504715297" lon="32.1012784727"><ele>57.55</ele><time>2025-06-11T08:40:04Z</time></trkpt><trkpt lat="59.9504995253" lon="32.1013588551"><ele>57.40</ele><time>2025-06-11T08:40:31Z</time></trkpt><trkpt lat="59.9503965117" lon="32.1013843361"><ele>57.30</ele><time>2025-06-11T08:40:50Z</time></trkpt><trkpt lat="59.9504046421" lon="32.1013562568"><ele>57.11</ele><time>2025-06-11T08:41:20Z</time></trkpt><trkpt lat="59.9504010379" lon="32.1013644710"><ele>56.98</ele><time>2025-06-11T08:41:45Z</time></trkpt><trkpt lat="59.9503951706" lon="32.1013425104"><ele>56.86</ele><time>2025-06-11T08:42:12Z</time></trkpt><trkpt lat="59.9503912311" lon="32.1013254113"><ele>56.78</ele><time>2025-06-11T08:42:32Z</time></trkpt><trkpt lat="59.9503615592" lon="32.1012923028"><ele>56.76</ele><time>2025-06-11T08:42:36Z</time></trkpt><trkpt lat="59.9503035564" lon="32.1011882834"><ele>55.93</ele><time>2025-06-11T08:42:54Z</time></trkpt><trkpt lat="59.9502133671" lon="32.1010265127"><ele>54.99</ele><time>2025-06-11T08:43:06Z</time></trkpt><trkpt lat="59.9500620738" lon="32.1010435279"><ele>54.95</ele><time>2025-06-11T08:43:21Z</time></trkpt><trkpt lat="59.9498939328" lon="32.1010513231"><ele>54.86</ele><time>2025-06-11T08:43:35Z</time></trkpt><trkpt lat="59.9496912584" lon="32.1010201424"><ele>53.98</ele><time>2025-06-11T08:43:53Z</time></trkpt><trkpt lat="59.9496362731" lon="32.1010424383"><ele>53.97</ele><time>2025-06-11T08:43:58Z</time></trkpt><trkpt lat="59.9494766816" lon="32.1010312065"><ele>53.06</ele><time>2025-06-11T08:44:13Z</time></trkpt><trkpt lat="59.9493996520" lon="32.1010220703"><ele>53.04</ele><time>2025-06-11T08:44:20Z</time></trkpt><trkpt lat="59.9493386317" lon="32.1009478904"><ele>53.01</ele><time>2025-06-11T08:44:30Z</time></trkpt><trkpt lat="59.9493030086" lon="32.1009426098"><ele>52.96</ele><time>2025-06-11T08:44:35Z</time></trkpt><trkpt lat="59.9492764380" lon="32.1010189690"><ele>52.94</ele><time>2025-06-11T08:44:39Z</time></trkpt><trkpt lat="59.9490940478" lon="32.1010298654"><ele>52.87</ele><time>2025-06-11T08:44:55Z</time></trkpt><trkpt lat="59.9490488693" lon="32.1010230761"><ele>52.85</ele><time>2025-06-11T08:44:58Z</time></trkpt><trkpt lat="59.9490356259" lon="32.1009839326"><ele>55.15</ele><time>2025-06-11T08:45:00Z</time></trkpt><trkpt lat="59.9490122404" lon="32.1006249357"><ele>55.87</ele><time>2025-06-11T08:45:16Z</time></trkpt><trkpt lat="59.9490724225" lon="32.1005081758"><ele>55.74</ele><time>2025-06-11T08:45:30Z</time></trkpt><trkpt lat="59.9491804652" lon="32.1003899071"><ele>55.61</ele><time>2025-06-11T08:45:47Z</time></trkpt><trkpt lat="59.9492202792" lon="32.1003912482"><ele>56.99</ele><time>2025-06-11T08:46:12Z</time></trkpt><trkpt lat="59.9492482748" lon="32.1004532743"><ele>56.85</ele><time>2025-06-11T08:46:33Z</time></trkpt><trkpt lat="59.9491955526" lon="32.1004080959"><ele>57.49</ele><time>2025-06-11T08:46:52Z</time></trkpt><trkpt lat="59.9491838180" lon="32.1004246920"><ele>57.45</ele><time>2025-06-11T08:46:54Z</time></trkpt><trkpt lat="59.9490638729" lon="32.1006944217"><ele>57.36</ele><time>2025-06-11T08:47:10Z</time></trkpt><trkpt lat="59.9490461871" lon="32.1009537578"><ele>57.27</ele><time>2025-06-11T08:47:22Z</time></trkpt><trkpt lat="59.9490834028" lon="32.1011638921"><ele>57.25</ele><time>2025-06-11T08:47:32Z</time></trkpt><trkpt lat="59.9491189420" lon="32.1016062051"><ele>57.08</ele><time>2025-06-11T08:47:51Z</time></trkpt><trkpt lat="59.9491134938" lon="32.1017983183"><ele>57.00</ele><time>2025-06-11T08:48:03Z</time></trkpt><trkpt lat="59.9491050281" lon="32.1021400485"><ele>56.91</ele><time>2025-06-11T08:48:19Z</time></trkpt><trkpt lat="59.9491194449" lon="32.1024710499"><ele>56.79</ele><time>2025-06-11T08:48:35Z</time></trkpt><trkpt lat="59.9491151702" lon="32.1027351636"><ele>56.68</ele><time>2025-06-11T08:48:48Z</time></trkpt><trkpt lat="59.9491099734" lon="32.1030567773"><ele>56.55</ele><time>2025-06-11T08:49:02Z</time></trkpt><trkpt lat="59.9490886834" lon="32.1033575200"><ele>56.47</ele><time>2025-06-11T08:49:14Z</time></trkpt><trkpt lat="59.9490527250" lon="32.1036240645"><ele>56.37</ele><time>2025-06-11T08:49:28Z</time></trkpt><trkpt lat="59.9490803853" lon="32.1036211308"><ele>56.31</ele><time>2025-06-11T08:49:42Z</time></trkpt><trkpt lat="59.9491090514" lon="32.1036160178"><ele>54.00</ele><time>2025-06-11T08:49:45Z</time></trkpt><trkpt lat="59.9492201116" lon="32.1037786268"><ele>53.86</ele><time>2025-06-11T08:50:01Z</time></trkpt><trkpt lat="59.9492761027" lon="32.1039012540"><ele>53.02</ele><time>2025-06-11T08:50:12Z</time></trkpt><trkpt lat="59.9493444990" lon="32.1040064469"><ele>52.93</ele><time>2025-06-11T08:50:20Z</time></trkpt><trkpt lat="59.9493787810" lon="32.1042574011"><ele>52.73</ele><time>2025-06-11T08:50:38Z</time></trkpt><trkpt lat="59.9494644441" lon="32.1046763286"><ele>51.61</ele><time>2025-06-11T08:50:59Z</time></trkpt><trkpt lat="59.9495211896" lon="32.1050126944"><ele>51.26</ele><time>2025-06-11T08:51:19Z</time></trkpt><trkpt lat="59.9494615104" lon="32.1053971723"><ele>50.84</ele><time>2025-06-11T08:51:38Z</time></trkpt><trkpt lat="59.9494316708" lon="32.1059403196"><ele>50.42</ele><time>2025-06-11T08:51:55Z</time></trkpt><trkpt lat="59.9494154099" lon="32.1061955485"><ele>50.13</ele><time>2025-06-11T08:52:10Z</time></trkpt><trkpt lat="59.9494282342" lon="32.1064577345"><ele>49.72</ele><time>2025-06-11T08:52:27Z</time></trkpt><trkpt lat="59.9493978079" lon="32.1067420486"><ele>49.45</ele><time>2025-06-11T08:52:41Z</time></trkpt><trkpt lat="59.9495224468" lon="32.1067557111"><ele>48.33</ele><time>2025-06-11T08:52:57Z</time></trkpt><trkpt lat="59.9495050125" lon="32.1067717206"><ele>48.10</ele><time>2025-06-11T08:53:13Z</time></trkpt><trkpt lat="59.9495034199" lon="32.1069211699"><ele>47.93</ele><time>2025-06-11T08:53:27Z</time></trkpt><trkpt lat="59.9494657852" lon="32.1072000358"><ele>47.77</ele><time>2025-06-11T08:53:44Z</time></trkpt><trkpt lat="59.9494268093" lon="32.1075930633"><ele>47.63</ele><time>2025-06-11T08:54:01Z</time></trkpt><trkpt lat="59.9494051002" lon="32.1079391520"><ele>47.47</ele><time>2025-06-11T08:54:21Z</time></trkpt><trkpt lat="59.9493832234" lon="32.1082103066"><ele>47.44</ele><time>2025-06-11T08:54:37Z</time></trkpt><trkpt lat="59.9493584968" lon="32.1086335927"><ele>47.35</ele><time>2025-06-11T08:54:57Z</time></trkpt><trkpt lat="59.9493583292" lon="32.1089706291"><ele>47.24</ele><time>2025-06-11T08:55:17Z</time></trkpt><trkpt lat="59.9493483547" lon="32.1092609782"><ele>47.14</ele><time>2025-06-11T08:55:34Z</time></trkpt><trkpt lat="59.9493419845" lon="32.1095337253"><ele>47.06</ele><time>2025-06-11T08:55:50Z</time></trkpt><trkpt lat="59.9493394699" lon="32.1097653173"><ele>46.16</ele><time>2025-06-11T08:56:07Z</time></trkpt><trkpt lat="59.9493222870" lon="32.1099945623"><ele>46.06</ele><time>2025-06-11T08:56:22Z</time></trkpt><trkpt lat="59.9493484385" lon="32.1102248132"><ele>45.96</ele><time>2025-06-11T08:56:39Z</time></trkpt><trkpt lat="59.9493276514" lon="32.1105589159"><ele>45.75</ele><time>2025-06-11T08:56:58Z</time></trkpt><trkpt lat="59.9492838979" lon="32.1108384524"><ele>45.58</ele><time>2025-06-11T08:57:14Z</time></trkpt><trkpt lat="59.9492646195" lon="32.1111324057"><ele>45.42</ele><time>2025-06-11T08:57:32Z</time></trkpt><trkpt lat="59.9492602609" lon="32.1114310529"><ele>45.32</ele><time>2025-06-11T08:57:48Z</time></trkpt><trkpt lat="59.9492726661" lon="32.1117136069"><ele>47.44</ele><time>2025-06-11T08:58:06Z</time></trkpt><trkpt lat="59.9492699839" lon="32.1119399182"><ele>47.30</ele><time>2025-06-11T08:58:22Z</time></trkpt><trkpt lat="59.9492460117" lon="32.1121924650"><ele>47.15</ele><time>2025-06-11T08:58:38Z</time></trkpt><trkpt lat="59.9492345285" lon="32.1124627814"><ele>46.99</ele><time>2025-06-11T08:58:55Z</time></trkpt><trkpt lat="59.9492133223" lon="32.1127700619"><ele>46.90</ele><time>2025-06-11T08:59:12Z</time></trkpt><trkpt lat="59.9492000788" lon="32.1130827069"><ele>46.73</ele><time>2025-06-11T08:59:30Z</time></trkpt><trkpt lat="59.9491940439" lon="32.1131927613"><ele>44.34</ele><time>2025-06-11T08:59:37Z</time></trkpt><trkpt lat="59.9491875060" lon="32.1134399436"><ele>44.25</ele><time>2025-06-11T08:59:52Z</time></trkpt><trkpt lat="59.9491787888" lon="32.1136777382"><ele>43.34</ele><time>2025-06-11T09:00:08Z</time></trkpt><trkpt lat="59.9491664674" lon="32.1139420196"><ele>43.26</ele><time>2025-06-11T09:00:22Z</time></trkpt><trkpt lat="59.9491466023" lon="32.1140757948"><ele>42.37</ele><time>2025-06-11T09:00:34Z</time></trkpt><trkpt lat="59.9491424952" lon="32.1143371426"><ele>42.30</ele><time>2025-06-11T09:00:49Z</time></trkpt><trkpt lat="59.9491186906" lon="32.1147989854"><ele>42.21</ele><time>2025-06-11T09:01:11Z</time></trkpt><trkpt lat="59.9490940478" lon="32.1151401289"><ele>41.30</ele><time>2025-06-11T09:01:28Z</time></trkpt><trkpt lat="59.9490891024" lon="32.1153262910"><ele>41.24</ele><time>2025-06-11T09:01:43Z</time></trkpt><trkpt lat="59.9490067083" lon="32.1153154783"><ele>41.17</ele><time>2025-06-11T09:02:04Z</time></trkpt><trkpt lat="59.9488526490" lon="32.1152552962"><ele>41.09</ele><time>2025-06-11T09:02:24Z</time></trkpt><trkpt lat="59.9486816581" lon="32.1152184159"><ele>41.01</ele><time>2025-06-11T09:02:43Z</time></trkpt><trkpt lat="59.9485921394" lon="32.1151575632"><ele>40.96</ele><time>2025-06-11T09:02:59Z</time></trkpt><trkpt lat="59.9484940711" lon="32.1152863931"><ele>40.93</ele><time>2025-06-11T09:03:13Z</time></trkpt><trkpt lat="59.9485551752" lon="32.1152971219"><ele>40.92</ele><time>2025-06-11T09:03:31Z</time></trkpt><trkpt lat="59.9486138485" lon="32.1152591519"><ele>40.86</ele><time>2025-06-11T09:03:48Z</time></trkpt><trkpt lat="59.9486182909" lon="32.1152221039"><ele>40.81</ele><time>2025-06-11T09:04:18Z</time></trkpt><trkpt lat="59.9486304447" lon="32.1152019035"><ele>40.80</ele><time>2025-06-11T09:04:36Z</time></trkpt><trkpt lat="59.9486306123" lon="32.1152007300"><ele>43.07</ele><time>2025-06-11T09:04:45Z</time></trkpt><trkpt lat="59.9486218113" lon="32.1152003948"><ele>43.05</ele><time>2025-06-11T09:05:06Z</time></trkpt><trkpt lat="59.9486051314" lon="32.1152073517"><ele>43.80</ele><time>2025-06-11T09:05:27Z</time></trkpt><trkpt lat="59.9486073107" lon="32.1152076870"><ele>43.74</ele><time>2025-06-11T09:05:58Z</time></trkpt><trkpt lat="59.9486068916" lon="32.1152158175"><ele>43.68</ele><time>2025-06-11T09:06:32Z</time></trkpt><trkpt lat="59.9486043770" lon="32.1151999757"><ele>44.37</ele><time>2025-06-11T09:06:59Z</time></trkpt><trkpt lat="59.9485999346" lon="32.1151893307"><ele>44.29</ele><time>2025-06-11T09:07:32Z</time></trkpt><trkpt lat="59.9486029521" lon="32.1151941083"><ele>44.23</ele><time>2025-06-11T09:07:59Z</time></trkpt><trkpt lat="59.9485985935" lon="32.1151585691"><ele>44.18</ele><time>2025-06-11T09:08:30Z</time></trkpt><trkpt lat="59.9486380722" lon="32.1151773445"><ele>44.16</ele><time>2025-06-11T09:09:00Z</time></trkpt><trkpt lat="59.9486437719" lon="32.1151894145"><ele>44.14</ele><time>2025-06-11T09:09:04Z</time></trkpt><trkpt lat="59.9486881960" lon="32.1152221877"><ele>44.13</ele><time>2025-06-11T09:09:11Z</time></trkpt><trkpt lat="59.9485862721" lon="32.1152177453"><ele>44.12</ele><time>2025-06-11T09:09:24Z</time></trkpt><trkpt lat="59.9486523215" lon="32.1150721516"><ele>44.11</ele><time>2025-06-11T09:09:30Z</time></trkpt><trkpt lat="59.9486627150" lon="32.1146086324"><ele>44.12</ele><time>2025-06-11T09:09:46Z</time></trkpt><trkpt lat="59.9486927222" lon="32.1141063888"><ele>44.05</ele><time>2025-06-11T09:10:03Z</time></trkpt><trkpt lat="59.9487104081" lon="32.1133489162"><ele>43.87</ele><time>2025-06-11T09:10:19Z</time></trkpt><trkpt lat="59.9487467855" lon="32.1121877711"><ele>44.51</ele><time>2025-06-11T09:10:41Z</time></trkpt><trkpt lat="59.9487604480" lon="32.1115054004"><ele>44.34</ele><time>2025-06-11T09:10:54Z</time></trkpt><trkpt lat="59.9487871863" lon="32.1107849758"><ele>44.21</ele><time>2025-06-11T09:11:09Z</time></trkpt><trkpt lat="59.9488161877" lon="32.1103292517"><ele>44.06</ele><time>2025-06-11T09:11:26Z</time></trkpt><trkpt lat="59.9488349631" lon="32.1098881960"><ele>44.76</ele><time>2025-06-11T09:11:43Z</time></trkpt><trkpt lat="59.9488340411" lon="32.1094979346"><ele>44.64</ele><time>2025-06-11T09:11:59Z</time></trkpt><trkpt lat="59.9488477875" lon="32.1088108700"><ele>44.45</ele><time>2025-06-11T09:12:19Z</time></trkpt><trkpt lat="59.9488746934" lon="32.1077477094"><ele>44.29</ele><time>2025-06-11T09:12:37Z</time></trkpt><trkpt lat="59.9489258230" lon="32.1066358499"><ele>44.17</ele><time>2025-06-11T09:12:53Z</time></trkpt><trkpt lat="59.9489994999" lon="32.1054156125"><ele>44.88</ele><time>2025-06-11T09:13:13Z</time></trkpt><trkpt lat="59.9490414094" lon="32.1043496858"><ele>45.58</ele><time>2025-06-11T09:13:29Z</time></trkpt><trkpt lat="59.9490648787" lon="32.1032519080"><ele>45.42</ele><time>2025-06-11T09:13:45Z</time></trkpt><trkpt lat="59.9491243064" lon="32.1021382883"><ele>45.18</ele><time>2025-06-11T09:14:00Z</time></trkpt><trkpt lat="59.9491752684" lon="32.1014231443"><ele>45.77</ele><time>2025-06-11T09:14:15Z</time></trkpt><trkpt lat="59.9491886795" lon="32.1013769601"><ele>45.74</ele><time>2025-06-11T09:14:17Z</time></trkpt><trkpt lat="59.9492098019" lon="32.1013470367"><ele>45.73</ele><time>2025-06-11T09:14:18Z</time></trkpt><trkpt lat="59.9492343608" lon="32.1013233159"><ele>45.72</ele><time>2025-06-11T09:14:19Z</time></trkpt><trkpt lat="59.9492673017" lon="32.1013118327"><ele>45.71</ele><time>2025-06-11T09:14:20Z</time></trkpt><trkpt lat="59.9493047688" lon="32.1013113298"><ele>45.70</ele><time>2025-06-11T09:14:21Z</time></trkpt><trkpt lat="59.9497176614" lon="32.1012281813"><ele>45.58</ele><time>2025-06-11T09:14:32Z</time></trkpt><trkpt lat="59.9500310607" lon="32.1012591105"><ele>45.44</ele><time>2025-06-11T09:14:38Z</time></trkpt><trkpt lat="59.9500690307" lon="32.1012766287"><ele>45.43</ele><time>2025-06-11T09:14:39Z</time></trkpt><trkpt lat="59.9501028098" lon="32.1012936439"><ele>45.42</ele><time>2025-06-11T09:14:40Z</time></trkpt><trkpt lat="59.9501284584" lon="32.1013145149"><ele>45.40</ele><time>2025-06-11T09:14:41Z</time></trkpt><trkpt lat="59.9501507543" lon="32.1013322845"><ele>45.39</ele><time>2025-06-11T09:14:42Z</time></trkpt><trkpt lat="59.9503648281" lon="32.1014211327"><ele>45.30</ele><time>2025-06-11T09:14:58Z</time></trkpt><trkpt lat="59.9503671750" lon="32.1013767086"><ele>45.27</ele><time>2025-06-11T09:15:32Z</time></trkpt><trkpt lat="59.9503809214" lon="32.1013266686"><ele>45.28</ele><time>2025-06-11T09:16:13Z</time></trkpt><trkpt lat="59.9503883813" lon="32.1012953203"><ele>45.34</ele><time>2025-06-11T09:16:44Z</time></trkpt><trkpt lat="59.9503822625" lon="32.1013092343"><ele>45.42</ele><time>2025-06-11T09:17:24Z</time></trkpt><trkpt lat="59.9503830168" lon="32.1013331227"><ele>45.50</ele><time>2025-06-11T09:17:57Z</time></trkpt><trkpt lat="59.9503913149" lon="32.1013652254"><ele>45.53</ele><time>2025-06-11T09:18:24Z</time></trkpt><trkpt lat="59.9503862020" lon="32.1013720147"><ele>45.56</ele><time>2025-06-11T09:19:07Z</time></trkpt><trkpt lat="59.9503948353" lon="32.1013484616"><ele>45.60</ele><time>2025-06-11T09:19:51Z</time></trkpt><trkpt lat="59.9503804184" lon="32.1013844199"><ele>45.63</ele><time>2025-06-11T09:20:28Z</time></trkpt><trkpt lat="59.9503865372" lon="32.1013826597"><ele>45.67</ele><time>2025-06-11T09:21:06Z</time></trkpt><trkpt lat="59.9503814243" lon="32.1013935562"><ele>45.69</ele><time>2025-06-11T09:21:47Z</time></trkpt><trkpt lat="59.9503839388" lon="32.1013570111"><ele>45.73</ele><time>2025-06-11T09:22:30Z</time></trkpt><trkpt lat="59.9504063185" lon="32.1013850905"><ele>45.77</ele><time>2025-06-11T09:23:09Z</time></trkpt><trkpt lat="59.9503869563" lon="32.1013460308"><ele>45.85</ele><time>2025-06-11T09:23:52Z</time></trkpt><trkpt lat="59.9504106771" lon="32.1013545804"><ele>45.95</ele><time>2025-06-11T09:24:31Z</time></trkpt><trkpt lat="59.9503860343" lon="32.1013671532"><ele>46.05</ele><time>2025-06-11T09:25:11Z</time></trkpt><trkpt lat="59.9503848609" lon="32.1013612021"><ele>46.11</ele><time>2025-06-11T09:25:53Z</time></trkpt><trkpt lat="59.9503675941" lon="32.1013435163"><ele>46.09</ele><time>2025-06-11T09:26:41Z</time></trkpt><trkpt lat="59.9503586255" lon="32.1013513114"><ele>43.55</ele><time>2025-06-11T09:27:02Z</time></trkpt><trkpt lat="59.9503515009" lon="32.1013627946"><ele>46.33</ele><time>2025-06-11T09:27:08Z</time></trkpt><trkpt lat="59.9503541831" lon="32.1013721824"><ele>46.27</ele><time>2025-06-11T09:27:45Z</time></trkpt><trkpt lat="59.9503675941" lon="32.1013223939"><ele>46.19</ele><time>2025-06-11T09:28:32Z</time></trkpt><trkpt lat="59.9503697734" lon="32.1013248246"><ele>41.98</ele><time>2025-06-11T09:29:03Z</time></trkpt><trkpt lat="59.9503701087" lon="32.1013266686"><ele>41.98</ele><time>2025-06-11T09:29:04Z</time></trkpt><trkpt lat="59.9503704440" lon="32.1013289317"><ele>46.31</ele><time>2025-06-11T09:29:06Z</time></trkpt><trkpt lat="59.9503706116" lon="32.1013306081"><ele>46.32</ele><time>2025-06-11T09:29:07Z</time></trkpt><trkpt lat="59.9503698573" lon="32.1013335418"><ele>43.84</ele><time>2025-06-11T09:29:12Z</time></trkpt><trkpt lat="59.9503775686" lon="32.1013871022"><ele>43.89</ele><time>2025-06-11T09:29:52Z</time></trkpt><trkpt lat="59.9503800832" lon="32.1013853420"><ele>42.89</ele><time>2025-06-11T09:30:34Z</time></trkpt><trkpt lat="59.9503638223" lon="32.1013254113"><ele>42.96</ele><time>2025-06-11T09:31:01Z</time></trkpt><trkpt lat="59.9503762275" lon="32.1013178676"><ele>42.98</ele><time>2025-06-11T09:31:31Z</time></trkpt><trkpt lat="59.9503747188" lon="32.1013451926"><ele>42.96</ele><time>2025-06-11T09:32:16Z</time></trkpt><trkpt lat="59.9503414426" lon="32.1012966614"><ele>42.91</ele><time>2025-06-11T09:33:06Z</time></trkpt><trkpt lat="59.9503204878" lon="32.1012732759"><ele>42.86</ele><time>2025-06-11T09:33:41Z</time></trkpt><trkpt lat="59.9503235053" lon="32.1012721024"><ele>45.36</ele><time>2025-06-11T09:33:45Z</time></trkpt><trkpt lat="59.9503616430" lon="32.1012928896"><ele>46.14</ele><time>2025-06-11T09:34:13Z</time></trkpt><trkpt lat="59.9503686000" lon="32.1013151016"><ele>46.09</ele><time>2025-06-11T09:34:38Z</time></trkpt><trkpt lat="59.9503635708" lon="32.1013531554"><ele>46.04</ele><time>2025-06-11T09:35:06Z</time></trkpt><trkpt lat="59.9503592961" lon="32.1013779659"><ele>45.97</ele><time>2025-06-11T09:35:33Z</time></trkpt><trkpt lat="59.9503708631" lon="32.1013996750"><ele>46.84</ele><time>2025-06-11T09:36:21Z</time></trkpt><trkpt lat="59.9503674265" lon="32.1013893653"><ele>46.69</ele><time>2025-06-11T09:37:06Z</time></trkpt><trkpt lat="59.9503654148" lon="32.1013714280"><ele>46.47</ele><time>2025-06-11T09:38:03Z</time></trkpt><trkpt lat="59.9503768142" lon="32.1013920475"><ele>46.27</ele><time>2025-06-11T09:38:41Z</time></trkpt><trkpt lat="59.9503729586" lon="32.1013886947"><ele>46.12</ele><time>2025-06-11T09:39:12Z</time></trkpt><trkpt lat="59.9503685161" lon="32.1013827436"><ele>45.98</ele><time>2025-06-11T09:39:46Z</time></trkpt><trkpt lat="59.9503929075" lon="32.1013833303"><ele>45.84</ele><time>2025-06-11T09:40:21Z</time></trkpt><trkpt lat="59.9504033010" lon="32.1013945621"><ele>43.42</ele><time>2025-06-11T09:40:49Z</time></trkpt><trkpt lat="59.9503914826" lon="32.1013762895"><ele>43.34</ele><time>2025-06-11T09:41:18Z</time></trkpt><trkpt lat="59.9504209030" lon="32.1013834979"><ele>43.24</ele><time>2025-06-11T09:41:55Z</time></trkpt><trkpt lat="59.9504245911" lon="32.1013800614"><ele>42.02</ele><time>2025-06-11T09:42:02Z</time></trkpt><trkpt lat="59.9504158739" lon="32.1013709251"><ele>41.97</ele><time>2025-06-11T09:42:30Z</time></trkpt><trkpt lat="59.9503992777" lon="32.1013572626"><ele>41.92</ele><time>2025-06-11T09:42:57Z</time></trkpt><trkpt lat="59.9503810052" lon="32.1013941430"><ele>41.85</ele><time>2025-06-11T09:43:30Z</time></trkpt><trkpt lat="59.9503726233" lon="32.1013625432"><ele>41.80</ele><time>2025-06-11T09:43:56Z</time></trkpt><trkpt lat="59.9503615592" lon="32.1013607830"><ele>44.07</ele><time>2025-06-11T09:44:00Z</time></trkpt><trkpt lat="59.9503096752" lon="32.1014027763"><ele>43.98</ele><time>2025-06-11T09:44:19Z</time></trkpt><trkpt lat="59.9502753094" lon="32.1014266647"><ele>44.71</ele><time>2025-06-11T09:44:39Z</time></trkpt><trkpt lat="59.9502665922" lon="32.1014453564"><ele>44.67</ele><time>2025-06-11T09:45:01Z</time></trkpt><trkpt lat="59.9502748065" lon="32.1014273353"><ele>44.65</ele><time>2025-06-11T09:45:24Z</time></trkpt><trkpt lat="59.9502713699" lon="32.1014411654"><ele>44.63</ele><time>2025-06-11T09:45:44Z</time></trkpt><trkpt lat="59.9502812605" lon="32.1014529839"><ele>44.61</ele><time>2025-06-11T09:46:14Z</time></trkpt><trkpt lat="59.9502813444" lon="32.1014456917"><ele>44.60</ele><time>2025-06-11T09:46:38Z</time></trkpt><trkpt lat="59.9502804223" lon="32.1014316939"><ele>44.58</ele><time>2025-06-11T09:47:03Z</time></trkpt><trkpt lat="59.9502859544" lon="32.1014271677"><ele>44.57</ele><time>2025-06-11T09:47:26Z</time></trkpt><trkpt lat="59.9503023829" lon="32.1014458593"><ele>44.57</ele><time>2025-06-11T09:47:50Z</time></trkpt><trkpt lat="59.9502835236" lon="32.1014295984"><ele>44.56</ele><time>2025-06-11T09:48:13Z</time></trkpt><trkpt lat="59.9503012095" lon="32.1014099009"><ele>44.54</ele><time>2025-06-11T09:48:32Z</time></trkpt><trkpt lat="59.9502769019" lon="32.1014377289"><ele>44.50</ele><time>2025-06-11T09:49:01Z</time></trkpt><trkpt lat="59.9502842780" lon="32.1014394052"><ele>25.01</ele><time>2025-06-11T09:49:16Z</time></trkpt></trkseg><trkseg><trkpt lat="59.9679619633" lon="32.4825826474"><ele>176.09</ele><time>2025-06-11T20:26:08Z</time></trkpt><trkpt lat="59.9663232174" lon="32.4825457670"><ele>176.08</ele><time>2025-06-11T20:26:13Z</time></trkpt><trkpt lat="59.9648418836" lon="32.4824841600"><ele>176.06</ele><time>2025-06-11T20:26:17Z</time></trkpt><trkpt lat="59.9633867014" lon="32.4825526401"><ele>176.07</ele><time>2025-06-11T20:26:21Z</time></trkpt><trkpt lat="59.9618932139" lon="32.4826756027"><ele>176.07</ele><time>2025-06-11T20:26:25Z</time></trkpt><trkpt lat="59.9604445696" lon="32.4828956276"><ele>176.07</ele><time>2025-06-11T20:26:29Z</time></trkpt><trkpt lat="59.9589317199" lon="32.4832283892"><ele>176.07</ele><time>2025-06-11T20:26:33Z</time></trkpt><trkpt lat="59.9574800581" lon="32.4836147111"><ele>176.08</ele><time>2025-06-11T20:26:37Z</time></trkpt><trkpt lat="59.9564396124" lon="32.4839179683"><ele>176.07</ele><time>2025-06-11T20:26:40Z</time></trkpt><trkpt lat="59.9549940694" lon="32.4844554998"><ele>176.07</ele><time>2025-06-11T20:26:44Z</time></trkpt><trkpt lat="59.9535356183" lon="32.4850736652"><ele>176.06</ele><time>2025-06-11T20:26:48Z</time></trkpt><trkpt lat="59.9521482456" lon="32.4857278727"><ele>176.06</ele><time>2025-06-11T20:26:52Z</time></trkpt><trkpt lat="59.9506649841" lon="32.4864083994"><ele>176.04</ele><time>2025-06-11T20:26:56Z</time></trkpt><trkpt lat="59.9492947105" lon="32.4873176683"><ele>176.04</ele><time>2025-06-11T20:27:00Z</time></trkpt><trkpt lat="59.9479255266" lon="32.4882732891"><ele>176.07</ele><time>2025-06-11T20:27:04Z</time></trkpt><trkpt lat="59.9465390760" lon="32.4892441649"><ele>176.07</ele><time>2025-06-11T20:27:08Z</time></trkpt><trkpt lat="59.9451373704" lon="32.4903390091"><ele>176.05</ele><time>2025-06-11T20:27:12Z</time></trkpt><trkpt lat="59.9437858723" lon="32.4914917722"><ele>176.07</ele><time>2025-06-11T20:27:16Z</time></trkpt><trkpt lat="59.9424337875" lon="32.4926597904"><ele>176.07</ele><time>2025-06-11T20:27:20Z</time></trkpt><trkpt lat="59.9411179125" lon="32.4939668644"><ele>176.06</ele><time>2025-06-11T20:27:24Z</time></trkpt><trkpt lat="59.9398045521" lon="32.4953204580"><ele>176.07</ele><time>2025-06-11T20:27:28Z</time></trkpt><trkpt lat="59.9385495298" lon="32.4967124406"><ele>176.07</ele><time>2025-06-11T20:27:32Z</time></trkpt><trkpt lat="59.9372556154" lon="32.4982303195"><ele>176.07</ele><time>2025-06-11T20:27:36Z</time></trkpt><trkpt lat="59.9360180274" lon="32.4998107273"><ele>176.07</ele><time>2025-06-11T20:27:40Z</time></trkpt><trkpt lat="59.9347906653" lon="32.5014493894"><ele>176.06</ele><time>2025-06-11T20:27:44Z</time></trkpt><trkpt lat="59.9335426837" lon="32.5031994469"><ele>176.06</ele><time>2025-06-11T20:27:48Z</time></trkpt><trkpt lat="59.9323794432" lon="32.5049464032"><ele>176.06</ele><time>2025-06-11T20:27:52Z</time></trkpt><trkpt lat="59.9312553462" lon="32.5067504402"><ele>176.06</ele><time>2025-06-11T20:27:56Z</time></trkpt><trkpt lat="59.9301195145" lon="32.5086604245"><ele>176.05</ele><time>2025-06-11T20:28:00Z</time></trkpt><trkpt lat="59.9290194735" lon="32.5106045231"><ele>176.07</ele><time>2025-06-11T20:28:04Z</time></trkpt><trkpt lat="59.9279480986" lon="32.5125984102"><ele>176.07</ele><time>2025-06-11T20:28:08Z</time></trkpt><trkpt lat="59.9268824235" lon="32.5146425888"><ele>176.07</ele><time>2025-06-11T20:28:12Z</time></trkpt><trkpt lat="59.9258740805" lon="32.5167578459"><ele>176.07</ele><time>2025-06-11T20:28:16Z</time></trkpt><trkpt lat="59.9249001034" lon="32.5189466961"><ele>176.08</ele><time>2025-06-11T20:28:20Z</time></trkpt><trkpt lat="59.9239448179" lon="32.5211369712"><ele>176.08</ele><time>2025-06-11T20:28:24Z</time></trkpt><trkpt lat="59.9230351299" lon="32.5234313495"><ele>176.08</ele><time>2025-06-11T20:28:28Z</time></trkpt><trkpt lat="59.9221214186" lon="32.5257834792"><ele>176.07</ele><time>2025-06-11T20:28:32Z</time></trkpt><trkpt lat="59.9212447554" lon="32.5281555578"><ele>176.05</ele><time>2025-06-11T20:28:36Z</time></trkpt><trkpt lat="59.9204273522" lon="32.5305791013"><ele>176.06</ele><time>2025-06-11T20:28:40Z</time></trkpt><trkpt lat="59.9196024053" lon="32.5329945982"><ele>176.09</ele><time>2025-06-11T20:28:44Z</time></trkpt><trkpt lat="59.9188942183" lon="32.5354636554"><ele>176.07</ele><time>2025-06-11T20:28:48Z</time></trkpt><trkpt lat="59.9181859475" lon="32.5380371511"><ele>176.06</ele><time>2025-06-11T20:28:52Z</time></trkpt><trkpt lat="59.9174786825" lon="32.5407370459"><ele>176.06</ele><time>2025-06-11T20:28:56Z</time></trkpt><trkpt lat="59.9167541508" lon="32.5432228670"><ele>176.06</ele><time>2025-06-11T20:29:00Z</time></trkpt><trkpt lat="59.9161673337" lon="32.5459208339"><ele>176.06</ele><time>2025-06-11T20:29:04Z</time></trkpt><trkpt lat="59.9156018905" lon="32.5499016512"><ele>176.07</ele><time>2025-06-11T20:29:09Z</time></trkpt><trkpt lat="59.9151230324" lon="32.5512340385"><ele>176.07</ele><time>2025-06-11T20:29:12Z</time></trkpt><trkpt lat="59.9145681504" lon="32.5541231968"><ele>176.07</ele><time>2025-06-11T20:29:16Z</time></trkpt><trkpt lat="59.9140975904" lon="32.5569208246"><ele>176.07</ele><time>2025-06-11T20:29:20Z</time></trkpt><trkpt lat="59.9136833567" lon="32.5597694144"><ele>176.06</ele><time>2025-06-11T20:29:24Z</time></trkpt><trkpt lat="59.9132579751" lon="32.5625620969"><ele>176.05</ele><time>2025-06-11T20:29:28Z</time></trkpt><trkpt lat="59.9128673784" lon="32.5654060766"><ele>176.05</ele><time>2025-06-11T20:29:32Z</time></trkpt><trkpt lat="59.9125826452" lon="32.5683216378"><ele>176.05</ele><time>2025-06-11T20:29:36Z</time></trkpt><trkpt lat="59.9123149272" lon="32.5711699761"><ele>176.06</ele><time>2025-06-11T20:29:40Z</time></trkpt><trkpt lat="59.9121548329" lon="32.5738737267"><ele>176.07</ele><time>2025-06-11T20:29:44Z</time></trkpt><trkpt lat="59.9119120091" lon="32.5768291857"><ele>176.07</ele><time>2025-06-11T20:29:48Z</time></trkpt><trkpt lat="59.9117636494" lon="32.5798004866"><ele>176.08</ele><time>2025-06-11T20:29:52Z</time></trkpt><trkpt lat="59.9116367474" lon="32.5826886389"><ele>176.08</ele><time>2025-06-11T20:29:56Z</time></trkpt><trkpt lat="59.9114877172" lon="32.5856320281"><ele>176.07</ele><time>2025-06-11T20:30:00Z</time></trkpt><trkpt lat="59.9115307163" lon="32.5886112917"><ele>176.06</ele><time>2025-06-11T20:30:04Z</time></trkpt><trkpt lat="59.9115444627" lon="32.5915588718"><ele>176.06</ele><time>2025-06-11T20:30:08Z</time></trkpt><trkpt lat="59.9115095939" lon="32.5945900194"><ele>176.06</ele><time>2025-06-11T20:30:12Z</time></trkpt><trkpt lat="59.9115820136" lon="32.5975406170"><ele>176.06</ele><time>2025-06-11T20:30:16Z</time></trkpt><trkpt lat="59.9117101729" lon="32.6003886200"><ele>176.06</ele><time>2025-06-11T20:30:20Z</time></trkpt><trkpt lat="59.9118453730" lon="32.6033093780"><ele>176.07</ele><time>2025-06-11T20:30:24Z</time></trkpt><trkpt lat="59.9121234845" lon="32.6061661821"><ele>176.06</ele><time>2025-06-11T20:30:28Z</time></trkpt><trkpt lat="59.9122707546" lon="32.6090701763"><ele>176.07</ele><time>2025-06-11T20:30:32Z</time></trkpt><trkpt lat="59.9125931226" lon="32.6119442470"><ele>176.07</ele><time>2025-06-11T20:30:36Z</time></trkpt><trkpt lat="59.9129816238" lon="32.6148602273"><ele>176.08</ele><time>2025-06-11T20:30:40Z</time></trkpt><trkpt lat="59.9133172352" lon="32.6176013611"><ele>176.06</ele><time>2025-06-11T20:30:44Z</time></trkpt><trkpt lat="59.9137094244" lon="32.6205160003"><ele>176.06</ele><time>2025-06-11T20:30:48Z</time></trkpt><trkpt lat="59.9141878635" lon="32.6233054139"><ele>176.05</ele><time>2025-06-11T20:30:52Z</time></trkpt><trkpt lat="59.9146461021" lon="32.6261894591"><ele>176.06</ele><time>2025-06-11T20:30:56Z</time></trkpt><trkpt lat="59.9151466694" lon="32.6288538147"><ele>176.05</ele><time>2025-06-11T20:31:00Z</time></trkpt><trkpt lat="59.9156927504" lon="32.6315506920"><ele>176.07</ele><time>2025-06-11T20:31:04Z</time></trkpt><trkpt lat="59.9162830878" lon="32.6342360023"><ele>176.07</ele><time>2025-06-11T20:31:08Z</time></trkpt><trkpt lat="59.9168482795" lon="32.6369221509"><ele>176.07</ele><time>2025-06-11T20:31:12Z</time></trkpt><trkpt lat="59.9175728112" lon="32.6395087224"><ele>176.08</ele><time>2025-06-11T20:31:16Z</time></trkpt><trkpt lat="59.9182771426" lon="32.6420801226"><ele>176.08</ele><time>2025-06-11T20:31:20Z</time></trkpt><trkpt lat="59.9189818930" lon="32.6446314901"><ele>176.07</ele><time>2025-06-11T20:31:24Z</time></trkpt><trkpt lat="59.9197386112" lon="32.6471442170"><ele>176.06</ele><time>2025-06-11T20:31:28Z</time></trkpt><trkpt lat="59.9205601215" lon="32.6496152021"><ele>176.07</ele><time>2025-06-11T20:31:32Z</time></trkpt><trkpt lat="59.9213813804" lon="32.6519343909"><ele>176.07</ele><time>2025-06-11T20:31:36Z</time></trkpt><trkpt lat="59.9222762324" lon="32.6543482952"><ele>176.07</ele><time>2025-06-11T20:31:40Z</time></trkpt><trkpt lat="59.9230999220" lon="32.6567365509"><ele>176.07</ele><time>2025-06-11T20:31:44Z</time></trkpt><trkpt lat="59.9241029844" lon="32.6589829009"><ele>176.07</ele><time>2025-06-11T20:31:48Z</time></trkpt><trkpt lat="59.9250116665" lon="32.6612491161"><ele>176.07</ele><time>2025-06-11T20:31:52Z</time></trkpt><trkpt lat="59.9260408804" lon="32.6633654628"><ele>176.05</ele><time>2025-06-11T20:31:56Z</time></trkpt><trkpt lat="59.9270341359" lon="32.6654712483"><ele>176.06</ele><time>2025-06-11T20:32:00Z</time></trkpt><trkpt lat="59.9281481747" lon="32.6674233098"><ele>176.07</ele><time>2025-06-11T20:32:04Z</time></trkpt><trkpt lat="59.9291988462" lon="32.6694939751"><ele>176.07</ele><time>2025-06-11T20:32:08Z</time></trkpt><trkpt lat="59.9302820396" lon="32.6714809891"><ele>176.07</ele><time>2025-06-11T20:32:12Z</time></trkpt><trkpt lat="59.9313850980" lon="32.6734141074"><ele>176.07</ele><time>2025-06-11T20:32:16Z</time></trkpt><trkpt lat="59.9326437246" lon="32.6749534439"><ele>176.08</ele><time>2025-06-11T20:32:20Z</time></trkpt><trkpt lat="59.9337176140" lon="32.6768775098"><ele>176.07</ele><time>2025-06-11T20:32:24Z</time></trkpt><trkpt lat="59.9349620752" lon="32.6785816345"><ele>176.08</ele><time>2025-06-11T20:32:28Z</time></trkpt><trkpt lat="59.9362141639" lon="32.6801120862"><ele>176.07</ele><time>2025-06-11T20:32:32Z</time></trkpt><trkpt lat="59.9374721199" lon="32.6817270275"><ele>176.07</ele><time>2025-06-11T20:32:36Z</time></trkpt><trkpt lat="59.9387270585" lon="32.6832348481"><ele>176.07</ele><time>2025-06-11T20:32:40Z</time></trkpt><trkpt lat="59.9400180392" lon="32.6846870128"><ele>176.06</ele><time>2025-06-11T20:32:44Z</time></trkpt><trkpt lat="59.9412769172" lon="32.6860246807"><ele>176.06</ele><time>2025-06-11T20:32:48Z</time></trkpt><trkpt lat="59.9426212069" lon="32.6872901805"><ele>176.06</ele><time>2025-06-11T20:32:52Z</time></trkpt><trkpt lat="59.9439643230" lon="32.6885213144"><ele>176.06</ele><time>2025-06-11T20:32:56Z</time></trkpt><trkpt lat="59.9453504384" lon="32.6896651089"><ele>176.06</ele><time>2025-06-11T20:33:00Z</time></trkpt><trkpt lat="59.9467071332" lon="32.6906672493"><ele>176.09</ele><time>2025-06-11T20:33:04Z</time></trkpt><trkpt lat="59.9481271952" lon="32.6915504504"><ele>176.08</ele><time>2025-06-11T20:33:08Z</time></trkpt><trkpt lat="59.9494439922" lon="32.6925545186"><ele>176.08</ele><time>2025-06-11T20:33:12Z</time></trkpt><trkpt lat="59.9508939777" lon="32.6934103947"><ele>176.07</ele><time>2025-06-11T20:33:16Z</time></trkpt><trkpt lat="59.9523462262" lon="32.6941354293"><ele>176.07</ele><time>2025-06-11T20:33:20Z</time></trkpt><trkpt lat="59.9537403882" lon="32.6948615536"><ele>176.07</ele><time>2025-06-11T20:33:24Z</time></trkpt><trkpt lat="59.9551625457" lon="32.6955826487"><ele>176.07</ele><time>2025-06-11T20:33:28Z</time></trkpt><trkpt lat="59.9566492438" lon="32.6959627680"><ele>176.07</ele><time>2025-06-11T20:33:32Z</time></trkpt><trkpt lat="59.9580913503" lon="32.6964144688"><ele>176.07</ele><time>2025-06-11T20:33:36Z</time></trkpt><trkpt lat="59.9595689122" lon="32.6967659220"><ele>176.07</ele><time>2025-06-11T20:33:40Z</time></trkpt><trkpt lat="59.9610696081" lon="32.6969042234"><ele>176.06</ele><time>2025-06-11T20:33:44Z</time></trkpt><trkpt lat="59.9625087809" lon="32.6971842628"><ele>176.06</ele><time>2025-06-11T20:33:48Z</time></trkpt><trkpt lat="59.9639558326" lon="32.6972967479"><ele>176.06</ele><time>2025-06-11T20:33:52Z</time></trkpt><trkpt lat="59.9654649943" lon="32.6973280963"><ele>176.08</ele><time>2025-06-11T20:33:56Z</time></trkpt><trkpt lat="59.9668972939" lon="32.6974225603"><ele>176.07</ele><time>2025-06-11T20:34:00Z</time></trkpt><trkpt lat="59.9684092216" lon="32.6972289383"><ele>176.07</ele><time>2025-06-11T20:34:04Z</time></trkpt><trkpt lat="59.9699156173" lon="32.6970073208"><ele>176.07</ele><time>2025-06-11T20:34:08Z</time></trkpt><trkpt lat="59.9713895749" lon="32.6967235934"><ele>176.07</ele><time>2025-06-11T20:34:12Z</time></trkpt><trkpt lat="59.9728301726" lon="32.6962425560"><ele>176.07</ele><time>2025-06-11T20:34:16Z</time></trkpt><trkpt lat="59.9742978439" lon="32.6958692260"><ele>176.07</ele><time>2025-06-11T20:34:20Z</time></trkpt><trkpt lat="59.9757079314" lon="32.6953307725"><ele>176.05</ele><time>2025-06-11T20:34:24Z</time></trkpt><trkpt lat="59.9771492835" lon="32.6947821770"><ele>176.06</ele><time>2025-06-11T20:34:28Z</time></trkpt><trkpt lat="59.9785250891" lon="32.6940830424"><ele>176.05</ele><time>2025-06-11T20:34:32Z</time></trkpt><trkpt lat="59.9800148048" lon="32.6933145896"><ele>176.07</ele><time>2025-06-11T20:34:36Z</time></trkpt><trkpt lat="59.9814207014" lon="32.6924096793"><ele>176.06</ele><time>2025-06-11T20:34:40Z</time></trkpt><trkpt lat="59.9828523304" lon="32.6915254723"><ele>176.06</ele><time>2025-06-11T20:34:44Z</time></trkpt><trkpt lat="59.9842259567" lon="32.6906369906"><ele>176.06</ele><time>2025-06-11T20:34:48Z</time></trkpt><trkpt lat="59.9855898600" lon="32.6895032544"><ele>176.06</ele><time>2025-06-11T20:34:52Z</time></trkpt><trkpt lat="59.9869211577" lon="32.6883617230"><ele>176.06</ele><time>2025-06-11T20:34:56Z</time></trkpt><trkpt lat="59.9883100390" lon="32.6871655416"><ele>176.06</ele><time>2025-06-11T20:35:00Z</time></trkpt><trkpt lat="59.9896420911" lon="32.6858820207"><ele>176.06</ele><time>2025-06-11T20:35:04Z</time></trkpt><trkpt lat="59.9909783341" lon="32.6844585221"><ele>176.06</ele><time>2025-06-11T20:35:08Z</time></trkpt><trkpt lat="59.9921931233" lon="32.6831076108"><ele>176.06</ele><time>2025-06-11T20:35:12Z</time></trkpt><trkpt lat="59.9934581202" lon="32.6816454716"><ele>176.07</ele><time>2025-06-11T20:35:16Z</time></trkpt><trkpt lat="59.9947514478" lon="32.6800190471"><ele>176.07</ele><time>2025-06-11T20:35:20Z</time></trkpt><trkpt lat="59.9959137663" lon="32.6784521341"><ele>176.07</ele><time>2025-06-11T20:35:24Z</time></trkpt><trkpt lat="59.9971255381" lon="32.6767503563"><ele>176.08</ele><time>2025-06-11T20:35:28Z</time></trkpt><trkpt lat="59.9983140081" lon="32.6750249416"><ele>176.07</ele><time>2025-06-11T20:35:32Z</time></trkpt><trkpt lat="59.9994738959" lon="32.6731374208"><ele>176.06</ele><time>2025-06-11T20:35:36Z</time></trkpt><trkpt lat="60.0005524792" lon="32.6711774804"><ele>176.06</ele><time>2025-06-11T20:35:40Z</time></trkpt><trkpt lat="60.0016527716" lon="32.6692236587"><ele>176.06</ele><time>2025-06-11T20:35:44Z</time></trkpt><trkpt lat="60.0027604401" lon="32.6671999320"><ele>176.06</ele><time>2025-06-11T20:35:48Z</time></trkpt><trkpt lat="60.0038617384" lon="32.6650233194"><ele>176.06</ele><time>2025-06-11T20:35:52Z</time></trkpt><trkpt lat="60.0048258249" lon="32.6630231459"><ele>176.06</ele><time>2025-06-11T20:35:56Z</time></trkpt><trkpt lat="60.0058393646" lon="32.6608001813"><ele>176.07</ele><time>2025-06-11T20:36:00Z</time></trkpt><trkpt lat="60.0068194605" lon="32.6586289331"><ele>176.06</ele><time>2025-06-11T20:36:04Z</time></trkpt><trkpt lat="60.0077107921" lon="32.6563792303"><ele>176.06</ele><time>2025-06-11T20:36:08Z</time></trkpt><trkpt lat="60.0086483080" lon="32.6539859455"><ele>176.06</ele><time>2025-06-11T20:36:12Z</time></trkpt><trkpt lat="60.0094597600" lon="32.6517214067"><ele>176.06</ele><time>2025-06-11T20:36:16Z</time></trkpt><trkpt lat="60.0103435479" lon="32.6491674408"><ele>176.05</ele><time>2025-06-11T20:36:20Z</time></trkpt><trkpt lat="60.0109867752" lon="32.6467314083"><ele>176.05</ele><time>2025-06-11T20:36:24Z</time></trkpt><trkpt lat="60.0117301662" lon="32.6442010794"><ele>176.07</ele><time>2025-06-11T20:36:28Z</time></trkpt><trkpt lat="60.0125945918" lon="32.6416122448"><ele>176.07</ele><time>2025-06-11T20:36:32Z</time></trkpt><trkpt lat="60.0133635476" lon="32.6389333885"><ele>176.07</ele><time>2025-06-11T20:36:36Z</time></trkpt><trkpt lat="60.0139936991" lon="32.6364615653"><ele>176.07</ele><time>2025-06-11T20:36:40Z</time></trkpt><trkpt lat="60.0145493355" lon="32.6337450743"><ele>176.05</ele><time>2025-06-11T20:36:44Z</time></trkpt><trkpt lat="60.0150133576" lon="32.6310344506"><ele>176.06</ele><time>2025-06-11T20:36:48Z</time></trkpt><trkpt lat="60.0156993326" lon="32.6283523254"><ele>176.05</ele><time>2025-06-11T20:36:52Z</time></trkpt><trkpt lat="60.0162530411" lon="32.6256210823"><ele>176.06</ele><time>2025-06-11T20:36:56Z</time></trkpt><trkpt lat="60.0165640097" lon="32.6227579080"><ele>176.07</ele><time>2025-06-11T20:37:00Z</time></trkpt><trkpt lat="60.0171021279" lon="32.6198961586"><ele>176.07</ele><time>2025-06-11T20:37:04Z</time></trkpt><trkpt lat="60.0174888689" lon="32.6171517558"><ele>176.07</ele><time>2025-06-11T20:37:08Z</time></trkpt><trkpt lat="60.0178300962" lon="32.6143465005"><ele>176.07</ele><time>2025-06-11T20:37:12Z</time></trkpt><trkpt lat="60.0181671325" lon="32.6113661472"><ele>176.07</ele><time>2025-06-11T20:37:16Z</time></trkpt><trkpt lat="60.0184575655" lon="32.6085390989"><ele>176.07</ele><time>2025-06-11T20:37:20Z</time></trkpt><trkpt lat="60.0186447334" lon="32.6055890881"><ele>176.06</ele><time>2025-06-11T20:37:24Z</time></trkpt><trkpt lat="60.0187106151" lon="32.6027538255"><ele>176.05</ele><time>2025-06-11T20:37:28Z</time></trkpt><trkpt lat="60.0189474039" lon="32.5997931696"><ele>176.03</ele><time>2025-06-11T20:37:32Z</time></trkpt><trkpt lat="60.0193732884" lon="32.5974437222"><ele>176.04</ele><time>2025-06-11T20:37:34Z</time></trkpt><trkpt lat="60.0193165429" lon="32.5951696280"><ele>176.07</ele><time>2025-06-11T20:37:37Z</time></trkpt><trkpt lat="60.0194505695" lon="32.5946191046"><ele>176.07</ele><time>2025-06-11T20:37:38Z</time></trkpt><trkpt lat="60.0192794111" lon="32.5938040484"><ele>176.05</ele><time>2025-06-11T20:37:40Z</time></trkpt><trkpt lat="60.0195145234" lon="32.5892427005"><ele>176.07</ele><time>2025-06-11T20:37:45Z</time></trkpt><trkpt lat="60.0193011202" lon="32.5884316675"><ele>176.08</ele><time>2025-06-11T20:37:46Z</time></trkpt><trkpt lat="60.0193110108" lon="32.5862844754"><ele>176.07</ele><time>2025-06-11T20:37:49Z</time></trkpt><trkpt lat="60.0193013716" lon="32.5850097556"><ele>176.07</ele><time>2025-06-11T20:37:52Z</time></trkpt><trkpt lat="60.0190754794" lon="32.5802468229"><ele>176.07</ele><time>2025-06-11T20:37:57Z</time></trkpt><trkpt lat="60.0190175604" lon="32.5796259753"><ele>176.06</ele><time>2025-06-11T20:37:58Z</time></trkpt><trkpt lat="60.0188664347" lon="32.5774710719"><ele>176.07</ele><time>2025-06-11T20:38:01Z</time></trkpt><trkpt lat="60.0188111980" lon="32.5767460372"><ele>176.07</ele><time>2025-06-11T20:38:02Z</time></trkpt><trkpt lat="60.0185038336" lon="32.5760405324"><ele>176.05</ele><time>2025-06-11T20:38:04Z</time></trkpt><trkpt lat="60.0182094611" lon="32.5731788669"><ele>176.07</ele><time>2025-06-11T20:38:08Z</time></trkpt><trkpt lat="60.0179395638" lon="32.5701846834"><ele>176.06</ele><time>2025-06-11T20:38:12Z</time></trkpt><trkpt lat="60.0176312774" lon="32.5671084411"><ele>176.06</ele><time>2025-06-11T20:38:16Z</time></trkpt><trkpt lat="60.0171665847" lon="32.5641223043"><ele>176.06</ele><time>2025-06-11T20:38:20Z</time></trkpt><trkpt lat="60.0166894868" lon="32.5609653443"><ele>176.07</ele><time>2025-06-11T20:38:24Z</time></trkpt><trkpt lat="60.0162820425" lon="32.5585231930"><ele>176.06</ele><time>2025-06-11T20:38:28Z</time></trkpt><trkpt lat="60.0158205349" lon="32.5555993337"><ele>176.06</ele><time>2025-06-11T20:38:32Z</time></trkpt><trkpt lat="60.0154234841" lon="32.5532720983"><ele>176.06</ele><time>2025-06-11T20:38:36Z</time></trkpt><trkpt lat="60.0149386749" lon="32.5503336545"><ele>176.06</ele><time>2025-06-11T20:38:40Z</time></trkpt><trkpt lat="60.0144959427" lon="32.5475717336"><ele>176.07</ele><time>2025-06-11T20:38:44Z</time></trkpt><trkpt lat="60.0139234588" lon="32.5448352937"><ele>176.07</ele><time>2025-06-11T20:38:48Z</time></trkpt><trkpt lat="60.0129058957" lon="32.5423012767"><ele>176.07</ele><time>2025-06-11T20:38:52Z</time></trkpt><trkpt lat="60.0122918375" lon="32.5393413752"><ele>176.06</ele><time>2025-06-11T20:38:56Z</time></trkpt><trkpt lat="60.0114067085" lon="32.5372426305"><ele>176.07</ele><time>2025-06-11T20:39:00Z</time></trkpt><trkpt lat="60.0107923988" lon="32.5342953019"><ele>176.06</ele><time>2025-06-11T20:39:04Z</time></trkpt><trkpt lat="60.0101139676" lon="32.5317953993"><ele>176.06</ele><time>2025-06-11T20:39:08Z</time></trkpt><trkpt lat="60.0093386415" lon="32.5292602088"><ele>176.07</ele><time>2025-06-11T20:39:12Z</time></trkpt><trkpt lat="60.0096444972" lon="32.5269346498"><ele>176.08</ele><time>2025-06-11T20:39:16Z</time></trkpt><trkpt lat="60.0079713017" lon="32.5245276187"><ele>176.07</ele><time>2025-06-11T20:39:20Z</time></trkpt><trkpt lat="60.0069288444" lon="32.5223940052"><ele>176.05</ele><time>2025-06-11T20:39:24Z</time></trkpt><trkpt lat="60.0064644031" lon="32.5205859449"><ele>176.06</ele><time>2025-06-11T20:39:26Z</time></trkpt><trkpt lat="60.0058958586" lon="32.5189140067"><ele>176.07</ele><time>2025-06-11T20:39:29Z</time></trkpt><trkpt lat="60.0055769272" lon="32.5182670914"><ele>176.07</ele><time>2025-06-11T20:39:30Z</time></trkpt><trkpt lat="60.0055821240" lon="32.5169724226"><ele>176.07</ele><time>2025-06-11T20:39:33Z</time></trkpt><trkpt lat="60.0052327663" lon="32.5163662434"><ele>176.07</ele><time>2025-06-11T20:39:34Z</time></trkpt><trkpt lat="60.0041803345" lon="32.5146378949"><ele>176.07</ele><time>2025-06-11T20:39:37Z</time></trkpt><trkpt lat="60.0038738921" lon="32.5141142774"><ele>176.07</ele><time>2025-06-11T20:39:38Z</time></trkpt><trkpt lat="60.0033625122" lon="32.5137236807"><ele>176.07</ele><time>2025-06-11T20:39:40Z</time></trkpt><trkpt lat="60.0020704418" lon="32.5116201583"><ele>176.07</ele><time>2025-06-11T20:39:44Z</time></trkpt><trkpt lat="60.0009688921" lon="32.5096540153"><ele>176.06</ele><time>2025-06-11T20:39:48Z</time></trkpt><trkpt lat="59.9997565337" lon="32.5076527521"><ele>176.06</ele><time>2025-06-11T20:39:52Z</time></trkpt><trkpt lat="59.9985974841" lon="32.5056534167"><ele>176.07</ele><time>2025-06-11T20:39:56Z</time></trkpt><trkpt lat="59.9979575258" lon="32.5042362884"><ele>176.07</ele><time>2025-06-11T20:39:58Z</time></trkpt><trkpt lat="59.9970661942" lon="32.5029077567"><ele>176.07</ele><time>2025-06-11T20:40:01Z</time></trkpt><trkpt lat="59.9968391284" lon="32.5025190040"><ele>176.06</ele><time>2025-06-11T20:40:02Z</time></trkpt><trkpt lat="59.9964476097" lon="32.5011908077"><ele>176.07</ele><time>2025-06-11T20:40:05Z</time></trkpt><trkpt lat="59.9952572118" lon="32.5004626717"><ele>176.07</ele><time>2025-06-11T20:40:08Z</time></trkpt><trkpt lat="59.9937854335" lon="32.4991078209"><ele>176.07</ele><time>2025-06-11T20:40:12Z</time></trkpt><trkpt lat="59.9927247036" lon="32.4973732699"><ele>176.05</ele><time>2025-06-11T20:40:16Z</time></trkpt><trkpt lat="59.9913286977" lon="32.4959007371"><ele>176.07</ele><time>2025-06-11T20:40:20Z</time></trkpt><trkpt lat="59.9900351185" lon="32.4944637436"><ele>176.06</ele><time>2025-06-11T20:40:24Z</time></trkpt><trkpt lat="59.9886725564" lon="32.4932235572"><ele>176.05</ele><time>2025-06-11T20:40:28Z</time></trkpt><trkpt lat="59.9873455334" lon="32.4919143040"><ele>176.07</ele><time>2025-06-11T20:40:32Z</time></trkpt><trkpt lat="59.9858642835" lon="32.4902173039"><ele>176.06</ele><time>2025-06-11T20:40:36Z</time></trkpt><trkpt lat="59.9844748154" lon="32.4894789420"><ele>176.06</ele><time>2025-06-11T20:40:40Z</time></trkpt><trkpt lat="59.9838346057" lon="32.4881314673"><ele>176.06</ele><time>2025-06-11T20:40:44Z</time></trkpt><trkpt lat="59.9825659208" lon="32.4875761662"><ele>176.06</ele><time>2025-06-11T20:40:48Z</time></trkpt><trkpt lat="59.9806083273" lon="32.4864729401"><ele>176.05</ele><time>2025-06-11T20:40:52Z</time></trkpt><trkpt lat="59.9796356075" lon="32.4856257811"><ele>176.05</ele><time>2025-06-11T20:40:56Z</time></trkpt><trkpt lat="59.9782146234" lon="32.4852016568"><ele>176.06</ele><time>2025-06-11T20:41:00Z</time></trkpt><trkpt lat="59.9767218065" lon="32.4844746944"><ele>176.06</ele><time>2025-06-11T20:41:04Z</time></trkpt><trkpt lat="59.9755596556" lon="32.4839368276"><ele>176.07</ele><time>2025-06-11T20:41:08Z</time></trkpt><trkpt lat="59.9738877174" lon="32.4835771602"><ele>176.08</ele><time>2025-06-11T20:41:12Z</time></trkpt><trkpt lat="59.9724350497" lon="32.4831449892"><ele>176.07</ele><time>2025-06-11T20:41:16Z</time></trkpt><trkpt lat="59.9710321706" lon="32.4828367028"><ele>176.08</ele><time>2025-06-11T20:41:20Z</time></trkpt><trkpt lat="59.9695508368" lon="32.4826173484"><ele>176.10</ele><time>2025-06-11T20:41:24Z</time></trkpt><trkpt lat="59.9679811578" lon="32.4823620357"><ele>176.09</ele><time>2025-06-11T20:41:28Z</time></trkpt><trkpt lat="59.9664777797" lon="32.4820925575"><ele>176.07</ele><time>2025-06-11T20:41:32Z</time></trkpt><trkpt lat="59.9649542011" lon="32.4821596127"><ele>176.07</ele><time>2025-06-11T20:41:36Z</time></trkpt><trkpt lat="59.9636395834" lon="32.4820705131"><ele>176.07</ele><time>2025-06-11T20:41:40Z</time></trkpt><trkpt lat="59.9620414898" lon="32.4822576810"><ele>176.07</ele><time>2025-06-11T20:41:44Z</time></trkpt><trkpt lat="59.9606708810" lon="32.4825285841"><ele>176.07</ele><time>2025-06-11T20:41:48Z</time></trkpt><trkpt lat="59.9593380746" lon="32.4827650376"><ele>176.07</ele><time>2025-06-11T20:41:52Z</time></trkpt><trkpt lat="59.9577100575" lon="32.4833096098"><ele>176.08</ele><time>2025-06-11T20:41:56Z</time></trkpt><trkpt lat="59.9561929330" lon="32.4838193972"><ele>176.07</ele><time>2025-06-11T20:42:00Z</time></trkpt><trkpt lat="59.9549535848" lon="32.4843558390"><ele>176.08</ele><time>2025-06-11T20:42:04Z</time></trkpt><trkpt lat="59.9534912780" lon="32.4849467631"><ele>176.07</ele><time>2025-06-11T20:42:08Z</time></trkpt><trkpt lat="59.9519251194" lon="32.4855766632"><ele>176.07</ele><time>2025-06-11T20:42:12Z</time></trkpt><trkpt lat="59.9504339788" lon="32.4862723611"><ele>176.07</ele><time>2025-06-11T20:42:16Z</time></trkpt><trkpt lat="59.9492222909" lon="32.4871206097"><ele>176.07</ele><time>2025-06-11T20:42:20Z</time></trkpt><trkpt lat="59.9476398714" lon="32.4880771525"><ele>176.07</ele><time>2025-06-11T20:42:24Z</time></trkpt><trkpt lat="59.9462960847" lon="32.4891675543"><ele>176.07</ele><time>2025-06-11T20:42:28Z</time></trkpt><trkpt lat="59.9451023340" lon="32.4901073333"><ele>176.07</ele><time>2025-06-11T20:42:32Z</time></trkpt><trkpt lat="59.9437361676" lon="32.4910498783"><ele>176.06</ele><time>2025-06-11T20:42:36Z</time></trkpt><trkpt lat="59.9423392396" lon="32.4924996961"><ele>176.07</ele><time>2025-06-11T20:42:40Z</time></trkpt><trkpt lat="59.9410486780" lon="32.4937712308"><ele>176.07</ele><time>2025-06-11T20:42:44Z</time></trkpt><trkpt lat="59.9400111660" lon="32.4950014427"><ele>176.07</ele><time>2025-06-11T20:42:48Z</time></trkpt><trkpt lat="59.9381904490" lon="32.4965568725"><ele>176.08</ele><time>2025-06-11T20:42:52Z</time></trkpt><trkpt lat="59.9369419646" lon="32.4981205165"><ele>176.07</ele><time>2025-06-11T20:42:56Z</time></trkpt><trkpt lat="59.9355200585" lon="32.4996356294"><ele>176.07</ele><time>2025-06-11T20:43:00Z</time></trkpt><trkpt lat="59.9342641979" lon="32.5011590403"><ele>176.07</ele><time>2025-06-11T20:43:04Z</time></trkpt><trkpt lat="59.9330156296" lon="32.5028655957"><ele>176.06</ele><time>2025-06-11T20:43:08Z</time></trkpt><trkpt lat="59.9318391457" lon="32.5046739914"><ele>176.07</ele><time>2025-06-11T20:43:12Z</time></trkpt><trkpt lat="59.9306646734" lon="32.5064709876"><ele>176.06</ele><time>2025-06-11T20:43:16Z</time></trkpt><trkpt lat="59.9295263272" lon="32.5084048603"><ele>176.07</ele><time>2025-06-11T20:43:20Z</time></trkpt><trkpt lat="59.9283628352" lon="32.5103191193"><ele>176.05</ele><time>2025-06-11T20:43:24Z</time></trkpt><trkpt lat="59.9282156490" lon="32.5122716837"><ele>176.06</ele><time>2025-06-11T20:43:28Z</time></trkpt><trkpt lat="59.9273306876" lon="32.5140675902"><ele>176.06</ele><time>2025-06-11T20:43:32Z</time></trkpt><trkpt lat="59.9259809498" lon="32.5165479630"><ele>176.06</ele><time>2025-06-11T20:43:36Z</time></trkpt><trkpt lat="59.9249622133" lon="32.5187585223"><ele>176.06</ele><time>2025-06-11T20:43:40Z</time></trkpt><trkpt lat="59.9239238631" lon="32.5212867558"><ele>176.06</ele><time>2025-06-11T20:43:44Z</time></trkpt><trkpt lat="59.9230200425" lon="32.5236481056"><ele>176.07</ele><time>2025-06-11T20:43:48Z</time></trkpt><trkpt lat="59.9221790861" lon="32.5259548891"><ele>176.06</ele><time>2025-06-11T20:43:52Z</time></trkpt><trkpt lat="59.9214604218" lon="32.5282809511"><ele>176.07</ele><time>2025-06-11T20:43:56Z</time></trkpt><trkpt lat="59.9205574393" lon="32.5307553727"><ele>176.07</ele><time>2025-06-11T20:44:00Z</time></trkpt><trkpt lat="59.9197407067" lon="32.5331940874"><ele>176.09</ele><time>2025-06-11T20:44:04Z</time></trkpt><trkpt lat="59.9190079607" lon="32.5356574450"><ele>176.07</ele><time>2025-06-11T20:44:08Z</time></trkpt><trkpt lat="59.9181740452" lon="32.5394130405"><ele>176.07</ele><time>2025-06-11T20:44:13Z</time></trkpt><trkpt lat="59.9176172353" lon="32.5408317614"><ele>176.07</ele><time>2025-06-11T20:44:16Z</time></trkpt><trkpt lat="59.9170946237" lon="32.5434029941"><ele>176.07</ele><time>2025-06-11T20:44:20Z</time></trkpt><trkpt lat="59.9163343851" lon="32.5461254362"><ele>176.05</ele><time>2025-06-11T20:44:24Z</time></trkpt><trkpt lat="59.9158559460" lon="32.5499715563"><ele>176.07</ele><time>2025-06-11T20:44:29Z</time></trkpt><trkpt lat="59.9157192372" lon="32.5506670866"><ele>176.07</ele><time>2025-06-11T20:44:30Z</time></trkpt><trkpt lat="59.9151786044" lon="32.5526882987"><ele>176.07</ele><time>2025-06-11T20:44:33Z</time></trkpt><trkpt lat="59.9150799494" lon="32.5533000100"><ele>176.07</ele><time>2025-06-11T20:44:34Z</time></trkpt><trkpt lat="59.9145061243" lon="32.5542283896"><ele>176.07</ele><time>2025-06-11T20:44:36Z</time></trkpt><trkpt lat="59.9140335526" lon="32.5570271909"><ele>176.07</ele><time>2025-06-11T20:44:40Z</time></trkpt><trkpt lat="59.9134344980" lon="32.5597292650"><ele>176.07</ele><time>2025-06-11T20:44:44Z</time></trkpt><trkpt lat="59.9131573085" lon="32.5625584926"><ele>176.06</ele><time>2025-06-11T20:44:48Z</time></trkpt><trkpt lat="59.9127263110" lon="32.5654657558"><ele>176.06</ele><time>2025-06-11T20:44:52Z</time></trkpt><trkpt lat="59.9123192858" lon="32.5683026109"><ele>176.06</ele><time>2025-06-11T20:44:56Z</time></trkpt><trkpt lat="59.9121429306" lon="32.5710085407"><ele>176.06</ele><time>2025-06-11T20:45:00Z</time></trkpt><trkpt lat="59.9122458603" lon="32.5740069989"><ele>176.06</ele><time>2025-06-11T20:45:04Z</time></trkpt><trkpt lat="59.9122179486" lon="32.5770791341"><ele>176.06</ele><time>2025-06-11T20:45:08Z</time></trkpt><trkpt lat="59.9115048163" lon="32.5800333358"><ele>176.06</ele><time>2025-06-11T20:45:12Z</time></trkpt><trkpt lat="59.9119602889" lon="32.5830102526"><ele>176.07</ele><time>2025-06-11T20:45:16Z</time></trkpt><trkpt lat="59.9118141923" lon="32.5860110577"><ele>176.07</ele><time>2025-06-11T20:45:20Z</time></trkpt><trkpt lat="59.9117043056" lon="32.5889332406"><ele>176.10</ele><time>2025-06-11T20:45:24Z</time></trkpt><trkpt lat="59.9117561057" lon="32.5919042062"><ele>176.09</ele><time>2025-06-11T20:45:28Z</time></trkpt><trkpt lat="59.9117759708" lon="32.5947172567"><ele>176.06</ele><time>2025-06-11T20:45:32Z</time></trkpt><trkpt lat="59.9118293636" lon="32.5976569578"><ele>176.06</ele><time>2025-06-11T20:45:36Z</time></trkpt><trkpt lat="59.9119652342" lon="32.6005736087"><ele>176.06</ele><time>2025-06-11T20:45:40Z</time></trkpt><trkpt lat="59.9121031165" lon="32.6034923550"><ele>176.06</ele><time>2025-06-11T20:45:44Z</time></trkpt><trkpt lat="59.9125315156" lon="32.6093067136"><ele>176.06</ele><time>2025-06-11T20:45:52Z</time></trkpt><trkpt lat="59.9128201045" lon="32.6121752523"><ele>176.06</ele><time>2025-06-11T20:45:56Z</time></trkpt><trkpt lat="59.9130670354" lon="32.6149935834"><ele>176.06</ele><time>2025-06-11T20:46:00Z</time></trkpt><trkpt lat="59.9135263637" lon="32.6179402415"><ele>176.07</ele><time>2025-06-11T20:46:04Z</time></trkpt><trkpt lat="59.9139664136" lon="32.6206828840"><ele>176.07</ele><time>2025-06-11T20:46:08Z</time></trkpt><trkpt lat="59.9143965729" lon="32.6234868821"><ele>176.07</ele><time>2025-06-11T20:46:12Z</time></trkpt><trkpt lat="59.9153151456" lon="32.6289632823"><ele>176.06</ele><time>2025-06-11T20:46:20Z</time></trkpt><trkpt lat="59.9155166466" lon="32.6316304877"><ele>176.05</ele><time>2025-06-11T20:46:24Z</time></trkpt><trkpt lat="59.9163601175" lon="32.6343281195"><ele>176.06</ele><time>2025-06-11T20:46:28Z</time></trkpt><trkpt lat="59.9168742634" lon="32.6369312871"><ele>176.07</ele><time>2025-06-11T20:46:32Z</time></trkpt><trkpt lat="59.9174452387" lon="32.6394929644"><ele>176.07</ele><time>2025-06-11T20:46:36Z</time></trkpt><trkpt lat="59.9182038009" lon="32.6420796197"><ele>176.07</ele><time>2025-06-11T20:46:40Z</time></trkpt><trkpt lat="59.9188123271" lon="32.6445040014"><ele>176.07</ele><time>2025-06-11T20:46:44Z</time></trkpt><trkpt lat="59.9202746339" lon="32.6494976040"><ele>176.07</ele><time>2025-06-11T20:46:52Z</time></trkpt><trkpt lat="59.9211383890" lon="32.6518297847"><ele>176.07</ele><time>2025-06-11T20:46:56Z</time></trkpt><trkpt lat="59.9220458977" lon="32.6541942358"><ele>176.07</ele><time>2025-06-11T20:47:00Z</time></trkpt><trkpt lat="59.9235134851" lon="32.6574790198"><ele>176.07</ele><time>2025-06-11T20:47:05Z</time></trkpt><trkpt lat="59.9238150660" lon="32.6580839418"><ele>176.07</ele><time>2025-06-11T20:47:06Z</time></trkpt><trkpt lat="59.9266551901" lon="32.6654295065"><ele>173.79</ele><time>2025-06-11T20:47:20Z</time></trkpt><trkpt lat="59.9278577417" lon="32.6673710067"><ele>173.79</ele><time>2025-06-11T20:47:24Z</time></trkpt><trkpt lat="59.9300192669" lon="32.6712890435"><ele>173.75</ele><time>2025-06-11T20:47:32Z</time></trkpt><trkpt lat="59.9308425374" lon="32.6728583872"><ele>173.79</ele><time>2025-06-11T20:47:36Z</time></trkpt><trkpt lat="59.9325027410" lon="32.6749500912"><ele>173.80</ele><time>2025-06-11T20:47:40Z</time></trkpt><trkpt lat="59.9337201286" lon="32.6767253783"><ele>173.79</ele><time>2025-06-11T20:47:44Z</time></trkpt><trkpt lat="59.9348582234" lon="32.6783461031"><ele>173.79</ele><time>2025-06-11T20:47:48Z</time></trkpt><trkpt lat="59.9359793030" lon="32.6799325459"><ele>173.79</ele><time>2025-06-11T20:47:52Z</time></trkpt><trkpt lat="59.9372165557" lon="32.6814919151"><ele>173.79</ele><time>2025-06-11T20:47:56Z</time></trkpt><trkpt lat="59.9382389802" lon="32.6829553954"><ele>173.79</ele><time>2025-06-11T20:48:00Z</time></trkpt><trkpt lat="59.9395028874" lon="32.6846425887"><ele>173.79</ele><time>2025-06-11T20:48:04Z</time></trkpt><trkpt lat="59.9404129107" lon="32.6856029872"><ele>173.79</ele><time>2025-06-11T20:48:08Z</time></trkpt><trkpt lat="59.9432553817" lon="32.6869598497"><ele>173.78</ele><time>2025-06-11T20:48:12Z</time></trkpt><trkpt lat="59.9450522941" lon="32.6894258056"><ele>173.79</ele><time>2025-06-11T20:48:20Z</time></trkpt><trkpt lat="59.9480174761" lon="32.6913859136"><ele>173.79</ele><time>2025-06-11T20:48:28Z</time></trkpt><trkpt lat="59.9488373101" lon="32.6925809216"><ele>173.82</ele><time>2025-06-11T20:48:32Z</time></trkpt><trkpt lat="59.9513100553" lon="32.6933641266"><ele>173.79</ele><time>2025-06-11T20:48:36Z</time></trkpt><trkpt lat="59.9527221546" lon="32.6941676158"><ele>173.79</ele><time>2025-06-11T20:48:40Z</time></trkpt><trkpt lat="59.9539833795" lon="32.6948787365"><ele>173.79</ele><time>2025-06-11T20:48:44Z</time></trkpt><trkpt lat="59.9554634560" lon="32.6954377256"><ele>173.79</ele><time>2025-06-11T20:48:48Z</time></trkpt><trkpt lat="59.9579020869" lon="32.6960800309"><ele>173.79</ele><time>2025-06-11T20:48:53Z</time></trkpt><trkpt lat="59.9583108723" lon="32.6963013131"><ele>173.80</ele><time>2025-06-11T20:48:56Z</time></trkpt><trkpt lat="59.9598318525" lon="32.6968042273"><ele>173.80</ele><time>2025-06-11T20:49:00Z</time></trkpt><trkpt lat="59.9610683508" lon="32.6970468834"><ele>173.80</ele><time>2025-06-11T20:49:04Z</time></trkpt><trkpt lat="59.9624903407" lon="32.6972152758"><ele>173.79</ele><time>2025-06-11T20:49:08Z</time></trkpt><trkpt lat="59.9642703217" lon="32.6972329617"><ele>173.79</ele><time>2025-06-11T20:49:12Z</time></trkpt><trkpt lat="59.9657167867" lon="32.6971900463"><ele>173.78</ele><time>2025-06-11T20:49:16Z</time></trkpt><trkpt lat="59.9673062470" lon="32.6971099991"><ele>173.78</ele><time>2025-06-11T20:49:20Z</time></trkpt><trkpt lat="59.9681996740" lon="32.6965312287"><ele>173.79</ele><time>2025-06-11T20:49:24Z</time></trkpt><trkpt lat="59.9696589634" lon="32.6969168801"><ele>173.78</ele><time>2025-06-11T20:49:28Z</time></trkpt><trkpt lat="59.9713258725" lon="32.6964832004"><ele>173.78</ele><time>2025-06-11T20:49:32Z</time></trkpt><trkpt lat="59.9726443458" lon="32.6961290650"><ele>173.79</ele><time>2025-06-11T20:49:36Z</time></trkpt><trkpt lat="59.9741571117" lon="32.6955911983"><ele>173.81</ele><time>2025-06-11T20:49:40Z</time></trkpt><trkpt lat="59.9754338432" lon="32.6947125234"><ele>173.79</ele><time>2025-06-11T20:49:44Z</time></trkpt><trkpt lat="59.9768942222" lon="32.6935953833"><ele>173.79</ele><time>2025-06-11T20:49:48Z</time></trkpt><trkpt lat="59.9783474766" lon="32.6932223048"><ele>173.80</ele><time>2025-06-11T20:49:52Z</time></trkpt><trkpt lat="59.9796376191" lon="32.6928783953"><ele>173.80</ele><time>2025-06-11T20:49:56Z</time></trkpt><trkpt lat="59.9811525643" lon="32.6920209266"><ele>173.79</ele><time>2025-06-11T20:50:00Z</time></trkpt><trkpt lat="59.9824717920" lon="32.6910370588"><ele>173.79</ele><time>2025-06-11T20:50:04Z</time></trkpt><trkpt lat="59.9838339351" lon="32.6899231877"><ele>173.79</ele><time>2025-06-11T20:50:08Z</time></trkpt><trkpt lat="59.9852856807" lon="32.6892949641"><ele>173.79</ele><time>2025-06-11T20:50:12Z</time></trkpt><trkpt lat="59.9865619931" lon="32.6878515165"><ele>173.78</ele><time>2025-06-11T20:50:16Z</time></trkpt><trkpt lat="59.9878089689" lon="32.6868236437"><ele>173.78</ele><time>2025-06-11T20:50:20Z</time></trkpt><trkpt lat="59.9890462216" lon="32.6857063361"><ele>173.78</ele><time>2025-06-11T20:50:24Z</time></trkpt><trkpt lat="59.9906320777" lon="32.6835842058"><ele>173.78</ele><time>2025-06-11T20:50:28Z</time></trkpt><trkpt lat="59.9916731939" lon="32.6827286649"><ele>173.77</ele><time>2025-06-11T20:50:32Z</time></trkpt><trkpt lat="59.9929027352" lon="32.6809514500"><ele>173.76</ele><time>2025-06-11T20:50:36Z</time></trkpt><trkpt lat="59.9945579097" lon="32.6797404326"><ele>173.77</ele><time>2025-06-11T20:50:40Z</time></trkpt><trkpt lat="59.9958971702" lon="32.6773862913"><ele>173.77</ele><time>2025-06-11T20:50:44Z</time></trkpt><trkpt lat="59.9967728276" lon="32.6759658940"><ele>173.75</ele><time>2025-06-11T20:50:48Z</time></trkpt><trkpt lat="59.9975148775" lon="32.6741342805"><ele>173.77</ele><time>2025-06-11T20:50:52Z</time></trkpt><trkpt lat="59.9989740830" lon="32.6724063512"><ele>173.77</ele><time>2025-06-11T20:50:56Z</time></trkpt><trkpt lat="60.0002887845" lon="32.6703070197"><ele>173.79</ele><time>2025-06-11T20:51:00Z</time></trkpt><trkpt lat="60.0013482571" lon="32.6689075772"><ele>173.79</ele><time>2025-06-11T20:51:04Z</time></trkpt><trkpt lat="60.0024905428" lon="32.6661842130"><ele>173.79</ele><time>2025-06-11T20:51:08Z</time></trkpt><trkpt lat="60.0030966382" lon="32.6633575838"><ele>173.80</ele><time>2025-06-11T20:51:12Z</time></trkpt><trkpt lat="60.0046900380" lon="32.6622730494"><ele>173.80</ele><time>2025-06-11T20:51:16Z</time></trkpt><trkpt lat="60.0062551908" lon="32.6602032222"><ele>173.79</ele><time>2025-06-11T20:51:20Z</time></trkpt><trkpt lat="60.0074244663" lon="32.6578830276"><ele>173.79</ele><time>2025-06-11T20:51:24Z</time></trkpt><trkpt lat="60.0077832956" lon="32.6554179937"><ele>173.79</ele><time>2025-06-11T20:51:28Z</time></trkpt><trkpt lat="60.0084188953" lon="32.6535680238"><ele>173.81</ele><time>2025-06-11T20:51:32Z</time></trkpt><trkpt lat="60.0094022602" lon="32.6511670277"><ele>173.81</ele><time>2025-06-11T20:51:36Z</time></trkpt><trkpt lat="60.0101684500" lon="32.6487536263"><ele>173.79</ele><time>2025-06-11T20:51:40Z</time></trkpt><trkpt lat="60.0109734479" lon="32.6464048494"><ele>173.79</ele><time>2025-06-11T20:51:44Z</time></trkpt><trkpt lat="60.0118312519" lon="32.6438845787"><ele>173.79</ele><time>2025-06-11T20:51:48Z</time></trkpt><trkpt lat="60.0123938452" lon="32.6413678285"><ele>173.79</ele><time>2025-06-11T20:51:52Z</time></trkpt><trkpt lat="60.0132448599" lon="32.6386672631"><ele>173.81</ele><time>2025-06-11T20:51:56Z</time></trkpt><trkpt lat="60.0136900228" lon="32.6358979661"><ele>173.79</ele><time>2025-06-11T20:52:00Z</time></trkpt><trkpt lat="60.0142588187" lon="32.6331220474"><ele>173.80</ele><time>2025-06-11T20:52:04Z</time></trkpt><trkpt lat="60.0148123596" lon="32.6301436219"><ele>173.80</ele><time>2025-06-11T20:52:08Z</time></trkpt><trkpt lat="60.0153676607" lon="32.6276095212"><ele>173.80</ele><time>2025-06-11T20:52:12Z</time></trkpt><trkpt lat="60.0158761069" lon="32.6248955447"><ele>173.79</ele><time>2025-06-11T20:52:16Z</time></trkpt><trkpt lat="60.0162544660" lon="32.6220767107"><ele>173.80</ele><time>2025-06-11T20:52:20Z</time></trkpt><trkpt lat="60.0166976172" lon="32.6192826033"><ele>173.80</ele><time>2025-06-11T20:52:24Z</time></trkpt><trkpt lat="60.0178280007" lon="32.6165392902"><ele>173.80</ele><time>2025-06-11T20:52:28Z</time></trkpt><trkpt lat="60.0182718225" lon="32.6135554165"><ele>173.79</ele><time>2025-06-11T20:52:32Z</time></trkpt><trkpt lat="60.0185840484" lon="32.6108520012"><ele>173.79</ele><time>2025-06-11T20:52:36Z</time></trkpt><trkpt lat="60.0188883115" lon="32.6079175808"><ele>173.78</ele><time>2025-06-11T20:52:40Z</time></trkpt><trkpt lat="60.0190892257" lon="32.6049900334"><ele>173.79</ele><time>2025-06-11T20:52:44Z</time></trkpt><trkpt lat="60.0191545207" lon="32.6018681098"><ele>173.79</ele><time>2025-06-11T20:52:48Z</time></trkpt><trkpt lat="60.0189934205" lon="32.5990947895"><ele>173.78</ele><time>2025-06-11T20:52:52Z</time></trkpt><trkpt lat="60.0189655926" lon="32.5967505388"><ele>173.79</ele><time>2025-06-11T20:52:54Z</time></trkpt><trkpt lat="60.0196280982" lon="32.5946471840"><ele>173.79</ele><time>2025-06-11T20:52:57Z</time></trkpt><trkpt lat="60.0196419284" lon="32.5937445369"><ele>173.79</ele><time>2025-06-11T20:52:58Z</time></trkpt><trkpt lat="60.0197870191" lon="32.5917190500"><ele>173.79</ele><time>2025-06-11T20:53:01Z</time></trkpt><trkpt lat="60.0199164357" lon="32.5887028221"><ele>173.79</ele><time>2025-06-11T20:53:05Z</time></trkpt><trkpt lat="60.0198511407" lon="32.5880287495"><ele>173.78</ele><time>2025-06-11T20:53:06Z</time></trkpt><trkpt lat="60.0195109192" lon="32.5874662399"><ele>173.79</ele><time>2025-06-11T20:53:08Z</time></trkpt><trkpt lat="60.0195110030" lon="32.5844652671"><ele>173.79</ele><time>2025-06-11T20:53:12Z</time></trkpt><trkpt lat="60.0192930736" lon="32.5797840580"><ele>173.79</ele><time>2025-06-11T20:53:17Z</time></trkpt><trkpt lat="60.0193221588" lon="32.5789629668"><ele>173.79</ele><time>2025-06-11T20:53:18Z</time></trkpt><trkpt lat="60.0192344002" lon="32.5771092251"><ele>173.79</ele><time>2025-06-11T20:53:21Z</time></trkpt><trkpt lat="60.0190925784" lon="32.5763427000"><ele>173.78</ele><time>2025-06-11T20:53:22Z</time></trkpt><trkpt lat="60.0189721305" lon="32.5740622357"><ele>173.79</ele><time>2025-06-11T20:53:25Z</time></trkpt><trkpt lat="60.0185386185" lon="32.5728449319"><ele>173.80</ele><time>2025-06-11T20:53:28Z</time></trkpt><trkpt lat="60.0183767639" lon="32.5698962621"><ele>173.80</ele><time>2025-06-11T20:53:32Z</time></trkpt><trkpt lat="60.0180365425" lon="32.5670112111"><ele>173.79</ele><time>2025-06-11T20:53:36Z</time></trkpt><trkpt lat="60.0177383982" lon="32.5640698336"><ele>173.79</ele><time>2025-06-11T20:53:40Z</time></trkpt><trkpt lat="60.0173879508" lon="32.5612339843"><ele>173.79</ele><time>2025-06-11T20:53:44Z</time></trkpt><trkpt lat="60.0170264393" lon="32.5584201794"><ele>173.79</ele><time>2025-06-11T20:53:48Z</time></trkpt><trkpt lat="60.0164806936" lon="32.5556414947"><ele>173.79</ele><time>2025-06-11T20:53:52Z</time></trkpt><trkpt lat="60.0161045138" lon="32.5528039690"><ele>173.78</ele><time>2025-06-11T20:53:56Z</time></trkpt><trkpt lat="60.0153096579" lon="32.5500586443"><ele>173.79</ele><time>2025-06-11T20:54:00Z</time></trkpt><trkpt lat="60.0147044007" lon="32.5474158302"><ele>173.78</ele><time>2025-06-11T20:54:04Z</time></trkpt><trkpt lat="60.0143636763" lon="32.5446307752"><ele>173.79</ele><time>2025-06-11T20:54:08Z</time></trkpt><trkpt lat="60.0135109853" lon="32.5420793239"><ele>173.79</ele><time>2025-06-11T20:54:12Z</time></trkpt><trkpt lat="60.0130639784" lon="32.5393402018"><ele>173.79</ele><time>2025-06-11T20:54:16Z</time></trkpt><trkpt lat="60.0120822899" lon="32.5369304884"><ele>173.80</ele><time>2025-06-11T20:54:20Z</time></trkpt><trkpt lat="60.0113622844" lon="32.5343445037"><ele>173.79</ele><time>2025-06-11T20:54:24Z</time></trkpt><trkpt lat="60.0105515867" lon="32.5318460260"><ele>173.79</ele><time>2025-06-11T20:54:28Z</time></trkpt><trkpt lat="60.0097515341" lon="32.5293091591"><ele>173.79</ele><time>2025-06-11T20:54:32Z</time></trkpt><trkpt lat="60.0089710113" lon="32.5269323867"><ele>173.78</ele><time>2025-06-11T20:54:36Z</time></trkpt><trkpt lat="60.0083750580" lon="32.5244708732"><ele>173.79</ele><time>2025-06-11T20:54:40Z</time></trkpt><trkpt lat="60.0069916248" lon="32.5207324605"><ele>173.79</ele><time>2025-06-11T20:54:45Z</time></trkpt><trkpt lat="60.0066659041" lon="32.5203344040"><ele>173.79</ele><time>2025-06-11T20:54:46Z</time></trkpt><trkpt lat="60.0060214195" lon="32.5186548382"><ele>173.79</ele><time>2025-06-11T20:54:49Z</time></trkpt><trkpt lat="60.0057656039" lon="32.5181150436"><ele>173.79</ele><time>2025-06-11T20:54:50Z</time></trkpt><trkpt lat="60.0052372087" lon="32.5164854340"><ele>173.79</ele><time>2025-06-11T20:54:53Z</time></trkpt><trkpt lat="60.0049946364" lon="32.5160105154"><ele>173.80</ele><time>2025-06-11T20:54:54Z</time></trkpt><trkpt lat="60.0042993575" lon="32.5144150201"><ele>173.79</ele><time>2025-06-11T20:54:57Z</time></trkpt><trkpt lat="60.0035411306" lon="32.5135391951"><ele>173.79</ele><time>2025-06-11T20:55:00Z</time></trkpt><trkpt lat="60.0026194565" lon="32.5113459025"><ele>173.79</ele><time>2025-06-11T20:55:04Z</time></trkpt><trkpt lat="60.0013980456" lon="32.5093848724"><ele>173.81</ele><time>2025-06-11T20:55:08Z</time></trkpt><trkpt lat="60.0003265869" lon="32.5074396841"><ele>173.78</ele><time>2025-06-11T20:55:12Z</time></trkpt><trkpt lat="59.9995322339" lon="32.5055379141"><ele>173.79</ele><time>2025-06-11T20:55:16Z</time></trkpt><trkpt lat="59.9980407581" lon="32.5027775858"><ele>173.79</ele><time>2025-06-11T20:55:21Z</time></trkpt><trkpt lat="59.9976499099" lon="32.5022258051"><ele>173.80</ele><time>2025-06-11T20:55:22Z</time></trkpt><trkpt lat="59.9965046905" lon="32.5009727105"><ele>173.79</ele><time>2025-06-11T20:55:25Z</time></trkpt><trkpt lat="59.9964913633" lon="32.5005692896"><ele>173.79</ele><time>2025-06-11T20:55:26Z</time></trkpt><trkpt lat="59.9959760439" lon="32.5003008172"><ele>173.79</ele><time>2025-06-11T20:55:28Z</time></trkpt><trkpt lat="59.9947477598" lon="32.4986465648"><ele>173.79</ele><time>2025-06-11T20:55:32Z</time></trkpt><trkpt lat="59.9933394324" lon="32.4972094875"><ele>173.79</ele><time>2025-06-11T20:55:36Z</time></trkpt><trkpt lat="59.9920267425" lon="32.4957934488"><ele>173.78</ele><time>2025-06-11T20:55:40Z</time></trkpt><trkpt lat="59.9907466583" lon="32.4943592213"><ele>173.79</ele><time>2025-06-11T20:55:44Z</time></trkpt><trkpt lat="59.9892844353" lon="32.4929723516"><ele>173.79</ele><time>2025-06-11T20:55:48Z</time></trkpt><trkpt lat="59.9882565625" lon="32.4917014875"><ele>173.79</ele><time>2025-06-11T20:55:52Z</time></trkpt><trkpt lat="59.9865864683" lon="32.4905952439"><ele>173.79</ele><time>2025-06-11T20:55:56Z</time></trkpt><trkpt lat="59.9855267443" lon="32.4894976337"><ele>173.79</ele><time>2025-06-11T20:56:00Z</time></trkpt><trkpt lat="59.9840929359" lon="32.4884626362"><ele>173.79</ele><time>2025-06-11T20:56:04Z</time></trkpt><trkpt lat="59.9826954212" lon="32.4875429738"><ele>173.79</ele><time>2025-06-11T20:56:08Z</time></trkpt><trkpt lat="59.9803625699" lon="32.4860113487"><ele>173.79</ele><time>2025-06-11T20:56:13Z</time></trkpt><trkpt lat="59.9792983197" lon="32.4856536929"><ele>173.79</ele><time>2025-06-11T20:56:16Z</time></trkpt><trkpt lat="59.9780774117" lon="32.4850066099"><ele>173.79</ele><time>2025-06-11T20:56:20Z</time></trkpt><trkpt lat="59.9765537493" lon="32.4844573438"><ele>173.78</ele><time>2025-06-11T20:56:24Z</time></trkpt><trkpt lat="59.9755333364" lon="32.4837769847"><ele>173.79</ele><time>2025-06-11T20:56:28Z</time></trkpt><trkpt lat="59.9735840410" lon="32.4834038224"><ele>173.79</ele><time>2025-06-11T20:56:32Z</time></trkpt><trkpt lat="59.9721106701" lon="32.4828376248"><ele>173.79</ele><time>2025-06-11T20:56:36Z</time></trkpt><trkpt lat="59.9706497043" lon="32.4823990837"><ele>173.79</ele><time>2025-06-11T20:56:40Z</time></trkpt><trkpt lat="59.9690055102" lon="32.4822614528"><ele>173.79</ele><time>2025-06-11T20:56:44Z</time></trkpt><trkpt lat="59.9676284473" lon="32.4820819125"><ele>173.79</ele><time>2025-06-11T20:56:48Z</time></trkpt><trkpt lat="59.9662648793" lon="32.4819448683"><ele>173.80</ele><time>2025-06-11T20:56:52Z</time></trkpt><trkpt lat="59.9648838770" lon="32.4819928128"><ele>173.80</ele><time>2025-06-11T20:56:56Z</time></trkpt><trkpt lat="59.9632999487" lon="32.4821002688"><ele>173.79</ele><time>2025-06-11T20:57:00Z</time></trkpt><trkpt lat="59.9618435930" lon="32.4819413479"><ele>173.80</ele><time>2025-06-11T20:57:04Z</time></trkpt><trkpt lat="59.9603372812" lon="32.4824823160"><ele>173.79</ele><time>2025-06-11T20:57:08Z</time></trkpt><trkpt lat="59.9589237571" lon="32.4828383792"><ele>173.79</ele><time>2025-06-11T20:57:12Z</time></trkpt><trkpt lat="59.9575179443" lon="32.4831695482"><ele>173.80</ele><time>2025-06-11T20:57:16Z</time></trkpt><trkpt lat="59.9560438190" lon="32.4835832790"><ele>173.79</ele><time>2025-06-11T20:57:20Z</time></trkpt><trkpt lat="59.9546268582" lon="32.4841792323"><ele>173.79</ele><time>2025-06-11T20:57:24Z</time></trkpt><trkpt lat="59.9529018626" lon="32.4846689869"><ele>173.79</ele><time>2025-06-11T20:57:28Z</time></trkpt><trkpt lat="59.9516783562" lon="32.4855677783"><ele>173.79</ele><time>2025-06-11T20:57:32Z</time></trkpt><trkpt lat="59.9504092522" lon="32.4862988479"><ele>173.79</ele><time>2025-06-11T20:57:36Z</time></trkpt><trkpt lat="59.9488994200" lon="32.4874034151"><ele>173.79</ele><time>2025-06-11T20:57:40Z</time></trkpt><trkpt lat="59.9475454912" lon="32.4880851991"><ele>173.79</ele><time>2025-06-11T20:57:44Z</time></trkpt><trkpt lat="59.9463774730" lon="32.4891134072"><ele>173.79</ele><time>2025-06-11T20:57:48Z</time></trkpt><trkpt lat="59.9449275713" lon="32.4901333172"><ele>173.80</ele><time>2025-06-11T20:57:52Z</time></trkpt><trkpt lat="59.9433820322" lon="32.4912065361"><ele>173.80</ele><time>2025-06-11T20:57:56Z</time></trkpt><trkpt lat="59.9421484675" lon="32.4924619775"><ele>173.80</ele><time>2025-06-11T20:58:00Z</time></trkpt><trkpt lat="59.9405899365" lon="32.4943802599"><ele>173.79</ele><time>2025-06-11T20:58:04Z</time></trkpt><trkpt lat="59.9397390895" lon="32.4950970802"><ele>173.79</ele><time>2025-06-11T20:58:08Z</time></trkpt><trkpt lat="59.9376346450" lon="32.4980242085"><ele>173.79</ele><time>2025-06-11T20:58:16Z</time></trkpt><trkpt lat="59.9360209610" lon="32.4997523893"><ele>173.79</ele><time>2025-06-11T20:58:20Z</time></trkpt><trkpt lat="59.9346965365" lon="32.5014491379"><ele>173.79</ele><time>2025-06-11T20:58:24Z</time></trkpt><trkpt lat="59.9333571084" lon="32.5029825233"><ele>173.79</ele><time>2025-06-11T20:58:28Z</time></trkpt><trkpt lat="59.9320360366" lon="32.5049648434"><ele>173.79</ele><time>2025-06-11T20:58:32Z</time></trkpt><trkpt lat="59.9311195593" lon="32.5067769270"><ele>173.80</ele><time>2025-06-11T20:58:36Z</time></trkpt><trkpt lat="59.9305538647" lon="32.5085308403"><ele>173.79</ele><time>2025-06-11T20:58:40Z</time></trkpt><trkpt lat="59.9290350638" lon="32.5106141623"><ele>173.79</ele><time>2025-06-11T20:58:44Z</time></trkpt><trkpt lat="59.9277042691" lon="32.5128533877"><ele>173.77</ele><time>2025-06-11T20:58:48Z</time></trkpt><trkpt lat="59.9268641509" lon="32.5148497894"><ele>173.77</ele><time>2025-06-11T20:58:52Z</time></trkpt><trkpt lat="59.9256094638" lon="32.5169958919"><ele>173.78</ele><time>2025-06-11T20:58:56Z</time></trkpt><trkpt lat="59.9247351475" lon="32.5190086383"><ele>173.77</ele><time>2025-06-11T20:59:00Z</time></trkpt><trkpt lat="59.9235985614" lon="32.5213827286"><ele>173.80</ele><time>2025-06-11T20:59:04Z</time></trkpt><trkpt lat="59.9228463694" lon="32.5236179307"><ele>173.79</ele><time>2025-06-11T20:59:08Z</time></trkpt><trkpt lat="59.9219977856" lon="32.5258545578"><ele>173.79</ele><time>2025-06-11T20:59:12Z</time></trkpt><trkpt lat="59.9212739244" lon="32.5283374451"><ele>173.80</ele><time>2025-06-11T20:59:16Z</time></trkpt><trkpt lat="59.9202303775" lon="32.5306637585"><ele>173.79</ele><time>2025-06-11T20:59:20Z</time></trkpt><trkpt lat="59.9194807000" lon="32.5333160441"><ele>173.79</ele><time>2025-06-11T20:59:24Z</time></trkpt><trkpt lat="59.9187881872" lon="32.5358115043"><ele>173.79</ele><time>2025-06-11T20:59:28Z</time></trkpt><trkpt lat="59.9179458898" lon="32.5382558350"><ele>173.79</ele><time>2025-06-11T20:59:32Z</time></trkpt><trkpt lat="59.9173838831" lon="32.5410187617"><ele>173.79</ele><time>2025-06-11T20:59:36Z</time></trkpt><trkpt lat="59.9167125765" lon="32.5435200054"><ele>173.79</ele><time>2025-06-11T20:59:40Z</time></trkpt><trkpt lat="59.9159965105" lon="32.5462817587"><ele>173.79</ele><time>2025-06-11T20:59:44Z</time></trkpt><trkpt lat="59.9155933410" lon="32.5488284323"><ele>173.79</ele><time>2025-06-11T20:59:47Z</time></trkpt><trkpt lat="59.9153353460" lon="32.5502488296"><ele>173.79</ele><time>2025-06-11T20:59:49Z</time></trkpt><trkpt lat="59.9152208492" lon="32.5508403406"><ele>173.79</ele><time>2025-06-11T20:59:50Z</time></trkpt><trkpt lat="59.9148522131" lon="32.5514077954"><ele>173.79</ele><time>2025-06-11T20:59:52Z</time></trkpt><trkpt lat="59.9147768598" lon="32.5535465218"><ele>173.79</ele><time>2025-06-11T20:59:54Z</time></trkpt><trkpt lat="59.9143881910" lon="32.5544102769"><ele>173.79</ele><time>2025-06-11T20:59:56Z</time></trkpt><trkpt lat="59.9144161865" lon="32.5571369939"><ele>173.80</ele><time>2025-06-11T21:00:00Z</time></trkpt><trkpt lat="59.9129670393" lon="32.5599228032"><ele>173.80</ele><time>2025-06-11T21:00:04Z</time></trkpt><trkpt lat="59.9126869999" lon="32.5628464948"><ele>173.81</ele><time>2025-06-11T21:00:08Z</time></trkpt><trkpt lat="59.9124280829" lon="32.5658643153"><ele>173.80</ele><time>2025-06-11T21:00:12Z</time></trkpt><trkpt lat="59.9122365564" lon="32.5686782040"><ele>173.79</ele><time>2025-06-11T21:00:16Z</time></trkpt><trkpt lat="59.9123918731" lon="32.5715650991"><ele>173.79</ele><time>2025-06-11T21:00:20Z</time></trkpt><trkpt lat="59.9120629672" lon="32.5745674968"><ele>173.79</ele><time>2025-06-11T21:00:24Z</time></trkpt><trkpt lat="59.9118923116" lon="32.5775113050"><ele>173.79</ele><time>2025-06-11T21:00:28Z</time></trkpt><trkpt lat="59.9117680918" lon="32.5804325659"><ele>173.79</ele><time>2025-06-11T21:00:32Z</time></trkpt><trkpt lat="59.9116021302" lon="32.5834155176"><ele>173.80</ele><time>2025-06-11T21:00:36Z</time></trkpt><trkpt lat="59.9115395173" lon="32.5863492675"><ele>173.80</ele><time>2025-06-11T21:00:40Z</time></trkpt><trkpt lat="59.9115298782" lon="32.5892421976"><ele>173.78</ele><time>2025-06-11T21:00:44Z</time></trkpt><trkpt lat="59.9115632381" lon="32.5921394862"><ele>173.80</ele><time>2025-06-11T21:00:48Z</time></trkpt><trkpt lat="59.9116511643" lon="32.5950250402"><ele>173.80</ele><time>2025-06-11T21:00:52Z</time></trkpt><trkpt lat="59.9117556866" lon="32.5979183055"><ele>173.80</ele><time>2025-06-11T21:00:56Z</time></trkpt><trkpt lat="59.9117993563" lon="32.6008951385"><ele>173.80</ele><time>2025-06-11T21:01:00Z</time></trkpt><trkpt lat="59.9120244943" lon="32.6038029045"><ele>173.79</ele><time>2025-06-11T21:01:04Z</time></trkpt><trkpt lat="59.9122695811" lon="32.6067221537"><ele>173.78</ele><time>2025-06-11T21:01:08Z</time></trkpt><trkpt lat="59.9124712497" lon="32.6096635312"><ele>173.79</ele><time>2025-06-11T21:01:12Z</time></trkpt><trkpt lat="59.9127792008" lon="32.6124944352"><ele>173.79</ele><time>2025-06-11T21:01:16Z</time></trkpt><trkpt lat="59.9131278042" lon="32.6153643988"><ele>173.79</ele><time>2025-06-11T21:01:20Z</time></trkpt><trkpt lat="59.9135062471" lon="32.6181762759"><ele>173.79</ele><time>2025-06-11T21:01:24Z</time></trkpt><trkpt lat="59.9139614683" lon="32.6209195051"><ele>173.79</ele><time>2025-06-11T21:01:28Z</time></trkpt><trkpt lat="59.9143372290" lon="32.6237732079"><ele>173.79</ele><time>2025-06-11T21:01:32Z</time></trkpt><trkpt lat="59.9148583319" lon="32.6265034452"><ele>173.79</ele><time>2025-06-11T21:01:36Z</time></trkpt><trkpt lat="59.9154443946" lon="32.6293212734"><ele>173.79</ele><time>2025-06-11T21:01:40Z</time></trkpt><trkpt lat="59.9159665871" lon="32.6319825277"><ele>173.79</ele><time>2025-06-11T21:01:44Z</time></trkpt><trkpt lat="59.9165495485" lon="32.6346541755"><ele>173.79</ele><time>2025-06-11T21:01:48Z</time></trkpt><trkpt lat="59.9171429873" lon="32.6373611949"><ele>173.79</ele><time>2025-06-11T21:01:52Z</time></trkpt><trkpt lat="59.9177773297" lon="32.6400026679"><ele>173.80</ele><time>2025-06-11T21:01:56Z</time></trkpt><trkpt lat="59.9184921384" lon="32.6425412111"><ele>173.79</ele><time>2025-06-11T21:02:00Z</time></trkpt><trkpt lat="59.9192562327" lon="32.6450394373"><ele>173.79</ele><time>2025-06-11T21:02:04Z</time></trkpt><trkpt lat="59.9200472329" lon="32.6474993583"><ele>173.80</ele><time>2025-06-11T21:02:08Z</time></trkpt><trkpt lat="59.9208392389" lon="32.6499598660"><ele>173.79</ele><time>2025-06-11T21:02:12Z</time></trkpt><trkpt lat="59.9216949474" lon="32.6523988321"><ele>173.80</ele><time>2025-06-11T21:02:16Z</time></trkpt><trkpt lat="59.9225611333" lon="32.6547834836"><ele>173.82</ele><time>2025-06-11T21:02:20Z</time></trkpt><trkpt lat="59.9234846514" lon="32.6570312586"><ele>173.80</ele><time>2025-06-11T21:02:24Z</time></trkpt><trkpt lat="59.9244506657" lon="32.6592372078"><ele>173.79</ele><time>2025-06-11T21:02:28Z</time></trkpt><trkpt lat="59.9254207872" lon="32.6614837255"><ele>173.80</ele><time>2025-06-11T21:02:32Z</time></trkpt><trkpt lat="59.9263383541" lon="32.6637169998"><ele>173.80</ele><time>2025-06-11T21:02:36Z</time></trkpt><trkpt lat="59.9274389818" lon="32.6657123957"><ele>173.80</ele><time>2025-06-11T21:02:40Z</time></trkpt><trkpt lat="59.9285010528" lon="32.6677848212"><ele>173.80</ele><time>2025-06-11T21:02:44Z</time></trkpt><trkpt lat="59.9295714218" lon="32.6697595976"><ele>173.79</ele><time>2025-06-11T21:02:48Z</time></trkpt><trkpt lat="59.9305906612" lon="32.6717698295"><ele>173.81</ele><time>2025-06-11T21:02:52Z</time></trkpt><trkpt lat="59.9317448493" lon="32.6737083960"><ele>173.80</ele><time>2025-06-11T21:02:56Z</time></trkpt><trkpt lat="59.9329185672" lon="32.6754665840"><ele>173.78</ele><time>2025-06-11T21:03:00Z</time></trkpt><trkpt lat="59.9341168441" lon="32.6772262808"><ele>173.77</ele><time>2025-06-11T21:03:04Z</time></trkpt><trkpt lat="59.9353058171" lon="32.6789026614"><ele>173.79</ele><time>2025-06-11T21:03:08Z</time></trkpt><trkpt lat="59.9365308322" lon="32.6805421617"><ele>173.79</ele><time>2025-06-11T21:03:12Z</time></trkpt><trkpt lat="59.9378037918" lon="32.6820602920"><ele>173.79</ele><time>2025-06-11T21:03:16Z</time></trkpt><trkpt lat="59.9322620127" lon="32.6875303220"><ele>173.81</ele><time>2025-06-11T21:03:48Z</time></trkpt><trkpt lat="60.1183569431" lon="32.3208365589"><ele>172.99</ele><time>2025-06-11T21:45:19Z</time></trkpt><trkpt lat="60.1184436120" lon="32.3210171890"><ele>172.99</ele><time>2025-06-11T21:45:28Z</time></trkpt><trkpt lat="60.1185856853" lon="32.3213551473"><ele>172.99</ele><time>2025-06-11T21:45:40Z</time></trkpt><trkpt lat="60.1186190452" lon="32.3209419195"><ele>172.99</ele><time>2025-06-11T21:45:47Z</time></trkpt><trkpt lat="60.1186113339" lon="32.3209087271"><ele>172.98</ele><time>2025-06-11T21:45:51Z</time></trkpt><trkpt lat="60.1184270158" lon="32.3206457030"><ele>169.93</ele><time>2025-06-11T21:48:52Z</time></trkpt><trkpt lat="60.1184569392" lon="32.3206164502"><ele>166.90</ele><time>2025-06-11T21:49:26Z</time></trkpt><trkpt lat="60.1184845995" lon="32.3206522409"><ele>166.37</ele><time>2025-06-11T21:49:32Z</time></trkpt><trkpt lat="60.1185255032" lon="32.3208700027"><ele>163.27</ele><time>2025-06-11T21:50:08Z</time></trkpt><trkpt lat="60.1185371540" lon="32.3208635487"><ele>160.26</ele><time>2025-06-11T21:50:40Z</time></trkpt><trkpt lat="60.1184711885" lon="32.3208007682"><ele>157.22</ele><time>2025-06-11T21:51:11Z</time></trkpt><trkpt lat="60.1184189692" lon="32.3206788115"><ele>154.14</ele><time>2025-06-11T21:51:46Z</time></trkpt><trkpt lat="60.1184815820" lon="32.3207499739"><ele>151.08</ele><time>2025-06-11T21:52:24Z</time></trkpt><trkpt lat="60.1184281893" lon="32.3208033666"><ele>150.68</ele><time>2025-06-11T21:53:23Z</time></trkpt><trkpt lat="60.1185231563" lon="32.3208223935"><ele>147.66</ele><time>2025-06-11T21:54:43Z</time></trkpt><trkpt lat="60.1185911335" lon="32.3206442781"><ele>147.43</ele><time>2025-06-11T21:56:14Z</time></trkpt><trkpt lat="60.1185815781" lon="32.3206547555"><ele>147.43</ele><time>2025-06-11T21:56:16Z</time></trkpt><trkpt lat="60.1185435243" lon="32.3207122553"><ele>147.42</ele><time>2025-06-11T21:56:21Z</time></trkpt><trkpt lat="60.1184145268" lon="32.3208673205"><ele>144.33</ele><time>2025-06-11T21:58:55Z</time></trkpt><trkpt lat="60.1183271036" lon="32.3208116647"><ele>141.28</ele><time>2025-06-11T22:00:22Z</time></trkpt><trkpt lat="60.1184270158" lon="32.3208774626"><ele>139.60</ele><time>2025-06-11T22:03:09Z</time></trkpt><trkpt lat="60.1183240861" lon="32.3206361476"><ele>139.58</ele><time>2025-06-11T22:03:45Z</time></trkpt><trkpt lat="60.1183090825" lon="32.3206337169"><ele>139.02</ele><time>2025-06-11T22:04:02Z</time></trkpt><trkpt lat="60.1182753034" lon="32.3206034582"><ele>137.86</ele><time>2025-06-11T22:04:16Z</time></trkpt><trkpt lat="60.1183008682" lon="32.3206014466"><ele>136.68</ele><time>2025-06-11T22:04:31Z</time></trkpt><trkpt lat="60.1183580328" lon="32.3206329625"><ele>134.29</ele><time>2025-06-11T22:05:03Z</time></trkpt><trkpt lat="60.1183367427" lon="32.3206518218"><ele>131.22</ele><time>2025-06-11T22:05:46Z</time></trkpt><trkpt lat="60.1182032190" lon="32.3207710963"><ele>128.13</ele><time>2025-06-11T22:07:22Z</time></trkpt><trkpt lat="60.1182224136" lon="32.3206497263"><ele>127.18</ele><time>2025-06-11T22:07:53Z</time></trkpt><trkpt lat="60.1182801649" lon="32.3206933960"><ele>127.18</ele><time>2025-06-11T22:08:11Z</time></trkpt><trkpt lat="60.1181840245" lon="32.3206138518"><ele>126.99</ele><time>2025-06-11T22:10:37Z</time></trkpt><trkpt lat="60.1183157042" lon="32.3207467888"><ele>125.72</ele><time>2025-06-11T22:11:37Z</time></trkpt><trkpt lat="60.1183468848" lon="32.3208270036"><ele>124.59</ele><time>2025-06-11T22:12:09Z</time></trkpt><trkpt lat="60.1184247527" lon="32.3208213877"><ele>124.58</ele><time>2025-06-11T22:12:18Z</time></trkpt><trkpt lat="60.1184882876" lon="32.3208271712"><ele>123.32</ele><time>2025-06-11T22:13:24Z</time></trkpt><trkpt lat="60.1183169615" lon="32.3207231518"><ele>123.32</ele><time>2025-06-11T22:15:07Z</time></trkpt><trkpt lat="60.1183183864" lon="32.3208336253"><ele>123.32</ele><time>2025-06-11T22:16:23Z</time></trkpt><trkpt lat="60.1183064003" lon="32.3207415920"><ele>123.25</ele><time>2025-06-11T22:16:46Z</time></trkpt><trkpt lat="60.1183075737" lon="32.3207498062"><ele>121.93</ele><time>2025-06-11T22:17:06Z</time></trkpt><trkpt lat="60.1182186417" lon="32.3205026239"><ele>118.85</ele><time>2025-06-11T22:18:14Z</time></trkpt><trkpt lat="60.1182112657" lon="32.3204671685"><ele>118.44</ele><time>2025-06-11T22:18:21Z</time></trkpt><trkpt lat="60.1181812584" lon="32.3207704257"><ele>117.54</ele><time>2025-06-11T22:20:14Z</time></trkpt><trkpt lat="60.1182475593" lon="32.3207998462"><ele>117.54</ele><time>2025-06-11T22:20:20Z</time></trkpt><trkpt lat="60.1182861160" lon="32.3208016064"><ele>117.53</ele><time>2025-06-11T22:20:31Z</time></trkpt><trkpt lat="60.1182621438" lon="32.3205952439"><ele>117.54</ele><time>2025-06-11T22:20:52Z</time></trkpt><trkpt lat="60.1181841083" lon="32.3201318923"><ele>114.53</ele><time>2025-06-11T22:22:51Z</time></trkpt><trkpt lat="60.1181873772" lon="32.3199803475"><ele>112.09</ele><time>2025-06-11T22:24:22Z</time></trkpt><trkpt lat="60.1181764808" lon="32.3206347227"><ele>109.08</ele><time>2025-06-11T22:26:08Z</time></trkpt><trkpt lat="60.1181060728" lon="32.3206562642"><ele>106.06</ele><time>2025-06-11T22:29:12Z</time></trkpt><trkpt lat="60.1180991158" lon="32.3206607904"><ele>103.04</ele><time>2025-06-11T22:30:50Z</time></trkpt><trkpt lat="60.1181911491" lon="32.3206210602"><ele>99.99</ele><time>2025-06-11T22:32:25Z</time></trkpt><trkpt lat="60.1181882154" lon="32.3205421027"><ele>99.04</ele><time>2025-06-11T22:33:31Z</time></trkpt><trkpt lat="60.1182275265" lon="32.3203648254"><ele>99.03</ele><time>2025-06-11T22:33:44Z</time></trkpt><trkpt lat="60.1182587910" lon="32.3202787433"><ele>99.05</ele><time>2025-06-11T22:33:53Z</time></trkpt><trkpt lat="60.1183045562" lon="32.3201275337"><ele>99.05</ele><time>2025-06-11T22:34:03Z</time></trkpt><trkpt lat="60.1183097530" lon="32.3202504124"><ele>99.03</ele><time>2025-06-11T22:34:14Z</time></trkpt><trkpt lat="60.1183066517" lon="32.3208676558"><ele>99.04</ele><time>2025-06-11T22:34:49Z</time></trkpt><trkpt lat="60.1185283531" lon="32.3209729325"><ele>98.53</ele><time>2025-06-11T22:38:58Z</time></trkpt><trkpt lat="60.1185203902" lon="32.3209968209"><ele>98.54</ele><time>2025-06-11T22:39:17Z</time></trkpt><trkpt lat="60.1185860205" lon="32.3210653011"><ele>98.44</ele><time>2025-06-11T22:39:48Z</time></trkpt><trkpt lat="60.1185948215" lon="32.3210471962"><ele>98.44</ele><time>2025-06-11T22:41:23Z</time></trkpt><trkpt lat="60.1186203025" lon="32.3209944740"><ele>98.44</ele><time>2025-06-11T22:43:35Z</time></trkpt><trkpt lat="60.1186192129" lon="32.3209897801"><ele>98.44</ele><time>2025-06-11T22:45:36Z</time></trkpt><trkpt lat="60.1186307799" lon="32.3209901154"><ele>98.43</ele><time>2025-06-11T22:45:38Z</time></trkpt><trkpt lat="60.1183564402" lon="32.3208435997"><ele>98.45</ele><time>2025-06-11T22:47:57Z</time></trkpt><trkpt lat="60.1185793150" lon="32.3206475470"><ele>98.44</ele><time>2025-06-11T22:51:30Z</time></trkpt><trkpt lat="60.1185950730" lon="32.3207296059"><ele>98.42</ele><time>2025-06-11T22:52:50Z</time></trkpt><trkpt lat="60.1186126750" lon="32.3208078928"><ele>98.44</ele><time>2025-06-11T22:53:21Z</time></trkpt><trkpt lat="60.1186047960" lon="32.3209761176"><ele>98.44</ele><time>2025-06-11T22:53:49Z</time></trkpt><trkpt lat="60.1187218912" lon="32.3209199589"><ele>98.43</ele><time>2025-06-11T22:55:20Z</time></trkpt><trkpt lat="60.1185426023" lon="32.3207157757"><ele>98.44</ele><time>2025-06-11T22:56:55Z</time></trkpt><trkpt lat="60.1185754593" lon="32.3207446095"><ele>98.44</ele><time>2025-06-11T22:57:04Z</time></trkpt><trkpt lat="60.1185555104" lon="32.3210312705"><ele>98.44</ele><time>2025-06-11T22:58:41Z</time></trkpt><trkpt lat="60.1185496431" lon="32.3209984135"><ele>98.44</ele><time>2025-06-11T22:58:44Z</time></trkpt><trkpt lat="60.1183824241" lon="32.3208542448"><ele>98.42</ele><time>2025-06-11T22:59:29Z</time></trkpt><trkpt lat="60.1183723658" lon="32.3206619639"><ele>98.44</ele><time>2025-06-11T22:59:51Z</time></trkpt><trkpt lat="60.1184167899" lon="32.3207001854"><ele>98.44</ele><time>2025-06-11T23:00:06Z</time></trkpt><trkpt lat="60.1180881355" lon="32.3201707844"><ele>98.44</ele><time>2025-06-11T23:01:15Z</time></trkpt><trkpt lat="60.1183659956" lon="32.3209963180"><ele>98.43</ele><time>2025-06-11T23:01:32Z</time></trkpt><trkpt lat="60.1183460467" lon="32.3209005129"><ele>98.44</ele><time>2025-06-11T23:02:13Z</time></trkpt><trkpt lat="60.1180870458" lon="32.3206303641"><ele>98.44</ele><time>2025-06-11T23:03:36Z</time></trkpt><trkpt lat="60.1181696914" lon="32.3206084035"><ele>98.44</ele><time>2025-06-11T23:04:02Z</time></trkpt><trkpt lat="60.1181680989" lon="32.3209328670"><ele>98.44</ele><time>2025-06-11T23:04:33Z</time></trkpt><trkpt lat="60.1183653250" lon="32.3209781293"><ele>98.43</ele><time>2025-06-11T23:05:19Z</time></trkpt><trkpt lat="60.1183877047" lon="32.3210000899"><ele>98.44</ele><time>2025-06-11T23:05:24Z</time></trkpt><trkpt lat="60.1184313744" lon="32.3210495431"><ele>98.44</ele><time>2025-06-11T23:05:28Z</time></trkpt><trkpt lat="60.1183938235" lon="32.3210046999"><ele>98.45</ele><time>2025-06-11T23:05:43Z</time></trkpt><trkpt lat="60.1183485612" lon="32.3209323641"><ele>98.44</ele><time>2025-06-11T23:05:47Z</time></trkpt><trkpt lat="60.1184075698" lon="32.3208385706"><ele>98.44</ele><time>2025-06-11T23:06:32Z</time></trkpt><trkpt lat="60.1184276864" lon="32.3208285961"><ele>98.44</ele><time>2025-06-11T23:06:34Z</time></trkpt><trkpt lat="60.1183999423" lon="32.3207310308"><ele>98.44</ele><time>2025-06-11T23:09:49Z</time></trkpt><trkpt lat="60.1183462143" lon="32.3206229880"><ele>98.45</ele><time>2025-06-11T23:10:02Z</time></trkpt><trkpt lat="60.1183436159" lon="32.3206011951"><ele>98.45</ele><time>2025-06-11T23:10:04Z</time></trkpt><trkpt lat="60.1183149498" lon="32.3206405062"><ele>98.45</ele><time>2025-06-11T23:10:53Z</time></trkpt><trkpt lat="60.1184999384" lon="32.3206376564"><ele>100.71</ele><time>2025-06-11T23:13:35Z</time></trkpt><trkpt lat="60.1185531635" lon="32.3207472917"><ele>100.71</ele><time>2025-06-11T23:14:34Z</time></trkpt><trkpt lat="60.1186442748" lon="32.3207920510"><ele>100.71</ele><time>2025-06-11T23:15:16Z</time></trkpt><trkpt lat="60.1186897885" lon="32.3207964934"><ele>100.72</ele><time>2025-06-11T23:15:23Z</time></trkpt><trkpt lat="60.1188196242" lon="32.3208579328"><ele>100.71</ele><time>2025-06-11T23:16:37Z</time></trkpt><trkpt lat="60.1189061254" lon="32.3210046161"><ele>100.71</ele><time>2025-06-11T23:16:54Z</time></trkpt><trkpt lat="60.1187500544" lon="32.3209371418"><ele>100.71</ele><time>2025-06-11T23:17:10Z</time></trkpt><trkpt lat="60.1186735276" lon="32.3208176158"><ele>100.71</ele><time>2025-06-11T23:17:21Z</time></trkpt><trkpt lat="60.1185809914" lon="32.3208104912"><ele>100.71</ele><time>2025-06-11T23:17:28Z</time></trkpt><trkpt lat="60.1184313744" lon="32.3207027838"><ele>100.74</ele><time>2025-06-11T23:21:47Z</time></trkpt><trkpt lat="60.1183959190" lon="32.3204854410"><ele>100.72</ele><time>2025-06-11T23:22:33Z</time></trkpt><trkpt lat="60.1184507366" lon="32.3207587749"><ele>97.70</ele><time>2025-06-11T23:24:13Z</time></trkpt><trkpt lat="60.1185068116" lon="32.3206620477"><ele>97.44</ele><time>2025-06-11T23:30:40Z</time></trkpt><trkpt lat="60.1184894610" lon="32.3205931485"><ele>94.41</ele><time>2025-06-11T23:32:52Z</time></trkpt><trkpt lat="60.1185607072" lon="32.3205202259"><ele>91.41</ele><time>2025-06-11T23:34:34Z</time></trkpt><trkpt lat="60.1184344757" lon="32.3207667377"><ele>88.63</ele><time>2025-06-11T23:37:00Z</time></trkpt><trkpt lat="60.1186173689" lon="32.3208508920"><ele>89.06</ele><time>2025-06-11T23:38:54Z</time></trkpt><trkpt lat="60.1184706856" lon="32.3206415121"><ele>89.06</ele><time>2025-06-11T23:39:31Z</time></trkpt><trkpt lat="60.1184538379" lon="32.3207699228"><ele>86.01</ele><time>2025-06-11T23:41:05Z</time></trkpt><trkpt lat="60.1184663270" lon="32.3208373133"><ele>84.26</ele><time>2025-06-11T23:42:43Z</time></trkpt><trkpt lat="59.9948381167" lon="32.4997535627"><ele>85.10</ele><time>2025-06-12T00:03:26Z</time></trkpt><trkpt lat="59.9907118734" lon="32.4948700983"><ele>85.11</ele><time>2025-06-12T00:03:39Z</time></trkpt><trkpt lat="59.9867933337" lon="32.4910257384"><ele>85.33</ele><time>2025-06-12T00:03:51Z</time></trkpt><trkpt lat="59.9823265336" lon="32.4876238592"><ele>85.57</ele><time>2025-06-12T00:04:04Z</time></trkpt><trkpt lat="59.9777221866" lon="32.4850592483"><ele>85.76</ele><time>2025-06-12T00:04:17Z</time></trkpt><trkpt lat="59.9733865634" lon="32.4834102765"><ele>85.96</ele><time>2025-06-12T00:04:29Z</time></trkpt><trkpt lat="59.9682796374" lon="32.4823916238"><ele>86.16</ele><time>2025-06-12T00:04:43Z</time></trkpt><trkpt lat="59.9635065626" lon="32.4823285919"><ele>86.36</ele><time>2025-06-12T00:04:56Z</time></trkpt><trkpt lat="59.9587285426" lon="32.4831573945"><ele>86.52</ele><time>2025-06-12T00:05:09Z</time></trkpt><trkpt lat="59.9539963715" lon="32.4848116469"><ele>86.70</ele><time>2025-06-12T00:05:22Z</time></trkpt><trkpt lat="59.9497287255" lon="32.4870259780"><ele>86.85</ele><time>2025-06-12T00:05:34Z</time></trkpt><trkpt lat="59.9452183396" lon="32.4902430363"><ele>87.06</ele><time>2025-06-12T00:05:47Z</time></trkpt><trkpt lat="59.9408735801" lon="32.4942355882"><ele>87.22</ele><time>2025-06-12T00:06:00Z</time></trkpt><trkpt lat="59.9370416254" lon="32.4986114446"><ele>87.38</ele><time>2025-06-12T00:06:12Z</time></trkpt><trkpt lat="59.9331002869" lon="32.5040186103"><ele>87.55</ele><time>2025-06-12T00:06:25Z</time></trkpt><trkpt lat="59.9296823982" lon="32.5096010417"><ele>87.72</ele><time>2025-06-12T00:06:37Z</time></trkpt><trkpt lat="59.9262728076" lon="32.5162234996"><ele>87.90</ele><time>2025-06-12T00:06:50Z</time></trkpt><trkpt lat="59.9233584199" lon="32.5229038764"><ele>88.05</ele><time>2025-06-12T00:07:02Z</time></trkpt><trkpt lat="59.9205580261" lon="32.5306259561"><ele>88.19</ele><time>2025-06-12T00:07:15Z</time></trkpt><trkpt lat="59.9181294534" lon="32.5388145726"><ele>88.34</ele><time>2025-06-12T00:07:28Z</time></trkpt><trkpt lat="59.9160605483" lon="32.5474007428"><ele>88.49</ele><time>2025-06-12T00:07:41Z</time></trkpt><trkpt lat="59.9143791385" lon="32.5562910922"><ele>88.62</ele><time>2025-06-12T00:07:54Z</time></trkpt><trkpt lat="59.9130773451" lon="32.5654553622"><ele>88.73</ele><time>2025-06-12T00:08:07Z</time></trkpt><trkpt lat="59.9121698365" lon="32.5755712297"><ele>88.88</ele><time>2025-06-12T00:08:21Z</time></trkpt><trkpt lat="59.9117260985" lon="32.5857927930"><ele>89.00</ele><time>2025-06-12T00:08:35Z</time></trkpt><trkpt lat="59.9117096700" lon="32.5938782282"><ele>89.12</ele><time>2025-06-12T00:08:46Z</time></trkpt><trkpt lat="59.9120409228" lon="32.6026431844"><ele>89.26</ele><time>2025-06-12T00:08:58Z</time></trkpt><trkpt lat="59.9128256366" lon="32.6120399684"><ele>89.43</ele><time>2025-06-12T00:09:11Z</time></trkpt><trkpt lat="59.9141308665" lon="32.6219694223"><ele>89.62</ele><time>2025-06-12T00:09:25Z</time></trkpt><trkpt lat="59.9158974364" lon="32.6316132210"><ele>89.83</ele><time>2025-06-12T00:09:39Z</time></trkpt><trkpt lat="59.9181027990" lon="32.6408810075"><ele>90.08</ele><time>2025-06-12T00:09:53Z</time></trkpt><trkpt lat="59.9201737996" lon="32.6478161104"><ele>90.27</ele><time>2025-06-12T00:10:04Z</time></trkpt><trkpt lat="59.9229511432" lon="32.6556194946"><ele>90.47</ele><time>2025-06-12T00:10:17Z</time></trkpt><trkpt lat="59.9260645173" lon="32.6629006863"><ele>90.64</ele><time>2025-06-12T00:10:30Z</time></trkpt><trkpt lat="59.9297359586" lon="32.6701080333"><ele>90.78</ele><time>2025-06-12T00:10:44Z</time></trkpt><trkpt lat="59.9337167758" lon="32.6765539683"><ele>91.00</ele><time>2025-06-12T00:10:58Z</time></trkpt><trkpt lat="59.9376908038" lon="32.6817936637"><ele>91.23</ele><time>2025-06-12T00:11:11Z</time></trkpt><trkpt lat="59.9428398907" lon="32.6874947827"><ele>91.44</ele><time>2025-06-12T00:11:27Z</time></trkpt><trkpt lat="59.9513046909" lon="32.6966982801"><ele>91.45</ele><time>2025-06-12T00:11:54Z</time></trkpt><trkpt lat="59.9513046909" lon="32.6966982801"><ele>91.45</ele><time>2025-06-12T00:14:10Z</time></trkpt><trkpt lat="59.9769786280" lon="32.6970153674"><ele>91.45</ele><time>2025-06-12T00:14:15Z</time></trkpt><trkpt lat="59.9808446132" lon="32.6917867362"><ele>91.45</ele><time>2025-06-12T00:14:27Z</time></trkpt><trkpt lat="59.9838565663" lon="32.6898755785"><ele>91.45</ele><time>2025-06-12T00:14:38Z</time></trkpt><trkpt lat="59.9875095673" lon="32.6873313356"><ele>91.45</ele><time>2025-06-12T00:14:49Z</time></trkpt><trkpt lat="59.9912986066" lon="32.6840420254"><ele>91.46</ele><time>2025-06-12T00:15:00Z</time></trkpt><trkpt lat="60.0015485846" lon="32.6741649583"><ele>91.45</ele><time>2025-06-12T00:15:32Z</time></trkpt><trkpt lat="60.0015485846" lon="32.6741649583"><ele>93.11</ele><time>2025-06-12T01:00:17Z</time></trkpt><trkpt lat="59.9740620609" lon="32.6959308330"><ele>93.11</ele><time>2025-06-12T01:00:19Z</time></trkpt><trkpt lat="59.9786494765" lon="32.6939720660"><ele>93.11</ele><time>2025-06-12T01:00:32Z</time></trkpt><trkpt lat="59.9832492135" lon="32.6919964515"><ele>93.10</ele><time>2025-06-12T01:00:45Z</time></trkpt><trkpt lat="59.9947268050" lon="32.6814941783"><ele>93.10</ele><time>2025-06-12T01:01:18Z</time></trkpt><trkpt lat="59.9949715566" lon="32.6813003886"><ele>93.11</ele><time>2025-06-12T01:01:19Z</time></trkpt><trkpt lat="59.9949715566" lon="32.6813003886"><ele>93.11</ele><time>2025-06-12T01:01:30Z</time></trkpt><trkpt lat="60.0012896676" lon="32.6673917938"><ele>93.13</ele><time>2025-06-12T01:01:43Z</time></trkpt><trkpt lat="60.0039675180" lon="32.6621727180"><ele>93.11</ele><time>2025-06-12T01:01:55Z</time></trkpt><trkpt lat="60.0063211564" lon="32.6565553341"><ele>93.10</ele><time>2025-06-12T01:02:07Z</time></trkpt><trkpt lat="60.0085639022" lon="32.6499904599"><ele>93.11</ele><time>2025-06-12T01:02:19Z</time></trkpt><trkpt lat="60.0106198154" lon="32.6427080110"><ele>93.12</ele><time>2025-06-12T01:02:31Z</time></trkpt><trkpt lat="60.0122602377" lon="32.6356087066"><ele>93.12</ele><time>2025-06-12T01:02:42Z</time></trkpt><trkpt lat="60.0139431562" lon="32.6267663017"><ele>93.11</ele><time>2025-06-12T01:02:55Z</time></trkpt><trkpt lat="60.0151893776" lon="32.6183299161"><ele>93.11</ele><time>2025-06-12T01:03:07Z</time></trkpt><trkpt lat="60.0168799236" lon="32.6064646617"><ele>93.11</ele><time>2025-06-12T01:03:21Z</time></trkpt><trkpt lat="60.0177403260" lon="32.5966193620"><ele>93.12</ele><time>2025-06-12T01:03:33Z</time></trkpt><trkpt lat="60.0179326069" lon="32.5860598404"><ele>93.10</ele><time>2025-06-12T01:03:47Z</time></trkpt><trkpt lat="60.0177124981" lon="32.5769772939"><ele>93.09</ele><time>2025-06-12T01:03:59Z</time></trkpt><trkpt lat="60.0169160496" lon="32.5667107198"><ele>93.12</ele><time>2025-06-12T01:04:13Z</time></trkpt><trkpt lat="60.0157311000" lon="32.5583647750"><ele>93.11</ele><time>2025-06-12T01:04:25Z</time></trkpt><trkpt lat="60.0138420705" lon="32.5511995889"><ele>93.11</ele><time>2025-06-12T01:04:37Z</time></trkpt><trkpt lat="60.0118798669" lon="32.5447726808"><ele>93.12</ele><time>2025-06-12T01:04:48Z</time></trkpt><trkpt lat="60.0091067981" lon="32.5363756064"><ele>93.12</ele><time>2025-06-12T01:05:02Z</time></trkpt><trkpt lat="60.0069507211" lon="32.5270596240"><ele>93.11</ele><time>2025-06-12T01:05:15Z</time></trkpt><trkpt lat="60.0045597833" lon="32.5192254782"><ele>93.13</ele><time>2025-06-12T01:05:27Z</time></trkpt><trkpt lat="60.0016694516" lon="32.5124781299"><ele>93.11</ele><time>2025-06-12T01:05:39Z</time></trkpt><trkpt lat="59.9985376373" lon="32.5062548183"><ele>93.11</ele><time>2025-06-12T01:05:51Z</time></trkpt><trkpt lat="59.9950771686" lon="32.5007253606"><ele>93.11</ele><time>2025-06-12T01:06:03Z</time></trkpt><trkpt lat="59.9913647398" lon="32.4959560577"><ele>93.11</ele><time>2025-06-12T01:06:15Z</time></trkpt><trkpt lat="59.9874855950" lon="32.4918216001"><ele>93.11</ele><time>2025-06-12T01:06:27Z</time></trkpt><trkpt lat="59.9834265746" lon="32.4884394184"><ele>93.12</ele><time>2025-06-12T01:06:39Z</time></trkpt><trkpt lat="59.9790342897" lon="32.4850896746"><ele>93.10</ele><time>2025-06-12T01:06:52Z</time></trkpt><trkpt lat="59.9742255919" lon="32.4831400439"><ele>93.12</ele><time>2025-06-12T01:07:05Z</time></trkpt><trkpt lat="59.9702353869" lon="32.4829270598"><ele>93.12</ele><time>2025-06-12T01:07:15Z</time></trkpt><trkpt lat="59.9653354939" lon="32.4836207461"><ele>93.11</ele><time>2025-06-12T01:07:27Z</time></trkpt><trkpt lat="59.9609491602" lon="32.4846456852"><ele>93.11</ele><time>2025-06-12T01:07:38Z</time></trkpt><trkpt lat="59.9563269597" lon="32.4861252587"><ele>93.10</ele><time>2025-06-12T01:07:50Z</time></trkpt><trkpt lat="59.9524638243" lon="32.4879825208"><ele>93.11</ele><time>2025-06-12T01:08:00Z</time></trkpt><trkpt lat="59.9480223376" lon="32.4867077172"><ele>93.12</ele><time>2025-06-12T01:08:17Z</time></trkpt><trkpt lat="59.9436271191" lon="32.4897388648"><ele>93.12</ele><time>2025-06-12T01:08:30Z</time></trkpt><trkpt lat="59.9395975191" lon="32.4935937859"><ele>93.12</ele><time>2025-06-12T01:08:42Z</time></trkpt><trkpt lat="59.9353810027" lon="32.4984630011"><ele>93.12</ele><time>2025-06-12T01:08:55Z</time></trkpt><trkpt lat="59.9315312784" lon="32.5037647225"><ele>93.11</ele><time>2025-06-12T01:09:08Z</time></trkpt><trkpt lat="59.9278994836" lon="32.5099140219"><ele>93.11</ele><time>2025-06-12T01:09:21Z</time></trkpt><trkpt lat="59.9248020351" lon="32.5161468890"><ele>93.11</ele><time>2025-06-12T01:09:33Z</time></trkpt><trkpt lat="59.9216181692" lon="32.5238027517"><ele>93.12</ele><time>2025-06-12T01:09:45Z</time></trkpt><trkpt lat="59.9182974268" lon="32.5330536906"><ele>93.11</ele><time>2025-06-12T01:09:58Z</time></trkpt><trkpt lat="59.9160610512" lon="32.5405042805"><ele>93.11</ele><time>2025-06-12T01:10:09Z</time></trkpt><trkpt lat="59.9151211046" lon="32.5458958559"><ele>93.11</ele><time>2025-06-12T01:10:19Z</time></trkpt><trkpt lat="59.9141073134" lon="32.5530597847"><ele>93.11</ele><time>2025-06-12T01:10:30Z</time></trkpt><trkpt lat="59.9130194262" lon="32.5622974802"><ele>93.11</ele><time>2025-06-12T01:10:43Z</time></trkpt><trkpt lat="59.9123335350" lon="32.5695788395"><ele>93.12</ele><time>2025-06-12T01:10:53Z</time></trkpt><trkpt lat="59.9117489811" lon="32.5783533510"><ele>93.14</ele><time>2025-06-12T01:11:05Z</time></trkpt><trkpt lat="59.9114915729" lon="32.5877948944"><ele>93.12</ele><time>2025-06-12T01:11:18Z</time></trkpt><trkpt lat="59.9116071593" lon="32.5973720569"><ele>93.11</ele><time>2025-06-12T01:11:31Z</time></trkpt><trkpt lat="59.9121090677" lon="32.6061821077"><ele>93.11</ele><time>2025-06-12T01:11:43Z</time></trkpt><trkpt lat="59.9129627645" lon="32.6155689172"><ele>93.08</ele><time>2025-06-12T01:11:56Z</time></trkpt><trkpt lat="59.9141593650" lon="32.6240855176"><ele>93.11</ele><time>2025-06-12T01:12:08Z</time></trkpt><trkpt lat="59.9158489052" lon="32.6330238953"><ele>93.11</ele><time>2025-06-12T01:12:21Z</time></trkpt><trkpt lat="59.9179836083" lon="32.6414852589"><ele>93.11</ele><time>2025-06-12T01:12:34Z</time></trkpt><trkpt lat="59.9202511646" lon="32.6489960309"><ele>93.11</ele><time>2025-06-12T01:12:46Z</time></trkpt><trkpt lat="59.9230226409" lon="32.6567865070"><ele>93.10</ele><time>2025-06-12T01:12:59Z</time></trkpt><trkpt lat="59.9258698896" lon="32.6635667961"><ele>93.11</ele><time>2025-06-12T01:13:11Z</time></trkpt><trkpt lat="59.9289981835" lon="32.6698664669"><ele>93.12</ele><time>2025-06-12T01:13:23Z</time></trkpt><trkpt lat="59.9324148986" lon="32.6755355671"><ele>93.11</ele><time>2025-06-12T01:13:35Z</time></trkpt><trkpt lat="59.9363601767" lon="32.6809829660"><ele>93.11</ele><time>2025-06-12T01:13:48Z</time></trkpt><trkpt lat="59.9401560891" lon="32.6854355168"><ele>93.12</ele><time>2025-06-12T01:14:00Z</time></trkpt><trkpt lat="59.9428477697" lon="32.6877790131"><ele>93.12</ele><time>2025-06-12T01:14:08Z</time></trkpt><trkpt lat="59.9518189207" lon="32.6952314470"><ele>93.11</ele><time>2025-06-12T01:14:34Z</time></trkpt><trkpt lat="60.1183784008" lon="32.3208203819"><ele>93.11</ele><time>2025-06-12T01:18:38Z</time></trkpt><trkpt lat="60.1183529198" lon="32.3207779694"><ele>93.11</ele><time>2025-06-12T01:19:07Z</time></trkpt><trkpt lat="60.1184710208" lon="32.3206517380"><ele>93.14</ele><time>2025-06-12T01:19:47Z</time></trkpt><trkpt lat="60.1184141915" lon="32.3205674160"><ele>93.11</ele><time>2025-06-12T01:20:15Z</time></trkpt><trkpt lat="60.1184467971" lon="32.3205781449"><ele>90.10</ele><time>2025-06-12T01:22:42Z</time></trkpt><trkpt lat="60.1184764691" lon="32.3206824157"><ele>87.07</ele><time>2025-06-12T01:23:32Z</time></trkpt><trkpt lat="60.1185706817" lon="32.3206785601"><ele>84.03</ele><time>2025-06-12T01:24:33Z</time></trkpt><trkpt lat="60.1184851862" lon="32.3207277618"><ele>82.75</ele><time>2025-06-12T01:24:56Z</time></trkpt><trkpt lat="60.1185223181" lon="32.3209650535"><ele>82.11</ele><time>2025-06-12T01:26:03Z</time></trkpt><trkpt lat="60.1185561810" lon="32.3208408337"><ele>82.11</ele><time>2025-06-12T01:26:23Z</time></trkpt><trkpt lat="60.1185857691" lon="32.3208042886"><ele>82.11</ele><time>2025-06-12T01:26:39Z</time></trkpt><trkpt lat="60.1183977630" lon="32.3209171928"><ele>79.86</ele><time>2025-06-12T01:27:30Z</time></trkpt><trkpt lat="60.1183248404" lon="32.3208725173"><ele>79.86</ele><time>2025-06-12T01:27:45Z</time></trkpt><trkpt lat="60.1181940828" lon="32.3208582681"><ele>79.86</ele><time>2025-06-12T01:32:33Z</time></trkpt><trkpt lat="60.1182110980" lon="32.3208503053"><ele>79.86</ele><time>2025-06-12T01:32:43Z</time></trkpt><trkpt lat="60.1180457231" lon="32.3212001659"><ele>79.87</ele><time>2025-06-12T01:33:41Z</time></trkpt><trkpt lat="60.1181204058" lon="32.3210943025"><ele>79.87</ele><time>2025-06-12T01:33:53Z</time></trkpt><trkpt lat="60.1183229964" lon="32.3208156042"><ele>79.86</ele><time>2025-06-12T01:37:53Z</time></trkpt><trkpt lat="60.1183264330" lon="32.3206334654"><ele>79.86</ele><time>2025-06-12T01:38:04Z</time></trkpt><trkpt lat="60.1183164585" lon="32.3205740377"><ele>79.86</ele><time>2025-06-12T01:38:08Z</time></trkpt><trkpt lat="60.1183092501" lon="32.3205586988"><ele>79.86</ele><time>2025-06-12T01:38:10Z</time></trkpt><trkpt lat="60.1183052268" lon="32.3204087466"><ele>79.86</ele><time>2025-06-12T01:38:38Z</time></trkpt><trkpt lat="60.1185990125" lon="32.3205566034"><ele>79.86</ele><time>2025-06-12T01:39:12Z</time></trkpt><trkpt lat="60.1186355576" lon="32.3206107505"><ele>79.86</ele><time>2025-06-12T01:39:14Z</time></trkpt><trkpt lat="60.1186506450" lon="32.3207545001"><ele>79.86</ele><time>2025-06-12T01:39:23Z</time></trkpt><trkpt lat="60.1187088992" lon="32.3209200427"><ele>79.85</ele><time>2025-06-12T01:39:32Z</time></trkpt><trkpt lat="60.1187222265" lon="32.3209448531"><ele>79.86</ele><time>2025-06-12T01:40:04Z</time></trkpt><trkpt lat="60.1187222265" lon="32.3209448531"><ele>79.86</ele><time>2025-06-12T01:41:40Z</time></trkpt><trkpt lat="59.9227123428" lon="32.5253601931"><ele>79.86</ele><time>2025-06-12T01:41:47Z</time></trkpt><trkpt lat="59.9202727061" lon="32.5320374686"><ele>79.85</ele><time>2025-06-12T01:41:59Z</time></trkpt><trkpt lat="59.9178537726" lon="32.5401537493"><ele>79.84</ele><time>2025-06-12T01:42:12Z</time></trkpt><trkpt lat="59.9158163834" lon="32.5486884546"><ele>82.64</ele><time>2025-06-12T01:42:25Z</time></trkpt><trkpt lat="59.9141707644" lon="32.5576362200"><ele>85.67</ele><time>2025-06-12T01:42:38Z</time></trkpt><trkpt lat="59.9130063504" lon="32.5661280099"><ele>88.44</ele><time>2025-06-12T01:42:50Z</time></trkpt><trkpt lat="59.9121006019" lon="32.5755662844"><ele>91.43</ele><time>2025-06-12T01:43:03Z</time></trkpt><trkpt lat="59.9116548523" lon="32.5850984361"><ele>94.43</ele><time>2025-06-12T01:43:16Z</time></trkpt><trkpt lat="59.9116333947" lon="32.5946446694"><ele>97.42</ele><time>2025-06-12T01:43:29Z</time></trkpt><trkpt lat="59.9120603688" lon="32.6041897293"><ele>100.40</ele><time>2025-06-12T01:43:42Z</time></trkpt><trkpt lat="59.9128787778" lon="32.6135908719"><ele>103.38</ele><time>2025-06-12T01:43:55Z</time></trkpt><trkpt lat="59.9141064752" lon="32.6228131447"><ele>105.53</ele><time>2025-06-12T01:44:08Z</time></trkpt><trkpt lat="59.9158640765" lon="32.6324491482"><ele>108.68</ele><time>2025-06-12T01:44:22Z</time></trkpt><trkpt lat="59.9177531060" lon="32.6404337492"><ele>111.37</ele><time>2025-06-12T01:44:34Z</time></trkpt><trkpt lat="59.9201715365" lon="32.6486884151"><ele>114.22</ele><time>2025-06-12T01:44:47Z</time></trkpt><trkpt lat="59.9229315296" lon="32.6564793941"><ele>117.28</ele><time>2025-06-12T01:45:00Z</time></trkpt><trkpt lat="59.9257915188" lon="32.6631846651"><ele>119.66</ele><time>2025-06-12T01:45:12Z</time></trkpt><trkpt lat="59.9291644804" lon="32.6699587516"><ele>122.47</ele><time>2025-06-12T01:45:25Z</time></trkpt><trkpt lat="59.9325470813" lon="32.6756445318"><ele>125.06</ele><time>2025-06-12T01:45:37Z</time></trkpt><trkpt lat="59.9364310876" lon="32.6811278053"><ele>127.88</ele><time>2025-06-12T01:45:50Z</time></trkpt><trkpt lat="59.9405801296" lon="32.6859240141"><ele>130.65</ele><time>2025-06-12T01:46:03Z</time></trkpt><trkpt lat="59.9448997434" lon="32.6899894048"><ele>133.41</ele><time>2025-06-12T01:46:16Z</time></trkpt><trkpt lat="59.9494018313" lon="32.6933092251"><ele>136.15</ele><time>2025-06-12T01:46:29Z</time></trkpt><trkpt lat="59.9539931864" lon="32.6957993209"><ele>138.79</ele><time>2025-06-12T01:46:42Z</time></trkpt><trkpt lat="59.9583222717" lon="32.6973504759"><ele>141.15</ele><time>2025-06-12T01:46:54Z</time></trkpt><trkpt lat="59.9626805261" lon="32.6982039213"><ele>142.29</ele><time>2025-06-12T01:47:06Z</time></trkpt><trkpt lat="59.9677965883" lon="32.6983148977"><ele>144.97</ele><time>2025-06-12T01:47:20Z</time></trkpt><trkpt lat="59.9725510553" lon="32.6975246519"><ele>147.44</ele><time>2025-06-12T01:47:33Z</time></trkpt><trkpt lat="59.9768984132" lon="32.6960304938"><ele>148.96</ele><time>2025-06-12T01:47:45Z</time></trkpt><trkpt lat="59.9815148301" lon="32.6935889293"><ele>151.24</ele><time>2025-06-12T01:47:58Z</time></trkpt><trkpt lat="59.9860072788" lon="32.6903465576"><ele>153.62</ele><time>2025-06-12T01:48:11Z</time></trkpt><trkpt lat="59.9903073628" lon="32.6863452885"><ele>156.14</ele><time>2025-06-12T01:48:24Z</time></trkpt><trkpt lat="59.9938166142" lon="32.6823746134"><ele>157.94</ele><time>2025-06-12T01:48:35Z</time></trkpt><trkpt lat="59.9974496663" lon="32.6773590501"><ele>160.08</ele><time>2025-06-12T01:48:47Z</time></trkpt><trkpt lat="60.0014403742" lon="32.6708205789"><ele>162.50</ele><time>2025-06-12T01:49:01Z</time></trkpt><trkpt lat="60.0045679975" lon="32.6646447927"><ele>164.58</ele><time>2025-06-12T01:49:13Z</time></trkpt><trkpt lat="60.0079169869" lon="32.6567849983"><ele>166.98</ele><time>2025-06-12T01:49:27Z</time></trkpt><trkpt lat="60.0106876250" lon="32.6489564683"><ele>169.24</ele><time>2025-06-12T01:49:40Z</time></trkpt><trkpt lat="60.0130882021" lon="32.6406822726"><ele>171.44</ele><time>2025-06-12T01:49:53Z</time></trkpt><trkpt lat="60.0149524212" lon="32.6326831710"><ele>173.47</ele><time>2025-06-12T01:50:05Z</time></trkpt><trkpt lat="60.0165977888" lon="32.6237072423"><ele>175.63</ele><time>2025-06-12T01:50:18Z</time></trkpt><trkpt lat="60.0178444292" lon="32.6143858954"><ele>177.44</ele><time>2025-06-12T01:50:31Z</time></trkpt><trkpt lat="60.0186285563" lon="32.6056708116"><ele>179.39</ele><time>2025-06-12T01:50:43Z</time></trkpt><trkpt lat="60.0190637447" lon="32.5968762673"><ele>181.31</ele><time>2025-06-12T01:50:55Z</time></trkpt><trkpt lat="60.0191564485" lon="32.5887511019"><ele>183.08</ele><time>2025-06-12T01:51:06Z</time></trkpt><trkpt lat="60.0188294705" lon="32.5784541853"><ele>185.34</ele><time>2025-06-12T01:51:20Z</time></trkpt><trkpt lat="60.0180618558" lon="32.5689949561"><ele>187.41</ele><time>2025-06-12T01:51:33Z</time></trkpt><trkpt lat="60.0168988667" lon="32.5596449431"><ele>189.48</ele><time>2025-06-12T01:51:46Z</time></trkpt><trkpt lat="60.0153346360" lon="32.5505687669"><ele>191.59</ele><time>2025-06-12T01:51:59Z</time></trkpt><trkpt lat="60.0133992545" lon="32.5417855382"><ele>193.73</ele><time>2025-06-12T01:52:12Z</time></trkpt><trkpt lat="60.0110467058" lon="32.5334286131"><ele>195.89</ele><time>2025-06-12T01:52:25Z</time></trkpt><trkpt lat="60.0083275326" lon="32.5255237240"><ele>198.02</ele><time>2025-06-12T01:52:38Z</time></trkpt><trkpt lat="60.0055055134" lon="32.5187144335"><ele>199.99</ele><time>2025-06-12T01:52:50Z</time></trkpt><trkpt lat="60.0026951451" lon="32.5128594227"><ele>201.78</ele><time>2025-06-12T01:53:01Z</time></trkpt><trkpt lat="59.9993598182" lon="32.5070575532"><ele>203.70</ele><time>2025-06-12T01:53:13Z</time></trkpt><trkpt lat="59.9955064896" lon="32.5013651513"><ele>205.95</ele><time>2025-06-12T01:53:26Z</time></trkpt><trkpt lat="59.9917560071" lon="32.4967361614"><ele>207.69</ele><time>2025-06-12T01:53:38Z</time></trkpt><trkpt lat="59.9878368806" lon="32.4927748740"><ele>209.58</ele><time>2025-06-12T01:53:50Z</time></trkpt><trkpt lat="59.9833816476" lon="32.4892326817"><ele>211.62</ele><time>2025-06-12T01:54:03Z</time></trkpt><trkpt lat="59.9791226350" lon="32.4866178632"><ele>213.53</ele><time>2025-06-12T01:54:15Z</time></trkpt><trkpt lat="59.9744180404" lon="32.4846026022"><ele>215.56</ele><time>2025-06-12T01:54:28Z</time></trkpt><trkpt lat="59.9700187147" lon="32.4835041538"><ele>217.40</ele><time>2025-06-12T01:54:40Z</time></trkpt><trkpt lat="59.9656291958" lon="32.4831338413"><ele>219.23</ele><time>2025-06-12T01:54:52Z</time></trkpt><trkpt lat="59.9608486611" lon="32.4835080095"><ele>221.19</ele><time>2025-06-12T01:55:05Z</time></trkpt><trkpt lat="59.9561150651" lon="32.4847169314"><ele>223.10</ele><time>2025-06-12T01:55:18Z</time></trkpt><trkpt lat="59.9514580797" lon="32.4867189489"><ele>224.98</ele><time>2025-06-12T01:55:31Z</time></trkpt><trkpt lat="59.9472690560" lon="32.4893134832"><ele>226.72</ele><time>2025-06-12T01:55:43Z</time></trkpt><trkpt lat="59.9428521283" lon="32.4929011054"><ele>228.57</ele><time>2025-06-12T01:55:56Z</time></trkpt><trkpt lat="59.9385605101" lon="32.4973026942"><ele>230.42</ele><time>2025-06-12T01:56:09Z</time></trkpt><trkpt lat="59.9348111171" lon="32.5020447560"><ele>232.09</ele><time>2025-06-12T01:56:21Z</time></trkpt><trkpt lat="59.9312701821" lon="32.5073858723"><ele>233.81</ele><time>2025-06-12T01:56:33Z</time></trkpt><trkpt lat="59.9277053587" lon="32.5138277002"><ele>235.67</ele><time>2025-06-12T01:56:46Z</time></trkpt><trkpt lat="59.9244105164" lon="32.5207935646"><ele>237.49</ele><time>2025-06-12T01:56:59Z</time></trkpt><trkpt lat="59.9219049141" lon="32.5271202251"><ele>239.02</ele><time>2025-06-12T01:57:10Z</time></trkpt><trkpt lat="59.9192724098" lon="32.5349738169"><ele>240.76</ele><time>2025-06-12T01:57:23Z</time></trkpt><trkpt lat="59.9171404727" lon="32.5426641293"><ele>241.54</ele><time>2025-06-12T01:57:35Z</time></trkpt><trkpt lat="59.9154816102" lon="32.5499926787"><ele>241.53</ele><time>2025-06-12T01:57:46Z</time></trkpt><trkpt lat="59.9138687644" lon="32.5589597225"><ele>241.53</ele><time>2025-06-12T01:57:59Z</time></trkpt><trkpt lat="59.9127405602" lon="32.5674816035"><ele>241.53</ele><time>2025-06-12T01:58:11Z</time></trkpt><trkpt lat="59.9119353946" lon="32.5761896465"><ele>241.52</ele><time>2025-06-12T01:58:23Z</time></trkpt><trkpt lat="59.9114759825" lon="32.5857861713"><ele>241.52</ele><time>2025-06-12T01:58:36Z</time></trkpt><trkpt lat="59.9114116095" lon="32.5955445506"><ele>241.53</ele><time>2025-06-12T01:58:49Z</time></trkpt><trkpt lat="59.9117476400" lon="32.6043980196"><ele>241.53</ele><time>2025-06-12T01:59:01Z</time></trkpt><trkpt lat="59.9124438409" lon="32.6131276879"><ele>241.53</ele><time>2025-06-12T01:59:13Z</time></trkpt><trkpt lat="59.9136155471" lon="32.6224245597"><ele>241.55</ele><time>2025-06-12T01:59:26Z</time></trkpt><trkpt lat="59.9150637724" lon="32.6307802275"><ele>241.54</ele><time>2025-06-12T01:59:38Z</time></trkpt><trkpt lat="59.9168958887" lon="32.6388812531"><ele>241.76</ele><time>2025-06-12T01:59:50Z</time></trkpt><trkpt lat="59.9189880118" lon="32.6466693822"><ele>243.18</ele><time>2025-06-12T02:00:02Z</time></trkpt><trkpt lat="59.9212132394" lon="32.6534498390"><ele>244.46</ele><time>2025-06-12T02:00:13Z</time></trkpt><trkpt lat="59.9234248884" lon="32.6593110524"><ele>245.63</ele><time>2025-06-12T02:00:23Z</time></trkpt><trkpt lat="59.9255880062" lon="32.6643219218"><ele>246.65</ele><time>2025-06-12T02:00:32Z</time></trkpt><trkpt lat="59.9279231206" lon="32.6689937431"><ele>247.66</ele><time>2025-06-12T02:00:41Z</time></trkpt><trkpt lat="59.9301106296" lon="32.6729294658"><ele>248.56</ele><time>2025-06-12T02:00:49Z</time></trkpt><trkpt lat="59.9326619133" lon="32.6771167293"><ele>249.54</ele><time>2025-06-12T02:00:58Z</time></trkpt><trkpt lat="59.9350779131" lon="32.6804741006"><ele>250.41</ele><time>2025-06-12T02:01:06Z</time></trkpt><trkpt lat="59.9382028542" lon="32.6843661536"><ele>251.50</ele><time>2025-06-12T02:01:16Z</time></trkpt><trkpt lat="59.9417431187" lon="32.6881838590"><ele>252.70</ele><time>2025-06-12T02:01:27Z</time></trkpt><trkpt lat="59.9451064412" lon="32.6911362167"><ele>253.75</ele><time>2025-06-12T02:01:37Z</time></trkpt><trkpt lat="59.9485766329" lon="32.6936276536"><ele>254.78</ele><time>2025-06-12T02:01:47Z</time></trkpt><trkpt lat="59.9527840968" lon="32.6960143168"><ele>255.21</ele><time>2025-06-12T02:01:59Z</time></trkpt><trkpt lat="59.9574970733" lon="32.6978001650"><ele>255.20</ele><time>2025-06-12T02:02:12Z</time></trkpt><trkpt lat="59.9632306304" lon="32.6989082526"><ele>255.21</ele><time>2025-06-12T02:02:28Z</time></trkpt><trkpt lat="59.9684606027" lon="32.6988111902"><ele>255.23</ele><time>2025-06-12T02:02:42Z</time></trkpt><trkpt lat="59.9739690218" lon="32.6975412481"><ele>255.20</ele><time>2025-06-12T02:02:57Z</time></trkpt><trkpt lat="59.9790698290" lon="32.6953457762"><ele>255.21</ele><time>2025-06-12T02:03:11Z</time></trkpt><trkpt lat="59.9841934349" lon="32.6921070088"><ele>255.21</ele><time>2025-06-12T02:03:26Z</time></trkpt><trkpt lat="59.9883050937" lon="32.6885913033"><ele>255.21</ele><time>2025-06-12T02:03:38Z</time></trkpt><trkpt lat="59.9921561591" lon="32.6845976617"><ele>255.22</ele><time>2025-06-12T02:03:50Z</time></trkpt><trkpt lat="59.9962487910" lon="32.6794236805"><ele>255.19</ele><time>2025-06-12T02:04:03Z</time></trkpt><trkpt lat="59.9986640364" lon="32.6758790575"><ele>255.21</ele><time>2025-06-12T02:04:13Z</time></trkpt><trkpt lat="60.0041519199" lon="32.6676597632"><ele>255.21</ele><time>2025-06-12T02:04:41Z</time></trkpt><trkpt lat="60.0041519199" lon="32.6676597632"><ele>255.21</ele><time>2025-06-12T02:33:49Z</time></trkpt></trkseg><trkseg><trkpt lat="60.1462710276" lon="32.3334060609"><ele>-21.39</ele><time>2025-06-23T20:19:01Z</time></trkpt><trkpt lat="60.1472899318" lon="32.3332634009"><ele>-22.43</ele><time>2025-06-23T20:19:12Z</time></trkpt><trkpt lat="60.1485780627" lon="32.3336249124"><ele>-22.42</ele><time>2025-06-23T20:19:26Z</time></trkpt><trkpt lat="60.1499073487" lon="32.3341114819"><ele>-22.24</ele><time>2025-06-23T20:19:42Z</time></trkpt><trkpt lat="60.1511620358" lon="32.3337071389"><ele>-22.09</ele><time>2025-06-23T20:19:56Z</time></trkpt><trkpt lat="60.1533380616" lon="32.3327287193"><ele>-21.90</ele><time>2025-06-23T20:20:19Z</time></trkpt><trkpt lat="60.1535233855" lon="32.3326223530"><ele>-18.46</ele><time>2025-06-23T20:20:21Z</time></trkpt><trkpt lat="60.1536151674" lon="32.3325593211"><ele>-18.46</ele><time>2025-06-23T20:20:22Z</time></trkpt><trkpt lat="60.1548752189" lon="32.3311471380"><ele>-18.36</ele><time>2025-06-23T20:20:37Z</time></trkpt><trkpt lat="60.1562940236" lon="32.3284252826"><ele>-18.08</ele><time>2025-06-23T20:20:57Z</time></trkpt><trkpt lat="60.1575263310" lon="32.3263718002"><ele>-17.87</ele><time>2025-06-23T20:21:13Z</time></trkpt><trkpt lat="60.1592241693" lon="32.3246297054"><ele>-17.67</ele><time>2025-06-23T20:21:32Z</time></trkpt><trkpt lat="60.1610669307" lon="32.3230032809"><ele>-17.38</ele><time>2025-06-23T20:21:52Z</time></trkpt><trkpt lat="60.1625365298" lon="32.3212428298"><ele>-17.15</ele><time>2025-06-23T20:22:09Z</time></trkpt><trkpt lat="60.1638190448" lon="32.3189637065"><ele>-16.93</ele><time>2025-06-23T20:22:26Z</time></trkpt><trkpt lat="60.1652267855" lon="32.3171011638"><ele>-16.73</ele><time>2025-06-23T20:22:43Z</time></trkpt><trkpt lat="60.1668908447" lon="32.3157101031"><ele>-16.51</ele><time>2025-06-23T20:23:01Z</time></trkpt><trkpt lat="60.1685168501" lon="32.3141371552"><ele>-16.27</ele><time>2025-06-23T20:23:19Z</time></trkpt><trkpt lat="60.1700857747" lon="32.3119954951"><ele>-16.08</ele><time>2025-06-23T20:23:38Z</time></trkpt><trkpt lat="60.1713420544" lon="32.3096875381"><ele>-15.88</ele><time>2025-06-23T20:23:55Z</time></trkpt><trkpt lat="60.1727990806" lon="32.3072422016"><ele>-15.68</ele><time>2025-06-23T20:24:14Z</time></trkpt><trkpt lat="60.1743075717" lon="32.3043392133"><ele>-15.41</ele><time>2025-06-23T20:24:35Z</time></trkpt><trkpt lat="60.1756828744" lon="32.3020324297"><ele>-15.18</ele><time>2025-06-23T20:24:53Z</time></trkpt><trkpt lat="60.1763964258" lon="32.3009458836"><ele>-18.26</ele><time>2025-06-23T20:25:02Z</time></trkpt><trkpt lat="60.1764812507" lon="32.3008422833"><ele>-15.17</ele><time>2025-06-23T20:25:03Z</time></trkpt><trkpt lat="60.1780044939" lon="32.2994105704"><ele>-14.95</ele><time>2025-06-23T20:25:20Z</time></trkpt><trkpt lat="60.1795447525" lon="32.2978321742"><ele>-14.77</ele><time>2025-06-23T20:25:37Z</time></trkpt><trkpt lat="60.1811658125" lon="32.2957084514"><ele>-14.59</ele><time>2025-06-23T20:25:56Z</time></trkpt><trkpt lat="60.1829743758" lon="32.2930294275"><ele>-13.56</ele><time>2025-06-23T20:26:18Z</time></trkpt><trkpt lat="60.1845111139" lon="32.2910755221"><ele>-13.36</ele><time>2025-06-23T20:26:36Z</time></trkpt><trkpt lat="60.1853504777" lon="32.2903390881"><ele>-17.02</ele><time>2025-06-23T20:26:45Z</time></trkpt><trkpt lat="60.1855434291" lon="32.2902181372"><ele>-14.03</ele><time>2025-06-23T20:26:47Z</time></trkpt><trkpt lat="60.1874084026" lon="32.2891030088"><ele>-13.84</ele><time>2025-06-23T20:27:06Z</time></trkpt><trkpt lat="60.1893079933" lon="32.2876394447"><ele>-13.65</ele><time>2025-06-23T20:27:26Z</time></trkpt><trkpt lat="60.1908042468" lon="32.2862939816"><ele>-13.50</ele><time>2025-06-23T20:27:42Z</time></trkpt><trkpt lat="60.1922186092" lon="32.2839121800"><ele>-13.33</ele><time>2025-06-23T20:28:00Z</time></trkpt><trkpt lat="60.1935090870" lon="32.2815960087"><ele>-13.18</ele><time>2025-06-23T20:28:17Z</time></trkpt><trkpt lat="60.1950285584" lon="32.2792155482"><ele>-12.98</ele><time>2025-06-23T20:28:36Z</time></trkpt><trkpt lat="60.1961003523" lon="32.2770784143"><ele>-12.82</ele><time>2025-06-23T20:28:51Z</time></trkpt><trkpt lat="60.1975308917" lon="32.2741928604"><ele>-12.60</ele><time>2025-06-23T20:29:11Z</time></trkpt><trkpt lat="60.1989024226" lon="32.2721211892"><ele>-12.43</ele><time>2025-06-23T20:29:28Z</time></trkpt><trkpt lat="60.1999610569" lon="32.2701973747"><ele>-12.29</ele><time>2025-06-23T20:29:42Z</time></trkpt><trkpt lat="60.2007871773" lon="32.2676760145"><ele>-12.17</ele><time>2025-06-23T20:29:57Z</time></trkpt><trkpt lat="60.2014644351" lon="32.2647478804"><ele>-12.04</ele><time>2025-06-23T20:30:13Z</time></trkpt><trkpt lat="60.2023328003" lon="32.2622281965"><ele>-11.92</ele><time>2025-06-23T20:30:28Z</time></trkpt><trkpt lat="60.2035603300" lon="32.2591988929"><ele>-11.76</ele><time>2025-06-23T20:30:47Z</time></trkpt><trkpt lat="60.2043545153" lon="32.2568252217"><ele>-11.65</ele><time>2025-06-23T20:31:01Z</time></trkpt><trkpt lat="60.2049461938" lon="32.2537594568"><ele>-11.49</ele><time>2025-06-23T20:31:17Z</time></trkpt><trkpt lat="60.2053658757" lon="32.2508913372"><ele>-10.58</ele><time>2025-06-23T20:31:33Z</time></trkpt><trkpt lat="60.2057819534" lon="32.2482134867"><ele>-10.44</ele><time>2025-06-23T20:31:49Z</time></trkpt><trkpt lat="60.2062519267" lon="32.2454374842"><ele>-10.31</ele><time>2025-06-23T20:32:06Z</time></trkpt><trkpt lat="60.2065652423" lon="32.2425774951"><ele>-10.17</ele><time>2025-06-23T20:32:23Z</time></trkpt><trkpt lat="60.2068775520" lon="32.2406701092"><ele>-10.07</ele><time>2025-06-23T20:32:35Z</time></trkpt><trkpt lat="60.2075112239" lon="32.2381745651"><ele>-9.92</ele><time>2025-06-23T20:32:52Z</time></trkpt><trkpt lat="60.2076406404" lon="32.2376696393"><ele>-12.23</ele><time>2025-06-23T20:32:56Z</time></trkpt><trkpt lat="60.2081915829" lon="32.2357257921"><ele>-12.07</ele><time>2025-06-23T20:33:13Z</time></trkpt><trkpt lat="60.2088777255" lon="32.2339170612"><ele>-12.69</ele><time>2025-06-23T20:33:31Z</time></trkpt><trkpt lat="60.2097110543" lon="32.2321882937"><ele>-12.50</ele><time>2025-06-23T20:33:51Z</time></trkpt><trkpt lat="60.2101616655" lon="32.2305269167"><ele>-12.35</ele><time>2025-06-23T20:34:07Z</time></trkpt><trkpt lat="60.2106248494" lon="32.2284705844"><ele>-12.21</ele><time>2025-06-23T20:34:24Z</time></trkpt><trkpt lat="60.2114131674" lon="32.2263906989"><ele>-12.09</ele><time>2025-06-23T20:34:42Z</time></trkpt><trkpt lat="60.2119247988" lon="32.2242629528"><ele>-11.95</ele><time>2025-06-23T20:34:58Z</time></trkpt><trkpt lat="60.2123323269" lon="32.2220417485"><ele>-11.80</ele><time>2025-06-23T20:35:14Z</time></trkpt><trkpt lat="60.2127024718" lon="32.2198288422"><ele>-11.71</ele><time>2025-06-23T20:35:30Z</time></trkpt><trkpt lat="60.2132491395" lon="32.2174140159"><ele>-11.55</ele><time>2025-06-23T20:35:48Z</time></trkpt><trkpt lat="60.2135770395" lon="32.2156109847"><ele>-12.19</ele><time>2025-06-23T20:36:03Z</time></trkpt><trkpt lat="60.2138595935" lon="32.2139186785"><ele>-12.08</ele><time>2025-06-23T20:36:21Z</time></trkpt><trkpt lat="60.2142095380" lon="32.2120003961"><ele>-11.89</ele><time>2025-06-23T20:36:37Z</time></trkpt><trkpt lat="60.2147009689" lon="32.2096343525"><ele>-11.72</ele><time>2025-06-23T20:36:55Z</time></trkpt><trkpt lat="60.2154142689" lon="32.2069076356"><ele>-11.53</ele><time>2025-06-23T20:37:16Z</time></trkpt><trkpt lat="60.2158369683" lon="32.2051028442"><ele>-9.11</ele><time>2025-06-23T20:37:30Z</time></trkpt><trkpt lat="60.2163981367" lon="32.2021034639"><ele>-8.94</ele><time>2025-06-23T20:37:52Z</time></trkpt><trkpt lat="60.2168090176" lon="32.1997270267"><ele>-8.80</ele><time>2025-06-23T20:38:09Z</time></trkpt><trkpt lat="60.2172685973" lon="32.1970914211"><ele>-7.71</ele><time>2025-06-23T20:38:28Z</time></trkpt><trkpt lat="60.2177379839" lon="32.1942729224"><ele>-7.61</ele><time>2025-06-23T20:38:48Z</time></trkpt><trkpt lat="60.2182315104" lon="32.1919658873"><ele>-7.49</ele><time>2025-06-23T20:39:05Z</time></trkpt><trkpt lat="60.2186442353" lon="32.1892129350"><ele>-7.34</ele><time>2025-06-23T20:39:26Z</time></trkpt><trkpt lat="60.2192587964" lon="32.1867113560"><ele>-7.15</ele><time>2025-06-23T20:39:46Z</time></trkpt><trkpt lat="60.2198809013" lon="32.1841066796"><ele>-6.99</ele><time>2025-06-23T20:40:05Z</time></trkpt><trkpt lat="60.2205029223" lon="32.1820423007"><ele>-6.94</ele><time>2025-06-23T20:40:20Z</time></trkpt><trkpt lat="60.2210050821" lon="32.1801582165"><ele>-6.83</ele><time>2025-06-23T20:40:36Z</time></trkpt><trkpt lat="60.2215410210" lon="32.1781608928"><ele>-6.73</ele><time>2025-06-23T20:40:53Z</time></trkpt><trkpt lat="60.2220817376" lon="32.1761059016"><ele>-6.62</ele><time>2025-06-23T20:41:09Z</time></trkpt><trkpt lat="60.2226935327" lon="32.1735733934"><ele>-5.72</ele><time>2025-06-23T20:41:28Z</time></trkpt><trkpt lat="60.2232524380" lon="32.1714121196"><ele>-5.66</ele><time>2025-06-23T20:41:44Z</time></trkpt><trkpt lat="60.2238155343" lon="32.1691785101"><ele>-5.52</ele><time>2025-06-23T20:42:01Z</time></trkpt><trkpt lat="60.2243232261" lon="32.1669225208"><ele>-5.42</ele><time>2025-06-23T20:42:17Z</time></trkpt><trkpt lat="60.2249170002" lon="32.1643489413"><ele>-5.34</ele><time>2025-06-23T20:42:35Z</time></trkpt><trkpt lat="60.2254306432" lon="32.1620354522"><ele>-5.25</ele><time>2025-06-23T20:42:51Z</time></trkpt><trkpt lat="60.2259099204" lon="32.1597313508"><ele>-5.12</ele><time>2025-06-23T20:43:07Z</time></trkpt><trkpt lat="60.2264434285" lon="32.1569519956"><ele>-5.01</ele><time>2025-06-23T20:43:26Z</time></trkpt><trkpt lat="60.2270600013" lon="32.1535930317"><ele>-4.90</ele><time>2025-06-23T20:43:48Z</time></trkpt><trkpt lat="60.2275533602" lon="32.1506517380"><ele>-4.79</ele><time>2025-06-23T20:44:08Z</time></trkpt><trkpt lat="60.2279618103" lon="32.1480695251"><ele>-4.68</ele><time>2025-06-23T20:44:26Z</time></trkpt><trkpt lat="60.2283940651" lon="32.1455493383"><ele>-4.59</ele><time>2025-06-23T20:44:44Z</time></trkpt><trkpt lat="60.2287485357" lon="32.1428556461"><ele>-4.44</ele><time>2025-06-23T20:45:05Z</time></trkpt><trkpt lat="60.2289393079" lon="32.1410330851"><ele>-4.45</ele><time>2025-06-23T20:45:20Z</time></trkpt><trkpt lat="60.2289481089" lon="32.1400171146"><ele>-4.32</ele><time>2025-06-23T20:45:35Z</time></trkpt><trkpt lat="60.2289839834" lon="32.1396163758"><ele>-6.61</ele><time>2025-06-23T20:45:42Z</time></trkpt><trkpt lat="60.2290403098" lon="32.1389360167"><ele>-6.50</ele><time>2025-06-23T20:46:00Z</time></trkpt><trkpt lat="60.2290592529" lon="32.1385018341"><ele>-6.38</ele><time>2025-06-23T20:46:21Z</time></trkpt><trkpt lat="60.2291082032" lon="32.1382541489"><ele>-7.18</ele><time>2025-06-23T20:46:45Z</time></trkpt><trkpt lat="60.2292617597" lon="32.1380990837"><ele>-7.03</ele><time>2025-06-23T20:47:23Z</time></trkpt><trkpt lat="60.2294275537" lon="32.1379481256"><ele>-7.69</ele><time>2025-06-23T20:48:05Z</time></trkpt><trkpt lat="60.2295468282" lon="32.1378218941"><ele>-7.51</ele><time>2025-06-23T20:48:36Z</time></trkpt><trkpt lat="60.2297095209" lon="32.1376960818"><ele>-8.08</ele><time>2025-06-23T20:49:15Z</time></trkpt><trkpt lat="60.2298520971" lon="32.1375781484"><ele>-7.91</ele><time>2025-06-23T20:49:48Z</time></trkpt><trkpt lat="60.2299963497" lon="32.1374727879"><ele>-7.69</ele><time>2025-06-23T20:50:23Z</time></trkpt><trkpt lat="60.2300862875" lon="32.1373826824"><ele>-7.58</ele><time>2025-06-23T20:50:46Z</time></trkpt><trkpt lat="60.2300418634" lon="32.1369147208"><ele>-7.47</ele><time>2025-06-23T20:51:05Z</time></trkpt><trkpt lat="60.2299060766" lon="32.1370645054"><ele>-7.45</ele><time>2025-06-23T20:51:17Z</time></trkpt><trkpt lat="60.2299598884" lon="32.1377540845"><ele>-7.37</ele><time>2025-06-23T20:51:34Z</time></trkpt><trkpt lat="60.2299069148" lon="32.1386167500"><ele>-7.26</ele><time>2025-06-23T20:51:54Z</time></trkpt><trkpt lat="60.2296566311" lon="32.1394556109"><ele>-7.17</ele><time>2025-06-23T20:52:11Z</time></trkpt><trkpt lat="60.2289900184" lon="32.1403557435"><ele>-7.04</ele><time>2025-06-23T20:52:31Z</time></trkpt><trkpt lat="60.2287623659" lon="32.1409033332"><ele>-7.00</ele><time>2025-06-23T20:52:43Z</time></trkpt><trkpt lat="60.2285208832" lon="32.1417167131"><ele>-6.90</ele><time>2025-06-23T20:53:03Z</time></trkpt><trkpt lat="60.2281495649" lon="32.1427158359"><ele>-6.78</ele><time>2025-06-23T20:53:22Z</time></trkpt><trkpt lat="60.2279736288" lon="32.1442088205"><ele>-6.69</ele><time>2025-06-23T20:53:43Z</time></trkpt><trkpt lat="60.2277587168" lon="32.1455070935"><ele>-6.59</ele><time>2025-06-23T20:54:01Z</time></trkpt><trkpt lat="60.2272047568" lon="32.1465535741"><ele>-6.50</ele><time>2025-06-23T20:54:21Z</time></trkpt><trkpt lat="60.2269455045" lon="32.1471432410"><ele>-6.42</ele><time>2025-06-23T20:54:34Z</time></trkpt><trkpt lat="60.2265851665" lon="32.1481940802"><ele>-6.37</ele><time>2025-06-23T20:54:53Z</time></trkpt><trkpt lat="60.2262525726" lon="32.1493604220"><ele>-6.29</ele><time>2025-06-23T20:55:13Z</time></trkpt><trkpt lat="60.2261342201" lon="32.1499945968"><ele>-3.93</ele><time>2025-06-23T20:55:23Z</time></trkpt><trkpt lat="60.2258954197" lon="32.1514442470"><ele>-3.86</ele><time>2025-06-23T20:55:45Z</time></trkpt><trkpt lat="60.2254678588" lon="32.1525925677"><ele>-3.81</ele><time>2025-06-23T20:56:06Z</time></trkpt><trkpt lat="60.2249310818" lon="32.1541254502"><ele>-3.72</ele><time>2025-06-23T20:56:33Z</time></trkpt><trkpt lat="60.2245982364" lon="32.1556688938"><ele>-3.67</ele><time>2025-06-23T20:56:57Z</time></trkpt><trkpt lat="60.2242994215" lon="32.1576159261"><ele>-3.60</ele><time>2025-06-23T20:57:25Z</time></trkpt><trkpt lat="60.2240187954" lon="32.1595559176"><ele>-3.50</ele><time>2025-06-23T20:57:52Z</time></trkpt><trkpt lat="60.2236401010" lon="32.1612719446"><ele>-3.42</ele><time>2025-06-23T20:58:17Z</time></trkpt><trkpt lat="60.2230847161" lon="32.1628681105"><ele>-3.31</ele><time>2025-06-23T20:58:43Z</time></trkpt><trkpt lat="60.2225457598" lon="32.1642855741"><ele>-3.24</ele><time>2025-06-23T20:59:07Z</time></trkpt><trkpt lat="60.2223069593" lon="32.1653889678"><ele>-5.74</ele><time>2025-06-23T20:59:23Z</time></trkpt><trkpt lat="60.2219386585" lon="32.1669505164"><ele>-5.63</ele><time>2025-06-23T20:59:46Z</time></trkpt><trkpt lat="60.2215030510" lon="32.1687787771"><ele>-5.51</ele><time>2025-06-23T21:00:13Z</time></trkpt><trkpt lat="60.2210929245" lon="32.1703523956"><ele>-5.39</ele><time>2025-06-23T21:00:37Z</time></trkpt><trkpt lat="60.2207328379" lon="32.1719624754"><ele>-5.32</ele><time>2025-06-23T21:01:00Z</time></trkpt><trkpt lat="60.2205129806" lon="32.1738259401"><ele>-5.18</ele><time>2025-06-23T21:01:25Z</time></trkpt><trkpt lat="60.2203118149" lon="32.1756443102"><ele>-5.06</ele><time>2025-06-23T21:01:49Z</time></trkpt><trkpt lat="60.2199270017" lon="32.1777491737"><ele>-4.91</ele><time>2025-06-23T21:02:18Z</time></trkpt><trkpt lat="60.2195318788" lon="32.1796204336"><ele>-4.82</ele><time>2025-06-23T21:02:44Z</time></trkpt><trkpt lat="60.2192321420" lon="32.1814063657"><ele>-4.71</ele><time>2025-06-23T21:03:08Z</time></trkpt><trkpt lat="60.2188625839" lon="32.1829679981"><ele>-4.60</ele><time>2025-06-23T21:03:30Z</time></trkpt><trkpt lat="60.2184496075" lon="32.1846595500"><ele>-4.48</ele><time>2025-06-23T21:03:54Z</time></trkpt><trkpt lat="60.2181053627" lon="32.1863956936"><ele>-4.33</ele><time>2025-06-23T21:04:18Z</time></trkpt><trkpt lat="60.2177225612" lon="32.1881906781"><ele>-4.21</ele><time>2025-06-23T21:04:43Z</time></trkpt><trkpt lat="60.2173290309" lon="32.1898443438"><ele>-4.07</ele><time>2025-06-23T21:05:07Z</time></trkpt><trkpt lat="60.2169051580" lon="32.1917522326"><ele>-3.91</ele><time>2025-06-23T21:05:34Z</time></trkpt><trkpt lat="60.2164376993" lon="32.1934514958"><ele>-3.79</ele><time>2025-06-23T21:05:59Z</time></trkpt><trkpt lat="60.2160304226" lon="32.1951353364"><ele>-3.70</ele><time>2025-06-23T21:06:23Z</time></trkpt><trkpt lat="60.2155632153" lon="32.1968700550"><ele>-3.60</ele><time>2025-06-23T21:06:48Z</time></trkpt><trkpt lat="60.2150850277" lon="32.1986606810"><ele>-3.53</ele><time>2025-06-23T21:07:14Z</time></trkpt><trkpt lat="60.2146409545" lon="32.2003233153"><ele>-3.47</ele><time>2025-06-23T21:07:38Z</time></trkpt><trkpt lat="60.2144421358" lon="32.2019850276"><ele>-3.39</ele><time>2025-06-23T21:08:00Z</time></trkpt><trkpt lat="60.2140439954" lon="32.2033676226"><ele>-3.32</ele><time>2025-06-23T21:08:20Z</time></trkpt><trkpt lat="60.2135557495" lon="32.2046305239"><ele>-3.24</ele><time>2025-06-23T21:08:40Z</time></trkpt><trkpt lat="60.2129459661" lon="32.2056791838"><ele>-3.15</ele><time>2025-06-23T21:09:00Z</time></trkpt><trkpt lat="60.2123571374" lon="32.2067436855"><ele>-3.09</ele><time>2025-06-23T21:09:20Z</time></trkpt><trkpt lat="60.2117083780" lon="32.2081566229"><ele>-2.99</ele><time>2025-06-23T21:09:44Z</time></trkpt><trkpt lat="60.2111694217" lon="32.2093270719"><ele>-2.91</ele><time>2025-06-23T21:10:04Z</time></trkpt><trkpt lat="60.2106363326" lon="32.2106200643"><ele>-2.83</ele><time>2025-06-23T21:10:25Z</time></trkpt><trkpt lat="60.2102055028" lon="32.2118934430"><ele>-2.76</ele><time>2025-06-23T21:10:44Z</time></trkpt><trkpt lat="60.2096129023" lon="32.2133145947"><ele>-2.67</ele><time>2025-06-23T21:11:07Z</time></trkpt><trkpt lat="60.2090157755" lon="32.2145485785"><ele>-2.58</ele><time>2025-06-23T21:11:29Z</time></trkpt><trkpt lat="60.2084523439" lon="32.2157653794"><ele>-2.49</ele><time>2025-06-23T21:11:51Z</time></trkpt><trkpt lat="60.2079857234" lon="32.2170570306"><ele>-2.42</ele><time>2025-06-23T21:12:11Z</time></trkpt><trkpt lat="60.2075853199" lon="32.2184081096"><ele>-2.36</ele><time>2025-06-23T21:12:31Z</time></trkpt><trkpt lat="60.2070684079" lon="32.2196317837"><ele>-2.30</ele><time>2025-06-23T21:12:51Z</time></trkpt><trkpt lat="60.2064202353" lon="32.2209640872"><ele>-2.19</ele><time>2025-06-23T21:13:14Z</time></trkpt><trkpt lat="60.2057682071" lon="32.2223769408"><ele>-2.14</ele><time>2025-06-23T21:13:38Z</time></trkpt><trkpt lat="60.2053153329" lon="32.2237193026"><ele>-2.09</ele><time>2025-06-23T21:13:58Z</time></trkpt><trkpt lat="60.2048473712" lon="32.2253432963"><ele>-2.00</ele><time>2025-06-23T21:14:21Z</time></trkpt><trkpt lat="60.2043093368" lon="32.2268316709"><ele>-1.94</ele><time>2025-06-23T21:14:44Z</time></trkpt><trkpt lat="60.2038135473" lon="32.2280607093"><ele>-1.84</ele><time>2025-06-23T21:15:04Z</time></trkpt><trkpt lat="60.2033006586" lon="32.2291843034"><ele>-1.78</ele><time>2025-06-23T21:15:25Z</time></trkpt><trkpt lat="60.2028370555" lon="32.2303201351"><ele>-1.69</ele><time>2025-06-23T21:15:44Z</time></trkpt><trkpt lat="60.2023866959" lon="32.2314977087"><ele>-1.68</ele><time>2025-06-23T21:16:03Z</time></trkpt><trkpt lat="60.2019852027" lon="32.2326207161"><ele>-1.62</ele><time>2025-06-23T21:16:20Z</time></trkpt><trkpt lat="60.2015304845" lon="32.2339538578"><ele>-1.62</ele><time>2025-06-23T21:16:40Z</time></trkpt><trkpt lat="60.2010594215" lon="32.2351410706"><ele>-1.61</ele><time>2025-06-23T21:17:00Z</time></trkpt><trkpt lat="60.2005683258" lon="32.2363914829"><ele>-1.53</ele><time>2025-06-23T21:17:21Z</time></trkpt><trkpt lat="60.2001333050" lon="32.2379111219"><ele>-1.41</ele><time>2025-06-23T21:17:44Z</time></trkpt><trkpt lat="60.1996504236" lon="32.2395502031"><ele>-1.32</ele><time>2025-06-23T21:18:09Z</time></trkpt><trkpt lat="60.1990997326" lon="32.2406092566"><ele>-1.27</ele><time>2025-06-23T21:18:29Z</time></trkpt><trkpt lat="60.1986436732" lon="32.2417095490"><ele>-1.19</ele><time>2025-06-23T21:18:48Z</time></trkpt><trkpt lat="60.1981592830" lon="32.2430629749"><ele>-1.11</ele><time>2025-06-23T21:19:10Z</time></trkpt><trkpt lat="60.1976742223" lon="32.2443941049"><ele>-1.02</ele><time>2025-06-23T21:19:32Z</time></trkpt><trkpt lat="60.1971401274" lon="32.2458468564"><ele>-0.96</ele><time>2025-06-23T21:19:56Z</time></trkpt><trkpt lat="60.1966240536" lon="32.2472343966"><ele>-0.91</ele><time>2025-06-23T21:20:19Z</time></trkpt><trkpt lat="60.1961082313" lon="32.2484071087"><ele>-0.84</ele><time>2025-06-23T21:20:40Z</time></trkpt><trkpt lat="60.1958670840" lon="32.2490033135"><ele>1.51</ele><time>2025-06-23T21:20:50Z</time></trkpt><trkpt lat="60.1953863818" lon="32.2503129859"><ele>1.55</ele><time>2025-06-23T21:21:11Z</time></trkpt><trkpt lat="60.1948848926" lon="32.2513430379"><ele>1.65</ele><time>2025-06-23T21:21:30Z</time></trkpt><trkpt lat="60.1941864286" lon="32.2525368724"><ele>1.73</ele><time>2025-06-23T21:21:54Z</time></trkpt><trkpt lat="60.1934764814" lon="32.2538074851"><ele>1.81</ele><time>2025-06-23T21:22:19Z</time></trkpt><trkpt lat="60.1928014029" lon="32.2549856454"><ele>1.88</ele><time>2025-06-23T21:22:42Z</time></trkpt><trkpt lat="60.1921831537" lon="32.2561543342"><ele>1.88</ele><time>2025-06-23T21:23:04Z</time></trkpt><trkpt lat="60.1914040558" lon="32.2577964328"><ele>2.01</ele><time>2025-06-23T21:23:34Z</time></trkpt><trkpt lat="60.1907945238" lon="32.2592580691"><ele>2.07</ele><time>2025-06-23T21:23:59Z</time></trkpt><trkpt lat="60.1901743468" lon="32.2605491336"><ele>2.10</ele><time>2025-06-23T21:24:22Z</time></trkpt><trkpt lat="60.1895747893" lon="32.2619311418"><ele>2.20</ele><time>2025-06-23T21:24:46Z</time></trkpt><trkpt lat="60.1890854537" lon="32.2632539738"><ele>2.20</ele><time>2025-06-23T21:25:07Z</time></trkpt><trkpt lat="60.1885728166" lon="32.2648801468"><ele>2.24</ele><time>2025-06-23T21:25:32Z</time></trkpt><trkpt lat="60.1881302521" lon="32.2665886302"><ele>3.08</ele><time>2025-06-23T21:25:57Z</time></trkpt><trkpt lat="60.1876855921" lon="32.2677681316"><ele>3.06</ele><time>2025-06-23T21:26:16Z</time></trkpt><trkpt lat="60.1869046502" lon="32.2692805622"><ele>3.14</ele><time>2025-06-23T21:26:44Z</time></trkpt><trkpt lat="60.1864048373" lon="32.2707246803"><ele>3.16</ele><time>2025-06-23T21:27:07Z</time></trkpt><trkpt lat="60.1858190261" lon="32.2720232047"><ele>3.20</ele><time>2025-06-23T21:27:30Z</time></trkpt><trkpt lat="60.1851136889" lon="32.2730816714"><ele>3.24</ele><time>2025-06-23T21:27:53Z</time></trkpt><trkpt lat="60.1843913365" lon="32.2742544673"><ele>3.27</ele><time>2025-06-23T21:28:17Z</time></trkpt><trkpt lat="60.1837158389" lon="32.2752607986"><ele>3.28</ele><time>2025-06-23T21:28:39Z</time></trkpt><trkpt lat="60.1830476336" lon="32.2763307486"><ele>3.30</ele><time>2025-06-23T21:29:01Z</time></trkpt><trkpt lat="60.1822834555" lon="32.2775617149"><ele>3.35</ele><time>2025-06-23T21:29:26Z</time></trkpt><trkpt lat="60.1814706624" lon="32.2788966168"><ele>3.40</ele><time>2025-06-23T21:29:53Z</time></trkpt><trkpt lat="60.1808325481" lon="32.2798040416"><ele>3.42</ele><time>2025-06-23T21:30:13Z</time></trkpt><trkpt lat="60.1802191604" lon="32.2807008214"><ele>3.49</ele><time>2025-06-23T21:30:32Z</time></trkpt><trkpt lat="60.1795298327" lon="32.2819585260"><ele>3.49</ele><time>2025-06-23T21:30:55Z</time></trkpt><trkpt lat="60.1788762119" lon="32.2831841279"><ele>3.53</ele><time>2025-06-23T21:31:17Z</time></trkpt><trkpt lat="60.1781834476" lon="32.2845304292"><ele>3.55</ele><time>2025-06-23T21:31:41Z</time></trkpt><trkpt lat="60.1775372028" lon="32.2858652472"><ele>3.57</ele><time>2025-06-23T21:32:04Z</time></trkpt><trkpt lat="60.1768696681" lon="32.2871619277"><ele>3.58</ele><time>2025-06-23T21:32:27Z</time></trkpt><trkpt lat="60.1761981100" lon="32.2885475401"><ele>3.59</ele><time>2025-06-23T21:32:51Z</time></trkpt><trkpt lat="60.1754832175" lon="32.2900758963"><ele>3.63</ele><time>2025-06-23T21:33:17Z</time></trkpt><trkpt lat="60.1747898664" lon="32.2914309986"><ele>3.66</ele><time>2025-06-23T21:33:41Z</time></trkpt><trkpt lat="60.1740536839" lon="32.2928724345"><ele>3.72</ele><time>2025-06-23T21:34:06Z</time></trkpt><trkpt lat="60.1733887475" lon="32.2941840347"><ele>3.75</ele><time>2025-06-23T21:34:29Z</time></trkpt><trkpt lat="60.1727067959" lon="32.2954872530"><ele>3.77</ele><time>2025-06-23T21:34:52Z</time></trkpt><trkpt lat="60.1719119400" lon="32.2969927266"><ele>3.80</ele><time>2025-06-23T21:35:19Z</time></trkpt><trkpt lat="60.1713027433" lon="32.2980565578"><ele>3.82</ele><time>2025-06-23T21:35:39Z</time></trkpt><trkpt lat="60.1705360506" lon="32.2994741052"><ele>3.88</ele><time>2025-06-23T21:36:05Z</time></trkpt><trkpt lat="60.1698142849" lon="32.3007937521"><ele>3.92</ele><time>2025-06-23T21:36:29Z</time></trkpt><trkpt lat="60.1690496039" lon="32.3020312563"><ele>3.97</ele><time>2025-06-23T21:36:53Z</time></trkpt><trkpt lat="60.1684042811" lon="32.3031413555"><ele>4.03</ele><time>2025-06-23T21:37:14Z</time></trkpt><trkpt lat="60.1676814258" lon="32.3041709047"><ele>4.09</ele><time>2025-06-23T21:37:36Z</time></trkpt><trkpt lat="60.1669040043" lon="32.3053327203"><ele>4.17</ele><time>2025-06-23T21:38:00Z</time></trkpt><trkpt lat="60.1661564223" lon="32.3065470904"><ele>4.22</ele><time>2025-06-23T21:38:24Z</time></trkpt><trkpt lat="60.1655397657" lon="32.3076134361"><ele>4.29</ele><time>2025-06-23T21:38:44Z</time></trkpt><trkpt lat="60.1646990608" lon="32.3088966217"><ele>4.36</ele><time>2025-06-23T21:39:10Z</time></trkpt><trkpt lat="60.1638294384" lon="32.3100810684"><ele>4.40</ele><time>2025-06-23T21:39:36Z</time></trkpt><trkpt lat="60.1630444732" lon="32.3111296445"><ele>4.42</ele><time>2025-06-23T21:39:59Z</time></trkpt><trkpt lat="60.1621890999" lon="32.3124813102"><ele>4.44</ele><time>2025-06-23T21:40:26Z</time></trkpt><trkpt lat="60.1613561064" lon="32.3137910664"><ele>4.48</ele><time>2025-06-23T21:40:52Z</time></trkpt><trkpt lat="60.1604480110" lon="32.3151563108"><ele>4.51</ele><time>2025-06-23T21:41:20Z</time></trkpt><trkpt lat="60.1596946456" lon="32.3164988402"><ele>4.58</ele><time>2025-06-23T21:41:45Z</time></trkpt><trkpt lat="60.1588806789" lon="32.3175257910"><ele>4.63</ele><time>2025-06-23T21:42:09Z</time></trkpt><trkpt lat="60.1577976532" lon="32.3186462838"><ele>4.67</ele><time>2025-06-23T21:42:39Z</time></trkpt><trkpt lat="60.1569839381" lon="32.3195263837"><ele>4.69</ele><time>2025-06-23T21:43:02Z</time></trkpt><trkpt lat="60.1559311710" lon="32.3208926339"><ele>4.73</ele><time>2025-06-23T21:43:33Z</time></trkpt><trkpt lat="60.1550086588" lon="32.3217055947"><ele>4.79</ele><time>2025-06-23T21:43:58Z</time></trkpt><trkpt lat="60.1541843824" lon="32.3222765699"><ele>4.85</ele><time>2025-06-23T21:44:22Z</time></trkpt><trkpt lat="60.1532249898" lon="32.3230420053"><ele>4.90</ele><time>2025-06-23T21:44:48Z</time></trkpt><trkpt lat="60.1523230132" lon="32.3240326624"><ele>4.96</ele><time>2025-06-23T21:45:17Z</time></trkpt><trkpt lat="60.1522599813" lon="32.3241030704"><ele>2.58</ele><time>2025-06-23T21:45:19Z</time></trkpt><trkpt lat="60.1522375178" lon="32.3241263721"><ele>28.71</ele><time>2025-06-23T21:45:20Z</time></trkpt><trkpt lat="60.1539629325" lon="32.3224452976"><ele>128.38</ele><time>2025-06-23T22:45:14Z</time></trkpt><trkpt lat="60.1185489725" lon="32.3199389409"><ele>128.38</ele><time>2025-06-23T22:45:16Z</time></trkpt><trkpt lat="60.1184795704" lon="32.3203564435"><ele>131.92</ele><time>2025-06-23T22:46:31Z</time></trkpt><trkpt lat="60.1184880361" lon="32.3207341321"><ele>128.92</ele><time>2025-06-23T22:50:36Z</time></trkpt><trkpt lat="60.1185458712" lon="32.3206472117"><ele>127.87</ele><time>2025-06-23T22:51:06Z</time></trkpt><trkpt lat="60.1184423547" lon="32.3207826633"><ele>124.79</ele><time>2025-06-23T22:52:54Z</time></trkpt><trkpt lat="60.1183449570" lon="32.3206344713"><ele>122.80</ele><time>2025-06-23T22:53:47Z</time></trkpt><trkpt lat="60.1182852779" lon="32.3206273466"><ele>122.69</ele><time>2025-06-23T22:53:50Z</time></trkpt><trkpt lat="60.1182647422" lon="32.3206249159"><ele>122.58</ele><time>2025-06-23T22:53:52Z</time></trkpt><trkpt lat="60.1184060611" lon="32.3205711041"><ele>120.32</ele><time>2025-06-23T22:55:16Z</time></trkpt><trkpt lat="60.1183664985" lon="32.3206047155"><ele>120.01</ele><time>2025-06-23T22:55:25Z</time></trkpt><trkpt lat="60.1184390020" lon="32.3207092378"><ele>116.95</ele><time>2025-06-23T22:56:52Z</time></trkpt><trkpt lat="60.1183879562" lon="32.3205761332"><ele>114.74</ele><time>2025-06-23T22:57:53Z</time></trkpt><trkpt lat="60.1183840167" lon="32.3205675837"><ele>111.67</ele><time>2025-06-23T22:59:37Z</time></trkpt><trkpt lat="60.1185215637" lon="32.3207497224"><ele>108.65</ele><time>2025-06-23T23:00:54Z</time></trkpt><trkpt lat="60.1185225695" lon="32.3208042886"><ele>105.63</ele><time>2025-06-23T23:02:05Z</time></trkpt><trkpt lat="60.1184330508" lon="32.3208446894"><ele>102.62</ele><time>2025-06-23T23:03:17Z</time></trkpt><trkpt lat="60.1184659079" lon="32.3207974993"><ele>99.60</ele><time>2025-06-23T23:04:30Z</time></trkpt><trkpt lat="60.1183353178" lon="32.3207588587"><ele>99.08</ele><time>2025-06-23T23:05:02Z</time></trkpt><trkpt lat="60.1184129342" lon="32.3208920471"><ele>96.02</ele><time>2025-06-23T23:06:19Z</time></trkpt><trkpt lat="60.1184321288" lon="32.3208151013"><ele>95.74</ele><time>2025-06-23T23:06:26Z</time></trkpt><trkpt lat="60.1183607988" lon="32.3207042087"><ele>92.69</ele><time>2025-06-23T23:07:49Z</time></trkpt><trkpt lat="60.1183481421" lon="32.3208836652"><ele>90.89</ele><time>2025-06-23T23:08:35Z</time></trkpt><trkpt lat="60.1182957552" lon="32.3209740222"><ele>90.38</ele><time>2025-06-23T23:08:48Z</time></trkpt><trkpt lat="60.1182789076" lon="32.3208876047"><ele>87.31</ele><time>2025-06-23T23:10:26Z</time></trkpt><trkpt lat="60.1182854455" lon="32.3208731879"><ele>84.29</ele><time>2025-06-23T23:11:48Z</time></trkpt><trkpt lat="60.1183424424" lon="32.3205981776"><ele>81.29</ele><time>2025-06-23T23:13:15Z</time></trkpt><trkpt lat="60.1184074860" lon="32.3208619561"><ele>78.27</ele><time>2025-06-23T23:14:42Z</time></trkpt><trkpt lat="60.1183990203" lon="32.3208996747"><ele>77.56</ele><time>2025-06-23T23:15:30Z</time></trkpt><trkpt lat="60.1182858646" lon="32.3209276702"><ele>74.52</ele><time>2025-06-23T23:17:05Z</time></trkpt><trkpt lat="60.1183836814" lon="32.3207441904"><ele>71.52</ele><time>2025-06-23T23:18:45Z</time></trkpt><trkpt lat="60.1184724458" lon="32.3209206294"><ele>68.49</ele><time>2025-06-23T23:20:26Z</time></trkpt><trkpt lat="60.1183276903" lon="32.3210463580"><ele>65.49</ele><time>2025-06-23T23:22:40Z</time></trkpt><trkpt lat="60.1182479784" lon="32.3210217990"><ele>62.48</ele><time>2025-06-23T23:24:38Z</time></trkpt><trkpt lat="60.1183707733" lon="32.3211171851"><ele>59.48</ele><time>2025-06-23T23:27:25Z</time></trkpt><trkpt lat="60.1182777341" lon="32.3212668020"><ele>56.46</ele><time>2025-06-23T23:30:09Z</time></trkpt><trkpt lat="60.1182428654" lon="32.3210587632"><ele>53.46</ele><time>2025-06-23T23:33:59Z</time></trkpt><trkpt lat="60.1183242537" lon="32.3211018462"><ele>50.44</ele><time>2025-06-23T23:36:49Z</time></trkpt><trkpt lat="60.1184059773" lon="32.3210089747"><ele>47.43</ele><time>2025-06-23T23:39:42Z</time></trkpt><trkpt lat="60.1183412690" lon="32.3209239822"><ele>46.06</ele><time>2025-06-23T23:41:01Z</time></trkpt><trkpt lat="60.1182602160" lon="32.3211837374"><ele>43.05</ele><time>2025-06-23T23:44:10Z</time></trkpt><trkpt lat="60.1183876209" lon="32.3212690651"><ele>42.04</ele><time>2025-06-23T23:46:22Z</time></trkpt><trkpt lat="60.1184262615" lon="32.3212986533"><ele>41.99</ele><time>2025-06-23T23:46:27Z</time></trkpt><trkpt lat="60.1186453644" lon="32.3213966377"><ele>41.15</ele><time>2025-06-23T23:47:25Z</time></trkpt><trkpt lat="60.1185534988" lon="32.3212906066"><ele>40.28</ele><time>2025-06-23T23:48:30Z</time></trkpt><trkpt lat="60.1185561810" lon="32.3210690729"><ele>38.12</ele><time>2025-06-23T23:52:32Z</time></trkpt><trkpt lat="60.1185783092" lon="32.3209911212"><ele>37.97</ele><time>2025-06-23T23:52:52Z</time></trkpt><trkpt lat="60.1184331346" lon="32.3208259139"><ele>37.58</ele><time>2025-06-23T23:53:40Z</time></trkpt><trkpt lat="60.1182612218" lon="32.3207382392"><ele>36.00</ele><time>2025-06-24T00:00:04Z</time></trkpt><trkpt lat="60.1182190608" lon="32.3208099883"><ele>35.90</ele><time>2025-06-24T00:04:10Z</time></trkpt><trkpt lat="60.1184300333" lon="32.3206212278"><ele>35.43</ele><time>2025-06-24T00:05:35Z</time></trkpt><trkpt lat="60.1183396764" lon="32.3209620360"><ele>34.02</ele><time>2025-06-24T00:09:18Z</time></trkpt><trkpt lat="60.1184502337" lon="32.3210047837"><ele>34.05</ele><time>2025-06-24T00:11:04Z</time></trkpt><trkpt lat="60.1184454560" lon="32.3210696597"><ele>34.02</ele><time>2025-06-24T00:11:07Z</time></trkpt><trkpt lat="60.1184526645" lon="32.3211731762"><ele>33.70</ele><time>2025-06-24T00:11:41Z</time></trkpt><trkpt lat="60.1184586156" lon="32.3212241381"><ele>33.68</ele><time>2025-06-24T00:11:44Z</time></trkpt><trkpt lat="60.1183938235" lon="32.3211849108"><ele>32.95</ele><time>2025-06-24T00:13:04Z</time></trkpt><trkpt lat="60.1183833461" lon="32.3211836535"><ele>32.90</ele><time>2025-06-24T00:13:07Z</time></trkpt><trkpt lat="60.1183230802" lon="32.3206910491"><ele>29.90</ele><time>2025-06-24T00:18:55Z</time></trkpt><trkpt lat="60.1184714399" lon="32.3207679950"><ele>29.30</ele><time>2025-06-24T00:19:52Z</time></trkpt><trkpt lat="60.1184900478" lon="32.3206495587"><ele>29.25</ele><time>2025-06-24T00:19:58Z</time></trkpt><trkpt lat="60.1185393333" lon="32.3206479661"><ele>28.77</ele><time>2025-06-24T00:20:43Z</time></trkpt><trkpt lat="60.1185420994" lon="32.3206953239"><ele>28.72</ele><time>2025-06-24T00:20:46Z</time></trkpt><trkpt lat="60.1183436997" lon="32.3209069669"><ele>28.43</ele><time>2025-06-24T00:22:29Z</time></trkpt><trkpt lat="60.1183293667" lon="32.3209363874"><ele>28.38</ele><time>2025-06-24T00:22:33Z</time></trkpt><trkpt lat="60.1182925701" lon="32.3209181987"><ele>28.35</ele><time>2025-06-24T00:22:39Z</time></trkpt><trkpt lat="60.1183541771" lon="32.3208434321"><ele>27.35</ele><time>2025-06-24T00:24:01Z</time></trkpt><trkpt lat="60.1182574499" lon="32.3208197951"><ele>26.97</ele><time>2025-06-24T00:24:28Z</time></trkpt><trkpt lat="60.1182670053" lon="32.3204687610"><ele>23.96</ele><time>2025-06-24T00:28:27Z</time></trkpt><trkpt lat="60.1184368227" lon="32.3209414165"><ele>23.40</ele><time>2025-06-24T00:29:21Z</time></trkpt><trkpt lat="60.1184692606" lon="32.3210102320"><ele>23.26</ele><time>2025-06-24T00:29:35Z</time></trkpt><trkpt lat="60.1183990203" lon="32.3209218029"><ele>23.06</ele><time>2025-06-24T00:29:58Z</time></trkpt><trkpt lat="60.1184141915" lon="32.3211020138"><ele>23.25</ele><time>2025-06-24T00:30:56Z</time></trkpt><trkpt lat="60.1184381638" lon="32.3211377207"><ele>23.13</ele><time>2025-06-24T00:31:09Z</time></trkpt><trkpt lat="60.1184308715" lon="32.3209338728"><ele>22.73</ele><time>2025-06-24T00:31:57Z</time></trkpt><trkpt lat="60.1183460467" lon="32.3208530713"><ele>21.37</ele><time>2025-06-24T00:35:27Z</time></trkpt><trkpt lat="60.1183511596" lon="32.3210379761"><ele>21.01</ele><time>2025-06-24T00:35:58Z</time></trkpt><trkpt lat="60.1184004452" lon="32.3208303563"><ele>19.29</ele><time>2025-06-24T00:39:44Z</time></trkpt><trkpt lat="60.1184026245" lon="32.3205554299"><ele>18.73</ele><time>2025-06-24T00:40:35Z</time></trkpt><trkpt lat="60.1183832623" lon="32.3208671529"><ele>15.70</ele><time>2025-06-24T00:45:48Z</time></trkpt><trkpt lat="60.1184924785" lon="32.3208320327"><ele>15.33</ele><time>2025-06-24T00:46:29Z</time></trkpt><trkpt lat="60.1182670891" lon="32.3205502331"><ele>14.66</ele><time>2025-06-24T00:47:49Z</time></trkpt><trkpt lat="60.1182345673" lon="32.3205456231"><ele>14.63</ele><time>2025-06-24T00:47:53Z</time></trkpt><trkpt lat="60.1182141155" lon="32.3205176275"><ele>14.60</ele><time>2025-06-24T00:47:56Z</time></trkpt><trkpt lat="60.1180918235" lon="32.3209126666"><ele>13.92</ele><time>2025-06-24T00:49:11Z</time></trkpt><trkpt lat="60.1183429454" lon="32.3205783963"><ele>12.49</ele><time>2025-06-24T00:51:52Z</time></trkpt><trkpt lat="60.1184028760" lon="32.3208093178"><ele>11.28</ele><time>2025-06-24T00:56:59Z</time></trkpt><trkpt lat="60.1183052268" lon="32.3206844274"><ele>9.50</ele><time>2025-06-24T01:01:06Z</time></trkpt><trkpt lat="60.1183185540" lon="32.3207716830"><ele>9.54</ele><time>2025-06-24T01:12:21Z</time></trkpt><trkpt lat="60.1183255948" lon="32.3210710008"><ele>10.24</ele><time>2025-06-24T01:13:44Z</time></trkpt><trkpt lat="60.1183224935" lon="32.3209444340"><ele>11.20</ele><time>2025-06-24T01:16:55Z</time></trkpt><trkpt lat="60.1183192246" lon="32.3211005889"><ele>12.23</ele><time>2025-06-24T01:19:22Z</time></trkpt><trkpt lat="60.1184171252" lon="32.3211188614"><ele>14.44</ele><time>2025-06-24T01:22:40Z</time></trkpt><trkpt lat="60.1183719467" lon="32.3210376408"><ele>16.52</ele><time>2025-06-24T01:25:29Z</time></trkpt><trkpt lat="60.1182917319" lon="32.3207937274"><ele>17.25</ele><time>2025-06-24T01:27:09Z</time></trkpt><trkpt lat="60.1183115132" lon="32.3208592739"><ele>17.32</ele><time>2025-06-24T01:27:22Z</time></trkpt><trkpt lat="60.1183331385" lon="32.3206269275"><ele>17.64</ele><time>2025-06-24T01:28:39Z</time></trkpt><trkpt lat="60.1182193961" lon="32.3203991074"><ele>18.41</ele><time>2025-06-24T01:31:50Z</time></trkpt><trkpt lat="60.1183369104" lon="32.3204026278"><ele>18.96</ele><time>2025-06-24T01:33:58Z</time></trkpt><trkpt lat="60.1183158718" lon="32.3207442742"><ele>20.08</ele><time>2025-06-24T01:35:23Z</time></trkpt><trkpt lat="60.1183877047" lon="32.3207729403"><ele>20.17</ele><time>2025-06-24T01:35:54Z</time></trkpt><trkpt lat="60.1185080688" lon="32.3208865989"><ele>20.25</ele><time>2025-06-24T01:36:24Z</time></trkpt><trkpt lat="60.1183946617" lon="32.3206913844"><ele>20.45</ele><time>2025-06-24T01:37:36Z</time></trkpt><trkpt lat="60.1183201466" lon="32.3206566833"><ele>20.56</ele><time>2025-06-24T01:38:14Z</time></trkpt><trkpt lat="60.1183587871" lon="32.3206783086"><ele>20.63</ele><time>2025-06-24T01:38:45Z</time></trkpt></trkseg><trkseg><trkpt lat="60.0043110922" lon="32.6640563831"><ele>125.32</ele><time>2025-06-27T19:10:19Z</time></trkpt><trkpt lat="60.0062622316" lon="32.6599283796"><ele>125.30</ele><time>2025-06-27T19:10:26Z</time></trkpt><trkpt lat="60.0095051061" lon="32.6517773140"><ele>125.16</ele><time>2025-06-27T19:10:40Z</time></trkpt><trkpt lat="60.0119269732" lon="32.6443579048"><ele>125.04</ele><time>2025-06-27T19:10:52Z</time></trkpt><trkpt lat="60.0143692922" lon="32.6352486201"><ele>124.91</ele><time>2025-06-27T19:11:06Z</time></trkpt><trkpt lat="60.0162259676" lon="32.6264390722"><ele>124.77</ele><time>2025-06-27T19:11:19Z</time></trkpt><trkpt lat="60.0176644698" lon="32.6173371635"><ele>124.65</ele><time>2025-06-27T19:11:32Z</time></trkpt><trkpt lat="60.0186724775" lon="32.6080049202"><ele>124.53</ele><time>2025-06-27T19:11:45Z</time></trkpt><trkpt lat="60.0192729570" lon="32.5984860957"><ele>124.41</ele><time>2025-06-27T19:11:58Z</time></trkpt><trkpt lat="60.0194364041" lon="32.5888903253"><ele>124.31</ele><time>2025-06-27T19:12:11Z</time></trkpt><trkpt lat="60.0191918202" lon="32.5793595985"><ele>124.21</ele><time>2025-06-27T19:12:24Z</time></trkpt><trkpt lat="60.0184079446" lon="32.5691066869"><ele>124.06</ele><time>2025-06-27T19:12:38Z</time></trkpt><trkpt lat="60.0173944887" lon="32.5602815486"><ele>123.97</ele><time>2025-06-27T19:12:50Z</time></trkpt><trkpt lat="60.0157984067" lon="32.5507664122"><ele>123.94</ele><time>2025-06-27T19:13:04Z</time></trkpt><trkpt lat="60.0136921182" lon="32.5413560495"><ele>123.88</ele><time>2025-06-27T19:13:18Z</time></trkpt><trkpt lat="60.0111627113" lon="32.5323848147"><ele>123.86</ele><time>2025-06-27T19:13:32Z</time></trkpt><trkpt lat="60.0084293727" lon="32.5244999584"><ele>123.83</ele><time>2025-06-27T19:13:45Z</time></trkpt><trkpt lat="60.0053631887" lon="32.5171674695"><ele>123.80</ele><time>2025-06-27T19:13:58Z</time></trkpt><trkpt lat="60.0019718707" lon="32.5103806425"><ele>123.77</ele><time>2025-06-27T19:14:11Z</time></trkpt><trkpt lat="59.9980143551" lon="32.5038230605"><ele>123.72</ele><time>2025-06-27T19:14:25Z</time></trkpt><trkpt lat="59.9937545042" lon="32.4980299082"><ele>123.69</ele><time>2025-06-27T19:14:39Z</time></trkpt><trkpt lat="59.9895621277" lon="32.4933811370"><ele>123.68</ele><time>2025-06-27T19:14:52Z</time></trkpt><trkpt lat="59.9851748720" lon="32.4895047583"><ele>123.68</ele><time>2025-06-27T19:15:05Z</time></trkpt><trkpt lat="59.9802853726" lon="32.4862319604"><ele>123.65</ele><time>2025-06-27T19:15:19Z</time></trkpt><trkpt lat="59.9752693903" lon="32.4838947505"><ele>123.67</ele><time>2025-06-27T19:15:33Z</time></trkpt><trkpt lat="59.9701601174" lon="32.4825437553"><ele>123.66</ele><time>2025-06-27T19:15:47Z</time></trkpt><trkpt lat="59.9653816782" lon="32.4821540806"><ele>123.67</ele><time>2025-06-27T19:16:00Z</time></trkpt><trkpt lat="59.9602306634" lon="32.4826875050"><ele>123.68</ele><time>2025-06-27T19:16:14Z</time></trkpt><trkpt lat="59.9551161099" lon="32.4841876980"><ele>123.76</ele><time>2025-06-27T19:16:28Z</time></trkpt><trkpt lat="59.9504590407" lon="32.4864347186"><ele>123.71</ele><time>2025-06-27T19:16:41Z</time></trkpt><trkpt lat="59.9459349085" lon="32.4895233661"><ele>123.67</ele><time>2025-06-27T19:16:54Z</time></trkpt><trkpt lat="59.9415489938" lon="32.4934289977"><ele>123.62</ele><time>2025-06-27T19:17:07Z</time></trkpt><trkpt lat="59.9373585451" lon="32.4980812892"><ele>123.57</ele><time>2025-06-27T19:17:20Z</time></trkpt><trkpt lat="59.9333947431" lon="32.5034248363"><ele>123.57</ele><time>2025-06-27T19:17:33Z</time></trkpt><trkpt lat="59.9296673108" lon="32.5094378460"><ele>123.55</ele><time>2025-06-27T19:17:46Z</time></trkpt><trkpt lat="59.9259896670" lon="32.5166187063"><ele>123.54</ele><time>2025-06-27T19:18:00Z</time></trkpt><trkpt lat="59.9228946492" lon="32.5238857325"><ele>123.57</ele><time>2025-06-27T19:18:13Z</time></trkpt><trkpt lat="59.9201163836" lon="32.5316778012"><ele>123.53</ele><time>2025-06-27T19:18:26Z</time></trkpt><trkpt lat="59.9177163932" lon="32.5399224926"><ele>123.54</ele><time>2025-06-27T19:18:39Z</time></trkpt><trkpt lat="59.9155433010" lon="32.5492259022"><ele>123.50</ele><time>2025-06-27T19:18:53Z</time></trkpt><trkpt lat="59.9138298724" lon="32.5589171425"><ele>123.49</ele><time>2025-06-27T19:19:07Z</time></trkpt><trkpt lat="59.9126797076" lon="32.5681845099"><ele>123.45</ele><time>2025-06-27T19:19:20Z</time></trkpt><trkpt lat="59.9119345564" lon="32.5776263885"><ele>123.45</ele><time>2025-06-27T19:19:33Z</time></trkpt><trkpt lat="59.9115984421" lon="32.5878741033"><ele>123.43</ele><time>2025-06-27T19:19:47Z</time></trkpt><trkpt lat="59.9117249250" lon="32.5974013936"><ele>123.39</ele><time>2025-06-27T19:20:00Z</time></trkpt><trkpt lat="59.9123179447" lon="32.6075887587"><ele>123.34</ele><time>2025-06-27T19:20:14Z</time></trkpt><trkpt lat="59.9134067539" lon="32.6176234894"><ele>123.31</ele><time>2025-06-27T19:20:28Z</time></trkpt><trkpt lat="59.9149698950" lon="32.6274282206"><ele>123.29</ele><time>2025-06-27T19:20:42Z</time></trkpt><trkpt lat="59.9168475252" lon="32.6362070069"><ele>123.30</ele><time>2025-06-27T19:20:55Z</time></trkpt><trkpt lat="59.9191136565" lon="32.6446281374"><ele>123.24</ele><time>2025-06-27T19:21:08Z</time></trkpt><trkpt lat="59.9217506871" lon="32.6526069548"><ele>123.20</ele><time>2025-06-27T19:21:21Z</time></trkpt><trkpt lat="59.9249651469" lon="32.6606320404"><ele>123.14</ele><time>2025-06-27T19:21:35Z</time></trkpt><trkpt lat="59.9285376817" lon="32.6680718176"><ele>123.11</ele><time>2025-06-27T19:21:49Z</time></trkpt><trkpt lat="59.9321446661" lon="32.6742823888"><ele>123.08</ele><time>2025-06-27T19:22:02Z</time></trkpt><trkpt lat="59.9360304326" lon="32.6798528340"><ele>123.04</ele><time>2025-06-27T19:22:15Z</time></trkpt><trkpt lat="59.9404691532" lon="32.6851263084"><ele>123.05</ele><time>2025-06-27T19:22:29Z</time></trkpt><trkpt lat="59.9527698476" lon="32.6987175643"><ele>123.07</ele><time>2025-06-27T19:23:06Z</time></trkpt><trkpt lat="59.9527698476" lon="32.6987175643"><ele>123.07</ele><time>2025-06-27T19:25:09Z</time></trkpt><trkpt lat="59.9730538018" lon="32.6961448230"><ele>123.08</ele><time>2025-06-27T19:25:23Z</time></trkpt><trkpt lat="59.9781453889" lon="32.6943542808"><ele>123.13</ele><time>2025-06-27T19:25:37Z</time></trkpt><trkpt lat="59.9827664159" lon="32.6918031648"><ele>123.19</ele><time>2025-06-27T19:25:50Z</time></trkpt><trkpt lat="59.9872475490" lon="32.6884320471"><ele>123.26</ele><time>2025-06-27T19:26:03Z</time></trkpt><trkpt lat="59.9915633909" lon="32.6842261758"><ele>123.32</ele><time>2025-06-27T19:26:16Z</time></trkpt><trkpt lat="59.9956612196" lon="32.6792962756"><ele>123.42</ele><time>2025-06-27T19:26:29Z</time></trkpt><trkpt lat="59.9995254446" lon="32.6735911332"><ele>123.49</ele><time>2025-06-27T19:26:42Z</time></trkpt><trkpt lat="60.0033638533" lon="32.6667294558"><ele>123.57</ele><time>2025-06-27T19:26:56Z</time></trkpt><trkpt lat="60.0068803970" lon="32.6592125650"><ele>123.66</ele><time>2025-06-27T19:27:10Z</time></trkpt><trkpt lat="60.0100411288" lon="32.6510117110"><ele>123.73</ele><time>2025-06-27T19:27:24Z</time></trkpt><trkpt lat="60.0126022194" lon="32.6429300476"><ele>123.79</ele><time>2025-06-27T19:27:37Z</time></trkpt><trkpt lat="60.0147489086" lon="32.6343764830"><ele>123.84</ele><time>2025-06-27T19:27:50Z</time></trkpt><trkpt lat="60.0166803505" lon="32.6248208620"><ele>123.95</ele><time>2025-06-27T19:28:04Z</time></trkpt><trkpt lat="60.0179212913" lon="32.6163197681"><ele>124.03</ele><time>2025-06-27T19:28:16Z</time></trkpt><trkpt lat="60.0189700350" lon="32.6062310580"><ele>124.10</ele><time>2025-06-27T19:28:30Z</time></trkpt><trkpt lat="60.0194789004" lon="32.5966951344"><ele>124.19</ele><time>2025-06-27T19:28:43Z</time></trkpt><trkpt lat="60.0195307843" lon="32.5863863993"><ele>124.29</ele><time>2025-06-27T19:28:57Z</time></trkpt><trkpt lat="60.0191276148" lon="32.5767826661"><ele>124.40</ele><time>2025-06-27T19:29:10Z</time></trkpt><trkpt lat="60.0182889216" lon="32.5665966421"><ele>124.54</ele><time>2025-06-27T19:29:24Z</time></trkpt><trkpt lat="60.0170561112" lon="32.5573058054"><ele>124.68</ele><time>2025-06-27T19:29:37Z</time></trkpt><trkpt lat="60.0152807403" lon="32.5476029143"><ele>124.81</ele><time>2025-06-27T19:29:51Z</time></trkpt><trkpt lat="60.0133808143" lon="32.5395930838"><ele>124.94</ele><time>2025-06-27T19:30:03Z</time></trkpt><trkpt lat="60.0109578576" lon="32.5312906411"><ele>125.08</ele><time>2025-06-27T19:30:16Z</time></trkpt><trkpt lat="60.0079659373" lon="32.5229124259"><ele>125.27</ele><time>2025-06-27T19:30:30Z</time></trkpt><trkpt lat="60.0045799837" lon="32.5151089579"><ele>125.44</ele><time>2025-06-27T19:30:44Z</time></trkpt><trkpt lat="60.0011289865" lon="32.5084754359"><ele>125.63</ele><time>2025-06-27T19:30:57Z</time></trkpt><trkpt lat="59.9973521009" lon="32.5025873166"><ele>125.81</ele><time>2025-06-27T19:31:10Z</time></trkpt><trkpt lat="59.9930440541" lon="32.4969091639"><ele>126.01</ele><time>2025-06-27T19:31:24Z</time></trkpt><trkpt lat="59.9888432119" lon="32.4924097583"><ele>126.18</ele><time>2025-06-27T19:31:37Z</time></trkpt><trkpt lat="59.9844510946" lon="32.4886149354"><ele>126.35</ele><time>2025-06-27T19:31:50Z</time></trkpt><trkpt lat="59.9795232899" lon="32.4854827020"><ele>126.55</ele><time>2025-06-27T19:32:04Z</time></trkpt><trkpt lat="59.9744725227" lon="32.4833241105"><ele>126.69</ele><time>2025-06-27T19:32:18Z</time></trkpt><trkpt lat="59.9696845282" lon="32.4821960740"><ele>126.85</ele><time>2025-06-27T19:32:31Z</time></trkpt><trkpt lat="59.9645240419" lon="32.4819381628"><ele>127.00</ele><time>2025-06-27T19:32:45Z</time></trkpt><trkpt lat="59.9593885336" lon="32.4825955555"><ele>127.16</ele><time>2025-06-27T19:32:59Z</time></trkpt><trkpt lat="59.9543191586" lon="32.4842995964"><ele>127.31</ele><time>2025-06-27T19:33:13Z</time></trkpt><trkpt lat="59.9493114743" lon="32.4869762734"><ele>127.44</ele><time>2025-06-27T19:33:27Z</time></trkpt><trkpt lat="59.9448267370" lon="32.4902820960"><ele>127.56</ele><time>2025-06-27T19:33:40Z</time></trkpt><trkpt lat="59.9404863361" lon="32.4943743087"><ele>127.67</ele><time>2025-06-27T19:33:53Z</time></trkpt><trkpt lat="59.9360261578" lon="32.4995903671"><ele>127.80</ele><time>2025-06-27T19:34:07Z</time></trkpt><trkpt lat="59.9321418162" lon="32.5051617343"><ele>127.93</ele><time>2025-06-27T19:34:20Z</time></trkpt><trkpt lat="59.9285228457" lon="32.5114453118"><ele>128.05</ele><time>2025-06-27T19:34:33Z</time></trkpt><trkpt lat="59.9249384925" lon="32.5189018529"><ele>128.18</ele><time>2025-06-27T19:34:47Z</time></trkpt><trkpt lat="59.9219421297" lon="32.5263923407"><ele>129.10</ele><time>2025-06-27T19:35:00Z</time></trkpt><trkpt lat="59.9192928616" lon="32.5343815517"><ele>129.22</ele><time>2025-06-27T19:35:13Z</time></trkpt><trkpt lat="59.9170262273" lon="32.5428110640"><ele>129.33</ele><time>2025-06-27T19:35:26Z</time></trkpt><trkpt lat="59.9150107987" lon="32.5522723887"><ele>129.47</ele><time>2025-06-27T19:35:40Z</time></trkpt><trkpt lat="59.9134495016" lon="32.5620943867"><ele>129.57</ele><time>2025-06-27T19:35:54Z</time></trkpt><trkpt lat="59.9124197848" lon="32.5714283064"><ele>129.69</ele><time>2025-06-27T19:36:07Z</time></trkpt><trkpt lat="59.9117875379" lon="32.5809131004"><ele>129.78</ele><time>2025-06-27T19:36:20Z</time></trkpt><trkpt lat="59.9116092548" lon="32.5911433809"><ele>129.92</ele><time>2025-06-27T19:36:34Z</time></trkpt><trkpt lat="59.9119224027" lon="32.6014127210"><ele>129.97</ele><time>2025-06-27T19:36:48Z</time></trkpt><trkpt lat="59.9126468506" lon="32.6108697709"><ele>130.05</ele><time>2025-06-27T19:37:01Z</time></trkpt><trkpt lat="59.9138008710" lon="32.6201017667"><ele>130.11</ele><time>2025-06-27T19:37:14Z</time></trkpt><trkpt lat="59.9155148864" lon="32.6297957730"><ele>130.16</ele><time>2025-06-27T19:37:28Z</time></trkpt><trkpt lat="59.9174824543" lon="32.6384850405"><ele>130.22</ele><time>2025-06-27T19:37:41Z</time></trkpt><trkpt lat="59.9198495038" lon="32.6468033250"><ele>130.27</ele><time>2025-06-27T19:37:54Z</time></trkpt><trkpt lat="59.9227902945" lon="32.6552216895"><ele>130.31</ele><time>2025-06-27T19:38:08Z</time></trkpt><trkpt lat="59.9258688837" lon="32.6625507418"><ele>130.35</ele><time>2025-06-27T19:38:21Z</time></trkpt><trkpt lat="59.9292740319" lon="32.6693006884"><ele>130.32</ele><time>2025-06-27T19:38:34Z</time></trkpt><trkpt lat="59.9332293682" lon="32.6758533251"><ele>130.32</ele><time>2025-06-27T19:38:48Z</time></trkpt><trkpt lat="59.9371725507" lon="32.6812451519"><ele>130.32</ele><time>2025-06-27T19:39:01Z</time></trkpt><trkpt lat="59.9410306569" lon="32.6855868939"><ele>130.30</ele><time>2025-06-27T19:39:13Z</time></trkpt><trkpt lat="59.9453806970" lon="32.6895748358"><ele>130.28</ele><time>2025-06-27T19:39:26Z</time></trkpt><trkpt lat="59.9499080144" lon="32.6927530859"><ele>130.25</ele><time>2025-06-27T19:39:39Z</time></trkpt><trkpt lat="59.9541874789" lon="32.6949297823"><ele>130.21</ele><time>2025-06-27T19:39:51Z</time></trkpt><trkpt lat="59.9589321390" lon="32.6965220924"><ele>130.19</ele><time>2025-06-27T19:40:04Z</time></trkpt><trkpt lat="59.9633510783" lon="32.6972033735"><ele>130.17</ele><time>2025-06-27T19:40:16Z</time></trkpt><trkpt lat="59.9685051106" lon="32.6971465442"><ele>130.14</ele><time>2025-06-27T19:40:30Z</time></trkpt><trkpt lat="59.9732835498" lon="32.6962077711"><ele>130.16</ele><time>2025-06-27T19:40:43Z</time></trkpt><trkpt lat="59.9783691019" lon="32.6942577213"><ele>130.16</ele><time>2025-06-27T19:40:57Z</time></trkpt><trkpt lat="59.9833031092" lon="32.6913813036"><ele>130.17</ele><time>2025-06-27T19:41:11Z</time></trkpt><trkpt lat="59.9877704121" lon="32.6878557075"><ele>130.21</ele><time>2025-06-27T19:41:24Z</time></trkpt><trkpt lat="59.9923705682" lon="32.6831953693"><ele>130.23</ele><time>2025-06-27T19:41:38Z</time></trkpt><trkpt lat="59.9964242242" lon="32.6780556701"><ele>130.29</ele><time>2025-06-27T19:41:51Z</time></trkpt><trkpt lat="60.0002272613" lon="32.6722602546"><ele>130.34</ele><time>2025-06-27T19:42:04Z</time></trkpt><trkpt lat="60.0040147919" lon="32.6653140876"><ele>130.39</ele><time>2025-06-27T19:42:18Z</time></trkpt><trkpt lat="60.0072210375" lon="32.6582310442"><ele>130.47</ele><time>2025-06-27T19:42:31Z</time></trkpt><trkpt lat="60.0103227608" lon="32.6499677449"><ele>130.54</ele><time>2025-06-27T19:42:45Z</time></trkpt><trkpt lat="60.0128395110" lon="32.6418160927"><ele>130.63</ele><time>2025-06-27T19:42:58Z</time></trkpt><trkpt lat="60.0151382480" lon="32.6325383317"><ele>130.74</ele><time>2025-06-27T19:43:12Z</time></trkpt><trkpt lat="60.0168722961" lon="32.6236116048"><ele>130.84</ele><time>2025-06-27T19:43:25Z</time></trkpt><trkpt lat="60.0181653723" lon="32.6143818721"><ele>130.93</ele><time>2025-06-27T19:43:38Z</time></trkpt><trkpt lat="60.0190498307" lon="32.6049506385"><ele>131.03</ele><time>2025-06-27T19:43:51Z</time></trkpt><trkpt lat="60.0194841810" lon="32.5954491645"><ele>131.14</ele><time>2025-06-27T19:44:04Z</time></trkpt><trkpt lat="60.0195338018" lon="32.5858808029"><ele>131.23</ele><time>2025-06-27T19:44:17Z</time></trkpt><trkpt lat="60.0191634055" lon="32.5763238408"><ele>131.36</ele><time>2025-06-27T19:44:30Z</time></trkpt><trkpt lat="60.0183766801" lon="32.5668740831"><ele>131.49</ele><time>2025-06-27T19:44:43Z</time></trkpt><trkpt lat="60.0170252658" lon="32.5569169689"><ele>131.63</ele><time>2025-06-27T19:44:57Z</time></trkpt><trkpt lat="60.0153497234" lon="32.5479381066"><ele>131.74</ele><time>2025-06-27T19:45:10Z</time></trkpt><trkpt lat="60.0132750347" lon="32.5392672792"><ele>131.87</ele><time>2025-06-27T19:45:23Z</time></trkpt><trkpt lat="60.0106436200" lon="32.5303801987"><ele>132.04</ele><time>2025-06-27T19:45:37Z</time></trkpt><trkpt lat="60.0076346006" lon="32.5220100302"><ele>132.18</ele><time>2025-06-27T19:45:51Z</time></trkpt><trkpt lat="60.0044970028" lon="32.5148006715"><ele>132.33</ele><time>2025-06-27T19:46:04Z</time></trkpt><trkpt lat="60.0004885253" lon="32.5071754865"><ele>133.32</ele><time>2025-06-27T19:46:19Z</time></trkpt><trkpt lat="59.9969788548" lon="32.5017769542"><ele>133.44</ele><time>2025-06-27T19:46:31Z</time></trkpt><trkpt lat="59.9926213548" lon="32.4962014798"><ele>133.57</ele><time>2025-06-27T19:46:45Z</time></trkpt><trkpt lat="59.9880413990" lon="32.4914456718"><ele>133.75</ele><time>2025-06-27T19:46:59Z</time></trkpt><trkpt lat="59.9836064503" lon="32.4878031481"><ele>133.89</ele><time>2025-06-27T19:47:12Z</time></trkpt><trkpt lat="59.9789948948" lon="32.4850542191"><ele>134.03</ele><time>2025-06-27T19:47:25Z</time></trkpt><trkpt lat="59.9738744739" lon="32.4831008166"><ele>134.18</ele><time>2025-06-27T19:47:39Z</time></trkpt><trkpt lat="59.9687223695" lon="32.4820846785"><ele>134.34</ele><time>2025-06-27T19:47:53Z</time></trkpt><trkpt lat="59.9639411643" lon="32.4819089100"><ele>134.50</ele><time>2025-06-27T19:48:06Z</time></trkpt><trkpt lat="59.9591797404" lon="32.4825683981"><ele>134.65</ele><time>2025-06-27T19:48:19Z</time></trkpt><trkpt lat="59.9544514250" lon="32.4841879494"><ele>134.83</ele><time>2025-06-27T19:48:32Z</time></trkpt><trkpt lat="59.9494586606" lon="32.4867625348"><ele>135.01</ele><time>2025-06-27T19:48:46Z</time></trkpt><trkpt lat="59.9449827243" lon="32.4899401981"><ele>135.22</ele><time>2025-06-27T19:48:59Z</time></trkpt><trkpt lat="59.9409970455" lon="32.4937210232"><ele>135.38</ele><time>2025-06-27T19:49:11Z</time></trkpt><trkpt lat="59.9365546368" lon="32.4987168051"><ele>135.56</ele><time>2025-06-27T19:49:25Z</time></trkpt><trkpt lat="59.9326143879" lon="32.5043510366"><ele>135.74</ele><time>2025-06-27T19:49:38Z</time></trkpt><trkpt lat="59.9289437011" lon="32.5106010865"><ele>135.94</ele><time>2025-06-27T19:49:51Z</time></trkpt><trkpt lat="59.9253150076" lon="32.5179072563"><ele>136.12</ele><time>2025-06-27T19:50:05Z</time></trkpt><trkpt lat="59.9222812615" lon="32.5253184512"><ele>136.32</ele><time>2025-06-27T19:50:18Z</time></trkpt><trkpt lat="59.9195917603" lon="32.5332906470"><ele>136.52</ele><time>2025-06-27T19:50:31Z</time></trkpt><trkpt lat="59.9170956295" lon="32.5423101615"><ele>136.74</ele><time>2025-06-27T19:50:45Z</time></trkpt><trkpt lat="59.9151947815" lon="32.5510570966"><ele>136.93</ele><time>2025-06-27T19:50:58Z</time></trkpt><trkpt lat="59.9136875477" lon="32.5600674748"><ele>137.17</ele><time>2025-06-27T19:51:11Z</time></trkpt><trkpt lat="59.9124954734" lon="32.5702723581"><ele>137.38</ele><time>2025-06-27T19:51:25Z</time></trkpt><trkpt lat="59.9118789006" lon="32.5787841808"><ele>137.59</ele><time>2025-06-27T19:51:37Z</time></trkpt><trkpt lat="59.9629072566" lon="32.4824007601"><ele>127.13</ele><time>2025-06-27T20:18:47Z</time></trkpt><trkpt lat="59.9609034788" lon="32.4826904386"><ele>124.05</ele><time>2025-06-27T20:18:53Z</time></trkpt><trkpt lat="59.9594451115" lon="32.4829641916"><ele>121.97</ele><time>2025-06-27T20:18:57Z</time></trkpt><trkpt lat="59.9565367587" lon="32.4837784097"><ele>119.91</ele><time>2025-06-27T20:19:05Z</time></trkpt><trkpt lat="59.9515009951" lon="32.4859679304"><ele>116.75</ele><time>2025-06-27T20:19:19Z</time></trkpt><trkpt lat="59.9466103222" lon="32.4890746828"><ele>114.31</ele><time>2025-06-27T20:19:33Z</time></trkpt><trkpt lat="59.9422063865" lon="32.4928260874"><ele>114.28</ele><time>2025-06-27T20:19:46Z</time></trkpt><trkpt lat="59.9325382803" lon="32.5033354014"><ele>115.20</ele><time>2025-06-27T20:20:16Z</time></trkpt><trkpt lat="59.9221448041" lon="32.5261218566"><ele>115.22</ele><time>2025-06-27T20:20:57Z</time></trkpt><trkpt lat="59.9221326504" lon="32.5261547975"><ele>124.50</ele><time>2025-06-27T20:20:56Z</time></trkpt><trkpt lat="59.9221448041" lon="32.5261218566"><ele>126.18</ele><time>2025-06-27T20:20:57Z</time></trkpt><trkpt lat="59.9221072532" lon="32.5262199249"><ele>126.19</ele><time>2025-06-27T20:20:56Z</time></trkpt><trkpt lat="59.9221268669" lon="32.5261663646"><ele>127.01</ele><time>2025-06-27T20:20:57Z</time></trkpt><trkpt lat="59.9221083429" lon="32.5262169912"><ele>127.01</ele><time>2025-06-27T20:20:56Z</time></trkpt><trkpt lat="59.9221268669" lon="32.5261663646"><ele>128.52</ele><time>2025-06-27T20:20:57Z</time></trkpt><trkpt lat="59.9221230112" lon="32.5261770096"><ele>129.32</ele><time>2025-06-27T20:20:56Z</time></trkpt><trkpt lat="59.9220848735" lon="32.5262667798"><ele>130.11</ele><time>2025-06-27T20:20:57Z</time></trkpt><trkpt lat="59.9221177306" lon="32.5261882413"><ele>130.90</ele><time>2025-06-27T20:20:56Z</time></trkpt><trkpt lat="59.9221268669" lon="32.5261663646"><ele>130.90</ele><time>2025-06-27T20:20:57Z</time></trkpt><trkpt lat="59.9221212510" lon="32.5261817034"><ele>130.90</ele><time>2025-06-27T20:20:56Z</time></trkpt><trkpt lat="59.9221268669" lon="32.5261663646"><ele>130.91</ele><time>2025-06-27T20:20:57Z</time></trkpt><trkpt lat="59.9221064150" lon="32.5262222718"><ele>130.87</ele><time>2025-06-27T20:20:56Z</time></trkpt><trkpt lat="59.9221268669" lon="32.5261663646"><ele>130.90</ele><time>2025-06-27T20:20:57Z</time></trkpt><trkpt lat="59.9220985360" lon="32.5262210146"><ele>130.91</ele><time>2025-06-27T20:20:56Z</time></trkpt><trkpt lat="59.9221076723" lon="32.5262187514"><ele>130.90</ele><time>2025-06-27T20:20:57Z</time></trkpt><trkpt lat="59.9221085105" lon="32.5262164045"><ele>130.90</ele><time>2025-06-27T20:20:56Z</time></trkpt><trkpt lat="59.9220871367" lon="32.5262521952"><ele>130.93</ele><time>2025-06-27T20:20:57Z</time></trkpt><trkpt lat="59.9221011344" lon="32.5262139738"><ele>130.90</ele><time>2025-06-27T20:20:56Z</time></trkpt><trkpt lat="59.9221057445" lon="32.5262240320"><ele>130.90</ele><time>2025-06-27T20:20:57Z</time></trkpt><trkpt lat="59.9221085105" lon="32.5262164045"><ele>130.92</ele><time>2025-06-27T20:20:56Z</time></trkpt><trkpt lat="59.9221149646" lon="32.5261763390"><ele>130.89</ele><time>2025-06-27T20:20:57Z</time></trkpt><trkpt lat="59.9221128691" lon="32.5262045860"><ele>130.90</ele><time>2025-06-27T20:20:56Z</time></trkpt><trkpt lat="59.9221091811" lon="32.5262146443"><ele>130.90</ele><time>2025-06-27T20:20:57Z</time></trkpt><trkpt lat="59.9221205804" lon="32.5261834636"><ele>130.90</ele><time>2025-06-27T20:20:56Z</time></trkpt><trkpt lat="59.9221268669" lon="32.5261663646"><ele>130.91</ele><time>2025-06-27T20:20:57Z</time></trkpt><trkpt lat="59.9221201614" lon="32.5261846371"><ele>130.91</ele><time>2025-06-27T20:20:56Z</time></trkpt><trkpt lat="59.9221268669" lon="32.5261663646"><ele>130.90</ele><time>2025-06-27T20:20:57Z</time></trkpt><trkpt lat="59.9221201614" lon="32.5261846371"><ele>130.91</ele><time>2025-06-27T20:20:56Z</time></trkpt><trkpt lat="59.9221012183" lon="32.5262363534"><ele>130.90</ele><time>2025-06-27T20:20:57Z</time></trkpt><trkpt lat="59.9221068341" lon="32.5262210984"><ele>128.64</ele><time>2025-06-27T20:20:56Z</time></trkpt><trkpt lat="59.9220990390" lon="32.5262423046"><ele>128.65</ele><time>2025-06-27T20:20:57Z</time></trkpt><trkpt lat="59.9221422058" lon="32.5260786898"><ele>128.66</ele><time>2025-06-27T20:20:56Z</time></trkpt><trkpt lat="59.9221268669" lon="32.5261663646"><ele>128.64</ele><time>2025-06-27T20:20:57Z</time></trkpt><trkpt lat="59.9221204128" lon="32.5261840504"><ele>128.64</ele><time>2025-06-27T20:20:56Z</time></trkpt><trkpt lat="59.9221268669" lon="32.5261663646"><ele>128.65</ele><time>2025-06-27T20:20:57Z</time></trkpt><trkpt lat="59.9221205804" lon="32.5261834636"><ele>128.64</ele><time>2025-06-27T20:20:56Z</time></trkpt><trkpt lat="59.9220846221" lon="32.5262673665"><ele>128.65</ele><time>2025-06-27T20:20:57Z</time></trkpt><trkpt lat="59.9221204128" lon="32.5261840504"><ele>127.82</ele><time>2025-06-27T20:20:56Z</time></trkpt><trkpt lat="59.9221074209" lon="32.5262193382"><ele>127.81</ele><time>2025-06-27T20:20:57Z</time></trkpt><trkpt lat="59.9221018050" lon="32.5262122136"><ele>127.82</ele><time>2025-06-27T20:20:56Z</time></trkpt><trkpt lat="59.9221268669" lon="32.5261663646"><ele>127.83</ele><time>2025-06-27T20:20:57Z</time></trkpt><trkpt lat="59.9221149646" lon="32.5261987187"><ele>127.82</ele><time>2025-06-27T20:20:56Z</time></trkpt><trkpt lat="59.9221268669" lon="32.5261663646"><ele>127.82</ele><time>2025-06-27T20:20:57Z</time></trkpt><trkpt lat="59.9221194070" lon="32.5261811167"><ele>127.83</ele><time>2025-06-27T20:20:56Z</time></trkpt><trkpt lat="59.9221079238" lon="32.5262181647"><ele>127.83</ele><time>2025-06-27T20:20:57Z</time></trkpt><trkpt lat="59.9221180659" lon="32.5261905044"><ele>127.82</ele><time>2025-06-27T20:20:56Z</time></trkpt><trkpt lat="59.9221047387" lon="32.5262236129"><ele>127.87</ele><time>2025-06-27T20:20:57Z</time></trkpt><trkpt lat="59.9221149646" lon="32.5261987187"><ele>130.14</ele><time>2025-06-27T20:20:56Z</time></trkpt><trkpt lat="59.9221076723" lon="32.5262187514"><ele>130.91</ele><time>2025-06-27T20:20:57Z</time></trkpt><trkpt lat="59.9221124500" lon="32.5262057595"><ele>130.95</ele><time>2025-06-27T20:20:56Z</time></trkpt><trkpt lat="59.9221378472" lon="32.5260763429"><ele>130.95</ele><time>2025-06-27T20:20:57Z</time></trkpt><trkpt lat="59.9221064150" lon="32.5262222718"><ele>130.95</ele><time>2025-06-27T20:20:56Z</time></trkpt><trkpt lat="59.9220908247" lon="32.5262646005"><ele>130.95</ele><time>2025-06-27T20:20:57Z</time></trkpt><trkpt lat="59.9221169762" lon="32.5261934381"><ele>128.62</ele><time>2025-06-27T20:20:56Z</time></trkpt><trkpt lat="59.9220898189" lon="32.5262675341"><ele>128.65</ele><time>2025-06-27T20:20:57Z</time></trkpt><trkpt lat="59.9221083429" lon="32.5262169912"><ele>130.87</ele><time>2025-06-27T20:20:56Z</time></trkpt><trkpt lat="59.9221070018" lon="32.5262205116"><ele>131.63</ele><time>2025-06-27T20:20:57Z</time></trkpt><trkpt lat="59.9221227597" lon="32.5261775963"><ele>131.62</ele><time>2025-06-27T20:20:56Z</time></trkpt><trkpt lat="59.9221268669" lon="32.5261663646"><ele>131.64</ele><time>2025-06-27T20:20:57Z</time></trkpt><trkpt lat="59.9220962729" lon="32.5262286421"><ele>129.37</ele><time>2025-06-27T20:20:56Z</time></trkpt><trkpt lat="59.9221268669" lon="32.5261663646"><ele>129.36</ele><time>2025-06-27T20:20:57Z</time></trkpt><trkpt lat="59.9221175630" lon="32.5261916779"><ele>127.04</ele><time>2025-06-27T20:20:56Z</time></trkpt><trkpt lat="59.9220968597" lon="32.5262481719"><ele>127.01</ele><time>2025-06-27T20:20:57Z</time></trkpt><trkpt lat="59.9221031461" lon="32.5262341741"><ele>127.03</ele><time>2025-06-27T20:20:56Z</time></trkpt><trkpt lat="59.9221064150" lon="32.5262222718"><ele>127.03</ele><time>2025-06-27T20:20:57Z</time></trkpt><trkpt lat="59.9220982008" lon="32.5262476690"><ele>127.02</ele><time>2025-06-27T20:20:56Z</time></trkpt><trkpt lat="59.9220913276" lon="32.5262634270"><ele>127.02</ele><time>2025-06-27T20:20:57Z</time></trkpt><trkpt lat="59.9221149646" lon="32.5261987187"><ele>127.03</ele><time>2025-06-27T20:20:56Z</time></trkpt><trkpt lat="59.9221268669" lon="32.5261663646"><ele>127.02</ele><time>2025-06-27T20:20:57Z</time></trkpt><trkpt lat="59.9221167248" lon="32.5261940248"><ele>127.02</ele><time>2025-06-27T20:20:56Z</time></trkpt><trkpt lat="59.9221240170" lon="32.5261694659"><ele>126.23</ele><time>2025-06-27T20:20:57Z</time></trkpt><trkpt lat="59.9221204128" lon="32.5261840504"><ele>126.23</ele><time>2025-06-27T20:20:56Z</time></trkpt><trkpt lat="59.9220780004" lon="32.5263025705"><ele>126.22</ele><time>2025-06-27T20:20:57Z</time></trkpt><trkpt lat="59.9221592210" lon="32.5260181725"><ele>128.50</ele><time>2025-06-27T20:20:56Z</time></trkpt><trkpt lat="59.9221268669" lon="32.5261663646"><ele>128.50</ele><time>2025-06-27T20:20:57Z</time></trkpt><trkpt lat="59.9221128691" lon="32.5262045860"><ele>128.49</ele><time>2025-06-27T20:20:56Z</time></trkpt><trkpt lat="59.9221659265" lon="32.5259999838"><ele>128.49</ele><time>2025-06-27T20:20:57Z</time></trkpt><trkpt lat="59.9220949318" lon="32.5262310728"><ele>128.50</ele><time>2025-06-27T20:20:56Z</time></trkpt><trkpt lat="59.9220893160" lon="32.5262463279"><ele>128.50</ele><time>2025-06-27T20:20:57Z</time></trkpt><trkpt lat="59.9221268669" lon="32.5261663646"><ele>128.50</ele><time>2025-06-27T20:20:56Z</time></trkpt><trkpt lat="59.9221268669" lon="32.5261663646"><ele>128.50</ele><time>2025-06-27T20:20:57Z</time></trkpt><trkpt lat="59.9220942613" lon="32.5262328330"><ele>128.48</ele><time>2025-06-27T20:20:56Z</time></trkpt><trkpt lat="59.9221268669" lon="32.5261663646"><ele>128.50</ele><time>2025-06-27T20:20:57Z</time></trkpt><trkpt lat="59.9221139587" lon="32.5262016524"><ele>128.50</ele><time>2025-06-27T20:20:56Z</time></trkpt><trkpt lat="59.9221268669" lon="32.5261663646"><ele>128.49</ele><time>2025-06-27T20:20:57Z</time></trkpt><trkpt lat="59.9221204128" lon="32.5261840504"><ele>128.52</ele><time>2025-06-27T20:20:56Z</time></trkpt><trkpt lat="59.9220940936" lon="32.5262557995"><ele>128.47</ele><time>2025-06-27T20:20:57Z</time></trkpt><trkpt lat="59.9221165571" lon="32.5261946116"><ele>128.47</ele><time>2025-06-27T20:20:56Z</time></trkpt><trkpt lat="59.9221268669" lon="32.5261663646"><ele>126.22</ele><time>2025-06-27T20:20:57Z</time></trkpt><trkpt lat="59.9221201614" lon="32.5261846371"><ele>125.44</ele><time>2025-06-27T20:20:56Z</time></trkpt><trkpt lat="59.9221268669" lon="32.5261663646"><ele>125.44</ele><time>2025-06-27T20:20:57Z</time></trkpt><trkpt lat="59.9221126176" lon="32.5262051728"><ele>125.45</ele><time>2025-06-27T20:20:56Z</time></trkpt><trkpt lat="59.9221268669" lon="32.5261663646"><ele>125.44</ele><time>2025-06-27T20:20:57Z</time></trkpt><trkpt lat="59.9221101031" lon="32.5261979643"><ele>125.45</ele><time>2025-06-27T20:20:56Z</time></trkpt><trkpt lat="59.9221268669" lon="32.5261663646"><ele>125.44</ele><time>2025-06-27T20:20:57Z</time></trkpt><trkpt lat="59.9221208319" lon="32.5261828769"><ele>125.46</ele><time>2025-06-27T20:20:56Z</time></trkpt><trkpt lat="59.9221268669" lon="32.5261663646"><ele>125.44</ele><time>2025-06-27T20:20:57Z</time></trkpt><trkpt lat="59.9221167248" lon="32.5261940248"><ele>125.45</ele><time>2025-06-27T20:20:56Z</time></trkpt><trkpt lat="59.9221268669" lon="32.5261663646"><ele>125.44</ele><time>2025-06-27T20:20:57Z</time></trkpt><trkpt lat="59.9221225921" lon="32.5261781830"><ele>125.45</ele><time>2025-06-27T20:20:56Z</time></trkpt><trkpt lat="59.9221268669" lon="32.5261663646"><ele>125.44</ele><time>2025-06-27T20:20:57Z</time></trkpt><trkpt lat="59.9221204128" lon="32.5261840504"><ele>125.44</ele><time>2025-06-27T20:20:56Z</time></trkpt><trkpt lat="59.9221268669" lon="32.5261663646"><ele>125.44</ele><time>2025-06-27T20:20:57Z</time></trkpt><trkpt lat="59.9221205804" lon="32.5261834636"><ele>125.43</ele><time>2025-06-27T20:20:56Z</time></trkpt><trkpt lat="59.9220988713" lon="32.5262428913"><ele>125.42</ele><time>2025-06-27T20:20:57Z</time></trkpt><trkpt lat="59.9221074209" lon="32.5262193382"><ele>125.46</ele><time>2025-06-27T20:20:56Z</time></trkpt><trkpt lat="59.9221189041" lon="32.5261739083"><ele>125.44</ele><time>2025-06-27T20:20:57Z</time></trkpt><trkpt lat="59.9220693670" lon="32.5262467470"><ele>129.25</ele><time>2025-06-27T20:20:56Z</time></trkpt><trkpt lat="59.9220988713" lon="32.5262428913"><ele>129.34</ele><time>2025-06-27T20:20:57Z</time></trkpt><trkpt lat="59.9221205804" lon="32.5261834636"><ele>130.13</ele><time>2025-06-27T20:20:56Z</time></trkpt><trkpt lat="59.9220910762" lon="32.5262640137"><ele>130.13</ele><time>2025-06-27T20:20:57Z</time></trkpt><trkpt lat="59.9221205804" lon="32.5261834636"><ele>127.06</ele><time>2025-06-27T20:20:56Z</time></trkpt><trkpt lat="59.9221268669" lon="32.5261663646"><ele>127.08</ele><time>2025-06-27T20:20:57Z</time></trkpt><trkpt lat="59.9221227597" lon="32.5261775963"><ele>127.08</ele><time>2025-06-27T20:20:56Z</time></trkpt><trkpt lat="59.9221068341" lon="32.5262210984"><ele>127.07</ele><time>2025-06-27T20:20:57Z</time></trkpt><trkpt lat="59.9221068341" lon="32.5262210984"><ele>127.06</ele><time>2025-06-27T20:20:56Z</time></trkpt><trkpt lat="59.9221268669" lon="32.5261663646"><ele>127.06</ele><time>2025-06-27T20:20:57Z</time></trkpt><trkpt lat="59.9221104383" lon="32.5262111239"><ele>127.07</ele><time>2025-06-27T20:20:56Z</time></trkpt><trkpt lat="59.9220943451" lon="32.5262552127"><ele>127.07</ele><time>2025-06-27T20:20:57Z</time></trkpt><trkpt lat="59.9221205804" lon="32.5261834636"><ele>127.09</ele><time>2025-06-27T20:20:56Z</time></trkpt><trkpt lat="59.9220881425" lon="32.5262681209"><ele>129.34</ele><time>2025-06-27T20:20:57Z</time></trkpt><trkpt lat="59.9221201614" lon="32.5261846371"><ele>130.09</ele><time>2025-06-27T20:20:56Z</time></trkpt><trkpt lat="59.9221149646" lon="32.5261763390"><ele>127.79</ele><time>2025-06-27T20:20:57Z</time></trkpt><trkpt lat="59.9221057445" lon="32.5262240320"><ele>126.90</ele><time>2025-06-27T20:20:56Z</time></trkpt><trkpt lat="59.9220949318" lon="32.5262534525"><ele>126.91</ele><time>2025-06-27T20:20:57Z</time></trkpt><trkpt lat="59.9221050739" lon="32.5262115430"><ele>126.13</ele><time>2025-06-27T20:20:56Z</time></trkpt><trkpt lat="59.9221268669" lon="32.5261663646"><ele>126.14</ele><time>2025-06-27T20:20:57Z</time></trkpt><trkpt lat="59.9221098516" lon="32.5262128841"><ele>126.76</ele><time>2025-06-27T20:20:56Z</time></trkpt><trkpt lat="59.9220949318" lon="32.5262534525"><ele>126.76</ele><time>2025-06-27T20:20:57Z</time></trkpt><trkpt lat="59.9220749829" lon="32.5262319110"><ele>126.76</ele><time>2025-06-27T20:20:56Z</time></trkpt><trkpt lat="59.9220940936" lon="32.5262557995"><ele>124.46</ele><time>2025-06-27T20:20:57Z</time></trkpt><trkpt lat="59.9220698699" lon="32.5262461603"><ele>124.45</ele><time>2025-06-27T20:20:56Z</time></trkpt><trkpt lat="59.9220953509" lon="32.5262522791"><ele>124.47</ele><time>2025-06-27T20:20:57Z</time></trkpt><trkpt lat="59.9221220892" lon="32.5261793565"><ele>124.47</ele><time>2025-06-27T20:20:56Z</time></trkpt><trkpt lat="59.9220994581" lon="32.5262411311"><ele>119.67</ele><time>2025-06-27T20:20:57Z</time></trkpt><trkpt lat="59.9221128691" lon="32.5262045860"><ele>118.15</ele><time>2025-06-27T20:20:56Z</time></trkpt><trkpt lat="59.9221268669" lon="32.5261663646"><ele>122.78</ele><time>2025-06-27T20:20:57Z</time></trkpt><trkpt lat="59.9221220892" lon="32.5261793565"><ele>122.78</ele><time>2025-06-27T20:20:56Z</time></trkpt><trkpt lat="59.9221268669" lon="32.5261663646"><ele>124.76</ele><time>2025-06-27T20:20:57Z</time></trkpt><trkpt lat="59.9221098516" lon="32.5262128841"><ele>130.08</ele><time>2025-06-27T20:20:56Z</time></trkpt><trkpt lat="59.9220883101" lon="32.5262716413"><ele>130.08</ele><time>2025-06-27T20:20:57Z</time></trkpt><trkpt lat="59.9221208319" lon="32.5261828769"><ele>126.44</ele><time>2025-06-27T20:20:56Z</time></trkpt><trkpt lat="59.9220945127" lon="32.5262546260"><ele>126.44</ele><time>2025-06-27T20:20:57Z</time></trkpt><trkpt lat="59.9221098516" lon="32.5262128841"><ele>125.66</ele><time>2025-06-27T20:20:56Z</time></trkpt><trkpt lat="59.9221268669" lon="32.5261663646"><ele>125.66</ele><time>2025-06-27T20:20:57Z</time></trkpt><trkpt lat="59.9221553653" lon="32.5260287337"><ele>125.64</ele><time>2025-06-27T20:20:56Z</time></trkpt><trkpt lat="59.9220990390" lon="32.5262423046"><ele>125.67</ele><time>2025-06-27T20:20:57Z</time></trkpt><trkpt lat="59.9221124500" lon="32.5262057595"><ele>124.71</ele><time>2025-06-27T20:20:56Z</time></trkpt></trkseg><trkseg><trkpt lat="59.8091663886" lon="32.5071673561"><ele>123.64</ele><time>2025-08-18T18:42:30Z</time></trkpt><trkpt lat="59.8105271906" lon="32.5081108231"><ele>120.26</ele><time>2025-08-18T18:42:34Z</time></trkpt><trkpt lat="59.8116534669" lon="32.5086957123"><ele>122.65</ele><time>2025-08-18T18:42:37Z</time></trkpt><trkpt lat="59.8137502838" lon="32.5098280236"><ele>120.25</ele><time>2025-08-18T18:42:43Z</time></trkpt><trkpt lat="59.8162627593" lon="32.5109473430"><ele>121.80</ele><time>2025-08-18T18:42:50Z</time></trkpt><trkpt lat="59.8210152984" lon="32.5123498030"><ele>121.80</ele><time>2025-08-18T18:43:03Z</time></trkpt><trkpt lat="59.8258137703" lon="32.5130429026"><ele>121.90</ele><time>2025-08-18T18:43:16Z</time></trkpt><trkpt lat="59.8269195110" lon="32.5130598340"><ele>119.30</ele><time>2025-08-18T18:43:19Z</time></trkpt><trkpt lat="59.8280211445" lon="32.5130623486"><ele>119.30</ele><time>2025-08-18T18:43:22Z</time></trkpt><trkpt lat="59.7726201173" lon="32.4079798535"><ele>117.82</ele><time>2025-08-18T18:54:50Z</time></trkpt><trkpt lat="59.7726419102" lon="32.4086486455"><ele>138.96</ele><time>2025-08-18T18:54:51Z</time></trkpt><trkpt lat="59.7726881783" lon="32.4114831537"><ele>135.29</ele><time>2025-08-18T18:54:55Z</time></trkpt><trkpt lat="59.7727107257" lon="32.4122015666"><ele>140.15</ele><time>2025-08-18T18:54:56Z</time></trkpt><trkpt lat="59.7732143942" lon="32.4224052764"><ele>139.90</ele><time>2025-08-18T18:55:10Z</time></trkpt><trkpt lat="59.7741692606" lon="32.4316770863"><ele>139.82</ele><time>2025-08-18T18:55:23Z</time></trkpt><trkpt lat="59.7756023984" lon="32.4406821001"><ele>139.66</ele><time>2025-08-18T18:55:36Z</time></trkpt><trkpt lat="59.7774220258" lon="32.4502876773"><ele>140.52</ele><time>2025-08-18T18:55:50Z</time></trkpt><trkpt lat="59.7780271992" lon="32.4529429805"><ele>138.18</ele><time>2025-08-18T18:55:54Z</time></trkpt><trkpt lat="59.7783866990" lon="32.4540832546"><ele>140.60</ele><time>2025-08-18T18:55:56Z</time></trkpt><trkpt lat="59.7802199051" lon="32.4608870130"><ele>140.56</ele><time>2025-08-18T18:56:06Z</time></trkpt><trkpt lat="59.7840922605" lon="32.4734344706"><ele>140.53</ele><time>2025-08-18T18:55:48Z</time></trkpt><trkpt lat="59.7866062447" lon="32.4815296289"><ele>141.48</ele><time>2025-08-18T18:56:01Z</time></trkpt><trkpt lat="59.7866062447" lon="32.4815296289"><ele>141.46</ele><time>2025-08-18T18:56:05Z</time></trkpt><trkpt lat="59.7893532459" lon="32.4833298940"><ele>141.45</ele><time>2025-08-18T18:56:46Z</time></trkpt><trkpt lat="59.7932253499" lon="32.4901149608"><ele>141.37</ele><time>2025-08-18T18:57:00Z</time></trkpt><trkpt lat="59.7971167322" lon="32.4957800377"><ele>141.36</ele><time>2025-08-18T18:57:13Z</time></trkpt><trkpt lat="59.8015558720" lon="32.5009632390"><ele>142.03</ele><time>2025-08-18T18:57:27Z</time></trkpt><trkpt lat="59.8113148380" lon="32.5120408460"><ele>141.93</ele><time>2025-08-18T18:57:57Z</time></trkpt><trkpt lat="59.8125821818" lon="32.5134851318"><ele>139.45</ele><time>2025-08-18T18:58:01Z</time></trkpt><trkpt lat="59.8138817959" lon="32.5149660464"><ele>139.51</ele><time>2025-08-18T18:57:27Z</time></trkpt><trkpt lat="59.8140376154" lon="32.5151436590"><ele>139.51</ele><time>2025-08-18T18:57:29Z</time></trkpt><trkpt lat="59.8140376154" lon="32.5151436590"><ele>141.91</ele><time>2025-08-18T18:57:38Z</time></trkpt><trkpt lat="59.8140376154" lon="32.5151436590"><ele>139.61</ele><time>2025-08-18T18:58:53Z</time></trkpt><trkpt lat="59.8140376154" lon="32.5151436590"><ele>137.49</ele><time>2025-08-18T18:59:14Z</time></trkpt><trkpt lat="59.8140376154" lon="32.5151436590"><ele>137.49</ele><time>2025-08-18T18:59:52Z</time></trkpt><trkpt lat="59.8627377301" lon="32.4738546554"><ele>137.49</ele><time>2025-08-18T19:00:33Z</time></trkpt><trkpt lat="59.8634228669" lon="32.4748039059"><ele>137.48</ele><time>2025-08-18T19:00:37Z</time></trkpt><trkpt lat="59.8634868208" lon="32.4745533708"><ele>137.50</ele><time>2025-08-18T19:00:39Z</time></trkpt><trkpt lat="59.8642502446" lon="32.4783586711"><ele>137.87</ele><time>2025-08-18T19:00:53Z</time></trkpt><trkpt lat="59.8643718660" lon="32.4783206172"><ele>138.02</ele><time>2025-08-18T19:01:03Z</time></trkpt><trkpt lat="59.8647731915" lon="32.4771646690"><ele>138.10</ele><time>2025-08-18T19:01:17Z</time></trkpt><trkpt lat="59.8649898637" lon="32.4763643648"><ele>138.07</ele><time>2025-08-18T19:01:26Z</time></trkpt><trkpt lat="59.8579095025" lon="32.4873500224"><ele>140.76</ele><time>2025-08-18T19:01:39Z</time></trkpt><trkpt lat="59.8612244613" lon="32.4815546907"><ele>142.16</ele><time>2025-08-18T19:01:52Z</time></trkpt><trkpt lat="59.8661666829" lon="32.4789801892"><ele>145.42</ele><time>2025-08-18T19:02:02Z</time></trkpt><trkpt lat="59.8670682404" lon="32.4695934635"><ele>145.80</ele><time>2025-08-18T19:02:14Z</time></trkpt><trkpt lat="59.8685361631" lon="32.4653697386"><ele>149.09</ele><time>2025-08-18T19:02:21Z</time></trkpt><trkpt lat="59.8699010722" lon="32.4612061959"><ele>152.38</ele><time>2025-08-18T19:02:28Z</time></trkpt><trkpt lat="59.8711767141" lon="32.4568442535"><ele>155.67</ele><time>2025-08-18T19:02:35Z</time></trkpt><trkpt lat="59.8726544436" lon="32.4510496762"><ele>158.71</ele><time>2025-08-18T19:02:44Z</time></trkpt><trkpt lat="59.8728021327" lon="32.4503801297"><ele>158.69</ele><time>2025-08-18T19:02:45Z</time></trkpt><trkpt lat="59.8738572467" lon="32.4457204621"><ele>162.04</ele><time>2025-08-18T19:02:52Z</time></trkpt><trkpt lat="59.8749108519" lon="32.4402508512"><ele>165.89</ele><time>2025-08-18T19:03:00Z</time></trkpt><trkpt lat="59.8756719287" lon="32.4352253973"><ele>169.30</ele><time>2025-08-18T19:03:07Z</time></trkpt><trkpt lat="59.8762016650" lon="32.4303526618"><ele>172.74</ele><time>2025-08-18T19:03:14Z</time></trkpt><trkpt lat="59.8754881136" lon="32.4287950527"><ele>176.71</ele><time>2025-08-18T19:03:21Z</time></trkpt><trkpt lat="59.8755510617" lon="32.4281754624"><ele>176.71</ele><time>2025-08-18T19:03:22Z</time></trkpt><trkpt lat="59.8798871879" lon="32.4085522536"><ele>176.66</ele><time>2025-08-18T19:03:33Z</time></trkpt><trkpt lat="59.8801476136" lon="32.3989745043"><ele>175.78</ele><time>2025-08-18T19:03:46Z</time></trkpt><trkpt lat="59.8802265711" lon="32.3996380996"><ele>175.70</ele><time>2025-08-18T19:03:58Z</time></trkpt><trkpt lat="59.8800231423" lon="32.3945604265"><ele>178.56</ele><time>2025-08-18T19:04:05Z</time></trkpt><trkpt lat="59.8798835836" lon="32.3923780303"><ele>175.97</ele><time>2025-08-18T19:04:08Z</time></trkpt><trkpt lat="59.8791431263" lon="32.3837477714"><ele>178.64</ele><time>2025-08-18T19:04:20Z</time></trkpt><trkpt lat="59.8781440035" lon="32.3759443872"><ele>175.75</ele><time>2025-08-18T19:04:31Z</time></trkpt><trkpt lat="59.8780364636" lon="32.3752372898"><ele>175.73</ele><time>2025-08-18T19:04:32Z</time></trkpt><trkpt lat="59.8764737416" lon="32.3662122432"><ele>175.38</ele><time>2025-08-18T19:04:45Z</time></trkpt><trkpt lat="59.8756133392" lon="32.3621538933"><ele>168.66</ele><time>2025-08-18T19:04:51Z</time></trkpt><trkpt lat="59.8754628003" lon="32.3614865262"><ele>172.06</ele><time>2025-08-18T19:04:52Z</time></trkpt><trkpt lat="59.8751561064" lon="32.3601517081"><ele>175.94</ele><time>2025-08-18T19:04:54Z</time></trkpt><trkpt lat="59.8749989457" lon="32.3594850115"><ele>176.02</ele><time>2025-08-18T19:04:55Z</time></trkpt><trkpt lat="59.8741776031" lon="32.3561946116"><ele>180.97</ele><time>2025-08-18T19:05:00Z</time></trkpt><trkpt lat="59.8740063608" lon="32.3555435054"><ele>175.87</ele><time>2025-08-18T19:05:01Z</time></trkpt><trkpt lat="59.8738333583" lon="32.3548955005"><ele>175.77</ele><time>2025-08-18T19:05:02Z</time></trkpt><trkpt lat="59.8731197231" lon="32.3523261957"><ele>179.62</ele><time>2025-08-18T19:05:06Z</time></trkpt><trkpt lat="59.8729359079" lon="32.3516892549"><ele>179.60</ele><time>2025-08-18T19:05:07Z</time></trkpt><trkpt lat="59.8725608177" lon="32.3504329752"><ele>177.05</ele><time>2025-08-18T19:05:09Z</time></trkpt><trkpt lat="59.8721784353" lon="32.3491838202"><ele>175.22</ele><time>2025-08-18T19:05:11Z</time></trkpt><trkpt lat="59.8697002418" lon="32.3419628106"><ele>174.55</ele><time>2025-08-18T19:05:23Z</time></trkpt><trkpt lat="59.8664198164" lon="32.3341035191"><ele>173.40</ele><time>2025-08-18T19:05:37Z</time></trkpt><trkpt lat="59.8654127307" lon="32.3319656309"><ele>176.63</ele><time>2025-08-18T19:05:41Z</time></trkpt><trkpt lat="59.8651571665" lon="32.3314413428"><ele>176.56</ele><time>2025-08-18T19:05:42Z</time></trkpt><trkpt lat="59.8633137345" lon="32.3278465960"><ele>173.83</ele><time>2025-08-18T19:05:49Z</time></trkpt><trkpt lat="59.8596918304" lon="32.3216885794"><ele>173.38</ele><time>2025-08-18T19:06:02Z</time></trkpt><trkpt lat="59.8567395564" lon="32.3173873220"><ele>175.70</ele><time>2025-08-18T19:06:12Z</time></trkpt><trkpt lat="59.8561044596" lon="32.3165291827"><ele>170.81</ele><time>2025-08-18T19:06:14Z</time></trkpt><trkpt lat="59.8557892162" lon="32.3161248397"><ele>164.40</ele><time>2025-08-18T19:06:15Z</time></trkpt><trkpt lat="59.8554823548" lon="32.3157265317"><ele>176.85</ele><time>2025-08-18T19:06:16Z</time></trkpt><trkpt lat="59.8551666923" lon="32.3153252900"><ele>176.79</ele><time>2025-08-18T19:06:17Z</time></trkpt><trkpt lat="59.8547801189" lon="32.3148382176"><ele>173.65</ele><time>2025-08-18T19:06:18Z</time></trkpt><trkpt lat="59.8545404803" lon="32.3145389836"><ele>173.40</ele><time>2025-08-18T19:06:19Z</time></trkpt><trkpt lat="59.8523274902" lon="32.3119309545"><ele>175.43</ele><time>2025-08-18T19:06:26Z</time></trkpt><trkpt lat="59.8499270808" lon="32.3097034637"><ele>172.03</ele><time>2025-08-18T19:06:33Z</time></trkpt><trkpt lat="59.8496074788" lon="32.3093747254"><ele>172.12</ele><time>2025-08-18T19:06:34Z</time></trkpt><trkpt lat="59.8482275661" lon="32.3082885146"><ele>174.76</ele><time>2025-08-18T19:06:38Z</time></trkpt><trkpt lat="59.8431872763" lon="32.3043055180"><ele>174.70</ele><time>2025-08-18T19:06:53Z</time></trkpt><trkpt lat="59.8382182326" lon="32.3015994206"><ele>174.54</ele><time>2025-08-18T19:07:07Z</time></trkpt><trkpt lat="59.8335179128" lon="32.2999090422"><ele>174.15</ele><time>2025-08-18T19:07:20Z</time></trkpt><trkpt lat="59.8298505787" lon="32.2992312815"><ele>171.53</ele><time>2025-08-18T19:07:30Z</time></trkpt><trkpt lat="59.8254163843" lon="32.2991001047"><ele>171.23</ele><time>2025-08-18T19:07:42Z</time></trkpt><trkpt lat="59.8239420075" lon="32.2992058843"><ele>174.11</ele><time>2025-08-18T19:07:46Z</time></trkpt><trkpt lat="59.8188319802" lon="32.3001019936"><ele>173.73</ele><time>2025-08-18T19:08:00Z</time></trkpt><trkpt lat="59.8152137641" lon="32.3014032841"><ele>173.64</ele><time>2025-08-18T19:08:10Z</time></trkpt><trkpt lat="59.8112837411" lon="32.3034084029"><ele>173.41</ele><time>2025-08-18T19:08:21Z</time></trkpt><trkpt lat="59.8074491043" lon="32.3059465270"><ele>170.78</ele><time>2025-08-18T19:08:32Z</time></trkpt><trkpt lat="59.8034220189" lon="32.3093762342"><ele>170.41</ele><time>2025-08-18T19:08:44Z</time></trkpt><trkpt lat="59.8011255451" lon="32.3115862068"><ele>172.10</ele><time>2025-08-18T19:08:51Z</time></trkpt><trkpt lat="59.7973258607" lon="32.3160235863"><ele>171.86</ele><time>2025-08-18T19:09:03Z</time></trkpt><trkpt lat="59.7934124339" lon="32.3215838894"><ele>171.55</ele><time>2025-08-18T19:09:16Z</time></trkpt><trkpt lat="59.7897588462" lon="32.3277168442"><ele>171.32</ele><time>2025-08-18T19:09:29Z</time></trkpt><trkpt lat="59.7861610819" lon="32.3350233492"><ele>171.13</ele><time>2025-08-18T19:09:43Z</time></trkpt><trkpt lat="59.7831712570" lon="32.3422218952"><ele>170.92</ele><time>2025-08-18T19:09:56Z</time></trkpt><trkpt lat="59.7808974143" lon="32.3487651441"><ele>170.79</ele><time>2025-08-18T19:10:07Z</time></trkpt><trkpt lat="59.7785132658" lon="32.3571053892"><ele>170.54</ele><time>2025-08-18T19:10:20Z</time></trkpt><trkpt lat="59.7765315324" lon="32.3658259213"><ele>170.37</ele><time>2025-08-18T19:10:33Z</time></trkpt><trkpt lat="59.7751548048" lon="32.3735384457"><ele>170.21</ele><time>2025-08-18T19:10:44Z</time></trkpt><trkpt lat="59.7747287527" lon="32.3763382528"><ele>170.19</ele><time>2025-08-18T19:10:48Z</time></trkpt><trkpt lat="59.7736770753" lon="32.3847370874"><ele>170.01</ele><time>2025-08-18T19:11:00Z</time></trkpt><trkpt lat="59.7728396393" lon="32.3948454112"><ele>169.82</ele><time>2025-08-18T19:11:14Z</time></trkpt><trkpt lat="59.7726109810" lon="32.4027257413"><ele>169.70</ele><time>2025-08-18T19:11:25Z</time></trkpt><trkpt lat="59.7727431636" lon="32.4107437860"><ele>169.60</ele><time>2025-08-18T19:11:36Z</time></trkpt><trkpt lat="59.7724402416" lon="32.4212462269"><ele>169.57</ele><time>2025-08-18T19:11:50Z</time></trkpt><trkpt lat="59.7739215754" lon="32.4289947934"><ele>169.42</ele><time>2025-08-18T19:12:01Z</time></trkpt><trkpt lat="59.7752148192" lon="32.4378529564"><ele>170.18</ele><time>2025-08-18T19:12:14Z</time></trkpt><trkpt lat="59.7768392321" lon="32.4467666913"><ele>170.89</ele><time>2025-08-18T19:12:27Z</time></trkpt><trkpt lat="59.7782395128" lon="32.4543000106"><ele>170.82</ele><time>2025-08-18T19:12:38Z</time></trkpt><trkpt lat="59.7805087455" lon="32.4612020887"><ele>170.72</ele><time>2025-08-18T19:12:49Z</time></trkpt><trkpt lat="59.7829119209" lon="32.4686769024"><ele>170.58</ele><time>2025-08-18T19:13:01Z</time></trkpt><trkpt lat="59.7858590819" lon="32.4761139974"><ele>170.30</ele><time>2025-08-18T19:13:14Z</time></trkpt><trkpt lat="59.7886385210" lon="32.4819678348"><ele>170.06</ele><time>2025-08-18T19:13:25Z</time></trkpt><trkpt lat="59.7924618423" lon="32.4888055399"><ele>169.79</ele><time>2025-08-18T19:13:39Z</time></trkpt><trkpt lat="59.7959954850" lon="32.4940720573"><ele>169.56</ele><time>2025-08-18T19:13:51Z</time></trkpt><trkpt lat="59.8000462074" lon="32.4990542606"><ele>169.28</ele><time>2025-08-18T19:14:04Z</time></trkpt><trkpt lat="59.8042987660" lon="32.5034061447"><ele>169.12</ele><time>2025-08-18T19:14:17Z</time></trkpt><trkpt lat="59.8084050603" lon="32.5066957902"><ele>169.78</ele><time>2025-08-18T19:14:29Z</time></trkpt><trkpt lat="59.8105002847" lon="32.5081021897"><ele>166.63</ele><time>2025-08-18T19:14:35Z</time></trkpt><trkpt lat="59.8108519055" lon="32.5083218794"><ele>166.61</ele><time>2025-08-18T19:14:36Z</time></trkpt><trkpt lat="59.8136906885" lon="32.5098695140"><ele>168.77</ele><time>2025-08-18T19:14:44Z</time></trkpt><trkpt lat="59.8172957450" lon="32.5113712158"><ele>170.19</ele><time>2025-08-18T19:14:54Z</time></trkpt><trkpt lat="59.8180214502" lon="32.5116195716"><ele>166.00</ele><time>2025-08-18T19:14:56Z</time></trkpt><trkpt lat="59.8183836322" lon="32.5117321406"><ele>165.92</ele><time>2025-08-18T19:14:57Z</time></trkpt><trkpt lat="59.8194733635" lon="32.5120412651"><ele>168.70</ele><time>2025-08-18T19:15:00Z</time></trkpt><trkpt lat="59.8201996554" lon="32.5122208893"><ele>166.33</ele><time>2025-08-18T19:15:02Z</time></trkpt><trkpt lat="59.8234980181" lon="32.5127880089"><ele>168.46</ele><time>2025-08-18T19:15:11Z</time></trkpt><trkpt lat="59.8286535591" lon="32.5128864124"><ele>168.94</ele><time>2025-08-18T19:15:25Z</time></trkpt><trkpt lat="59.8301229905" lon="32.5127393100"><ele>165.84</ele><time>2025-08-18T19:15:29Z</time></trkpt><trkpt lat="59.8304903693" lon="32.5126916170"><ele>165.81</ele><time>2025-08-18T19:15:30Z</time></trkpt><trkpt lat="59.8312247917" lon="32.5125787966"><ele>154.91</ele><time>2025-08-18T19:15:32Z</time></trkpt><trkpt lat="59.8315912485" lon="32.5125149265"><ele>169.32</ele><time>2025-08-18T19:15:33Z</time></trkpt><trkpt lat="59.8334202636" lon="32.5121175405"><ele>162.46</ele><time>2025-08-18T19:15:38Z</time></trkpt><trkpt lat="59.8337859660" lon="32.5120205618"><ele>165.51</ele><time>2025-08-18T19:15:39Z</time></trkpt><trkpt lat="59.8348815646" lon="32.5116979424"><ele>167.67</ele><time>2025-08-18T19:15:42Z</time></trkpt><trkpt lat="59.8359704576" lon="32.5113410410"><ele>165.24</ele><time>2025-08-18T19:15:45Z</time></trkpt><trkpt lat="59.8410071433" lon="32.5090719759"><ele>165.24</ele><time>2025-08-18T19:15:59Z</time></trkpt><trkpt lat="59.8459005821" lon="32.5058531575"><ele>159.54</ele><time>2025-08-18T19:16:13Z</time></trkpt><trkpt lat="59.8469245993" lon="32.5050391909"><ele>165.31</ele><time>2025-08-18T19:16:16Z</time></trkpt><trkpt lat="59.8472646531" lon="32.5047645159"><ele>165.31</ele><time>2025-08-18T19:16:17Z</time></trkpt><trkpt lat="59.8499542382" lon="32.5023807865"><ele>162.81</ele><time>2025-08-18T19:16:25Z</time></trkpt><trkpt lat="59.8532194924" lon="32.4989829306"><ele>168.39</ele><time>2025-08-18T19:16:35Z</time></trkpt><trkpt lat="59.8535367474" lon="32.4986189883"><ele>168.34</ele><time>2025-08-18T19:16:36Z</time></trkpt><trkpt lat="59.8538540863" lon="32.4982504360"><ele>164.68</ele><time>2025-08-18T19:16:37Z</time></trkpt><trkpt lat="59.8547935300" lon="32.4971179571"><ele>162.13</ele><time>2025-08-18T19:16:40Z</time></trkpt><trkpt lat="59.8554169759" lon="32.4963431340"><ele>164.81</ele><time>2025-08-18T19:16:42Z</time></trkpt><trkpt lat="59.8566476908" lon="32.4947468843"><ele>161.35</ele><time>2025-08-18T19:16:46Z</time></trkpt><trkpt lat="59.8569531273" lon="32.4943331536"><ele>161.40</ele><time>2025-08-18T19:16:47Z</time></trkpt><trkpt lat="59.8607720900" lon="32.4885984231"><ele>162.76</ele><time>2025-08-18T19:17:00Z</time></trkpt><trkpt lat="59.8624505661" lon="32.4857423734"><ele>160.65</ele><time>2025-08-18T19:17:06Z</time></trkpt><trkpt lat="59.8640567902" lon="32.4827424902"><ele>162.76</ele><time>2025-08-18T19:17:12Z</time></trkpt><trkpt lat="59.8645808268" lon="32.4817116838"><ele>164.12</ele><time>2025-08-18T19:17:14Z</time></trkpt><trkpt lat="59.8666113429" lon="32.4774464685"><ele>161.05</ele><time>2025-08-18T19:17:22Z</time></trkpt><trkpt lat="59.8668546695" lon="32.4768975377"><ele>161.08</ele><time>2025-08-18T19:17:23Z</time></trkpt><trkpt lat="59.8698645271" lon="32.4695342872"><ele>160.81</ele><time>2025-08-18T19:17:36Z</time></trkpt><trkpt lat="59.8727530986" lon="32.4609260727"><ele>160.54</ele><time>2025-08-18T19:17:50Z</time></trkpt><trkpt lat="59.8748067487" lon="32.4532321561"><ele>158.46</ele><time>2025-08-18T19:18:02Z</time></trkpt><trkpt lat="59.8754262552" lon="32.4505678006"><ele>164.20</ele><time>2025-08-18T19:18:06Z</time></trkpt><trkpt lat="59.8755819909" lon="32.4498964939"><ele>164.24</ele><time>2025-08-18T19:18:07Z</time></trkpt><trkpt lat="59.8758844938" lon="32.4485568143"><ele>158.29</ele><time>2025-08-18T19:18:09Z</time></trkpt><trkpt lat="59.8760392237" lon="32.4478821550"><ele>160.71</ele><time>2025-08-18T19:18:10Z</time></trkpt><trkpt lat="59.8766096961" lon="32.4451756384"><ele>162.11</ele><time>2025-08-18T19:18:14Z</time></trkpt><trkpt lat="59.8772606347" lon="32.4417546485"><ele>163.88</ele><time>2025-08-18T19:18:19Z</time></trkpt><trkpt lat="59.8773830943" lon="32.4410647340"><ele>159.79</ele><time>2025-08-18T19:18:20Z</time></trkpt><trkpt lat="59.8775026202" lon="32.4403717183"><ele>159.74</ele><time>2025-08-18T19:18:21Z</time></trkpt><trkpt lat="59.8778467812" lon="32.4382825289"><ele>163.76</ele><time>2025-08-18T19:18:24Z</time></trkpt><trkpt lat="59.8779565841" lon="32.4375800416"><ele>163.69</ele><time>2025-08-18T19:18:25Z</time></trkpt><trkpt lat="59.8783777747" lon="32.4347741995"><ele>160.91</ele><time>2025-08-18T19:18:29Z</time></trkpt><trkpt lat="59.8794758879" lon="32.4253945146"><ele>160.74</ele><time>2025-08-18T19:18:42Z</time></trkpt><trkpt lat="59.8797581904" lon="32.4225451704"><ele>158.45</ele><time>2025-08-18T19:18:46Z</time></trkpt><trkpt lat="59.8799176142" lon="32.4203799572"><ele>161.70</ele><time>2025-08-18T19:18:49Z</time></trkpt><trkpt lat="59.8799575958" lon="32.4196269270"><ele>161.69</ele><time>2025-08-18T19:18:50Z</time></trkpt><trkpt lat="59.8803760204" lon="32.4094552360"><ele>161.45</ele><time>2025-08-18T19:19:04Z</time></trkpt><trkpt lat="59.8803994060" lon="32.4051123206"><ele>157.90</ele><time>2025-08-18T19:19:10Z</time></trkpt><trkpt lat="59.8803352006" lon="32.4007235561"><ele>161.30</ele><time>2025-08-18T19:19:16Z</time></trkpt><trkpt lat="59.8801482841" lon="32.3956160434"><ele>158.71</ele><time>2025-08-18T19:19:23Z</time></trkpt><trkpt lat="59.8799819872" lon="32.3926760908"><ele>161.77</ele><time>2025-08-18T19:19:27Z</time></trkpt><trkpt lat="59.8799360543" lon="32.3919464462"><ele>161.75</ele><time>2025-08-18T19:19:28Z</time></trkpt><trkpt lat="59.8797880299" lon="32.3897715937"><ele>157.83</ele><time>2025-08-18T19:19:31Z</time></trkpt><trkpt lat="59.8797327094" lon="32.3890453018"><ele>157.87</ele><time>2025-08-18T19:19:32Z</time></trkpt><trkpt lat="59.8792743869" lon="32.3840399645"><ele>160.84</ele><time>2025-08-18T19:19:39Z</time></trkpt><trkpt lat="59.8791196570" lon="32.3826225847"><ele>158.57</ele><time>2025-08-18T19:19:41Z</time></trkpt><trkpt lat="59.8778651375" lon="32.3734273016"><ele>158.30</ele><time>2025-08-18T19:19:54Z</time></trkpt><trkpt lat="59.8767515179" lon="32.3672181554"><ele>160.75</ele><time>2025-08-18T19:20:03Z</time></trkpt><trkpt lat="59.8757663928" lon="32.3624550551"><ele>155.06</ele><time>2025-08-18T19:20:10Z</time></trkpt><trkpt lat="59.8756140098" lon="32.3617873527"><ele>155.04</ele><time>2025-08-18T19:20:11Z</time></trkpt><trkpt lat="59.8751455452" lon="32.3597963154"><ele>158.44</ele><time>2025-08-18T19:20:14Z</time></trkpt><trkpt lat="59.8749840260" lon="32.3591377493"><ele>158.39</ele><time>2025-08-18T19:20:15Z</time></trkpt><trkpt lat="59.8748231772" lon="32.3584748246"><ele>161.88</ele><time>2025-08-18T19:20:16Z</time></trkpt><trkpt lat="59.8746604845" lon="32.3578137439"><ele>161.83</ele><time>2025-08-18T19:20:17Z</time></trkpt><trkpt lat="59.8745071795" lon="32.3570421897"><ele>156.99</ele><time>2025-08-18T19:20:18Z</time></trkpt><trkpt lat="59.8743509408" lon="32.3564798478"><ele>156.95</ele><time>2025-08-18T19:20:19Z</time></trkpt><trkpt lat="59.8732420150" lon="32.3527579475"><ele>159.65</ele><time>2025-08-18T19:20:25Z</time></trkpt><trkpt lat="59.8728691880" lon="32.3515066970"><ele>157.19</ele><time>2025-08-18T19:20:27Z</time></trkpt><trkpt lat="59.8725011386" lon="32.3502385151"><ele>159.75</ele><time>2025-08-18T19:20:29Z</time></trkpt><trkpt lat="59.8717265669" lon="32.3477190826"><ele>156.52</ele><time>2025-08-18T19:20:33Z</time></trkpt><trkpt lat="59.8715260718" lon="32.3471014202"><ele>156.64</ele><time>2025-08-18T19:20:34Z</time></trkpt><trkpt lat="59.8711187951" lon="32.3458805960"><ele>161.33</ele><time>2025-08-18T19:20:36Z</time></trkpt><trkpt lat="59.8709069844" lon="32.3452677950"><ele>161.30</ele><time>2025-08-18T19:20:37Z</time></trkpt><trkpt lat="59.8696159199" lon="32.3416929133"><ele>159.12</ele><time>2025-08-18T19:20:43Z</time></trkpt><trkpt lat="59.8691679072" lon="32.3405331094"><ele>155.76</ele><time>2025-08-18T19:20:45Z</time></trkpt><trkpt lat="59.8689396679" lon="32.3399580270"><ele>155.78</ele><time>2025-08-18T19:20:46Z</time></trkpt><trkpt lat="59.8682464007" lon="32.3382537346"><ele>158.09</ele><time>2025-08-18T19:20:49Z</time></trkpt><trkpt lat="59.8647932243" lon="32.3306461517"><ele>158.80</ele><time>2025-08-18T19:21:03Z</time></trkpt><trkpt lat="59.8610022571" lon="32.3237055168"><ele>155.90</ele><time>2025-08-18T19:21:17Z</time></trkpt><trkpt lat="59.8607151769" lon="32.3232429195"><ele>155.96</ele><time>2025-08-18T19:21:18Z</time></trkpt><trkpt lat="59.8601422738" lon="32.3223230895"><ele>154.57</ele><time>2025-08-18T19:21:20Z</time></trkpt><trkpt lat="59.8598518409" lon="32.3218719754"><ele>158.67</ele><time>2025-08-18T19:21:21Z</time></trkpt><trkpt lat="59.8595601507" lon="32.3214220349"><ele>158.58</ele><time>2025-08-18T19:21:22Z</time></trkpt><trkpt lat="59.8571760021" lon="32.3179499991"><ele>153.73</ele><time>2025-08-18T19:21:30Z</time></trkpt><trkpt lat="59.8568725772" lon="32.3175346758"><ele>159.28</ele><time>2025-08-18T19:21:31Z</time></trkpt><trkpt lat="59.8565632012" lon="32.3171316739"><ele>159.32</ele><time>2025-08-18T19:21:32Z</time></trkpt><trkpt lat="59.8562555853" lon="32.3167274147"><ele>154.51</ele><time>2025-08-18T19:21:33Z</time></trkpt><trkpt lat="59.8559490591" lon="32.3163228203"><ele>154.57</ele><time>2025-08-18T19:21:34Z</time></trkpt><trkpt lat="59.8556413595" lon="32.3159225006"><ele>157.88</ele><time>2025-08-18T19:21:35Z</time></trkpt><trkpt lat="59.8547110520" lon="32.3147632834"><ele>154.35</ele><time>2025-08-18T19:21:38Z</time></trkpt><trkpt lat="59.8543968145" lon="32.3143815715"><ele>154.34</ele><time>2025-08-18T19:21:39Z</time></trkpt><trkpt lat="59.8537663277" lon="32.3136327323"><ele>158.28</ele><time>2025-08-18T19:21:41Z</time></trkpt><trkpt lat="59.8534492403" lon="32.3132636771"><ele>158.07</ele><time>2025-08-18T19:21:42Z</time></trkpt><trkpt lat="59.8528097849" lon="32.3125336971"><ele>155.82</ele><time>2025-08-18T19:21:44Z</time></trkpt><trkpt lat="59.8498810641" lon="32.3095048126"><ele>158.63</ele><time>2025-08-18T19:21:53Z</time></trkpt><trkpt lat="59.8492150381" lon="32.3088600766"><ele>154.33</ele><time>2025-08-18T19:21:55Z</time></trkpt><trkpt lat="59.8485413846" lon="32.3082429171"><ele>152.00</ele><time>2025-08-18T19:21:57Z</time></trkpt><trkpt lat="59.8482046835" lon="32.3079424258"><ele>155.81</ele><time>2025-08-18T19:21:58Z</time></trkpt><trkpt lat="59.8478650488" lon="32.3076467961"><ele>155.69</ele><time>2025-08-18T19:21:59Z</time></trkpt><trkpt lat="59.8465005588" lon="32.3065073602"><ele>156.95</ele><time>2025-08-18T19:22:03Z</time></trkpt><trkpt lat="59.8440926895" lon="32.3047092743"><ele>154.59</ele><time>2025-08-18T19:22:10Z</time></trkpt><trkpt lat="59.8395124823" lon="32.3020298313"><ele>154.51</ele><time>2025-08-18T19:22:23Z</time></trkpt><trkpt lat="59.8348216340" lon="32.3000962939"><ele>152.95</ele><time>2025-08-18T19:22:36Z</time></trkpt><trkpt lat="59.8340941686" lon="32.2998895124"><ele>155.28</ele><time>2025-08-18T19:22:38Z</time></trkpt><trkpt lat="59.8333641049" lon="32.2996944655"><ele>157.29</ele><time>2025-08-18T19:22:40Z</time></trkpt><trkpt lat="59.8326308560" lon="32.2995238937"><ele>153.88</ele><time>2025-08-18T19:22:42Z</time></trkpt><trkpt lat="59.8322649021" lon="32.2994440142"><ele>153.87</ele><time>2025-08-18T19:22:43Z</time></trkpt><trkpt lat="59.8271175753" lon="32.2988033853"><ele>153.80</ele><time>2025-08-18T19:22:57Z</time></trkpt><trkpt lat="59.8223189358" lon="32.2991699260"><ele>153.78</ele><time>2025-08-18T19:23:10Z</time></trkpt><trkpt lat="59.8197522294" lon="32.2996369656"><ele>149.56</ele><time>2025-08-18T19:23:17Z</time></trkpt><trkpt lat="59.8193885386" lon="32.2997295018"><ele>149.56</ele><time>2025-08-18T19:23:18Z</time></trkpt><trkpt lat="59.8190274462" lon="32.2998284921"><ele>154.00</ele><time>2025-08-18T19:23:19Z</time></trkpt><trkpt lat="59.8183082789" lon="32.3000329267"><ele>156.48</ele><time>2025-08-18T19:23:21Z</time></trkpt><trkpt lat="59.8168565333" lon="32.3005146347"><ele>153.99</ele><time>2025-08-18T19:23:25Z</time></trkpt><trkpt lat="59.8159403913" lon="32.3008670937"><ele>172.35</ele><time>2025-08-18T19:23:28Z</time></trkpt></trkseg><trkseg><trkpt lat="60.1184480544" lon="32.3207171168"><ele>84.71</ele><time>2025-08-19T05:06:32Z</time></trkpt><trkpt lat="60.1184769720" lon="32.3207306117"><ele>81.71</ele><time>2025-08-19T05:09:19Z</time></trkpt><trkpt lat="60.1185055543" lon="32.3208389897"><ele>78.70</ele><time>2025-08-19T05:10:43Z</time></trkpt><trkpt lat="60.1186897885" lon="32.3208937235"><ele>75.36</ele><time>2025-08-19T05:11:19Z</time></trkpt></trkseg><trkseg><trkpt lat="60.1184121799" lon="32.3207014427"><ele>62.70</ele><time>2025-09-11T18:30:55Z</time></trkpt><trkpt lat="59.9229049589" lon="32.0263681468"><ele>62.70</ele><time>2025-09-11T18:30:57Z</time></trkpt><trkpt lat="59.9229891971" lon="32.0263963100"><ele>62.70</ele><time>2025-09-11T18:31:15Z</time></trkpt><trkpt lat="59.9231258221" lon="32.0263322722"><ele>62.57</ele><time>2025-09-11T18:31:41Z</time></trkpt><trkpt lat="59.9232435878" lon="32.0262892731"><ele>62.13</ele><time>2025-09-11T18:32:04Z</time></trkpt><trkpt lat="59.9233638681" lon="32.0262021013"><ele>61.81</ele><time>2025-09-11T18:32:28Z</time></trkpt><trkpt lat="59.9234926142" lon="32.0260776300"><ele>62.52</ele><time>2025-09-11T18:32:48Z</time></trkpt><trkpt lat="59.9235670455" lon="32.0258348901"><ele>62.36</ele><time>2025-09-11T18:33:10Z</time></trkpt><trkpt lat="59.9236221146" lon="32.0257255062"><ele>62.17</ele><time>2025-09-11T18:33:29Z</time></trkpt><trkpt lat="59.9236716516" lon="32.0255473908"><ele>62.00</ele><time>2025-09-11T18:33:50Z</time></trkpt><trkpt lat="59.9237880763" lon="32.0253788307"><ele>61.83</ele><time>2025-09-11T18:34:14Z</time></trkpt><trkpt lat="59.9238059297" lon="32.0253799204"><ele>64.01</ele><time>2025-09-11T18:34:24Z</time></trkpt><trkpt lat="59.9238456599" lon="32.0253692754"><ele>61.60</ele><time>2025-09-11T18:34:37Z</time></trkpt><trkpt lat="59.9238946103" lon="32.0252965204"><ele>61.52</ele><time>2025-09-11T18:34:53Z</time></trkpt><trkpt lat="59.9239091948" lon="32.0253049862"><ele>60.45</ele><time>2025-09-11T18:35:20Z</time></trkpt><trkpt lat="59.9239986297" lon="32.0251575485"><ele>60.36</ele><time>2025-09-11T18:35:36Z</time></trkpt><trkpt lat="59.9240540341" lon="32.0250992943"><ele>61.32</ele><time>2025-09-11T18:35:46Z</time></trkpt><trkpt lat="59.9241158087" lon="32.0250319038"><ele>61.25</ele><time>2025-09-11T18:35:57Z</time></trkpt><trkpt lat="59.9241617415" lon="32.0248896629"><ele>61.20</ele><time>2025-09-11T18:36:10Z</time></trkpt><trkpt lat="59.9241522700" lon="32.0247444883"><ele>61.13</ele><time>2025-09-11T18:36:23Z</time></trkpt><trkpt lat="59.9241329916" lon="32.0247426443"><ele>58.84</ele><time>2025-09-11T18:36:30Z</time></trkpt><trkpt lat="59.9241404515" lon="32.0247152355"><ele>58.76</ele><time>2025-09-11T18:36:49Z</time></trkpt><trkpt lat="59.9241550360" lon="32.0246614236"><ele>58.67</ele><time>2025-09-11T18:37:08Z</time></trkpt><trkpt lat="59.9241656810" lon="32.0246360265"><ele>57.25</ele><time>2025-09-11T18:37:11Z</time></trkpt><trkpt lat="59.9241692852" lon="32.0246226154"><ele>61.25</ele><time>2025-09-11T18:37:13Z</time></trkpt><trkpt lat="59.9241701234" lon="32.0246149879"><ele>61.25</ele><time>2025-09-11T18:37:14Z</time></trkpt><trkpt lat="59.9241795111" lon="32.0245886687"><ele>58.71</ele><time>2025-09-11T18:37:17Z</time></trkpt><trkpt lat="59.9242743105" lon="32.0245012455"><ele>58.67</ele><time>2025-09-11T18:37:35Z</time></trkpt><trkpt lat="59.9243202433" lon="32.0243958011"><ele>58.57</ele><time>2025-09-11T18:37:53Z</time></trkpt><trkpt lat="59.9242924154" lon="32.0243911073"><ele>60.82</ele><time>2025-09-11T18:38:04Z</time></trkpt><trkpt lat="59.9242963549" lon="32.0243595075"><ele>60.68</ele><time>2025-09-11T18:38:25Z</time></trkpt><trkpt lat="59.9242794234" lon="32.0243356191"><ele>60.51</ele><time>2025-09-11T18:38:51Z</time></trkpt><trkpt lat="59.9242989533" lon="32.0243247226"><ele>60.39</ele><time>2025-09-11T18:39:16Z</time></trkpt><trkpt lat="59.9243125319" lon="32.0243403967"><ele>60.23</ele><time>2025-09-11T18:39:50Z</time></trkpt><trkpt lat="59.9243171420" lon="32.0243445039"><ele>60.13</ele><time>2025-09-11T18:40:25Z</time></trkpt><trkpt lat="59.9243191537" lon="32.0243393071"><ele>57.84</ele><time>2025-09-11T18:40:32Z</time></trkpt><trkpt lat="59.9243047368" lon="32.0243670512"><ele>56.75</ele><time>2025-09-11T18:40:55Z</time></trkpt><trkpt lat="59.9242846202" lon="32.0245247148"><ele>56.76</ele><time>2025-09-11T18:41:14Z</time></trkpt><trkpt lat="59.9242019746" lon="32.0246404689"><ele>56.74</ele><time>2025-09-11T18:41:37Z</time></trkpt><trkpt lat="59.9241750687" lon="32.0248556323"><ele>58.71</ele><time>2025-09-11T18:41:57Z</time></trkpt><trkpt lat="59.9241401162" lon="32.0250339154"><ele>58.61</ele><time>2025-09-11T18:42:17Z</time></trkpt><trkpt lat="59.9241124559" lon="32.0251663495"><ele>58.57</ele><time>2025-09-11T18:42:39Z</time></trkpt><trkpt lat="59.9240566324" lon="32.0251178183"><ele>58.53</ele><time>2025-09-11T18:42:56Z</time></trkpt><trkpt lat="59.9239986297" lon="32.0252126176"><ele>59.06</ele><time>2025-09-11T18:43:23Z</time></trkpt><trkpt lat="59.9239979591" lon="32.0252081752"><ele>59.07</ele><time>2025-09-11T18:43:58Z</time></trkpt><trkpt lat="59.9239810277" lon="32.0252573770"><ele>56.43</ele><time>2025-09-11T18:44:10Z</time></trkpt><trkpt lat="59.9238296505" lon="32.0254245959"><ele>56.65</ele><time>2025-09-11T18:44:40Z</time></trkpt><trkpt lat="59.9238988850" lon="32.0253839437"><ele>56.65</ele><time>2025-09-11T18:45:01Z</time></trkpt><trkpt lat="59.9238644354" lon="32.0253599714"><ele>56.74</ele><time>2025-09-11T18:45:22Z</time></trkpt><trkpt lat="59.9238516949" lon="32.0255147852"><ele>56.77</ele><time>2025-09-11T18:45:39Z</time></trkpt><trkpt lat="59.9237833824" lon="32.0256223250"><ele>57.58</ele><time>2025-09-11T18:45:57Z</time></trkpt><trkpt lat="59.9237595778" lon="32.0256700180"><ele>57.62</ele><time>2025-09-11T18:46:02Z</time></trkpt><trkpt lat="59.9237226136" lon="32.0257558487"><ele>57.61</ele><time>2025-09-11T18:46:19Z</time></trkpt><trkpt lat="59.9236576539" lon="32.0258705132"><ele>58.51</ele><time>2025-09-11T18:46:42Z</time></trkpt><trkpt lat="59.9236045126" lon="32.0259653125"><ele>58.44</ele><time>2025-09-11T18:46:54Z</time></trkpt><trkpt lat="59.9235835578" lon="32.0259834174"><ele>58.45</ele><time>2025-09-11T18:46:58Z</time></trkpt><trkpt lat="59.9236005731" lon="32.0260524843"><ele>59.62</ele><time>2025-09-11T18:47:04Z</time></trkpt><trkpt lat="59.9235952925" lon="32.0260772947"><ele>56.73</ele><time>2025-09-11T18:47:09Z</time></trkpt><trkpt lat="59.9235453364" lon="32.0262013469"><ele>54.38</ele><time>2025-09-11T18:47:18Z</time></trkpt><trkpt lat="59.9235435762" lon="32.0262109861"><ele>57.38</ele><time>2025-09-11T18:47:19Z</time></trkpt><trkpt lat="59.9235417321" lon="32.0262301806"><ele>57.43</ele><time>2025-09-11T18:47:20Z</time></trkpt><trkpt lat="59.9234842323" lon="32.0262814779"><ele>55.06</ele><time>2025-09-11T18:47:34Z</time></trkpt><trkpt lat="59.9234635290" lon="32.0262980741"><ele>41.29</ele><time>2025-09-11T18:47:40Z</time></trkpt><trkpt lat="59.9234570749" lon="32.0262984093"><ele>58.46</ele><time>2025-09-11T18:47:41Z</time></trkpt><trkpt lat="59.9234468490" lon="32.0263234712"><ele>55.45</ele><time>2025-09-11T18:47:44Z</time></trkpt><trkpt lat="59.9234413169" lon="32.0263330266"><ele>55.52</ele><time>2025-09-11T18:47:45Z</time></trkpt><trkpt lat="59.9234180991" lon="32.0263051987"><ele>52.80</ele><time>2025-09-11T18:47:52Z</time></trkpt><trkpt lat="59.9234002456" lon="32.0263132453"><ele>56.79</ele><time>2025-09-11T18:47:55Z</time></trkpt><trkpt lat="59.9233956356" lon="32.0263185259"><ele>56.78</ele><time>2025-09-11T18:47:56Z</time></trkpt><trkpt lat="59.9233800452" lon="32.0263469405"><ele>53.15</ele><time>2025-09-11T18:48:00Z</time></trkpt><trkpt lat="59.9233750999" lon="32.0263537299"><ele>53.13</ele><time>2025-09-11T18:48:01Z</time></trkpt><trkpt lat="59.9232743494" lon="32.0263479464"><ele>53.36</ele><time>2025-09-11T18:48:22Z</time></trkpt><trkpt lat="59.9231561646" lon="32.0264144149"><ele>53.46</ele><time>2025-09-11T18:48:37Z</time></trkpt><trkpt lat="59.9230502173" lon="32.0264691487"><ele>53.49</ele><time>2025-09-11T18:48:50Z</time></trkpt><trkpt lat="59.9229960702" lon="32.0264523011"><ele>53.52</ele><time>2025-09-11T18:48:57Z</time></trkpt><trkpt lat="59.9228846747" lon="32.0264632814"><ele>53.58</ele><time>2025-09-11T18:49:08Z</time></trkpt><trkpt lat="59.9228421785" lon="32.0265509561"><ele>53.56</ele><time>2025-09-11T18:49:12Z</time></trkpt><trkpt lat="59.9227621313" lon="32.0267093740"><ele>53.54</ele><time>2025-09-11T18:49:26Z</time></trkpt><trkpt lat="59.9227327108" lon="32.0267491043"><ele>53.60</ele><time>2025-09-11T18:49:30Z</time></trkpt><trkpt lat="59.9227058887" lon="32.0268104598"><ele>53.64</ele><time>2025-09-11T18:49:34Z</time></trkpt><trkpt lat="59.9225742090" lon="32.0269511081"><ele>53.59</ele><time>2025-09-11T18:49:50Z</time></trkpt><trkpt lat="59.9225124344" lon="32.0270203426"><ele>53.63</ele><time>2025-09-11T18:50:02Z</time></trkpt><trkpt lat="59.9224162102" lon="32.0271668583"><ele>53.66</ele><time>2025-09-11T18:50:17Z</time></trkpt><trkpt lat="59.9223004561" lon="32.0273981150"><ele>52.02</ele><time>2025-09-11T18:50:36Z</time></trkpt><trkpt lat="59.9222932477" lon="32.0274090115"><ele>55.21</ele><time>2025-09-11T18:50:37Z</time></trkpt><trkpt lat="59.9222860392" lon="32.0274192374"><ele>55.17</ele><time>2025-09-11T18:50:38Z</time></trkpt><trkpt lat="59.9222612288" lon="32.0274432935"><ele>52.79</ele><time>2025-09-11T18:50:42Z</time></trkpt><trkpt lat="59.9222392682" lon="32.0274543576"><ele>51.54</ele><time>2025-09-11T18:50:45Z</time></trkpt><trkpt lat="59.9222326465" lon="32.0274623204"><ele>54.81</ele><time>2025-09-11T18:50:46Z</time></trkpt><trkpt lat="59.9222245999" lon="32.0274727140"><ele>54.83</ele><time>2025-09-11T18:50:47Z</time></trkpt><trkpt lat="59.9220344145" lon="32.0276315510"><ele>54.84</ele><time>2025-09-11T18:51:07Z</time></trkpt><trkpt lat="59.9219479132" lon="32.0277548488"><ele>55.50</ele><time>2025-09-11T18:51:25Z</time></trkpt><trkpt lat="59.9218511861" lon="32.0278366562"><ele>55.49</ele><time>2025-09-11T18:51:42Z</time></trkpt><trkpt lat="59.9216476735" lon="32.0279517397"><ele>55.64</ele><time>2025-09-11T18:52:02Z</time></trkpt><trkpt lat="59.9215071090" lon="32.0279207267"><ele>56.38</ele><time>2025-09-11T18:52:19Z</time></trkpt><trkpt lat="59.9213140737" lon="32.0278665796"><ele>54.72</ele><time>2025-09-11T18:52:40Z</time></trkpt><trkpt lat="59.9213030934" lon="32.0278664958"><ele>54.72</ele><time>2025-09-11T18:52:41Z</time></trkpt><trkpt lat="59.9212855753" lon="32.0278627239"><ele>57.20</ele><time>2025-09-11T18:52:43Z</time></trkpt><trkpt lat="59.9211106449" lon="32.0278351475"><ele>57.93</ele><time>2025-09-11T18:53:03Z</time></trkpt><trkpt lat="59.9209232256" lon="32.0278237481"><ele>57.96</ele><time>2025-09-11T18:53:25Z</time></trkpt><trkpt lat="59.9208068009" lon="32.0278565213"><ele>54.94</ele><time>2025-09-11T18:53:37Z</time></trkpt><trkpt lat="59.9207980838" lon="32.0278576948"><ele>54.97</ele><time>2025-09-11T18:53:38Z</time></trkpt><trkpt lat="59.9207783863" lon="32.0278515760"><ele>57.34</ele><time>2025-09-11T18:53:40Z</time></trkpt><trkpt lat="59.9205275159" lon="32.0277972613"><ele>57.28</ele><time>2025-09-11T18:54:03Z</time></trkpt><trkpt lat="59.9203871191" lon="32.0277196448"><ele>57.31</ele><time>2025-09-11T18:54:17Z</time></trkpt><trkpt lat="59.9202068243" lon="32.0274691936"><ele>57.34</ele><time>2025-09-11T18:54:40Z</time></trkpt><trkpt lat="59.9200180639" lon="32.0272889826"><ele>57.33</ele><time>2025-09-11T18:54:59Z</time></trkpt><trkpt lat="59.9198291358" lon="32.0273449738"><ele>57.43</ele><time>2025-09-11T18:55:20Z</time></trkpt><trkpt lat="59.9196298979" lon="32.0273312274"><ele>57.38</ele><time>2025-09-11T18:55:40Z</time></trkpt><trkpt lat="59.9194392934" lon="32.0272075105"><ele>57.44</ele><time>2025-09-11T18:56:02Z</time></trkpt><trkpt lat="59.9192936998" lon="32.0270698797"><ele>57.39</ele><time>2025-09-11T18:56:21Z</time></trkpt><trkpt lat="59.9192771874" lon="32.0270519424"><ele>49.18</ele><time>2025-09-11T18:56:23Z</time></trkpt><trkpt lat="59.9192695599" lon="32.0270434767"><ele>53.15</ele><time>2025-09-11T18:56:24Z</time></trkpt><trkpt lat="59.9192595016" lon="32.0270338375"><ele>50.78</ele><time>2025-09-11T18:56:25Z</time></trkpt><trkpt lat="59.9192417320" lon="32.0270252042"><ele>59.94</ele><time>2025-09-11T18:56:27Z</time></trkpt><trkpt lat="59.9192118924" lon="32.0270096976"><ele>57.62</ele><time>2025-09-11T18:56:30Z</time></trkpt><trkpt lat="59.9192005768" lon="32.0269884076"><ele>53.76</ele><time>2025-09-11T18:56:32Z</time></trkpt><trkpt lat="59.9191917758" lon="32.0269856416"><ele>53.76</ele><time>2025-09-11T18:56:33Z</time></trkpt><trkpt lat="59.9191694800" lon="32.0269758347"><ele>56.65</ele><time>2025-09-11T18:56:35Z</time></trkpt><trkpt lat="59.9191458430" lon="32.0269725658"><ele>61.90</ele><time>2025-09-11T18:56:37Z</time></trkpt><trkpt lat="59.9191371258" lon="32.0269667823"><ele>61.86</ele><time>2025-09-11T18:56:38Z</time></trkpt><trkpt lat="59.9191336054" lon="32.0269593224"><ele>57.79</ele><time>2025-09-11T18:56:39Z</time></trkpt><trkpt lat="59.9191281572" lon="32.0269482583"><ele>56.70</ele><time>2025-09-11T18:56:41Z</time></trkpt><trkpt lat="59.9189666379" lon="32.0268870704"><ele>56.15</ele><time>2025-09-11T18:57:04Z</time></trkpt><trkpt lat="59.9189249799" lon="32.0267133135"><ele>56.17</ele><time>2025-09-11T18:57:22Z</time></trkpt><trkpt lat="59.9189248122" lon="32.0266358647"><ele>54.21</ele><time>2025-09-11T18:57:27Z</time></trkpt><trkpt lat="59.9189247284" lon="32.0266191848"><ele>57.49</ele><time>2025-09-11T18:57:28Z</time></trkpt><trkpt lat="59.9189243093" lon="32.0266066119"><ele>57.49</ele><time>2025-09-11T18:57:29Z</time></trkpt><trkpt lat="59.9189346191" lon="32.0263570827"><ele>57.44</ele><time>2025-09-11T18:57:43Z</time></trkpt><trkpt lat="59.9189500418" lon="32.0262492076"><ele>57.44</ele><time>2025-09-11T18:57:54Z</time></trkpt><trkpt lat="59.9189659674" lon="32.0261855051"><ele>55.15</ele><time>2025-09-11T18:57:59Z</time></trkpt><trkpt lat="59.9190523010" lon="32.0260557532"><ele>55.12</ele><time>2025-09-11T18:58:16Z</time></trkpt><trkpt lat="59.9192456715" lon="32.0258507319"><ele>55.03</ele><time>2025-09-11T18:58:38Z</time></trkpt><trkpt lat="59.9193668738" lon="32.0257143583"><ele>54.92</ele><time>2025-09-11T18:58:56Z</time></trkpt><trkpt lat="59.9194467533" lon="32.0255653281"><ele>57.23</ele><time>2025-09-11T18:59:09Z</time></trkpt><trkpt lat="59.9195971247" lon="32.0253520925"><ele>57.00</ele><time>2025-09-11T18:59:29Z</time></trkpt><trkpt lat="59.9196873140" lon="32.0251314808"><ele>56.75</ele><time>2025-09-11T18:59:49Z</time></trkpt><trkpt lat="59.9198410381" lon="32.0249494258"><ele>56.55</ele><time>2025-09-11T19:00:08Z</time></trkpt><trkpt lat="59.9199059140" lon="32.0248972904"><ele>53.31</ele><time>2025-09-11T19:00:17Z</time></trkpt><trkpt lat="59.9199167266" lon="32.0248841308"><ele>57.81</ele><time>2025-09-11T19:00:18Z</time></trkpt><trkpt lat="59.9199254438" lon="32.0248745754"><ele>57.80</ele><time>2025-09-11T19:00:19Z</time></trkpt><trkpt lat="59.9199380167" lon="32.0248588175"><ele>60.31</ele><time>2025-09-11T19:00:21Z</time></trkpt><trkpt lat="59.9199422076" lon="32.0248516928"><ele>57.12</ele><time>2025-09-11T19:00:22Z</time></trkpt><trkpt lat="59.9199477397" lon="32.0248425566"><ele>57.14</ele><time>2025-09-11T19:00:23Z</time></trkpt><trkpt lat="59.9200490769" lon="32.0246951189"><ele>56.20</ele><time>2025-09-11T19:00:37Z</time></trkpt><trkpt lat="59.9201748893" lon="32.0245931949"><ele>54.73</ele><time>2025-09-11T19:00:52Z</time></trkpt><trkpt lat="59.9202038907" lon="32.0246097073"><ele>56.97</ele><time>2025-09-11T19:00:57Z</time></trkpt><trkpt lat="59.9202162959" lon="32.0246102102"><ele>54.59</ele><time>2025-09-11T19:00:59Z</time></trkpt><trkpt lat="59.9202960078" lon="32.0245592482"><ele>54.55</ele><time>2025-09-11T19:01:08Z</time></trkpt><trkpt lat="59.9204310402" lon="32.0243834797"><ele>54.49</ele><time>2025-09-11T19:01:25Z</time></trkpt><trkpt lat="59.9205711018" lon="32.0242937934"><ele>54.44</ele><time>2025-09-11T19:01:44Z</time></trkpt><trkpt lat="59.9206790607" lon="32.0242367964"><ele>54.38</ele><time>2025-09-11T19:02:00Z</time></trkpt><trkpt lat="59.9207834993" lon="32.0241901092"><ele>54.36</ele><time>2025-09-11T19:02:14Z</time></trkpt><trkpt lat="59.9209438451" lon="32.0241874270"><ele>52.50</ele><time>2025-09-11T19:02:32Z</time></trkpt><trkpt lat="59.9209471140" lon="32.0241721720"><ele>55.66</ele><time>2025-09-11T19:02:33Z</time></trkpt><trkpt lat="59.9209487904" lon="32.0241627842"><ele>55.65</ele><time>2025-09-11T19:02:34Z</time></trkpt><trkpt lat="59.9209631234" lon="32.0241400693"><ele>51.45</ele><time>2025-09-11T19:02:37Z</time></trkpt><trkpt lat="59.9209834076" lon="32.0241406560"><ele>56.30</ele><time>2025-09-11T19:02:40Z</time></trkpt><trkpt lat="59.9209988303" lon="32.0241526421"><ele>57.49</ele><time>2025-09-11T19:02:42Z</time></trkpt><trkpt lat="59.9210196175" lon="32.0241581742"><ele>54.30</ele><time>2025-09-11T19:02:45Z</time></trkpt><trkpt lat="59.9210270774" lon="32.0241623651"><ele>54.35</ele><time>2025-09-11T19:02:46Z</time></trkpt><trkpt lat="59.9211229663" lon="32.0241716690"><ele>53.57</ele><time>2025-09-11T19:03:07Z</time></trkpt><trkpt lat="59.9212227948" lon="32.0241981559"><ele>53.63</ele><time>2025-09-11T19:03:29Z</time></trkpt><trkpt lat="59.9213043507" lon="32.0241577551"><ele>53.71</ele><time>2025-09-11T19:03:48Z</time></trkpt><trkpt lat="59.9214029219" lon="32.0241494570"><ele>53.83</ele><time>2025-09-11T19:04:13Z</time></trkpt><trkpt lat="59.9214341864" lon="32.0241352916"><ele>53.95</ele><time>2025-09-11T19:04:28Z</time></trkpt><trkpt lat="59.9213775247" lon="32.0241865888"><ele>54.28</ele><time>2025-09-11T19:05:00Z</time></trkpt><trkpt lat="59.9214229546" lon="32.0242344495"><ele>54.60</ele><time>2025-09-11T19:05:32Z</time></trkpt><trkpt lat="59.9214331806" lon="32.0242420770"><ele>54.91</ele><time>2025-09-11T19:06:01Z</time></trkpt><trkpt lat="59.9214206077" lon="32.0242457651"><ele>55.16</ele><time>2025-09-11T19:06:27Z</time></trkpt><trkpt lat="59.9213979766" lon="32.0242230501"><ele>55.45</ele><time>2025-09-11T19:07:03Z</time></trkpt><trkpt lat="59.9214210268" lon="32.0242473576"><ele>55.71</ele><time>2025-09-11T19:07:35Z</time></trkpt><trkpt lat="59.9213748425" lon="32.0242466033"><ele>55.90</ele><time>2025-09-11T19:07:58Z</time></trkpt><trkpt lat="59.9214041792" lon="32.0242150035"><ele>55.97</ele><time>2025-09-11T19:08:08Z</time></trkpt><trkpt lat="59.9214374553" lon="32.0242761075"><ele>57.64</ele><time>2025-09-11T19:08:36Z</time></trkpt><trkpt lat="59.9213106371" lon="32.0243227948"><ele>57.75</ele><time>2025-09-11T19:08:51Z</time></trkpt><trkpt lat="59.9211366288" lon="32.0242667198"><ele>57.87</ele><time>2025-09-11T19:09:09Z</time></trkpt><trkpt lat="59.9210653827" lon="32.0242158417"><ele>54.41</ele><time>2025-09-11T19:09:16Z</time></trkpt><trkpt lat="59.9210545700" lon="32.0242174342"><ele>54.41</ele><time>2025-09-11T19:09:17Z</time></trkpt><trkpt lat="59.9210450146" lon="32.0242097229"><ele>58.14</ele><time>2025-09-11T19:09:18Z</time></trkpt><trkpt lat="59.9210359622" lon="32.0241929591"><ele>59.27</ele><time>2025-09-11T19:09:20Z</time></trkpt><trkpt lat="59.9210176058" lon="32.0241540670"><ele>56.69</ele><time>2025-09-11T19:09:24Z</time></trkpt><trkpt lat="59.9209073000" lon="32.0241202880"><ele>56.78</ele><time>2025-09-11T19:09:42Z</time></trkpt><trkpt lat="59.9208071362" lon="32.0240718406"><ele>56.83</ele><time>2025-09-11T19:09:59Z</time></trkpt><trkpt lat="59.9208062980" lon="32.0239984989"><ele>58.84</ele><time>2025-09-11T19:10:06Z</time></trkpt><trkpt lat="59.9207972456" lon="32.0238539949"><ele>58.90</ele><time>2025-09-11T19:10:28Z</time></trkpt><trkpt lat="59.9208050407" lon="32.0239082258"><ele>56.24</ele><time>2025-09-11T19:10:39Z</time></trkpt><trkpt lat="59.9208187871" lon="32.0239829086"><ele>59.05</ele><time>2025-09-11T19:10:45Z</time></trkpt><trkpt lat="59.9207908753" lon="32.0241670590"><ele>56.66</ele><time>2025-09-11T19:11:02Z</time></trkpt><trkpt lat="59.9207489658" lon="32.0242216252"><ele>56.69</ele><time>2025-09-11T19:11:19Z</time></trkpt><trkpt lat="59.9206990097" lon="32.0243141614"><ele>56.72</ele><time>2025-09-11T19:11:39Z</time></trkpt><trkpt lat="59.9206757918" lon="32.0243520476"><ele>56.77</ele><time>2025-09-11T19:11:59Z</time></trkpt><trkpt lat="59.9206706788" lon="32.0243538916"><ele>56.85</ele><time>2025-09-11T19:12:23Z</time></trkpt><trkpt lat="59.9206484668" lon="32.0242937095"><ele>56.91</ele><time>2025-09-11T19:12:41Z</time></trkpt><trkpt lat="59.9206063896" lon="32.0242094714"><ele>57.00</ele><time>2025-09-11T19:13:07Z</time></trkpt><trkpt lat="59.9205871113" lon="32.0242540631"><ele>57.08</ele><time>2025-09-11T19:13:34Z</time></trkpt><trkpt lat="59.9206083175" lon="32.0242885966"><ele>59.18</ele><time>2025-09-11T19:13:50Z</time></trkpt><trkpt lat="59.9206278473" lon="32.0242849085"><ele>56.87</ele><time>2025-09-11T19:14:10Z</time></trkpt><trkpt lat="59.9206379894" lon="32.0242842380"><ele>56.96</ele><time>2025-09-11T19:14:32Z</time></trkpt><trkpt lat="59.9206261709" lon="32.0242353715"><ele>57.00</ele><time>2025-09-11T19:15:00Z</time></trkpt><trkpt lat="59.9206315354" lon="32.0243174303"><ele>57.07</ele><time>2025-09-11T19:15:27Z</time></trkpt><trkpt lat="59.9206232373" lon="32.0242806338"><ele>57.21</ele><time>2025-09-11T19:15:56Z</time></trkpt><trkpt lat="59.9206253327" lon="32.0243467670"><ele>57.29</ele><time>2025-09-11T19:16:25Z</time></trkpt><trkpt lat="59.9206101615" lon="32.0244233776"><ele>57.35</ele><time>2025-09-11T19:16:56Z</time></trkpt><trkpt lat="59.9206107482" lon="32.0243919455"><ele>61.16</ele><time>2025-09-11T19:17:15Z</time></trkpt><trkpt lat="59.9206191301" lon="32.0243896823"><ele>61.17</ele><time>2025-09-11T19:17:16Z</time></trkpt><trkpt lat="59.9206280150" lon="32.0243934542"><ele>58.70</ele><time>2025-09-11T19:17:18Z</time></trkpt><trkpt lat="59.9206662364" lon="32.0243853237"><ele>58.02</ele><time>2025-09-11T19:17:42Z</time></trkpt><trkpt lat="59.9206379894" lon="32.0243371278"><ele>58.10</ele><time>2025-09-11T19:18:09Z</time></trkpt><trkpt lat="59.9206365645" lon="32.0243346971"><ele>54.84</ele><time>2025-09-11T19:18:13Z</time></trkpt><trkpt lat="59.9206357263" lon="32.0243339427"><ele>59.04</ele><time>2025-09-11T19:18:14Z</time></trkpt><trkpt lat="59.9206251651" lon="32.0243379660"><ele>59.14</ele><time>2025-09-11T19:18:40Z</time></trkpt><trkpt lat="59.9206287693" lon="32.0243394747"><ele>60.03</ele><time>2025-09-11T19:19:12Z</time></trkpt><trkpt lat="59.9206237402" lon="32.0242920332"><ele>60.29</ele><time>2025-09-11T19:19:39Z</time></trkpt><trkpt lat="59.9206085689" lon="32.0242827293"><ele>60.52</ele><time>2025-09-11T19:20:10Z</time></trkpt><trkpt lat="59.9206135143" lon="32.0242797118"><ele>58.23</ele><time>2025-09-11T19:20:20Z</time></trkpt><trkpt lat="59.9206118379" lon="32.0242295880"><ele>58.43</ele><time>2025-09-11T19:20:45Z</time></trkpt><trkpt lat="59.9206165317" lon="32.0242284145"><ele>54.16</ele><time>2025-09-11T19:20:49Z</time></trkpt><trkpt lat="59.9206174538" lon="32.0242287498"><ele>59.58</ele><time>2025-09-11T19:20:50Z</time></trkpt><trkpt lat="59.9206187949" lon="32.0242298394"><ele>60.60</ele><time>2025-09-11T19:20:52Z</time></trkpt><trkpt lat="59.9206156097" lon="32.0242415741"><ele>58.26</ele><time>2025-09-11T19:20:57Z</time></trkpt><trkpt lat="59.9206374027" lon="32.0242380537"><ele>58.46</ele><time>2025-09-11T19:21:25Z</time></trkpt><trkpt lat="59.9206078146" lon="32.0242329407"><ele>58.64</ele><time>2025-09-11T19:21:51Z</time></trkpt><trkpt lat="59.9206253327" lon="32.0242575835"><ele>58.85</ele><time>2025-09-11T19:22:18Z</time></trkpt><trkpt lat="59.9206400011" lon="32.0242961403"><ele>59.06</ele><time>2025-09-11T19:22:46Z</time></trkpt><trkpt lat="59.9206151068" lon="32.0243210346"><ele>59.25</ele><time>2025-09-11T19:23:12Z</time></trkpt><trkpt lat="59.9205975048" lon="32.0243024267"><ele>59.44</ele><time>2025-09-11T19:23:40Z</time></trkpt><trkpt lat="59.9205840938" lon="32.0243574958"><ele>59.61</ele><time>2025-09-11T19:24:08Z</time></trkpt><trkpt lat="59.9206056353" lon="32.0243134908"><ele>59.75</ele><time>2025-09-11T19:24:40Z</time></trkpt><trkpt lat="59.9206001870" lon="32.0243098866"><ele>59.89</ele><time>2025-09-11T19:25:13Z</time></trkpt><trkpt lat="59.9205984268" lon="32.0242176857"><ele>59.98</ele><time>2025-09-11T19:25:47Z</time></trkpt><trkpt lat="59.9205949064" lon="32.0242097229"><ele>60.13</ele><time>2025-09-11T19:26:17Z</time></trkpt><trkpt lat="59.9205646478" lon="32.0242260676"><ele>60.26</ele><time>2025-09-11T19:26:45Z</time></trkpt><trkpt lat="59.9205669947" lon="32.0242497046"><ele>60.39</ele><time>2025-09-11T19:27:18Z</time></trkpt><trkpt lat="59.9205304496" lon="32.0242892671"><ele>60.38</ele><time>2025-09-11T19:27:34Z</time></trkpt><trkpt lat="59.9204441998" lon="32.0244144090"><ele>60.43</ele><time>2025-09-11T19:27:50Z</time></trkpt><trkpt lat="59.9203288648" lon="32.0245491061"><ele>60.41</ele><time>2025-09-11T19:28:10Z</time></trkpt><trkpt lat="59.9201702792" lon="32.0246830489"><ele>60.26</ele><time>2025-09-11T19:28:28Z</time></trkpt><trkpt lat="59.9199900683" lon="32.0248436462"><ele>60.12</ele><time>2025-09-11T19:28:49Z</time></trkpt><trkpt lat="59.9198244419" lon="32.0249786787"><ele>60.00</ele><time>2025-09-11T19:29:07Z</time></trkpt><trkpt lat="59.9197954405" lon="32.0249682851"><ele>59.95</ele><time>2025-09-11T19:29:10Z</time></trkpt><trkpt lat="59.9197474122" lon="32.0250231866"><ele>59.84</ele><time>2025-09-11T19:29:17Z</time></trkpt><trkpt lat="59.9196904153" lon="32.0250439737"><ele>59.61</ele><time>2025-09-11T19:29:35Z</time></trkpt><trkpt lat="59.9196659401" lon="32.0250761602"><ele>59.53</ele><time>2025-09-11T19:29:39Z</time></trkpt><trkpt lat="59.9195513595" lon="32.0250913315"><ele>59.20</ele><time>2025-09-11T19:30:07Z</time></trkpt><trkpt lat="59.9195255432" lon="32.0251310617"><ele>58.98</ele><time>2025-09-11T19:30:27Z</time></trkpt><trkpt lat="59.9194717314" lon="32.0250955224"><ele>58.83</ele><time>2025-09-11T19:30:48Z</time></trkpt><trkpt lat="59.9193773512" lon="32.0250834525"><ele>58.70</ele><time>2025-09-11T19:31:09Z</time></trkpt><trkpt lat="59.9193741661" lon="32.0250735618"><ele>58.59</ele><time>2025-09-11T19:31:29Z</time></trkpt><trkpt lat="59.9193791114" lon="32.0250428841"><ele>58.48</ele><time>2025-09-11T19:31:56Z</time></trkpt><trkpt lat="59.9193446618" lon="32.0252180658"><ele>58.42</ele><time>2025-09-11T19:32:13Z</time></trkpt><trkpt lat="59.9194119684" lon="32.0253404416"><ele>58.36</ele><time>2025-09-11T19:32:36Z</time></trkpt><trkpt lat="59.9194636010" lon="32.0254274458"><ele>58.62</ele><time>2025-09-11T19:32:50Z</time></trkpt><trkpt lat="59.9194771796" lon="32.0254401863"><ele>60.93</ele><time>2025-09-11T19:32:53Z</time></trkpt><trkpt lat="59.9195399601" lon="32.0254899748"><ele>60.85</ele><time>2025-09-11T19:33:12Z</time></trkpt><trkpt lat="59.9196073506" lon="32.0255277772"><ele>60.82</ele><time>2025-09-11T19:33:27Z</time></trkpt><trkpt lat="59.9195467494" lon="32.0256385021"><ele>60.74</ele><time>2025-09-11T19:33:51Z</time></trkpt><trkpt lat="59.9194128066" lon="32.0257100835"><ele>60.66</ele><time>2025-09-11T19:34:07Z</time></trkpt><trkpt lat="59.9193235394" lon="32.0258102473"><ele>58.28</ele><time>2025-09-11T19:34:17Z</time></trkpt><trkpt lat="59.9191485252" lon="32.0259977505"><ele>58.16</ele><time>2025-09-11T19:34:38Z</time></trkpt><trkpt lat="59.9191312585" lon="32.0260270871"><ele>53.94</ele><time>2025-09-11T19:34:41Z</time></trkpt><trkpt lat="59.9191260617" lon="32.0260416716"><ele>38.70</ele><time>2025-09-11T19:34:42Z</time></trkpt><trkpt lat="59.9191231281" lon="32.0260545798"><ele>64.47</ele><time>2025-09-11T19:34:43Z</time></trkpt><trkpt lat="59.9190982338" lon="32.0261197072"><ele>59.39</ele><time>2025-09-11T19:34:46Z</time></trkpt><trkpt lat="59.9190873373" lon="32.0261333697"><ele>59.40</ele><time>2025-09-11T19:34:47Z</time></trkpt><trkpt lat="59.9190476909" lon="32.0261856727"><ele>58.09</ele><time>2025-09-11T19:34:51Z</time></trkpt><trkpt lat="59.9189888500" lon="32.0264916960"><ele>58.09</ele><time>2025-09-11T19:35:08Z</time></trkpt><trkpt lat="59.9189871736" lon="32.0265065320"><ele>41.67</ele><time>2025-09-11T19:35:09Z</time></trkpt><trkpt lat="59.9189911131" lon="32.0265163388"><ele>56.22</ele><time>2025-09-11T19:35:10Z</time></trkpt><trkpt lat="59.9189951364" lon="32.0265417360"><ele>63.92</ele><time>2025-09-11T19:35:11Z</time></trkpt><trkpt lat="59.9189945497" lon="32.0265636966"><ele>63.91</ele><time>2025-09-11T19:35:12Z</time></trkpt><trkpt lat="59.9189920351" lon="32.0265875012"><ele>60.14</ele><time>2025-09-11T19:35:13Z</time></trkpt><trkpt lat="59.9189830665" lon="32.0266310032"><ele>58.88</ele><time>2025-09-11T19:35:15Z</time></trkpt><trkpt lat="59.9189584237" lon="32.0268729050"><ele>59.15</ele><time>2025-09-11T19:35:28Z</time></trkpt><trkpt lat="59.9189572502" lon="32.0268773474"><ele>59.12</ele><time>2025-09-11T19:35:29Z</time></trkpt><trkpt lat="59.9188309349" lon="32.0270577259"><ele>59.08</ele><time>2025-09-11T19:35:46Z</time></trkpt><trkpt lat="59.9187773746" lon="32.0272857975"><ele>58.97</ele><time>2025-09-11T19:36:01Z</time></trkpt><trkpt lat="59.9186668172" lon="32.0274187345"><ele>55.31</ele><time>2025-09-11T19:36:14Z</time></trkpt><trkpt lat="59.9185150210" lon="32.0276668388"><ele>57.72</ele><time>2025-09-11T19:36:34Z</time></trkpt><trkpt lat="59.9183754623" lon="32.0278870314"><ele>58.42</ele><time>2025-09-11T19:36:51Z</time></trkpt><trkpt lat="59.9181751348" lon="32.0281230658"><ele>58.08</ele><time>2025-09-11T19:37:13Z</time></trkpt><trkpt lat="59.9180816766" lon="32.0283063781"><ele>57.88</ele><time>2025-09-11T19:37:28Z</time></trkpt><trkpt lat="59.9179894757" lon="32.0284389798"><ele>55.35</ele><time>2025-09-11T19:37:41Z</time></trkpt><trkpt lat="59.9178784993" lon="32.0286237169"><ele>55.07</ele><time>2025-09-11T19:37:56Z</time></trkpt><trkpt lat="59.9177412037" lon="32.0288301632"><ele>54.81</ele><time>2025-09-11T19:38:14Z</time></trkpt><trkpt lat="59.9175626691" lon="32.0290521160"><ele>57.69</ele><time>2025-09-11T19:38:33Z</time></trkpt><trkpt lat="59.9175571371" lon="32.0290639345"><ele>54.32</ele><time>2025-09-11T19:38:34Z</time></trkpt><trkpt lat="59.9175483361" lon="32.0290774293"><ele>54.30</ele><time>2025-09-11T19:38:35Z</time></trkpt><trkpt lat="59.9174024072" lon="32.0292759966"><ele>53.95</ele><time>2025-09-11T19:38:51Z</time></trkpt><trkpt lat="59.9173739925" lon="32.0293371007"><ele>53.84</ele><time>2025-09-11T19:38:56Z</time></trkpt><trkpt lat="59.9172673747" lon="32.0296494104"><ele>53.51</ele><time>2025-09-11T19:39:13Z</time></trkpt><trkpt lat="59.9172138982" lon="32.0296713710"><ele>53.26</ele><time>2025-09-11T19:39:31Z</time></trkpt><trkpt lat="59.9169753492" lon="32.0297365822"><ele>53.06</ele><time>2025-09-11T19:39:54Z</time></trkpt><trkpt lat="59.9167745188" lon="32.0298147853"><ele>52.84</ele><time>2025-09-11T19:40:13Z</time></trkpt><trkpt lat="59.9166491255" lon="32.0298192278"><ele>52.76</ele><time>2025-09-11T19:40:24Z</time></trkpt><trkpt lat="59.9166291766" lon="32.0298079122"><ele>52.71</ele><time>2025-09-11T19:40:27Z</time></trkpt><trkpt lat="59.9165911227" lon="32.0295311417"><ele>51.68</ele><time>2025-09-11T19:40:43Z</time></trkpt><trkpt lat="59.9165871833" lon="32.0294557884"><ele>51.65</ele><time>2025-09-11T19:40:47Z</time></trkpt><trkpt lat="59.9165775441" lon="32.0292086061"><ele>51.56</ele><time>2025-09-11T19:41:01Z</time></trkpt><trkpt lat="59.9165419210" lon="32.0288456697"><ele>51.41</ele><time>2025-09-11T19:41:17Z</time></trkpt><trkpt lat="59.9165414181" lon="32.0287838113"><ele>53.96</ele><time>2025-09-11T19:41:20Z</time></trkpt><trkpt lat="59.9165397417" lon="32.0287329331"><ele>54.89</ele><time>2025-09-11T19:41:22Z</time></trkpt><trkpt lat="59.9165356345" lon="32.0286294166"><ele>52.03</ele><time>2025-09-11T19:41:26Z</time></trkpt><trkpt lat="59.9165189546" lon="32.0282958169"><ele>54.38</ele><time>2025-09-11T19:41:42Z</time></trkpt><trkpt lat="59.9165199604" lon="32.0281717647"><ele>54.33</ele><time>2025-09-11T19:41:47Z</time></trkpt><trkpt lat="59.9164967425" lon="32.0279421844"><ele>52.02</ele><time>2025-09-11T19:41:57Z</time></trkpt><trkpt lat="59.9164539110" lon="32.0277309604"><ele>51.95</ele><time>2025-09-11T19:42:11Z</time></trkpt><trkpt lat="59.9164866842" lon="32.0278110914"><ele>51.89</ele><time>2025-09-11T19:42:20Z</time></trkpt><trkpt lat="59.9165745266" lon="32.0276992768"><ele>50.75</ele><time>2025-09-11T19:42:38Z</time></trkpt><trkpt lat="59.9165710900" lon="32.0276393462"><ele>53.77</ele><time>2025-09-11T19:42:42Z</time></trkpt><trkpt lat="59.9165713415" lon="32.0276241750"><ele>53.77</ele><time>2025-09-11T19:42:43Z</time></trkpt><trkpt lat="59.9165700004" lon="32.0276262704"><ele>53.73</ele><time>2025-09-11T19:42:51Z</time></trkpt><trkpt lat="59.9165895302" lon="32.0277174655"><ele>53.76</ele><time>2025-09-11T19:43:03Z</time></trkpt><trkpt lat="59.9165795557" lon="32.0275831036"><ele>53.79</ele><time>2025-09-11T19:43:13Z</time></trkpt><trkpt lat="59.9165606126" lon="32.0271806885"><ele>53.71</ele><time>2025-09-11T19:43:31Z</time></trkpt><trkpt lat="59.9165363051" lon="32.0269235317"><ele>53.71</ele><time>2025-09-11T19:43:43Z</time></trkpt><trkpt lat="59.9165396579" lon="32.0266982261"><ele>53.70</ele><time>2025-09-11T19:43:55Z</time></trkpt><trkpt lat="59.9165198766" lon="32.0263801329"><ele>53.71</ele><time>2025-09-11T19:44:10Z</time></trkpt><trkpt lat="59.9165195413" lon="32.0260120835"><ele>53.72</ele><time>2025-09-11T19:44:27Z</time></trkpt><trkpt lat="59.9165033642" lon="32.0256629772"><ele>53.71</ele><time>2025-09-11T19:44:43Z</time></trkpt><trkpt lat="59.9164991733" lon="32.0252886415"><ele>53.71</ele><time>2025-09-11T19:45:00Z</time></trkpt><trkpt lat="59.9165162724" lon="32.0251065865"><ele>53.72</ele><time>2025-09-11T19:45:09Z</time></trkpt><trkpt lat="59.9164997600" lon="32.0247034170"><ele>53.73</ele><time>2025-09-11T19:45:28Z</time></trkpt><trkpt lat="59.9164789729" lon="32.0243323501"><ele>53.74</ele><time>2025-09-11T19:45:45Z</time></trkpt><trkpt lat="59.9164617900" lon="32.0238998439"><ele>53.75</ele><time>2025-09-11T19:46:04Z</time></trkpt><trkpt lat="59.9164559226" lon="32.0234994404"><ele>53.75</ele><time>2025-09-11T19:46:22Z</time></trkpt><trkpt lat="59.9164643884" lon="32.0233583730"><ele>53.76</ele><time>2025-09-11T19:46:28Z</time></trkpt><trkpt lat="59.9164519832" lon="32.0232459716"><ele>53.78</ele><time>2025-09-11T19:46:34Z</time></trkpt><trkpt lat="59.9164839182" lon="32.0231561176"><ele>53.78</ele><time>2025-09-11T19:46:40Z</time></trkpt><trkpt lat="59.9165099021" lon="32.0227759145"><ele>53.80</ele><time>2025-09-11T19:46:57Z</time></trkpt><trkpt lat="59.9165109918" lon="32.0223344397"><ele>53.80</ele><time>2025-09-11T19:47:16Z</time></trkpt><trkpt lat="59.9165103212" lon="32.0219461061"><ele>53.77</ele><time>2025-09-11T19:47:32Z</time></trkpt><trkpt lat="59.9165088125" lon="32.0216033701"><ele>53.79</ele><time>2025-09-11T19:47:47Z</time></trkpt><trkpt lat="59.9165144283" lon="32.0212060679"><ele>53.78</ele><time>2025-09-11T19:48:05Z</time></trkpt><trkpt lat="59.9165166076" lon="32.0211843587"><ele>53.78</ele><time>2025-09-11T19:48:06Z</time></trkpt><trkpt lat="59.9165137578" lon="32.0209229272"><ele>53.77</ele><time>2025-09-11T19:48:17Z</time></trkpt><trkpt lat="59.9164999276" lon="32.0204262994"><ele>53.77</ele><time>2025-09-11T19:48:37Z</time></trkpt><trkpt lat="59.9165156018" lon="32.0201274846"><ele>53.76</ele><time>2025-09-11T19:48:52Z</time></trkpt><trkpt lat="59.9164881930" lon="32.0200213697"><ele>53.76</ele><time>2025-09-11T19:49:08Z</time></trkpt><trkpt lat="59.9164627958" lon="32.0199948829"><ele>53.71</ele><time>2025-09-11T19:49:40Z</time></trkpt><trkpt lat="59.9164642207" lon="32.0199922007"><ele>54.54</ele><time>2025-09-11T19:50:18Z</time></trkpt><trkpt lat="59.9164613709" lon="32.0199863333"><ele>51.83</ele><time>2025-09-11T19:50:20Z</time></trkpt><trkpt lat="59.9164594430" lon="32.0199850760"><ele>54.48</ele><time>2025-09-11T19:50:22Z</time></trkpt><trkpt lat="59.9164576828" lon="32.0199782867"><ele>52.93</ele><time>2025-09-11T19:50:28Z</time></trkpt><trkpt lat="59.9164594430" lon="32.0199804660"><ele>57.22</ele><time>2025-09-11T19:50:31Z</time></trkpt><trkpt lat="59.9164588563" lon="32.0199803822"><ele>57.22</ele><time>2025-09-11T19:50:32Z</time></trkpt><trkpt lat="59.9164599460" lon="32.0199822262"><ele>54.30</ele><time>2025-09-11T19:50:34Z</time></trkpt><trkpt lat="59.9164598621" lon="32.0199799631"><ele>52.00</ele><time>2025-09-11T19:50:36Z</time></trkpt><trkpt lat="59.9164618738" lon="32.0199814718"><ele>54.48</ele><time>2025-09-11T19:50:39Z</time></trkpt><trkpt lat="59.9164610356" lon="32.0199780352"><ele>56.78</ele><time>2025-09-11T19:50:42Z</time></trkpt><trkpt lat="59.9164632149" lon="32.0199557394"><ele>54.27</ele><time>2025-09-11T19:50:46Z</time></trkpt><trkpt lat="59.9164596945" lon="32.0199546497"><ele>52.10</ele><time>2025-09-11T19:50:51Z</time></trkpt><trkpt lat="59.9164561741" lon="32.0199524704"><ele>54.35</ele><time>2025-09-11T19:50:55Z</time></trkpt><trkpt lat="59.9164644722" lon="32.0199711621"><ele>54.29</ele><time>2025-09-11T19:51:27Z</time></trkpt><trkpt lat="59.9164616223" lon="32.0199818071"><ele>51.44</ele><time>2025-09-11T19:51:46Z</time></trkpt><trkpt lat="59.9164617062" lon="32.0200139936"><ele>53.09</ele><time>2025-09-11T19:51:48Z</time></trkpt><trkpt lat="59.9164591916" lon="32.0200212859"><ele>51.69</ele><time>2025-09-11T19:51:50Z</time></trkpt><trkpt lat="59.9164607842" lon="32.0200214535"><ele>54.99</ele><time>2025-09-11T19:51:52Z</time></trkpt><trkpt lat="59.9164609518" lon="32.0200255606"><ele>54.99</ele><time>2025-09-11T19:51:53Z</time></trkpt><trkpt lat="59.9164664000" lon="32.0200254768"><ele>48.70</ele><time>2025-09-11T19:51:58Z</time></trkpt></trkseg><trkseg><trkpt lat="60.1091596484" lon="32.3130681273"><ele>-34.87</ele><time>2025-09-11T22:42:00Z</time></trkpt><trkpt lat="60.1098752953" lon="32.3108434863"><ele>-34.92</ele><time>2025-09-11T22:42:11Z</time></trkpt><trkpt lat="60.1102078054" lon="32.3095069919"><ele>-36.00</ele><time>2025-09-11T22:42:17Z</time></trkpt><trkpt lat="60.1102183666" lon="32.3092848714"><ele>-36.00</ele><time>2025-09-11T22:42:18Z</time></trkpt><trkpt lat="60.1102164388" lon="32.3090785928"><ele>-36.84</ele><time>2025-09-11T22:42:19Z</time></trkpt><trkpt lat="60.1102129184" lon="32.3086156603"><ele>-37.67</ele><time>2025-09-11T22:42:22Z</time></trkpt><trkpt lat="60.1102276705" lon="32.3085085396"><ele>-37.65</ele><time>2025-09-11T22:42:23Z</time></trkpt><trkpt lat="60.1102604438" lon="32.3084080406"><ele>-37.63</ele><time>2025-09-11T22:42:24Z</time></trkpt><trkpt lat="60.1103017665" lon="32.3083093856"><ele>-37.63</ele><time>2025-09-11T22:42:25Z</time></trkpt><trkpt lat="60.1103540696" lon="32.3082051147"><ele>-37.59</ele><time>2025-09-11T22:42:26Z</time></trkpt><trkpt lat="60.1104108151" lon="32.3080997542"><ele>-37.57</ele><time>2025-09-11T22:42:27Z</time></trkpt><trkpt lat="60.1108352747" lon="32.3073898908"><ele>-37.44</ele><time>2025-09-11T22:42:33Z</time></trkpt><trkpt lat="60.1109189261" lon="32.3073023837"><ele>-34.96</ele><time>2025-09-11T22:42:34Z</time></trkpt><trkpt lat="60.1110016555" lon="32.3072485719"><ele>-34.94</ele><time>2025-09-11T22:42:35Z</time></trkpt><trkpt lat="60.1110785175" lon="32.3072204087"><ele>-34.92</ele><time>2025-09-11T22:42:36Z</time></trkpt><trkpt lat="60.1111485064" lon="32.3072113562"><ele>-34.91</ele><time>2025-09-11T22:42:37Z</time></trkpt><trkpt lat="60.1112135500" lon="32.3072395194"><ele>-34.89</ele><time>2025-09-11T22:42:38Z</time></trkpt><trkpt lat="60.1112711336" lon="32.3073091730"><ele>-34.87</ele><time>2025-09-11T22:42:39Z</time></trkpt><trkpt lat="60.1113217603" lon="32.3074159585"><ele>-34.85</ele><time>2025-09-11T22:42:40Z</time></trkpt><trkpt lat="60.1113595627" lon="32.3075579479"><ele>-34.84</ele><time>2025-09-11T22:42:41Z</time></trkpt><trkpt lat="60.1113865525" lon="32.3077452835"><ele>-34.83</ele><time>2025-09-11T22:42:42Z</time></trkpt><trkpt lat="60.1114161406" lon="32.3079505563"><ele>-34.80</ele><time>2025-09-11T22:42:43Z</time></trkpt><trkpt lat="60.1115691941" lon="32.3090234399"><ele>-34.73</ele><time>2025-09-11T22:42:48Z</time></trkpt><trkpt lat="60.1116144564" lon="32.3092065006"><ele>-34.71</ele><time>2025-09-11T22:42:49Z</time></trkpt><trkpt lat="60.1116671786" lon="32.3093611468"><ele>-34.70</ele><time>2025-09-11T22:42:50Z</time></trkpt><trkpt lat="60.1117250137" lon="32.3094894737"><ele>-34.69</ele><time>2025-09-11T22:42:51Z</time></trkpt><trkpt lat="60.1117921527" lon="32.3095913138"><ele>-34.68</ele><time>2025-09-11T22:42:52Z</time></trkpt><trkpt lat="60.1118671708" lon="32.3096528370"><ele>-34.67</ele><time>2025-09-11T22:42:53Z</time></trkpt><trkpt lat="60.1119462959" lon="32.3096569441"><ele>-34.65</ele><time>2025-09-11T22:42:54Z</time></trkpt><trkpt lat="60.1120286062" lon="32.3096029647"><ele>-34.64</ele><time>2025-09-11T22:42:55Z</time></trkpt><trkpt lat="60.1121120062" lon="32.3095149547"><ele>-34.61</ele><time>2025-09-11T22:42:56Z</time></trkpt><trkpt lat="60.1121958252" lon="32.3094115220"><ele>-34.58</ele><time>2025-09-11T22:42:57Z</time></trkpt><trkpt lat="60.1132047549" lon="32.3080191202"><ele>-34.39</ele><time>2025-09-11T22:43:09Z</time></trkpt><trkpt lat="60.1141064800" lon="32.3067054246"><ele>-34.22</ele><time>2025-09-11T22:43:19Z</time></trkpt><trkpt lat="60.1142935641" lon="32.3062996566"><ele>-36.50</ele><time>2025-09-11T22:43:22Z</time></trkpt><trkpt lat="60.1144292671" lon="32.3060431704"><ele>-37.31</ele><time>2025-09-11T22:43:25Z</time></trkpt><trkpt lat="60.1144676562" lon="32.3060201202"><ele>-37.30</ele><time>2025-09-11T22:43:26Z</time></trkpt><trkpt lat="60.1145063806" lon="32.3060123250"><ele>-37.28</ele><time>2025-09-11T22:43:27Z</time></trkpt><trkpt lat="60.1145416684" lon="32.3060171865"><ele>-37.25</ele><time>2025-09-11T22:43:28Z</time></trkpt><trkpt lat="60.1145718433" lon="32.3060185276"><ele>-37.24</ele><time>2025-09-11T22:43:29Z</time></trkpt><trkpt lat="60.1145967375" lon="32.3060138337"><ele>-38.32</ele><time>2025-09-11T22:43:30Z</time></trkpt><trkpt lat="60.1147706620" lon="32.3059554957"><ele>-38.02</ele><time>2025-09-11T22:43:42Z</time></trkpt><trkpt lat="60.1149926148" lon="32.3057941440"><ele>-37.75</ele><time>2025-09-11T22:43:52Z</time></trkpt><trkpt lat="60.1150220353" lon="32.3057171144"><ele>-37.73</ele><time>2025-09-11T22:43:53Z</time></trkpt><trkpt lat="60.1150911022" lon="32.3055144399"><ele>-37.66</ele><time>2025-09-11T22:43:55Z</time></trkpt><trkpt lat="60.1151403878" lon="32.3054118454"><ele>-37.63</ele><time>2025-09-11T22:43:56Z</time></trkpt><trkpt lat="60.1157353353" lon="32.3046386149"><ele>-35.10</ele><time>2025-09-11T22:44:04Z</time></trkpt><trkpt lat="60.1161619741" lon="32.3042231239"><ele>-35.02</ele><time>2025-09-11T22:44:09Z</time></trkpt><trkpt lat="60.1162241679" lon="32.3042145744"><ele>-34.99</ele><time>2025-09-11T22:44:10Z</time></trkpt><trkpt lat="60.1162762195" lon="32.3042566516"><ele>-34.96</ele><time>2025-09-11T22:44:11Z</time></trkpt><trkpt lat="60.1163171232" lon="32.3043373693"><ele>-34.94</ele><time>2025-09-11T22:44:12Z</time></trkpt><trkpt lat="60.1163498126" lon="32.3044433165"><ele>-34.91</ele><time>2025-09-11T22:44:13Z</time></trkpt><trkpt lat="60.1163769700" lon="32.3045661952"><ele>-34.90</ele><time>2025-09-11T22:44:14Z</time></trkpt><trkpt lat="60.1163978409" lon="32.3047091067"><ele>-34.86</ele><time>2025-09-11T22:44:15Z</time></trkpt><trkpt lat="60.1164182089" lon="32.3048681952"><ele>-34.83</ele><time>2025-09-11T22:44:16Z</time></trkpt><trkpt lat="60.1166689117" lon="32.3068267107"><ele>-32.15</ele><time>2025-09-11T22:44:25Z</time></trkpt><trkpt lat="60.1170971431" lon="32.3098619655"><ele>-31.02</ele><time>2025-09-11T22:44:36Z</time></trkpt><trkpt lat="60.1177930925" lon="32.3147851601"><ele>-30.69</ele><time>2025-09-11T22:44:53Z</time></trkpt><trkpt lat="60.1179210003" lon="32.3155797645"><ele>-33.04</ele><time>2025-09-11T22:44:57Z</time></trkpt><trkpt lat="60.1180096809" lon="32.3161170445"><ele>-33.78</ele><time>2025-09-11T22:45:01Z</time></trkpt><trkpt lat="60.1180427056" lon="32.3162553459"><ele>-33.74</ele><time>2025-09-11T22:45:02Z</time></trkpt><trkpt lat="60.1180842798" lon="32.3163982574"><ele>-33.72</ele><time>2025-09-11T22:45:03Z</time></trkpt><trkpt lat="60.1181354932" lon="32.3165393248"><ele>-33.71</ele><time>2025-09-11T22:45:04Z</time></trkpt><trkpt lat="60.1181970164" lon="32.3166709207"><ele>-33.69</ele><time>2025-09-11T22:45:05Z</time></trkpt><trkpt lat="60.1182659157" lon="32.3167910334"><ele>-33.66</ele><time>2025-09-11T22:45:06Z</time></trkpt><trkpt lat="60.1183393411" lon="32.3169029318"><ele>-33.65</ele><time>2025-09-11T22:45:07Z</time></trkpt><trkpt lat="60.1184245013" lon="32.3170068674"><ele>-33.62</ele><time>2025-09-11T22:45:08Z</time></trkpt><trkpt lat="60.1185124274" lon="32.3171073664"><ele>-33.60</ele><time>2025-09-11T22:45:09Z</time></trkpt><trkpt lat="60.1186012756" lon="32.3172212765"><ele>-33.57</ele><time>2025-09-11T22:45:10Z</time></trkpt><trkpt lat="60.1193671301" lon="32.3183201440"><ele>-33.36</ele><time>2025-09-11T22:45:19Z</time></trkpt><trkpt lat="60.1193957962" lon="32.3183900490"><ele>-34.71</ele><time>2025-09-11T22:45:20Z</time></trkpt><trkpt lat="60.1194017474" lon="32.3184507340"><ele>-34.69</ele><time>2025-09-11T22:45:21Z</time></trkpt><trkpt lat="60.1193958800" lon="32.3185156938"><ele>-34.67</ele><time>2025-09-11T22:45:22Z</time></trkpt><trkpt lat="60.1193792000" lon="32.3185864370"><ele>-34.64</ele><time>2025-09-11T22:45:23Z</time></trkpt><trkpt lat="60.1193519589" lon="32.3186648916"><ele>-34.62</ele><time>2025-09-11T22:45:24Z</time></trkpt><trkpt lat="60.1193210296" lon="32.3187406640"><ele>-34.60</ele><time>2025-09-11T22:45:25Z</time></trkpt><trkpt lat="60.1192858256" lon="32.3188229743"><ele>-34.57</ele><time>2025-09-11T22:45:26Z</time></trkpt><trkpt lat="60.1191396452" lon="32.3192483559"><ele>-30.51</ele><time>2025-09-11T22:45:31Z</time></trkpt></trkseg><trkseg><trkpt lat="60.1175963692" lon="32.3202678468"><ele>134.45</ele><time>2025-09-15T05:40:41Z</time></trkpt><trkpt lat="60.1204476412" lon="32.3236263916"><ele>133.68</ele><time>2025-09-15T05:40:50Z</time></trkpt><trkpt lat="60.1206955779" lon="32.3239128012"><ele>131.68</ele><time>2025-09-15T05:40:57Z</time></trkpt><trkpt lat="60.1210630406" lon="32.3243608139"><ele>128.58</ele><time>2025-09-15T05:41:09Z</time></trkpt><trkpt lat="60.1209361386" lon="32.3241773341"><ele>125.53</ele><time>2025-09-15T05:41:19Z</time></trkpt><trkpt lat="60.1209199615" lon="32.3241351731"><ele>122.52</ele><time>2025-09-15T05:41:31Z</time></trkpt><trkpt lat="60.1203892194" lon="32.3234606814"><ele>119.29</ele><time>2025-09-15T05:41:42Z</time></trkpt><trkpt lat="60.1206032094" lon="32.3237892520"><ele>116.04</ele><time>2025-09-15T05:41:55Z</time></trkpt><trkpt lat="60.1206151955" lon="32.3237763438"><ele>112.80</ele><time>2025-09-15T05:42:07Z</time></trkpt><trkpt lat="60.1204913948" lon="32.3236403894"><ele>109.72</ele><time>2025-09-15T05:42:22Z</time></trkpt><trkpt lat="60.1184861921" lon="32.3206449486"><ele>106.70</ele><time>2025-09-15T05:42:39Z</time></trkpt><trkpt lat="60.1185028721" lon="32.3207396641"><ele>103.68</ele><time>2025-09-15T05:43:38Z</time></trkpt><trkpt lat="60.1186116692" lon="32.3211530596"><ele>100.68</ele><time>2025-09-15T05:45:12Z</time></trkpt><trkpt lat="60.1184762176" lon="32.3210340366"><ele>98.72</ele><time>2025-09-15T05:46:03Z</time></trkpt><trkpt lat="60.1188632939" lon="32.3209311906"><ele>96.13</ele><time>2025-09-15T05:47:13Z</time></trkpt><trkpt lat="60.1186128426" lon="32.3209403269"><ele>95.13</ele><time>2025-09-15T05:48:02Z</time></trkpt><trkpt lat="60.1185921393" lon="32.3209223896"><ele>95.02</ele><time>2025-09-15T05:48:05Z</time></trkpt><trkpt lat="60.1184742898" lon="32.3207513150"><ele>91.98</ele><time>2025-09-15T05:49:32Z</time></trkpt><trkpt lat="60.1183733717" lon="32.3205745406"><ele>88.95</ele><time>2025-09-15T05:51:21Z</time></trkpt><trkpt lat="60.1184439473" lon="32.3206983414"><ele>85.94</ele><time>2025-09-15T05:54:57Z</time></trkpt><trkpt lat="60.1183100045" lon="32.3207391612"><ele>85.63</ele><time>2025-09-15T05:55:49Z</time></trkpt><trkpt lat="60.1182887983" lon="32.3207260855"><ele>85.56</ele><time>2025-09-15T05:55:52Z</time></trkpt><trkpt lat="60.1181830186" lon="32.3206615448"><ele>85.30</ele><time>2025-09-15T05:56:04Z</time></trkpt><trkpt lat="60.1182048116" lon="32.3206639756"><ele>84.79</ele><time>2025-09-15T05:56:25Z</time></trkpt><trkpt lat="60.1182966772" lon="32.3206866067"><ele>84.56</ele><time>2025-09-15T05:56:35Z</time></trkpt><trkpt lat="60.1183911413" lon="32.3207286838"><ele>84.29</ele><time>2025-09-15T05:56:47Z</time></trkpt><trkpt lat="60.1185278501" lon="32.3210254032"><ele>83.68</ele><time>2025-09-15T05:57:14Z</time></trkpt><trkpt lat="60.1182356570" lon="32.3209408298"><ele>82.69</ele><time>2025-09-15T05:57:59Z</time></trkpt><trkpt lat="60.1181290392" lon="32.3208699189"><ele>82.54</ele><time>2025-09-15T05:58:06Z</time></trkpt><trkpt lat="60.1181524247" lon="32.3208321165"><ele>81.98</ele><time>2025-09-15T05:58:31Z</time></trkpt><trkpt lat="60.1181363314" lon="32.3208057135"><ele>81.93</ele><time>2025-09-15T05:58:34Z</time></trkpt><trkpt lat="60.1182909776" lon="32.3209286761"><ele>81.34</ele><time>2025-09-15T05:59:02Z</time></trkpt><trkpt lat="60.1183815859" lon="32.3210285883"><ele>81.14</ele><time>2025-09-15T05:59:10Z</time></trkpt><trkpt lat="60.1183856931" lon="32.3211072944"><ele>80.93</ele><time>2025-09-15T05:59:19Z</time></trkpt><trkpt lat="60.1183628105" lon="32.3211005051"><ele>80.87</ele><time>2025-09-15T05:59:22Z</time></trkpt><trkpt lat="60.1182229165" lon="32.3209951445"><ele>80.60</ele><time>2025-09-15T05:59:33Z</time></trkpt><trkpt lat="60.1180746406" lon="32.3207395803"><ele>80.06</ele><time>2025-09-15T05:59:52Z</time></trkpt><trkpt lat="60.1183062326" lon="32.3209801409"><ele>78.67</ele><time>2025-09-15T06:00:35Z</time></trkpt><trkpt lat="60.1183536742" lon="32.3210306000"><ele>78.48</ele><time>2025-09-15T06:00:40Z</time></trkpt><trkpt lat="60.1180827711" lon="32.3208176158"><ele>77.32</ele><time>2025-09-15T06:01:13Z</time></trkpt><trkpt lat="60.1180836093" lon="32.3208394926"><ele>76.40</ele><time>2025-09-15T06:01:38Z</time></trkpt><trkpt lat="60.1180596370" lon="32.3208084796"><ele>76.26</ele><time>2025-09-15T06:01:42Z</time></trkpt><trkpt lat="60.1179563720" lon="32.3206861876"><ele>76.00</ele><time>2025-09-15T06:01:52Z</time></trkpt><trkpt lat="60.1179662626" lon="32.3206128459"><ele>75.64</ele><time>2025-09-15T06:02:07Z</time></trkpt><trkpt lat="60.1183539256" lon="32.3206607066"><ele>73.86</ele><time>2025-09-15T06:02:54Z</time></trkpt><trkpt lat="60.1185407583" lon="32.3207780533"><ele>70.80</ele><time>2025-09-15T06:04:08Z</time></trkpt><trkpt lat="60.1185981743" lon="32.3207776342"><ele>70.43</ele><time>2025-09-15T06:04:17Z</time></trkpt><trkpt lat="60.1187783014" lon="32.3208835814"><ele>69.43</ele><time>2025-09-15T06:04:42Z</time></trkpt><trkpt lat="60.1188837457" lon="32.3209382314"><ele>68.10</ele><time>2025-09-15T06:05:19Z</time></trkpt><trkpt lat="60.1188896131" lon="32.3209452722"><ele>67.59</ele><time>2025-09-15T06:05:34Z</time></trkpt><trkpt lat="60.1185576897" lon="32.3207961582"><ele>65.30</ele><time>2025-09-15T06:06:46Z</time></trkpt><trkpt lat="60.1187317818" lon="32.3209374771"><ele>64.74</ele><time>2025-09-15T06:07:03Z</time></trkpt><trkpt lat="60.1187130064" lon="32.3209640477"><ele>61.70</ele><time>2025-09-15T06:08:27Z</time></trkpt><trkpt lat="60.1186853461" lon="32.3210100643"><ele>60.61</ele><time>2025-09-15T06:08:58Z</time></trkpt><trkpt lat="60.1183349825" lon="32.3208294343"><ele>57.54</ele><time>2025-09-15T06:10:40Z</time></trkpt><trkpt lat="60.1178814378" lon="32.3202153761"><ele>55.58</ele><time>2025-09-15T06:11:49Z</time></trkpt><trkpt lat="60.1177652646" lon="32.3201619834"><ele>55.18</ele><time>2025-09-15T06:12:03Z</time></trkpt><trkpt lat="60.1177539490" lon="32.3202021327"><ele>55.07</ele><time>2025-09-15T06:12:07Z</time></trkpt><trkpt lat="60.1177623309" lon="32.3202162143"><ele>55.01</ele><time>2025-09-15T06:12:09Z</time></trkpt><trkpt lat="60.1180707850" lon="32.3206135165"><ele>54.30</ele><time>2025-09-15T06:12:34Z</time></trkpt><trkpt lat="60.1181702781" lon="32.3206932284"><ele>54.00</ele><time>2025-09-15T06:12:44Z</time></trkpt><trkpt lat="60.1181953400" lon="32.3208033666"><ele>53.08</ele><time>2025-09-15T06:13:18Z</time></trkpt><trkpt lat="60.1182245091" lon="32.3208436836"><ele>50.04</ele><time>2025-09-15T06:15:06Z</time></trkpt><trkpt lat="60.1186239067" lon="32.3211305123"><ele>47.79</ele><time>2025-09-15T06:16:28Z</time></trkpt><trkpt lat="60.1187948138" lon="32.3212260660"><ele>47.63</ele><time>2025-09-15T06:16:37Z</time></trkpt><trkpt lat="60.1184639800" lon="32.3211698234"><ele>44.73</ele><time>2025-09-15T06:18:39Z</time></trkpt><trkpt lat="60.1182413567" lon="32.3207342159"><ele>42.91</ele><time>2025-09-15T06:20:18Z</time></trkpt><trkpt lat="60.1179665979" lon="32.3204379994"><ele>42.52</ele><time>2025-09-15T06:20:40Z</time></trkpt><trkpt lat="60.1181390975" lon="32.3206708487"><ele>41.46</ele><time>2025-09-15T06:21:36Z</time></trkpt><trkpt lat="60.1181317214" lon="32.3207188770"><ele>40.99</ele><time>2025-09-15T06:22:02Z</time></trkpt><trkpt lat="60.1180505846" lon="32.3207069747"><ele>40.83</ele><time>2025-09-15T06:22:11Z</time></trkpt><trkpt lat="60.1180025563" lon="32.3206577729"><ele>40.75</ele><time>2025-09-15T06:22:15Z</time></trkpt><trkpt lat="60.1179691125" lon="32.3206684180"><ele>40.58</ele><time>2025-09-15T06:22:23Z</time></trkpt><trkpt lat="60.1179520972" lon="32.3206880316"><ele>40.56</ele><time>2025-09-15T06:22:25Z</time></trkpt><trkpt lat="60.1179335732" lon="32.3206724413"><ele>40.19</ele><time>2025-09-15T06:22:45Z</time></trkpt><trkpt lat="60.1179766562" lon="32.3206847627"><ele>39.95</ele><time>2025-09-15T06:22:58Z</time></trkpt><trkpt lat="60.1178975310" lon="32.3205965851"><ele>39.31</ele><time>2025-09-15T06:23:32Z</time></trkpt><trkpt lat="60.1178434677" lon="32.3205815814"><ele>39.11</ele><time>2025-09-15T06:23:43Z</time></trkpt><trkpt lat="60.1178330742" lon="32.3205789831"><ele>39.07</ele><time>2025-09-15T06:23:45Z</time></trkpt><trkpt lat="60.1177688688" lon="32.3205281049"><ele>38.99</ele><time>2025-09-15T06:23:49Z</time></trkpt><trkpt lat="60.1177003048" lon="32.3204515781"><ele>37.52</ele><time>2025-09-15T06:25:08Z</time></trkpt><trkpt lat="60.1177723054" lon="32.3202820122"><ele>36.88</ele><time>2025-09-15T06:25:47Z</time></trkpt><trkpt lat="60.1180434600" lon="32.3207529914"><ele>35.56</ele><time>2025-09-15T06:27:21Z</time></trkpt><trkpt lat="60.1180082560" lon="32.3207296059"><ele>35.50</ele><time>2025-09-15T06:27:25Z</time></trkpt><trkpt lat="60.1179428771" lon="32.3207379039"><ele>35.23</ele><time>2025-09-15T06:27:48Z</time></trkpt><trkpt lat="60.1179793384" lon="32.3207689170"><ele>34.62</ele><time>2025-09-15T06:28:36Z</time></trkpt><trkpt lat="60.1181535982" lon="32.3209972400"><ele>33.21</ele><time>2025-09-15T06:29:56Z</time></trkpt><trkpt lat="60.1181823481" lon="32.3209981620"><ele>33.03</ele><time>2025-09-15T06:30:07Z</time></trkpt><trkpt lat="60.1183723658" lon="32.3207395803"><ele>29.99</ele><time>2025-09-15T06:33:42Z</time></trkpt><trkpt lat="60.1184623037" lon="32.3209386505"><ele>27.43</ele><time>2025-09-15T06:36:01Z</time></trkpt><trkpt lat="60.1182207372" lon="32.3207223974"><ele>25.47</ele><time>2025-09-15T06:37:44Z</time></trkpt><trkpt lat="60.1183025446" lon="32.3207551707"><ele>24.49</ele><time>2025-09-15T06:38:43Z</time></trkpt><trkpt lat="60.1183976792" lon="32.3207268398"><ele>23.03</ele><time>2025-09-15T06:40:43Z</time></trkpt><trkpt lat="60.1184186339" lon="32.3206973355"><ele>22.87</ele><time>2025-09-15T06:41:02Z</time></trkpt><trkpt lat="60.1183953322" lon="32.3205604590"><ele>19.85</ele><time>2025-09-15T06:50:56Z</time></trkpt><trkpt lat="60.1183705218" lon="32.3206638917"><ele>19.69</ele><time>2025-09-15T06:51:09Z</time></trkpt><trkpt lat="60.1182559412" lon="32.3206955753"><ele>19.40</ele><time>2025-09-15T06:51:34Z</time></trkpt><trkpt lat="60.1182675082" lon="32.3207184579"><ele>19.37</ele><time>2025-09-15T06:51:36Z</time></trkpt><trkpt lat="60.1183121838" lon="32.3208658118"><ele>19.22</ele><time>2025-09-15T06:51:49Z</time></trkpt><trkpt lat="60.1183161233" lon="32.3208540771"><ele>19.07</ele><time>2025-09-15T06:52:01Z</time></trkpt><trkpt lat="60.1182187255" lon="32.3205752112"><ele>18.61</ele><time>2025-09-15T06:52:37Z</time></trkpt><trkpt lat="60.1182056498" lon="32.3205108382"><ele>18.21</ele><time>2025-09-15T06:53:09Z</time></trkpt><trkpt lat="60.1181796659" lon="32.3204925656"><ele>18.08</ele><time>2025-09-15T06:53:19Z</time></trkpt><trkpt lat="60.1179178990" lon="32.3203450441"><ele>17.36</ele><time>2025-09-15T06:54:27Z</time></trkpt><trkpt lat="60.1179803442" lon="32.3203911446"><ele>17.32</ele><time>2025-09-15T06:54:33Z</time></trkpt><trkpt lat="60.1186545007" lon="32.3213724978"><ele>16.68</ele><time>2025-09-15T06:55:57Z</time></trkpt><trkpt lat="60.1186441910" lon="32.3213740904"><ele>16.66</ele><time>2025-09-15T06:55:59Z</time></trkpt><trkpt lat="60.1186172850" lon="32.3214279860"><ele>16.63</ele><time>2025-09-15T06:56:03Z</time></trkpt><trkpt lat="60.1184761338" lon="32.3218323290"><ele>16.52</ele><time>2025-09-15T06:56:20Z</time></trkpt><trkpt lat="60.1184697635" lon="32.3218508530"><ele>16.52</ele><time>2025-09-15T06:56:22Z</time></trkpt><trkpt lat="60.1184494793" lon="32.3219334986"><ele>17.29</ele><time>2025-09-15T06:56:57Z</time></trkpt><trkpt lat="60.1183384191" lon="32.3211707454"><ele>17.20</ele><time>2025-09-15T06:58:01Z</time></trkpt><trkpt lat="60.1183175482" lon="32.3211139161"><ele>17.18</ele><time>2025-09-15T06:58:05Z</time></trkpt><trkpt lat="60.1183108427" lon="32.3210986611"><ele>17.16</ele><time>2025-09-15T06:58:07Z</time></trkpt><trkpt lat="60.1182507444" lon="32.3209612817"><ele>17.05</ele><time>2025-09-15T06:58:19Z</time></trkpt><trkpt lat="60.1182212401" lon="32.3209383991"><ele>16.96</ele><time>2025-09-15T06:58:28Z</time></trkpt><trkpt lat="60.1181655005" lon="32.3207812384"><ele>16.81</ele><time>2025-09-15T06:58:42Z</time></trkpt><trkpt lat="60.1181856170" lon="32.3207893688"><ele>16.78</ele><time>2025-09-15T06:58:45Z</time></trkpt><trkpt lat="60.1182209887" lon="32.3207989242"><ele>16.73</ele><time>2025-09-15T06:58:50Z</time></trkpt><trkpt lat="60.1181908976" lon="32.3206011951"><ele>16.54</ele><time>2025-09-15T06:59:05Z</time></trkpt><trkpt lat="60.1184654888" lon="32.3208149336"><ele>13.65</ele><time>2025-09-15T07:02:20Z</time></trkpt><trkpt lat="60.1184848510" lon="32.3208301887"><ele>13.24</ele><time>2025-09-15T07:02:47Z</time></trkpt><trkpt lat="60.1184564363" lon="32.3207839206"><ele>13.16</ele><time>2025-09-15T07:02:52Z</time></trkpt><trkpt lat="60.1185657363" lon="32.3207949847"><ele>11.84</ele><time>2025-09-15T07:04:12Z</time></trkpt><trkpt lat="60.1185788959" lon="32.3208228126"><ele>11.76</ele><time>2025-09-15T07:04:14Z</time></trkpt><trkpt lat="60.1185907144" lon="32.3208543286"><ele>11.71</ele><time>2025-09-15T07:04:17Z</time></trkpt><trkpt lat="60.1186576020" lon="32.3209628742"><ele>11.49</ele><time>2025-09-15T07:04:30Z</time></trkpt><trkpt lat="60.1186741143" lon="32.3209873494"><ele>11.41</ele><time>2025-09-15T07:04:34Z</time></trkpt><trkpt lat="60.1186569314" lon="32.3209608626"><ele>10.67</ele><time>2025-09-15T07:05:12Z</time></trkpt><trkpt lat="60.1186472084" lon="32.3209506366"><ele>10.62</ele><time>2025-09-15T07:05:14Z</time></trkpt><trkpt lat="60.1185234915" lon="32.3207083158"><ele>9.28</ele><time>2025-09-15T07:06:18Z</time></trkpt><trkpt lat="60.1184554305" lon="32.3205700982"><ele>8.63</ele><time>2025-09-15T07:06:46Z</time></trkpt><trkpt lat="60.1184079051" lon="32.3206011113"><ele>6.60</ele><time>2025-09-15T07:08:18Z</time></trkpt><trkpt lat="60.1187325362" lon="32.3212316819"><ele>5.51</ele><time>2025-09-15T07:09:07Z</time></trkpt><trkpt lat="60.1187588554" lon="32.3212626111"><ele>5.49</ele><time>2025-09-15T07:09:08Z</time></trkpt><trkpt lat="60.1194669586" lon="32.3221244384"><ele>5.29</ele><time>2025-09-15T07:09:29Z</time></trkpt><trkpt lat="60.1188060455" lon="32.3212989047"><ele>5.11</ele><time>2025-09-15T07:09:42Z</time></trkpt><trkpt lat="60.1187783014" lon="32.3211134970"><ele>4.11</ele><time>2025-09-15T07:10:37Z</time></trkpt><trkpt lat="60.1187231485" lon="32.3209984973"><ele>3.84</ele><time>2025-09-15T07:10:50Z</time></trkpt><trkpt lat="60.1186034549" lon="32.3208390735"><ele>3.66</ele><time>2025-09-15T07:10:58Z</time></trkpt><trkpt lat="60.1185216475" lon="32.3207089864"><ele>3.41</ele><time>2025-09-15T07:11:10Z</time></trkpt><trkpt lat="60.1184731163" lon="32.3206221499"><ele>3.22</ele><time>2025-09-15T07:11:19Z</time></trkpt><trkpt lat="60.1185793988" lon="32.3206871096"><ele>1.12</ele><time>2025-09-15T07:12:55Z</time></trkpt><trkpt lat="60.1185029559" lon="32.3209088109"><ele>0.01</ele><time>2025-09-15T07:13:48Z</time></trkpt><trkpt lat="60.1185271796" lon="32.3209245689"><ele>-0.26</ele><time>2025-09-15T07:14:03Z</time></trkpt><trkpt lat="60.1185374893" lon="32.3209365550"><ele>-0.30</ele><time>2025-09-15T07:14:05Z</time></trkpt><trkpt lat="60.1186582725" lon="32.3210722581"><ele>-0.57</ele><time>2025-09-15T07:14:19Z</time></trkpt><trkpt lat="60.1183738746" lon="32.3207223136"><ele>-3.27</ele><time>2025-09-15T07:17:10Z</time></trkpt><trkpt lat="60.1183146983" lon="32.3205856886"><ele>-3.45</ele><time>2025-09-15T07:17:30Z</time></trkpt><trkpt lat="60.1182860322" lon="32.3205427732"><ele>-3.49</ele><time>2025-09-15T07:17:33Z</time></trkpt><trkpt lat="60.1185371540" lon="32.3208160233"><ele>-3.90</ele><time>2025-09-15T07:18:38Z</time></trkpt><trkpt lat="60.1183747128" lon="32.3206326272"><ele>-3.94</ele><time>2025-09-15T07:18:47Z</time></trkpt><trkpt lat="60.1183493994" lon="32.3205927294"><ele>-3.96</ele><time>2025-09-15T07:18:50Z</time></trkpt><trkpt lat="60.1182669215" lon="32.3204636481"><ele>-4.11</ele><time>2025-09-15T07:19:22Z</time></trkpt><trkpt lat="60.1182559412" lon="32.3206640594"><ele>-4.24</ele><time>2025-09-15T07:20:16Z</time></trkpt><trkpt lat="60.1183552667" lon="32.3209754471"><ele>-4.39</ele><time>2025-09-15T07:21:10Z</time></trkpt><trkpt lat="60.1184659917" lon="32.3211302608"><ele>-4.54</ele><time>2025-09-15T07:21:47Z</time></trkpt><trkpt lat="60.1182871219" lon="32.3207539972"><ele>-4.76</ele><time>2025-09-15T07:22:34Z</time></trkpt><trkpt lat="60.1182902232" lon="32.3205357324"><ele>-4.97</ele><time>2025-09-15T07:27:06Z</time></trkpt><trkpt lat="60.1184185501" lon="32.3208658956"><ele>-4.25</ele><time>2025-09-15T07:28:25Z</time></trkpt><trkpt lat="60.1184554305" lon="32.3209137563"><ele>-4.25</ele><time>2025-09-15T07:28:30Z</time></trkpt><trkpt lat="60.1186441910" lon="32.3210289236"><ele>-4.24</ele><time>2025-09-15T07:28:58Z</time></trkpt><trkpt lat="60.1182712801" lon="32.3206752911"><ele>-4.21</ele><time>2025-09-15T07:29:26Z</time></trkpt><trkpt lat="60.1183165424" lon="32.3207433522"><ele>-4.16</ele><time>2025-09-15T07:29:41Z</time></trkpt><trkpt lat="60.1183303725" lon="32.3207701743"><ele>-4.12</ele><time>2025-09-15T07:30:02Z</time></trkpt><trkpt lat="60.1182928216" lon="32.3207021970"><ele>-4.03</ele><time>2025-09-15T07:30:33Z</time></trkpt><trkpt lat="60.1182993595" lon="32.3208561726"><ele>-3.88</ele><time>2025-09-15T07:31:28Z</time></trkpt><trkpt lat="60.1184110064" lon="32.3208257463"><ele>-3.69</ele><time>2025-09-15T07:32:41Z</time></trkpt><trkpt lat="60.1183240023" lon="32.3207957391"><ele>-3.45</ele><time>2025-09-15T07:34:18Z</time></trkpt><trkpt lat="60.1181503292" lon="32.3208050430"><ele>-3.39</ele><time>2025-09-15T07:34:43Z</time></trkpt><trkpt lat="60.1182530914" lon="32.3209415842"><ele>-3.36</ele><time>2025-09-15T07:35:32Z</time></trkpt><trkpt lat="60.1183525845" lon="32.3210156802"><ele>-3.38</ele><time>2025-09-15T07:35:48Z</time></trkpt><trkpt lat="60.1184373256" lon="32.3211227171"><ele>-3.35</ele><time>2025-09-15T07:35:53Z</time></trkpt><trkpt lat="60.1185223181" lon="32.3211240582"><ele>-3.32</ele><time>2025-09-15T07:36:07Z</time></trkpt><trkpt lat="60.1185358129" lon="32.3210772034"><ele>-3.31</ele><time>2025-09-15T07:36:11Z</time></trkpt><trkpt lat="60.1184850186" lon="32.3208208848"><ele>-3.26</ele><time>2025-09-15T07:36:26Z</time></trkpt><trkpt lat="60.1183635648" lon="32.3205206450"><ele>-3.23</ele><time>2025-09-15T07:36:43Z</time></trkpt><trkpt lat="60.1181792468" lon="32.3205493949"><ele>-3.13</ele><time>2025-09-15T07:37:14Z</time></trkpt><trkpt lat="60.1181585435" lon="32.3206509836"><ele>-3.06</ele><time>2025-09-15T07:37:32Z</time></trkpt><trkpt lat="60.1181266923" lon="32.3206902947"><ele>-3.01</ele><time>2025-09-15T07:37:54Z</time></trkpt><trkpt lat="60.1181468926" lon="32.3207435198"><ele>-2.98</ele><time>2025-09-15T07:37:57Z</time></trkpt><trkpt lat="60.1182052307" lon="32.3207342997"><ele>-2.91</ele><time>2025-09-15T07:38:20Z</time></trkpt><trkpt lat="60.1181357447" lon="32.3204913922"><ele>-2.81</ele><time>2025-09-15T07:38:55Z</time></trkpt><trkpt lat="60.1182750519" lon="32.3206666578"><ele>-2.51</ele><time>2025-09-15T07:40:45Z</time></trkpt><trkpt lat="60.1182084996" lon="32.3208163586"><ele>-2.22</ele><time>2025-09-15T07:42:25Z</time></trkpt><trkpt lat="60.1181579567" lon="32.3208101559"><ele>-2.10</ele><time>2025-09-15T07:43:03Z</time></trkpt><trkpt lat="60.1180895604" lon="32.3206120078"><ele>-2.07</ele><time>2025-09-15T07:43:13Z</time></trkpt><trkpt lat="60.1177945174" lon="32.3203200661"><ele>-1.80</ele><time>2025-09-15T07:44:20Z</time></trkpt><trkpt lat="60.1178578008" lon="32.3204609659"><ele>-1.77</ele><time>2025-09-15T07:44:29Z</time></trkpt><trkpt lat="60.1181732118" lon="32.3206524085"><ele>-1.42</ele><time>2025-09-15T07:45:46Z</time></trkpt><trkpt lat="60.1181925740" lon="32.3205472995"><ele>-1.05</ele><time>2025-09-15T07:47:05Z</time></trkpt><trkpt lat="60.1181215793" lon="32.3206080683"><ele>-0.90</ele><time>2025-09-15T07:47:35Z</time></trkpt><trkpt lat="60.1182555221" lon="32.3208643030"><ele>-0.54</ele><time>2025-09-15T07:48:42Z</time></trkpt><trkpt lat="60.1183092501" lon="32.3205466289"><ele>0.18</ele><time>2025-09-15T07:51:02Z</time></trkpt><trkpt lat="60.1182467211" lon="32.3205334693"><ele>0.31</ele><time>2025-09-15T07:51:56Z</time></trkpt><trkpt lat="60.1182544325" lon="32.3206359800"><ele>0.35</ele><time>2025-09-15T07:52:33Z</time></trkpt><trkpt lat="60.1182611380" lon="32.3207066394"><ele>0.38</ele><time>2025-09-15T07:53:26Z</time></trkpt><trkpt lat="60.1183679234" lon="32.3207399156"><ele>0.41</ele><time>2025-09-15T07:53:49Z</time></trkpt><trkpt lat="60.1182913128" lon="32.3207026999"><ele>0.43</ele><time>2025-09-15T07:54:00Z</time></trkpt><trkpt lat="60.1182825118" lon="32.3206761293"><ele>0.44</ele><time>2025-09-15T07:54:12Z</time></trkpt><trkpt lat="60.1182082482" lon="32.3205674160"><ele>0.57</ele><time>2025-09-15T07:56:13Z</time></trkpt><trkpt lat="60.1181660872" lon="32.3207407538"><ele>0.60</ele><time>2025-09-15T07:56:36Z</time></trkpt><trkpt lat="60.1181191485" lon="32.3206206411"><ele>0.61</ele><time>2025-09-15T07:56:51Z</time></trkpt><trkpt lat="60.1180675998" lon="32.3205970041"><ele>1.46</ele><time>2025-09-15T07:57:52Z</time></trkpt><trkpt lat="60.1177448966" lon="32.3203827627"><ele>1.53</ele><time>2025-09-15T07:58:59Z</time></trkpt><trkpt lat="60.1176759973" lon="32.3203336447"><ele>1.56</ele><time>2025-09-15T07:59:49Z</time></trkpt><trkpt lat="60.1174687129" lon="32.3203413561"><ele>1.56</ele><time>2025-09-15T07:59:59Z</time></trkpt><trkpt lat="60.1180238463" lon="32.3203749675"><ele>1.56</ele><time>2025-09-15T08:00:17Z</time></trkpt><trkpt lat="60.1180619001" lon="32.3204849381"><ele>1.42</ele><time>2025-09-15T08:01:25Z</time></trkpt><trkpt lat="60.1181385107" lon="32.3205601238"><ele>1.38</ele><time>2025-09-15T08:01:49Z</time></trkpt><trkpt lat="60.1181183103" lon="32.3205128498"><ele>1.28</ele><time>2025-09-15T08:02:42Z</time></trkpt><trkpt lat="60.1180922426" lon="32.3207315337"><ele>1.56</ele><time>2025-09-15T08:04:23Z</time></trkpt><trkpt lat="60.1179308072" lon="32.3206906300"><ele>1.49</ele><time>2025-09-15T08:04:33Z</time></trkpt><trkpt lat="60.1180314738" lon="32.3206422664"><ele>1.17</ele><time>2025-09-15T08:05:35Z</time></trkpt><trkpt lat="60.1183161233" lon="32.3207353894"><ele>0.84</ele><time>2025-09-15T08:07:00Z</time></trkpt><trkpt lat="60.1182453800" lon="32.3206130136"><ele>0.71</ele><time>2025-09-15T08:07:36Z</time></trkpt><trkpt lat="60.1182915643" lon="32.3207265884"><ele>0.67</ele><time>2025-09-15T08:07:53Z</time></trkpt><trkpt lat="60.1184335537" lon="32.3208252434"><ele>0.65</ele><time>2025-09-15T08:08:01Z</time></trkpt><trkpt lat="60.1183017064" lon="32.3206064757"><ele>0.67</ele><time>2025-09-15T08:09:36Z</time></trkpt><trkpt lat="60.1183197275" lon="32.3206046317"><ele>0.68</ele><time>2025-09-15T08:09:38Z</time></trkpt><trkpt lat="60.1183157042" lon="32.3206324596"><ele>0.75</ele><time>2025-09-15T08:09:54Z</time></trkpt><trkpt lat="60.1182868704" lon="32.3205081560"><ele>0.86</ele><time>2025-09-15T08:12:00Z</time></trkpt><trkpt lat="60.1184084080" lon="32.3205410130"><ele>0.83</ele><time>2025-09-15T08:12:55Z</time></trkpt><trkpt lat="60.1182488166" lon="32.3203938268"><ele>0.88</ele><time>2025-09-15T08:14:00Z</time></trkpt><trkpt lat="60.1182654127" lon="32.3204031307"><ele>0.90</ele><time>2025-09-15T08:14:06Z</time></trkpt><trkpt lat="60.1183280256" lon="32.3203860316"><ele>0.91</ele><time>2025-09-15T08:14:17Z</time></trkpt><trkpt lat="60.1183499023" lon="32.3204250913"><ele>0.93</ele><time>2025-09-15T08:14:24Z</time></trkpt><trkpt lat="60.1183576137" lon="32.3204361554"><ele>0.91</ele><time>2025-09-15T08:14:26Z</time></trkpt><trkpt lat="60.1185091585" lon="32.3205288593"><ele>1.02</ele><time>2025-09-15T08:15:18Z</time></trkpt><trkpt lat="60.1186951529" lon="32.3206468765"><ele>1.10</ele><time>2025-09-15T08:16:17Z</time></trkpt><trkpt lat="60.1183690969" lon="32.3205245845"><ele>1.88</ele><time>2025-09-15T08:17:15Z</time></trkpt><trkpt lat="60.1183494832" lon="32.3204812501"><ele>1.90</ele><time>2025-09-15T08:17:23Z</time></trkpt><trkpt lat="60.1182565279" lon="32.3206491396"><ele>1.91</ele><time>2025-09-15T08:18:12Z</time></trkpt><trkpt lat="60.1181027200" lon="32.3205660749"><ele>1.85</ele><time>2025-09-15T08:19:24Z</time></trkpt><trkpt lat="60.1181465574" lon="32.3205934837"><ele>1.83</ele><time>2025-09-15T08:19:40Z</time></trkpt><trkpt lat="60.1182192285" lon="32.3206453677"><ele>1.82</ele><time>2025-09-15T08:19:57Z</time></trkpt><trkpt lat="60.1183442865" lon="32.3208638839"><ele>1.81</ele><time>2025-09-15T08:20:41Z</time></trkpt><trkpt lat="60.1183787361" lon="32.3208396602"><ele>1.81</ele><time>2025-09-15T08:20:44Z</time></trkpt><trkpt lat="60.1183921471" lon="32.3208126705"><ele>1.82</ele><time>2025-09-15T08:20:49Z</time></trkpt><trkpt lat="60.1184748765" lon="32.3206914682"><ele>1.81</ele><time>2025-09-15T08:21:33Z</time></trkpt><trkpt lat="60.1185490564" lon="32.3207172845"><ele>1.81</ele><time>2025-09-15T08:21:38Z</time></trkpt><trkpt lat="60.1186376531" lon="32.3207942303"><ele>1.81</ele><time>2025-09-15T08:22:19Z</time></trkpt><trkpt lat="60.1201940887" lon="32.3213737551"><ele>1.83</ele><time>2025-09-15T08:24:44Z</time></trkpt><trkpt lat="60.1184516586" lon="32.3209503852"><ele>1.82</ele><time>2025-09-15T08:27:37Z</time></trkpt><trkpt lat="60.1186728571" lon="32.3211298417"><ele>2.59</ele><time>2025-09-15T08:27:53Z</time></trkpt><trkpt lat="60.1181939989" lon="32.3205975909"><ele>2.53</ele><time>2025-09-15T08:28:21Z</time></trkpt><trkpt lat="60.1181157120" lon="32.3205444496"><ele>2.51</ele><time>2025-09-15T08:28:30Z</time></trkpt><trkpt lat="60.1185122598" lon="32.3210606910"><ele>2.36</ele><time>2025-09-15T08:29:43Z</time></trkpt><trkpt lat="60.1181784924" lon="32.3206403386"><ele>1.96</ele><time>2025-09-15T08:31:38Z</time></trkpt><trkpt lat="60.1181154605" lon="32.3206578568"><ele>1.96</ele><time>2025-09-15T08:31:46Z</time></trkpt><trkpt lat="60.1180764847" lon="32.3206329625"><ele>1.95</ele><time>2025-09-15T08:31:55Z</time></trkpt><trkpt lat="60.1180576254" lon="32.3206155282"><ele>1.92</ele><time>2025-09-15T08:32:01Z</time></trkpt><trkpt lat="60.1177295577" lon="32.3204416037"><ele>1.90</ele><time>2025-09-15T08:32:30Z</time></trkpt><trkpt lat="60.1179308072" lon="32.3201811779"><ele>1.90</ele><time>2025-09-15T08:33:01Z</time></trkpt><trkpt lat="60.1185550913" lon="32.3217326682"><ele>1.89</ele><time>2025-09-15T08:33:25Z</time></trkpt><trkpt lat="60.1185605396" lon="32.3217649385"><ele>1.89</ele><time>2025-09-15T08:33:26Z</time></trkpt><trkpt lat="60.1184876170" lon="32.3228400014"><ele>1.90</ele><time>2025-09-15T08:33:41Z</time></trkpt><trkpt lat="60.1180089265" lon="32.3235311732"><ele>1.90</ele><time>2025-09-15T08:33:58Z</time></trkpt><trkpt lat="60.1177429687" lon="32.3239760008"><ele>-2.64</ele><time>2025-09-15T08:34:08Z</time></trkpt><trkpt lat="60.1177174039" lon="32.3240185808"><ele>-2.60</ele><time>2025-09-15T08:34:09Z</time></trkpt><trkpt lat="60.1176858041" lon="32.3240714706"><ele>6.26</ele><time>2025-09-15T08:34:10Z</time></trkpt></trkseg><trkseg><trkpt lat="60.1184352301" lon="32.3204358201"><ele>22.18</ele><time>2025-11-10T05:31:27Z</time></trkpt><trkpt lat="60.1184194721" lon="32.3204682581"><ele>22.18</ele><time>2025-11-10T05:31:32Z</time></trkpt><trkpt lat="60.1186491363" lon="32.3213898484"><ele>22.18</ele><time>2025-11-10T05:35:18Z</time></trkpt><trkpt lat="60.1183865312" lon="32.3211439233"><ele>22.18</ele><time>2025-11-10T05:35:28Z</time></trkpt><trkpt lat="60.1182419434" lon="32.3209981620"><ele>22.18</ele><time>2025-11-10T05:36:25Z</time></trkpt><trkpt lat="60.1182365790" lon="32.3210739344"><ele>22.18</ele><time>2025-11-10T05:36:50Z</time></trkpt><trkpt lat="60.1182861160" lon="32.3210970685"><ele>22.18</ele><time>2025-11-10T05:36:57Z</time></trkpt><trkpt lat="60.1183136925" lon="32.3211484496"><ele>22.19</ele><time>2025-11-10T05:37:14Z</time></trkpt><trkpt lat="60.1183264330" lon="32.3211697396"><ele>22.18</ele><time>2025-11-10T05:37:20Z</time></trkpt><trkpt lat="60.1183264330" lon="32.3211697396"><ele>22.18</ele><time>2025-11-10T05:37:21Z</time></trkpt><trkpt lat="60.1183243375" lon="32.3211766127"><ele>22.19</ele><time>2025-11-10T05:37:28Z</time></trkpt><trkpt lat="60.1183368266" lon="32.3211945500"><ele>22.18</ele><time>2025-11-10T05:37:39Z</time></trkpt><trkpt lat="60.1183325518" lon="32.3211964779"><ele>22.18</ele><time>2025-11-10T05:37:48Z</time></trkpt><trkpt lat="60.1184064802" lon="32.3212849069"><ele>22.18</ele><time>2025-11-10T05:37:56Z</time></trkpt><trkpt lat="60.1184331346" lon="32.3213056941"><ele>22.18</ele><time>2025-11-10T05:38:00Z</time></trkpt><trkpt lat="60.1184327155" lon="32.3213232122"><ele>22.18</ele><time>2025-11-10T05:38:04Z</time></trkpt><trkpt lat="60.1183530875" lon="32.3212823924"><ele>22.19</ele><time>2025-11-10T05:39:12Z</time></trkpt><trkpt lat="60.1183392573" lon="32.3212187737"><ele>22.18</ele><time>2025-11-10T05:39:30Z</time></trkpt><trkpt lat="60.1183285285" lon="32.3211785406"><ele>22.18</ele><time>2025-11-10T05:39:35Z</time></trkpt><trkpt lat="60.1182831824" lon="32.3211362120"><ele>22.18</ele><time>2025-11-10T05:39:42Z</time></trkpt><trkpt lat="60.1182534266" lon="32.3210894410"><ele>22.18</ele><time>2025-11-10T05:39:49Z</time></trkpt><trkpt lat="60.1182353217" lon="32.3210816458"><ele>22.17</ele><time>2025-11-10T05:39:55Z</time></trkpt><trkpt lat="60.1182952523" lon="32.3210645467"><ele>22.18</ele><time>2025-11-10T05:40:02Z</time></trkpt><trkpt lat="60.1183677558" lon="32.3210923746"><ele>22.18</ele><time>2025-11-10T05:40:15Z</time></trkpt><trkpt lat="60.1183324680" lon="32.3211265728"><ele>22.18</ele><time>2025-11-10T05:40:24Z</time></trkpt><trkpt lat="60.1184191369" lon="32.3213494476"><ele>22.17</ele><time>2025-11-10T05:41:23Z</time></trkpt><trkpt lat="60.1183925662" lon="32.3213346954"><ele>22.18</ele><time>2025-11-10T05:41:29Z</time></trkpt><trkpt lat="60.1184348110" lon="32.3213499505"><ele>22.18</ele><time>2025-11-10T05:41:58Z</time></trkpt><trkpt lat="60.1183807477" lon="32.3212652933"><ele>22.18</ele><time>2025-11-10T05:42:06Z</time></trkpt><trkpt lat="60.1183887944" lon="32.3212438356"><ele>22.18</ele><time>2025-11-10T05:42:09Z</time></trkpt><trkpt lat="60.1184127666" lon="32.3212394770"><ele>22.18</ele><time>2025-11-10T05:42:12Z</time></trkpt><trkpt lat="60.1184343919" lon="32.3212319333"><ele>22.18</ele><time>2025-11-10T05:42:34Z</time></trkpt><trkpt lat="60.1183866989" lon="32.3211860843"><ele>22.18</ele><time>2025-11-10T05:42:58Z</time></trkpt><trkpt lat="60.1183970086" lon="32.3211595137"><ele>22.18</ele><time>2025-11-10T05:43:12Z</time></trkpt><trkpt lat="60.1184171252" lon="32.3211492877"><ele>22.19</ele><time>2025-11-10T05:43:15Z</time></trkpt><trkpt lat="60.1184180472" lon="32.3211471923"><ele>22.18</ele><time>2025-11-10T05:43:24Z</time></trkpt><trkpt lat="60.1183992717" lon="32.3210346233"><ele>22.18</ele><time>2025-11-10T05:43:40Z</time></trkpt><trkpt lat="60.1183810830" lon="32.3210832383"><ele>22.18</ele><time>2025-11-10T05:43:46Z</time></trkpt><trkpt lat="60.1183740422" lon="32.3210518062"><ele>22.18</ele><time>2025-11-10T05:44:01Z</time></trkpt><trkpt lat="60.1183368266" lon="32.3211021814"><ele>22.18</ele><time>2025-11-10T05:44:22Z</time></trkpt><trkpt lat="60.1183061488" lon="32.3210990801"><ele>22.18</ele><time>2025-11-10T05:44:27Z</time></trkpt><trkpt lat="60.1183212362" lon="32.3212472722"><ele>22.19</ele><time>2025-11-10T05:44:49Z</time></trkpt><trkpt lat="60.1183251757" lon="32.3212546483"><ele>22.19</ele><time>2025-11-10T05:44:52Z</time></trkpt><trkpt lat="60.1184493117" lon="32.3213277385"><ele>21.41</ele><time>2025-11-10T05:46:30Z</time></trkpt><trkpt lat="60.1184152812" lon="32.3213290796"><ele>21.41</ele><time>2025-11-10T05:46:33Z</time></trkpt><trkpt lat="60.1184305362" lon="32.3213326838"><ele>21.41</ele><time>2025-11-10T05:47:09Z</time></trkpt><trkpt lat="60.1183079928" lon="32.3212690651"><ele>20.57</ele><time>2025-11-10T05:53:48Z</time></trkpt><trkpt lat="60.1183778979" lon="32.3216584045"><ele>20.57</ele><time>2025-11-10T05:56:15Z</time></trkpt><trkpt lat="60.1183936559" lon="32.3217048403"><ele>20.57</ele><time>2025-11-10T05:56:21Z</time></trkpt><trkpt lat="60.1182508282" lon="32.3212483618"><ele>20.57</ele><time>2025-11-10T05:57:32Z</time></trkpt><trkpt lat="60.1184212323" lon="32.3212237190"><ele>20.57</ele><time>2025-11-10T05:57:56Z</time></trkpt><trkpt lat="60.1184442826" lon="32.3212050274"><ele>20.57</ele><time>2025-11-10T05:58:01Z</time></trkpt><trkpt lat="60.1185167860" lon="32.3213243019"><ele>20.57</ele><time>2025-11-10T05:58:29Z</time></trkpt><trkpt lat="60.1185504813" lon="32.3214441631"><ele>20.57</ele><time>2025-11-10T05:58:40Z</time></trkpt><trkpt lat="60.1185431890" lon="32.3214115575"><ele>20.57</ele><time>2025-11-10T05:58:45Z</time></trkpt><trkpt lat="60.1185526606" lon="32.3214843124"><ele>20.57</ele><time>2025-11-10T05:58:49Z</time></trkpt><trkpt lat="60.1185436919" lon="32.3214245494"><ele>20.56</ele><time>2025-11-10T05:59:17Z</time></trkpt><trkpt lat="60.1185032073" lon="32.3214025050"><ele>20.57</ele><time>2025-11-10T05:59:34Z</time></trkpt><trkpt lat="60.1184849348" lon="32.3214422353"><ele>20.57</ele><time>2025-11-10T05:59:44Z</time></trkpt><trkpt lat="60.1184975915" lon="32.3213676363"><ele>20.57</ele><time>2025-11-10T05:59:50Z</time></trkpt><trkpt lat="60.1185192168" lon="32.3214275669"><ele>20.57</ele><time>2025-11-10T06:00:01Z</time></trkpt><trkpt lat="60.1185187977" lon="32.3214134015"><ele>20.57</ele><time>2025-11-10T06:00:07Z</time></trkpt><trkpt lat="60.1185374893" lon="32.3214631900"><ele>20.57</ele><time>2025-11-10T06:00:18Z</time></trkpt><trkpt lat="60.1185728610" lon="32.3214783613"><ele>22.03</ele><time>2025-11-10T06:02:51Z</time></trkpt><trkpt lat="60.1185319573" lon="32.3214393854"><ele>22.92</ele><time>2025-11-10T06:03:22Z</time></trkpt><trkpt lat="60.1184686739" lon="32.3215206899"><ele>25.92</ele><time>2025-11-10T06:05:19Z</time></trkpt><trkpt lat="60.1183929015" lon="32.3216091190"><ele>27.22</ele><time>2025-11-10T06:06:18Z</time></trkpt><trkpt lat="60.1182949170" lon="32.3217803612"><ele>27.12</ele><time>2025-11-10T06:06:50Z</time></trkpt><trkpt lat="60.1183317974" lon="32.3217281420"><ele>27.67</ele><time>2025-11-10T06:07:19Z</time></trkpt><trkpt lat="60.1183511596" lon="32.3217784334"><ele>28.15</ele><time>2025-11-10T06:07:52Z</time></trkpt><trkpt lat="60.1184079889" lon="32.3217127193"><ele>28.57</ele><time>2025-11-10T06:08:24Z</time></trkpt><trkpt lat="60.1184377447" lon="32.3215796147"><ele>28.94</ele><time>2025-11-10T06:08:55Z</time></trkpt><trkpt lat="60.1184271835" lon="32.3214575741"><ele>29.25</ele><time>2025-11-10T06:09:27Z</time></trkpt><trkpt lat="60.1183821727" lon="32.3214580771"><ele>29.63</ele><time>2025-11-10T06:10:02Z</time></trkpt><trkpt lat="60.1183515787" lon="32.3214241304"><ele>30.03</ele><time>2025-11-10T06:10:39Z</time></trkpt><trkpt lat="60.1183621399" lon="32.3214597534"><ele>29.47</ele><time>2025-11-10T06:10:57Z</time></trkpt><trkpt lat="60.1184034627" lon="32.3214123119"><ele>29.85</ele><time>2025-11-10T06:11:34Z</time></trkpt><trkpt lat="60.1184524968" lon="32.3213384673"><ele>30.14</ele><time>2025-11-10T06:12:04Z</time></trkpt><trkpt lat="60.1184074860" lon="32.3215008248"><ele>30.39</ele><time>2025-11-10T06:12:33Z</time></trkpt><trkpt lat="60.1183789037" lon="32.3214729130"><ele>30.65</ele><time>2025-11-10T06:13:06Z</time></trkpt><trkpt lat="60.1183434483" lon="32.3215378728"><ele>30.86</ele><time>2025-11-10T06:13:39Z</time></trkpt><trkpt lat="60.1183719467" lon="32.3214496952"><ele>31.03</ele><time>2025-11-10T06:14:13Z</time></trkpt><trkpt lat="60.1183944941" lon="32.3212383036"><ele>31.18</ele><time>2025-11-10T06:14:47Z</time></trkpt><trkpt lat="60.1183864474" lon="32.3213433288"><ele>31.25</ele><time>2025-11-10T06:15:20Z</time></trkpt><trkpt lat="60.1183906384" lon="32.3212214559"><ele>31.28</ele><time>2025-11-10T06:16:16Z</time></trkpt><trkpt lat="60.1184201427" lon="32.3210752755"><ele>31.25</ele><time>2025-11-10T06:16:39Z</time></trkpt><trkpt lat="60.1183771435" lon="32.3213230446"><ele>31.18</ele><time>2025-11-10T06:17:11Z</time></trkpt><trkpt lat="60.1183540933" lon="32.3211026844"><ele>30.63</ele><time>2025-11-10T06:20:33Z</time></trkpt><trkpt lat="60.1183823403" lon="32.3210080527"><ele>30.57</ele><time>2025-11-10T06:20:42Z</time></trkpt><trkpt lat="60.1184618846" lon="32.3207604513"><ele>30.36</ele><time>2025-11-10T06:21:14Z</time></trkpt><trkpt lat="60.1184522454" lon="32.3207110818"><ele>30.16</ele><time>2025-11-10T06:21:47Z</time></trkpt><trkpt lat="60.1184286084" lon="32.3207284324"><ele>30.05</ele><time>2025-11-10T06:22:03Z</time></trkpt><trkpt lat="60.1184561849" lon="32.3206209764"><ele>29.81</ele><time>2025-11-10T06:22:47Z</time></trkpt><trkpt lat="60.1184603758" lon="32.3205832578"><ele>29.42</ele><time>2025-11-10T06:23:46Z</time></trkpt><trkpt lat="60.1184224058" lon="32.3207056336"><ele>28.97</ele><time>2025-11-10T06:24:43Z</time></trkpt><trkpt lat="60.1184438635" lon="32.3207099084"><ele>28.69</ele><time>2025-11-10T06:25:15Z</time></trkpt><trkpt lat="60.1184561010" lon="32.3207397480"><ele>28.33</ele><time>2025-11-10T06:26:00Z</time></trkpt><trkpt lat="60.1184274349" lon="32.3208170291"><ele>27.20</ele><time>2025-11-10T06:26:37Z</time></trkpt><trkpt lat="60.1184662431" lon="32.3206361476"><ele>26.73</ele><time>2025-11-10T06:27:36Z</time></trkpt><trkpt lat="60.1184114255" lon="32.3205602076"><ele>26.28</ele><time>2025-11-10T06:28:25Z</time></trkpt><trkpt lat="60.1183746289" lon="32.3206040449"><ele>25.91</ele><time>2025-11-10T06:28:59Z</time></trkpt><trkpt lat="60.1184003614" lon="32.3206400871"><ele>25.55</ele><time>2025-11-10T06:29:30Z</time></trkpt><trkpt lat="60.1184314582" lon="32.3206579406"><ele>25.11</ele><time>2025-11-10T06:30:05Z</time></trkpt><trkpt lat="60.1184577774" lon="32.3206439428"><ele>23.60</ele><time>2025-11-10T06:31:01Z</time></trkpt><trkpt lat="60.1184835099" lon="32.3206064757"><ele>23.21</ele><time>2025-11-10T06:31:31Z</time></trkpt><trkpt lat="60.1184412651" lon="32.3205577768"><ele>22.71</ele><time>2025-11-10T06:32:09Z</time></trkpt><trkpt lat="60.1184218191" lon="32.3206462897"><ele>22.27</ele><time>2025-11-10T06:32:41Z</time></trkpt><trkpt lat="60.1184068155" lon="32.3207388259"><ele>22.05</ele><time>2025-11-10T06:32:58Z</time></trkpt><trkpt lat="60.1183913928" lon="32.3208017740"><ele>21.61</ele><time>2025-11-10T06:33:30Z</time></trkpt><trkpt lat="60.1183981821" lon="32.3208083957"><ele>21.21</ele><time>2025-11-10T06:34:02Z</time></trkpt><trkpt lat="60.1183401793" lon="32.3209627904"><ele>20.82</ele><time>2025-11-10T06:34:35Z</time></trkpt><trkpt lat="60.1183263492" lon="32.3210050352"><ele>20.79</ele><time>2025-11-10T06:34:38Z</time></trkpt><trkpt lat="60.1182924025" lon="32.3211489525"><ele>20.44</ele><time>2025-11-10T06:35:12Z</time></trkpt><trkpt lat="60.1182808354" lon="32.3211055342"><ele>20.10</ele><time>2025-11-10T06:35:44Z</time></trkpt><trkpt lat="60.1182898879" lon="32.3210891057"><ele>19.84</ele><time>2025-11-10T06:36:13Z</time></trkpt><trkpt lat="60.1182600483" lon="32.3210968170"><ele>19.57</ele><time>2025-11-10T06:36:42Z</time></trkpt><trkpt lat="60.1182336453" lon="32.3210975714"><ele>19.30</ele><time>2025-11-10T06:37:13Z</time></trkpt><trkpt lat="60.1182593778" lon="32.3211516347"><ele>19.00</ele><time>2025-11-10T06:37:48Z</time></trkpt><trkpt lat="60.1182771474" lon="32.3212006688"><ele>18.58</ele><time>2025-11-10T06:38:27Z</time></trkpt><trkpt lat="60.1183225773" lon="32.3211751040"><ele>17.77</ele><time>2025-11-10T06:39:33Z</time></trkpt><trkpt lat="60.1183437835" lon="32.3210132495"><ele>17.41</ele><time>2025-11-10T06:40:05Z</time></trkpt><trkpt lat="60.1183642354" lon="32.3208679073"><ele>17.08</ele><time>2025-11-10T06:40:36Z</time></trkpt><trkpt lat="60.1183813345" lon="32.3208741937"><ele>16.79</ele><time>2025-11-10T06:41:03Z</time></trkpt><trkpt lat="60.1184140239" lon="32.3208619561"><ele>16.36</ele><time>2025-11-10T06:41:43Z</time></trkpt><trkpt lat="60.1184363198" lon="32.3208747804"><ele>15.96</ele><time>2025-11-10T06:42:15Z</time></trkpt><trkpt lat="60.1184393372" lon="32.3207528237"><ele>15.49</ele><time>2025-11-10T06:42:50Z</time></trkpt><trkpt lat="60.1184095815" lon="32.3207509797"><ele>15.01</ele><time>2025-11-10T06:43:25Z</time></trkpt><trkpt lat="60.1183633134" lon="32.3208748642"><ele>14.62</ele><time>2025-11-10T06:43:54Z</time></trkpt><trkpt lat="60.1183577813" lon="32.3208799772"><ele>14.18</ele><time>2025-11-10T06:44:25Z</time></trkpt><trkpt lat="60.1183965895" lon="32.3208136763"><ele>13.73</ele><time>2025-11-10T06:44:58Z</time></trkpt><trkpt lat="60.1184117608" lon="32.3207866866"><ele>13.26</ele><time>2025-11-10T06:45:30Z</time></trkpt><trkpt lat="60.1184253395" lon="32.3207804840"><ele>12.77</ele><time>2025-11-10T06:46:03Z</time></trkpt><trkpt lat="60.1184877846" lon="32.3207789753"><ele>12.26</ele><time>2025-11-10T06:46:38Z</time></trkpt><trkpt lat="60.1184898801" lon="32.3207608704"><ele>12.14</ele><time>2025-11-10T06:46:47Z</time></trkpt><trkpt lat="60.1184889581" lon="32.3206918873"><ele>11.66</ele><time>2025-11-10T06:47:23Z</time></trkpt><trkpt lat="60.1184237469" lon="32.3206851818"><ele>11.23</ele><time>2025-11-10T06:47:57Z</time></trkpt><trkpt lat="60.1183848549" lon="32.3207931407"><ele>10.85</ele><time>2025-11-10T06:48:29Z</time></trkpt><trkpt lat="60.1183680072" lon="32.3207541648"><ele>10.46</ele><time>2025-11-10T06:49:03Z</time></trkpt><trkpt lat="60.1183811668" lon="32.3207418434"><ele>10.15</ele><time>2025-11-10T06:49:35Z</time></trkpt><trkpt lat="60.1184005290" lon="32.3207979184"><ele>9.85</ele><time>2025-11-10T06:50:07Z</time></trkpt><trkpt lat="60.1183992717" lon="32.3207573500"><ele>9.60</ele><time>2025-11-10T06:50:35Z</time></trkpt><trkpt lat="60.1183933206" lon="32.3207474593"><ele>9.32</ele><time>2025-11-10T06:51:08Z</time></trkpt><trkpt lat="60.1183418557" lon="32.3206137680"><ele>8.50</ele><time>2025-11-10T06:53:07Z</time></trkpt><trkpt lat="60.1183380838" lon="32.3207051307"><ele>8.31</ele><time>2025-11-10T06:53:38Z</time></trkpt><trkpt lat="60.0789189991" lon="32.3167798016"><ele>6.51</ele><time>2025-11-10T07:06:26Z</time></trkpt><trkpt lat="60.0787800271" lon="32.3170410655"><ele>6.48</ele><time>2025-11-10T07:06:27Z</time></trkpt><trkpt lat="60.0787061825" lon="32.3173402157"><ele>5.70</ele><time>2025-11-10T07:06:28Z</time></trkpt><trkpt lat="60.0786371995" lon="32.3176058382"><ele>4.42</ele><time>2025-11-10T07:06:29Z</time></trkpt><trkpt lat="60.0785293244" lon="32.3178924993"><ele>4.40</ele><time>2025-11-10T07:06:30Z</time></trkpt><trkpt lat="60.0783968903" lon="32.3181814235"><ele>4.44</ele><time>2025-11-10T07:06:31Z</time></trkpt><trkpt lat="60.0782988220" lon="32.3184556793"><ele>3.65</ele><time>2025-11-10T07:06:32Z</time></trkpt><trkpt lat="60.0773073267" lon="32.3208842520"><ele>3.76</ele><time>2025-11-10T07:06:42Z</time></trkpt><trkpt lat="60.0762833934" lon="32.3230318632"><ele>3.88</ele><time>2025-11-10T07:06:52Z</time></trkpt><trkpt lat="60.0761636160" lon="32.3231782950"><ele>3.89</ele><time>2025-11-10T07:06:53Z</time></trkpt><trkpt lat="60.0760349538" lon="32.3232919537"><ele>3.89</ele><time>2025-11-10T07:06:54Z</time></trkpt><trkpt lat="60.0758920424" lon="32.3233673070"><ele>6.19</ele><time>2025-11-10T07:06:55Z</time></trkpt><trkpt lat="60.0757436827" lon="32.3234123178"><ele>6.18</ele><time>2025-11-10T07:06:56Z</time></trkpt><trkpt lat="60.0755928084" lon="32.3234377149"><ele>6.19</ele><time>2025-11-10T07:06:57Z</time></trkpt><trkpt lat="60.0754396711" lon="32.3234478571"><ele>7.11</ele><time>2025-11-10T07:06:58Z</time></trkpt><trkpt lat="60.0731774792" lon="32.3233117349"><ele>7.89</ele><time>2025-11-10T07:07:12Z</time></trkpt><trkpt lat="60.0720113888" lon="32.3231794685"><ele>10.93</ele><time>2025-11-10T07:07:19Z</time></trkpt><trkpt lat="60.0713531580" lon="32.3231383134"><ele>13.17</ele><time>2025-11-10T07:07:23Z</time></trkpt><trkpt lat="60.0710288621" lon="32.3231143411"><ele>14.74</ele><time>2025-11-10T07:07:25Z</time></trkpt><trkpt lat="60.0707060751" lon="32.3230960686"><ele>16.04</ele><time>2025-11-10T07:07:27Z</time></trkpt><trkpt lat="60.0680473354" lon="32.3230040353"><ele>17.53</ele><time>2025-11-10T07:07:44Z</time></trkpt><trkpt lat="60.0675761886" lon="32.3229886126"><ele>13.42</ele><time>2025-11-10T07:07:47Z</time></trkpt><trkpt lat="60.0674167648" lon="32.3229813203"><ele>13.39</ele><time>2025-11-10T07:07:48Z</time></trkpt><trkpt lat="60.0662417058" lon="32.3229133431"><ele>10.22</ele><time>2025-11-10T07:07:55Z</time></trkpt><trkpt lat="60.0624567736" lon="32.3227013648"><ele>10.42</ele><time>2025-11-10T07:08:17Z</time></trkpt><trkpt lat="60.0586194545" lon="32.3225087486"><ele>10.33</ele><time>2025-11-10T07:08:39Z</time></trkpt><trkpt lat="60.0539106689" lon="32.3222764861"><ele>10.18</ele><time>2025-11-10T07:09:05Z</time></trkpt><trkpt lat="60.0509745721" lon="32.3221499193"><ele>12.59</ele><time>2025-11-10T07:09:21Z</time></trkpt><trkpt lat="60.0477044564" lon="32.3219774198"><ele>13.69</ele><time>2025-11-10T07:09:39Z</time></trkpt><trkpt lat="60.0439328514" lon="32.3217879888"><ele>13.59</ele><time>2025-11-10T07:09:59Z</time></trkpt><trkpt lat="60.0400373619" lon="32.3216009885"><ele>14.22</ele><time>2025-11-10T07:10:20Z</time></trkpt><trkpt lat="60.0380469114" lon="32.3214980587"><ele>14.14</ele><time>2025-11-10T07:10:32Z</time></trkpt><trkpt lat="60.0367834233" lon="32.3211010918"><ele>14.02</ele><time>2025-11-10T07:10:42Z</time></trkpt><trkpt lat="60.0357833784" lon="32.3205077369"><ele>11.50</ele><time>2025-11-10T07:10:50Z</time></trkpt><trkpt lat="60.0351263210" lon="32.3201001249"><ele>10.51</ele><time>2025-11-10T07:10:57Z</time></trkpt><trkpt lat="60.0350578409" lon="32.3200226761"><ele>10.64</ele><time>2025-11-10T07:11:03Z</time></trkpt><trkpt lat="60.0350473635" lon="32.3200519290"><ele>9.84</ele><time>2025-11-10T07:11:20Z</time></trkpt><trkpt lat="60.0350661390" lon="32.3202016298"><ele>9.82</ele><time>2025-11-10T07:11:25Z</time></trkpt><trkpt lat="60.0350939669" lon="32.3202153761"><ele>9.82</ele><time>2025-11-10T07:11:26Z</time></trkpt><trkpt lat="60.0351238903" lon="32.3202269431"><ele>9.83</ele><time>2025-11-10T07:11:27Z</time></trkpt><trkpt lat="60.0351999141" lon="32.3202535138"><ele>9.82</ele><time>2025-11-10T07:11:29Z</time></trkpt><trkpt lat="60.0356283132" lon="32.3204920627"><ele>8.89</ele><time>2025-11-10T07:11:36Z</time></trkpt><trkpt lat="60.0350468606" lon="32.3200278729"><ele>16.11</ele><time>2025-11-10T08:52:17Z</time></trkpt><trkpt lat="59.7788679879" lon="32.4562508147"><ele>19.50</ele><time>2025-11-10T08:52:45Z</time></trkpt><trkpt lat="59.7789902799" lon="32.4569583312"><ele>19.49</ele><time>2025-11-10T08:52:46Z</time></trkpt><trkpt lat="59.7795825452" lon="32.4603830092"><ele>19.44</ele><time>2025-11-10T08:53:27Z</time></trkpt><trkpt lat="59.7795825452" lon="32.4603830092"><ele>19.44</ele><time>2025-11-10T08:53:38Z</time></trkpt><trkpt lat="59.7756022308" lon="32.4412253313"><ele>20.71</ele><time>2025-11-10T08:53:54Z</time></trkpt><trkpt lat="59.7758490779" lon="32.4425993767"><ele>21.99</ele><time>2025-11-10T08:53:56Z</time></trkpt><trkpt lat="59.7776728962" lon="32.4513572082"><ele>22.48</ele><time>2025-11-10T08:54:09Z</time></trkpt><trkpt lat="59.7799024824" lon="32.4597661849"><ele>22.86</ele><time>2025-11-10T08:54:22Z</time></trkpt><trkpt lat="59.7824955080" lon="32.4676761869"><ele>23.27</ele><time>2025-11-10T08:54:35Z</time></trkpt><trkpt lat="59.7858719900" lon="32.4762131553"><ele>23.48</ele><time>2025-11-10T08:54:50Z</time></trkpt><trkpt lat="59.7876851633" lon="32.4808234535"><ele>24.23</ele><time>2025-11-10T08:54:58Z</time></trkpt><trkpt lat="59.7945855651" lon="32.4648968317"><ele>24.23</ele><time>2025-11-10T08:55:09Z</time></trkpt><trkpt lat="59.7929323185" lon="32.4887387361"><ele>24.34</ele><time>2025-11-10T08:55:14Z</time></trkpt><trkpt lat="59.7963186074" lon="32.4939800240"><ele>24.73</ele><time>2025-11-10T08:55:26Z</time></trkpt><trkpt lat="59.7998105083" lon="32.4989204854"><ele>24.90</ele><time>2025-11-10T08:55:38Z</time></trkpt><trkpt lat="59.8035252839" lon="32.5026365183"><ele>25.27</ele><time>2025-11-10T08:55:50Z</time></trkpt><trkpt lat="59.8082968500" lon="32.5064736698"><ele>25.62</ele><time>2025-11-10T08:56:04Z</time></trkpt><trkpt lat="59.8135854956" lon="32.5096473098"><ele>25.93</ele><time>2025-11-10T08:56:18Z</time></trkpt><trkpt lat="59.8186122905" lon="32.5117518380"><ele>26.30</ele><time>2025-11-10T08:56:32Z</time></trkpt><trkpt lat="59.8237491399" lon="32.5128695648"><ele>26.66</ele><time>2025-11-10T08:56:46Z</time></trkpt><trkpt lat="59.8288906831" lon="32.5130139850"><ele>27.03</ele><time>2025-11-10T08:57:00Z</time></trkpt><trkpt lat="59.8340187315" lon="32.5121767167"><ele>27.39</ele><time>2025-11-10T08:57:14Z</time></trkpt><trkpt lat="59.8358316533" lon="32.5116282888"><ele>25.08</ele><time>2025-11-10T08:57:19Z</time></trkpt><trkpt lat="59.8407588713" lon="32.5094487425"><ele>26.40</ele><time>2025-11-10T08:57:33Z</time></trkpt><trkpt lat="59.8457634542" lon="32.5063522160"><ele>26.73</ele><time>2025-11-10T08:57:47Z</time></trkpt><trkpt lat="59.8505833838" lon="32.5023724884"><ele>27.08</ele><time>2025-11-10T08:58:01Z</time></trkpt><trkpt lat="59.8572980426" lon="32.4985144660"><ele>27.21</ele><time>2025-11-10T08:58:13Z</time></trkpt><trkpt lat="59.8560305312" lon="32.4975635391"><ele>24.44</ele><time>2025-11-10T08:58:15Z</time></trkpt><trkpt lat="59.8574934248" lon="32.4958238751"><ele>27.60</ele><time>2025-11-10T08:57:42Z</time></trkpt><trkpt lat="59.8578130268" lon="32.4954437558"><ele>27.61</ele><time>2025-11-10T08:57:43Z</time></trkpt><trkpt lat="59.8584466148" lon="32.4946903065"><ele>27.58</ele><time>2025-11-10T08:57:45Z</time></trkpt><trkpt lat="59.6851112042" lon="32.1441255882"><ele>27.56</ele><time>2025-11-10T08:57:51Z</time></trkpt><trkpt lat="59.6849176660" lon="32.1448365413"><ele>27.58</ele><time>2025-11-10T08:57:55Z</time></trkpt><trkpt lat="59.6849096194" lon="32.1448555682"><ele>24.61</ele><time>2025-11-10T08:57:57Z</time></trkpt><trkpt lat="59.6848937776" lon="32.1448654588"><ele>26.23</ele><time>2025-11-10T08:58:04Z</time></trkpt><trkpt lat="59.6849121340" lon="32.1449127328"><ele>25.95</ele><time>2025-11-10T08:58:43Z</time></trkpt><trkpt lat="59.6849170793" lon="32.1449083742"><ele>30.86</ele><time>2025-11-10T08:58:55Z</time></trkpt><trkpt lat="59.6849170793" lon="32.1449083742"><ele>15.84</ele><time>2025-11-10T09:06:16Z</time></trkpt><trkpt lat="59.6847362816" lon="32.1448610164"><ele>15.84</ele><time>2025-11-10T09:06:17Z</time></trkpt><trkpt lat="59.6849055961" lon="32.1449797880"><ele>15.91</ele><time>2025-11-10T09:06:37Z</time></trkpt><trkpt lat="59.6848835517" lon="32.1449745912"><ele>18.44</ele><time>2025-11-10T09:07:07Z</time></trkpt><trkpt lat="59.6848825458" lon="32.1449668799"><ele>18.47</ele><time>2025-11-10T09:07:08Z</time></trkpt><trkpt lat="59.6849791054" lon="32.1446798835"><ele>19.33</ele><time>2025-11-10T09:07:28Z</time></trkpt><trkpt lat="59.6851285547" lon="32.1444446035"><ele>20.20</ele><time>2025-11-10T09:07:48Z</time></trkpt><trkpt lat="59.6851405408" lon="32.1444138419"><ele>20.20</ele><time>2025-11-10T09:07:50Z</time></trkpt><trkpt lat="59.6852430515" lon="32.1441747062"><ele>22.80</ele><time>2025-11-10T09:08:14Z</time></trkpt><trkpt lat="59.6853359230" lon="32.1440745424"><ele>23.76</ele><time>2025-11-10T09:08:28Z</time></trkpt><trkpt lat="59.6853866335" lon="32.1440233290"><ele>24.61</ele><time>2025-11-10T09:08:47Z</time></trkpt><trkpt lat="59.6854499169" lon="32.1440639812"><ele>24.58</ele><time>2025-11-10T09:08:57Z</time></trkpt><trkpt lat="59.6854749788" lon="32.1441801544"><ele>24.56</ele><time>2025-11-10T09:09:01Z</time></trkpt><trkpt lat="59.6847429033" lon="32.1461785678"><ele>24.56</ele><time>2025-11-10T09:09:06Z</time></trkpt><trkpt lat="59.6846655384" lon="32.1470641997"><ele>25.58</ele><time>2025-11-10T09:09:17Z</time></trkpt><trkpt lat="59.6846667118" lon="32.1470949613"><ele>25.59</ele><time>2025-11-10T09:09:18Z</time></trkpt><trkpt lat="59.6862766240" lon="32.1458202414"><ele>25.48</ele><time>2025-11-10T09:09:25Z</time></trkpt><trkpt lat="59.6863557491" lon="32.1453768387"><ele>25.34</ele><time>2025-11-10T09:09:33Z</time></trkpt><trkpt lat="59.6867603436" lon="32.1449829731"><ele>25.24</ele><time>2025-11-10T09:09:42Z</time></trkpt><trkpt lat="59.6867292468" lon="32.1449292451"><ele>25.20</ele><time>2025-11-10T09:09:52Z</time></trkpt><trkpt lat="59.7117326315" lon="32.1233690623"><ele>25.22</ele><time>2025-11-10T09:10:00Z</time></trkpt><trkpt lat="59.7111945972" lon="32.1241158061"><ele>25.24</ele><time>2025-11-10T09:10:09Z</time></trkpt><trkpt lat="59.7110977862" lon="32.1244303789"><ele>25.24</ele><time>2025-11-10T09:10:12Z</time></trkpt><trkpt lat="59.7110401187" lon="32.1247414313"><ele>25.24</ele><time>2025-11-10T09:10:15Z</time></trkpt><trkpt lat="59.7110294737" lon="32.1250289306"><ele>25.24</ele><time>2025-11-10T09:10:18Z</time></trkpt><trkpt lat="59.7110433038" lon="32.1252082195"><ele>25.23</ele><time>2025-11-10T09:10:20Z</time></trkpt><trkpt lat="59.7110926732" lon="32.1254548989"><ele>25.22</ele><time>2025-11-10T09:10:23Z</time></trkpt><trkpt lat="59.7112631612" lon="32.1258171648"><ele>25.23</ele><time>2025-11-10T09:10:26Z</time></trkpt><trkpt lat="59.6865725052" lon="32.1425176878"><ele>25.23</ele><time>2025-11-10T09:10:41Z</time></trkpt><trkpt lat="59.6865752712" lon="32.1426450927"><ele>25.28</ele><time>2025-11-10T09:10:56Z</time></trkpt><trkpt lat="59.6867351141" lon="32.1424939670"><ele>25.37</ele><time>2025-11-10T09:11:16Z</time></trkpt><trkpt lat="59.6868375409" lon="32.1423882712"><ele>22.34</ele><time>2025-11-10T09:11:29Z</time></trkpt><trkpt lat="59.6868470125" lon="32.1423836611"><ele>22.38</ele><time>2025-11-10T09:11:30Z</time></trkpt><trkpt lat="59.6868658718" lon="32.1423597727"><ele>24.82</ele><time>2025-11-10T09:11:32Z</time></trkpt><trkpt lat="59.6870328393" lon="32.1421301086"><ele>24.78</ele><time>2025-11-10T09:11:51Z</time></trkpt><trkpt lat="59.6872389503" lon="32.1418775618"><ele>24.66</ele><time>2025-11-10T09:12:14Z</time></trkpt><trkpt lat="59.6872911695" lon="32.1418526676"><ele>21.87</ele><time>2025-11-10T09:12:19Z</time></trkpt><trkpt lat="59.6874277107" lon="32.1417742129"><ele>21.69</ele><time>2025-11-10T09:12:37Z</time></trkpt><trkpt lat="59.6875179838" lon="32.1416660026"><ele>21.63</ele><time>2025-11-10T09:12:55Z</time></trkpt><trkpt lat="59.6875161398" lon="32.1415577922"><ele>21.47</ele><time>2025-11-10T09:13:07Z</time></trkpt><trkpt lat="59.6875401959" lon="32.1414203290"><ele>21.46</ele><time>2025-11-10T09:13:11Z</time></trkpt><trkpt lat="59.6875347476" lon="32.1413665172"><ele>21.42</ele><time>2025-11-10T09:13:15Z</time></trkpt><trkpt lat="59.6875550319" lon="32.1413484961"><ele>21.40</ele><time>2025-11-10T09:13:22Z</time></trkpt><trkpt lat="59.6876173094" lon="32.1413413715"><ele>21.33</ele><time>2025-11-10T09:13:33Z</time></trkpt><trkpt lat="59.6877147909" lon="32.1412940137"><ele>21.29</ele><time>2025-11-10T09:13:44Z</time></trkpt><trkpt lat="59.6877478156" lon="32.1413406171"><ele>21.20</ele><time>2025-11-10T09:13:53Z</time></trkpt><trkpt lat="59.6878097579" lon="32.1414708719"><ele>21.10</ele><time>2025-11-10T09:14:08Z</time></trkpt><trkpt lat="59.6878496557" lon="32.1415986959"><ele>21.05</ele><time>2025-11-10T09:14:22Z</time></trkpt><trkpt lat="59.6878670063" lon="32.1415778250"><ele>20.95</ele><time>2025-11-10T09:14:37Z</time></trkpt><trkpt lat="59.6878439561" lon="32.1414411999"><ele>20.11</ele><time>2025-11-10T09:14:51Z</time></trkpt><trkpt lat="59.6878412738" lon="32.1414411161"><ele>20.11</ele><time>2025-11-10T09:14:52Z</time></trkpt><trkpt lat="59.6878002863" lon="32.1414276212"><ele>20.04</ele><time>2025-11-10T09:15:06Z</time></trkpt><trkpt lat="59.6878043935" lon="32.1414297167"><ele>20.02</ele><time>2025-11-10T09:15:09Z</time></trkpt><trkpt lat="59.6877438761" lon="32.1415313892"><ele>19.97</ele><time>2025-11-10T09:15:19Z</time></trkpt><trkpt lat="59.6877095103" lon="32.1414694469"><ele>19.88</ele><time>2025-11-10T09:15:31Z</time></trkpt><trkpt lat="59.6876025572" lon="32.1413173154"><ele>19.79</ele><time>2025-11-10T09:15:53Z</time></trkpt><trkpt lat="59.6875334065" lon="32.1411227714"><ele>19.69</ele><time>2025-11-10T09:16:12Z</time></trkpt><trkpt lat="59.6875169780" lon="32.1409941930"><ele>19.56</ele><time>2025-11-10T09:16:29Z</time></trkpt><trkpt lat="59.6874677762" lon="32.1407954581"><ele>19.43</ele><time>2025-11-10T09:16:47Z</time></trkpt><trkpt lat="59.6874664351" lon="32.1407724917"><ele>19.44</ele><time>2025-11-10T09:16:49Z</time></trkpt><trkpt lat="59.6873754915" lon="32.1404637024"><ele>19.25</ele><time>2025-11-10T09:17:09Z</time></trkpt><trkpt lat="59.6872981265" lon="32.1402936336"><ele>19.13</ele><time>2025-11-10T09:17:26Z</time></trkpt><trkpt lat="59.6872621682" lon="32.1401601937"><ele>19.05</ele><time>2025-11-10T09:17:37Z</time></trkpt><trkpt lat="59.6871977951" lon="32.1399980038"><ele>18.93</ele><time>2025-11-10T09:18:01Z</time></trkpt><trkpt lat="59.6871473361" lon="32.1398664080"><ele>18.83</ele><time>2025-11-10T09:18:19Z</time></trkpt><trkpt lat="59.6871024929" lon="32.1396916453"><ele>18.70</ele><time>2025-11-10T09:18:41Z</time></trkpt><trkpt lat="59.6870610863" lon="32.1395148709"><ele>18.65</ele><time>2025-11-10T09:19:00Z</time></trkpt><trkpt lat="59.6870320849" lon="32.1393795032"><ele>18.50</ele><time>2025-11-10T09:19:19Z</time></trkpt><trkpt lat="59.6870283131" lon="32.1393677685"><ele>18.50</ele><time>2025-11-10T09:19:20Z</time></trkpt><trkpt lat="59.6869816259" lon="32.1393324807"><ele>18.44</ele><time>2025-11-10T09:19:28Z</time></trkpt><trkpt lat="59.6869387943" lon="32.1392330714"><ele>18.33</ele><time>2025-11-10T09:19:43Z</time></trkpt><trkpt lat="59.6868747566" lon="32.1391173173"><ele>18.25</ele><time>2025-11-10T09:19:53Z</time></trkpt><trkpt lat="59.6867641993" lon="32.1389302332"><ele>17.13</ele><time>2025-11-10T09:20:15Z</time></trkpt><trkpt lat="59.6867520455" lon="32.1389111225"><ele>17.12</ele><time>2025-11-10T09:20:16Z</time></trkpt><trkpt lat="59.6867310070" lon="32.1388437320"><ele>17.10</ele><time>2025-11-10T09:20:20Z</time></trkpt><trkpt lat="59.6867380477" lon="32.1388363559"><ele>17.07</ele><time>2025-11-10T09:20:22Z</time></trkpt><trkpt lat="59.6866641194" lon="32.1386386268"><ele>17.04</ele><time>2025-11-10T09:20:26Z</time></trkpt><trkpt lat="59.6866372135" lon="32.1386405546"><ele>17.01</ele><time>2025-11-10T09:20:28Z</time></trkpt><trkpt lat="59.6866396442" lon="32.1386296581"><ele>16.99</ele><time>2025-11-10T09:20:30Z</time></trkpt><trkpt lat="59.6866059490" lon="32.1385812946"><ele>16.94</ele><time>2025-11-10T09:20:35Z</time></trkpt><trkpt lat="59.6865843236" lon="32.1385613456"><ele>16.92</ele><time>2025-11-10T09:20:37Z</time></trkpt><trkpt lat="59.6865882631" lon="32.1384673845"><ele>16.89</ele><time>2025-11-10T09:20:41Z</time></trkpt><trkpt lat="59.6865827311" lon="32.1384214517"><ele>16.87</ele><time>2025-11-10T09:20:43Z</time></trkpt><trkpt lat="59.6865569148" lon="32.1382953040"><ele>16.84</ele><time>2025-11-10T09:20:50Z</time></trkpt><trkpt lat="59.6865303442" lon="32.1381649654"><ele>16.77</ele><time>2025-11-10T09:20:57Z</time></trkpt><trkpt lat="59.6865085512" lon="32.1380580124"><ele>16.74</ele><time>2025-11-10T09:21:01Z</time></trkpt><trkpt lat="59.6864884347" lon="32.1379430126"><ele>16.64</ele><time>2025-11-10T09:21:17Z</time></trkpt><trkpt lat="59.6865761094" lon="32.1382801328"><ele>16.60</ele><time>2025-11-10T09:21:24Z</time></trkpt><trkpt lat="59.6866050269" lon="32.1384972241"><ele>16.55</ele><time>2025-11-10T09:21:28Z</time></trkpt><trkpt lat="59.6866185218" lon="32.1385562327"><ele>16.50</ele><time>2025-11-10T09:21:31Z</time></trkpt><trkpt lat="59.6866202820" lon="32.1384615172"><ele>15.66</ele><time>2025-11-10T09:21:33Z</time></trkpt><trkpt lat="59.6865424141" lon="32.1382862516"><ele>15.57</ele><time>2025-11-10T09:21:37Z</time></trkpt><trkpt lat="59.6864078008" lon="32.1378973313"><ele>15.33</ele><time>2025-11-10T09:21:48Z</time></trkpt><trkpt lat="59.6862341277" lon="32.1377004404"><ele>15.24</ele><time>2025-11-10T09:21:53Z</time></trkpt><trkpt lat="59.6862243209" lon="32.1376164537"><ele>15.13</ele><time>2025-11-10T09:21:58Z</time></trkpt><trkpt lat="59.6862106584" lon="32.1374447923"><ele>14.88</ele><time>2025-11-10T09:22:10Z</time></trkpt><trkpt lat="59.6861721855" lon="32.1372670121"><ele>13.92</ele><time>2025-11-10T09:22:23Z</time></trkpt><trkpt lat="59.6861094888" lon="32.1371857915"><ele>13.81</ele><time>2025-11-10T09:22:32Z</time></trkpt><trkpt lat="59.6860828344" lon="32.1371668484"><ele>13.76</ele><time>2025-11-10T09:22:36Z</time></trkpt><trkpt lat="59.6860752907" lon="32.1370438859"><ele>13.62</ele><time>2025-11-10T09:22:46Z</time></trkpt><trkpt lat="59.6860866062" lon="32.1369163971"><ele>13.53</ele><time>2025-11-10T09:22:53Z</time></trkpt><trkpt lat="59.6860710159" lon="32.1366884932"><ele>13.42</ele><time>2025-11-10T09:23:05Z</time></trkpt><trkpt lat="59.6860937309" lon="32.1365088690"><ele>13.37</ele><time>2025-11-10T09:23:20Z</time></trkpt><trkpt lat="59.6860967483" lon="32.1363931987"><ele>13.34</ele><time>2025-11-10T09:23:39Z</time></trkpt><trkpt lat="59.6860967483" lon="32.1363931987"><ele>12.53</ele><time>2025-11-10T09:24:18Z</time></trkpt><trkpt lat="59.7728500329" lon="32.3962053750"><ele>12.81</ele><time>2025-11-10T09:24:53Z</time></trkpt><trkpt lat="59.7726756055" lon="32.4057075195"><ele>13.33</ele><time>2025-11-10T09:25:06Z</time></trkpt><trkpt lat="59.7728993185" lon="32.4158679787"><ele>14.08</ele><time>2025-11-10T09:25:20Z</time></trkpt><trkpt lat="59.7736329027" lon="32.4259954970"><ele>14.81</ele><time>2025-11-10T09:25:34Z</time></trkpt><trkpt lat="59.7748046927" lon="32.4359203409"><ele>14.81</ele><time>2025-11-10T09:25:48Z</time></trkpt><trkpt lat="59.7764638904" lon="32.4456189573"><ele>15.55</ele><time>2025-11-10T09:26:02Z</time></trkpt><trkpt lat="59.7787675727" lon="32.4555713776"><ele>16.26</ele><time>2025-11-10T09:26:17Z</time></trkpt><trkpt lat="59.7813725006" lon="32.4644314684"><ele>17.00</ele><time>2025-11-10T09:26:31Z</time></trkpt><trkpt lat="59.7843636665" lon="32.4727518484"><ele>17.77</ele><time>2025-11-10T09:26:45Z</time></trkpt><trkpt lat="59.7877453454" lon="32.4804835673"><ele>17.56</ele><time>2025-11-10T09:26:59Z</time></trkpt><trkpt lat="59.7912265174" lon="32.4869968928"><ele>18.22</ele><time>2025-11-10T09:27:12Z</time></trkpt><trkpt lat="59.7952482384" lon="32.4933093879"><ele>18.99</ele><time>2025-11-10T09:27:26Z</time></trkpt><trkpt lat="59.7995936684" lon="32.4988208245"><ele>18.91</ele><time>2025-11-10T09:27:40Z</time></trkpt><trkpt lat="59.8038499989" lon="32.5032365788"><ele>19.53</ele><time>2025-11-10T09:27:53Z</time></trkpt><trkpt lat="59.8082716204" lon="32.5068683736"><ele>20.25</ele><time>2025-11-10T09:28:06Z</time></trkpt><trkpt lat="59.8132144287" lon="32.5098183844"><ele>20.96</ele><time>2025-11-10T09:28:20Z</time></trkpt><trkpt lat="59.8182537127" lon="32.5119087473"><ele>21.67</ele><time>2025-11-10T09:28:34Z</time></trkpt><trkpt lat="59.8233754747" lon="32.5129771046"><ele>22.34</ele><time>2025-11-10T09:28:48Z</time></trkpt><trkpt lat="59.8285558261" lon="32.5130247138"><ele>23.00</ele><time>2025-11-10T09:29:02Z</time></trkpt><trkpt lat="59.8336889874" lon="32.5121783093"><ele>23.64</ele><time>2025-11-10T09:29:16Z</time></trkpt><trkpt lat="59.8384012934" lon="32.5105259847"><ele>24.24</ele><time>2025-11-10T09:29:29Z</time></trkpt><trkpt lat="59.8433875199" lon="32.5078318734"><ele>24.87</ele><time>2025-11-10T09:29:43Z</time></trkpt><trkpt lat="59.8482026719" lon="32.5041813031"><ele>25.47</ele><time>2025-11-10T09:29:57Z</time></trkpt><trkpt lat="59.8528292309" lon="32.4996015988"><ele>26.06</ele><time>2025-11-10T09:30:11Z</time></trkpt><trkpt lat="59.8569098767" lon="32.4945869576"><ele>26.58</ele><time>2025-11-10T09:30:24Z</time></trkpt><trkpt lat="59.8610297497" lon="32.4884489737"><ele>27.17</ele><time>2025-11-10T09:30:38Z</time></trkpt><trkpt lat="59.8613122199" lon="32.4879840296"><ele>38.86</ele><time>2025-11-10T09:30:39Z</time></trkpt><trkpt lat="59.8709624726" lon="32.4664468970"><ele>27.63</ele><time>2025-11-10T09:31:18Z</time></trkpt><trkpt lat="59.8734159395" lon="32.4585507251"><ele>27.71</ele><time>2025-11-10T09:31:31Z</time></trkpt><trkpt lat="59.8757483717" lon="32.4494425301"><ele>28.32</ele><time>2025-11-10T09:31:45Z</time></trkpt><trkpt lat="59.8776250798" lon="32.4398342706"><ele>28.11</ele><time>2025-11-10T09:31:59Z</time></trkpt><trkpt lat="59.8789370153" lon="32.4307347927"><ele>28.68</ele><time>2025-11-10T09:32:12Z</time></trkpt><trkpt lat="59.8798448592" lon="32.4213992804"><ele>29.23</ele><time>2025-11-10T09:32:25Z</time></trkpt><trkpt lat="59.8803252261" lon="32.4119672924"><ele>29.76</ele><time>2025-11-10T09:32:38Z</time></trkpt><trkpt lat="59.8803758528" lon="32.4024944846"><ele>29.49</ele><time>2025-11-10T09:32:51Z</time></trkpt><trkpt lat="59.8800161853" lon="32.3928593192"><ele>29.94</ele><time>2025-11-10T09:33:04Z</time></trkpt><trkpt lat="59.8792226706" lon="32.3835364636"><ele>29.46</ele><time>2025-11-10T09:33:17Z</time></trkpt><trkpt lat="59.8780352063" lon="32.3743250873"><ele>29.87</ele><time>2025-11-10T09:33:30Z</time></trkpt><trkpt lat="59.8764366936" lon="32.3653729632"><ele>30.26</ele><time>2025-11-10T09:33:43Z</time></trkpt><trkpt lat="59.8743101209" lon="32.3561213538"><ele>30.75</ele><time>2025-11-10T09:33:57Z</time></trkpt><trkpt lat="59.8717251420" lon="32.3473480996"><ele>31.08</ele><time>2025-11-10T09:34:11Z</time></trkpt><trkpt lat="59.8687184695" lon="32.3390573915"><ele>31.76</ele><time>2025-11-10T09:34:25Z</time></trkpt><trkpt lat="59.8655840568" lon="32.3319712467"><ele>32.11</ele><time>2025-11-10T09:34:38Z</time></trkpt><trkpt lat="59.8618503381" lon="32.3250672407"><ele>32.29</ele><time>2025-11-10T09:34:52Z</time></trkpt><trkpt lat="59.8578003701" lon="32.3187643010"><ele>32.51</ele><time>2025-11-10T09:35:06Z</time></trkpt><trkpt lat="59.8537477199" lon="32.3135848716"><ele>32.75</ele><time>2025-11-10T09:35:19Z</time></trkpt><trkpt lat="59.8495450336" lon="32.3092222586"><ele>32.96</ele><time>2025-11-10T09:35:32Z</time></trkpt><trkpt lat="59.8450866155" lon="32.3057007696"><ele>33.16</ele><time>2025-11-10T09:35:45Z</time></trkpt><trkpt lat="59.8400971200" lon="32.3025231063"><ele>33.43</ele><time>2025-11-10T09:35:59Z</time></trkpt><trkpt lat="59.8349501286" lon="32.3003169056"><ele>33.81</ele><time>2025-11-10T09:36:13Z</time></trkpt><trkpt lat="59.8298207391" lon="32.2991832532"><ele>34.27</ele><time>2025-11-10T09:36:27Z</time></trkpt><trkpt lat="59.8250456527" lon="32.2990223207"><ele>34.68</ele><time>2025-11-10T09:36:40Z</time></trkpt><trkpt lat="59.8202594183" lon="32.2996788751"><ele>35.10</ele><time>2025-11-10T09:36:53Z</time></trkpt><trkpt lat="59.8151797336" lon="32.3013878614"><ele>35.53</ele><time>2025-11-10T09:37:07Z</time></trkpt><trkpt lat="59.8102005478" lon="32.3039680626"><ele>35.94</ele><time>2025-11-10T09:37:21Z</time></trkpt><trkpt lat="59.8054072727" lon="32.3075493984"><ele>36.30</ele><time>2025-11-10T09:37:35Z</time></trkpt><trkpt lat="59.8037275393" lon="32.3090446461"><ele>34.10</ele><time>2025-11-10T09:37:40Z</time></trkpt><trkpt lat="59.7991591506" lon="32.3138612229"><ele>34.48</ele><time>2025-11-10T09:37:54Z</time></trkpt><trkpt lat="59.7951355856" lon="32.3191226274"><ele>34.82</ele><time>2025-11-10T09:38:07Z</time></trkpt><trkpt lat="59.7911117692" lon="32.3254883476"><ele>35.14</ele><time>2025-11-10T09:38:21Z</time></trkpt><trkpt lat="59.7889435384" lon="32.3294326197"><ele>36.14</ele><time>2025-11-10T09:38:29Z</time></trkpt><trkpt lat="59.7854346223" lon="32.3369298968"><ele>36.40</ele><time>2025-11-10T09:38:43Z</time></trkpt><trkpt lat="59.7829206381" lon="32.3432392068"><ele>34.31</ele><time>2025-11-10T09:38:54Z</time></trkpt><trkpt lat="59.7800805978" lon="32.3517369479"><ele>34.48</ele><time>2025-11-10T09:39:08Z</time></trkpt><trkpt lat="59.7776700463" lon="32.3607603181"><ele>34.55</ele><time>2025-11-10T09:39:22Z</time></trkpt><trkpt lat="59.7757146321" lon="32.3702112492"><ele>34.67</ele><time>2025-11-10T09:39:36Z</time></trkpt><trkpt lat="59.7743124235" lon="32.3792912811"><ele>33.97</ele><time>2025-11-10T09:39:49Z</time></trkpt><trkpt lat="59.7732833773" lon="32.3894058913"><ele>31.84</ele><time>2025-11-10T09:40:03Z</time></trkpt><trkpt lat="59.7727184370" lon="32.3997418676"><ele>31.58</ele><time>2025-11-10T09:40:17Z</time></trkpt><trkpt lat="59.7726400662" lon="32.4026444368"><ele>27.82</ele><time>2025-11-10T09:40:21Z</time></trkpt><trkpt lat="59.7726279125" lon="32.4033731595"><ele>32.07</ele><time>2025-11-10T09:40:22Z</time></trkpt><trkpt lat="59.7726262361" lon="32.4041214120"><ele>32.06</ele><time>2025-11-10T09:40:23Z</time></trkpt><trkpt lat="59.7727565747" lon="32.4144112878"><ele>31.96</ele><time>2025-11-10T09:40:37Z</time></trkpt><trkpt lat="59.7733705491" lon="32.4245680589"><ele>31.92</ele><time>2025-11-10T09:40:51Z</time></trkpt><trkpt lat="59.7744023614" lon="32.4339111988"><ele>31.89</ele><time>2025-11-10T09:41:04Z</time></trkpt><trkpt lat="59.7758280393" lon="32.4429881293"><ele>31.88</ele><time>2025-11-10T09:41:17Z</time></trkpt><trkpt lat="59.7778347507" lon="32.4524667207"><ele>31.87</ele><time>2025-11-10T09:41:31Z</time></trkpt><trkpt lat="59.7802630719" lon="32.4614880793"><ele>31.88</ele><time>2025-11-10T09:41:45Z</time></trkpt><trkpt lat="59.7829485498" lon="32.4694130011"><ele>31.89</ele><time>2025-11-10T09:41:58Z</time></trkpt><trkpt lat="59.7833793797" lon="32.4705838691"><ele>29.59</ele><time>2025-11-10T09:42:00Z</time></trkpt><trkpt lat="59.7865570430" lon="32.4783152528"><ele>29.68</ele><time>2025-11-10T09:42:14Z</time></trkpt><trkpt lat="59.7899248917" lon="32.4848719966"><ele>29.87</ele><time>2025-11-10T09:42:27Z</time></trkpt><trkpt lat="59.7938851733" lon="32.4913913570"><ele>30.12</ele><time>2025-11-10T09:42:41Z</time></trkpt><trkpt lat="59.7981913760" lon="32.4970631395"><ele>30.47</ele><time>2025-11-10T09:42:55Z</time></trkpt><trkpt lat="59.8027214594" lon="32.5019744318"><ele>30.92</ele><time>2025-11-10T09:43:09Z</time></trkpt><trkpt lat="59.8074600007" lon="32.5060326140"><ele>31.42</ele><time>2025-11-10T09:43:23Z</time></trkpt><trkpt lat="59.8123698682" lon="32.5092137977"><ele>31.92</ele><time>2025-11-10T09:43:37Z</time></trkpt><trkpt lat="59.8174059670" lon="32.5114443060"><ele>32.44</ele><time>2025-11-10T09:43:51Z</time></trkpt><trkpt lat="59.8225211073" lon="32.5126844924"><ele>32.98</ele><time>2025-11-10T09:44:05Z</time></trkpt><trkpt lat="59.8273003008" lon="32.5129533000"><ele>33.46</ele><time>2025-11-10T09:44:18Z</time></trkpt><trkpt lat="59.8324432690" lon="32.5123340450"><ele>33.97</ele><time>2025-11-10T09:44:32Z</time></trkpt><trkpt lat="59.8367911298" lon="32.5109990593"><ele>34.42</ele><time>2025-11-10T09:44:44Z</time></trkpt><trkpt lat="59.8389546666" lon="32.5100818276"><ele>36.91</ele><time>2025-11-10T09:44:50Z</time></trkpt><trkpt lat="59.8439149931" lon="32.5072505046"><ele>37.41</ele><time>2025-11-10T09:45:04Z</time></trkpt><trkpt lat="59.8486969527" lon="32.5034882873"><ele>37.92</ele><time>2025-11-10T09:45:18Z</time></trkpt><trkpt lat="59.8529724777" lon="32.4992054701"><ele>38.42</ele><time>2025-11-10T09:45:31Z</time></trkpt><trkpt lat="59.8567259777" lon="32.4945637397"><ele>38.86</ele><time>2025-11-10T09:45:43Z</time></trkpt><trkpt lat="59.8605705891" lon="32.4888981599"><ele>39.32</ele><time>2025-11-10T09:45:56Z</time></trkpt><trkpt lat="59.8638780881" lon="32.4830827955"><ele>39.77</ele><time>2025-11-10T09:46:08Z</time></trkpt><trkpt lat="59.8674274050" lon="32.4756814074"><ele>40.31</ele><time>2025-11-10T09:46:22Z</time></trkpt><trkpt lat="59.8705886398" lon="32.4675642885"><ele>40.84</ele><time>2025-11-10T09:46:36Z</time></trkpt><trkpt lat="59.8731698468" lon="32.4595555477"><ele>41.30</ele><time>2025-11-10T09:46:49Z</time></trkpt><trkpt lat="59.8755235691" lon="32.4504609313"><ele>41.80</ele><time>2025-11-10T09:47:03Z</time></trkpt><trkpt lat="59.8774467967" lon="32.4409805797"><ele>42.27</ele><time>2025-11-10T09:47:17Z</time></trkpt><trkpt lat="59.8787905835" lon="32.4318801798"><ele>42.69</ele><time>2025-11-10T09:47:30Z</time></trkpt><trkpt lat="59.8798419256" lon="32.4218647275"><ele>43.03</ele><time>2025-11-10T09:47:44Z</time></trkpt><trkpt lat="59.8802704085" lon="32.4122986291"><ele>43.40</ele><time>2025-11-10T09:47:57Z</time></trkpt><trkpt lat="59.8803547304" lon="32.4027817324"><ele>43.78</ele><time>2025-11-10T09:48:10Z</time></trkpt><trkpt lat="59.8800579272" lon="32.3940337077"><ele>41.81</ele><time>2025-11-10T09:48:22Z</time></trkpt><trkpt lat="59.8793287016" lon="32.3846942559"><ele>42.20</ele><time>2025-11-10T09:48:35Z</time></trkpt><trkpt lat="59.8780773673" lon="32.3747327831"><ele>42.62</ele><time>2025-11-10T09:48:49Z</time></trkpt><trkpt lat="59.8763684649" lon="32.3651008029"><ele>43.03</ele><time>2025-11-10T09:49:03Z</time></trkpt><trkpt lat="59.8741897568" lon="32.3557699006"><ele>43.43</ele><time>2025-11-10T09:49:17Z</time></trkpt><trkpt lat="59.8723768350" lon="32.3493604269"><ele>43.69</ele><time>2025-11-10T09:49:27Z</time></trkpt><trkpt lat="59.8695028480" lon="32.3409603350"><ele>44.03</ele><time>2025-11-10T09:49:41Z</time></trkpt><trkpt lat="59.8662396893" lon="32.3331359122"><ele>43.56</ele><time>2025-11-10T09:49:55Z</time></trkpt><trkpt lat="59.8625929747" lon="32.3259508610"><ele>43.85</ele><time>2025-11-10T09:50:09Z</time></trkpt><trkpt lat="59.8588948790" lon="32.3199557047"><ele>44.09</ele><time>2025-11-10T09:50:22Z</time></trkpt><trkpt lat="59.8549657781" lon="32.3145894427"><ele>44.31</ele><time>2025-11-10T09:50:35Z</time></trkpt><trkpt lat="59.8508021515" lon="32.3099861015"><ele>44.49</ele><time>2025-11-10T09:50:48Z</time></trkpt><trkpt lat="59.8468158022" lon="32.3063513730"><ele>44.62</ele><time>2025-11-10T09:51:00Z</time></trkpt><trkpt lat="59.8423023988" lon="32.3032053933"><ele>44.73</ele><time>2025-11-10T09:51:13Z</time></trkpt><trkpt lat="59.8373240512" lon="32.3007173929"><ele>44.09</ele><time>2025-11-10T09:51:27Z</time></trkpt><trkpt lat="59.8325974960" lon="32.2992790584"><ele>44.21</ele><time>2025-11-10T09:51:40Z</time></trkpt><trkpt lat="59.8274611495" lon="32.2986648325"><ele>44.33</ele><time>2025-11-10T09:51:54Z</time></trkpt><trkpt lat="59.8220941331" lon="32.2992351372"><ele>44.33</ele><time>2025-11-10T09:52:07Z</time></trkpt><trkpt lat="59.8171374109" lon="32.3006080929"><ele>44.47</ele><time>2025-11-10T09:52:21Z</time></trkpt><trkpt lat="59.8124525975" lon="32.3026294727"><ele>44.09</ele><time>2025-11-10T09:52:34Z</time></trkpt><trkpt lat="59.8079030681" lon="32.3055218160"><ele>44.49</ele><time>2025-11-10T09:52:47Z</time></trkpt><trkpt lat="59.8031623475" lon="32.3094867077"><ele>44.91</ele><time>2025-11-10T09:53:01Z</time></trkpt><trkpt lat="59.7986388020" lon="32.3143891152"><ele>45.32</ele><time>2025-11-10T09:53:15Z</time></trkpt><trkpt lat="59.7943610139" lon="32.3201206606"><ele>45.71</ele><time>2025-11-10T09:53:29Z</time></trkpt><trkpt lat="59.7903775983" lon="32.3266208265"><ele>46.11</ele><time>2025-11-10T09:53:43Z</time></trkpt><trkpt lat="59.7867087554" lon="32.3337901197"><ele>46.45</ele><time>2025-11-10T09:53:57Z</time></trkpt><trkpt lat="59.7834402323" lon="32.3416592181"><ele>46.78</ele><time>2025-11-10T09:54:11Z</time></trkpt><trkpt lat="59.7805439495" lon="32.3501093499"><ele>47.04</ele><time>2025-11-10T09:54:25Z</time></trkpt><trkpt lat="59.7780742217" lon="32.3590702750"><ele>47.34</ele><time>2025-11-10T09:54:39Z</time></trkpt><trkpt lat="59.7760352399" lon="32.3684548214"><ele>47.54</ele><time>2025-11-10T09:54:53Z</time></trkpt><trkpt lat="59.7752071917" lon="32.3732929397"><ele>49.94</ele><time>2025-11-10T09:55:00Z</time></trkpt><trkpt lat="59.7738887183" lon="32.3831551708"><ele>50.16</ele><time>2025-11-10T09:55:14Z</time></trkpt><trkpt lat="59.7730661184" lon="32.3924806248"><ele>50.31</ele><time>2025-11-10T09:55:27Z</time></trkpt><trkpt lat="59.7726512142" lon="32.4026447721"><ele>50.46</ele><time>2025-11-10T09:55:41Z</time></trkpt><trkpt lat="59.7727321833" lon="32.4128556903"><ele>51.38</ele><time>2025-11-10T09:55:55Z</time></trkpt><trkpt lat="59.7732868977" lon="32.4229651876"><ele>51.51</ele><time>2025-11-10T09:56:09Z</time></trkpt><trkpt lat="59.7740638163" lon="32.4309086334"><ele>51.59</ele><time>2025-11-10T09:56:20Z</time></trkpt><trkpt lat="59.7753397096" lon="32.4393915385"><ele>51.72</ele><time>2025-11-10T09:56:32Z</time></trkpt><trkpt lat="59.7771284916" lon="32.4489892367"><ele>52.01</ele><time>2025-11-10T09:56:46Z</time></trkpt><trkpt lat="59.7794447467" lon="32.4581131060"><ele>52.14</ele><time>2025-11-10T09:57:00Z</time></trkpt><trkpt lat="59.7821846232" lon="32.4667646550"><ele>52.34</ele><time>2025-11-10T09:57:14Z</time></trkpt><trkpt lat="59.7853289265" lon="32.4748892337"><ele>52.61</ele><time>2025-11-10T09:57:28Z</time></trkpt><trkpt lat="59.7888517566" lon="32.4824248999"><ele>52.95</ele><time>2025-11-10T09:57:42Z</time></trkpt><trkpt lat="59.7918493766" lon="32.4878429621"><ele>53.21</ele><time>2025-11-10T09:57:53Z</time></trkpt><trkpt lat="59.7953872103" lon="32.4932391476"><ele>53.43</ele><time>2025-11-10T09:58:05Z</time></trkpt><trkpt lat="59.7996831872" lon="32.4987732992"><ele>53.71</ele><time>2025-11-10T09:58:19Z</time></trkpt><trkpt lat="59.8042469658" lon="32.5034122635"><ele>53.99</ele><time>2025-11-10T09:58:33Z</time></trkpt><trkpt lat="59.8083404358" lon="32.5066927727"><ele>54.20</ele><time>2025-11-10T09:58:45Z</time></trkpt><trkpt lat="59.8128957488" lon="32.5095053203"><ele>54.48</ele><time>2025-11-10T09:58:58Z</time></trkpt><trkpt lat="59.8175680730" lon="32.5114977825"><ele>54.86</ele><time>2025-11-10T09:59:11Z</time></trkpt><trkpt lat="59.8223954625" lon="32.5126974005"><ele>55.23</ele><time>2025-11-10T09:59:24Z</time></trkpt><trkpt lat="59.8271952756" lon="32.5130413100"><ele>55.61</ele><time>2025-11-10T09:59:37Z</time></trkpt><trkpt lat="59.8315946013" lon="32.5125729293"><ele>55.92</ele><time>2025-11-10T09:59:49Z</time></trkpt><trkpt lat="59.8366971686" lon="32.5111539569"><ele>56.31</ele><time>2025-11-10T10:00:03Z</time></trkpt><trkpt lat="59.8413572554" lon="32.5089905038"><ele>56.62</ele><time>2025-11-10T10:00:16Z</time></trkpt><trkpt lat="59.8462440725" lon="32.5057459529"><ele>56.92</ele><time>2025-11-10T10:00:30Z</time></trkpt><trkpt lat="59.8509608209" lon="32.5015767105"><ele>57.17</ele><time>2025-11-10T10:00:44Z</time></trkpt><trkpt lat="59.8551359307" lon="32.4968038034"><ele>57.32</ele><time>2025-11-10T10:00:56Z</time></trkpt><trkpt lat="59.8589853197" lon="32.4909213837"><ele>57.06</ele><time>2025-11-10T10:01:09Z</time></trkpt><trkpt lat="59.8630054481" lon="32.4846653827"><ele>57.68</ele><time>2025-11-10T10:01:23Z</time></trkpt><trkpt lat="59.8666103370" lon="32.4775175471"><ele>57.55</ele><time>2025-11-10T10:01:37Z</time></trkpt><trkpt lat="59.8698647786" lon="32.4696079642"><ele>57.47</ele><time>2025-11-10T10:01:51Z</time></trkpt><trkpt lat="59.8727582954" lon="32.4610677268"><ele>57.35</ele><time>2025-11-10T10:02:05Z</time></trkpt><trkpt lat="59.8752644844" lon="32.4520916305"><ele>57.18</ele><time>2025-11-10T10:02:19Z</time></trkpt><trkpt lat="59.8773091659" lon="32.4426528532"><ele>56.97</ele><time>2025-11-10T10:02:33Z</time></trkpt><trkpt lat="59.8788542859" lon="32.4329624511"><ele>56.69</ele><time>2025-11-10T10:02:47Z</time></trkpt><trkpt lat="59.8799073882" lon="32.4236856960"><ele>56.43</ele><time>2025-11-10T10:03:00Z</time></trkpt><trkpt lat="59.8805814609" lon="32.4135184474"><ele>56.95</ele><time>2025-11-10T10:03:14Z</time></trkpt><trkpt lat="59.8807522841" lon="32.4032835569"><ele>56.65</ele><time>2025-11-10T10:03:28Z</time></trkpt><trkpt lat="59.8804647010" lon="32.3930223472"><ele>56.37</ele><time>2025-11-10T10:03:42Z</time></trkpt><trkpt lat="59.8797844257" lon="32.3835880961"><ele>56.06</ele><time>2025-11-10T10:03:55Z</time></trkpt><trkpt lat="59.8784868233" lon="32.3737799283"><ele>55.62</ele><time>2025-11-10T10:04:09Z</time></trkpt><trkpt lat="59.8766815290" lon="32.3642035201"><ele>55.19</ele><time>2025-11-10T10:04:23Z</time></trkpt><trkpt lat="59.8744625039" lon="32.3549410980"><ele>54.73</ele><time>2025-11-10T10:04:37Z</time></trkpt><trkpt lat="59.8718177620" lon="32.3461183906"><ele>54.29</ele><time>2025-11-10T10:04:51Z</time></trkpt><trkpt lat="59.8687769752" lon="32.3378700111"><ele>53.85</ele><time>2025-11-10T10:05:05Z</time></trkpt><trkpt lat="59.8656260502" lon="32.3307400290"><ele>53.34</ele><time>2025-11-10T10:05:18Z</time></trkpt><trkpt lat="59.8619112745" lon="32.3236999847"><ele>52.77</ele><time>2025-11-10T10:05:32Z</time></trkpt><trkpt lat="59.8578717839" lon="32.3173869867"><ele>52.20</ele><time>2025-11-10T10:05:46Z</time></trkpt><trkpt lat="59.8541738559" lon="32.3126659635"><ele>49.37</ele><time>2025-11-10T10:05:58Z</time></trkpt><trkpt lat="59.8496408388" lon="32.3078744486"><ele>48.67</ele><time>2025-11-10T10:06:12Z</time></trkpt><trkpt lat="59.8449089192" lon="32.3039946333"><ele>47.15</ele><time>2025-11-10T10:06:26Z</time></trkpt><trkpt lat="59.8386742081" lon="32.3031294532"><ele>46.37</ele><time>2025-11-10T10:06:40Z</time></trkpt><trkpt lat="59.8336404562" lon="32.3010586202"><ele>45.17</ele><time>2025-11-10T10:06:54Z</time></trkpt><trkpt lat="59.8285697401" lon="32.3000995629"><ele>42.41</ele><time>2025-11-10T10:07:08Z</time></trkpt><trkpt lat="59.8234621435" lon="32.3000773508"><ele>41.34</ele><time>2025-11-10T10:07:22Z</time></trkpt><trkpt lat="59.8183705565" lon="32.3011400085"><ele>40.38</ele><time>2025-11-10T10:07:36Z</time></trkpt><trkpt lat="59.8176487070" lon="32.3013640568"><ele>39.25</ele><time>2025-11-10T10:07:38Z</time></trkpt><trkpt lat="59.8126389273" lon="32.3034503125"><ele>38.47</ele><time>2025-11-10T10:07:52Z</time></trkpt><trkpt lat="59.8077371065" lon="32.3065148201"><ele>37.52</ele><time>2025-11-10T10:08:06Z</time></trkpt><trkpt lat="59.8029960506" lon="32.3102601897"><ele>36.70</ele><time>2025-11-10T10:08:20Z</time></trkpt><trkpt lat="59.7984594293" lon="32.3149979766"><ele>35.95</ele><time>2025-11-10T10:08:34Z</time></trkpt><trkpt lat="59.7941723373" lon="32.3205989320"><ele>35.20</ele><time>2025-11-10T10:08:48Z</time></trkpt><trkpt lat="59.7908375133" lon="32.3269682564"><ele>34.29</ele><time>2025-11-10T10:09:02Z</time></trkpt><trkpt lat="59.7872149386" lon="32.3341188580"><ele>33.35</ele><time>2025-11-10T10:09:16Z</time></trkpt><trkpt lat="59.7839140613" lon="32.3419486452"><ele>32.53</ele><time>2025-11-10T10:09:30Z</time></trkpt><trkpt lat="59.7812058683" lon="32.3497382831"><ele>31.57</ele><time>2025-11-10T10:09:43Z</time></trkpt><trkpt lat="59.7787156887" lon="32.3586216755"><ele>30.73</ele><time>2025-11-10T10:09:57Z</time></trkpt><trkpt lat="59.7766461130" lon="32.3679459561"><ele>29.78</ele><time>2025-11-10T10:10:11Z</time></trkpt><trkpt lat="59.7750187665" lon="32.3776426446"><ele>28.79</ele><time>2025-11-10T10:10:25Z</time></trkpt><trkpt lat="59.7739067394" lon="32.3876030277"><ele>27.76</ele><time>2025-11-10T10:10:39Z</time></trkpt><trkpt lat="59.7732672840" lon="32.3977062386"><ele>26.66</ele><time>2025-11-10T10:10:53Z</time></trkpt><trkpt lat="59.7731171641" lon="32.4079257064"><ele>25.47</ele><time>2025-11-10T10:11:07Z</time></trkpt><trkpt lat="59.7734389454" lon="32.4181369599"><ele>24.28</ele><time>2025-11-10T10:11:21Z</time></trkpt><trkpt lat="59.7742491402" lon="32.4282306992"><ele>23.03</ele><time>2025-11-10T10:11:35Z</time></trkpt><trkpt lat="59.7754341736" lon="32.4373860843"><ele>21.84</ele><time>2025-11-10T10:11:48Z</time></trkpt><trkpt lat="59.7771378793" lon="32.4469474889"><ele>20.58</ele><time>2025-11-10T10:12:02Z</time></trkpt><trkpt lat="59.7792998236" lon="32.4560986832"><ele>19.26</ele><time>2025-11-10T10:12:16Z</time></trkpt><trkpt lat="59.7819052543" lon="32.4648897070"><ele>17.88</ele><time>2025-11-10T10:12:30Z</time></trkpt><trkpt lat="59.7847626451" lon="32.4727676064"><ele>16.82</ele><time>2025-11-10T10:12:43Z</time></trkpt><trkpt lat="59.7869251762" lon="32.4807449151"><ele>14.94</ele><time>2025-11-10T10:12:57Z</time></trkpt><trkpt lat="59.7901351936" lon="32.4867280014"><ele>12.74</ele><time>2025-11-10T10:13:09Z</time></trkpt><trkpt lat="59.7941130772" lon="32.4931218848"><ele>10.19</ele><time>2025-11-10T10:13:23Z</time></trkpt><trkpt lat="59.7983984929" lon="32.4987100996"><ele>7.62</ele><time>2025-11-10T10:13:37Z</time></trkpt><trkpt lat="59.8003145959" lon="32.5008548610"><ele>8.80</ele><time>2025-11-10T10:13:43Z</time></trkpt><trkpt lat="59.8126898892" lon="32.5138297956"><ele>7.07</ele><time>2025-11-10T10:14:22Z</time></trkpt><trkpt lat="59.8126898892" lon="32.5138297956"><ele>-0.12</ele><time>2025-11-10T10:15:58Z</time></trkpt><trkpt lat="59.8126898892" lon="32.5138297956"><ele>-0.12</ele><time>2025-11-10T10:15:59Z</time></trkpt></trkseg><trkseg><trkpt lat="59.6953406464" lon="32.1306062490"><ele>-1.70</ele><time>2025-11-10T10:17:11Z</time></trkpt><trkpt lat="59.6953626070" lon="32.1306424588"><ele>-1.45</ele><time>2025-11-10T10:17:38Z</time></trkpt><trkpt lat="59.6953569073" lon="32.1306465659"><ele>-5.13</ele><time>2025-11-10T10:17:46Z</time></trkpt><trkpt lat="59.6953579970" lon="32.1306443866"><ele>-1.59</ele><time>2025-11-10T10:17:47Z</time></trkpt><trkpt lat="59.6953292470" lon="32.1306411177"><ele>-1.60</ele><time>2025-11-10T10:18:23Z</time></trkpt><trkpt lat="59.6953363717" lon="32.1306566242"><ele>-1.35</ele><time>2025-11-10T10:18:50Z</time></trkpt><trkpt lat="59.6953423228" lon="32.1307023894"><ele>1.03</ele><time>2025-11-10T10:19:00Z</time></trkpt><trkpt lat="59.6953321807" lon="32.1307411138"><ele>1.24</ele><time>2025-11-10T10:19:24Z</time></trkpt><trkpt lat="59.6952999942" lon="32.1308038104"><ele>1.45</ele><time>2025-11-10T10:19:46Z</time></trkpt><trkpt lat="59.6953077056" lon="32.1307805087"><ele>-0.67</ele><time>2025-11-10T10:20:02Z</time></trkpt><trkpt lat="59.6952332743" lon="32.1307768207"><ele>-2.11</ele><time>2025-11-10T10:20:21Z</time></trkpt><trkpt lat="59.6951654647" lon="32.1308354940"><ele>-1.87</ele><time>2025-11-10T10:20:39Z</time></trkpt><trkpt lat="59.6951528080" lon="32.1309453808"><ele>-2.44</ele><time>2025-11-10T10:20:59Z</time></trkpt><trkpt lat="59.6951544844" lon="32.1310031321"><ele>-2.22</ele><time>2025-11-10T10:21:18Z</time></trkpt><trkpt lat="59.6951193642" lon="32.1311725304"><ele>-2.02</ele><time>2025-11-10T10:21:38Z</time></trkpt><trkpt lat="59.6951057855" lon="32.1312235761"><ele>0.58</ele><time>2025-11-10T10:21:52Z</time></trkpt><trkpt lat="59.6950935479" lon="32.1313338820"><ele>0.75</ele><time>2025-11-10T10:22:09Z</time></trkpt><trkpt lat="59.6950409096" lon="32.1314368118"><ele>0.93</ele><time>2025-11-10T10:22:31Z</time></trkpt><trkpt lat="59.6950331144" lon="32.1315360535"><ele>1.13</ele><time>2025-11-10T10:22:54Z</time></trkpt><trkpt lat="59.6950242296" lon="32.1316784620"><ele>1.33</ele><time>2025-11-10T10:23:17Z</time></trkpt><trkpt lat="59.6950147580" lon="32.1316328645"><ele>1.55</ele><time>2025-11-10T10:23:45Z</time></trkpt><trkpt lat="59.6949600242" lon="32.1316273324"><ele>1.69</ele><time>2025-11-10T10:24:05Z</time></trkpt><trkpt lat="59.6949475352" lon="32.1316947229"><ele>2.00</ele><time>2025-11-10T10:24:32Z</time></trkpt><trkpt lat="59.6949628741" lon="32.1318728384"><ele>2.94</ele><time>2025-11-10T10:24:51Z</time></trkpt><trkpt lat="59.6950112376" lon="32.1321437415"><ele>3.81</ele><time>2025-11-10T10:25:14Z</time></trkpt><trkpt lat="59.6950280853" lon="32.1324469987"><ele>3.94</ele><time>2025-11-10T10:25:36Z</time></trkpt><trkpt lat="59.6950250678" lon="32.1324749105"><ele>3.94</ele><time>2025-11-10T10:25:39Z</time></trkpt><trkpt lat="59.6950112376" lon="32.1326800995"><ele>4.80</ele><time>2025-11-10T10:26:00Z</time></trkpt><trkpt lat="59.6950259060" lon="32.1329648327"><ele>4.84</ele><time>2025-11-10T10:26:16Z</time></trkpt><trkpt lat="59.6949567553" lon="32.1332299523"><ele>4.85</ele><time>2025-11-10T10:26:33Z</time></trkpt><trkpt lat="59.6949090622" lon="32.1334162820"><ele>6.57</ele><time>2025-11-10T10:26:52Z</time></trkpt><trkpt lat="59.6947748680" lon="32.1335011907"><ele>6.62</ele><time>2025-11-10T10:27:09Z</time></trkpt><trkpt lat="59.6946522407" lon="32.1337058768"><ele>6.70</ele><time>2025-11-10T10:27:26Z</time></trkpt><trkpt lat="59.6945110895" lon="32.1338453516"><ele>7.59</ele><time>2025-11-10T10:27:43Z</time></trkpt><trkpt lat="59.6943577845" lon="32.1339649614"><ele>7.67</ele><time>2025-11-10T10:28:03Z</time></trkpt><trkpt lat="59.6943278611" lon="32.1340062842"><ele>7.73</ele><time>2025-11-10T10:28:08Z</time></trkpt><trkpt lat="59.6942107659" lon="32.1341153327"><ele>8.65</ele><time>2025-11-10T10:28:24Z</time></trkpt><trkpt lat="59.6941243485" lon="32.1342757624"><ele>8.76</ele><time>2025-11-10T10:28:41Z</time></trkpt><trkpt lat="59.6940100193" lon="32.1343936119"><ele>8.85</ele><time>2025-11-10T10:29:00Z</time></trkpt><trkpt lat="59.6939174831" lon="32.1345198434"><ele>8.95</ele><time>2025-11-10T10:29:15Z</time></trkpt><trkpt lat="59.6938026510" lon="32.1345702186"><ele>9.07</ele><time>2025-11-10T10:29:31Z</time></trkpt><trkpt lat="59.6937297285" lon="32.1346460748"><ele>9.12</ele><time>2025-11-10T10:29:41Z</time></trkpt><trkpt lat="59.6936248709" lon="32.1348070912"><ele>9.22</ele><time>2025-11-10T10:29:57Z</time></trkpt><trkpt lat="59.6935158223" lon="32.1349320654"><ele>9.31</ele><time>2025-11-10T10:30:13Z</time></trkpt><trkpt lat="59.6933341026" lon="32.1351466421"><ele>9.52</ele><time>2025-11-10T10:30:33Z</time></trkpt><trkpt lat="59.6932578273" lon="32.1352922358"><ele>9.62</ele><time>2025-11-10T10:30:45Z</time></trkpt><trkpt lat="59.6931651235" lon="32.1354188025"><ele>11.26</ele><time>2025-11-10T10:31:02Z</time></trkpt><trkpt lat="59.6931372955" lon="32.1354424395"><ele>8.76</ele><time>2025-11-10T10:31:06Z</time></trkpt><trkpt lat="59.6931149997" lon="32.1354610473"><ele>11.15</ele><time>2025-11-10T10:31:09Z</time></trkpt><trkpt lat="59.6929649636" lon="32.1356752887"><ele>11.39</ele><time>2025-11-10T10:31:30Z</time></trkpt><trkpt lat="59.6928839106" lon="32.1357653942"><ele>11.48</ele><time>2025-11-10T10:31:40Z</time></trkpt><trkpt lat="59.6927697491" lon="32.1358390711"><ele>11.58</ele><time>2025-11-10T10:31:54Z</time></trkpt><trkpt lat="59.6927272528" lon="32.1359362174"><ele>11.66</ele><time>2025-11-10T10:32:09Z</time></trkpt><trkpt lat="59.6927275881" lon="32.1359544061"><ele>11.67</ele><time>2025-11-10T10:32:15Z</time></trkpt><trkpt lat="59.6926814038" lon="32.1359993331"><ele>11.72</ele><time>2025-11-10T10:32:19Z</time></trkpt><trkpt lat="59.6926367283" lon="32.1360424161"><ele>9.27</ele><time>2025-11-10T10:32:24Z</time></trkpt><trkpt lat="59.6925460361" lon="32.1361292526"><ele>9.40</ele><time>2025-11-10T10:32:38Z</time></trkpt><trkpt lat="59.6925225668" lon="32.1361606847"><ele>9.43</ele><time>2025-11-10T10:32:41Z</time></trkpt><trkpt lat="59.6924387477" lon="32.1362164244"><ele>8.76</ele><time>2025-11-10T10:32:58Z</time></trkpt><trkpt lat="59.6924365684" lon="32.1362160053"><ele>7.23</ele><time>2025-11-10T10:33:10Z</time></trkpt><trkpt lat="59.6924544219" lon="32.1363671310"><ele>7.32</ele><time>2025-11-10T10:33:30Z</time></trkpt><trkpt lat="59.6924603730" lon="32.1363728307"><ele>7.48</ele><time>2025-11-10T10:33:49Z</time></trkpt><trkpt lat="59.6924457047" lon="32.1363947913"><ele>7.66</ele><time>2025-11-10T10:34:20Z</time></trkpt><trkpt lat="59.6923612151" lon="32.1365802828"><ele>7.77</ele><time>2025-11-10T10:34:39Z</time></trkpt><trkpt lat="59.6922560222" lon="32.1368086059"><ele>7.85</ele><time>2025-11-10T10:34:57Z</time></trkpt><trkpt lat="59.6921501588" lon="32.1369392797"><ele>7.93</ele><time>2025-11-10T10:35:14Z</time></trkpt><trkpt lat="59.6920250170" lon="32.1371090971"><ele>8.00</ele><time>2025-11-10T10:35:31Z</time></trkpt><trkpt lat="59.6919483226" lon="32.1371455584"><ele>8.13</ele><time>2025-11-10T10:35:52Z</time></trkpt><trkpt lat="59.6918562055" lon="32.1372541040"><ele>7.46</ele><time>2025-11-10T10:36:15Z</time></trkpt><trkpt lat="59.6917149704" lon="32.1373783238"><ele>6.75</ele><time>2025-11-10T10:36:36Z</time></trkpt><trkpt lat="59.6916445624" lon="32.1374361590"><ele>6.77</ele><time>2025-11-10T10:36:54Z</time></trkpt><trkpt lat="59.6915661078" lon="32.1373718698"><ele>5.66</ele><time>2025-11-10T10:37:13Z</time></trkpt><trkpt lat="59.6915360168" lon="32.1372308861"><ele>4.99</ele><time>2025-11-10T10:37:31Z</time></trkpt><trkpt lat="59.6914842166" lon="32.1370987035"><ele>5.04</ele><time>2025-11-10T10:37:46Z</time></trkpt><trkpt lat="59.6913895011" lon="32.1369142178"><ele>5.16</ele><time>2025-11-10T10:38:05Z</time></trkpt><trkpt lat="59.6913053468" lon="32.1369393636"><ele>4.38</ele><time>2025-11-10T10:38:31Z</time></trkpt><trkpt lat="59.6912993956" lon="32.1369541995"><ele>4.49</ele><time>2025-11-10T10:39:02Z</time></trkpt><trkpt lat="59.6912864037" lon="32.1369526070"><ele>3.43</ele><time>2025-11-10T10:39:29Z</time></trkpt><trkpt lat="59.6913160756" lon="32.1370012220"><ele>2.68</ele><time>2025-11-10T10:40:00Z</time></trkpt><trkpt lat="59.6912501939" lon="32.1370151360"><ele>1.55</ele><time>2025-11-10T10:40:21Z</time></trkpt><trkpt lat="59.6912277304" lon="32.1370802633"><ele>1.71</ele><time>2025-11-10T10:40:44Z</time></trkpt><trkpt lat="59.6911216155" lon="32.1371635795"><ele>1.81</ele><time>2025-11-10T10:41:06Z</time></trkpt><trkpt lat="59.6910092980" lon="32.1372563671"><ele>1.88</ele><time>2025-11-10T10:41:22Z</time></trkpt><trkpt lat="59.6909393091" lon="32.1373765636"><ele>4.25</ele><time>2025-11-10T10:41:41Z</time></trkpt><trkpt lat="59.6908752713" lon="32.1375290304"><ele>5.09</ele><time>2025-11-10T10:41:59Z</time></trkpt><trkpt lat="59.6907855012" lon="32.1375676710"><ele>5.13</ele><time>2025-11-10T10:42:17Z</time></trkpt><trkpt lat="59.6906691603" lon="32.1376521606"><ele>6.07</ele><time>2025-11-10T10:42:39Z</time></trkpt><trkpt lat="59.6905606147" lon="32.1377829183"><ele>6.91</ele><time>2025-11-10T10:42:59Z</time></trkpt><trkpt lat="59.6904218104" lon="32.1379698347"><ele>7.70</ele><time>2025-11-10T10:43:19Z</time></trkpt><trkpt lat="59.6902809944" lon="32.1381478664"><ele>8.62</ele><time>2025-11-10T10:43:39Z</time></trkpt><trkpt lat="59.6901830100" lon="32.1382645424"><ele>9.34</ele><time>2025-11-10T10:43:54Z</time></trkpt><trkpt lat="59.6900406852" lon="32.1384246368"><ele>9.32</ele><time>2025-11-10T10:44:15Z</time></trkpt><trkpt lat="59.6899573691" lon="32.1384938713"><ele>10.05</ele><time>2025-11-10T10:44:29Z</time></trkpt><trkpt lat="59.6899398509" lon="32.1385736670"><ele>10.80</ele><time>2025-11-10T10:44:48Z</time></trkpt><trkpt lat="59.6899732947" lon="32.1386737470"><ele>10.79</ele><time>2025-11-10T10:45:06Z</time></trkpt><trkpt lat="59.6900105104" lon="32.1388413012"><ele>11.59</ele><time>2025-11-10T10:45:21Z</time></trkpt><trkpt lat="59.6899813414" lon="32.1391125396"><ele>11.57</ele><time>2025-11-10T10:45:38Z</time></trkpt><trkpt lat="59.6899341512" lon="32.1393448021"><ele>11.54</ele><time>2025-11-10T10:45:52Z</time></trkpt><trkpt lat="59.6898214985" lon="32.1394965146"><ele>11.49</ele><time>2025-11-10T10:46:06Z</time></trkpt><trkpt lat="59.6897836123" lon="32.1396131068"><ele>11.47</ele><time>2025-11-10T10:46:13Z</time></trkpt><trkpt lat="59.6897494979" lon="32.1398346405"><ele>12.19</ele><time>2025-11-10T10:46:27Z</time></trkpt><trkpt lat="59.6896833647" lon="32.1399172023"><ele>12.16</ele><time>2025-11-10T10:46:35Z</time></trkpt><trkpt lat="59.6895790100" lon="32.1400878578"><ele>12.14</ele><time>2025-11-10T10:46:49Z</time></trkpt><trkpt lat="59.6895348374" lon="32.1402591001"><ele>12.12</ele><time>2025-11-10T10:46:59Z</time></trkpt><trkpt lat="59.6894988790" lon="32.1404067054"><ele>12.12</ele><time>2025-11-10T10:47:09Z</time></trkpt><trkpt lat="59.6894790977" lon="32.1406072006"><ele>12.99</ele><time>2025-11-10T10:47:22Z</time></trkpt><trkpt lat="59.6893922612" lon="32.1408005711"><ele>13.02</ele><time>2025-11-10T10:47:39Z</time></trkpt><trkpt lat="59.6893572249" lon="32.1408916824"><ele>13.02</ele><time>2025-11-10T10:47:44Z</time></trkpt><trkpt lat="59.6892642695" lon="32.1410719771"><ele>13.04</ele><time>2025-11-10T10:47:58Z</time></trkpt><trkpt lat="59.6891636029" lon="32.1412887331"><ele>13.09</ele><time>2025-11-10T10:48:14Z</time></trkpt><trkpt lat="59.6890692227" lon="32.1415076684"><ele>13.14</ele><time>2025-11-10T10:48:31Z</time></trkpt><trkpt lat="59.6890564822" lon="32.1415573731"><ele>13.15</ele><time>2025-11-10T10:48:34Z</time></trkpt><trkpt lat="59.6890340187" lon="32.1418131050"><ele>13.21</ele><time>2025-11-10T10:48:50Z</time></trkpt><trkpt lat="59.6890255529" lon="32.1418507397"><ele>14.01</ele><time>2025-11-10T10:48:52Z</time></trkpt><trkpt lat="59.6888925321" lon="32.1420146897"><ele>14.07</ele><time>2025-11-10T10:49:09Z</time></trkpt><trkpt lat="59.6887466870" lon="32.1421588585"><ele>14.13</ele><time>2025-11-10T10:49:27Z</time></trkpt><trkpt lat="59.6886262391" lon="32.1423212998"><ele>14.20</ele><time>2025-11-10T10:49:44Z</time></trkpt><trkpt lat="59.6884993371" lon="32.1425001696"><ele>14.25</ele><time>2025-11-10T10:50:03Z</time></trkpt><trkpt lat="59.6884088963" lon="32.1426244732"><ele>14.29</ele><time>2025-11-10T10:50:21Z</time></trkpt><trkpt lat="59.6882777195" lon="32.1428020857"><ele>14.36</ele><time>2025-11-10T10:50:39Z</time></trkpt><trkpt lat="59.6881764662" lon="32.1429580729"><ele>14.43</ele><time>2025-11-10T10:50:57Z</time></trkpt><trkpt lat="59.6881828364" lon="32.1431319136"><ele>14.48</ele><time>2025-11-10T10:51:14Z</time></trkpt><trkpt lat="59.6882290207" lon="32.1433667745"><ele>14.55</ele><time>2025-11-10T10:51:33Z</time></trkpt><trkpt lat="59.6882741991" lon="32.1435397770"><ele>14.63</ele><time>2025-11-10T10:51:49Z</time></trkpt><trkpt lat="59.6883308608" lon="32.1437209100"><ele>14.67</ele><time>2025-11-10T10:52:07Z</time></trkpt><trkpt lat="59.6883979160" lon="32.1439221594"><ele>14.73</ele><time>2025-11-10T10:52:24Z</time></trkpt><trkpt lat="59.6884482913" lon="32.1441664919"><ele>14.75</ele><time>2025-11-10T10:52:40Z</time></trkpt><trkpt lat="59.6885541547" lon="32.1443896182"><ele>14.76</ele><time>2025-11-10T10:52:58Z</time></trkpt><trkpt lat="59.6886319388" lon="32.1445536520"><ele>14.76</ele><time>2025-11-10T10:53:13Z</time></trkpt><trkpt lat="59.6886674780" lon="32.1447554883"><ele>14.75</ele><time>2025-11-10T10:53:28Z</time></trkpt><trkpt lat="59.6886979043" lon="32.1449083742"><ele>14.72</ele><time>2025-11-10T10:53:44Z</time></trkpt><trkpt lat="59.6887362935" lon="32.1451236214"><ele>14.68</ele><time>2025-11-10T10:54:02Z</time></trkpt><trkpt lat="59.6887443401" lon="32.1452294011"><ele>14.63</ele><time>2025-11-10T10:54:20Z</time></trkpt><trkpt lat="59.6887148358" lon="32.1450768504"><ele>14.61</ele><time>2025-11-10T10:54:40Z</time></trkpt><trkpt lat="59.6886601858" lon="32.1448924486"><ele>14.59</ele><time>2025-11-10T10:54:58Z</time></trkpt><trkpt lat="59.6886323579" lon="32.1446858346"><ele>14.58</ele><time>2025-11-10T10:55:14Z</time></trkpt><trkpt lat="59.6886044461" lon="32.1446315199"><ele>12.26</ele><time>2025-11-10T10:55:19Z</time></trkpt><trkpt lat="59.6885342896" lon="32.1444729343"><ele>12.23</ele><time>2025-11-10T10:55:35Z</time></trkpt><trkpt lat="59.6884466149" lon="32.1442272607"><ele>12.19</ele><time>2025-11-10T10:55:48Z</time></trkpt><trkpt lat="59.6883518994" lon="32.1440585330"><ele>12.14</ele><time>2025-11-10T10:56:06Z</time></trkpt><trkpt lat="59.6882886160" lon="32.1437837742"><ele>12.11</ele><time>2025-11-10T10:56:24Z</time></trkpt><trkpt lat="59.6881913859" lon="32.1433954407"><ele>12.07</ele><time>2025-11-10T10:56:43Z</time></trkpt><trkpt lat="59.6881344728" lon="32.1430403832"><ele>12.04</ele><time>2025-11-10T10:57:00Z</time></trkpt><trkpt lat="59.6880416851" lon="32.1427289955"><ele>12.00</ele><time>2025-11-10T10:57:18Z</time></trkpt><trkpt lat="59.6879698522" lon="32.1425003372"><ele>11.96</ele><time>2025-11-10T10:57:33Z</time></trkpt><trkpt lat="59.6878792439" lon="32.1422336251"><ele>11.91</ele><time>2025-11-10T10:57:47Z</time></trkpt><trkpt lat="59.6877926588" lon="32.1418568585"><ele>11.83</ele><time>2025-11-10T10:58:08Z</time></trkpt><trkpt lat="59.6877048165" lon="32.1415108535"><ele>11.73</ele><time>2025-11-10T10:58:27Z</time></trkpt><trkpt lat="59.6875005495" lon="32.1416456345"><ele>11.59</ele><time>2025-11-10T10:58:46Z</time></trkpt><trkpt lat="59.6874636691" lon="32.1416841913"><ele>11.61</ele><time>2025-11-10T10:58:53Z</time></trkpt><trkpt lat="59.6874170657" lon="32.1417637356"><ele>21.09</ele><time>2025-11-10T10:59:00Z</time></trkpt></trkseg><trkseg><trkpt lat="60.1183940750" lon="32.3208063003"><ele>11.29</ele><time>2026-05-01T07:01:19Z</time></trkpt><trkpt lat="60.1183831785" lon="32.3207664024"><ele>11.62</ele><time>2026-05-01T07:06:18Z</time></trkpt><trkpt lat="60.1184003614" lon="32.3207859322"><ele>11.64</ele><time>2026-05-01T07:06:20Z</time></trkpt><trkpt lat="60.1185041294" lon="32.3208836652"><ele>11.70</ele><time>2026-05-01T07:06:31Z</time></trkpt><trkpt lat="60.1185386628" lon="32.3209135048"><ele>11.73</ele><time>2026-05-01T07:06:35Z</time></trkpt><trkpt lat="60.1187098213" lon="32.3211167660"><ele>12.04</ele><time>2026-05-01T07:07:19Z</time></trkpt><trkpt lat="60.1186959073" lon="32.3211421631"><ele>12.05</ele><time>2026-05-01T07:07:21Z</time></trkpt><trkpt lat="60.1186455321" lon="32.3212317657"><ele>12.12</ele><time>2026-05-01T07:07:32Z</time></trkpt><trkpt lat="60.1185585279" lon="32.3213391379"><ele>12.12</ele><time>2026-05-01T07:08:04Z</time></trkpt><trkpt lat="60.1182390098" lon="32.3213064484"><ele>12.12</ele><time>2026-05-01T07:08:36Z</time></trkpt><trkpt lat="60.1182120200" lon="32.3211146705"><ele>12.54</ele><time>2026-05-01T07:09:28Z</time></trkpt><trkpt lat="60.1182724535" lon="32.3211497068"><ele>12.58</ele><time>2026-05-01T07:09:33Z</time></trkpt><trkpt lat="60.1183059812" lon="32.3211643752"><ele>12.60</ele><time>2026-05-01T07:09:37Z</time></trkpt><trkpt lat="60.1183270197" lon="32.3211774509"><ele>12.65</ele><time>2026-05-01T07:09:40Z</time></trkpt><trkpt lat="60.1184636448" lon="32.3209449369"><ele>13.33</ele><time>2026-05-01T07:11:18Z</time></trkpt><trkpt lat="60.1184094977" lon="32.3207774665"><ele>13.53</ele><time>2026-05-01T07:11:44Z</time></trkpt><trkpt lat="60.1184487250" lon="32.3207020294"><ele>13.82</ele><time>2026-05-01T07:12:20Z</time></trkpt><trkpt lat="60.1183638163" lon="32.3210209608"><ele>13.96</ele><time>2026-05-01T07:12:40Z</time></trkpt><trkpt lat="60.1183087472" lon="32.3209908698"><ele>14.24</ele><time>2026-05-01T07:13:21Z</time></trkpt><trkpt lat="60.1183440350" lon="32.3209682386"><ele>14.25</ele><time>2026-05-01T07:13:24Z</time></trkpt><trkpt lat="60.1183680911" lon="32.3209798895"><ele>14.27</ele><time>2026-05-01T07:13:27Z</time></trkpt><trkpt lat="60.1182504091" lon="32.3209820688"><ele>14.40</ele><time>2026-05-01T07:13:50Z</time></trkpt><trkpt lat="60.1183218230" lon="32.3209764529"><ele>14.53</ele><time>2026-05-01T07:14:39Z</time></trkpt><trkpt lat="60.1183198951" lon="32.3207768798"><ele>14.62</ele><time>2026-05-01T07:15:06Z</time></trkpt><trkpt lat="60.1183385029" lon="32.3209319450"><ele>15.19</ele><time>2026-05-01T07:17:36Z</time></trkpt><trkpt lat="60.1183435321" lon="32.3211677279"><ele>15.25</ele><time>2026-05-01T07:17:54Z</time></trkpt><trkpt lat="60.1183249243" lon="32.3209597729"><ele>15.37</ele><time>2026-05-01T07:18:25Z</time></trkpt><trkpt lat="60.1182716992" lon="32.3209696636"><ele>15.41</ele><time>2026-05-01T07:18:39Z</time></trkpt><trkpt lat="60.1180833578" lon="32.3208655603"><ele>15.53</ele><time>2026-05-01T07:19:39Z</time></trkpt><trkpt lat="60.1181390975" lon="32.3208187055"><ele>15.62</ele><time>2026-05-01T07:20:30Z</time></trkpt><trkpt lat="60.1182922348" lon="32.3206716869"><ele>15.75</ele><time>2026-05-01T07:21:42Z</time></trkpt><trkpt lat="60.1183027122" lon="32.3206775542"><ele>15.75</ele><time>2026-05-01T07:21:44Z</time></trkpt><trkpt lat="60.1183815021" lon="32.3208054621"><ele>15.79</ele><time>2026-05-01T07:22:08Z</time></trkpt><trkpt lat="60.1183875371" lon="32.3208746128"><ele>15.78</ele><time>2026-05-01T07:22:24Z</time></trkpt><trkpt lat="60.1184684224" lon="32.3208643869"><ele>15.83</ele><time>2026-05-01T07:23:03Z</time></trkpt><trkpt lat="60.1184934843" lon="32.3208581004"><ele>15.89</ele><time>2026-05-01T07:23:31Z</time></trkpt><trkpt lat="60.1182081643" lon="32.3208534066"><ele>16.08</ele><time>2026-05-01T07:24:32Z</time></trkpt><trkpt lat="60.1180955954" lon="32.3209088948"><ele>16.13</ele><time>2026-05-01T07:24:51Z</time></trkpt><trkpt lat="60.1180625707" lon="32.3208415043"><ele>16.23</ele><time>2026-05-01T07:25:21Z</time></trkpt><trkpt lat="60.1184547599" lon="32.3208006006"><ele>17.05</ele><time>2026-05-01T07:28:10Z</time></trkpt><trkpt lat="60.1183689293" lon="32.3207440227"><ele>17.88</ele><time>2026-05-01T07:29:55Z</time></trkpt><trkpt lat="60.1186712645" lon="32.3207122553"><ele>19.37</ele><time>2026-05-01T07:33:07Z</time></trkpt><trkpt lat="60.1186977513" lon="32.3207891174"><ele>19.67</ele><time>2026-05-01T07:33:49Z</time></trkpt><trkpt lat="60.1185292751" lon="32.3210934643"><ele>19.80</ele><time>2026-05-01T07:34:08Z</time></trkpt><trkpt lat="60.1185109187" lon="32.3211126588"><ele>19.83</ele><time>2026-05-01T07:34:11Z</time></trkpt><trkpt lat="60.1183850225" lon="32.3209511396"><ele>20.19</ele><time>2026-05-01T07:35:02Z</time></trkpt><trkpt lat="60.1184177119" lon="32.3207127582"><ele>20.58</ele><time>2026-05-01T07:36:02Z</time></trkpt><trkpt lat="60.1185419317" lon="32.3209344596"><ele>20.89</ele><time>2026-05-01T07:36:53Z</time></trkpt><trkpt lat="60.1186057180" lon="32.3209281731"><ele>20.93</ele><time>2026-05-01T07:37:00Z</time></trkpt><trkpt lat="60.1185083203" lon="32.3207422625"><ele>21.72</ele><time>2026-05-01T07:40:00Z</time></trkpt><trkpt lat="60.1183422748" lon="32.3207399994"><ele>21.79</ele><time>2026-05-01T07:40:15Z</time></trkpt><trkpt lat="60.1182519179" lon="32.3206988443"><ele>21.85</ele><time>2026-05-01T07:40:30Z</time></trkpt><trkpt lat="60.1184213161" lon="32.3208398279"><ele>22.34</ele><time>2026-05-01T07:42:20Z</time></trkpt><trkpt lat="60.1183776464" lon="32.3208078928"><ele>22.35</ele><time>2026-05-01T07:42:27Z</time></trkpt><trkpt lat="60.1180291269" lon="32.3209031951"><ele>22.45</ele><time>2026-05-01T07:43:04Z</time></trkpt><trkpt lat="60.1179365069" lon="32.3208117485"><ele>22.47</ele><time>2026-05-01T07:43:10Z</time></trkpt><trkpt lat="60.1183473039" lon="32.3210111540"><ele>23.64</ele><time>2026-05-01T07:44:53Z</time></trkpt><trkpt lat="60.1183675881" lon="32.3210248165"><ele>23.64</ele><time>2026-05-01T07:44:56Z</time></trkpt><trkpt lat="60.1184206456" lon="32.3208879400"><ele>23.83</ele><time>2026-05-01T07:45:58Z</time></trkpt><trkpt lat="60.1184573583" lon="32.3209363036"><ele>23.86</ele><time>2026-05-01T07:46:07Z</time></trkpt><trkpt lat="60.1185266767" lon="32.3209368903"><ele>23.88</ele><time>2026-05-01T07:46:50Z</time></trkpt><trkpt lat="60.1184097491" lon="32.3208803963"><ele>23.87</ele><time>2026-05-01T07:47:33Z</time></trkpt><trkpt lat="60.1183727011" lon="32.3207154404"><ele>23.85</ele><time>2026-05-01T07:47:53Z</time></trkpt><trkpt lat="60.1182296220" lon="32.3206716031"><ele>23.78</ele><time>2026-05-01T07:48:46Z</time></trkpt><trkpt lat="60.1182908937" lon="32.3207421787"><ele>23.76</ele><time>2026-05-01T07:49:12Z</time></trkpt><trkpt lat="60.1185321249" lon="32.3207591940"><ele>23.71</ele><time>2026-05-01T07:49:43Z</time></trkpt><trkpt lat="60.1184015349" lon="32.3208059650"><ele>23.70</ele><time>2026-05-01T07:49:54Z</time></trkpt><trkpt lat="60.1185985096" lon="32.3206156120"><ele>23.64</ele><time>2026-05-01T07:50:49Z</time></trkpt><trkpt lat="60.1186539978" lon="32.3205871973"><ele>23.65</ele><time>2026-05-01T07:50:54Z</time></trkpt><trkpt lat="60.1184720267" lon="32.3204628099"><ele>23.64</ele><time>2026-05-01T07:51:33Z</time></trkpt><trkpt lat="60.1182847749" lon="32.3206521571"><ele>23.65</ele><time>2026-05-01T07:51:58Z</time></trkpt><trkpt lat="60.1182494033" lon="32.3206312861"><ele>23.63</ele><time>2026-05-01T07:52:02Z</time></trkpt><trkpt lat="60.1183963381" lon="32.3206177913"><ele>23.73</ele><time>2026-05-01T07:52:47Z</time></trkpt><trkpt lat="60.1182131935" lon="32.3208258301"><ele>23.76</ele><time>2026-05-01T07:53:26Z</time></trkpt><trkpt lat="60.1181834377" lon="32.3209957313"><ele>23.78</ele><time>2026-05-01T07:53:50Z</time></trkpt><trkpt lat="60.1180417836" lon="32.3209301848"><ele>23.82</ele><time>2026-05-01T07:54:32Z</time></trkpt><trkpt lat="60.1178728882" lon="32.3210549913"><ele>23.81</ele><time>2026-05-01T07:54:43Z</time></trkpt><trkpt lat="60.1178711280" lon="32.3211726733"><ele>23.83</ele><time>2026-05-01T07:55:11Z</time></trkpt><trkpt lat="60.1180946734" lon="32.3209358007"><ele>23.84</ele><time>2026-05-01T07:56:34Z</time></trkpt><trkpt lat="60.1189238112" lon="32.3211163469"><ele>23.83</ele><time>2026-05-01T07:57:02Z</time></trkpt><trkpt lat="60.1186772995" lon="32.3209229764"><ele>23.81</ele><time>2026-05-01T07:57:27Z</time></trkpt><trkpt lat="60.1179916598" lon="32.3210377246"><ele>23.73</ele><time>2026-05-01T07:58:47Z</time></trkpt><trkpt lat="60.1184051391" lon="32.3207628820"><ele>23.57</ele><time>2026-05-01T07:59:22Z</time></trkpt><trkpt lat="60.1183847710" lon="32.3207995947"><ele>23.55</ele><time>2026-05-01T07:59:25Z</time></trkpt><trkpt lat="60.1182527561" lon="32.3208767921"><ele>23.49</ele><time>2026-05-01T07:59:36Z</time></trkpt><trkpt lat="60.1182485651" lon="32.3207725212"><ele>23.12</ele><time>2026-05-01T08:00:41Z</time></trkpt><trkpt lat="60.1183960866" lon="32.3206515703"><ele>22.07</ele><time>2026-05-01T08:03:26Z</time></trkpt><trkpt lat="60.1183593739" lon="32.3206560966"><ele>22.05</ele><time>2026-05-01T08:03:29Z</time></trkpt><trkpt lat="60.1181187294" lon="32.3207819089"><ele>21.93</ele><time>2026-05-01T08:03:47Z</time></trkpt><trkpt lat="60.1181867067" lon="32.3209750280"><ele>21.74</ele><time>2026-05-01T08:04:37Z</time></trkpt><trkpt lat="60.1176606584" lon="32.3211497907"><ele>21.50</ele><time>2026-05-01T08:05:14Z</time></trkpt><trkpt lat="60.1176187489" lon="32.3211538140"><ele>21.47</ele><time>2026-05-01T08:05:18Z</time></trkpt><trkpt lat="60.1181344874" lon="32.3208591063"><ele>21.10</ele><time>2026-05-01T08:06:12Z</time></trkpt><trkpt lat="60.1177019812" lon="32.3217033315"><ele>20.88</ele><time>2026-05-01T08:06:52Z</time></trkpt><trkpt lat="60.1180986967" lon="32.3208711762"><ele>20.45</ele><time>2026-05-01T08:07:52Z</time></trkpt><trkpt lat="60.1184598729" lon="32.3202447128"><ele>19.85</ele><time>2026-05-01T08:09:28Z</time></trkpt><trkpt lat="60.1183793228" lon="32.3206609581"><ele>19.73</ele><time>2026-05-01T08:09:43Z</time></trkpt><trkpt lat="60.1183367427" lon="32.3208876885"><ele>19.54</ele><time>2026-05-01T08:10:07Z</time></trkpt><trkpt lat="60.1184241660" lon="32.3208349664"><ele>18.89</ele><time>2026-05-01T08:11:29Z</time></trkpt><trkpt lat="60.1184692606" lon="32.3208215553"><ele>18.80</ele><time>2026-05-01T08:11:40Z</time></trkpt><trkpt lat="60.1185369864" lon="32.3206293583"><ele>18.62</ele><time>2026-05-01T08:12:03Z</time></trkpt><trkpt lat="60.1184796542" lon="32.3208747804"><ele>18.42</ele><time>2026-05-01T08:12:27Z</time></trkpt><trkpt lat="60.1185067277" lon="32.3206209764"><ele>18.13</ele><time>2026-05-01T08:13:01Z</time></trkpt><trkpt lat="60.1185366511" lon="32.3205919750"><ele>17.99</ele><time>2026-05-01T08:13:18Z</time></trkpt><trkpt lat="60.1186037064" lon="32.3205792345"><ele>17.78</ele><time>2026-05-01T08:13:43Z</time></trkpt><trkpt lat="60.1186353061" lon="32.3205493949"><ele>17.75</ele><time>2026-05-01T08:13:46Z</time></trkpt><trkpt lat="60.1194009930" lon="32.3203457985"><ele>17.53</ele><time>2026-05-01T08:14:13Z</time></trkpt><trkpt lat="60.1189616974" lon="32.3206254188"><ele>17.46</ele><time>2026-05-01T08:14:38Z</time></trkpt><trkpt lat="60.1183509082" lon="32.3209228925"><ele>17.28</ele><time>2026-05-01T08:14:59Z</time></trkpt><trkpt lat="60.1184136886" lon="32.3208066355"><ele>16.75</ele><time>2026-05-01T08:16:13Z</time></trkpt><trkpt lat="60.1183535904" lon="32.3207255825"><ele>16.70</ele><time>2026-05-01T08:16:18Z</time></trkpt><trkpt lat="60.1183311269" lon="32.3206838407"><ele>16.69</ele><time>2026-05-01T08:16:21Z</time></trkpt><trkpt lat="60.1187275909" lon="32.3204906378"><ele>16.52</ele><time>2026-05-01T08:16:53Z</time></trkpt><trkpt lat="60.1188005973" lon="32.3205048870"><ele>16.52</ele><time>2026-05-01T08:16:58Z</time></trkpt><trkpt lat="60.1188005973" lon="32.3205048870"><ele>16.52</ele><time>2026-05-01T08:16:59Z</time></trkpt><trkpt lat="60.1188583486" lon="32.3204967566"><ele>16.52</ele><time>2026-05-01T08:17:02Z</time></trkpt><trkpt lat="60.1188583486" lon="32.3204967566"><ele>16.52</ele><time>2026-05-01T08:17:03Z</time></trkpt><trkpt lat="60.1183889620" lon="32.3206328787"><ele>15.96</ele><time>2026-05-01T08:18:20Z</time></trkpt><trkpt lat="60.1183889620" lon="32.3206328787"><ele>15.96</ele><time>2026-05-01T08:18:21Z</time></trkpt><trkpt lat="60.1184353139" lon="32.3205704335"><ele>15.96</ele><time>2026-05-01T08:18:24Z</time></trkpt><trkpt lat="60.1184353139" lon="32.3205704335"><ele>15.96</ele><time>2026-05-01T08:18:25Z</time></trkpt><trkpt lat="60.1185158640" lon="32.3205279373"><ele>15.96</ele><time>2026-05-01T08:18:30Z</time></trkpt><trkpt lat="60.1185158640" lon="32.3205279373"><ele>15.96</ele><time>2026-05-01T08:18:31Z</time></trkpt><trkpt lat="60.1182799973" lon="32.3207306117"><ele>15.90</ele><time>2026-05-01T08:19:17Z</time></trkpt><trkpt lat="60.1182851940" lon="32.3207360599"><ele>15.88</ele><time>2026-05-01T08:19:21Z</time></trkpt><trkpt lat="60.1184002776" lon="32.3207426816"><ele>16.19</ele><time>2026-05-01T08:20:26Z</time></trkpt><trkpt lat="60.1177000534" lon="32.3215035070"><ele>15.93</ele><time>2026-05-01T08:20:52Z</time></trkpt><trkpt lat="60.1176858880" lon="32.3215269763"><ele>15.78</ele><time>2026-05-01T08:21:05Z</time></trkpt><trkpt lat="60.1177491713" lon="32.3215151578"><ele>15.63</ele><time>2026-05-01T08:21:20Z</time></trkpt><trkpt lat="60.1185398363" lon="32.3206077330"><ele>15.21</ele><time>2026-05-01T08:22:10Z</time></trkpt><trkpt lat="60.1184684224" lon="32.3207021970"><ele>15.21</ele><time>2026-05-01T08:22:20Z</time></trkpt><trkpt lat="60.1184684224" lon="32.3207021970"><ele>15.21</ele><time>2026-05-01T08:22:21Z</time></trkpt><trkpt lat="60.1183099207" lon="32.3209419195"><ele>15.14</ele><time>2026-05-01T08:22:31Z</time></trkpt><trkpt lat="60.1181521732" lon="32.3210410774"><ele>14.98</ele><time>2026-05-01T08:22:46Z</time></trkpt><trkpt lat="60.1181181427" lon="32.3210798018"><ele>14.92</ele><time>2026-05-01T08:22:52Z</time></trkpt><trkpt lat="60.1180716231" lon="32.3211166821"><ele>14.81</ele><time>2026-05-01T08:23:02Z</time></trkpt><trkpt lat="60.1179867145" lon="32.3211770318"><ele>14.73</ele><time>2026-05-01T08:23:09Z</time></trkpt><trkpt lat="60.1178638358" lon="32.3211502936"><ele>14.31</ele><time>2026-05-01T08:24:00Z</time></trkpt><trkpt lat="60.1183950808" lon="32.3206569348"><ele>14.22</ele><time>2026-05-01T08:24:12Z</time></trkpt><trkpt lat="60.1184286922" lon="32.3206679989"><ele>14.11</ele><time>2026-05-01T08:24:21Z</time></trkpt><trkpt lat="60.1176067628" lon="32.3213199433"><ele>13.09</ele><time>2026-05-01T08:25:50Z</time></trkpt><trkpt lat="60.1176002249" lon="32.3213219550"><ele>13.08</ele><time>2026-05-01T08:25:51Z</time></trkpt><trkpt lat="60.1177473273" lon="32.3213793710"><ele>13.03</ele><time>2026-05-01T08:26:05Z</time></trkpt><trkpt lat="60.1182031352" lon="32.3210413288"><ele>12.96</ele><time>2026-05-01T08:27:00Z</time></trkpt><trkpt lat="60.1182569470" lon="32.3211004212"><ele>12.93</ele><time>2026-05-01T08:27:07Z</time></trkpt><trkpt lat="60.1184219867" lon="32.3212860804"><ele>12.83</ele><time>2026-05-01T08:28:00Z</time></trkpt><trkpt lat="60.1180342399" lon="32.3213975597"><ele>12.29</ele><time>2026-05-01T08:29:14Z</time></trkpt><trkpt lat="60.1180781610" lon="32.3214216996"><ele>12.14</ele><time>2026-05-01T08:29:25Z</time></trkpt><trkpt lat="60.1181223337" lon="32.3214661237"><ele>12.11</ele><time>2026-05-01T08:29:29Z</time></trkpt><trkpt lat="60.1182324719" lon="32.3214748409"><ele>11.96</ele><time>2026-05-01T08:29:41Z</time></trkpt><trkpt lat="60.1183484774" lon="32.3211993277"><ele>11.89</ele><time>2026-05-01T08:30:43Z</time></trkpt><trkpt lat="60.1182652451" lon="32.3211524729"><ele>11.80</ele><time>2026-05-01T08:31:10Z</time></trkpt><trkpt lat="60.1183553506" lon="32.3206800688"><ele>11.80</ele><time>2026-05-01T08:31:40Z</time></trkpt><trkpt lat="60.1183607988" lon="32.3206904624"><ele>11.80</ele><time>2026-05-01T08:31:43Z</time></trkpt><trkpt lat="60.1186525729" lon="32.3203609698"><ele>11.12</ele><time>2026-05-01T08:33:22Z</time></trkpt><trkpt lat="60.1187625434" lon="32.3201758135"><ele>11.10</ele><time>2026-05-01T08:33:39Z</time></trkpt><trkpt lat="60.1186768804" lon="32.3201681022"><ele>11.00</ele><time>2026-05-01T08:33:47Z</time></trkpt><trkpt lat="60.1185942348" lon="32.3203873727"><ele>10.82</ele><time>2026-05-01T08:34:03Z</time></trkpt><trkpt lat="60.1185932290" lon="32.3204319645"><ele>10.78</ele><time>2026-05-01T08:34:06Z</time></trkpt><trkpt lat="60.1184730325" lon="32.3206709325"><ele>10.53</ele><time>2026-05-01T08:34:28Z</time></trkpt><trkpt lat="60.1182549354" lon="32.3208997585"><ele>10.39</ele><time>2026-05-01T08:34:42Z</time></trkpt><trkpt lat="60.1183501538" lon="32.3207041249"><ele>10.24</ele><time>2026-05-01T08:34:56Z</time></trkpt><trkpt lat="60.1183752157" lon="32.3207016103"><ele>10.18</ele><time>2026-05-01T08:35:00Z</time></trkpt><trkpt lat="60.1182322204" lon="32.3208684940"><ele>10.04</ele><time>2026-05-01T08:35:16Z</time></trkpt><trkpt lat="60.1183649898" lon="32.3209653888"><ele>9.82</ele><time>2026-05-01T08:35:36Z</time></trkpt><trkpt lat="60.1184150297" lon="32.3208882753"><ele>9.77</ele><time>2026-05-01T08:35:41Z</time></trkpt><trkpt lat="60.1184313744" lon="32.3208319489"><ele>9.14</ele><time>2026-05-01T08:36:39Z</time></trkpt><trkpt lat="60.1186230686" lon="32.3206500616"><ele>8.80</ele><time>2026-05-01T08:37:08Z</time></trkpt><trkpt lat="60.1185231563" lon="32.3205935676"><ele>8.34</ele><time>2026-05-01T08:37:51Z</time></trkpt><trkpt lat="60.1185146067" lon="32.3206063919"><ele>8.28</ele><time>2026-05-01T08:37:53Z</time></trkpt><trkpt lat="60.1184459589" lon="32.3206856009"><ele>8.23</ele><time>2026-05-01T08:37:58Z</time></trkpt><trkpt lat="60.1183850225" lon="32.3207646422"><ele>8.16</ele><time>2026-05-01T08:38:04Z</time></trkpt><trkpt lat="60.1183514949" lon="32.3207961582"><ele>8.09</ele><time>2026-05-01T08:38:10Z</time></trkpt><trkpt lat="60.1183939911" lon="32.3207566794"><ele>7.93</ele><time>2026-05-01T08:38:22Z</time></trkpt><trkpt lat="60.1184043009" lon="32.3207551707"><ele>7.91</ele><time>2026-05-01T08:38:24Z</time></trkpt><trkpt lat="60.1185768843" lon="32.3205819167"><ele>6.27</ele><time>2026-05-01T08:41:05Z</time></trkpt><trkpt lat="60.1185878646" lon="32.3205778934"><ele>6.24</ele><time>2026-05-01T08:41:07Z</time></trkpt><trkpt lat="60.1182333101" lon="32.3208003491"><ele>5.09</ele><time>2026-05-01T08:43:40Z</time></trkpt><trkpt lat="60.1182818413" lon="32.3207791429"><ele>5.01</ele><time>2026-05-01T08:43:52Z</time></trkpt><trkpt lat="60.1185184624" lon="32.3206906300"><ele>4.50</ele><time>2026-05-01T08:45:07Z</time></trkpt><trkpt lat="60.1184895448" lon="32.3207154404"><ele>4.50</ele><time>2026-05-01T08:45:09Z</time></trkpt><trkpt lat="60.1186787244" lon="32.3206327949"><ele>4.24</ele><time>2026-05-01T08:45:49Z</time></trkpt><trkpt lat="60.1187337097" lon="32.3205933999"><ele>4.21</ele><time>2026-05-01T08:45:54Z</time></trkpt><trkpt lat="60.1182937436" lon="32.3208977468"><ele>4.05</ele><time>2026-05-01T08:46:26Z</time></trkpt><trkpt lat="60.1182174683" lon="32.3209811468"><ele>3.87</ele><time>2026-05-01T08:47:00Z</time></trkpt><trkpt lat="60.1184365712" lon="32.3208938073"><ele>3.69</ele><time>2026-05-01T08:47:39Z</time></trkpt><trkpt lat="60.1185659878" lon="32.3205366544"><ele>3.35</ele><time>2026-05-01T08:49:00Z</time></trkpt><trkpt lat="60.1182587910" lon="32.3204405140"><ele>3.10</ele><time>2026-05-01T08:50:17Z</time></trkpt><trkpt lat="60.1179658435" lon="32.3204949126"><ele>3.10</ele><time>2026-05-01T08:50:37Z</time></trkpt><trkpt lat="60.1178590581" lon="32.3200832773"><ele>3.07</ele><time>2026-05-01T08:51:07Z</time></trkpt><trkpt lat="60.1182782371" lon="32.3201679345"><ele>2.99</ele><time>2026-05-01T08:51:31Z</time></trkpt><trkpt lat="60.1189254876" lon="32.3208552506"><ele>2.92</ele><time>2026-05-01T08:52:15Z</time></trkpt><trkpt lat="60.1187401637" lon="32.3208995070"><ele>2.96</ele><time>2026-05-01T08:52:53Z</time></trkpt><trkpt lat="60.1185115892" lon="32.3204359878"><ele>3.44</ele><time>2026-05-01T08:54:42Z</time></trkpt><trkpt lat="60.1185027882" lon="32.3196041677"><ele>3.62</ele><time>2026-05-01T08:55:14Z</time></trkpt><trkpt lat="60.1184961665" lon="32.3198010586"><ele>3.78</ele><time>2026-05-01T08:55:40Z</time></trkpt><trkpt lat="60.1185462065" lon="32.3204607982"><ele>3.92</ele><time>2026-05-01T08:55:59Z</time></trkpt><trkpt lat="60.1185689215" lon="32.3206551746"><ele>4.33</ele><time>2026-05-01T08:56:48Z</time></trkpt><trkpt lat="60.1184068155" lon="32.3204676714"><ele>4.44</ele><time>2026-05-01T08:57:05Z</time></trkpt><trkpt lat="60.1185614616" lon="32.3206881993"><ele>4.67</ele><time>2026-05-01T08:57:31Z</time></trkpt><trkpt lat="60.1185505651" lon="32.3207482137"><ele>4.73</ele><time>2026-05-01T08:57:40Z</time></trkpt><trkpt lat="60.1185042132" lon="32.3207327072"><ele>4.80</ele><time>2026-05-01T08:57:48Z</time></trkpt><trkpt lat="60.1185710169" lon="32.3207964096"><ele>4.91</ele><time>2026-05-01T08:58:01Z</time></trkpt><trkpt lat="60.1184936520" lon="32.3207300249"><ele>5.43</ele><time>2026-05-01T08:59:13Z</time></trkpt><trkpt lat="60.1184150297" lon="32.3205909692"><ele>6.21</ele><time>2026-05-01T09:01:08Z</time></trkpt><trkpt lat="60.1184171252" lon="32.3206363153"><ele>6.25</ele><time>2026-05-01T09:01:14Z</time></trkpt><trkpt lat="60.1183668338" lon="32.3207322881"><ele>6.31</ele><time>2026-05-01T09:01:22Z</time></trkpt><trkpt lat="60.1183452923" lon="32.3207393289"><ele>6.32</ele><time>2026-05-01T09:01:25Z</time></trkpt><trkpt lat="60.1185809914" lon="32.3208596930"><ele>6.74</ele><time>2026-05-01T09:02:21Z</time></trkpt><trkpt lat="60.1186143514" lon="32.3207196314"><ele>6.95</ele><time>2026-05-01T09:02:47Z</time></trkpt><trkpt lat="60.1186399162" lon="32.3207339644"><ele>6.98</ele><time>2026-05-01T09:02:50Z</time></trkpt><trkpt lat="60.1187037863" lon="32.3207813222"><ele>7.21</ele><time>2026-05-01T09:03:12Z</time></trkpt><trkpt lat="60.1183151174" lon="32.3205601238"><ele>7.99</ele><time>2026-05-01T09:04:06Z</time></trkpt><trkpt lat="60.1183155365" lon="32.3205561843"><ele>8.10</ele><time>2026-05-01T09:04:13Z</time></trkpt><trkpt lat="60.1183191407" lon="32.3205625545"><ele>8.36</ele><time>2026-05-01T09:04:30Z</time></trkpt><trkpt lat="60.1182726212" lon="32.3205450363"><ele>8.45</ele><time>2026-05-01T09:04:35Z</time></trkpt><trkpt lat="60.1182587910" lon="32.3205825873"><ele>8.71</ele><time>2026-05-01T09:04:51Z</time></trkpt><trkpt lat="60.1185800694" lon="32.3203437869"><ele>9.98</ele><time>2026-05-01T09:06:14Z</time></trkpt><trkpt lat="60.1181004569" lon="32.3203183059"><ele>10.71</ele><time>2026-05-01T09:06:54Z</time></trkpt><trkpt lat="60.1186034549" lon="32.3207959067"><ele>12.76</ele><time>2026-05-01T09:08:54Z</time></trkpt><trkpt lat="60.1183307078" lon="32.3207348865"><ele>13.46</ele><time>2026-05-01T09:09:37Z</time></trkpt><trkpt lat="60.1186831668" lon="32.3207841720"><ele>14.75</ele><time>2026-05-01T09:11:00Z</time></trkpt><trkpt lat="60.1187208854" lon="32.3208042048"><ele>14.79</ele><time>2026-05-01T09:11:03Z</time></trkpt><trkpt lat="60.1188796386" lon="32.3209124990"><ele>15.11</ele><time>2026-05-01T09:11:26Z</time></trkpt><trkpt lat="60.1188696641" lon="32.3209176958"><ele>15.15</ele><time>2026-05-01T09:11:30Z</time></trkpt><trkpt lat="60.1188750286" lon="32.3209042847"><ele>15.48</ele><time>2026-05-01T09:11:56Z</time></trkpt><trkpt lat="60.1187120005" lon="32.3207804002"><ele>15.91</ele><time>2026-05-01T09:12:37Z</time></trkpt><trkpt lat="60.1187217236" lon="32.3207719345"><ele>16.10</ele><time>2026-05-01T09:12:59Z</time></trkpt><trkpt lat="60.1186503936" lon="32.3207866028"><ele>16.22</ele><time>2026-05-01T09:13:14Z</time></trkpt><trkpt lat="60.1186818257" lon="32.3208012711"><ele>16.25</ele><time>2026-05-01T09:13:18Z</time></trkpt><trkpt lat="60.1187347993" lon="32.3208223097"><ele>16.29</ele><time>2026-05-01T09:13:23Z</time></trkpt><trkpt lat="60.1182351541" lon="32.3205471318"><ele>16.98</ele><time>2026-05-01T09:14:47Z</time></trkpt><trkpt lat="60.1181316376" lon="32.3205610458"><ele>17.13</ele><time>2026-05-01T09:15:05Z</time></trkpt><trkpt lat="60.1181386784" lon="32.3205769714"><ele>17.21</ele><time>2026-05-01T09:15:16Z</time></trkpt><trkpt lat="60.1184606273" lon="32.3207855970"><ele>17.59</ele><time>2026-05-01T09:15:58Z</time></trkpt><trkpt lat="60.1182964258" lon="32.3206440266"><ele>18.22</ele><time>2026-05-01T09:17:13Z</time></trkpt><trkpt lat="60.1183954161" lon="32.3207715992"><ele>18.51</ele><time>2026-05-01T09:17:53Z</time></trkpt><trkpt lat="60.1185752917" lon="32.3209616169"><ele>18.60</ele><time>2026-05-01T09:18:11Z</time></trkpt><trkpt lat="60.1186111663" lon="32.3209834099"><ele>18.62</ele><time>2026-05-01T09:18:14Z</time></trkpt><trkpt lat="60.1186363120" lon="32.3209915403"><ele>18.67</ele><time>2026-05-01T09:18:19Z</time></trkpt><trkpt lat="60.1186177880" lon="32.3209715914"><ele>18.69</ele><time>2026-05-01T09:18:22Z</time></trkpt><trkpt lat="60.1183882076" lon="32.3207142670"><ele>19.08</ele><time>2026-05-01T09:19:31Z</time></trkpt><trkpt lat="60.1184030436" lon="32.3207445256"><ele>19.18</ele><time>2026-05-01T09:19:47Z</time></trkpt><trkpt lat="60.1178808510" lon="32.3205736186"><ele>19.59</ele><time>2026-05-01T09:21:26Z</time></trkpt><trkpt lat="60.1180470642" lon="32.3208211362"><ele>19.77</ele><time>2026-05-01T09:22:26Z</time></trkpt><trkpt lat="60.1188286766" lon="32.3208109103"><ele>19.87</ele><time>2026-05-01T09:23:23Z</time></trkpt><trkpt lat="60.1188176963" lon="32.3208030313"><ele>19.86</ele><time>2026-05-01T09:23:25Z</time></trkpt><trkpt lat="60.1186594460" lon="32.3207120877"><ele>19.84</ele><time>2026-05-01T09:23:51Z</time></trkpt><trkpt lat="60.1186214760" lon="32.3206923064"><ele>19.85</ele><time>2026-05-01T09:23:55Z</time></trkpt><trkpt lat="60.1185905468" lon="32.3207317013"><ele>19.84</ele><time>2026-05-01T09:23:58Z</time></trkpt><trkpt lat="60.1185435243" lon="32.3207460344"><ele>19.82</ele><time>2026-05-01T09:24:01Z</time></trkpt><trkpt lat="60.1184112579" lon="32.3207363952"><ele>19.80</ele><time>2026-05-01T09:24:10Z</time></trkpt><trkpt lat="60.1183512434" lon="32.3207285162"><ele>19.79</ele><time>2026-05-01T09:24:15Z</time></trkpt><trkpt lat="60.1185235754" lon="32.3207099922"><ele>19.41</ele><time>2026-05-01T09:26:09Z</time></trkpt><trkpt lat="60.1185423508" lon="32.3175187502"><ele>19.27</ele><time>2026-05-01T09:27:02Z</time></trkpt><trkpt lat="60.1185459550" lon="32.3167202063"><ele>19.26</ele><time>2026-05-01T09:27:03Z</time></trkpt><trkpt lat="60.1187093183" lon="32.3135968577"><ele>19.21</ele><time>2026-05-01T09:27:31Z</time></trkpt><trkpt lat="60.1187180355" lon="32.3128414806"><ele>19.20</ele><time>2026-05-01T09:27:47Z</time></trkpt><trkpt lat="60.1184086595" lon="32.3210837413"><ele>19.17</ele><time>2026-05-01T09:28:04Z</time></trkpt><trkpt lat="60.1184358168" lon="32.3208775464"><ele>19.17</ele><time>2026-05-01T09:28:19Z</time></trkpt><trkpt lat="60.1186110824" lon="32.3207985889"><ele>19.15</ele><time>2026-05-01T09:29:23Z</time></trkpt><trkpt lat="60.1189719234" lon="32.3210890219"><ele>19.08</ele><time>2026-05-01T09:31:07Z</time></trkpt><trkpt lat="60.1188876852" lon="32.3211310990"><ele>19.08</ele><time>2026-05-01T09:31:28Z</time></trkpt><trkpt lat="60.1187429298" lon="32.3209925462"><ele>19.09</ele><time>2026-05-01T09:34:28Z</time></trkpt><trkpt lat="60.1185664907" lon="32.3207970802"><ele>19.11</ele><time>2026-05-01T09:35:47Z</time></trkpt><trkpt lat="60.1185290236" lon="32.3208270874"><ele>19.02</ele><time>2026-05-01T09:37:00Z</time></trkpt><trkpt lat="60.1184624713" lon="32.3207491357"><ele>18.99</ele><time>2026-05-01T09:37:20Z</time></trkpt><trkpt lat="60.1183382515" lon="32.3208351340"><ele>19.61</ele><time>2026-05-01T09:40:19Z</time></trkpt><trkpt lat="60.1183721144" lon="32.3207499739"><ele>19.56</ele><time>2026-05-01T09:42:33Z</time></trkpt><trkpt lat="60.1187415887" lon="32.3210167699"><ele>19.74</ele><time>2026-05-01T09:47:57Z</time></trkpt><trkpt lat="60.1187777147" lon="32.3210400715"><ele>19.77</ele><time>2026-05-01T09:48:09Z</time></trkpt><trkpt lat="60.1184804086" lon="32.3209626228"><ele>20.04</ele><time>2026-05-01T09:49:50Z</time></trkpt><trkpt lat="60.1184669137" lon="32.3209442664"><ele>20.09</ele><time>2026-05-01T09:50:09Z</time></trkpt><trkpt lat="60.1184567716" lon="32.3209397402"><ele>20.10</ele><time>2026-05-01T09:50:10Z</time></trkpt><trkpt lat="60.1183487289" lon="32.3208467010"><ele>20.20</ele><time>2026-05-01T09:50:43Z</time></trkpt><trkpt lat="60.1183129381" lon="32.3210397363"><ele>22.19</ele><time>2026-05-01T10:00:52Z</time></trkpt><trkpt lat="60.1183354016" lon="32.3210827354"><ele>22.32</ele><time>2026-05-01T10:01:13Z</time></trkpt><trkpt lat="60.1183471363" lon="32.3209329508"><ele>23.15</ele><time>2026-05-01T10:03:15Z</time></trkpt><trkpt lat="60.1185072307" lon="32.3206736147"><ele>25.56</ele><time>2026-05-01T10:07:06Z</time></trkpt><trkpt lat="60.1184147783" lon="32.3207845911"><ele>25.70</ele><time>2026-05-01T10:07:20Z</time></trkpt><trkpt lat="60.1183140278" lon="32.3208516464"><ele>26.81</ele><time>2026-05-01T10:09:10Z</time></trkpt><trkpt lat="60.1182377525" lon="32.3213210329"><ele>28.49</ele><time>2026-05-01T10:12:24Z</time></trkpt><trkpt lat="60.1183799095" lon="32.3213849030"><ele>29.14</ele><time>2026-05-01T10:13:43Z</time></trkpt><trkpt lat="60.1184832584" lon="32.3209546600"><ele>30.78</ele><time>2026-05-01T10:17:50Z</time></trkpt><trkpt lat="60.1182471402" lon="32.3210410774"><ele>31.08</ele><time>2026-05-01T10:18:31Z</time></trkpt><trkpt lat="60.1183749642" lon="32.3211396486"><ele>31.87</ele><time>2026-05-01T10:20:08Z</time></trkpt><trkpt lat="60.1184067316" lon="32.3209634610"><ele>31.99</ele><time>2026-05-01T10:20:22Z</time></trkpt><trkpt lat="60.1185073145" lon="32.3206482176"><ele>32.11</ele><time>2026-05-01T10:20:38Z</time></trkpt><trkpt lat="60.1184911374" lon="32.3207534105"><ele>33.00</ele><time>2026-05-01T10:22:36Z</time></trkpt></trkseg><trkseg><trkpt lat="60.0574234407" lon="32.3224112671"><ele>27.77</ele><time>2026-07-08T10:11:02Z</time></trkpt><trkpt lat="60.0565037783" lon="32.3223713692"><ele>25.82</ele><time>2026-07-08T10:11:06Z</time></trkpt><trkpt lat="60.0535397697" lon="32.3222784977"><ele>24.91</ele><time>2026-07-08T10:11:19Z</time></trkpt><trkpt lat="60.0507454947" lon="32.3221381847"><ele>24.98</ele><time>2026-07-08T10:11:31Z</time></trkpt><trkpt lat="60.0473571941" lon="32.3219949380"><ele>24.95</ele><time>2026-07-08T10:11:45Z</time></trkpt><trkpt lat="60.0445711333" lon="32.3218511883"><ele>23.97</ele><time>2026-07-08T10:11:57Z</time></trkpt><trkpt lat="60.0413094833" lon="32.3216973804"><ele>24.08</ele><time>2026-07-08T10:12:11Z</time></trkpt><trkpt lat="60.0381373521" lon="32.3215277307"><ele>24.03</ele><time>2026-07-08T10:12:25Z</time></trkpt><trkpt lat="60.0366275199" lon="32.3211316019"><ele>23.98</ele><time>2026-07-08T10:12:33Z</time></trkpt><trkpt lat="60.0341696106" lon="32.3197257891"><ele>24.08</ele><time>2026-07-08T10:12:46Z</time></trkpt><trkpt lat="60.0322367437" lon="32.3186551686"><ele>24.11</ele><time>2026-07-08T10:12:56Z</time></trkpt><trkpt lat="60.0301612169" lon="32.3174575623"><ele>23.97</ele><time>2026-07-08T10:13:07Z</time></trkpt><trkpt lat="60.0282765459" lon="32.3163457867"><ele>26.16</ele><time>2026-07-08T10:13:17Z</time></trkpt><trkpt lat="60.0276607275" lon="32.3158353288"><ele>27.72</ele><time>2026-07-08T10:13:21Z</time></trkpt><trkpt lat="60.0271729846" lon="32.3151809536"><ele>30.61</ele><time>2026-07-08T10:13:25Z</time></trkpt><trkpt lat="60.0265947171" lon="32.3143794760"><ele>34.02</ele><time>2026-07-08T10:13:30Z</time></trkpt><trkpt lat="60.0260315370" lon="32.3138223309"><ele>34.97</ele><time>2026-07-08T10:13:35Z</time></trkpt><trkpt lat="60.0249138102" lon="32.3132467456"><ele>35.68</ele><time>2026-07-08T10:13:46Z</time></trkpt><trkpt lat="60.0235927384" lon="32.3122179508"><ele>35.45</ele><time>2026-07-08T10:13:58Z</time></trkpt><trkpt lat="60.0215286948" lon="32.3104462679"><ele>35.40</ele><time>2026-07-08T10:14:13Z</time></trkpt><trkpt lat="60.0203851517" lon="32.3087599967"><ele>35.33</ele><time>2026-07-08T10:14:23Z</time></trkpt><trkpt lat="60.0190628227" lon="32.3067920096"><ele>32.60</ele><time>2026-07-08T10:14:34Z</time></trkpt><trkpt lat="60.0178015139" lon="32.3057594430"><ele>31.73</ele><time>2026-07-08T10:14:43Z</time></trkpt><trkpt lat="60.0161010772" lon="32.3050875496"><ele>31.77</ele><time>2026-07-08T10:14:54Z</time></trkpt><trkpt lat="60.0156501308" lon="32.3048514314"><ele>28.24</ele><time>2026-07-08T10:14:57Z</time></trkpt><trkpt lat="60.0155038666" lon="32.3047536146"><ele>31.66</ele><time>2026-07-08T10:14:58Z</time></trkpt><trkpt lat="60.0141066872" lon="32.3032944091"><ele>32.54</ele><time>2026-07-08T10:15:08Z</time></trkpt><trkpt lat="60.0132775493" lon="32.3023260478"><ele>33.90</ele><time>2026-07-08T10:15:14Z</time></trkpt><trkpt lat="60.0118775200" lon="32.3005563766"><ele>36.38</ele><time>2026-07-08T10:15:25Z</time></trkpt><trkpt lat="60.0110189617" lon="32.2990817484"><ele>33.69</ele><time>2026-07-08T10:15:33Z</time></trkpt><trkpt lat="60.0105770677" lon="32.2983272094"><ele>31.15</ele><time>2026-07-08T10:15:37Z</time></trkpt><trkpt lat="60.0099216029" lon="32.2972079739"><ele>29.08</ele><time>2026-07-08T10:15:43Z</time></trkpt><trkpt lat="60.0098820403" lon="32.2946693469"><ele>26.36</ele><time>2026-07-08T10:15:50Z</time></trkpt><trkpt lat="60.0098083634" lon="32.2943769861"><ele>25.17</ele><time>2026-07-08T10:15:51Z</time></trkpt><trkpt lat="60.0095722452" lon="32.2939128801"><ele>25.21</ele><time>2026-07-08T10:15:53Z</time></trkpt><trkpt lat="60.0092817284" lon="32.2929716762"><ele>24.08</ele><time>2026-07-08T10:15:56Z</time></trkpt><trkpt lat="60.0091899466" lon="32.2928582691"><ele>24.06</ele><time>2026-07-08T10:15:57Z</time></trkpt><trkpt lat="60.0090605300" lon="32.2927818261"><ele>22.12</ele><time>2026-07-08T10:15:58Z</time></trkpt><trkpt lat="60.0089498889" lon="32.2927198838"><ele>25.21</ele><time>2026-07-08T10:15:59Z</time></trkpt><trkpt lat="60.0088392477" lon="32.2926727775"><ele>26.34</ele><time>2026-07-08T10:16:00Z</time></trkpt><trkpt lat="60.0087292772" lon="32.2926446144"><ele>26.38</ele><time>2026-07-08T10:16:01Z</time></trkpt><trkpt lat="60.0072577503" lon="32.2924457956"><ele>27.53</ele><time>2026-07-08T10:16:14Z</time></trkpt><trkpt lat="60.0053165853" lon="32.2921628226"><ele>27.41</ele><time>2026-07-08T10:16:29Z</time></trkpt><trkpt lat="60.0031084567" lon="32.2917880677"><ele>28.04</ele><time>2026-07-08T10:16:48Z</time></trkpt><trkpt lat="60.0029341970" lon="32.2917682864"><ele>24.43</ele><time>2026-07-08T10:16:50Z</time></trkpt><trkpt lat="60.0028300099" lon="32.2917500976"><ele>24.25</ele><time>2026-07-08T10:16:51Z</time></trkpt><trkpt lat="60.0015752390" lon="32.2917415481"><ele>20.60</ele><time>2026-07-08T10:17:04Z</time></trkpt><trkpt lat="60.0014695432" lon="32.2917347588"><ele>20.61</ele><time>2026-07-08T10:17:05Z</time></trkpt><trkpt lat="60.0007557403" lon="32.2916889098"><ele>22.95</ele><time>2026-07-08T10:17:12Z</time></trkpt><trkpt lat="59.9998997804" lon="32.2913177591"><ele>23.78</ele><time>2026-07-08T10:17:25Z</time></trkpt><trkpt lat="59.9997671787" lon="32.2920043208"><ele>23.84</ele><time>2026-07-08T10:17:26Z</time></trkpt><trkpt lat="59.9993780069" lon="32.2942202445"><ele>23.79</ele><time>2026-07-08T10:17:37Z</time></trkpt><trkpt lat="59.9980089068" lon="32.2950194590"><ele>24.68</ele><time>2026-07-08T10:17:50Z</time></trkpt><trkpt lat="59.9977260176" lon="32.2955007479"><ele>22.20</ele><time>2026-07-08T10:17:53Z</time></trkpt><trkpt lat="59.9973779172" lon="32.2958029155"><ele>20.57</ele><time>2026-07-08T10:17:57Z</time></trkpt><trkpt lat="59.9970625900" lon="32.2958996426"><ele>17.74</ele><time>2026-07-08T10:18:01Z</time></trkpt></trkseg><trkseg><trkpt lat="59.9283798505" lon="32.4023742881"><ele>84.96</ele><time>2026-07-08T10:46:13Z</time></trkpt><trkpt lat="59.9283917528" lon="32.4023597036"><ele>84.96</ele><time>2026-07-08T10:46:15Z</time></trkpt><trkpt lat="59.9284042418" lon="32.4022705201"><ele>77.58</ele><time>2026-07-08T10:46:19Z</time></trkpt><trkpt lat="59.9284058344" lon="32.4022484757"><ele>77.57</ele><time>2026-07-08T10:46:20Z</time></trkpt><trkpt lat="59.9284111988" lon="32.4020688515"><ele>78.00</ele><time>2026-07-08T10:46:46Z</time></trkpt><trkpt lat="59.9284047447" lon="32.4020824302"><ele>76.30</ele><time>2026-07-08T10:47:07Z</time></trkpt><trkpt lat="59.9284046609" lon="32.4020825140"><ele>79.21</ele><time>2026-07-08T10:47:09Z</time></trkpt><trkpt lat="59.9283933453" lon="32.4020870402"><ele>76.44</ele><time>2026-07-08T10:47:21Z</time></trkpt><trkpt lat="59.9283947702" lon="32.4020754732"><ele>76.03</ele><time>2026-07-08T10:47:44Z</time></trkpt><trkpt lat="59.9283884000" lon="32.4020825140"><ele>71.17</ele><time>2026-07-08T10:47:49Z</time></trkpt><trkpt lat="59.9283846281" lon="32.4020815920"><ele>65.60</ele><time>2026-07-08T10:47:51Z</time></trkpt><trkpt lat="59.9283842929" lon="32.4020815920"><ele>86.65</ele><time>2026-07-08T10:47:52Z</time></trkpt><trkpt lat="59.9283842929" lon="32.4020822626"><ele>86.64</ele><time>2026-07-08T10:47:53Z</time></trkpt><trkpt lat="59.9283838738" lon="32.4020841066"><ele>80.71</ele><time>2026-07-08T10:47:54Z</time></trkpt><trkpt lat="59.9283850472" lon="32.4020852800"><ele>78.52</ele><time>2026-07-08T10:47:56Z</time></trkpt><trkpt lat="59.9283797666" lon="32.4020509981"><ele>76.80</ele><time>2026-07-08T10:48:30Z</time></trkpt><trkpt lat="59.9283437245" lon="32.4021519162"><ele>76.48</ele><time>2026-07-08T10:48:49Z</time></trkpt><trkpt lat="59.9283186626" lon="32.4022225756"><ele>76.38</ele><time>2026-07-08T10:48:53Z</time></trkpt><trkpt lat="59.9282251205" lon="32.4024295248"><ele>76.15</ele><time>2026-07-08T10:49:07Z</time></trkpt><trkpt lat="59.9280809518" lon="32.4026037846"><ele>75.77</ele><time>2026-07-08T10:49:23Z</time></trkpt><trkpt lat="59.9279214442" lon="32.4028722569"><ele>75.29</ele><time>2026-07-08T10:49:43Z</time></trkpt><trkpt lat="59.9277873337" lon="32.4032224528"><ele>74.72</ele><time>2026-07-08T10:50:01Z</time></trkpt><trkpt lat="59.9276773632" lon="32.4037758261"><ele>73.87</ele><time>2026-07-08T10:50:23Z</time></trkpt><trkpt lat="59.9276279099" lon="32.4041666742"><ele>75.54</ele><time>2026-07-08T10:50:39Z</time></trkpt><trkpt lat="59.9276032671" lon="32.4046374857"><ele>74.70</ele><time>2026-07-08T10:50:57Z</time></trkpt><trkpt lat="59.9276227131" lon="32.4051547330"><ele>74.49</ele><time>2026-07-08T10:51:19Z</time></trkpt><trkpt lat="59.9276170973" lon="32.4052165076"><ele>74.40</ele><time>2026-07-08T10:51:21Z</time></trkpt><trkpt lat="59.9276190251" lon="32.4056377821"><ele>73.45</ele><time>2026-07-08T10:51:41Z</time></trkpt><trkpt lat="59.9276202824" lon="32.4061028939"><ele>72.30</ele><time>2026-07-08T10:52:05Z</time></trkpt><trkpt lat="59.9276101403" lon="32.4061805941"><ele>72.08</ele><time>2026-07-08T10:52:10Z</time></trkpt><trkpt lat="59.9276226293" lon="32.4063223321"><ele>70.80</ele><time>2026-07-08T10:52:37Z</time></trkpt><trkpt lat="59.9275963102" lon="32.4066022038"><ele>70.10</ele><time>2026-07-08T10:52:53Z</time></trkpt><trkpt lat="59.9276220426" lon="32.4070632085"><ele>69.16</ele><time>2026-07-08T10:53:15Z</time></trkpt><trkpt lat="59.9276948813" lon="32.4074571580"><ele>68.32</ele><time>2026-07-08T10:53:36Z</time></trkpt><trkpt lat="59.9277010839" lon="32.4078791030"><ele>67.55</ele><time>2026-07-08T10:53:56Z</time></trkpt><trkpt lat="59.9277103879" lon="32.4082285445"><ele>66.88</ele><time>2026-07-08T10:54:14Z</time></trkpt><trkpt lat="59.9276915286" lon="32.4086285289"><ele>66.31</ele><time>2026-07-08T10:54:29Z</time></trkpt><trkpt lat="59.9277036823" lon="32.4086987693"><ele>63.90</ele><time>2026-07-08T10:54:33Z</time></trkpt><trkpt lat="59.9276957195" lon="32.4091508053"><ele>63.14</ele><time>2026-07-08T10:54:55Z</time></trkpt><trkpt lat="59.9276705738" lon="32.4096999038"><ele>62.48</ele><time>2026-07-08T10:55:17Z</time></trkpt><trkpt lat="59.9276782013" lon="32.4099971261"><ele>61.89</ele><time>2026-07-08T10:55:35Z</time></trkpt><trkpt lat="59.9276541453" lon="32.4099692982"><ele>60.33</ele><time>2026-07-08T10:56:03Z</time></trkpt><trkpt lat="59.9276560731" lon="32.4096443318"><ele>59.80</ele><time>2026-07-08T10:56:24Z</time></trkpt><trkpt lat="59.9276629463" lon="32.4095973093"><ele>59.75</ele><time>2026-07-08T10:56:27Z</time></trkpt><trkpt lat="59.9276787043" lon="32.4092740193"><ele>58.55</ele><time>2026-07-08T10:56:41Z</time></trkpt><trkpt lat="59.9276904389" lon="32.4092189502"><ele>38.33</ele><time>2026-07-08T10:56:45Z</time></trkpt></trkseg><trkseg><trkpt lat="60.1745543350" lon="32.4467759952"><ele>0.03</ele><time>2026-08-05T07:05:41Z</time></trkpt><trkpt lat="60.1755337603" lon="32.4494504090"><ele>0.06</ele><time>2026-08-05T07:05:58Z</time></trkpt><trkpt lat="60.1764882077" lon="32.4518443644"><ele>0.12</ele><time>2026-08-05T07:06:14Z</time></trkpt><trkpt lat="60.1776027493" lon="32.4547552317"><ele>0.97</ele><time>2026-08-05T07:06:33Z</time></trkpt><trkpt lat="60.1782859582" lon="32.4570873287"><ele>0.98</ele><time>2026-08-05T07:06:47Z</time></trkpt><trkpt lat="60.1791420020" lon="32.4606024474"><ele>0.99</ele><time>2026-08-05T07:07:07Z</time></trkpt><trkpt lat="60.1804720424" lon="32.4658932723"><ele>1.85</ele><time>2026-08-05T07:06:35Z</time></trkpt><trkpt lat="60.1807667501" lon="32.4670163635"><ele>1.89</ele><time>2026-08-05T07:06:40Z</time></trkpt><trkpt lat="60.1807667501" lon="32.4670163635"><ele>2.99</ele><time>2026-08-05T07:08:06Z</time></trkpt><trkpt lat="60.1844599843" lon="32.4835766573"><ele>3.01</ele><time>2026-08-05T07:09:18Z</time></trkpt><trkpt lat="60.1845552865" lon="32.4840178806"><ele>3.06</ele><time>2026-08-05T07:09:20Z</time></trkpt><trkpt lat="60.1847266965" lon="32.4846166000"><ele>3.15</ele><time>2026-08-05T07:09:23Z</time></trkpt><trkpt lat="60.1848731283" lon="32.4855791777"><ele>3.35</ele><time>2026-08-05T07:09:28Z</time></trkpt><trkpt lat="60.1851625554" lon="32.4866763689"><ele>3.65</ele><time>2026-08-05T07:09:36Z</time></trkpt><trkpt lat="60.1853768807" lon="32.4876769166"><ele>3.90</ele><time>2026-08-05T07:09:42Z</time></trkpt><trkpt lat="60.1857681479" lon="32.4900538567"><ele>4.27</ele><time>2026-08-05T07:09:53Z</time></trkpt><trkpt lat="60.1861409750" lon="32.4920018949"><ele>4.57</ele><time>2026-08-05T07:10:03Z</time></trkpt><trkpt lat="60.1865477487" lon="32.4933663011"><ele>4.85</ele><time>2026-08-05T07:10:12Z</time></trkpt><trkpt lat="60.1871484797" lon="32.4948048033"><ele>5.08</ele><time>2026-08-05T07:10:19Z</time></trkpt><trkpt lat="60.1875952352" lon="32.4954875093"><ele>5.27</ele><time>2026-08-05T07:10:24Z</time></trkpt><trkpt lat="60.1879301760" lon="32.4960940238"><ele>5.47</ele><time>2026-08-05T07:10:30Z</time></trkpt><trkpt lat="60.1880911086" lon="32.4967995286"><ele>5.68</ele><time>2026-08-05T07:10:36Z</time></trkpt><trkpt lat="60.1882499456" lon="32.4981041718"><ele>-0.85</ele><time>2026-08-05T07:10:43Z</time></trkpt><trkpt lat="60.1882541366" lon="32.4983238615"><ele>7.62</ele><time>2026-08-05T07:10:44Z</time></trkpt><trkpt lat="60.1882798690" lon="32.4984803516"><ele>7.65</ele><time>2026-08-05T07:10:45Z</time></trkpt><trkpt lat="60.1882672124" lon="32.4986737221"><ele>7.68</ele><time>2026-08-05T07:10:46Z</time></trkpt><trkpt lat="60.1884645224" lon="32.4997815583"><ele>5.36</ele><time>2026-08-05T07:10:52Z</time></trkpt><trkpt lat="60.1885878202" lon="32.5002991408"><ele>3.53</ele><time>2026-08-05T07:10:55Z</time></trkpt><trkpt lat="60.1882255543" lon="32.5019542314"><ele>3.75</ele><time>2026-08-05T07:11:02Z</time></trkpt><trkpt lat="60.1882977225" lon="32.5027563795"><ele>3.74</ele><time>2026-08-05T07:11:06Z</time></trkpt><trkpt lat="60.1884933561" lon="32.5044484343"><ele>3.78</ele><time>2026-08-05T07:11:16Z</time></trkpt><trkpt lat="60.1887839567" lon="32.5063719135"><ele>5.98</ele><time>2026-08-05T07:11:27Z</time></trkpt><trkpt lat="60.1888038218" lon="32.5065258890"><ele>5.98</ele><time>2026-08-05T07:11:28Z</time></trkpt><trkpt lat="60.1890154649" lon="32.5073614810"><ele>5.95</ele><time>2026-08-05T07:11:34Z</time></trkpt><trkpt lat="60.1895445306" lon="32.5086890906"><ele>5.91</ele><time>2026-08-05T07:11:43Z</time></trkpt><trkpt lat="60.1899366360" lon="32.5100701768"><ele>1.07</ele><time>2026-08-05T07:11:50Z</time></trkpt><trkpt lat="60.1899863407" lon="32.5106625259"><ele>7.32</ele><time>2026-08-05T07:11:52Z</time></trkpt><trkpt lat="60.1901481953" lon="32.5118348189"><ele>4.86</ele><time>2026-08-05T07:11:58Z</time></trkpt><trkpt lat="60.1902987342" lon="32.5125080533"><ele>3.30</ele><time>2026-08-05T07:12:02Z</time></trkpt><trkpt lat="60.1904022507" lon="32.5127716642"><ele>5.55</ele><time>2026-08-05T07:12:04Z</time></trkpt><trkpt lat="60.1905511972" lon="32.5132737402"><ele>5.47</ele><time>2026-08-05T07:12:08Z</time></trkpt><trkpt lat="60.1912388485" lon="32.5155051704"><ele>5.30</ele><time>2026-08-05T07:12:20Z</time></trkpt><trkpt lat="60.1918487158" lon="32.5178852119"><ele>5.08</ele><time>2026-08-05T07:12:32Z</time></trkpt><trkpt lat="60.1919813175" lon="32.5182742998"><ele>5.03</ele><time>2026-08-05T07:12:34Z</time></trkpt><trkpt lat="60.1921155117" lon="32.5186618790"><ele>4.98</ele><time>2026-08-05T07:12:36Z</time></trkpt><trkpt lat="60.1923931204" lon="32.5192801282"><ele>4.91</ele><time>2026-08-05T07:12:40Z</time></trkpt><trkpt lat="60.1926628500" lon="32.5199495908"><ele>4.81</ele><time>2026-08-05T07:12:46Z</time></trkpt><trkpt lat="60.1928017382" lon="32.5203125272"><ele>4.74</ele><time>2026-08-05T07:12:50Z</time></trkpt><trkpt lat="60.1930559613" lon="32.5208441913"><ele>0.89</ele><time>2026-08-05T07:12:56Z</time></trkpt><trkpt lat="60.1930927578" lon="32.5209851749"><ele>0.88</ele><time>2026-08-05T07:12:57Z</time></trkpt><trkpt lat="60.1931704581" lon="32.5212431699"><ele>3.22</ele><time>2026-08-05T07:12:59Z</time></trkpt><trkpt lat="60.1930917520" lon="32.5223033968"><ele>4.12</ele><time>2026-08-05T07:13:02Z</time></trkpt><trkpt lat="60.1940381527" lon="32.5233765319"><ele>4.13</ele><time>2026-08-05T07:13:12Z</time></trkpt><trkpt lat="60.1945696492" lon="32.5249959994"><ele>4.09</ele><time>2026-08-05T07:13:22Z</time></trkpt><trkpt lat="60.1951534487" lon="32.5266404450"><ele>4.04</ele><time>2026-08-05T07:13:31Z</time></trkpt><trkpt lat="60.1954924129" lon="32.5278771110"><ele>3.99</ele><time>2026-08-05T07:13:38Z</time></trkpt><trkpt lat="60.1961340476" lon="32.5288518425"><ele>3.91</ele><time>2026-08-05T07:13:45Z</time></trkpt><trkpt lat="60.1968071144" lon="32.5302173384"><ele>3.80</ele><time>2026-08-05T07:13:55Z</time></trkpt><trkpt lat="60.1974841207" lon="32.5311307982"><ele>3.73</ele><time>2026-08-05T07:14:04Z</time></trkpt><trkpt lat="60.1982396655" lon="32.5323064439"><ele>3.69</ele><time>2026-08-05T07:14:15Z</time></trkpt><trkpt lat="60.1984553318" lon="32.5326090306"><ele>1.31</ele><time>2026-08-05T07:14:18Z</time></trkpt><trkpt lat="60.1985548250" lon="32.5328418799"><ele>1.31</ele><time>2026-08-05T07:14:20Z</time></trkpt><trkpt lat="60.1986899413" lon="32.5335640647"><ele>1.32</ele><time>2026-08-05T07:14:24Z</time></trkpt><trkpt lat="60.1988030970" lon="32.5339157693"><ele>1.32</ele><time>2026-08-05T07:14:27Z</time></trkpt><trkpt lat="60.1993703842" lon="32.5347058475"><ele>1.31</ele><time>2026-08-05T07:14:35Z</time></trkpt><trkpt lat="60.1998323109" lon="32.5355862826"><ele>-3.69</ele><time>2026-08-05T07:14:41Z</time></trkpt><trkpt lat="60.1999091730" lon="32.5357203092"><ele>0.00</ele><time>2026-08-05T07:14:42Z</time></trkpt><trkpt lat="60.1999794971" lon="32.5358657353"><ele>3.03</ele><time>2026-08-05T07:14:43Z</time></trkpt><trkpt lat="60.2000697702" lon="32.5359980855"><ele>8.43</ele><time>2026-08-05T07:14:44Z</time></trkpt><trkpt lat="60.2001513261" lon="32.5363766123"><ele>4.31</ele><time>2026-08-05T07:14:46Z</time></trkpt><trkpt lat="60.2002234105" lon="32.5367381237"><ele>3.29</ele><time>2026-08-05T07:14:48Z</time></trkpt><trkpt lat="60.2001673356" lon="32.5377484784"><ele>2.44</ele><time>2026-08-05T07:14:50Z</time></trkpt><trkpt lat="60.2003998496" lon="32.5379492249"><ele>2.41</ele><time>2026-08-05T07:14:53Z</time></trkpt><trkpt lat="60.2007632889" lon="32.5387235451"><ele>2.43</ele><time>2026-08-05T07:14:58Z</time></trkpt><trkpt lat="60.2017647587" lon="32.5401533302"><ele>2.55</ele><time>2026-08-05T07:15:09Z</time></trkpt><trkpt lat="60.2020295430" lon="32.5405368861"><ele>2.60</ele><time>2026-08-05T07:15:12Z</time></trkpt><trkpt lat="60.2027611993" lon="32.5410699751"><ele>2.71</ele><time>2026-08-05T07:15:20Z</time></trkpt><trkpt lat="60.2035428118" lon="32.5419301260"><ele>2.82</ele><time>2026-08-05T07:15:30Z</time></trkpt><trkpt lat="60.2035818715" lon="32.5419791602"><ele>2.82</ele><time>2026-08-05T07:15:31Z</time></trkpt><trkpt lat="60.2286499646" lon="32.5832215603"><ele>2.97</ele><time>2026-08-05T07:23:20Z</time></trkpt><trkpt lat="60.2287352085" lon="32.5832418445"><ele>11.48</ele><time>2026-08-05T07:23:22Z</time></trkpt><trkpt lat="60.2294840477" lon="32.5837033521"><ele>11.50</ele><time>2026-08-05T07:23:31Z</time></trkpt><trkpt lat="60.2309853304" lon="32.5847797561"><ele>11.47</ele><time>2026-08-05T07:23:50Z</time></trkpt><trkpt lat="60.2323152870" lon="32.5860555656"><ele>11.45</ele><time>2026-08-05T07:24:08Z</time></trkpt><trkpt lat="60.2333129849" lon="32.5870613940"><ele>11.43</ele><time>2026-08-05T07:24:23Z</time></trkpt><trkpt lat="60.2344577853" lon="32.5879782904"><ele>11.40</ele><time>2026-08-05T07:24:38Z</time></trkpt><trkpt lat="60.2355975565" lon="32.5893659983"><ele>11.35</ele><time>2026-08-05T07:24:56Z</time></trkpt><trkpt lat="60.2363874670" lon="32.5904916041"><ele>11.33</ele><time>2026-08-05T07:25:11Z</time></trkpt><trkpt lat="60.2370296046" lon="32.5912851188"><ele>11.31</ele><time>2026-08-05T07:25:24Z</time></trkpt><trkpt lat="60.2376797888" lon="32.5922052003"><ele>11.29</ele><time>2026-08-05T07:25:39Z</time></trkpt><trkpt lat="60.2386004571" lon="32.5933864620"><ele>11.25</ele><time>2026-08-05T07:25:55Z</time></trkpt><trkpt lat="60.2395651303" lon="32.5941704214"><ele>11.22</ele><time>2026-08-05T07:26:11Z</time></trkpt><trkpt lat="60.2403447311" lon="32.5947030913"><ele>11.21</ele><time>2026-08-05T07:26:25Z</time></trkpt><trkpt lat="60.2412270103" lon="32.5953687821"><ele>11.21</ele><time>2026-08-05T07:26:41Z</time></trkpt><trkpt lat="60.2418908570" lon="32.5956931617"><ele>11.18</ele><time>2026-08-05T07:26:54Z</time></trkpt><trkpt lat="60.2427579649" lon="32.5961421803"><ele>11.19</ele><time>2026-08-05T07:27:10Z</time></trkpt><trkpt lat="60.2435094025" lon="32.5966685638"><ele>11.20</ele><time>2026-08-05T07:27:24Z</time></trkpt><trkpt lat="60.2443672065" lon="32.5971839670"><ele>11.18</ele><time>2026-08-05T07:27:40Z</time></trkpt><trkpt lat="60.2451929916" lon="32.5976800080"><ele>11.16</ele><time>2026-08-05T07:27:56Z</time></trkpt><trkpt lat="60.2461841516" lon="32.5981912203"><ele>11.20</ele><time>2026-08-05T07:28:15Z</time></trkpt><trkpt lat="60.2470443025" lon="32.5987304281"><ele>11.15</ele><time>2026-08-05T07:28:32Z</time></trkpt><trkpt lat="60.2478541620" lon="32.5992345996"><ele>11.12</ele><time>2026-08-05T07:28:48Z</time></trkpt><trkpt lat="60.2486319188" lon="32.5996318180"><ele>11.06</ele><time>2026-08-05T07:29:03Z</time></trkpt><trkpt lat="60.2495235857" lon="32.6001367439"><ele>10.99</ele><time>2026-08-05T07:29:20Z</time></trkpt><trkpt lat="60.2505848184" lon="32.6008531451"><ele>10.93</ele><time>2026-08-05T07:29:41Z</time></trkpt><trkpt lat="60.2514119446" lon="32.6012809575"><ele>10.90</ele><time>2026-08-05T07:29:58Z</time></trkpt><trkpt lat="60.2523009293" lon="32.6017865539"><ele>10.84</ele><time>2026-08-05T07:30:16Z</time></trkpt><trkpt lat="60.2531737369" lon="32.6022017095"><ele>10.74</ele><time>2026-08-05T07:30:33Z</time></trkpt><trkpt lat="60.2540205605" lon="32.6027256623"><ele>10.70</ele><time>2026-08-05T07:30:49Z</time></trkpt><trkpt lat="60.2548072021" lon="32.6031191088"><ele>10.65</ele><time>2026-08-05T07:31:04Z</time></trkpt><trkpt lat="60.2555226814" lon="32.6034927741"><ele>10.63</ele><time>2026-08-05T07:31:19Z</time></trkpt><trkpt lat="60.2561693452" lon="32.6039833669"><ele>10.54</ele><time>2026-08-05T07:31:35Z</time></trkpt><trkpt lat="60.2567844093" lon="32.6041547768"><ele>10.53</ele><time>2026-08-05T07:31:49Z</time></trkpt><trkpt lat="60.2575764153" lon="32.6044320501"><ele>10.47</ele><time>2026-08-05T07:32:06Z</time></trkpt><trkpt lat="60.2581870370" lon="32.6047512330"><ele>10.42</ele><time>2026-08-05T07:32:22Z</time></trkpt><trkpt lat="60.2587707527" lon="32.6049564220"><ele>10.39</ele><time>2026-08-05T07:32:38Z</time></trkpt><trkpt lat="60.2594615892" lon="32.6052080467"><ele>10.29</ele><time>2026-08-05T07:32:57Z</time></trkpt><trkpt lat="60.2599851228" lon="32.6054518763"><ele>10.23</ele><time>2026-08-05T07:33:12Z</time></trkpt><trkpt lat="60.2606520709" lon="32.6056282315"><ele>10.17</ele><time>2026-08-05T07:33:30Z</time></trkpt><trkpt lat="60.2612963878" lon="32.6057919301"><ele>10.14</ele><time>2026-08-05T07:33:48Z</time></trkpt><trkpt lat="60.2617815323" lon="32.6059270464"><ele>10.09</ele><time>2026-08-05T07:34:03Z</time></trkpt><trkpt lat="60.2623241767" lon="32.6059905812"><ele>10.02</ele><time>2026-08-05T07:34:20Z</time></trkpt><trkpt lat="60.2628054656" lon="32.6060418785"><ele>9.96</ele><time>2026-08-05T07:34:35Z</time></trkpt><trkpt lat="60.2633389737" lon="32.6060582232"><ele>9.90</ele><time>2026-08-05T07:34:52Z</time></trkpt><trkpt lat="60.2638566401" lon="32.6060771663"><ele>9.83</ele><time>2026-08-05T07:35:10Z</time></trkpt><trkpt lat="60.2641451452" lon="32.6061973628"><ele>9.75</ele><time>2026-08-05T07:35:26Z</time></trkpt><trkpt lat="60.2641174011" lon="32.6064501610"><ele>9.70</ele><time>2026-08-05T07:35:40Z</time></trkpt><trkpt lat="60.2640765812" lon="32.6065242570"><ele>9.69</ele><time>2026-08-05T07:36:05Z</time></trkpt><trkpt lat="60.2640843764" lon="32.6066053938"><ele>9.62</ele><time>2026-08-05T07:36:31Z</time></trkpt><trkpt lat="60.2640842926" lon="32.6066278573"><ele>7.33</ele><time>2026-08-05T07:36:36Z</time></trkpt><trkpt lat="60.2641016431" lon="32.6067612972"><ele>7.29</ele><time>2026-08-05T07:37:09Z</time></trkpt><trkpt lat="60.2641111985" lon="32.6068496425"><ele>6.47</ele><time>2026-08-05T07:37:36Z</time></trkpt><trkpt lat="60.2641182393" lon="32.6069210563"><ele>6.43</ele><time>2026-08-05T07:38:06Z</time></trkpt><trkpt lat="60.2641202509" lon="32.6071279217"><ele>6.40</ele><time>2026-08-05T07:38:36Z</time></trkpt><trkpt lat="60.2641622443" lon="32.6072118245"><ele>6.39</ele><time>2026-08-05T07:38:56Z</time></trkpt><trkpt lat="60.2641800977" lon="32.6072875969"><ele>6.33</ele><time>2026-08-05T07:39:23Z</time></trkpt><trkpt lat="60.2642173972" lon="32.6073834021"><ele>6.27</ele><time>2026-08-05T07:39:53Z</time></trkpt><trkpt lat="60.2642562054" lon="32.6074999943"><ele>6.19</ele><time>2026-08-05T07:40:22Z</time></trkpt><trkpt lat="60.2643137891" lon="32.6076015830"><ele>6.13</ele><time>2026-08-05T07:40:51Z</time></trkpt><trkpt lat="60.2643529326" lon="32.6076710690"><ele>6.05</ele><time>2026-08-05T07:41:21Z</time></trkpt><trkpt lat="60.2644426189" lon="32.6077270601"><ele>5.98</ele><time>2026-08-05T07:41:53Z</time></trkpt><trkpt lat="60.2644826844" lon="32.6074693166"><ele>5.89</ele><time>2026-08-05T07:42:19Z</time></trkpt><trkpt lat="60.2644215804" lon="32.6074787881"><ele>5.85</ele><time>2026-08-05T07:42:46Z</time></trkpt><trkpt lat="60.2643722948" lon="32.6075656246"><ele>5.77</ele><time>2026-08-05T07:43:19Z</time></trkpt><trkpt lat="60.2643581294" lon="32.6077076141"><ele>5.75</ele><time>2026-08-05T07:43:46Z</time></trkpt><trkpt lat="60.2643356659" lon="32.6078391261"><ele>4.91</ele><time>2026-08-05T07:44:11Z</time></trkpt><trkpt lat="60.2643169742" lon="32.6079260465"><ele>4.90</ele><time>2026-08-05T07:44:37Z</time></trkpt><trkpt lat="60.2643183153" lon="32.6080620009"><ele>4.91</ele><time>2026-08-05T07:45:03Z</time></trkpt><trkpt lat="60.2642950136" lon="32.6081517711"><ele>4.89</ele><time>2026-08-05T07:45:31Z</time></trkpt><trkpt lat="60.2643059939" lon="32.6082700398"><ele>4.86</ele><time>2026-08-05T07:46:00Z</time></trkpt><trkpt lat="60.2643123642" lon="32.6084029768"><ele>4.83</ele><time>2026-08-05T07:46:32Z</time></trkpt><trkpt lat="60.2643101849" lon="32.6085157134"><ele>4.79</ele><time>2026-08-05T07:47:01Z</time></trkpt><trkpt lat="60.2643325645" lon="32.6086853631"><ele>4.76</ele><time>2026-08-05T07:47:37Z</time></trkpt><trkpt lat="60.2642118651" lon="32.6086634025"><ele>4.75</ele><time>2026-08-05T07:48:03Z</time></trkpt><trkpt lat="60.2642019745" lon="32.6086062379"><ele>4.75</ele><time>2026-08-05T07:48:06Z</time></trkpt><trkpt lat="60.2641051635" lon="32.6081988774"><ele>4.75</ele><time>2026-08-05T07:48:23Z</time></trkpt><trkpt lat="60.2639946062" lon="32.6077925228"><ele>4.72</ele><time>2026-08-05T07:48:45Z</time></trkpt><trkpt lat="60.2638968732" lon="32.6073917001"><ele>4.69</ele><time>2026-08-05T07:49:07Z</time></trkpt><trkpt lat="60.2637996431" lon="32.6071440149"><ele>4.63</ele><time>2026-08-05T07:49:24Z</time></trkpt><trkpt lat="60.2637306601" lon="32.6069946494"><ele>6.88</ele><time>2026-08-05T07:49:31Z</time></trkpt><trkpt lat="60.2635717392" lon="32.6065816730"><ele>6.84</ele><time>2026-08-05T07:49:46Z</time></trkpt><trkpt lat="60.2633567434" lon="32.6061326545"><ele>6.78</ele><time>2026-08-05T07:50:02Z</time></trkpt><trkpt lat="60.2630146779" lon="32.6057871524"><ele>6.74</ele><time>2026-08-05T07:50:23Z</time></trkpt><trkpt lat="60.2629059646" lon="32.6057534572"><ele>6.74</ele><time>2026-08-05T07:50:29Z</time></trkpt><trkpt lat="60.2627990954" lon="32.6057180017"><ele>6.73</ele><time>2026-08-05T07:50:35Z</time></trkpt><trkpt lat="60.2624925692" lon="32.6056548860"><ele>6.73</ele><time>2026-08-05T07:50:51Z</time></trkpt><trkpt lat="60.2621933352" lon="32.6054258924"><ele>3.09</ele><time>2026-08-05T07:51:07Z</time></trkpt></trkseg><trkseg><trkpt lat="60.0991526619" lon="32.3033949919"><ele>-0.79</ele><time>2026-08-09T10:56:33Z</time></trkpt><trkpt lat="60.0978019182" lon="32.3019445874"><ele>-1.10</ele><time>2026-08-09T10:56:44Z</time></trkpt><trkpt lat="60.0965279527" lon="32.3005873058"><ele>-1.12</ele><time>2026-08-09T10:56:54Z</time></trkpt><trkpt lat="60.0961085223" lon="32.3002692126"><ele>-1.12</ele><time>2026-08-09T10:56:57Z</time></trkpt><trkpt lat="60.0952886045" lon="32.3000685498"><ele>-2.33</ele><time>2026-08-09T10:57:03Z</time></trkpt><trkpt lat="60.0938932691" lon="32.2999272309"><ele>-4.15</ele><time>2026-08-09T10:57:13Z</time></trkpt><trkpt lat="60.0937639363" lon="32.2999113053"><ele>-0.87</ele><time>2026-08-09T10:57:14Z</time></trkpt><trkpt lat="60.0936130621" lon="32.2998924460"><ele>-0.87</ele><time>2026-08-09T10:57:15Z</time></trkpt><trkpt lat="60.0918700453" lon="32.2996751033"><ele>0.00</ele><time>2026-08-09T10:57:27Z</time></trkpt><trkpt lat="60.0905018672" lon="32.2995301802"><ele>1.06</ele><time>2026-08-09T10:57:36Z</time></trkpt><trkpt lat="60.0893429853" lon="32.2999583278"><ele>1.06</ele><time>2026-08-09T10:57:43Z</time></trkpt><trkpt lat="60.0889811385" lon="32.3001953680"><ele>2.81</ele><time>2026-08-09T10:57:45Z</time></trkpt><trkpt lat="60.0871061906" lon="32.3014550004"><ele>5.57</ele><time>2026-08-09T10:57:55Z</time></trkpt><trkpt lat="60.0853956956" lon="32.3027879745"><ele>8.31</ele><time>2026-08-09T10:58:04Z</time></trkpt><trkpt lat="60.0852205139" lon="32.3030278645"><ele>8.31</ele><time>2026-08-09T10:58:05Z</time></trkpt><trkpt lat="60.0850582402" lon="32.3032993544"><ele>8.33</ele><time>2026-08-09T10:58:06Z</time></trkpt><trkpt lat="60.0847552344" lon="32.3038810585"><ele>9.62</ele><time>2026-08-09T10:58:08Z</time></trkpt><trkpt lat="60.0831963681" lon="32.3069568817"><ele>9.52</ele><time>2026-08-09T10:58:18Z</time></trkpt><trkpt lat="60.0812027324" lon="32.3108913470"><ele>10.52</ele><time>2026-08-09T10:58:31Z</time></trkpt><trkpt lat="60.0803090539" lon="32.3126533069"><ele>8.00</ele><time>2026-08-09T10:58:37Z</time></trkpt><trkpt lat="60.0793394353" lon="32.3148188554"><ele>5.42</ele><time>2026-08-09T10:58:45Z</time></trkpt><trkpt lat="60.0787516963" lon="32.3167399038"><ele>1.88</ele><time>2026-08-09T10:58:51Z</time></trkpt><trkpt lat="60.0786523707" lon="32.3170563206"><ele>1.88</ele><time>2026-08-09T10:58:52Z</time></trkpt><trkpt lat="60.0782540627" lon="32.3183405120"><ele>-0.71</ele><time>2026-08-09T10:58:56Z</time></trkpt><trkpt lat="60.0772347394" lon="32.3209726810"><ele>-2.04</ele><time>2026-08-09T10:59:05Z</time></trkpt><trkpt lat="60.0762836449" lon="32.3230681568"><ele>-1.96</ele><time>2026-08-09T10:59:13Z</time></trkpt><trkpt lat="60.0761494506" lon="32.3232335318"><ele>-1.94</ele><time>2026-08-09T10:59:14Z</time></trkpt><trkpt lat="60.0760016777" lon="32.3233652953"><ele>-1.94</ele><time>2026-08-09T10:59:15Z</time></trkpt><trkpt lat="60.0758451037" lon="32.3234519642"><ele>-1.92</ele><time>2026-08-09T10:59:16Z</time></trkpt></trkseg><trkseg><trkpt lat="59.9073254317" lon="32.7927385457"><ele>71.78</ele><time>2026-08-09T17:59:26Z</time></trkpt><trkpt lat="59.9056278449" lon="32.7943318617"><ele>69.05</ele><time>2026-08-09T17:59:35Z</time></trkpt><trkpt lat="59.9032257590" lon="32.7966948878"><ele>68.04</ele><time>2026-08-09T17:59:48Z</time></trkpt><trkpt lat="59.9021923542" lon="32.7978120279"><ele>66.71</ele><time>2026-08-09T17:59:54Z</time></trkpt><trkpt lat="59.9001341779" lon="32.8004282713"><ele>65.85</ele><time>2026-08-09T18:00:07Z</time></trkpt><trkpt lat="59.8981112055" lon="32.8036140651"><ele>65.88</ele><time>2026-08-09T18:00:21Z</time></trkpt><trkpt lat="59.8975741770" lon="32.8045687638"><ele>68.88</ele><time>2026-08-09T18:00:25Z</time></trkpt><trkpt lat="59.8974405695" lon="32.8048084024"><ele>68.97</ele><time>2026-08-09T18:00:26Z</time></trkpt><trkpt lat="59.8958796076" lon="32.8080216050"><ele>68.81</ele><time>2026-08-09T18:00:38Z</time></trkpt><trkpt lat="59.8943462223" lon="32.8116508015"><ele>69.67</ele><time>2026-08-09T18:00:50Z</time></trkpt><trkpt lat="59.8933852371" lon="32.8142408095"><ele>66.47</ele><time>2026-08-09T18:00:58Z</time></trkpt><trkpt lat="59.8931424972" lon="32.8148976155"><ele>64.89</ele><time>2026-08-09T18:01:00Z</time></trkpt><trkpt lat="59.8925444484" lon="32.8165399656"><ele>63.18</ele><time>2026-08-09T18:01:05Z</time></trkpt><trkpt lat="59.8918568809" lon="32.8184406459"><ele>66.89</ele><time>2026-08-09T18:01:11Z</time></trkpt><trkpt lat="59.8917465750" lon="32.8187443223"><ele>66.85</ele><time>2026-08-09T18:01:12Z</time></trkpt><trkpt lat="59.8915320821" lon="32.8193432931"><ele>62.95</ele><time>2026-08-09T18:01:14Z</time></trkpt><trkpt lat="59.8914240394" lon="32.8196393419"><ele>62.96</ele><time>2026-08-09T18:01:15Z</time></trkpt><trkpt lat="59.8911043536" lon="32.8205402289"><ele>66.42</ele><time>2026-08-09T18:01:18Z</time></trkpt><trkpt lat="59.8909960594" lon="32.8208297398"><ele>66.17</ele><time>2026-08-09T18:01:19Z</time></trkpt><trkpt lat="59.8907850031" lon="32.8214124497"><ele>63.79</ele><time>2026-08-09T18:01:21Z</time></trkpt><trkpt lat="59.8894042522" lon="32.8251635190"><ele>63.72</ele><time>2026-08-09T18:01:34Z</time></trkpt><trkpt lat="59.8881557677" lon="32.8286673222"><ele>63.63</ele><time>2026-08-09T18:01:46Z</time></trkpt><trkpt lat="59.8875246942" lon="32.8303530067"><ele>66.64</ele><time>2026-08-09T18:01:52Z</time></trkpt><trkpt lat="59.8874116223" lon="32.8306318726"><ele>66.66</ele><time>2026-08-09T18:01:53Z</time></trkpt><trkpt lat="59.8859145306" lon="32.8346915636"><ele>67.51</ele><time>2026-08-09T18:02:07Z</time></trkpt><trkpt lat="59.8846001644" lon="32.8384133801"><ele>67.41</ele><time>2026-08-09T18:02:19Z</time></trkpt><trkpt lat="59.8833016399" lon="32.8419119865"><ele>68.22</ele><time>2026-08-09T18:02:31Z</time></trkpt><trkpt lat="59.8824427463" lon="32.8443257231"><ele>70.78</ele><time>2026-08-09T18:02:39Z</time></trkpt><trkpt lat="59.8808018211" lon="32.8489814512"><ele>71.62</ele><time>2026-08-09T18:02:54Z</time></trkpt><trkpt lat="59.8797087371" lon="32.8527103923"><ele>72.90</ele><time>2026-08-09T18:03:05Z</time></trkpt><trkpt lat="59.8785790242" lon="32.8570576664"><ele>73.77</ele><time>2026-08-09T18:03:18Z</time></trkpt><trkpt lat="59.8774970043" lon="32.8615015838"><ele>73.71</ele><time>2026-08-09T18:03:31Z</time></trkpt><trkpt lat="59.8767536972" lon="32.8643959388"><ele>71.36</ele><time>2026-08-09T18:03:39Z</time></trkpt><trkpt lat="59.8755694181" lon="32.8684986290"><ele>71.91</ele><time>2026-08-09T18:03:51Z</time></trkpt><trkpt lat="59.8750056513" lon="32.8699933738"><ele>69.54</ele><time>2026-08-09T18:03:56Z</time></trkpt><trkpt lat="59.8736531474" lon="32.8730264492"><ele>68.39</ele><time>2026-08-09T18:04:07Z</time></trkpt><trkpt lat="59.8725767434" lon="32.8749703802"><ele>66.53</ele><time>2026-08-09T18:04:15Z</time></trkpt><trkpt lat="59.8722976260" lon="32.8754057363"><ele>69.19</ele><time>2026-08-09T18:04:17Z</time></trkpt><trkpt lat="59.8701421358" lon="32.8783512209"><ele>69.18</ele><time>2026-08-09T18:04:31Z</time></trkpt><trkpt lat="59.8680852167" lon="32.8808124829"><ele>69.04</ele><time>2026-08-09T18:04:44Z</time></trkpt><trkpt lat="59.8661337420" lon="32.8826906160"><ele>69.67</ele><time>2026-08-09T18:04:56Z</time></trkpt><trkpt lat="59.8656397965" lon="32.8831774369"><ele>69.56</ele><time>2026-08-09T18:04:59Z</time></trkpt></trkseg><trkseg><trkpt lat="59.5917916205" lon="34.2758711334"><ele>166.79</ele><time>2026-08-09T19:35:01Z</time></trkpt><trkpt lat="59.5918483660" lon="34.2740282044"><ele>164.41</ele><time>2026-08-09T19:35:14Z</time></trkpt><trkpt lat="59.5918680634" lon="34.2738941777"><ele>164.39</ele><time>2026-08-09T19:35:15Z</time></trkpt><trkpt lat="59.5919174328" lon="34.2722157855"><ele>164.38</ele><time>2026-08-09T19:35:27Z</time></trkpt><trkpt lat="59.5919032674" lon="34.2715565488"><ele>166.81</ele><time>2026-08-09T19:35:31Z</time></trkpt><trkpt lat="59.5918893535" lon="34.2708757706"><ele>168.48</ele><time>2026-08-09T19:35:35Z</time></trkpt><trkpt lat="59.5918777026" lon="34.2694952711"><ele>168.42</ele><time>2026-08-09T19:35:44Z</time></trkpt><trkpt lat="59.5918918680" lon="34.2692065146"><ele>168.41</ele><time>2026-08-09T19:35:46Z</time></trkpt><trkpt lat="59.5918772835" lon="34.2682050448"><ele>168.42</ele><time>2026-08-09T19:35:53Z</time></trkpt><trkpt lat="59.5918529760" lon="34.2675164714"><ele>168.42</ele><time>2026-08-09T19:35:58Z</time></trkpt><trkpt lat="59.5918501262" lon="34.2660570145"><ele>171.39</ele><time>2026-08-09T19:36:07Z</time></trkpt><trkpt lat="59.5918020140" lon="34.2655807547"><ele>172.19</ele><time>2026-08-09T19:36:11Z</time></trkpt><trkpt lat="59.5917819813" lon="34.2654618155"><ele>172.17</ele><time>2026-08-09T19:36:12Z</time></trkpt><trkpt lat="59.5917384792" lon="34.2649993021"><ele>172.16</ele><time>2026-08-09T19:36:16Z</time></trkpt><trkpt lat="59.5916529000" lon="34.2634935770"><ele>172.99</ele><time>2026-08-09T19:36:28Z</time></trkpt><trkpt lat="59.5916343760" lon="34.2630998790"><ele>173.83</ele><time>2026-08-09T19:36:31Z</time></trkpt><trkpt lat="59.5916110743" lon="34.2615724448"><ele>173.76</ele><time>2026-08-09T19:36:43Z</time></trkpt><trkpt lat="59.5915914606" lon="34.2600307614"><ele>174.51</ele><time>2026-08-09T19:36:56Z</time></trkpt><trkpt lat="59.5914662350" lon="34.2588194925"><ele>174.48</ele><time>2026-08-09T19:37:06Z</time></trkpt><trkpt lat="59.5914480463" lon="34.2587068398"><ele>174.47</ele><time>2026-08-09T19:37:07Z</time></trkpt><trkpt lat="59.5913808234" lon="34.2583466694"><ele>174.46</ele><time>2026-08-09T19:37:10Z</time></trkpt><trkpt lat="59.5908574574" lon="34.2569166329"><ele>174.42</ele><time>2026-08-09T19:37:22Z</time></trkpt><trkpt lat="59.5905785076" lon="34.2563874833"><ele>172.08</ele><time>2026-08-09T19:37:28Z</time></trkpt><trkpt lat="59.5905112009" lon="34.2562424764"><ele>172.07</ele><time>2026-08-09T19:37:30Z</time></trkpt><trkpt lat="59.5904929284" lon="34.2561507784"><ele>172.07</ele><time>2026-08-09T19:37:31Z</time></trkpt><trkpt lat="59.5903786831" lon="34.2558165919"><ele>172.06</ele><time>2026-08-09T19:37:35Z</time></trkpt><trkpt lat="59.5900139865" lon="34.2549286969"><ele>171.99</ele><time>2026-08-09T19:37:44Z</time></trkpt><trkpt lat="59.5899968874" lon="34.2548173852"><ele>171.98</ele><time>2026-08-09T19:37:45Z</time></trkpt><trkpt lat="59.5899828058" lon="34.2547090910"><ele>171.97</ele><time>2026-08-09T19:37:46Z</time></trkpt><trkpt lat="59.5899685565" lon="34.2545988690"><ele>171.95</ele><time>2026-08-09T19:37:47Z</time></trkpt><trkpt lat="59.5899417344" lon="34.2544875573"><ele>171.96</ele><time>2026-08-09T19:37:48Z</time></trkpt><trkpt lat="59.5897702407" lon="34.2538573220"><ele>174.17</ele><time>2026-08-09T19:37:54Z</time></trkpt><trkpt lat="59.5895922091" lon="34.2524892278"><ele>173.97</ele><time>2026-08-09T19:38:07Z</time></trkpt><trkpt lat="59.5894659776" lon="34.2508076504"><ele>173.82</ele><time>2026-08-09T19:38:19Z</time></trkpt><trkpt lat="59.5894717611" lon="34.2506675888"><ele>174.60</ele><time>2026-08-09T19:38:20Z</time></trkpt><trkpt lat="59.5894793887" lon="34.2505281977"><ele>174.59</ele><time>2026-08-09T19:38:21Z</time></trkpt><trkpt lat="59.5894963201" lon="34.2503854539"><ele>174.57</ele><time>2026-08-09T19:38:22Z</time></trkpt><trkpt lat="59.5895114075" lon="34.2502470687"><ele>174.57</ele><time>2026-08-09T19:38:23Z</time></trkpt><trkpt lat="59.5895801391" lon="34.2499548756"><ele>175.38</ele><time>2026-08-09T19:38:25Z</time></trkpt><trkpt lat="59.5896020997" lon="34.2495237105"><ele>175.31</ele><time>2026-08-09T19:38:28Z</time></trkpt><trkpt lat="59.5899303351" lon="34.2480614875"><ele>172.80</ele><time>2026-08-09T19:38:38Z</time></trkpt><trkpt lat="59.5900290739" lon="34.2477511894"><ele>171.95</ele><time>2026-08-09T19:38:40Z</time></trkpt><trkpt lat="59.5906376839" lon="34.2462449614"><ele>169.85</ele><time>2026-08-09T19:38:50Z</time></trkpt><trkpt lat="59.5907807630" lon="34.2456775066"><ele>168.78</ele><time>2026-08-09T19:38:54Z</time></trkpt><trkpt lat="59.5908639114" lon="34.2451629415"><ele>168.78</ele><time>2026-08-09T19:38:57Z</time></trkpt><trkpt lat="59.5907547791" lon="34.2446004320"><ele>167.94</ele><time>2026-08-09T19:39:01Z</time></trkpt><trkpt lat="59.5907084271" lon="34.2439691909"><ele>166.71</ele><time>2026-08-09T19:39:07Z</time></trkpt><trkpt lat="59.5906781685" lon="34.2432773486"><ele>164.57</ele><time>2026-08-09T19:39:13Z</time></trkpt><trkpt lat="59.5906668529" lon="34.2431360297"><ele>163.35</ele><time>2026-08-09T19:39:14Z</time></trkpt><trkpt lat="59.5907057449" lon="34.2422115058"><ele>163.26</ele><time>2026-08-09T19:39:21Z</time></trkpt><trkpt lat="59.5906893164" lon="34.2419764772"><ele>163.23</ele><time>2026-08-09T19:39:23Z</time></trkpt><trkpt lat="59.5905845426" lon="34.2414491717"><ele>163.26</ele><time>2026-08-09T19:39:28Z</time></trkpt><trkpt lat="59.5905354246" lon="34.2411996424"><ele>163.26</ele><time>2026-08-09T19:39:31Z</time></trkpt><trkpt lat="59.5904583950" lon="34.2410713993"><ele>165.41</ele><time>2026-08-09T19:39:39Z</time></trkpt><trkpt lat="59.5904688723" lon="34.2409288231"><ele>165.19</ele><time>2026-08-09T19:39:58Z</time></trkpt><trkpt lat="59.5904912520" lon="34.2408951279"><ele>165.16</ele><time>2026-08-09T19:40:16Z</time></trkpt><trkpt lat="59.5903704688" lon="34.2408844829"><ele>165.19</ele><time>2026-08-09T19:40:41Z</time></trkpt><trkpt lat="59.5903811138" lon="34.2408659589"><ele>165.18</ele><time>2026-08-09T19:40:49Z</time></trkpt><trkpt lat="59.5904214308" lon="34.2408421542"><ele>165.18</ele><time>2026-08-09T19:41:03Z</time></trkpt><trkpt lat="59.5904291421" lon="34.2408487760"><ele>165.16</ele><time>2026-08-09T19:41:09Z</time></trkpt><trkpt lat="59.5904366858" lon="34.2407407332"><ele>165.17</ele><time>2026-08-09T19:41:15Z</time></trkpt><trkpt lat="59.5904645137" lon="34.2405370530"><ele>166.01</ele><time>2026-08-09T19:41:26Z</time></trkpt><trkpt lat="59.5905454829" lon="34.2401557602"><ele>165.97</ele><time>2026-08-09T19:41:43Z</time></trkpt><trkpt lat="59.5905658510" lon="34.2400128487"><ele>165.96</ele><time>2026-08-09T19:41:49Z</time></trkpt><trkpt lat="59.5905028190" lon="34.2398095038"><ele>165.97</ele><time>2026-08-09T19:41:59Z</time></trkpt><trkpt lat="59.5904975384" lon="34.2397407722"><ele>165.97</ele><time>2026-08-09T19:42:09Z</time></trkpt><trkpt lat="59.5904594008" lon="34.2397499084"><ele>163.22</ele><time>2026-08-09T19:42:14Z</time></trkpt><trkpt lat="59.5904583950" lon="34.2397441249"><ele>165.63</ele><time>2026-08-09T19:42:16Z</time></trkpt><trkpt lat="59.5904833730" lon="34.2397127766"><ele>165.58</ele><time>2026-08-09T19:42:22Z</time></trkpt><trkpt lat="59.5905097760" lon="34.2395960167"><ele>165.58</ele><time>2026-08-09T19:42:33Z</time></trkpt><trkpt lat="59.5905018132" lon="34.2395616509"><ele>165.58</ele><time>2026-08-09T19:42:36Z</time></trkpt><trkpt lat="59.5904956106" lon="34.2394228466"><ele>165.57</ele><time>2026-08-09T19:42:44Z</time></trkpt><trkpt lat="59.5904572215" lon="34.2394175660"><ele>165.57</ele><time>2026-08-09T19:42:46Z</time></trkpt><trkpt lat="59.5904401224" lon="34.2394195776"><ele>165.55</ele><time>2026-08-09T19:42:51Z</time></trkpt><trkpt lat="59.5904324949" lon="34.2394671030"><ele>165.57</ele><time>2026-08-09T19:42:54Z</time></trkpt><trkpt lat="59.5904366020" lon="34.2395132873"><ele>165.57</ele><time>2026-08-09T19:42:56Z</time></trkpt><trkpt lat="59.5904476661" lon="34.2396585457"><ele>165.58</ele><time>2026-08-09T19:43:04Z</time></trkpt><trkpt lat="59.5904272981" lon="34.2397570331"><ele>165.58</ele><time>2026-08-09T19:43:09Z</time></trkpt><trkpt lat="59.5904214308" lon="34.2397797480"><ele>165.58</ele><time>2026-08-09T19:43:10Z</time></trkpt><trkpt lat="59.5904034097" lon="34.2399492301"><ele>165.57</ele><time>2026-08-09T19:43:18Z</time></trkpt><trkpt lat="59.5904138032" lon="34.2400596198"><ele>166.34</ele><time>2026-08-09T19:43:23Z</time></trkpt><trkpt lat="59.5904132165" lon="34.2400927283"><ele>166.34</ele><time>2026-08-09T19:43:24Z</time></trkpt><trkpt lat="59.5904588979" lon="34.2402382381"><ele>167.15</ele><time>2026-08-09T19:43:30Z</time></trkpt><trkpt lat="59.5904802717" lon="34.2403938901"><ele>168.13</ele><time>2026-08-09T19:43:38Z</time></trkpt><trkpt lat="59.5904998854" lon="34.2406832334"><ele>169.98</ele><time>2026-08-09T19:43:51Z</time></trkpt><trkpt lat="59.5905031543" lon="34.2409445811"><ele>169.94</ele><time>2026-08-09T19:44:03Z</time></trkpt><trkpt lat="59.5904964488" lon="34.2409899272"><ele>169.93</ele><time>2026-08-09T19:44:05Z</time></trkpt><trkpt lat="59.5905007236" lon="34.2410128936"><ele>169.93</ele><time>2026-08-09T19:44:06Z</time></trkpt><trkpt lat="59.5904983766" lon="34.2411089502"><ele>169.92</ele><time>2026-08-09T19:44:10Z</time></trkpt><trkpt lat="59.5904806908" lon="34.2411586549"><ele>169.92</ele><time>2026-08-09T19:44:13Z</time></trkpt><trkpt lat="59.5904953592" lon="34.2412401270"><ele>169.90</ele><time>2026-08-09T19:44:17Z</time></trkpt><trkpt lat="59.5906086825" lon="34.2413421348"><ele>169.89</ele><time>2026-08-09T19:44:24Z</time></trkpt><trkpt lat="59.5906653441" lon="34.2413989641"><ele>169.86</ele><time>2026-08-09T19:44:37Z</time></trkpt><trkpt lat="59.5907433797" lon="34.2414604034"><ele>169.86</ele><time>2026-08-09T19:44:53Z</time></trkpt><trkpt lat="59.5907959342" lon="34.2414497584"><ele>169.85</ele><time>2026-08-09T19:45:06Z</time></trkpt><trkpt lat="59.5907942578" lon="34.2414539494"><ele>169.84</ele><time>2026-08-09T19:45:07Z</time></trkpt><trkpt lat="59.5907139592" lon="34.2415265366"><ele>169.82</ele><time>2026-08-09T19:45:22Z</time></trkpt><trkpt lat="59.5906282123" lon="34.2415018938"><ele>167.57</ele><time>2026-08-09T19:45:35Z</time></trkpt><trkpt lat="59.5906208362" lon="34.2413568031"><ele>167.58</ele><time>2026-08-09T19:45:46Z</time></trkpt><trkpt lat="59.5906003006" lon="34.2409880832"><ele>167.61</ele><time>2026-08-09T19:46:00Z</time></trkpt><trkpt lat="59.5905959420" lon="34.2408482730"><ele>167.60</ele><time>2026-08-09T19:46:11Z</time></trkpt><trkpt lat="59.5905222651" lon="34.2408338562"><ele>167.58</ele><time>2026-08-09T19:46:37Z</time></trkpt><trkpt lat="59.5904936828" lon="34.2408573255"><ele>167.55</ele><time>2026-08-09T19:47:05Z</time></trkpt><trkpt lat="59.5905034896" lon="34.2408561520"><ele>166.59</ele><time>2026-08-09T19:47:33Z</time></trkpt><trkpt lat="59.5904847980" lon="34.2407869175"><ele>165.80</ele><time>2026-08-09T19:48:04Z</time></trkpt><trkpt lat="59.5904446486" lon="34.2407845706"><ele>164.96</ele><time>2026-08-09T19:48:36Z</time></trkpt><trkpt lat="59.5904402900" lon="34.2408398073"><ele>164.90</ele><time>2026-08-09T19:49:06Z</time></trkpt><trkpt lat="59.5904083550" lon="34.2407626938"><ele>164.03</ele><time>2026-08-09T19:49:39Z</time></trkpt><trkpt lat="59.5904008951" lon="34.2407564912"><ele>164.03</ele><time>2026-08-09T19:49:41Z</time></trkpt><trkpt lat="59.5904083550" lon="34.2408155836"><ele>163.98</ele><time>2026-08-09T19:50:15Z</time></trkpt><trkpt lat="59.5904677827" lon="34.2408451717"><ele>163.19</ele><time>2026-08-09T19:50:49Z</time></trkpt><trkpt lat="59.5905200019" lon="34.2407446727"><ele>163.12</ele><time>2026-08-09T19:51:23Z</time></trkpt><trkpt lat="59.5905382745" lon="34.2407236341"><ele>163.06</ele><time>2026-08-09T19:51:53Z</time></trkpt><trkpt lat="59.5904568024" lon="34.2407700699"><ele>163.07</ele><time>2026-08-09T19:52:23Z</time></trkpt><trkpt lat="59.5903876517" lon="34.2408108059"><ele>163.09</ele><time>2026-08-09T19:52:52Z</time></trkpt><trkpt lat="59.5904157311" lon="34.2407910246"><ele>163.10</ele><time>2026-08-09T19:53:21Z</time></trkpt><trkpt lat="59.5903953630" lon="34.2408607621"><ele>163.11</ele><time>2026-08-09T19:53:54Z</time></trkpt><trkpt lat="59.5904719736" lon="34.2408187687"><ele>163.14</ele><time>2026-08-09T19:54:27Z</time></trkpt><trkpt lat="59.5905025676" lon="34.2408316769"><ele>161.91</ele><time>2026-08-09T19:54:55Z</time></trkpt><trkpt lat="59.5904909167" lon="34.2408385500"><ele>161.91</ele><time>2026-08-09T19:55:00Z</time></trkpt><trkpt lat="59.5905369334" lon="34.2408619355"><ele>161.89</ele><time>2026-08-09T19:55:31Z</time></trkpt><trkpt lat="59.5905004721" lon="34.2408367898"><ele>161.90</ele><time>2026-08-09T19:56:01Z</time></trkpt><trkpt lat="59.5904424693" lon="34.2408604268"><ele>161.91</ele><time>2026-08-09T19:56:30Z</time></trkpt><trkpt lat="59.5905122906" lon="34.2408318445"><ele>161.92</ele><time>2026-08-09T19:57:03Z</time></trkpt><trkpt lat="59.5905164815" lon="34.2407299206"><ele>161.95</ele><time>2026-08-09T19:57:33Z</time></trkpt><trkpt lat="59.5904884860" lon="34.2408115603"><ele>161.93</ele><time>2026-08-09T19:58:00Z</time></trkpt><trkpt lat="59.5904894918" lon="34.2409208603"><ele>161.99</ele><time>2026-08-09T19:58:28Z</time></trkpt><trkpt lat="59.5904759970" lon="34.2409781925"><ele>161.99</ele><time>2026-08-09T19:58:44Z</time></trkpt><trkpt lat="59.5904766675" lon="34.2409209441"><ele>162.04</ele><time>2026-08-09T19:59:12Z</time></trkpt><trkpt lat="59.5903833769" lon="34.2408346944"><ele>162.07</ele><time>2026-08-09T19:59:34Z</time></trkpt><trkpt lat="59.5903759170" lon="34.2407539766"><ele>162.12</ele><time>2026-08-09T20:00:09Z</time></trkpt><trkpt lat="59.5904344227" lon="34.2407037690"><ele>162.16</ele><time>2026-08-09T20:01:23Z</time></trkpt><trkpt lat="59.5904634241" lon="34.2407964729"><ele>162.18</ele><time>2026-08-09T20:01:53Z</time></trkpt><trkpt lat="59.5904498454" lon="34.2410171684"><ele>162.25</ele><time>2026-08-09T20:02:17Z</time></trkpt><trkpt lat="59.5904693753" lon="34.2409167532"><ele>162.24</ele><time>2026-08-09T20:02:38Z</time></trkpt><trkpt lat="59.5904661901" lon="34.2408944573"><ele>164.63</ele><time>2026-08-09T20:03:04Z</time></trkpt><trkpt lat="59.5904684532" lon="34.2408998217"><ele>164.63</ele><time>2026-08-09T20:03:06Z</time></trkpt><trkpt lat="59.5904881507" lon="34.2409099638"><ele>164.63</ele><time>2026-08-09T20:03:08Z</time></trkpt><trkpt lat="59.5905009750" lon="34.2408939544"><ele>164.69</ele><time>2026-08-09T20:04:08Z</time></trkpt><trkpt lat="59.5904692914" lon="34.2408649530"><ele>164.75</ele><time>2026-08-09T20:04:14Z</time></trkpt><trkpt lat="59.5904618315" lon="34.2408550624"><ele>164.78</ele><time>2026-08-09T20:04:22Z</time></trkpt><trkpt lat="59.5904920064" lon="34.2409052700"><ele>164.83</ele><time>2026-08-09T20:04:37Z</time></trkpt><trkpt lat="59.5905479975" lon="34.2409836408"><ele>164.88</ele><time>2026-08-09T20:04:47Z</time></trkpt><trkpt lat="59.5905163139" lon="34.2411051784"><ele>164.96</ele><time>2026-08-09T20:05:04Z</time></trkpt><trkpt lat="59.5904608257" lon="34.2411601637"><ele>165.03</ele><time>2026-08-09T20:05:31Z</time></trkpt><trkpt lat="59.5904897433" lon="34.2410130613"><ele>165.06</ele><time>2026-08-09T20:05:54Z</time></trkpt><trkpt lat="59.5904926769" lon="34.2409047671"><ele>165.08</ele><time>2026-08-09T20:06:19Z</time></trkpt><trkpt lat="59.5905008912" lon="34.2407424934"><ele>165.13</ele><time>2026-08-09T20:06:38Z</time></trkpt><trkpt lat="59.5904774219" lon="34.2406655475"><ele>162.84</ele><time>2026-08-09T20:06:41Z</time></trkpt><trkpt lat="59.5904355124" lon="34.2402821593"><ele>161.87</ele><time>2026-08-09T20:07:11Z</time></trkpt><trkpt lat="59.5904650167" lon="34.2400325462"><ele>160.64</ele><time>2026-08-09T20:07:30Z</time></trkpt><trkpt lat="59.5905272104" lon="34.2396649998"><ele>159.78</ele><time>2026-08-09T20:07:52Z</time></trkpt><trkpt lat="59.5905496739" lon="34.2392822821"><ele>158.35</ele><time>2026-08-09T20:08:20Z</time></trkpt><trkpt lat="59.5905754063" lon="34.2387883365"><ele>157.57</ele><time>2026-08-09T20:08:39Z</time></trkpt><trkpt lat="59.5905683655" lon="34.2386765219"><ele>157.65</ele><time>2026-08-09T20:08:45Z</time></trkpt><trkpt lat="59.5905642584" lon="34.2383577581"><ele>157.75</ele><time>2026-08-09T20:09:10Z</time></trkpt><trkpt lat="59.5905715507" lon="34.2382179480"><ele>157.78</ele><time>2026-08-09T20:09:20Z</time></trkpt><trkpt lat="59.5905608218" lon="34.2378375772"><ele>157.84</ele><time>2026-08-09T20:09:39Z</time></trkpt><trkpt lat="59.5905209240" lon="34.2374844477"><ele>157.90</ele><time>2026-08-09T20:10:00Z</time></trkpt><trkpt lat="59.5904438104" lon="34.2372375168"><ele>160.22</ele><time>2026-08-09T20:10:16Z</time></trkpt><trkpt lat="59.5903611649" lon="34.2369554657"><ele>160.14</ele><time>2026-08-09T20:10:39Z</time></trkpt><trkpt lat="59.5902808663" lon="34.2366434075"><ele>160.12</ele><time>2026-08-09T20:10:54Z</time></trkpt><trkpt lat="59.5902144816" lon="34.2363882624"><ele>160.10</ele><time>2026-08-09T20:11:08Z</time></trkpt><trkpt lat="59.5901623461" lon="34.2362294253"><ele>160.06</ele><time>2026-08-09T20:11:19Z</time></trkpt><trkpt lat="59.5900530461" lon="34.2358970828"><ele>160.03</ele><time>2026-08-09T20:11:39Z</time></trkpt><trkpt lat="59.5899884216" lon="34.2355899699"><ele>159.95</ele><time>2026-08-09T20:11:58Z</time></trkpt><trkpt lat="59.5898364577" lon="34.2352338228"><ele>159.84</ele><time>2026-08-09T20:12:21Z</time></trkpt><trkpt lat="59.5897101425" lon="34.2348301504"><ele>159.74</ele><time>2026-08-09T20:12:45Z</time></trkpt><trkpt lat="59.5896077994" lon="34.2344926111"><ele>159.66</ele><time>2026-08-09T20:13:08Z</time></trkpt><trkpt lat="59.5895375591" lon="34.2344244663"><ele>159.61</ele><time>2026-08-09T20:13:19Z</time></trkpt><trkpt lat="59.5894201286" lon="34.2342620250"><ele>159.53</ele><time>2026-08-09T20:13:33Z</time></trkpt><trkpt lat="59.5892610401" lon="34.2341143358"><ele>160.50</ele><time>2026-08-09T20:13:48Z</time></trkpt><trkpt lat="59.5891167037" lon="34.2338959873"><ele>160.34</ele><time>2026-08-09T20:14:10Z</time></trkpt><trkpt lat="59.5890136063" lon="34.2336570192"><ele>160.26</ele><time>2026-08-09T20:14:25Z</time></trkpt><trkpt lat="59.5890029613" lon="34.2336430214"><ele>160.27</ele><time>2026-08-09T20:14:26Z</time></trkpt><trkpt lat="59.5889214892" lon="34.2334582005"><ele>160.20</ele><time>2026-08-09T20:14:39Z</time></trkpt><trkpt lat="59.5887841936" lon="34.2331682704"><ele>160.99</ele><time>2026-08-09T20:15:00Z</time></trkpt><trkpt lat="59.5886331517" lon="34.2328224331"><ele>161.63</ele><time>2026-08-09T20:15:24Z</time></trkpt><trkpt lat="59.5885410346" lon="34.2326266319"><ele>161.61</ele><time>2026-08-09T20:15:39Z</time></trkpt><trkpt lat="59.5884088520" lon="34.2324686330"><ele>161.53</ele><time>2026-08-09T20:15:56Z</time></trkpt><trkpt lat="59.5883697923" lon="34.2322761007"><ele>161.52</ele><time>2026-08-09T20:16:09Z</time></trkpt><trkpt lat="59.5882945228" lon="34.2319664732"><ele>161.53</ele><time>2026-08-09T20:16:31Z</time></trkpt><trkpt lat="59.5881184191" lon="34.2316508945"><ele>162.28</ele><time>2026-08-09T20:16:55Z</time></trkpt><trkpt lat="59.5880575664" lon="34.2315359786"><ele>162.29</ele><time>2026-08-09T20:17:07Z</time></trkpt><trkpt lat="59.5878979750" lon="34.2312184721"><ele>162.27</ele><time>2026-08-09T20:17:28Z</time></trkpt><trkpt lat="59.5877457596" lon="34.2309665959"><ele>162.28</ele><time>2026-08-09T20:17:50Z</time></trkpt><trkpt lat="59.5875886828" lon="34.2307252809"><ele>162.30</ele><time>2026-08-09T20:18:12Z</time></trkpt><trkpt lat="59.5875057857" lon="34.2305854708"><ele>162.29</ele><time>2026-08-09T20:18:23Z</time></trkpt><trkpt lat="59.5874202903" lon="34.2304622568"><ele>162.38</ele><time>2026-08-09T20:18:46Z</time></trkpt><trkpt lat="59.5873586833" lon="34.2303034198"><ele>162.45</ele><time>2026-08-09T20:18:59Z</time></trkpt><trkpt lat="59.5873389859" lon="34.2302653659"><ele>162.47</ele><time>2026-08-09T20:19:02Z</time></trkpt><trkpt lat="59.5871755388" lon="34.2298932932"><ele>162.61</ele><time>2026-08-09T20:19:25Z</time></trkpt><trkpt lat="59.5870470442" lon="34.2296253238"><ele>162.72</ele><time>2026-08-09T20:19:45Z</time></trkpt><trkpt lat="59.5868836809" lon="34.2294601165"><ele>162.82</ele><time>2026-08-09T20:20:05Z</time></trkpt><trkpt lat="59.5867475588" lon="34.2290772311"><ele>164.55</ele><time>2026-08-09T20:20:27Z</time></trkpt><trkpt lat="59.5866313856" lon="34.2288205773"><ele>165.38</ele><time>2026-08-09T20:20:45Z</time></trkpt><trkpt lat="59.5864751469" lon="34.2285515182"><ele>166.23</ele><time>2026-08-09T20:21:05Z</time></trkpt><trkpt lat="59.5863894839" lon="34.2283903342"><ele>166.30</ele><time>2026-08-09T20:21:17Z</time></trkpt><trkpt lat="59.5863079280" lon="34.2282376997"><ele>166.30</ele><time>2026-08-09T20:21:31Z</time></trkpt><trkpt lat="59.5861826185" lon="34.2280549742"><ele>166.41</ele><time>2026-08-09T20:21:53Z</time></trkpt><trkpt lat="59.5861638431" lon="34.2280057725"><ele>166.45</ele><time>2026-08-09T20:21:57Z</time></trkpt><trkpt lat="59.5859992225" lon="34.2276915349"><ele>166.56</ele><time>2026-08-09T20:22:16Z</time></trkpt><trkpt lat="59.5858333446" lon="34.2273751181"><ele>166.67</ele><time>2026-08-09T20:22:37Z</time></trkpt><trkpt lat="59.5857695583" lon="34.2271770537"><ele>166.71</ele><time>2026-08-09T20:22:50Z</time></trkpt><trkpt lat="59.5856252220" lon="34.2269459646"><ele>166.81</ele><time>2026-08-09T20:23:09Z</time></trkpt><trkpt lat="59.5854386408" lon="34.2266676854"><ele>166.90</ele><time>2026-08-09T20:23:32Z</time></trkpt><trkpt lat="59.5852966513" lon="34.2264804337"><ele>167.03</ele><time>2026-08-09T20:23:54Z</time></trkpt><trkpt lat="59.5851855073" lon="34.2263271287"><ele>164.82</ele><time>2026-08-09T20:24:08Z</time></trkpt><trkpt lat="59.5851267502" lon="34.2261354346"><ele>164.87</ele><time>2026-08-09T20:24:17Z</time></trkpt><trkpt lat="59.5850156900" lon="34.2257548124"><ele>164.98</ele><time>2026-08-09T20:24:35Z</time></trkpt><trkpt lat="59.5849293564" lon="34.2254585959"><ele>165.07</ele><time>2026-08-09T20:24:49Z</time></trkpt><trkpt lat="59.5848799031" lon="34.2250547558"><ele>165.22</ele><time>2026-08-09T20:25:09Z</time></trkpt><trkpt lat="59.5848731976" lon="34.2250367347"><ele>165.22</ele><time>2026-08-09T20:25:10Z</time></trkpt><trkpt lat="59.5848786458" lon="34.2248140275"><ele>165.28</ele><time>2026-08-09T20:25:21Z</time></trkpt><trkpt lat="59.5848775562" lon="34.2244936712"><ele>165.40</ele><time>2026-08-09T20:25:39Z</time></trkpt><trkpt lat="59.5848847646" lon="34.2242666893"><ele>165.49</ele><time>2026-08-09T20:25:52Z</time></trkpt><trkpt lat="59.5848616306" lon="34.2238895874"><ele>165.57</ele><time>2026-08-09T20:26:08Z</time></trkpt><trkpt lat="59.5849161129" lon="34.2235434148"><ele>165.64</ele><time>2026-08-09T20:26:27Z</time></trkpt><trkpt lat="59.5848647319" lon="34.2231660616"><ele>165.70</ele><time>2026-08-09T20:26:44Z</time></trkpt><trkpt lat="59.5849447791" lon="34.2228939850"><ele>165.73</ele><time>2026-08-09T20:26:58Z</time></trkpt><trkpt lat="59.5849251654" lon="34.2225254327"><ele>165.76</ele><time>2026-08-09T20:27:16Z</time></trkpt><trkpt lat="59.5849697571" lon="34.2220015638"><ele>165.81</ele><time>2026-08-09T20:27:42Z</time></trkpt><trkpt lat="59.5850039553" lon="34.2216806207"><ele>165.84</ele><time>2026-08-09T20:27:58Z</time></trkpt><trkpt lat="59.5849850960" lon="34.2211767007"><ele>165.88</ele><time>2026-08-09T20:28:23Z</time></trkpt><trkpt lat="59.5849699248" lon="34.2210936360"><ele>165.90</ele><time>2026-08-09T20:28:29Z</time></trkpt><trkpt lat="59.5850261673" lon="34.2207982577"><ele>165.92</ele><time>2026-08-09T20:28:46Z</time></trkpt><trkpt lat="59.5850094873" lon="34.2204690166"><ele>165.92</ele><time>2026-08-09T20:28:58Z</time></trkpt><trkpt lat="59.5849896222" lon="34.2203084193"><ele>165.93</ele><time>2026-08-09T20:29:07Z</time></trkpt><trkpt lat="59.5849964954" lon="34.2199883144"><ele>165.92</ele><time>2026-08-09T20:29:23Z</time></trkpt><trkpt lat="59.5850203000" lon="34.2197625898"><ele>164.88</ele><time>2026-08-09T20:29:36Z</time></trkpt><trkpt lat="59.5850056317" lon="34.2195043433"><ele>164.85</ele><time>2026-08-09T20:29:50Z</time></trkpt><trkpt lat="59.5850256644" lon="34.2194768507"><ele>164.86</ele><time>2026-08-09T20:29:52Z</time></trkpt><trkpt lat="59.5850099064" lon="34.2192468513"><ele>164.85</ele><time>2026-08-09T20:30:04Z</time></trkpt><trkpt lat="59.5850140974" lon="34.2189461924"><ele>163.10</ele><time>2026-08-09T20:30:20Z</time></trkpt><trkpt lat="59.5850140136" lon="34.2189137544"><ele>163.09</ele><time>2026-08-09T20:30:22Z</time></trkpt><trkpt lat="59.5850017760" lon="34.2186835036"><ele>162.29</ele><time>2026-08-09T20:30:46Z</time></trkpt><trkpt lat="59.5850442722" lon="34.2184451222"><ele>162.35</ele><time>2026-08-09T20:31:03Z</time></trkpt><trkpt lat="59.5850767940" lon="34.2181264423"><ele>162.41</ele><time>2026-08-09T20:31:22Z</time></trkpt><trkpt lat="59.5850956533" lon="34.2177994642"><ele>162.45</ele><time>2026-08-09T20:31:34Z</time></trkpt><trkpt lat="59.5850921329" lon="34.2176218517"><ele>162.59</ele><time>2026-08-09T20:32:05Z</time></trkpt><trkpt lat="59.5850965753" lon="34.2175559700"><ele>162.61</ele><time>2026-08-09T20:32:10Z</time></trkpt><trkpt lat="59.5850915462" lon="34.2174548842"><ele>162.64</ele><time>2026-08-09T20:32:16Z</time></trkpt><trkpt lat="59.5851117466" lon="34.2173036747"><ele>162.70</ele><time>2026-08-09T20:32:27Z</time></trkpt><trkpt lat="59.5851152670" lon="34.2172578257"><ele>162.72</ele><time>2026-08-09T20:32:30Z</time></trkpt><trkpt lat="59.5851053763" lon="34.2171875015"><ele>162.75</ele><time>2026-08-09T20:32:35Z</time></trkpt><trkpt lat="59.5851087291" lon="34.2169325240"><ele>159.75</ele><time>2026-08-09T20:32:52Z</time></trkpt><trkpt lat="59.5851050410" lon="34.2169180233"><ele>164.04</ele><time>2026-08-09T20:32:53Z</time></trkpt><trkpt lat="59.5851168595" lon="34.2167617846"><ele>162.50</ele><time>2026-08-09T20:33:02Z</time></trkpt><trkpt lat="59.5850834996" lon="34.2165375687"><ele>165.36</ele><time>2026-08-09T20:33:11Z</time></trkpt><trkpt lat="59.5851134229" lon="34.2160511669"><ele>165.44</ele><time>2026-08-09T20:33:37Z</time></trkpt><trkpt lat="59.5850847568" lon="34.2160051502"><ele>165.45</ele><time>2026-08-09T20:33:39Z</time></trkpt><trkpt lat="59.5850800630" lon="34.2158495821"><ele>165.48</ele><time>2026-08-09T20:33:49Z</time></trkpt><trkpt lat="59.5850785542" lon="34.2157415394"><ele>165.51</ele><time>2026-08-09T20:33:55Z</time></trkpt><trkpt lat="59.5850772131" lon="34.2154046707"><ele>165.60</ele><time>2026-08-09T20:34:15Z</time></trkpt><trkpt lat="59.5850477926" lon="34.2152237892"><ele>165.72</ele><time>2026-08-09T20:34:36Z</time></trkpt><trkpt lat="59.5850288495" lon="34.2151023354"><ele>165.88</ele><time>2026-08-09T20:35:04Z</time></trkpt><trkpt lat="59.5849878620" lon="34.2149877548"><ele>166.06</ele><time>2026-08-09T20:35:33Z</time></trkpt><trkpt lat="59.5850113314" lon="34.2147698253"><ele>166.19</ele><time>2026-08-09T20:35:51Z</time></trkpt><trkpt lat="59.5850677416" lon="34.2144765425"><ele>166.36</ele><time>2026-08-09T20:36:12Z</time></trkpt><trkpt lat="59.5850442722" lon="34.2143565137"><ele>166.39</ele><time>2026-08-09T20:36:16Z</time></trkpt><trkpt lat="59.5850316156" lon="34.2142835073"><ele>166.41</ele><time>2026-08-09T20:36:19Z</time></trkpt><trkpt lat="59.5850094873" lon="34.2141893785"><ele>166.46</ele><time>2026-08-09T20:36:24Z</time></trkpt><trkpt lat="59.5849726070" lon="34.2139925715"><ele>166.53</ele><time>2026-08-09T20:36:33Z</time></trkpt><trkpt lat="59.5849295240" lon="34.2138391826"><ele>166.62</ele><time>2026-08-09T20:36:43Z</time></trkpt><trkpt lat="59.5847482234" lon="34.2133620847"><ele>166.77</ele><time>2026-08-09T20:37:03Z</time></trkpt><trkpt lat="59.5845873747" lon="34.2129974719"><ele>164.53</ele><time>2026-08-09T20:37:22Z</time></trkpt><trkpt lat="59.5845305454" lon="34.2128341086"><ele>164.58</ele><time>2026-08-09T20:37:31Z</time></trkpt><trkpt lat="59.5844289567" lon="34.2125556618"><ele>163.92</ele><time>2026-08-09T20:37:51Z</time></trkpt><trkpt lat="59.5843206625" lon="34.2122913804"><ele>163.99</ele><time>2026-08-09T20:38:09Z</time></trkpt><trkpt lat="59.5842356700" lon="34.2120965011"><ele>164.03</ele><time>2026-08-09T20:38:20Z</time></trkpt><trkpt lat="59.5841121208" lon="34.2117357440"><ele>164.07</ele><time>2026-08-09T20:38:44Z</time></trkpt><trkpt lat="59.5840149745" lon="34.2115018889"><ele>164.09</ele><time>2026-08-09T20:38:56Z</time></trkpt><trkpt lat="59.5838425588" lon="34.2111048382"><ele>164.17</ele><time>2026-08-09T20:39:16Z</time></trkpt><trkpt lat="59.5836889185" lon="34.2108175065"><ele>164.14</ele><time>2026-08-09T20:39:37Z</time></trkpt><trkpt lat="59.5835984778" lon="34.2106624413"><ele>164.11</ele><time>2026-08-09T20:39:51Z</time></trkpt><trkpt lat="59.5835650340" lon="34.2106122337"><ele>164.12</ele><time>2026-08-09T20:39:56Z</time></trkpt><trkpt lat="59.5834249724" lon="34.2104192823"><ele>163.39</ele><time>2026-08-09T20:40:13Z</time></trkpt><trkpt lat="59.5834121481" lon="34.2103813961"><ele>163.38</ele><time>2026-08-09T20:40:15Z</time></trkpt><trkpt lat="59.5833868347" lon="34.2103259079"><ele>163.39</ele><time>2026-08-09T20:40:19Z</time></trkpt><trkpt lat="59.5832715835" lon="34.2101480439"><ele>163.41</ele><time>2026-08-09T20:40:34Z</time></trkpt><trkpt lat="59.5832447615" lon="34.2101078946"><ele>163.40</ele><time>2026-08-09T20:40:37Z</time></trkpt><trkpt lat="59.5832217112" lon="34.2100925557"><ele>163.40</ele><time>2026-08-09T20:40:40Z</time></trkpt><trkpt lat="59.5830583479" lon="34.2097613029"><ele>162.69</ele><time>2026-08-09T20:41:06Z</time></trkpt><trkpt lat="59.5829309430" lon="34.2095039785"><ele>162.74</ele><time>2026-08-09T20:41:23Z</time></trkpt><trkpt lat="59.5829147659" lon="34.2094634939"><ele>162.73</ele><time>2026-08-09T20:41:26Z</time></trkpt><trkpt lat="59.5827968325" lon="34.2091602366"><ele>162.00</ele><time>2026-08-09T20:41:50Z</time></trkpt><trkpt lat="59.5826851018" lon="34.2087824643"><ele>162.05</ele><time>2026-08-09T20:42:09Z</time></trkpt><trkpt lat="59.5826240815" lon="34.2084535584"><ele>161.29</ele><time>2026-08-09T20:42:28Z</time></trkpt><trkpt lat="59.5825194754" lon="34.2080306914"><ele>160.61</ele><time>2026-08-09T20:42:45Z</time></trkpt><trkpt lat="59.5824602991" lon="34.2077185493"><ele>159.85</ele><time>2026-08-09T20:43:03Z</time></trkpt><trkpt lat="59.5824740455" lon="34.2075828463"><ele>159.12</ele><time>2026-08-09T20:43:11Z</time></trkpt><trkpt lat="59.5824172162" lon="34.2070890684"><ele>158.43</ele><time>2026-08-09T20:43:35Z</time></trkpt><trkpt lat="59.5823857002" lon="34.2070241924"><ele>158.46</ele><time>2026-08-09T20:43:40Z</time></trkpt><trkpt lat="59.5823801681" lon="34.2069772538"><ele>158.46</ele><time>2026-08-09T20:43:43Z</time></trkpt><trkpt lat="59.5823686849" lon="34.2068817839"><ele>158.51</ele><time>2026-08-09T20:43:48Z</time></trkpt><trkpt lat="59.5823546033" lon="34.2066533770"><ele>158.59</ele><time>2026-08-09T20:44:01Z</time></trkpt><trkpt lat="59.5822743885" lon="34.2060979921"><ele>157.81</ele><time>2026-08-09T20:44:24Z</time></trkpt><trkpt lat="59.5822706167" lon="34.2060490418"><ele>157.82</ele><time>2026-08-09T20:44:27Z</time></trkpt><trkpt lat="59.5822346583" lon="34.2058945633"><ele>157.89</ele><time>2026-08-09T20:44:35Z</time></trkpt><trkpt lat="59.5822243486" lon="34.2057179566"><ele>158.01</ele><time>2026-08-09T20:44:56Z</time></trkpt><trkpt lat="59.5821355004" lon="34.2054361571"><ele>158.17</ele><time>2026-08-09T20:45:23Z</time></trkpt><trkpt lat="59.5821333211" lon="34.2053695209"><ele>158.18</ele><time>2026-08-09T20:45:28Z</time></trkpt><trkpt lat="59.5821219217" lon="34.2052725423"><ele>157.43</ele><time>2026-08-09T20:45:34Z</time></trkpt><trkpt lat="59.5820580516" lon="34.2049484141"><ele>157.57</ele><time>2026-08-09T20:45:54Z</time></trkpt><trkpt lat="59.5819063392" lon="34.2044759262"><ele>156.88</ele><time>2026-08-09T20:46:17Z</time></trkpt><trkpt lat="59.5817844663" lon="34.2040306795"><ele>156.28</ele><time>2026-08-09T20:46:42Z</time></trkpt><trkpt lat="59.5816818718" lon="34.2036600318"><ele>156.41</ele><time>2026-08-09T20:47:02Z</time></trkpt><trkpt lat="59.5816606656" lon="34.2035496421"><ele>154.88</ele><time>2026-08-09T20:47:09Z</time></trkpt><trkpt lat="59.5816059317" lon="34.2032988556"><ele>154.92</ele><time>2026-08-09T20:47:23Z</time></trkpt><trkpt lat="59.5814728271" lon="34.2028578836"><ele>155.03</ele><time>2026-08-09T20:47:46Z</time></trkpt><trkpt lat="59.5813908521" lon="34.2025883216"><ele>155.17</ele><time>2026-08-09T20:48:03Z</time></trkpt><trkpt lat="59.5813313406" lon="34.2025505193"><ele>155.31</ele><time>2026-08-09T20:48:26Z</time></trkpt><trkpt lat="59.5813255571" lon="34.2024727352"><ele>155.46</ele><time>2026-08-09T20:48:49Z</time></trkpt><trkpt lat="59.5812715776" lon="34.2021866608"><ele>155.61</ele><time>2026-08-09T20:49:12Z</time></trkpt><trkpt lat="59.5812071208" lon="34.2018805537"><ele>155.72</ele><time>2026-08-09T20:49:30Z</time></trkpt><trkpt lat="59.5811774489" lon="34.2018010095"><ele>155.89</ele><time>2026-08-09T20:50:00Z</time></trkpt><trkpt lat="59.5811202005" lon="34.2015752848"><ele>156.01</ele><time>2026-08-09T20:50:11Z</time></trkpt><trkpt lat="59.5810572524" lon="34.2013294436"><ele>156.12</ele><time>2026-08-09T20:50:24Z</time></trkpt><trkpt lat="59.5809699129" lon="34.2009437084"><ele>156.21</ele><time>2026-08-09T20:50:43Z</time></trkpt><trkpt lat="59.5809232257" lon="34.2007645033"><ele>156.30</ele><time>2026-08-09T20:51:03Z</time></trkpt><trkpt lat="59.5808603615" lon="34.2004988808"><ele>156.39</ele><time>2026-08-09T20:51:22Z</time></trkpt><trkpt lat="59.5807966590" lon="34.2002401315"><ele>156.50</ele><time>2026-08-09T20:51:40Z</time></trkpt><trkpt lat="59.5807736926" lon="34.2001773510"><ele>156.54</ele><time>2026-08-09T20:51:43Z</time></trkpt><trkpt lat="59.5806422643" lon="34.1997669730"><ele>155.68</ele><time>2026-08-09T20:52:21Z</time></trkpt><trkpt lat="59.5805949066" lon="34.1993559245"><ele>155.91</ele><time>2026-08-09T20:52:41Z</time></trkpt><trkpt lat="59.5805783104" lon="34.1989732068"><ele>155.98</ele><time>2026-08-09T20:53:01Z</time></trkpt><trkpt lat="59.5805727784" lon="34.1989532579"><ele>155.98</ele><time>2026-08-09T20:53:02Z</time></trkpt><trkpt lat="59.5805730298" lon="34.1988123581"><ele>156.05</ele><time>2026-08-09T20:53:15Z</time></trkpt><trkpt lat="59.5805749577" lon="34.1986716259"><ele>158.34</ele><time>2026-08-09T20:53:27Z</time></trkpt><trkpt lat="59.5805887878" lon="34.1983126290"><ele>159.95</ele><time>2026-08-09T20:53:47Z</time></trkpt><trkpt lat="59.5805492252" lon="34.1978660412"><ele>160.02</ele><time>2026-08-09T20:54:09Z</time></trkpt><trkpt lat="59.5805568527" lon="34.1976731736"><ele>160.04</ele><time>2026-08-09T20:54:20Z</time></trkpt><trkpt lat="59.5805582777" lon="34.1978313401"><ele>160.07</ele><time>2026-08-09T20:54:38Z</time></trkpt><trkpt lat="59.5805736165" lon="34.1979129799"><ele>160.07</ele><time>2026-08-09T20:54:42Z</time></trkpt><trkpt lat="59.5806144364" lon="34.1982080229"><ele>160.09</ele><time>2026-08-09T20:54:58Z</time></trkpt><trkpt lat="59.5806762949" lon="34.1985769942"><ele>160.05</ele><time>2026-08-09T20:55:18Z</time></trkpt><trkpt lat="59.5805860218" lon="34.1988452151"><ele>159.99</ele><time>2026-08-09T20:55:36Z</time></trkpt><trkpt lat="59.5805233251" lon="34.1987554450"><ele>159.91</ele><time>2026-08-09T20:55:57Z</time></trkpt><trkpt lat="59.5804365724" lon="34.1986567900"><ele>159.81</ele><time>2026-08-09T20:56:21Z</time></trkpt><trkpt lat="59.5803594589" lon="34.1986847855"><ele>159.79</ele><time>2026-08-09T20:56:42Z</time></trkpt><trkpt lat="59.5802948344" lon="34.1986841988"><ele>159.79</ele><time>2026-08-09T20:57:01Z</time></trkpt><trkpt lat="59.5802572835" lon="34.1987458058"><ele>159.81</ele><time>2026-08-09T20:57:22Z</time></trkpt><trkpt lat="59.5801720396" lon="34.1987564508"><ele>159.84</ele><time>2026-08-09T20:57:38Z</time></trkpt><trkpt lat="59.5801294595" lon="34.1986973584"><ele>159.89</ele><time>2026-08-09T20:58:03Z</time></trkpt><trkpt lat="59.5800658409" lon="34.1986419540"><ele>159.98</ele><time>2026-08-09T20:58:24Z</time></trkpt><trkpt lat="59.5799395256" lon="34.1986446362"><ele>160.03</ele><time>2026-08-09T20:58:43Z</time></trkpt><trkpt lat="59.5798638370" lon="34.1986408643"><ele>160.06</ele><time>2026-08-09T20:58:54Z</time></trkpt><trkpt lat="59.5797371026" lon="34.1987052374"><ele>160.09</ele><time>2026-08-09T20:59:17Z</time></trkpt><trkpt lat="59.5796425547" lon="34.1987620667"><ele>160.95</ele><time>2026-08-09T20:59:37Z</time></trkpt><trkpt lat="59.5796205103" lon="34.1987572052"><ele>160.97</ele><time>2026-08-09T20:59:58Z</time></trkpt><trkpt lat="59.5796054229" lon="34.1987004597"><ele>161.01</ele><time>2026-08-09T21:00:22Z</time></trkpt><trkpt lat="59.5795466658" lon="34.1987266112"><ele>161.06</ele><time>2026-08-09T21:00:43Z</time></trkpt><trkpt lat="59.5793838892" lon="34.1987767350"><ele>161.14</ele><time>2026-08-09T21:00:56Z</time></trkpt><trkpt lat="59.5792730805" lon="34.1986676026"><ele>161.20</ele><time>2026-08-09T21:01:09Z</time></trkpt><trkpt lat="59.5791807119" lon="34.1984770820"><ele>162.00</ele><time>2026-08-09T21:01:22Z</time></trkpt><trkpt lat="59.5790387224" lon="34.1982811969"><ele>162.04</ele><time>2026-08-09T21:01:35Z</time></trkpt><trkpt lat="59.5788624510" lon="34.1980099585"><ele>162.86</ele><time>2026-08-09T21:01:48Z</time></trkpt><trkpt lat="59.5787166897" lon="34.1977980640"><ele>163.87</ele><time>2026-08-09T21:02:01Z</time></trkpt><trkpt lat="59.5785090700" lon="34.1975005064"><ele>164.92</ele><time>2026-08-09T21:02:16Z</time></trkpt><trkpt lat="59.5783601236" lon="34.1972973291"><ele>166.09</ele><time>2026-08-09T21:02:27Z</time></trkpt><trkpt lat="59.5781768952" lon="34.1970037110"><ele>166.21</ele><time>2026-08-09T21:02:42Z</time></trkpt><trkpt lat="59.5780475624" lon="34.1967984382"><ele>167.09</ele><time>2026-08-09T21:02:58Z</time></trkpt><trkpt lat="59.5779411960" lon="34.1966137849"><ele>167.96</ele><time>2026-08-09T21:03:10Z</time></trkpt><trkpt lat="59.5779440459" lon="34.1966190655"><ele>168.07</ele><time>2026-08-09T21:03:32Z</time></trkpt><trkpt lat="59.5779491588" lon="34.1966269445"><ele>168.28</ele><time>2026-08-09T21:04:08Z</time></trkpt><trkpt lat="59.5778184850" lon="34.1964934207"><ele>168.43</ele><time>2026-08-09T21:04:27Z</time></trkpt><trkpt lat="59.5776502602" lon="34.1962295584"><ele>168.53</ele><time>2026-08-09T21:04:41Z</time></trkpt><trkpt lat="59.5774899982" lon="34.1959567275"><ele>168.60</ele><time>2026-08-09T21:04:55Z</time></trkpt><trkpt lat="59.5773733221" lon="34.1957819648"><ele>168.67</ele><time>2026-08-09T21:05:04Z</time></trkpt><trkpt lat="59.5771637745" lon="34.1954963095"><ele>169.55</ele><time>2026-08-09T21:05:18Z</time></trkpt><trkpt lat="59.5769595914" lon="34.1952066310"><ele>170.42</ele><time>2026-08-09T21:05:31Z</time></trkpt><trkpt lat="59.5768910274" lon="34.1950916313"><ele>170.41</ele><time>2026-08-09T21:05:36Z</time></trkpt><trkpt lat="59.5768152550" lon="34.1950036213"><ele>170.41</ele><time>2026-08-09T21:05:41Z</time></trkpt><trkpt lat="59.5766147599" lon="34.1947164573"><ele>170.49</ele><time>2026-08-09T21:05:56Z</time></trkpt><trkpt lat="59.5765103213" lon="34.1945525073"><ele>170.59</ele><time>2026-08-09T21:06:08Z</time></trkpt><trkpt lat="59.5764104929" lon="34.1943997052"><ele>170.66</ele><time>2026-08-09T21:06:19Z</time></trkpt><trkpt lat="59.5762657374" lon="34.1941832844"><ele>170.74</ele><time>2026-08-09T21:06:33Z</time></trkpt><trkpt lat="59.5762314554" lon="34.1941342503"><ele>170.76</ele><time>2026-08-09T21:06:37Z</time></trkpt><trkpt lat="59.5760241710" lon="34.1938867327"><ele>171.84</ele><time>2026-08-09T21:06:54Z</time></trkpt><trkpt lat="59.5758246817" lon="34.1936335992"><ele>171.94</ele><time>2026-08-09T21:07:09Z</time></trkpt><trkpt lat="59.5756412856" lon="34.1933942121"><ele>172.02</ele><time>2026-08-09T21:07:23Z</time></trkpt><trkpt lat="59.5754931774" lon="34.1932077985"><ele>172.11</ele><time>2026-08-09T21:07:38Z</time></trkpt><trkpt lat="59.5753385313" lon="34.1930689104"><ele>172.19</ele><time>2026-08-09T21:07:50Z</time></trkpt><trkpt lat="59.5751854777" lon="34.1929503903"><ele>172.20</ele><time>2026-08-09T21:08:03Z</time></trkpt><trkpt lat="59.5750310831" lon="34.1928828321"><ele>172.26</ele><time>2026-08-09T21:08:14Z</time></trkpt><trkpt lat="59.5748175122" lon="34.1929404158"><ele>173.48</ele><time>2026-08-09T21:08:31Z</time></trkpt><trkpt lat="59.5746365469" lon="34.1930165235"><ele>174.54</ele><time>2026-08-09T21:08:44Z</time></trkpt><trkpt lat="59.5744678192" lon="34.1930791363"><ele>174.55</ele><time>2026-08-09T21:08:58Z</time></trkpt><trkpt lat="59.5742440224" lon="34.1931596864"><ele>174.62</ele><time>2026-08-09T21:09:14Z</time></trkpt><trkpt lat="59.5740123466" lon="34.1932332795"><ele>174.67</ele><time>2026-08-09T21:09:31Z</time></trkpt><trkpt lat="59.5738378353" lon="34.1932818107"><ele>174.70</ele><time>2026-08-09T21:09:45Z</time></trkpt><trkpt lat="59.5737364981" lon="34.1933089681"><ele>174.71</ele><time>2026-08-09T21:09:53Z</time></trkpt><trkpt lat="59.5736792497" lon="34.1933352873"><ele>174.72</ele><time>2026-08-09T21:09:57Z</time></trkpt><trkpt lat="59.5736562833" lon="34.1933583375"><ele>174.72</ele><time>2026-08-09T21:09:59Z</time></trkpt><trkpt lat="59.5734761562" lon="34.1934481077"><ele>176.49</ele><time>2026-08-09T21:10:14Z</time></trkpt><trkpt lat="59.5733158104" lon="34.1935495287"><ele>176.46</ele><time>2026-08-09T21:10:27Z</time></trkpt><trkpt lat="59.5733039081" lon="34.1935522109"><ele>176.45</ele><time>2026-08-09T21:10:28Z</time></trkpt><trkpt lat="59.5731030777" lon="34.1935769375"><ele>176.42</ele><time>2026-08-09T21:10:44Z</time></trkpt><trkpt lat="59.5729106292" lon="34.1936021671"><ele>176.39</ele><time>2026-08-09T21:10:56Z</time></trkpt><trkpt lat="59.5727704000" lon="34.1936052684"><ele>176.36</ele><time>2026-08-09T21:11:09Z</time></trkpt><trkpt lat="59.5726899337" lon="34.1936480999"><ele>176.33</ele><time>2026-08-09T21:11:16Z</time></trkpt><trkpt lat="59.5725178532" lon="34.1936785262"><ele>176.29</ele><time>2026-08-09T21:11:30Z</time></trkpt><trkpt lat="59.5724761114" lon="34.1936813761"><ele>176.27</ele><time>2026-08-09T21:11:33Z</time></trkpt><trkpt lat="59.5723444317" lon="34.1937236208"><ele>176.20</ele><time>2026-08-09T21:11:45Z</time></trkpt><trkpt lat="59.5721233170" lon="34.1937841382"><ele>176.19</ele><time>2026-08-09T21:12:01Z</time></trkpt><trkpt lat="59.5719240792" lon="34.1938276403"><ele>176.18</ele><time>2026-08-09T21:12:17Z</time></trkpt><trkpt lat="59.5717492327" lon="34.1938251257"><ele>176.19</ele><time>2026-08-09T21:12:30Z</time></trkpt><trkpt lat="59.5715604722" lon="34.1938791052"><ele>176.24</ele><time>2026-08-09T21:12:46Z</time></trkpt><trkpt lat="59.5714075863" lon="34.1939550452"><ele>176.27</ele><time>2026-08-09T21:13:00Z</time></trkpt><trkpt lat="59.5712691173" lon="34.1940350085"><ele>176.30</ele><time>2026-08-09T21:13:11Z</time></trkpt><trkpt lat="59.5711239427" lon="34.1940542031"><ele>176.33</ele><time>2026-08-09T21:13:21Z</time></trkpt><trkpt lat="59.5709982142" lon="34.1940613277"><ele>176.32</ele><time>2026-08-09T21:13:34Z</time></trkpt><trkpt lat="59.5708810352" lon="34.1941129602"><ele>176.37</ele><time>2026-08-09T21:13:45Z</time></trkpt><trkpt lat="59.5707655326" lon="34.1941331606"><ele>176.42</ele><time>2026-08-09T21:13:58Z</time></trkpt><trkpt lat="59.5705994871" lon="34.1941753216"><ele>176.47</ele><time>2026-08-09T21:14:13Z</time></trkpt><trkpt lat="59.5704859123" lon="34.1941778362"><ele>176.49</ele><time>2026-08-09T21:14:23Z</time></trkpt><trkpt lat="59.5702957269" lon="34.1942622419"><ele>177.38</ele><time>2026-08-09T21:14:39Z</time></trkpt><trkpt lat="59.5701535698" lon="34.1943318956"><ele>177.40</ele><time>2026-08-09T21:14:51Z</time></trkpt><trkpt lat="59.5700016897" lon="34.1943591367"><ele>177.42</ele><time>2026-08-09T21:15:03Z</time></trkpt><trkpt lat="59.5698548388" lon="34.1943561193"><ele>177.43</ele><time>2026-08-09T21:15:13Z</time></trkpt><trkpt lat="59.5696523320" lon="34.1943666805"><ele>177.48</ele><time>2026-08-09T21:15:28Z</time></trkpt><trkpt lat="59.5695080794" lon="34.1944116913"><ele>177.51</ele><time>2026-08-09T21:15:40Z</time></trkpt><trkpt lat="59.5693861227" lon="34.1944309697"><ele>177.55</ele><time>2026-08-09T21:15:52Z</time></trkpt><trkpt lat="59.5693520922" lon="34.1944535170"><ele>177.56</ele><time>2026-08-09T21:15:56Z</time></trkpt><trkpt lat="59.5691692829" lon="34.1945303790"><ele>177.61</ele><time>2026-08-09T21:16:15Z</time></trkpt><trkpt lat="59.5690122060" lon="34.1945825983"><ele>177.65</ele><time>2026-08-09T21:16:31Z</time></trkpt><trkpt lat="59.5688489266" lon="34.1946050618"><ele>178.51</ele><time>2026-08-09T21:16:45Z</time></trkpt><trkpt lat="59.5686560590" lon="34.1946357395"><ele>178.57</ele><time>2026-08-09T21:17:01Z</time></trkpt><trkpt lat="59.5684678853" lon="34.1946767271"><ele>178.64</ele><time>2026-08-09T21:17:16Z</time></trkpt><trkpt lat="59.5682684798" lon="34.1947405972"><ele>178.72</ele><time>2026-08-09T21:17:30Z</time></trkpt><trkpt lat="59.5681729261" lon="34.1947588697"><ele>178.76</ele><time>2026-08-09T21:17:40Z</time></trkpt><trkpt lat="59.5680435933" lon="34.1946318839"><ele>178.84</ele><time>2026-08-09T21:17:55Z</time></trkpt><trkpt lat="59.5680026896" lon="34.1944246832"><ele>179.77</ele><time>2026-08-09T21:18:08Z</time></trkpt><trkpt lat="59.5679486264" lon="34.1942160577"><ele>179.80</ele><time>2026-08-09T21:18:18Z</time></trkpt><trkpt lat="59.5679202117" lon="34.1939316597"><ele>179.85</ele><time>2026-08-09T21:18:30Z</time></trkpt><trkpt lat="59.5678954851" lon="34.1937314998"><ele>179.88</ele><time>2026-08-09T21:18:40Z</time></trkpt><trkpt lat="59.5678904559" lon="34.1936984751"><ele>179.88</ele><time>2026-08-09T21:18:42Z</time></trkpt><trkpt lat="59.5678471215" lon="34.1932944674"><ele>179.91</ele><time>2026-08-09T21:18:55Z</time></trkpt><trkpt lat="59.5678066369" lon="34.1929855105"><ele>179.93</ele><time>2026-08-09T21:19:07Z</time></trkpt><trkpt lat="59.5677814074" lon="34.1927492246"><ele>179.97</ele><time>2026-08-09T21:19:20Z</time></trkpt><trkpt lat="59.5677467063" lon="34.1925969254"><ele>177.69</ele><time>2026-08-09T21:19:29Z</time></trkpt><trkpt lat="59.5676871948" lon="34.1923521738"><ele>177.72</ele><time>2026-08-09T21:19:42Z</time></trkpt><trkpt lat="59.5676756278" lon="34.1923046485"><ele>175.95</ele><time>2026-08-09T21:19:44Z</time></trkpt><trkpt lat="59.5676736999" lon="34.1922841966"><ele>179.36</ele><time>2026-08-09T21:19:45Z</time></trkpt><trkpt lat="59.5676704310" lon="34.1922655888"><ele>179.36</ele><time>2026-08-09T21:19:46Z</time></trkpt><trkpt lat="59.5676022861" lon="34.1918980423"><ele>179.38</ele><time>2026-08-09T21:20:03Z</time></trkpt><trkpt lat="59.5675770566" lon="34.1917089466"><ele>179.39</ele><time>2026-08-09T21:20:12Z</time></trkpt><trkpt lat="59.5675084088" lon="34.1913973913"><ele>179.40</ele><time>2026-08-09T21:20:26Z</time></trkpt><trkpt lat="59.5675017033" lon="34.1913699824"><ele>179.41</ele><time>2026-08-09T21:20:27Z</time></trkpt><trkpt lat="59.5674946625" lon="34.1911210399"><ele>177.11</ele><time>2026-08-09T21:20:37Z</time></trkpt><trkpt lat="59.5674949978" lon="34.1911062878"><ele>177.12</ele><time>2026-08-09T21:20:38Z</time></trkpt><trkpt lat="59.5674622245" lon="34.1908216383"><ele>177.17</ele><time>2026-08-09T21:20:50Z</time></trkpt><trkpt lat="59.5674248412" lon="34.1906627174"><ele>173.02</ele><time>2026-08-09T21:20:57Z</time></trkpt><trkpt lat="59.5674216561" lon="34.1906376556"><ele>177.41</ele><time>2026-08-09T21:20:58Z</time></trkpt><trkpt lat="59.5673595462" lon="34.1902838554"><ele>177.46</ele><time>2026-08-09T21:21:12Z</time></trkpt><trkpt lat="59.5673123561" lon="34.1900068335"><ele>177.59</ele><time>2026-08-09T21:21:28Z</time></trkpt><trkpt lat="59.5672655851" lon="34.1896637622"><ele>177.76</ele><time>2026-08-09T21:21:47Z</time></trkpt><trkpt lat="59.5672548562" lon="34.1895581502"><ele>177.78</ele><time>2026-08-09T21:21:52Z</time></trkpt><trkpt lat="59.5672794152" lon="34.1892878339"><ele>177.89</ele><time>2026-08-09T21:22:05Z</time></trkpt><trkpt lat="59.5671635773" lon="34.1889052838"><ele>178.05</ele><time>2026-08-09T21:22:23Z</time></trkpt><trkpt lat="59.5670422912" lon="34.1884748731"><ele>175.81</ele><time>2026-08-09T21:22:38Z</time></trkpt><trkpt lat="59.5670334063" lon="34.1884020343"><ele>175.83</ele><time>2026-08-09T21:22:41Z</time></trkpt><trkpt lat="59.5670129545" lon="34.1880852822"><ele>175.94</ele><time>2026-08-09T21:22:55Z</time></trkpt><trkpt lat="59.5668785926" lon="34.1878419556"><ele>176.07</ele><time>2026-08-09T21:23:13Z</time></trkpt><trkpt lat="59.5666718110" lon="34.1877474077"><ele>176.16</ele><time>2026-08-09T21:23:27Z</time></trkpt><trkpt lat="59.5665151533" lon="34.1876955237"><ele>176.24</ele><time>2026-08-09T21:23:41Z</time></trkpt><trkpt lat="59.5664905943" lon="34.1876862198"><ele>176.26</ele><time>2026-08-09T21:23:44Z</time></trkpt><trkpt lat="59.5663406420" lon="34.1876378562"><ele>176.36</ele><time>2026-08-09T21:23:59Z</time></trkpt><trkpt lat="59.5663328469" lon="34.1876341682"><ele>181.32</ele><time>2026-08-09T21:24:00Z</time></trkpt><trkpt lat="59.5663222019" lon="34.1876276303"><ele>181.32</ele><time>2026-08-09T21:24:01Z</time></trkpt><trkpt lat="59.5663154963" lon="34.1876266245"><ele>175.18</ele><time>2026-08-09T21:24:02Z</time></trkpt><trkpt lat="59.5663092099" lon="34.1876264568"><ele>178.36</ele><time>2026-08-09T21:24:03Z</time></trkpt><trkpt lat="59.5662685577" lon="34.1876259539"><ele>175.58</ele><time>2026-08-09T21:24:08Z</time></trkpt><trkpt lat="59.5662459265" lon="34.1876192484"><ele>178.09</ele><time>2026-08-09T21:24:10Z</time></trkpt><trkpt lat="59.5661541447" lon="34.1875860561"><ele>177.93</ele><time>2026-08-09T21:24:17Z</time></trkpt><trkpt lat="59.5659756940" lon="34.1875178274"><ele>178.45</ele><time>2026-08-09T21:24:38Z</time></trkpt><trkpt lat="59.5659588464" lon="34.1875052545"><ele>178.56</ele><time>2026-08-09T21:25:02Z</time></trkpt><trkpt lat="59.5659419987" lon="34.1874860600"><ele>178.64</ele><time>2026-08-09T21:25:25Z</time></trkpt><trkpt lat="59.5659508836" lon="34.1874532029"><ele>176.32</ele><time>2026-08-09T21:25:32Z</time></trkpt><trkpt lat="59.5659266599" lon="34.1873308271"><ele>176.42</ele><time>2026-08-09T21:25:51Z</time></trkpt><trkpt lat="59.5659165177" lon="34.1872634366"><ele>176.48</ele><time>2026-08-09T21:26:01Z</time></trkpt><trkpt lat="59.5659299288" lon="34.1873732395"><ele>176.53</ele><time>2026-08-09T21:26:19Z</time></trkpt><trkpt lat="59.5659202896" lon="34.1874340083"><ele>176.55</ele><time>2026-08-09T21:26:24Z</time></trkpt><trkpt lat="59.5659582596" lon="34.1875112057"><ele>176.63</ele><time>2026-08-09T21:26:42Z</time></trkpt><trkpt lat="59.5659454353" lon="34.1875609104"><ele>176.59</ele><time>2026-08-09T21:27:11Z</time></trkpt><trkpt lat="59.5659168530" lon="34.1874721460"><ele>176.58</ele><time>2026-08-09T21:27:36Z</time></trkpt><trkpt lat="59.5658756141" lon="34.1872870736"><ele>176.60</ele><time>2026-08-09T21:27:48Z</time></trkpt><trkpt lat="59.5658549108" lon="34.1870066989"><ele>176.63</ele><time>2026-08-09T21:28:00Z</time></trkpt><trkpt lat="59.5658349618" lon="34.1869207006"><ele>176.67</ele><time>2026-08-09T21:28:05Z</time></trkpt><trkpt lat="59.5658019371" lon="34.1866291780"><ele>176.73</ele><time>2026-08-09T21:28:19Z</time></trkpt><trkpt lat="59.5657301880" lon="34.1862329654"><ele>176.80</ele><time>2026-08-09T21:28:37Z</time></trkpt><trkpt lat="59.5657051262" lon="34.1860811692"><ele>176.86</ele><time>2026-08-09T21:28:50Z</time></trkpt><trkpt lat="59.5656998456" lon="34.1860680096"><ele>179.25</ele><time>2026-08-09T21:29:06Z</time></trkpt><trkpt lat="59.5656785555" lon="34.1860579513"><ele>179.37</ele><time>2026-08-09T21:29:31Z</time></trkpt><trkpt lat="59.5656707603" lon="34.1860488988"><ele>179.44</ele><time>2026-08-09T21:29:50Z</time></trkpt><trkpt lat="59.5656068064" lon="34.1859410238"><ele>179.57</ele><time>2026-08-09T21:30:11Z</time></trkpt><trkpt lat="59.5655684173" lon="34.1858487390"><ele>179.66</ele><time>2026-08-09T21:30:26Z</time></trkpt><trkpt lat="59.5655087382" lon="34.1857904848"><ele>179.76</ele><time>2026-08-09T21:30:42Z</time></trkpt><trkpt lat="59.5654417668" lon="34.1857604776"><ele>179.80</ele><time>2026-08-09T21:30:58Z</time></trkpt><trkpt lat="59.5653847698" lon="34.1857279558"><ele>179.86</ele><time>2026-08-09T21:31:13Z</time></trkpt><trkpt lat="59.5653154515" lon="34.1857360862"><ele>179.89</ele><time>2026-08-09T21:31:32Z</time></trkpt><trkpt lat="59.5652483962" lon="34.1857338231"><ele>179.95</ele><time>2026-08-09T21:31:55Z</time></trkpt><trkpt lat="59.5651463047" lon="34.1857523471"><ele>179.92</ele><time>2026-08-09T21:32:15Z</time></trkpt><trkpt lat="59.5651314687" lon="34.1857969388"><ele>180.74</ele><time>2026-08-09T21:32:36Z</time></trkpt><trkpt lat="59.5650831051" lon="34.1857659258"><ele>180.77</ele><time>2026-08-09T21:32:57Z</time></trkpt><trkpt lat="59.5650288742" lon="34.1858000401"><ele>180.79</ele><time>2026-08-09T21:33:16Z</time></trkpt><trkpt lat="59.5649430435" lon="34.1857743077"><ele>181.78</ele><time>2026-08-09T21:33:32Z</time></trkpt><trkpt lat="59.5649243519" lon="34.1857515089"><ele>181.79</ele><time>2026-08-09T21:34:04Z</time></trkpt><trkpt lat="59.5648996253" lon="34.1857164726"><ele>181.86</ele><time>2026-08-09T21:34:28Z</time></trkpt><trkpt lat="59.5648556203" lon="34.1856892314"><ele>181.95</ele><time>2026-08-09T21:34:52Z</time></trkpt><trkpt lat="59.5649190713" lon="34.1857108567"><ele>182.01</ele><time>2026-08-09T21:35:18Z</time></trkpt><trkpt lat="59.5649567060" lon="34.1857211664"><ele>182.02</ele><time>2026-08-09T21:35:21Z</time></trkpt><trkpt lat="59.5651059877" lon="34.1857266985"><ele>179.62</ele><time>2026-08-09T21:35:31Z</time></trkpt><trkpt lat="59.5651236735" lon="34.1857200768"><ele>179.63</ele><time>2026-08-09T21:35:32Z</time></trkpt><trkpt lat="59.5651494898" lon="34.1857123654"><ele>179.63</ele><time>2026-08-09T21:35:34Z</time></trkpt><trkpt lat="59.5652649086" lon="34.1857616510"><ele>179.66</ele><time>2026-08-09T21:35:44Z</time></trkpt><trkpt lat="59.5653649885" lon="34.1858123615"><ele>179.66</ele><time>2026-08-09T21:35:52Z</time></trkpt><trkpt lat="59.5655013621" lon="34.1858666763"><ele>179.66</ele><time>2026-08-09T21:36:03Z</time></trkpt><trkpt lat="59.5655889530" lon="34.1860015411"><ele>179.65</ele><time>2026-08-09T21:36:13Z</time></trkpt><trkpt lat="59.5656101592" lon="34.1860750504"><ele>179.63</ele><time>2026-08-09T21:36:30Z</time></trkpt><trkpt lat="59.5655995980" lon="34.1860632319"><ele>179.66</ele><time>2026-08-09T21:36:36Z</time></trkpt><trkpt lat="59.5656266715" lon="34.1860919818"><ele>179.66</ele><time>2026-08-09T21:36:57Z</time></trkpt><trkpt lat="59.5656964090" lon="34.1861893795"><ele>179.73</ele><time>2026-08-09T21:37:19Z</time></trkpt><trkpt lat="59.5656880271" lon="34.1862902977"><ele>179.72</ele><time>2026-08-09T21:37:36Z</time></trkpt><trkpt lat="59.5656518172" lon="34.1861600429"><ele>179.72</ele><time>2026-08-09T21:37:53Z</time></trkpt><trkpt lat="59.5656483807" lon="34.1861199774"><ele>179.77</ele><time>2026-08-09T21:38:24Z</time></trkpt><trkpt lat="59.5656500570" lon="34.1861111764"><ele>182.10</ele><time>2026-08-09T21:38:30Z</time></trkpt><trkpt lat="59.5656753704" lon="34.1861141939"><ele>181.44</ele><time>2026-08-09T21:38:46Z</time></trkpt><trkpt lat="59.5656689163" lon="34.1860501561"><ele>181.46</ele><time>2026-08-09T21:39:08Z</time></trkpt><trkpt lat="59.5656750351" lon="34.1860591248"><ele>181.43</ele><time>2026-08-09T21:39:38Z</time></trkpt><trkpt lat="59.5656921342" lon="34.1860918142"><ele>181.47</ele><time>2026-08-09T21:39:59Z</time></trkpt><trkpt lat="59.5656896196" lon="34.1860770620"><ele>181.55</ele><time>2026-08-09T21:40:30Z</time></trkpt><trkpt lat="59.5657024439" lon="34.1860113479"><ele>181.62</ele><time>2026-08-09T21:40:53Z</time></trkpt><trkpt lat="59.5657544956" lon="34.1859696060"><ele>181.69</ele><time>2026-08-09T21:41:21Z</time></trkpt><trkpt lat="59.5656544995" lon="34.1858619824"><ele>181.75</ele><time>2026-08-09T21:41:41Z</time></trkpt><trkpt lat="59.5654317923" lon="34.1857663449"><ele>181.79</ele><time>2026-08-09T21:42:02Z</time></trkpt><trkpt lat="59.5652958378" lon="34.1857332364"><ele>181.78</ele><time>2026-08-09T21:42:24Z</time></trkpt><trkpt lat="59.5651168004" lon="34.1857652552"><ele>181.75</ele><time>2026-08-09T21:42:48Z</time></trkpt><trkpt lat="59.5649790019" lon="34.1858331487"><ele>183.40</ele><time>2026-08-09T21:43:09Z</time></trkpt><trkpt lat="59.5648626611" lon="34.1856961884"><ele>183.32</ele><time>2026-08-09T21:43:30Z</time></trkpt><trkpt lat="59.5648224279" lon="34.1856822744"><ele>183.31</ele><time>2026-08-09T21:43:49Z</time></trkpt><trkpt lat="59.5647498406" lon="34.1856618226"><ele>183.29</ele><time>2026-08-09T21:44:10Z</time></trkpt><trkpt lat="59.5646454021" lon="34.1856617387"><ele>183.25</ele><time>2026-08-09T21:44:32Z</time></trkpt><trkpt lat="59.5645369403" lon="34.1856461484"><ele>183.25</ele><time>2026-08-09T21:45:00Z</time></trkpt><trkpt lat="59.5644947793" lon="34.1856831964"><ele>180.89</ele><time>2026-08-09T21:45:13Z</time></trkpt><trkpt lat="59.5644302387" lon="34.1856703721"><ele>180.87</ele><time>2026-08-09T21:45:28Z</time></trkpt><trkpt lat="59.5642963797" lon="34.1856959369"><ele>180.17</ele><time>2026-08-09T21:45:49Z</time></trkpt><trkpt lat="59.5641785301" lon="34.1857370920"><ele>180.18</ele><time>2026-08-09T21:46:13Z</time></trkpt><trkpt lat="59.5641610958" lon="34.1857162211"><ele>180.18</ele><time>2026-08-09T21:46:17Z</time></trkpt><trkpt lat="59.5641020034" lon="34.1857095994"><ele>180.18</ele><time>2026-08-09T21:46:27Z</time></trkpt><trkpt lat="59.5640352834" lon="34.1857511736"><ele>180.19</ele><time>2026-08-09T21:46:52Z</time></trkpt><trkpt lat="59.5639855787" lon="34.1857776605"><ele>180.20</ele><time>2026-08-09T21:47:14Z</time></trkpt><trkpt lat="59.5639657136" lon="34.1857938375"><ele>182.55</ele><time>2026-08-09T21:47:24Z</time></trkpt><trkpt lat="59.5639505424" lon="34.1857707035"><ele>182.56</ele><time>2026-08-09T21:47:51Z</time></trkpt><trkpt lat="59.5638319384" lon="34.1857649200"><ele>182.56</ele><time>2026-08-09T21:48:18Z</time></trkpt><trkpt lat="59.5637093950" lon="34.1857525986"><ele>182.61</ele><time>2026-08-09T21:48:38Z</time></trkpt><trkpt lat="59.5636228938" lon="34.1857251059"><ele>182.61</ele><time>2026-08-09T21:48:57Z</time></trkpt><trkpt lat="59.5635316987" lon="34.1856610682"><ele>182.63</ele><time>2026-08-09T21:49:21Z</time></trkpt><trkpt lat="59.5634491369" lon="34.1855837032"><ele>182.64</ele><time>2026-08-09T21:49:42Z</time></trkpt><trkpt lat="59.5633862726" lon="34.1856068373"><ele>182.68</ele><time>2026-08-09T21:50:03Z</time></trkpt><trkpt lat="59.5632893778" lon="34.1855664365"><ele>182.71</ele><time>2026-08-09T21:50:26Z</time></trkpt><trkpt lat="59.5632101689" lon="34.1855685320"><ele>182.76</ele><time>2026-08-09T21:50:47Z</time></trkpt><trkpt lat="59.5631078258" lon="34.1855965275"><ele>182.79</ele><time>2026-08-09T21:51:13Z</time></trkpt><trkpt lat="59.5630648267" lon="34.1855501756"><ele>182.82</ele><time>2026-08-09T21:51:44Z</time></trkpt><trkpt lat="59.5629996993" lon="34.1856064182"><ele>182.87</ele><time>2026-08-09T21:52:04Z</time></trkpt><trkpt lat="59.5629391819" lon="34.1856412869"><ele>182.89</ele><time>2026-08-09T21:52:24Z</time></trkpt><trkpt lat="59.5629387628" lon="34.1856410354"><ele>182.89</ele><time>2026-08-09T21:52:25Z</time></trkpt><trkpt lat="59.5628484897" lon="34.1856659297"><ele>182.94</ele><time>2026-08-09T21:52:50Z</time></trkpt><trkpt lat="59.5628452208" lon="34.1856769938"><ele>179.60</ele><time>2026-08-09T21:52:54Z</time></trkpt><trkpt lat="59.5628441311" lon="34.1856761556"><ele>176.58</ele><time>2026-08-09T21:52:55Z</time></trkpt><trkpt lat="59.5628448017" lon="34.1856762394"><ele>180.16</ele><time>2026-08-09T21:52:56Z</time></trkpt><trkpt lat="59.5628462266" lon="34.1856743116"><ele>181.32</ele><time>2026-08-09T21:52:58Z</time></trkpt><trkpt lat="59.5628365874" lon="34.1856665164"><ele>182.67</ele><time>2026-08-09T21:53:02Z</time></trkpt><trkpt lat="59.5628352463" lon="34.1856610682"><ele>179.56</ele><time>2026-08-09T21:53:05Z</time></trkpt><trkpt lat="59.5628372580" lon="34.1856571287"><ele>183.24</ele><time>2026-08-09T21:53:06Z</time></trkpt><trkpt lat="59.5627613179" lon="34.1856762394"><ele>182.19</ele><time>2026-08-09T21:53:35Z</time></trkpt><trkpt lat="59.5626986213" lon="34.1856932547"><ele>182.25</ele><time>2026-08-09T21:53:59Z</time></trkpt><trkpt lat="59.5626038220" lon="34.1857280396"><ele>182.28</ele><time>2026-08-09T21:54:18Z</time></trkpt><trkpt lat="59.5625645109" lon="34.1857390199"><ele>182.28</ele><time>2026-08-09T21:54:25Z</time></trkpt><trkpt lat="59.5624652691" lon="34.1856590565"><ele>182.31</ele><time>2026-08-09T21:54:45Z</time></trkpt><trkpt lat="59.5624121279" lon="34.1855889838"><ele>182.34</ele><time>2026-08-09T21:55:11Z</time></trkpt><trkpt lat="59.5623304881" lon="34.1854412109"><ele>182.36</ele><time>2026-08-09T21:55:33Z</time></trkpt><trkpt lat="59.5622902550" lon="34.1853603255"><ele>182.36</ele><time>2026-08-09T21:55:53Z</time></trkpt><trkpt lat="59.5622894168" lon="34.1852575634"><ele>182.33</ele><time>2026-08-09T21:56:12Z</time></trkpt><trkpt lat="59.5622877404" lon="34.1851521190"><ele>182.31</ele><time>2026-08-09T21:56:31Z</time></trkpt><trkpt lat="59.5622703899" lon="34.1850553919"><ele>182.31</ele><time>2026-08-09T21:56:53Z</time></trkpt><trkpt lat="59.5622168295" lon="34.1849248856"><ele>182.29</ele><time>2026-08-09T21:57:13Z</time></trkpt><trkpt lat="59.5622112975" lon="34.1848397255"><ele>182.29</ele><time>2026-08-09T21:57:34Z</time></trkpt><trkpt lat="59.5621499419" lon="34.1847426631"><ele>182.26</ele><time>2026-08-09T21:57:52Z</time></trkpt><trkpt lat="59.5621447451" lon="34.1846409068"><ele>182.25</ele><time>2026-08-09T21:58:13Z</time></trkpt><trkpt lat="59.5621232037" lon="34.1844990849"><ele>182.22</ele><time>2026-08-09T21:58:32Z</time></trkpt><trkpt lat="59.5620828867" lon="34.1844028607"><ele>182.21</ele><time>2026-08-09T21:58:50Z</time></trkpt><trkpt lat="59.5620565675" lon="34.1843275074"><ele>182.20</ele><time>2026-08-09T21:59:12Z</time></trkpt><trkpt lat="59.5620203577" lon="34.1842986736"><ele>182.20</ele><time>2026-08-09T21:59:40Z</time></trkpt><trkpt lat="59.5620142389" lon="34.1841950733"><ele>182.20</ele><time>2026-08-09T22:00:01Z</time></trkpt><trkpt lat="59.5619797055" lon="34.1840891261"><ele>182.21</ele><time>2026-08-09T22:00:21Z</time></trkpt><trkpt lat="59.5619724970" lon="34.1840072349"><ele>182.20</ele><time>2026-08-09T22:00:39Z</time></trkpt><trkpt lat="59.5619669650" lon="34.1838975996"><ele>182.19</ele><time>2026-08-09T22:01:00Z</time></trkpt><trkpt lat="59.5619470999" lon="34.1838571150"><ele>182.18</ele><time>2026-08-09T22:01:19Z</time></trkpt><trkpt lat="59.5619593374" lon="34.1837867908"><ele>182.17</ele><time>2026-08-09T22:01:49Z</time></trkpt><trkpt lat="59.5619522128" lon="34.1839120165"><ele>182.17</ele><time>2026-08-09T22:02:17Z</time></trkpt><trkpt lat="59.5619492792" lon="34.1840820853"><ele>182.15</ele><time>2026-08-09T22:02:35Z</time></trkpt><trkpt lat="59.5620178431" lon="34.1842431016"><ele>182.14</ele><time>2026-08-09T22:02:54Z</time></trkpt><trkpt lat="59.5620728284" lon="34.1844581813"><ele>182.08</ele><time>2026-08-09T22:03:12Z</time></trkpt><trkpt lat="59.5621230360" lon="34.1847032681"><ele>182.00</ele><time>2026-08-09T22:03:33Z</time></trkpt><trkpt lat="59.5621543005" lon="34.1848436650"><ele>181.93</ele><time>2026-08-09T22:03:49Z</time></trkpt><trkpt lat="59.5622269716" lon="34.1850994807"><ele>181.80</ele><time>2026-08-09T22:04:10Z</time></trkpt><trkpt lat="59.5622490998" lon="34.1853373591"><ele>181.65</ele><time>2026-08-09T22:04:31Z</time></trkpt><trkpt lat="59.5622534584" lon="34.1853521112"><ele>181.48</ele><time>2026-08-09T22:04:57Z</time></trkpt><trkpt lat="59.5622452442" lon="34.1853671987"><ele>181.36</ele><time>2026-08-09T22:05:19Z</time></trkpt><trkpt lat="59.5622092020" lon="34.1854287218"><ele>181.23</ele><time>2026-08-09T22:05:52Z</time></trkpt><trkpt lat="59.5622428134" lon="34.1854320746"><ele>181.14</ele><time>2026-08-09T22:06:12Z</time></trkpt><trkpt lat="59.5621891692" lon="34.1854495090"><ele>181.07</ele><time>2026-08-09T22:06:30Z</time></trkpt><trkpt lat="59.5621951204" lon="34.1854089405"><ele>180.08</ele><time>2026-08-09T22:06:58Z</time></trkpt><trkpt lat="59.5622200146" lon="34.1854446474"><ele>180.06</ele><time>2026-08-09T22:07:24Z</time></trkpt><trkpt lat="59.5621975511" lon="34.1855477449"><ele>180.01</ele><time>2026-08-09T22:07:41Z</time></trkpt><trkpt lat="59.5621470083" lon="34.1857885569"><ele>179.13</ele><time>2026-08-09T22:07:59Z</time></trkpt><trkpt lat="59.5621374529" lon="34.1858284548"><ele>179.13</ele><time>2026-08-09T22:08:02Z</time></trkpt><trkpt lat="59.5621312503" lon="34.1860251781"><ele>179.09</ele><time>2026-08-09T22:08:26Z</time></trkpt><trkpt lat="59.5621781889" lon="34.1863013618"><ele>178.99</ele><time>2026-08-09T22:08:52Z</time></trkpt><trkpt lat="59.5621174201" lon="34.1866030265"><ele>178.96</ele><time>2026-08-09T22:09:16Z</time></trkpt><trkpt lat="59.5620955434" lon="34.1867427528"><ele>178.73</ele><time>2026-08-09T22:09:36Z</time></trkpt><trkpt lat="59.5620871615" lon="34.1868252307"><ele>178.70</ele><time>2026-08-09T22:09:45Z</time></trkpt><trkpt lat="59.5620424859" lon="34.1869649570"><ele>178.57</ele><time>2026-08-09T22:10:06Z</time></trkpt><trkpt lat="59.5620282367" lon="34.1870016698"><ele>178.41</ele><time>2026-08-09T22:10:35Z</time></trkpt><trkpt lat="59.5620378759" lon="34.1870477702"><ele>178.28</ele><time>2026-08-09T22:11:02Z</time></trkpt><trkpt lat="59.5620615128" lon="34.1870816331"><ele>178.11</ele><time>2026-08-09T22:11:31Z</time></trkpt><trkpt lat="59.5620610937" lon="34.1870700661"><ele>180.32</ele><time>2026-08-09T22:11:54Z</time></trkpt><trkpt lat="59.5620934479" lon="34.1870149970"><ele>180.23</ele><time>2026-08-09T22:12:23Z</time></trkpt><trkpt lat="59.5621811226" lon="34.1867860034"><ele>180.13</ele><time>2026-08-09T22:12:44Z</time></trkpt><trkpt lat="59.5622142311" lon="34.1864638869"><ele>180.02</ele><time>2026-08-09T22:13:03Z</time></trkpt><trkpt lat="59.5622217748" lon="34.1861944087"><ele>179.90</ele><time>2026-08-09T22:13:27Z</time></trkpt><trkpt lat="59.5622171648" lon="34.1859235056"><ele>179.77</ele><time>2026-08-09T22:13:50Z</time></trkpt><trkpt lat="59.5622877404" lon="34.1856465675"><ele>179.69</ele><time>2026-08-09T22:14:10Z</time></trkpt><trkpt lat="59.5623401273" lon="34.1853930987"><ele>179.60</ele><time>2026-08-09T22:14:30Z</time></trkpt><trkpt lat="59.5623832103" lon="34.1855578870"><ele>179.48</ele><time>2026-08-09T22:14:52Z</time></trkpt><trkpt lat="59.5623846352" lon="34.1855754051"><ele>179.46</ele><time>2026-08-09T22:14:53Z</time></trkpt><trkpt lat="59.5623834617" lon="34.1856486630"><ele>179.42</ele><time>2026-08-09T22:15:13Z</time></trkpt><trkpt lat="59.5624126308" lon="34.1857066657"><ele>180.12</ele><time>2026-08-09T22:15:38Z</time></trkpt><trkpt lat="59.5625158958" lon="34.1857432947"><ele>180.11</ele><time>2026-08-09T22:16:04Z</time></trkpt><trkpt lat="59.5625361800" lon="34.1857095994"><ele>180.10</ele><time>2026-08-09T22:16:28Z</time></trkpt><trkpt lat="59.5625861362" lon="34.1856844537"><ele>180.07</ele><time>2026-08-09T22:16:53Z</time></trkpt><trkpt lat="59.5626167301" lon="34.1856314801"><ele>180.07</ele><time>2026-08-09T22:17:18Z</time></trkpt><trkpt lat="59.5626821090" lon="34.1856545303"><ele>180.06</ele><time>2026-08-09T22:17:39Z</time></trkpt><trkpt lat="59.5627262816" lon="34.1855827812"><ele>180.08</ele><time>2026-08-09T22:18:01Z</time></trkpt><trkpt lat="59.5626986213" lon="34.1854687873"><ele>180.04</ele><time>2026-08-09T22:18:24Z</time></trkpt><trkpt lat="59.5627436321" lon="34.1854045819"><ele>180.10</ele><time>2026-08-09T22:18:49Z</time></trkpt><trkpt lat="59.5628035627" lon="34.1854544543"><ele>180.10</ele><time>2026-08-09T22:19:12Z</time></trkpt><trkpt lat="59.5628592186" lon="34.1854556277"><ele>180.12</ele><time>2026-08-09T22:19:35Z</time></trkpt><trkpt lat="59.5628458075" lon="34.1854909156"><ele>180.14</ele><time>2026-08-09T22:19:57Z</time></trkpt><trkpt lat="59.5628432091" lon="34.1854933463"><ele>177.45</ele><time>2026-08-09T22:20:00Z</time></trkpt><trkpt lat="59.5629093423" lon="34.1855812725"><ele>177.44</ele><time>2026-08-09T22:20:24Z</time></trkpt><trkpt lat="59.5629787445" lon="34.1856200807"><ele>177.51</ele><time>2026-08-09T22:20:48Z</time></trkpt><trkpt lat="59.5630626474" lon="34.1855937615"><ele>177.53</ele><time>2026-08-09T22:21:11Z</time></trkpt><trkpt lat="59.5630777348" lon="34.1855235212"><ele>177.54</ele><time>2026-08-09T22:21:39Z</time></trkpt><trkpt lat="59.5630908106" lon="34.1855135467"><ele>177.55</ele><time>2026-08-09T22:21:41Z</time></trkpt><trkpt lat="59.5631527528" lon="34.1855749022"><ele>177.63</ele><time>2026-08-09T22:22:03Z</time></trkpt><trkpt lat="59.5632001944" lon="34.1855611559"><ele>177.71</ele><time>2026-08-09T22:22:23Z</time></trkpt><trkpt lat="59.5632882882" lon="34.1855253652"><ele>177.80</ele><time>2026-08-09T22:22:48Z</time></trkpt><trkpt lat="59.5633569360" lon="34.1855379380"><ele>177.86</ele><time>2026-08-09T22:23:08Z</time></trkpt><trkpt lat="59.5634345524" lon="34.1855470743"><ele>177.88</ele><time>2026-08-09T22:23:37Z</time></trkpt><trkpt lat="59.5634679124" lon="34.1857297998"><ele>177.14</ele><time>2026-08-09T22:24:11Z</time></trkpt><trkpt lat="59.5634555910" lon="34.1856904048"><ele>176.44</ele><time>2026-08-09T22:24:36Z</time></trkpt><trkpt lat="59.5635172818" lon="34.1855124570"><ele>176.55</ele><time>2026-08-09T22:24:56Z</time></trkpt><trkpt lat="59.5634785574" lon="34.1854160652"><ele>176.62</ele><time>2026-08-09T22:25:14Z</time></trkpt><trkpt lat="59.5634502266" lon="34.1853612475"><ele>176.67</ele><time>2026-08-09T22:25:40Z</time></trkpt><trkpt lat="59.5634607878" lon="34.1854057554"><ele>176.71</ele><time>2026-08-09T22:25:59Z</time></trkpt><trkpt lat="59.5635234006" lon="34.1855464038"><ele>176.77</ele><time>2026-08-09T22:26:20Z</time></trkpt><trkpt lat="59.5635292679" lon="34.1855844576"><ele>176.80</ele><time>2026-08-09T22:26:40Z</time></trkpt><trkpt lat="59.5635248255" lon="34.1856127046"><ele>179.10</ele><time>2026-08-09T22:26:47Z</time></trkpt><trkpt lat="59.5634867717" lon="34.1857288778"><ele>179.16</ele><time>2026-08-09T22:27:07Z</time></trkpt><trkpt lat="59.5635403320" lon="34.1856291331"><ele>179.98</ele><time>2026-08-09T22:27:31Z</time></trkpt><trkpt lat="59.5635981672" lon="34.1856328212"><ele>180.04</ele><time>2026-08-09T22:27:52Z</time></trkpt><trkpt lat="59.5636729337" lon="34.1856527701"><ele>180.09</ele><time>2026-08-09T22:28:15Z</time></trkpt><trkpt lat="59.5637209620" lon="34.1856955178"><ele>180.15</ele><time>2026-08-09T22:28:40Z</time></trkpt><trkpt lat="59.5637721755" lon="34.1856899019"><ele>180.19</ele><time>2026-08-09T22:29:06Z</time></trkpt><trkpt lat="59.5637981594" lon="34.1857332364"><ele>180.20</ele><time>2026-08-09T22:29:31Z</time></trkpt><trkpt lat="59.5638327766" lon="34.1856983677"><ele>180.24</ele><time>2026-08-09T22:29:52Z</time></trkpt><trkpt lat="59.5638589282" lon="34.1856845375"><ele>181.00</ele><time>2026-08-09T22:30:16Z</time></trkpt><trkpt lat="59.5638666395" lon="34.1857307218"><ele>181.01</ele><time>2026-08-09T22:30:40Z</time></trkpt><trkpt lat="59.5639195293" lon="34.1857679375"><ele>181.00</ele><time>2026-08-09T22:30:57Z</time></trkpt><trkpt lat="59.5639584213" lon="34.1857406963"><ele>180.96</ele><time>2026-08-09T22:31:21Z</time></trkpt><trkpt lat="59.5640015882" lon="34.1857185680"><ele>180.90</ele><time>2026-08-09T22:31:40Z</time></trkpt><trkpt lat="59.5640177652" lon="34.1856736410"><ele>180.89</ele><time>2026-08-09T22:32:01Z</time></trkpt><trkpt lat="59.5640234649" lon="34.1857179813"><ele>176.10</ele><time>2026-08-09T22:32:16Z</time></trkpt><trkpt lat="59.5640238002" lon="34.1857209988"><ele>179.94</ele><time>2026-08-09T22:32:17Z</time></trkpt><trkpt lat="59.5640232135" lon="34.1857244354"><ele>179.94</ele><time>2026-08-09T22:32:18Z</time></trkpt><trkpt lat="59.5640061144" lon="34.1857146285"><ele>179.91</ele><time>2026-08-09T22:32:53Z</time></trkpt><trkpt lat="59.5639897697" lon="34.1857035644"><ele>179.90</ele><time>2026-08-09T22:33:08Z</time></trkpt><trkpt lat="59.5640243869" lon="34.1857552808"><ele>179.90</ele><time>2026-08-09T22:33:34Z</time></trkpt><trkpt lat="59.5640153345" lon="34.1857048217"><ele>179.84</ele><time>2026-08-09T22:34:10Z</time></trkpt><trkpt lat="59.5639782865" lon="34.1857297160"><ele>179.80</ele><time>2026-08-09T22:34:29Z</time></trkpt><trkpt lat="59.5638590958" lon="34.1857099347"><ele>179.74</ele><time>2026-08-09T22:34:52Z</time></trkpt><trkpt lat="59.5637557469" lon="34.1856973618"><ele>179.69</ele><time>2026-08-09T22:35:14Z</time></trkpt><trkpt lat="59.5636893623" lon="34.1856997926"><ele>179.64</ele><time>2026-08-09T22:35:36Z</time></trkpt><trkpt lat="59.5635760389" lon="34.1856519319"><ele>179.56</ele><time>2026-08-09T22:36:02Z</time></trkpt><trkpt lat="59.5635317825" lon="34.1855199169"><ele>179.53</ele><time>2026-08-09T22:36:24Z</time></trkpt><trkpt lat="59.5635083970" lon="34.1853970382"><ele>179.48</ele><time>2026-08-09T22:36:41Z</time></trkpt><trkpt lat="59.5634466223" lon="34.1853853036"><ele>177.00</ele><time>2026-08-09T22:36:53Z</time></trkpt><trkpt lat="59.5634285174" lon="34.1853521112"><ele>177.00</ele><time>2026-08-09T22:37:00Z</time></trkpt><trkpt lat="59.5633901283" lon="34.1854256205"><ele>176.97</ele><time>2026-08-09T22:37:18Z</time></trkpt><trkpt lat="59.5633699279" lon="34.1854331642"><ele>176.95</ele><time>2026-08-09T22:37:26Z</time></trkpt><trkpt lat="59.5632695965" lon="34.1855524387"><ele>176.90</ele><time>2026-08-09T22:37:50Z</time></trkpt><trkpt lat="59.5632119291" lon="34.1855980363"><ele>176.86</ele><time>2026-08-09T22:38:07Z</time></trkpt><trkpt lat="59.5631126873" lon="34.1855760757"><ele>176.80</ele><time>2026-08-09T22:38:25Z</time></trkpt><trkpt lat="59.5630996954" lon="34.1854926758"><ele>176.73</ele><time>2026-08-09T22:38:48Z</time></trkpt><trkpt lat="59.5630127750" lon="34.1853663605"><ele>176.66</ele><time>2026-08-09T22:39:11Z</time></trkpt><trkpt lat="59.5630307123" lon="34.1854187474"><ele>176.60</ele><time>2026-08-09T22:39:30Z</time></trkpt><trkpt lat="59.5629957598" lon="34.1854926758"><ele>176.54</ele><time>2026-08-09T22:39:50Z</time></trkpt><trkpt lat="59.5629950892" lon="34.1855562944"><ele>176.50</ele><time>2026-08-09T22:40:07Z</time></trkpt><trkpt lat="59.5629064087" lon="34.1854880657"><ele>176.39</ele><time>2026-08-09T22:40:31Z</time></trkpt><trkpt lat="59.5628607273" lon="34.1855645925"><ele>178.67</ele><time>2026-08-09T22:40:49Z</time></trkpt><trkpt lat="59.5627904031" lon="34.1856652591"><ele>178.57</ele><time>2026-08-09T22:41:14Z</time></trkpt><trkpt lat="59.5626721345" lon="34.1856617387"><ele>179.23</ele><time>2026-08-09T22:41:40Z</time></trkpt><trkpt lat="59.5625830349" lon="34.1857101861"><ele>180.67</ele><time>2026-08-09T22:42:00Z</time></trkpt><trkpt lat="59.5624969527" lon="34.1857510060"><ele>180.56</ele><time>2026-08-09T22:42:20Z</time></trkpt><trkpt lat="59.5624853857" lon="34.1857948434"><ele>180.46</ele><time>2026-08-09T22:42:36Z</time></trkpt><trkpt lat="59.5624510199" lon="34.1857363377"><ele>180.31</ele><time>2026-08-09T22:42:58Z</time></trkpt><trkpt lat="59.5623549633" lon="34.1855415422"><ele>180.22</ele><time>2026-08-09T22:43:17Z</time></trkpt><trkpt lat="59.5623544604" lon="34.1853490099"><ele>180.13</ele><time>2026-08-09T22:43:32Z</time></trkpt><trkpt lat="59.5623325836" lon="34.1853598226"><ele>180.01</ele><time>2026-08-09T22:43:51Z</time></trkpt><trkpt lat="59.5623114612" lon="34.1853424720"><ele>177.71</ele><time>2026-08-09T22:43:55Z</time></trkpt><trkpt lat="59.5622651931" lon="34.1852621734"><ele>176.73</ele><time>2026-08-09T22:44:19Z</time></trkpt><trkpt lat="59.5622217748" lon="34.1853036638"><ele>176.67</ele><time>2026-08-09T22:44:34Z</time></trkpt><trkpt lat="59.5621558093" lon="34.1854575556"><ele>176.56</ele><time>2026-08-09T22:45:02Z</time></trkpt><trkpt lat="59.5622520335" lon="34.1853804421"><ele>176.46</ele><time>2026-08-09T22:45:27Z</time></trkpt><trkpt lat="59.5622159913" lon="34.1853738204"><ele>178.67</ele><time>2026-08-09T22:45:47Z</time></trkpt><trkpt lat="59.5622423105" lon="34.1853683721"><ele>178.55</ele><time>2026-08-09T22:46:14Z</time></trkpt><trkpt lat="59.5621992275" lon="34.1852634307"><ele>178.42</ele><time>2026-08-09T22:46:45Z</time></trkpt><trkpt lat="59.5621547196" lon="34.1852093674"><ele>179.10</ele><time>2026-08-09T22:47:14Z</time></trkpt><trkpt lat="59.5622028317" lon="34.1852467507"><ele>179.01</ele><time>2026-08-09T22:47:44Z</time></trkpt><trkpt lat="59.5621849783" lon="34.1854928434"><ele>178.93</ele><time>2026-08-09T22:48:08Z</time></trkpt><trkpt lat="59.5622121356" lon="34.1855671909"><ele>179.74</ele><time>2026-08-09T22:48:16Z</time></trkpt><trkpt lat="59.5622096211" lon="34.1857109405"><ele>179.68</ele><time>2026-08-09T22:48:37Z</time></trkpt><trkpt lat="59.5621794462" lon="34.1859656665"><ele>179.62</ele><time>2026-08-09T22:48:56Z</time></trkpt><trkpt lat="59.5621274784" lon="34.1862182971"><ele>179.53</ele><time>2026-08-09T22:49:13Z</time></trkpt><trkpt lat="59.5621358603" lon="34.1863918863"><ele>179.42</ele><time>2026-08-09T22:49:34Z</time></trkpt><trkpt lat="59.5621400513" lon="34.1864208877"><ele>179.37</ele><time>2026-08-09T22:49:37Z</time></trkpt><trkpt lat="59.5621286519" lon="34.1866546590"><ele>180.28</ele><time>2026-08-09T22:50:01Z</time></trkpt><trkpt lat="59.5620859880" lon="34.1869248915"><ele>180.86</ele><time>2026-08-09T22:50:21Z</time></trkpt><trkpt lat="59.5620626863" lon="34.1870374605"><ele>180.72</ele><time>2026-08-09T22:50:45Z</time></trkpt><trkpt lat="59.5620816294" lon="34.1869477741"><ele>181.29</ele><time>2026-08-09T22:51:13Z</time></trkpt><trkpt lat="59.5619926974" lon="34.1868112329"><ele>181.07</ele><time>2026-08-09T22:51:45Z</time></trkpt><trkpt lat="59.5620186813" lon="34.1868284997"><ele>180.99</ele><time>2026-08-09T22:51:52Z</time></trkpt><trkpt lat="59.5620574057" lon="34.1868642904"><ele>180.98</ele><time>2026-08-09T22:51:57Z</time></trkpt><trkpt lat="59.5621755067" lon="34.1870493628"><ele>180.89</ele><time>2026-08-09T22:52:17Z</time></trkpt><trkpt lat="59.5621580724" lon="34.1871078685"><ele>180.83</ele><time>2026-08-09T22:52:36Z</time></trkpt><trkpt lat="59.5621046796" lon="34.1870683897"><ele>180.79</ele><time>2026-08-09T22:53:02Z</time></trkpt><trkpt lat="59.5621341001" lon="34.1870380472"><ele>180.85</ele><time>2026-08-09T22:53:42Z</time></trkpt><trkpt lat="59.5621688012" lon="34.1870380472"><ele>180.89</ele><time>2026-08-09T22:54:15Z</time></trkpt><trkpt lat="59.5621340163" lon="34.1870305035"><ele>180.94</ele><time>2026-08-09T22:54:23Z</time></trkpt><trkpt lat="59.5621499419" lon="34.1869994905"><ele>181.00</ele><time>2026-08-09T22:54:50Z</time></trkpt><trkpt lat="59.5621323399" lon="34.1867999174"><ele>181.03</ele><time>2026-08-09T22:55:08Z</time></trkpt><trkpt lat="59.5622180868" lon="34.1864555888"><ele>181.09</ele><time>2026-08-09T22:55:28Z</time></trkpt><trkpt lat="59.5622285642" lon="34.1863842588"><ele>178.78</ele><time>2026-08-09T22:55:32Z</time></trkpt><trkpt lat="59.5622361079" lon="34.1860212386"><ele>178.08</ele><time>2026-08-09T22:55:51Z</time></trkpt><trkpt lat="59.5622530393" lon="34.1857814323"><ele>178.10</ele><time>2026-08-09T22:56:04Z</time></trkpt><trkpt lat="59.5623022411" lon="34.1854540352"><ele>178.16</ele><time>2026-08-09T22:56:17Z</time></trkpt><trkpt lat="59.5623140596" lon="34.1853970382"><ele>178.16</ele><time>2026-08-09T22:56:19Z</time></trkpt><trkpt lat="59.5623042528" lon="34.1853301506"><ele>178.24</ele><time>2026-08-09T22:56:34Z</time></trkpt><trkpt lat="59.5622603316" lon="34.1854138859"><ele>178.25</ele><time>2026-08-09T22:56:54Z</time></trkpt><trkpt lat="59.5623050071" lon="34.1852820385"><ele>178.29</ele><time>2026-08-09T22:57:15Z</time></trkpt><trkpt lat="59.5623028278" lon="34.1851388756"><ele>178.28</ele><time>2026-08-09T22:57:26Z</time></trkpt><trkpt lat="59.5622272231" lon="34.1848185193"><ele>178.24</ele><time>2026-08-09T22:57:48Z</time></trkpt><trkpt lat="59.5622023288" lon="34.1847512126"><ele>178.28</ele><time>2026-08-09T22:57:53Z</time></trkpt><trkpt lat="59.5621406380" lon="34.1845894419"><ele>178.26</ele><time>2026-08-09T22:58:02Z</time></trkpt><trkpt lat="59.5621102955" lon="34.1844893619"><ele>178.24</ele><time>2026-08-09T22:58:07Z</time></trkpt><trkpt lat="59.5620962977" lon="34.1844302695"><ele>178.23</ele><time>2026-08-09T22:58:10Z</time></trkpt><trkpt lat="59.5620248001" lon="34.1841931455"><ele>178.15</ele><time>2026-08-09T22:58:26Z</time></trkpt><trkpt lat="59.5619820524" lon="34.1840607952"><ele>178.11</ele><time>2026-08-09T22:58:47Z</time></trkpt><trkpt lat="59.5619662944" lon="34.1840845998"><ele>178.08</ele><time>2026-08-09T22:59:11Z</time></trkpt><trkpt lat="59.5619589183" lon="34.1840716917"><ele>178.04</ele><time>2026-08-09T22:59:32Z</time></trkpt><trkpt lat="59.5619831420" lon="34.1840926465"><ele>178.00</ele><time>2026-08-09T22:59:55Z</time></trkpt><trkpt lat="59.5619987324" lon="34.1841146071"><ele>177.93</ele><time>2026-08-09T23:00:23Z</time></trkpt><trkpt lat="59.5620050188" lon="34.1840968374"><ele>177.87</ele><time>2026-08-09T23:00:46Z</time></trkpt><trkpt lat="59.5619579125" lon="34.1840319615"><ele>177.80</ele><time>2026-08-09T23:01:07Z</time></trkpt><trkpt lat="59.5619515423" lon="34.1839805804"><ele>177.76</ele><time>2026-08-09T23:01:29Z</time></trkpt><trkpt lat="59.5618968923" lon="34.1838016268"><ele>177.70</ele><time>2026-08-09T23:01:46Z</time></trkpt><trkpt lat="59.5619175956" lon="34.1837739665"><ele>177.65</ele><time>2026-08-09T23:02:07Z</time></trkpt><trkpt lat="59.5619347785" lon="34.1837965976"><ele>177.56</ele><time>2026-08-09T23:02:37Z</time></trkpt><trkpt lat="59.5619000774" lon="34.1837729607"><ele>177.51</ele><time>2026-08-09T23:03:05Z</time></trkpt><trkpt lat="59.5618980657" lon="34.1837302130"><ele>177.48</ele><time>2026-08-09T23:03:16Z</time></trkpt><trkpt lat="59.5618434995" lon="34.1835557856"><ele>177.46</ele><time>2026-08-09T23:03:22Z</time></trkpt><trkpt lat="59.5618217066" lon="34.1833799332"><ele>177.46</ele><time>2026-08-09T23:03:34Z</time></trkpt><trkpt lat="59.5618040208" lon="34.1833511833"><ele>177.41</ele><time>2026-08-09T23:03:51Z</time></trkpt><trkpt lat="59.5617858320" lon="34.1833073460"><ele>177.37</ele><time>2026-08-09T23:04:15Z</time></trkpt><trkpt lat="59.5617954712" lon="34.1833168175"><ele>177.27</ele><time>2026-08-09T23:04:52Z</time></trkpt><trkpt lat="59.5617948845" lon="34.1833368503"><ele>177.21</ele><time>2026-08-09T23:05:15Z</time></trkpt><trkpt lat="59.5617933758" lon="34.1833220143"><ele>177.13</ele><time>2026-08-09T23:05:43Z</time></trkpt><trkpt lat="59.5617980696" lon="34.1833483335"><ele>177.06</ele><time>2026-08-09T23:06:17Z</time></trkpt><trkpt lat="59.5618150849" lon="34.1833490040"><ele>175.73</ele><time>2026-08-09T23:06:40Z</time></trkpt><trkpt lat="59.5618127380" lon="34.1833422985"><ele>174.16</ele><time>2026-08-09T23:06:44Z</time></trkpt><trkpt lat="59.5618049428" lon="34.1833386943"><ele>176.50</ele><time>2026-08-09T23:06:50Z</time></trkpt><trkpt lat="59.5617997460" lon="34.1833410412"><ele>178.74</ele><time>2026-08-09T23:06:56Z</time></trkpt><trkpt lat="59.5618055295" lon="34.1833444778"><ele>176.43</ele><time>2026-08-09T23:07:09Z</time></trkpt><trkpt lat="59.5617788751" lon="34.1833509319"><ele>176.39</ele><time>2026-08-09T23:07:36Z</time></trkpt><trkpt lat="59.5617461018" lon="34.1832702141"><ele>176.37</ele><time>2026-08-09T23:07:57Z</time></trkpt><trkpt lat="59.5617093891" lon="34.1831328347"><ele>175.57</ele><time>2026-08-09T23:08:16Z</time></trkpt><trkpt lat="59.5616784599" lon="34.1830366943"><ele>175.56</ele><time>2026-08-09T23:08:34Z</time></trkpt><trkpt lat="59.5616362151" lon="34.1829007398"><ele>175.54</ele><time>2026-08-09T23:08:55Z</time></trkpt><trkpt lat="59.5615812298" lon="34.1827389691"><ele>175.54</ele><time>2026-08-09T23:09:13Z</time></trkpt><trkpt lat="59.5615687408" lon="34.1825877596"><ele>175.49</ele><time>2026-08-09T23:09:32Z</time></trkpt><trkpt lat="59.5615271665" lon="34.1823997535"><ele>175.47</ele><time>2026-08-09T23:09:51Z</time></trkpt><trkpt lat="59.5614753664" lon="34.1821965761"><ele>175.43</ele><time>2026-08-09T23:10:11Z</time></trkpt><trkpt lat="59.5614114963" lon="34.1819884535"><ele>175.41</ele><time>2026-08-09T23:10:30Z</time></trkpt><trkpt lat="59.5613374002" lon="34.1817209031"><ele>175.37</ele><time>2026-08-09T23:10:50Z</time></trkpt><trkpt lat="59.5612487197" lon="34.1814494971"><ele>175.33</ele><time>2026-08-09T23:11:07Z</time></trkpt><trkpt lat="59.5611576922" lon="34.1812762432"><ele>175.29</ele><time>2026-08-09T23:11:23Z</time></trkpt><trkpt lat="59.5611113403" lon="34.1811463237"><ele>175.27</ele><time>2026-08-09T23:11:32Z</time></trkpt><trkpt lat="59.5610217378" lon="34.1809506901"><ele>175.21</ele><time>2026-08-09T23:11:48Z</time></trkpt><trkpt lat="59.5609378349" lon="34.1806478519"><ele>175.15</ele><time>2026-08-09T23:12:06Z</time></trkpt><trkpt lat="59.5609334763" lon="34.1806287412"><ele>175.14</ele><time>2026-08-09T23:12:07Z</time></trkpt><trkpt lat="59.5608582068" lon="34.1802970693"><ele>177.50</ele><time>2026-08-09T23:12:21Z</time></trkpt><trkpt lat="59.5608021319" lon="34.1800020263"><ele>177.44</ele><time>2026-08-09T23:12:35Z</time></trkpt><trkpt lat="59.5607526787" lon="34.1796700191"><ele>177.38</ele><time>2026-08-09T23:12:51Z</time></trkpt><trkpt lat="59.5607220847" lon="34.1793816816"><ele>177.30</ele><time>2026-08-09T23:13:05Z</time></trkpt><trkpt lat="59.5607018843" lon="34.1791835334"><ele>177.22</ele><time>2026-08-09T23:13:18Z</time></trkpt><trkpt lat="59.5606940892" lon="34.1791221779"><ele>177.21</ele><time>2026-08-09T23:13:22Z</time></trkpt><trkpt lat="59.5606883895" lon="34.1787877399"><ele>177.13</ele><time>2026-08-09T23:13:37Z</time></trkpt><trkpt lat="59.5606804267" lon="34.1784862429"><ele>177.04</ele><time>2026-08-09T23:13:50Z</time></trkpt><trkpt lat="59.5606990345" lon="34.1783470195"><ele>176.96</ele><time>2026-08-09T23:14:02Z</time></trkpt><trkpt lat="59.5607529301" lon="34.1782929562"><ele>176.89</ele><time>2026-08-09T23:14:18Z</time></trkpt><trkpt lat="59.5607792493" lon="34.1782549862"><ele>176.74</ele><time>2026-08-09T23:14:52Z</time></trkpt><trkpt lat="59.5607214980" lon="34.1782339476"><ele>176.70</ele><time>2026-08-09T23:15:17Z</time></trkpt><trkpt lat="59.5607173909" lon="34.1783252265"><ele>176.63</ele><time>2026-08-09T23:15:51Z</time></trkpt><trkpt lat="59.5607105177" lon="34.1787090339"><ele>176.60</ele><time>2026-08-09T23:16:10Z</time></trkpt><trkpt lat="59.5607097633" lon="34.1787485126"><ele>176.60</ele><time>2026-08-09T23:16:12Z</time></trkpt><trkpt lat="59.5607209112" lon="34.1789072659"><ele>176.60</ele><time>2026-08-09T23:16:18Z</time></trkpt><trkpt lat="59.5607471466" lon="34.1791757382"><ele>176.59</ele><time>2026-08-09T23:16:31Z</time></trkpt><trkpt lat="59.5607556123" lon="34.1792915761"><ele>176.61</ele><time>2026-08-09T23:16:36Z</time></trkpt><trkpt lat="59.5608024672" lon="34.1796215717"><ele>176.60</ele><time>2026-08-09T23:16:51Z</time></trkpt><trkpt lat="59.5608375035" lon="34.1798662394"><ele>176.60</ele><time>2026-08-09T23:17:02Z</time></trkpt><trkpt lat="59.5608437061" lon="34.1799077298"><ele>176.60</ele><time>2026-08-09T23:17:04Z</time></trkpt><trkpt lat="59.5609093364" lon="34.1802047845"><ele>176.64</ele><time>2026-08-09T23:17:18Z</time></trkpt><trkpt lat="59.5609457977" lon="34.1804537270"><ele>176.67</ele><time>2026-08-09T23:17:28Z</time></trkpt><trkpt lat="59.5610229112" lon="34.1807930265"><ele>176.69</ele><time>2026-08-09T23:17:43Z</time></trkpt><trkpt lat="59.5610333886" lon="34.1808573157"><ele>176.70</ele><time>2026-08-09T23:17:46Z</time></trkpt><trkpt lat="59.5611095801" lon="34.1811112873"><ele>176.74</ele><time>2026-08-09T23:18:02Z</time></trkpt><trkpt lat="59.5612003561" lon="34.1813423764"><ele>176.79</ele><time>2026-08-09T23:18:16Z</time></trkpt><trkpt lat="59.5613099914" lon="34.1816307977"><ele>176.88</ele><time>2026-08-09T23:18:34Z</time></trkpt><trkpt lat="59.5613876078" lon="34.1818851884"><ele>176.94</ele><time>2026-08-09T23:18:49Z</time></trkpt><trkpt lat="59.5614656433" lon="34.1821504757"><ele>177.02</ele><time>2026-08-09T23:19:06Z</time></trkpt><trkpt lat="59.5615285914" lon="34.1824098956"><ele>177.15</ele><time>2026-08-09T23:19:27Z</time></trkpt><trkpt lat="59.5615793858" lon="34.1826416552"><ele>177.24</ele><time>2026-08-09T23:19:49Z</time></trkpt><trkpt lat="59.5616338681" lon="34.1828562319"><ele>177.36</ele><time>2026-08-09T23:20:11Z</time></trkpt><trkpt lat="59.5616579242" lon="34.1829633527"><ele>177.45</ele><time>2026-08-09T23:20:32Z</time></trkpt><trkpt lat="59.5617166813" lon="34.1831143945"><ele>177.52</ele><time>2026-08-09T23:20:51Z</time></trkpt><trkpt lat="59.5617669728" lon="34.1832775064"><ele>177.61</ele><time>2026-08-09T23:21:09Z</time></trkpt><trkpt lat="59.5618165098" lon="34.1833303962"><ele>177.70</ele><time>2026-08-09T23:21:28Z</time></trkpt><trkpt lat="59.5618028473" lon="34.1833091900"><ele>177.80</ele><time>2026-08-09T23:21:52Z</time></trkpt><trkpt lat="59.5618172642" lon="34.1833192483"><ele>177.91</ele><time>2026-08-09T23:22:21Z</time></trkpt><trkpt lat="59.5618057810" lon="34.1833700426"><ele>175.49</ele><time>2026-08-09T23:22:54Z</time></trkpt><trkpt lat="59.5618046075" lon="34.1833729763"><ele>175.49</ele><time>2026-08-09T23:22:55Z</time></trkpt><trkpt lat="59.5618051942" lon="34.1833516862"><ele>175.55</ele><time>2026-08-09T23:23:19Z</time></trkpt><trkpt lat="59.5618061163" lon="34.1833562963"><ele>175.59</ele><time>2026-08-09T23:23:44Z</time></trkpt><trkpt lat="59.5618255623" lon="34.1833770834"><ele>174.33</ele><time>2026-08-09T23:23:54Z</time></trkpt><trkpt lat="59.5618040208" lon="34.1833899915"><ele>174.37</ele><time>2026-08-09T23:24:16Z</time></trkpt><trkpt lat="59.5618129894" lon="34.1833925061"><ele>174.40</ele><time>2026-08-09T23:24:33Z</time></trkpt><trkpt lat="59.5618300885" lon="34.1834096890"><ele>174.41</ele><time>2026-08-09T23:24:45Z</time></trkpt><trkpt lat="59.5618792064" lon="34.1836659238"><ele>174.42</ele><time>2026-08-09T23:24:58Z</time></trkpt><trkpt lat="59.5619716588" lon="34.1840211488"><ele>174.42</ele><time>2026-08-09T23:25:09Z</time></trkpt><trkpt lat="59.5620484371" lon="34.1842306964"><ele>174.42</ele><time>2026-08-09T23:25:16Z</time></trkpt><trkpt lat="59.5621535461" lon="34.1845876817"><ele>174.43</ele><time>2026-08-09T23:25:27Z</time></trkpt><trkpt lat="59.5621987246" lon="34.1847388912"><ele>174.43</ele><time>2026-08-09T23:25:31Z</time></trkpt><trkpt lat="59.5622606669" lon="34.1850362811"><ele>174.43</ele><time>2026-08-09T23:25:43Z</time></trkpt><trkpt lat="59.5622970443" lon="34.1852782667"><ele>174.43</ele><time>2026-08-09T23:25:55Z</time></trkpt><trkpt lat="59.5622667018" lon="34.1854819469"><ele>174.43</ele><time>2026-08-09T23:26:06Z</time></trkpt><trkpt lat="59.5622449927" lon="34.1856520995"><ele>174.42</ele><time>2026-08-09T23:26:12Z</time></trkpt><trkpt lat="59.5622097049" lon="34.1859208234"><ele>174.42</ele><time>2026-08-09T23:26:22Z</time></trkpt><trkpt lat="59.5622603316" lon="34.1861919779"><ele>174.38</ele><time>2026-08-09T23:26:38Z</time></trkpt><trkpt lat="59.5622511953" lon="34.1866240650"><ele>174.26</ele><time>2026-08-09T23:26:57Z</time></trkpt><trkpt lat="59.5622553024" lon="34.1868673079"><ele>176.46</ele><time>2026-08-09T23:27:08Z</time></trkpt><trkpt lat="59.5622962061" lon="34.1869281605"><ele>176.34</ele><time>2026-08-09T23:27:22Z</time></trkpt><trkpt lat="59.5623159036" lon="34.1869940422"><ele>176.12</ele><time>2026-08-09T23:27:53Z</time></trkpt><trkpt lat="59.5622111298" lon="34.1869218741"><ele>176.00</ele><time>2026-08-09T23:28:15Z</time></trkpt><trkpt lat="59.5621568989" lon="34.1868934594"><ele>175.91</ele><time>2026-08-09T23:28:39Z</time></trkpt><trkpt lat="59.5621073619" lon="34.1868730076"><ele>175.72</ele><time>2026-08-09T23:29:14Z</time></trkpt><trkpt lat="59.5621232875" lon="34.1869101394"><ele>175.61</ele><time>2026-08-09T23:29:39Z</time></trkpt><trkpt lat="59.5621096250" lon="34.1869173478"><ele>175.45</ele><time>2026-08-09T23:30:12Z</time></trkpt><trkpt lat="59.5621323399" lon="34.1869118158"><ele>175.29</ele><time>2026-08-09T23:30:44Z</time></trkpt><trkpt lat="59.5621206891" lon="34.1869075410"><ele>175.15</ele><time>2026-08-09T23:31:21Z</time></trkpt><trkpt lat="59.5621274784" lon="34.1869651247"><ele>175.07</ele><time>2026-08-09T23:32:00Z</time></trkpt><trkpt lat="59.5621451642" lon="34.1869573295"><ele>175.05</ele><time>2026-08-09T23:32:36Z</time></trkpt><trkpt lat="59.5621932764" lon="34.1869677231"><ele>175.01</ele><time>2026-08-09T23:33:12Z</time></trkpt><trkpt lat="59.5621812902" lon="34.1869276576"><ele>171.88</ele><time>2026-08-09T23:33:35Z</time></trkpt><trkpt lat="59.5621802006" lon="34.1869224608"><ele>171.88</ele><time>2026-08-09T23:33:36Z</time></trkpt><trkpt lat="59.5621791948" lon="34.1869187728"><ele>175.19</ele><time>2026-08-09T23:33:37Z</time></trkpt><trkpt lat="59.5621792786" lon="34.1869187728"><ele>175.19</ele><time>2026-08-09T23:33:38Z</time></trkpt><trkpt lat="59.5621406380" lon="34.1868656315"><ele>175.16</ele><time>2026-08-09T23:34:15Z</time></trkpt><trkpt lat="59.5620470122" lon="34.1868213750"><ele>175.06</ele><time>2026-08-09T23:34:44Z</time></trkpt><trkpt lat="59.5620408934" lon="34.1868198663"><ele>174.95</ele><time>2026-08-09T23:35:12Z</time></trkpt><trkpt lat="59.5620534662" lon="34.1867970675"><ele>174.84</ele><time>2026-08-09T23:35:45Z</time></trkpt><trkpt lat="59.5620838925" lon="34.1868060362"><ele>174.74</ele><time>2026-08-09T23:36:23Z</time></trkpt><trkpt lat="59.5621076971" lon="34.1868279967"><ele>174.75</ele><time>2026-08-09T23:36:55Z</time></trkpt><trkpt lat="59.5621865708" lon="34.1869814694"><ele>175.53</ele><time>2026-08-09T23:37:28Z</time></trkpt><trkpt lat="59.5621222816" lon="34.1869332734"><ele>175.65</ele><time>2026-08-09T23:38:05Z</time></trkpt><trkpt lat="59.5622716472" lon="34.1869158391"><ele>175.79</ele><time>2026-08-09T23:38:39Z</time></trkpt><trkpt lat="59.5623336732" lon="34.1868587583"><ele>176.83</ele><time>2026-08-09T23:39:09Z</time></trkpt><trkpt lat="59.5622621756" lon="34.1867958102"><ele>177.02</ele><time>2026-08-09T23:39:29Z</time></trkpt><trkpt lat="59.5621746685" lon="34.1867333651"><ele>177.35</ele><time>2026-08-09T23:39:59Z</time></trkpt><trkpt lat="59.5621515345" lon="34.1868158430"><ele>177.70</ele><time>2026-08-09T23:40:29Z</time></trkpt><trkpt lat="59.5622111298" lon="34.1868228838"><ele>178.05</ele><time>2026-08-09T23:40:57Z</time></trkpt><trkpt lat="59.5622740779" lon="34.1868654639"><ele>178.26</ele><time>2026-08-09T23:41:11Z</time></trkpt><trkpt lat="59.5622953679" lon="34.1868809704"><ele>178.61</ele><time>2026-08-09T23:41:39Z</time></trkpt><trkpt lat="59.5622411370" lon="34.1868155915"><ele>178.95</ele><time>2026-08-09T23:42:05Z</time></trkpt><trkpt lat="59.5622319169" lon="34.1868078802"><ele>179.17</ele><time>2026-08-09T23:42:23Z</time></trkpt><trkpt lat="59.5622757543" lon="34.1868810542"><ele>179.51</ele><time>2026-08-09T23:42:49Z</time></trkpt><trkpt lat="59.5622528717" lon="34.1868399829"><ele>180.02</ele><time>2026-08-09T23:43:24Z</time></trkpt><trkpt lat="59.5622623432" lon="34.1868110653"><ele>180.59</ele><time>2026-08-09T23:44:00Z</time></trkpt><trkpt lat="59.5622334257" lon="34.1868284158"><ele>181.00</ele><time>2026-08-09T23:44:28Z</time></trkpt><trkpt lat="59.5622706413" lon="34.1868562438"><ele>181.61</ele><time>2026-08-09T23:45:07Z</time></trkpt><trkpt lat="59.5622703899" lon="34.1868719179"><ele>182.14</ele><time>2026-08-09T23:45:37Z</time></trkpt><trkpt lat="59.5622631814" lon="34.1868626140"><ele>182.85</ele><time>2026-08-09T23:46:20Z</time></trkpt><trkpt lat="59.5623111259" lon="34.1869044397"><ele>183.48</ele><time>2026-08-09T23:46:58Z</time></trkpt><trkpt lat="59.5623117127" lon="34.1868547350"><ele>183.97</ele><time>2026-08-09T23:47:29Z</time></trkpt><trkpt lat="59.5623455755" lon="34.1869330220"><ele>184.56</ele><time>2026-08-09T23:48:14Z</time></trkpt><trkpt lat="59.5623398758" lon="34.1869353689"><ele>184.99</ele><time>2026-08-09T23:48:46Z</time></trkpt><trkpt lat="59.5623543765" lon="34.1867461894"><ele>185.15</ele><time>2026-08-09T23:49:00Z</time></trkpt><trkpt lat="59.5623552147" lon="34.1867069621"><ele>185.18</ele><time>2026-08-09T23:49:03Z</time></trkpt><trkpt lat="59.5623149816" lon="34.1864885297"><ele>185.29</ele><time>2026-08-09T23:49:14Z</time></trkpt><trkpt lat="59.5623064321" lon="34.1864037886"><ele>185.33</ele><time>2026-08-09T23:49:18Z</time></trkpt><trkpt lat="59.5623125508" lon="34.1862000246"><ele>185.40</ele><time>2026-08-09T23:49:26Z</time></trkpt><trkpt lat="59.5622784365" lon="34.1860902216"><ele>185.43</ele><time>2026-08-09T23:49:29Z</time></trkpt><trkpt lat="59.5622554701" lon="34.1860149521"><ele>183.07</ele><time>2026-08-09T23:49:32Z</time></trkpt><trkpt lat="59.5622686297" lon="34.1857169755"><ele>182.20</ele><time>2026-08-09T23:49:47Z</time></trkpt><trkpt lat="59.5623212680" lon="34.1854050849"><ele>181.53</ele><time>2026-08-09T23:50:04Z</time></trkpt><trkpt lat="59.5623837132" lon="34.1854662728"><ele>180.74</ele><time>2026-08-09T23:50:16Z</time></trkpt><trkpt lat="59.5624658559" lon="34.1855978686"><ele>179.90</ele><time>2026-08-09T23:50:31Z</time></trkpt><trkpt lat="59.5624759141" lon="34.1856322344"><ele>179.91</ele><time>2026-08-09T23:50:45Z</time></trkpt><trkpt lat="59.5625203382" lon="34.1855882294"><ele>179.87</ele><time>2026-08-09T23:51:10Z</time></trkpt><trkpt lat="59.5625795983" lon="34.1855275445"><ele>179.83</ele><time>2026-08-09T23:51:31Z</time></trkpt><trkpt lat="59.5626388583" lon="34.1854995489"><ele>182.15</ele><time>2026-08-09T23:51:44Z</time></trkpt><trkpt lat="59.5626544487" lon="34.1853594035"><ele>182.08</ele><time>2026-08-09T23:52:06Z</time></trkpt><trkpt lat="59.5626404509" lon="34.1852368601"><ele>182.92</ele><time>2026-08-09T23:52:26Z</time></trkpt><trkpt lat="59.5626137964" lon="34.1851218604"><ele>183.62</ele><time>2026-08-09T23:52:41Z</time></trkpt><trkpt lat="59.5625972841" lon="34.1850408912"><ele>183.58</ele><time>2026-08-09T23:53:04Z</time></trkpt><trkpt lat="59.5626313146" lon="34.1851830482"><ele>184.34</ele><time>2026-08-09T23:53:23Z</time></trkpt><trkpt lat="59.5626331586" lon="34.1852843016"><ele>184.26</ele><time>2026-08-09T23:53:41Z</time></trkpt><trkpt lat="59.5625778381" lon="34.1853577271"><ele>184.24</ele><time>2026-08-09T23:54:01Z</time></trkpt><trkpt lat="59.5624775067" lon="34.1853780951"><ele>184.16</ele><time>2026-08-09T23:54:17Z</time></trkpt><trkpt lat="59.5624509361" lon="34.1854925919"><ele>184.08</ele><time>2026-08-09T23:54:44Z</time></trkpt><trkpt lat="59.5624510199" lon="34.1855054162"><ele>184.07</ele><time>2026-08-09T23:54:46Z</time></trkpt><trkpt lat="59.5624571387" lon="34.1856577154"><ele>183.99</ele><time>2026-08-09T23:55:06Z</time></trkpt><trkpt lat="59.5624604914" lon="34.1856583860"><ele>181.61</ele><time>2026-08-09T23:55:08Z</time></trkpt><trkpt lat="59.5625821967" lon="34.1856510937"><ele>183.13</ele><time>2026-08-09T23:55:27Z</time></trkpt><trkpt lat="59.5626728050" lon="34.1856263671"><ele>183.08</ele><time>2026-08-09T23:55:41Z</time></trkpt><trkpt lat="59.5627531037" lon="34.1855810210"><ele>183.01</ele><time>2026-08-09T23:55:53Z</time></trkpt><trkpt lat="59.5627578814" lon="34.1854511015"><ele>182.97</ele><time>2026-08-09T23:56:15Z</time></trkpt><trkpt lat="59.5627150498" lon="34.1853977088"><ele>182.93</ele><time>2026-08-09T23:56:42Z</time></trkpt><trkpt lat="59.5626563765" lon="34.1854047496"><ele>182.93</ele><time>2026-08-09T23:57:02Z</time></trkpt><trkpt lat="59.5626017265" lon="34.1853877343"><ele>182.90</ele><time>2026-08-09T23:57:26Z</time></trkpt><trkpt lat="59.5625704620" lon="34.1853515245"><ele>182.88</ele><time>2026-08-09T23:57:48Z</time></trkpt><trkpt lat="59.5626187418" lon="34.1853734851"><ele>182.82</ele><time>2026-08-09T23:58:12Z</time></trkpt><trkpt lat="59.5626346674" lon="34.1854868922"><ele>183.80</ele><time>2026-08-09T23:58:34Z</time></trkpt><trkpt lat="59.5626156405" lon="34.1855604853"><ele>183.76</ele><time>2026-08-09T23:58:47Z</time></trkpt><trkpt lat="59.5626046602" lon="34.1857038159"><ele>183.69</ele><time>2026-08-09T23:59:07Z</time></trkpt><trkpt lat="59.5626272075" lon="34.1858337354"><ele>183.63</ele><time>2026-08-09T23:59:29Z</time></trkpt><trkpt lat="59.5626978669" lon="34.1859665886"><ele>183.60</ele><time>2026-08-09T23:59:47Z</time></trkpt><trkpt lat="59.5627694484" lon="34.1860714462"><ele>183.54</ele><time>2026-08-10T00:00:08Z</time></trkpt><trkpt lat="59.5628108550" lon="34.1861909721"><ele>183.51</ele><time>2026-08-10T00:00:28Z</time></trkpt><trkpt lat="59.5628508367" lon="34.1863141861"><ele>183.46</ele><time>2026-08-10T00:00:47Z</time></trkpt><trkpt lat="59.5628287084" lon="34.1864221450"><ele>183.42</ele><time>2026-08-10T00:01:01Z</time></trkpt><trkpt lat="59.5628275350" lon="34.1864985880"><ele>183.39</ele><time>2026-08-10T00:01:08Z</time></trkpt><trkpt lat="59.5628968533" lon="34.1866157670"><ele>183.33</ele><time>2026-08-10T00:01:30Z</time></trkpt><trkpt lat="59.5629028045" lon="34.1867151763"><ele>183.29</ele><time>2026-08-10T00:01:46Z</time></trkpt><trkpt lat="59.5628555305" lon="34.1869680583"><ele>183.94</ele><time>2026-08-10T00:02:08Z</time></trkpt><trkpt lat="59.5627563726" lon="34.1870135721"><ele>184.70</ele><time>2026-08-10T00:02:21Z</time></trkpt><trkpt lat="59.5626876410" lon="34.1870191880"><ele>184.63</ele><time>2026-08-10T00:02:33Z</time></trkpt><trkpt lat="59.5626353379" lon="34.1870308388"><ele>184.58</ele><time>2026-08-10T00:02:48Z</time></trkpt><trkpt lat="59.5625091065" lon="34.1870070342"><ele>184.55</ele><time>2026-08-10T00:03:04Z</time></trkpt><trkpt lat="59.5623369422" lon="34.1870111413"><ele>184.50</ele><time>2026-08-10T00:03:19Z</time></trkpt><trkpt lat="59.5622116327" lon="34.1869961377"><ele>184.40</ele><time>2026-08-10T00:03:34Z</time></trkpt><trkpt lat="59.5621814579" lon="34.1869538091"><ele>184.32</ele><time>2026-08-10T00:04:00Z</time></trkpt><trkpt lat="59.5621815417" lon="34.1869466845"><ele>184.26</ele><time>2026-08-10T00:04:18Z</time></trkpt><trkpt lat="59.5621788595" lon="34.1869157553"><ele>184.18</ele><time>2026-08-10T00:04:44Z</time></trkpt><trkpt lat="59.5621852297" lon="34.1869172640"><ele>184.13</ele><time>2026-08-10T00:05:26Z</time></trkpt><trkpt lat="59.5621937793" lon="34.1869409848"><ele>184.16</ele><time>2026-08-10T00:06:17Z</time></trkpt><trkpt lat="59.5621953718" lon="34.1869118996"><ele>184.20</ele><time>2026-08-10T00:06:56Z</time></trkpt><trkpt lat="59.5621739142" lon="34.1868837364"><ele>184.26</ele><time>2026-08-10T00:07:42Z</time></trkpt><trkpt lat="59.5621478464" lon="34.1868655477"><ele>184.36</ele><time>2026-08-10T00:08:21Z</time></trkpt><trkpt lat="59.5621525403" lon="34.1868928727"><ele>184.55</ele><time>2026-08-10T00:09:20Z</time></trkpt><trkpt lat="59.5621511992" lon="34.1868738458"><ele>184.76</ele><time>2026-08-10T00:10:20Z</time></trkpt><trkpt lat="59.5621292386" lon="34.1868142504"><ele>184.89</ele><time>2026-08-10T00:10:56Z</time></trkpt><trkpt lat="59.5621809550" lon="34.1868284997"><ele>185.06</ele><time>2026-08-10T00:11:40Z</time></trkpt><trkpt lat="59.5622568112" lon="34.1868974827"><ele>185.11</ele><time>2026-08-10T00:11:53Z</time></trkpt><trkpt lat="59.5622668695" lon="34.1869197786"><ele>185.11</ele><time>2026-08-10T00:11:55Z</time></trkpt><trkpt lat="59.5622818731" lon="34.1870586667"><ele>185.16</ele><time>2026-08-10T00:12:09Z</time></trkpt><trkpt lat="59.5623060968" lon="34.1871507838"><ele>185.27</ele><time>2026-08-10T00:12:43Z</time></trkpt><trkpt lat="59.5623255428" lon="34.1871480178"><ele>185.29</ele><time>2026-08-10T00:12:48Z</time></trkpt><trkpt lat="59.5625093579" lon="34.1871394683"><ele>185.31</ele><time>2026-08-10T00:13:01Z</time></trkpt><trkpt lat="59.5625656005" lon="34.1871258058"><ele>185.34</ele><time>2026-08-10T00:13:07Z</time></trkpt><trkpt lat="59.5627167262" lon="34.1871629376"><ele>185.36</ele><time>2026-08-10T00:13:20Z</time></trkpt><trkpt lat="59.5629320573" lon="34.1871745884"><ele>185.36</ele><time>2026-08-10T00:13:36Z</time></trkpt><trkpt lat="59.5630665030" lon="34.1872198507"><ele>185.33</ele><time>2026-08-10T00:13:48Z</time></trkpt><trkpt lat="59.5632275194" lon="34.1871965490"><ele>185.27</ele><time>2026-08-10T00:14:06Z</time></trkpt><trkpt lat="59.5634171180" lon="34.1872667056"><ele>185.17</ele><time>2026-08-10T00:14:23Z</time></trkpt><trkpt lat="59.5636197086" lon="34.1873334255"><ele>185.09</ele><time>2026-08-10T00:14:39Z</time></trkpt><trkpt lat="59.5637173578" lon="34.1873610020"><ele>182.71</ele><time>2026-08-10T00:14:50Z</time></trkpt><trkpt lat="59.5638877619" lon="34.1875390336"><ele>182.68</ele><time>2026-08-10T00:15:07Z</time></trkpt><trkpt lat="59.5640414860" lon="34.1875165701"><ele>182.66</ele><time>2026-08-10T00:15:23Z</time></trkpt><trkpt lat="59.5641777758" lon="34.1875701305"><ele>182.66</ele><time>2026-08-10T00:15:35Z</time></trkpt><trkpt lat="59.5643732417" lon="34.1876188293"><ele>182.61</ele><time>2026-08-10T00:15:50Z</time></trkpt><trkpt lat="59.5645689592" lon="34.1875504330"><ele>182.57</ele><time>2026-08-10T00:16:06Z</time></trkpt><trkpt lat="59.5645822864" lon="34.1875456553"><ele>182.55</ele><time>2026-08-10T00:16:07Z</time></trkpt><trkpt lat="59.5647406206" lon="34.1875462420"><ele>181.70</ele><time>2026-08-10T00:16:20Z</time></trkpt><trkpt lat="59.5649683569" lon="34.1875072662"><ele>181.59</ele><time>2026-08-10T00:16:38Z</time></trkpt><trkpt lat="59.5651623979" lon="34.1874868982"><ele>179.77</ele><time>2026-08-10T00:16:57Z</time></trkpt><trkpt lat="59.5653144456" lon="34.1875886545"><ele>178.87</ele><time>2026-08-10T00:17:13Z</time></trkpt><trkpt lat="59.5654903818" lon="34.1876275465"><ele>178.82</ele><time>2026-08-10T00:17:29Z</time></trkpt><trkpt lat="59.5654943213" lon="34.1876338329"><ele>178.82</ele><time>2026-08-10T00:17:30Z</time></trkpt><trkpt lat="59.5656790584" lon="34.1875915043"><ele>178.80</ele><time>2026-08-10T00:17:51Z</time></trkpt><trkpt lat="59.5656995103" lon="34.1875840444"><ele>178.77</ele><time>2026-08-10T00:17:53Z</time></trkpt><trkpt lat="59.5658135042" lon="34.1875134688"><ele>178.72</ele><time>2026-08-10T00:18:06Z</time></trkpt><trkpt lat="59.5658775419" lon="34.1874527000"><ele>178.72</ele><time>2026-08-10T00:18:12Z</time></trkpt><trkpt lat="59.5659611095" lon="34.1873946972"><ele>177.93</ele><time>2026-08-10T00:18:24Z</time></trkpt><trkpt lat="59.5659826510" lon="34.1873921826"><ele>177.91</ele><time>2026-08-10T00:18:42Z</time></trkpt><trkpt lat="59.5659773704" lon="34.1874074377"><ele>177.89</ele><time>2026-08-10T00:19:24Z</time></trkpt><trkpt lat="59.5659540687" lon="34.1873936076"><ele>177.87</ele><time>2026-08-10T00:20:16Z</time></trkpt><trkpt lat="59.5659839083" lon="34.1873896681"><ele>177.83</ele><time>2026-08-10T00:21:06Z</time></trkpt><trkpt lat="59.5659548230" lon="34.1874081921"><ele>177.79</ele><time>2026-08-10T00:22:01Z</time></trkpt><trkpt lat="59.5659538172" lon="34.1874089465"><ele>177.78</ele><time>2026-08-10T00:22:29Z</time></trkpt><trkpt lat="59.5659160987" lon="34.1875281371"><ele>165.36</ele><time>2026-08-10T00:27:01Z</time></trkpt><trkpt lat="59.5659583434" lon="34.1874731518"><ele>168.60</ele><time>2026-08-10T00:27:10Z</time></trkpt></trkseg><trkseg><trkpt lat="60.1480202470" lon="32.5506986026"><ele>27.99</ele><time>2026-08-10T06:59:58Z</time></trkpt><trkpt lat="60.1479391102" lon="32.5508235767"><ele>30.04</ele><time>2026-08-10T07:05:28Z</time></trkpt><trkpt lat="60.1480167266" lon="32.5506462157"><ele>29.97</ele><time>2026-08-10T07:06:11Z</time></trkpt><trkpt lat="60.1480729692" lon="32.5510777161"><ele>29.94</ele><time>2026-08-10T07:06:29Z</time></trkpt><trkpt lat="60.1482011285" lon="32.5520486757"><ele>29.91</ele><time>2026-08-10T07:06:58Z</time></trkpt><trkpt lat="60.1481774915" lon="32.5518382061"><ele>29.89</ele><time>2026-08-10T07:07:10Z</time></trkpt><trkpt lat="60.1481499989" lon="32.5516880862"><ele>29.90</ele><time>2026-08-10T07:07:17Z</time></trkpt><trkpt lat="60.1480846200" lon="32.5511463638"><ele>29.70</ele><time>2026-08-10T07:08:28Z</time></trkpt><trkpt lat="60.1480809320" lon="32.5507957488"><ele>29.07</ele><time>2026-08-10T07:12:57Z</time></trkpt><trkpt lat="60.1480287127" lon="32.5507747103"><ele>28.94</ele><time>2026-08-10T07:13:24Z</time></trkpt><trkpt lat="60.1480462309" lon="32.5508116744"><ele>28.78</ele><time>2026-08-10T07:14:01Z</time></trkpt><trkpt lat="60.1480665989" lon="32.5508441124"><ele>28.61</ele><time>2026-08-10T07:14:31Z</time></trkpt><trkpt lat="60.1480371784" lon="32.5507046375"><ele>28.55</ele><time>2026-08-10T07:19:33Z</time></trkpt><trkpt lat="60.1480235159" lon="32.5507338066"><ele>28.37</ele><time>2026-08-10T07:23:53Z</time></trkpt><trkpt lat="60.1480343286" lon="32.5508731976"><ele>28.34</ele><time>2026-08-10T07:24:43Z</time></trkpt><trkpt lat="60.1480119489" lon="32.5507945754"><ele>28.24</ele><time>2026-08-10T07:26:30Z</time></trkpt><trkpt lat="60.1480801776" lon="32.5508012809"><ele>27.76</ele><time>2026-08-10T07:30:56Z</time></trkpt><trkpt lat="60.1480777469" lon="32.5507715251"><ele>27.76</ele><time>2026-08-10T07:31:00Z</time></trkpt><trkpt lat="60.1480279583" lon="32.5508442800"><ele>27.66</ele><time>2026-08-10T07:31:32Z</time></trkpt><trkpt lat="60.1480660960" lon="32.5509261712"><ele>28.41</ele><time>2026-08-10T07:32:28Z</time></trkpt><trkpt lat="60.1479945984" lon="32.5507427752"><ele>28.29</ele><time>2026-08-10T07:35:10Z</time></trkpt><trkpt lat="60.1479970291" lon="32.5508216489"><ele>28.28</ele><time>2026-08-10T07:35:40Z</time></trkpt><trkpt lat="60.1479544491" lon="32.5507873669"><ele>28.27</ele><time>2026-08-10T07:36:06Z</time></trkpt><trkpt lat="60.1478650142" lon="32.5508742034"><ele>29.10</ele><time>2026-08-10T07:43:15Z</time></trkpt><trkpt lat="60.1478844602" lon="32.5507726148"><ele>29.11</ele><time>2026-08-10T07:43:26Z</time></trkpt><trkpt lat="60.1479402836" lon="32.5509141851"><ele>29.12</ele><time>2026-08-10T07:45:27Z</time></trkpt><trkpt lat="60.1479235198" lon="32.5508918893"><ele>29.13</ele><time>2026-08-10T07:45:31Z</time></trkpt><trkpt lat="60.1480969414" lon="32.5506403483"><ele>29.29</ele><time>2026-08-10T07:47:20Z</time></trkpt><trkpt lat="60.1480457280" lon="32.5505828485"><ele>29.30</ele><time>2026-08-10T07:47:26Z</time></trkpt><trkpt lat="60.1481069159" lon="32.5505173858"><ele>29.36</ele><time>2026-08-10T07:47:48Z</time></trkpt><trkpt lat="60.1481251884" lon="32.5505185593"><ele>29.36</ele><time>2026-08-10T07:47:51Z</time></trkpt><trkpt lat="60.1480627432" lon="32.5509280153"><ele>29.78</ele><time>2026-08-10T07:49:58Z</time></trkpt><trkpt lat="60.1481438801" lon="32.5509461202"><ele>29.83</ele><time>2026-08-10T07:50:05Z</time></trkpt><trkpt lat="60.1480180677" lon="32.5505465548"><ele>30.11</ele><time>2026-08-10T07:51:27Z</time></trkpt><trkpt lat="60.1481763180" lon="32.5509300269"><ele>30.36</ele><time>2026-08-10T07:53:30Z</time></trkpt><trkpt lat="60.1481061615" lon="32.5510506425"><ele>31.19</ele><time>2026-08-10T07:54:19Z</time></trkpt><trkpt lat="60.1480759028" lon="32.5506569445"><ele>30.99</ele><time>2026-08-10T07:56:10Z</time></trkpt><trkpt lat="60.1481085084" lon="32.5507524982"><ele>30.91</ele><time>2026-08-10T07:56:39Z</time></trkpt><trkpt lat="60.1481382642" lon="32.5507324655"><ele>30.90</ele><time>2026-08-10T07:56:47Z</time></trkpt><trkpt lat="60.1480408665" lon="32.5510179531"><ele>30.70</ele><time>2026-08-10T07:58:07Z</time></trkpt><trkpt lat="60.1480358373" lon="32.5509150233"><ele>30.64</ele><time>2026-08-10T07:58:22Z</time></trkpt><trkpt lat="60.1481096819" lon="32.5511679053"><ele>30.19</ele><time>2026-08-10T08:00:42Z</time></trkpt><trkpt lat="60.1481505856" lon="32.5513256527"><ele>30.17</ele><time>2026-08-10T08:00:50Z</time></trkpt><trkpt lat="60.1481531840" lon="32.5514050294"><ele>30.15</ele><time>2026-08-10T08:00:57Z</time></trkpt></trkseg><trkseg><trkpt lat="60.1481054910" lon="32.5513157621"><ele>20.76</ele><time>2026-08-10T12:06:34Z</time></trkpt><trkpt lat="60.1481846161" lon="32.5512985792"><ele>17.73</ele><time>2026-08-10T12:08:34Z</time></trkpt><trkpt lat="60.1481853705" lon="32.5510987546"><ele>14.71</ele><time>2026-08-10T12:10:13Z</time></trkpt><trkpt lat="60.1481332351" lon="32.5511444360"><ele>11.71</ele><time>2026-08-10T12:12:45Z</time></trkpt><trkpt lat="60.1479956042" lon="32.5509300269"><ele>10.59</ele><time>2026-08-10T12:13:47Z</time></trkpt><trkpt lat="60.1480168104" lon="32.5510754529"><ele>10.48</ele><time>2026-08-10T12:13:53Z</time></trkpt><trkpt lat="60.1480180677" lon="32.5512055401"><ele>9.86</ele><time>2026-08-10T12:14:26Z</time></trkpt><trkpt lat="60.1481385157" lon="32.5511263311"><ele>6.84</ele><time>2026-08-10T12:17:26Z</time></trkpt><trkpt lat="60.1480538584" lon="32.5508970860"><ele>5.14</ele><time>2026-08-10T12:19:09Z</time></trkpt><trkpt lat="60.1481036469" lon="32.5511565059"><ele>3.87</ele><time>2026-08-10T12:20:37Z</time></trkpt><trkpt lat="60.1480199955" lon="32.5510342140"><ele>4.73</ele><time>2026-08-10T12:23:25Z</time></trkpt><trkpt lat="60.1480637491" lon="32.5510833319"><ele>3.49</ele><time>2026-08-10T12:29:24Z</time></trkpt><trkpt lat="60.1480648387" lon="32.5510679092"><ele>4.10</ele><time>2026-08-10T12:29:58Z</time></trkpt><trkpt lat="60.1480654255" lon="32.5510463677"><ele>3.76</ele><time>2026-08-10T12:31:26Z</time></trkpt><trkpt lat="60.1479867194" lon="32.5508728623"><ele>3.69</ele><time>2026-08-10T12:31:45Z</time></trkpt><trkpt lat="60.1480745617" lon="32.5511121657"><ele>3.44</ele><time>2026-08-10T12:33:18Z</time></trkpt><trkpt lat="60.1480266172" lon="32.5509700924"><ele>3.32</ele><time>2026-08-10T12:34:08Z</time></trkpt><trkpt lat="60.1481403597" lon="32.5509405881"><ele>3.17</ele><time>2026-08-10T12:37:21Z</time></trkpt><trkpt lat="60.1480951812" lon="32.5509213936"><ele>3.20</ele><time>2026-08-10T12:37:49Z</time></trkpt><trkpt lat="60.1480747294" lon="32.5508521590"><ele>3.33</ele><time>2026-08-10T12:38:28Z</time></trkpt><trkpt lat="60.1480446383" lon="32.5507142767"><ele>3.50</ele><time>2026-08-10T12:39:03Z</time></trkpt><trkpt lat="60.1480610669" lon="32.5507126842"><ele>3.70</ele><time>2026-08-10T12:39:35Z</time></trkpt><trkpt lat="60.1480494160" lon="32.5507006142"><ele>4.13</ele><time>2026-08-10T12:40:29Z</time></trkpt><trkpt lat="60.1480192412" lon="32.5506538432"><ele>4.39</ele><time>2026-08-10T12:40:59Z</time></trkpt><trkpt lat="60.1479499228" lon="32.5508692581"><ele>5.43</ele><time>2026-08-10T12:43:00Z</time></trkpt><trkpt lat="60.1480262820" lon="32.5507928152"><ele>8.19</ele><time>2026-08-10T12:48:17Z</time></trkpt><trkpt lat="60.1480179001" lon="32.5507622212"><ele>8.22</ele><time>2026-08-10T12:48:19Z</time></trkpt><trkpt lat="60.1480130386" lon="32.5507760514"><ele>9.75</ele><time>2026-08-10T12:49:23Z</time></trkpt><trkpt lat="60.1479836181" lon="32.5507158693"><ele>10.12</ele><time>2026-08-10T12:50:06Z</time></trkpt><trkpt lat="60.1480253600" lon="32.5507126004"><ele>10.44</ele><time>2026-08-10T12:50:41Z</time></trkpt><trkpt lat="60.1479875576" lon="32.5506983511"><ele>11.02</ele><time>2026-08-10T12:51:42Z</time></trkpt><trkpt lat="60.1479999628" lon="32.5506291166"><ele>11.50</ele><time>2026-08-10T12:52:25Z</time></trkpt><trkpt lat="60.1479370147" lon="32.5505715329"><ele>11.83</ele><time>2026-08-10T12:52:57Z</time></trkpt><trkpt lat="60.1479390264" lon="32.5505823456"><ele>12.18</ele><time>2026-08-10T12:53:28Z</time></trkpt><trkpt lat="60.1479806006" lon="32.5505921524"><ele>12.89</ele><time>2026-08-10T12:54:40Z</time></trkpt><trkpt lat="60.1480108593" lon="32.5505766459"><ele>14.00</ele><time>2026-08-10T12:56:47Z</time></trkpt><trkpt lat="60.1480282098" lon="32.5506255962"><ele>14.16</ele><time>2026-08-10T12:57:05Z</time></trkpt><trkpt lat="60.1480189059" lon="32.5505438726"><ele>14.30</ele><time>2026-08-10T12:57:25Z</time></trkpt><trkpt lat="60.1479577180" lon="32.5504842773"><ele>16.35</ele><time>2026-08-10T12:59:26Z</time></trkpt><trkpt lat="60.1479304768" lon="32.5504442956"><ele>17.02</ele><time>2026-08-10T13:00:18Z</time></trkpt><trkpt lat="60.1479494199" lon="32.5505359098"><ele>17.31</ele><time>2026-08-10T13:00:39Z</time></trkpt><trkpt lat="60.1479719672" lon="32.5506106764"><ele>17.57</ele><time>2026-08-10T13:00:59Z</time></trkpt><trkpt lat="60.1479659323" lon="32.5504872948"><ele>17.76</ele><time>2026-08-10T13:01:13Z</time></trkpt><trkpt lat="60.1479614060" lon="32.5505428668"><ele>18.02</ele><time>2026-08-10T13:01:33Z</time></trkpt><trkpt lat="60.1479861327" lon="32.5505836029"><ele>18.26</ele><time>2026-08-10T13:01:50Z</time></trkpt><trkpt lat="60.1479846239" lon="32.5505079981"><ele>18.48</ele><time>2026-08-10T13:02:06Z</time></trkpt><trkpt lat="60.1479534432" lon="32.5503996201"><ele>18.69</ele><time>2026-08-10T13:02:23Z</time></trkpt><trkpt lat="60.1479564607" lon="32.5505272765"><ele>19.01</ele><time>2026-08-10T13:02:51Z</time></trkpt><trkpt lat="60.1479619090" lon="32.5505539309"><ele>19.18</ele><time>2026-08-10T13:03:08Z</time></trkpt><trkpt lat="60.1479256991" lon="32.5505753886"><ele>19.36</ele><time>2026-08-10T13:03:26Z</time></trkpt><trkpt lat="60.1480124518" lon="32.5506680924"><ele>19.81</ele><time>2026-08-10T13:04:14Z</time></trkpt><trkpt lat="60.1479770802" lon="32.5506429467"><ele>20.46</ele><time>2026-08-10T13:06:22Z</time></trkpt><trkpt lat="60.1479871385" lon="32.5504909828"><ele>22.11</ele><time>2026-08-10T13:10:41Z</time></trkpt><trkpt lat="60.1480530202" lon="32.5506325532"><ele>22.53</ele><time>2026-08-10T13:11:49Z</time></trkpt><trkpt lat="60.1480443869" lon="32.5506371632"><ele>22.69</ele><time>2026-08-10T13:12:25Z</time></trkpt><trkpt lat="60.1480453927" lon="32.5506778993"><ele>22.76</ele><time>2026-08-10T13:12:47Z</time></trkpt><trkpt lat="60.1480628271" lon="32.5506714452"><ele>22.99</ele><time>2026-08-10T13:13:52Z</time></trkpt><trkpt lat="60.1479825284" lon="32.5507025421"><ele>23.21</ele><time>2026-08-10T13:15:03Z</time></trkpt><trkpt lat="60.1480028126" lon="32.5505405199"><ele>23.60</ele><time>2026-08-10T13:19:56Z</time></trkpt><trkpt lat="60.1480316464" lon="32.5506413542"><ele>23.00</ele><time>2026-08-10T13:23:44Z</time></trkpt><trkpt lat="60.1480525173" lon="32.5507738721"><ele>22.88</ele><time>2026-08-10T13:24:05Z</time></trkpt><trkpt lat="60.1480711251" lon="32.5508703478"><ele>22.76</ele><time>2026-08-10T13:24:36Z</time></trkpt><trkpt lat="60.1480596419" lon="32.5507851876"><ele>22.63</ele><time>2026-08-10T13:25:09Z</time></trkpt><trkpt lat="60.1480749808" lon="32.5508899614"><ele>22.49</ele><time>2026-08-10T13:25:44Z</time></trkpt><trkpt lat="60.1480886433" lon="32.5508470461"><ele>22.40</ele><time>2026-08-10T13:26:14Z</time></trkpt><trkpt lat="60.1480932534" lon="32.5507782307"><ele>22.28</ele><time>2026-08-10T13:26:48Z</time></trkpt><trkpt lat="60.1480489969" lon="32.5507688429"><ele>22.16</ele><time>2026-08-10T13:27:20Z</time></trkpt><trkpt lat="60.1480405312" lon="32.5507375784"><ele>22.05</ele><time>2026-08-10T13:27:52Z</time></trkpt><trkpt lat="60.1480454765" lon="32.5507581979"><ele>21.94</ele><time>2026-08-10T13:28:28Z</time></trkpt><trkpt lat="60.1480290480" lon="32.5507652387"><ele>21.79</ele><time>2026-08-10T13:29:06Z</time></trkpt><trkpt lat="60.1480556186" lon="32.5506893825"><ele>21.61</ele><time>2026-08-10T13:29:57Z</time></trkpt><trkpt lat="60.1481172256" lon="32.5506668352"><ele>20.38</ele><time>2026-08-10T13:33:41Z</time></trkpt><trkpt lat="60.1480021421" lon="32.5509164482"><ele>19.55</ele><time>2026-08-10T13:35:57Z</time></trkpt><trkpt lat="60.1479959395" lon="32.5510686636"><ele>19.08</ele><time>2026-08-10T13:37:19Z</time></trkpt><trkpt lat="60.1479985379" lon="32.5508239958"><ele>18.93</ele><time>2026-08-10T13:37:46Z</time></trkpt><trkpt lat="60.1480673533" lon="32.5509142689"><ele>18.39</ele><time>2026-08-10T13:39:55Z</time></trkpt><trkpt lat="60.1480751485" lon="32.5508403406"><ele>18.07</ele><time>2026-08-10T13:41:12Z</time></trkpt><trkpt lat="60.1480971090" lon="32.5508516561"><ele>17.97</ele><time>2026-08-10T13:41:41Z</time></trkpt><trkpt lat="60.1480412856" lon="32.5508453697"><ele>17.84</ele><time>2026-08-10T13:42:20Z</time></trkpt><trkpt lat="60.1480145473" lon="32.5508085731"><ele>17.73</ele><time>2026-08-10T13:42:52Z</time></trkpt><trkpt lat="60.1479742303" lon="32.5507692620"><ele>17.65</ele><time>2026-08-10T13:46:54Z</time></trkpt><trkpt lat="60.1479985379" lon="32.5508567691"><ele>17.43</ele><time>2026-08-10T13:47:56Z</time></trkpt><trkpt lat="60.1480003819" lon="32.5507758837"><ele>17.32</ele><time>2026-08-10T13:48:27Z</time></trkpt><trkpt lat="60.1480667666" lon="32.5508504827"><ele>16.87</ele><time>2026-08-10T13:50:36Z</time></trkpt><trkpt lat="60.1480739750" lon="32.5507673342"><ele>16.67</ele><time>2026-08-10T13:51:33Z</time></trkpt><trkpt lat="60.1482200716" lon="32.5506338943"><ele>16.85</ele><time>2026-08-10T13:57:40Z</time></trkpt><trkpt lat="60.1479745656" lon="32.5509363133"><ele>16.59</ele><time>2026-08-10T13:59:35Z</time></trkpt><trkpt lat="60.1479480788" lon="32.5509850960"><ele>16.57</ele><time>2026-08-10T13:59:51Z</time></trkpt><trkpt lat="60.1480147149" lon="32.5507761352"><ele>16.24</ele><time>2026-08-10T14:02:50Z</time></trkpt><trkpt lat="60.1478776708" lon="32.5504903961"><ele>15.70</ele><time>2026-08-10T14:05:59Z</time></trkpt><trkpt lat="60.1480229292" lon="32.5507196411"><ele>15.60</ele><time>2026-08-10T14:06:24Z</time></trkpt><trkpt lat="60.1480738912" lon="32.5508623011"><ele>16.06</ele><time>2026-08-10T14:09:16Z</time></trkpt><trkpt lat="60.1481221709" lon="32.5509110000"><ele>16.00</ele><time>2026-08-10T14:09:41Z</time></trkpt><trkpt lat="60.1481856219" lon="32.5508784782"><ele>15.92</ele><time>2026-08-10T14:10:34Z</time></trkpt><trkpt lat="60.1481353305" lon="32.5508626364"><ele>16.70</ele><time>2026-08-10T14:11:05Z</time></trkpt><trkpt lat="60.1480743103" lon="32.5507183000"><ele>16.68</ele><time>2026-08-10T14:12:08Z</time></trkpt><trkpt lat="60.1483437885" lon="32.5509791449"><ele>16.73</ele><time>2026-08-10T14:13:19Z</time></trkpt><trkpt lat="60.1481499150" lon="32.5507767219"><ele>16.77</ele><time>2026-08-10T14:14:21Z</time></trkpt><trkpt lat="60.1482772361" lon="32.5508403406"><ele>16.79</ele><time>2026-08-10T14:14:35Z</time></trkpt><trkpt lat="60.1480295509" lon="32.5508365687"><ele>16.53</ele><time>2026-08-10T14:17:10Z</time></trkpt><trkpt lat="60.1480300538" lon="32.5509835035"><ele>16.28</ele><time>2026-08-10T14:18:51Z</time></trkpt><trkpt lat="60.1480525173" lon="32.5508857705"><ele>16.20</ele><time>2026-08-10T14:19:12Z</time></trkpt><trkpt lat="60.1480179001" lon="32.5508890394"><ele>16.11</ele><time>2026-08-10T14:19:39Z</time></trkpt><trkpt lat="60.1480500028" lon="32.5509193819"><ele>16.83</ele><time>2026-08-10T14:20:10Z</time></trkpt><trkpt lat="60.1480170619" lon="32.5509080663"><ele>16.65</ele><time>2026-08-10T14:20:52Z</time></trkpt><trkpt lat="60.1480012201" lon="32.5508913025"><ele>16.59</ele><time>2026-08-10T14:21:17Z</time></trkpt><trkpt lat="60.1480617374" lon="32.5509970821"><ele>16.49</ele><time>2026-08-10T14:21:51Z</time></trkpt><trkpt lat="60.1480362564" lon="32.5509480480"><ele>16.48</ele><time>2026-08-10T14:21:58Z</time></trkpt><trkpt lat="60.1479707099" lon="32.5506898854"><ele>16.34</ele><time>2026-08-10T14:22:35Z</time></trkpt><trkpt lat="60.1479772478" lon="32.5507410150"><ele>16.26</ele><time>2026-08-10T14:23:06Z</time></trkpt><trkpt lat="60.1480094343" lon="32.5507949945"><ele>16.20</ele><time>2026-08-10T14:23:28Z</time></trkpt><trkpt lat="60.1480503380" lon="32.5509527419"><ele>15.64</ele><time>2026-08-10T14:25:56Z</time></trkpt><trkpt lat="60.1480412856" lon="32.5509386603"><ele>15.51</ele><time>2026-08-10T14:26:23Z</time></trkpt><trkpt lat="60.1480530202" lon="32.5509598665"><ele>15.42</ele><time>2026-08-10T14:26:40Z</time></trkpt><trkpt lat="60.1480388548" lon="32.5508992653"><ele>15.33</ele><time>2026-08-10T14:26:58Z</time></trkpt><trkpt lat="60.1480484940" lon="32.5508737843"><ele>15.26</ele><time>2026-08-10T14:27:14Z</time></trkpt><trkpt lat="60.1480327360" lon="32.5508130994"><ele>15.18</ele><time>2026-08-10T14:27:33Z</time></trkpt><trkpt lat="60.1480261981" lon="32.5507834274"><ele>15.10</ele><time>2026-08-10T14:27:53Z</time></trkpt><trkpt lat="60.1480028965" lon="32.5507678371"><ele>15.04</ele><time>2026-08-10T14:28:08Z</time></trkpt><trkpt lat="60.1480159722" lon="32.5507940724"><ele>15.01</ele><time>2026-08-10T14:28:25Z</time></trkpt><trkpt lat="60.1480037346" lon="32.5507322978"><ele>14.97</ele><time>2026-08-10T14:28:41Z</time></trkpt><trkpt lat="60.1480072550" lon="32.5507874507"><ele>15.01</ele><time>2026-08-10T14:28:58Z</time></trkpt><trkpt lat="60.1480377652" lon="32.5509042945"><ele>14.99</ele><time>2026-08-10T14:29:34Z</time></trkpt><trkpt lat="60.1480427943" lon="32.5508668274"><ele>14.96</ele><time>2026-08-10T14:29:53Z</time></trkpt><trkpt lat="60.1480404474" lon="32.5508990139"><ele>14.93</ele><time>2026-08-10T14:30:16Z</time></trkpt><trkpt lat="60.1480297185" lon="32.5508163683"><ele>14.87</ele><time>2026-08-10T14:30:45Z</time></trkpt><trkpt lat="60.1480089314" lon="32.5508153625"><ele>14.87</ele><time>2026-08-10T14:31:04Z</time></trkpt><trkpt lat="60.1480023935" lon="32.5508469623"><ele>14.87</ele><time>2026-08-10T14:31:21Z</time></trkpt><trkpt lat="60.1480061654" lon="32.5508388318"><ele>14.83</ele><time>2026-08-10T14:31:37Z</time></trkpt><trkpt lat="60.1480057463" lon="32.5508112554"><ele>14.82</ele><time>2026-08-10T14:31:54Z</time></trkpt><trkpt lat="60.1479682792" lon="32.5507053919"><ele>14.80</ele><time>2026-08-10T14:32:10Z</time></trkpt><trkpt lat="60.1479490008" lon="32.5506485626"><ele>15.57</ele><time>2026-08-10T14:32:26Z</time></trkpt><trkpt lat="60.1479798462" lon="32.5506744627"><ele>15.56</ele><time>2026-08-10T14:32:45Z</time></trkpt><trkpt lat="60.1479044929" lon="32.5504843611"><ele>15.36</ele><time>2026-08-10T14:33:50Z</time></trkpt><trkpt lat="60.1479463186" lon="32.5505243428"><ele>15.30</ele><time>2026-08-10T14:34:10Z</time></trkpt><trkpt lat="60.1479614899" lon="32.5505551882"><ele>15.29</ele><time>2026-08-10T14:34:15Z</time></trkpt><trkpt lat="60.1479484141" lon="32.5505250134"><ele>15.23</ele><time>2026-08-10T14:34:46Z</time></trkpt><trkpt lat="60.1479200833" lon="32.5504685193"><ele>15.22</ele><time>2026-08-10T14:34:49Z</time></trkpt><trkpt lat="60.1478748210" lon="32.5503909029"><ele>15.21</ele><time>2026-08-10T14:34:57Z</time></trkpt><trkpt lat="60.1478498429" lon="32.5502850395"><ele>15.20</ele><time>2026-08-10T14:35:03Z</time></trkpt><trkpt lat="60.1478526928" lon="32.5502055790"><ele>15.18</ele><time>2026-08-10T14:35:18Z</time></trkpt><trkpt lat="60.1478506811" lon="32.5501936767"><ele>15.17</ele><time>2026-08-10T14:35:22Z</time></trkpt><trkpt lat="60.1479172334" lon="32.5504396018"><ele>15.09</ele><time>2026-08-10T14:36:10Z</time></trkpt><trkpt lat="60.1479444746" lon="32.5505419448"><ele>15.07</ele><time>2026-08-10T14:36:15Z</time></trkpt><trkpt lat="60.1479491685" lon="32.5506820064"><ele>14.99</ele><time>2026-08-10T14:37:38Z</time></trkpt><trkpt lat="60.1479724701" lon="32.5506520830"><ele>14.98</ele><time>2026-08-10T14:37:54Z</time></trkpt><trkpt lat="60.1480453927" lon="32.5508187991"><ele>15.76</ele><time>2026-08-10T14:39:17Z</time></trkpt><trkpt lat="60.1480236836" lon="32.5507680885"><ele>15.75</ele><time>2026-08-10T14:39:52Z</time></trkpt><trkpt lat="60.1477974560" lon="32.5504801702"><ele>15.74</ele><time>2026-08-10T14:41:47Z</time></trkpt><trkpt lat="60.1479173172" lon="32.5508036278"><ele>15.45</ele><time>2026-08-10T14:44:10Z</time></trkpt><trkpt lat="60.1479625795" lon="32.5508399215"><ele>15.39</ele><time>2026-08-10T14:45:29Z</time></trkpt><trkpt lat="60.1480531879" lon="32.5507980958"><ele>16.13</ele><time>2026-08-10T14:47:53Z</time></trkpt><trkpt lat="60.1480166428" lon="32.5507623050"><ele>16.11</ele><time>2026-08-10T14:48:10Z</time></trkpt><trkpt lat="60.1480287965" lon="32.5507978443"><ele>16.09</ele><time>2026-08-10T14:48:27Z</time></trkpt><trkpt lat="60.1479928382" lon="32.5507452898"><ele>16.06</ele><time>2026-08-10T14:48:38Z</time></trkpt><trkpt lat="60.1480102725" lon="32.5508728623"><ele>16.01</ele><time>2026-08-10T14:49:01Z</time></trkpt><trkpt lat="60.1480349153" lon="32.5507692620"><ele>15.92</ele><time>2026-08-10T14:49:56Z</time></trkpt><trkpt lat="60.1480127871" lon="32.5507069007"><ele>15.92</ele><time>2026-08-10T14:50:03Z</time></trkpt><trkpt lat="60.1479907427" lon="32.5507425237"><ele>15.83</ele><time>2026-08-10T14:51:18Z</time></trkpt><trkpt lat="60.1479800139" lon="32.5506815035"><ele>15.75</ele><time>2026-08-10T14:51:50Z</time></trkpt><trkpt lat="60.1479972806" lon="32.5507129356"><ele>15.68</ele><time>2026-08-10T14:52:08Z</time></trkpt><trkpt lat="60.1480175648" lon="32.5506571960"><ele>15.54</ele><time>2026-08-10T14:52:38Z</time></trkpt><trkpt lat="60.1480058301" lon="32.5507325493"><ele>15.50</ele><time>2026-08-10T14:53:06Z</time></trkpt><trkpt lat="60.1479580533" lon="32.5507391710"><ele>15.43</ele><time>2026-08-10T14:53:22Z</time></trkpt><trkpt lat="60.1479231007" lon="32.5506933220"><ele>15.40</ele><time>2026-08-10T14:53:41Z</time></trkpt><trkpt lat="60.1479422953" lon="32.5505978521"><ele>15.38</ele><time>2026-08-10T14:53:57Z</time></trkpt><trkpt lat="60.1479352545" lon="32.5505136978"><ele>15.38</ele><time>2026-08-10T14:54:07Z</time></trkpt><trkpt lat="60.1479308121" lon="32.5505179726"><ele>15.35</ele><time>2026-08-10T14:54:24Z</time></trkpt><trkpt lat="60.1479421277" lon="32.5506216567"><ele>15.34</ele><time>2026-08-10T14:54:39Z</time></trkpt><trkpt lat="60.1479471568" lon="32.5507137738"><ele>15.33</ele><time>2026-08-10T14:54:49Z</time></trkpt><trkpt lat="60.1479866356" lon="32.5508061424"><ele>15.37</ele><time>2026-08-10T14:55:12Z</time></trkpt><trkpt lat="60.1479909942" lon="32.5507882889"><ele>15.42</ele><time>2026-08-10T14:55:28Z</time></trkpt><trkpt lat="60.1479715481" lon="32.5507248379"><ele>15.43</ele><time>2026-08-10T14:55:47Z</time></trkpt><trkpt lat="60.1479909103" lon="32.5507711899"><ele>16.28</ele><time>2026-08-10T14:56:10Z</time></trkpt><trkpt lat="60.1479774155" lon="32.5506872870"><ele>16.33</ele><time>2026-08-10T14:56:28Z</time></trkpt><trkpt lat="60.1479323208" lon="32.5506747141"><ele>16.39</ele><time>2026-08-10T14:57:07Z</time></trkpt><trkpt lat="60.1479624119" lon="32.5506839342"><ele>16.70</ele><time>2026-08-10T14:59:40Z</time></trkpt><trkpt lat="60.1479005534" lon="32.5507195573"><ele>16.58</ele><time>2026-08-10T15:01:12Z</time></trkpt><trkpt lat="60.1479432173" lon="32.5508085731"><ele>16.64</ele><time>2026-08-10T15:02:40Z</time></trkpt><trkpt lat="60.1479629986" lon="32.5506878737"><ele>16.71</ele><time>2026-08-10T15:03:22Z</time></trkpt><trkpt lat="60.1479766611" lon="32.5506793242"><ele>16.70</ele><time>2026-08-10T15:03:40Z</time></trkpt><trkpt lat="60.1479840372" lon="32.5507332198"><ele>16.72</ele><time>2026-08-10T15:04:01Z</time></trkpt><trkpt lat="60.1479831990" lon="32.5507240836"><ele>16.70</ele><time>2026-08-10T15:04:28Z</time></trkpt><trkpt lat="60.1480312273" lon="32.5509242434"><ele>16.68</ele><time>2026-08-10T15:05:32Z</time></trkpt><trkpt lat="60.1480401121" lon="32.5508973375"><ele>16.67</ele><time>2026-08-10T15:06:07Z</time></trkpt><trkpt lat="60.1479907427" lon="32.5506825931"><ele>16.66</ele><time>2026-08-10T15:06:17Z</time></trkpt><trkpt lat="60.1479971129" lon="32.5506841019"><ele>16.66</ele><time>2026-08-10T15:06:25Z</time></trkpt><trkpt lat="60.1480083447" lon="32.5507108402"><ele>16.65</ele><time>2026-08-10T15:06:34Z</time></trkpt><trkpt lat="60.1480197441" lon="32.5508004427"><ele>16.62</ele><time>2026-08-10T15:07:23Z</time></trkpt><trkpt lat="60.1480191574" lon="32.5508502312"><ele>16.62</ele><time>2026-08-10T15:07:34Z</time></trkpt><trkpt lat="60.1480277907" lon="32.5508396700"><ele>16.61</ele><time>2026-08-10T15:07:55Z</time></trkpt><trkpt lat="60.1479641721" lon="32.5505258515"><ele>16.60</ele><time>2026-08-10T15:08:25Z</time></trkpt><trkpt lat="60.1479670219" lon="32.5505442917"><ele>16.60</ele><time>2026-08-10T15:08:55Z</time></trkpt><trkpt lat="60.1480109431" lon="32.5506482273"><ele>17.38</ele><time>2026-08-10T15:09:17Z</time></trkpt><trkpt lat="60.1480539422" lon="32.5507063977"><ele>17.26</ele><time>2026-08-10T15:09:45Z</time></trkpt><trkpt lat="60.1480534393" lon="32.5507885404"><ele>16.92</ele><time>2026-08-10T15:10:52Z</time></trkpt><trkpt lat="60.1479774993" lon="32.5507061463"><ele>16.71</ele><time>2026-08-10T15:11:54Z</time></trkpt><trkpt lat="60.1479722187" lon="32.5507261790"><ele>16.69</ele><time>2026-08-10T15:12:07Z</time></trkpt><trkpt lat="60.1479455642" lon="32.5506914780"><ele>16.67</ele><time>2026-08-10T15:12:51Z</time></trkpt><trkpt lat="60.1479101088" lon="32.5507072359"><ele>16.78</ele><time>2026-08-10T15:14:34Z</time></trkpt><trkpt lat="60.1478943508" lon="32.5506181363"><ele>16.78</ele><time>2026-08-10T15:14:42Z</time></trkpt><trkpt lat="60.1478981227" lon="32.5506533403"><ele>16.78</ele><time>2026-08-10T15:14:59Z</time></trkpt><trkpt lat="60.1479390264" lon="32.5507766381"><ele>16.76</ele><time>2026-08-10T15:15:25Z</time></trkpt><trkpt lat="60.1479415409" lon="32.5508350600"><ele>16.77</ele><time>2026-08-10T15:15:43Z</time></trkpt><trkpt lat="60.1479374338" lon="32.5508214813"><ele>16.80</ele><time>2026-08-10T15:15:45Z</time></trkpt><trkpt lat="60.1479458995" lon="32.5507796556"><ele>16.83</ele><time>2026-08-10T15:16:59Z</time></trkpt><trkpt lat="60.1479355898" lon="32.5507399254"><ele>16.82</ele><time>2026-08-10T15:17:02Z</time></trkpt><trkpt lat="60.1479504257" lon="32.5506633986"><ele>16.84</ele><time>2026-08-10T15:18:22Z</time></trkpt><trkpt lat="60.1479286328" lon="32.5506282784"><ele>17.64</ele><time>2026-08-10T15:18:31Z</time></trkpt><trkpt lat="60.1478782576" lon="32.5505407713"><ele>17.63</ele><time>2026-08-10T15:18:43Z</time></trkpt><trkpt lat="60.1478768326" lon="32.5505499076"><ele>17.55</ele><time>2026-08-10T15:19:18Z</time></trkpt><trkpt lat="60.1478575543" lon="32.5504729617"><ele>17.49</ele><time>2026-08-10T15:19:39Z</time></trkpt><trkpt lat="60.1478272956" lon="32.5504344888"><ele>17.47</ele><time>2026-08-10T15:19:57Z</time></trkpt><trkpt lat="60.1478021499" lon="32.5503375102"><ele>17.47</ele><time>2026-08-10T15:20:08Z</time></trkpt><trkpt lat="60.1477863081" lon="32.5503992848"><ele>17.49</ele><time>2026-08-10T15:20:36Z</time></trkpt><trkpt lat="60.1477952767" lon="32.5504265260"><ele>17.49</ele><time>2026-08-10T15:20:38Z</time></trkpt><trkpt lat="60.1478270441" lon="32.5505179726"><ele>17.50</ele><time>2026-08-10T15:20:54Z</time></trkpt><trkpt lat="60.1479882281" lon="32.5508395024"><ele>17.56</ele><time>2026-08-10T15:21:51Z</time></trkpt><trkpt lat="60.1480710413" lon="32.5508332159"><ele>17.61</ele><time>2026-08-10T15:22:32Z</time></trkpt><trkpt lat="60.1479939278" lon="32.5508722756"><ele>17.68</ele><time>2026-08-10T15:23:10Z</time></trkpt><trkpt lat="60.1480214205" lon="32.5507834274"><ele>17.69</ele><time>2026-08-10T15:23:45Z</time></trkpt><trkpt lat="60.1479988731" lon="32.5507524144"><ele>17.70</ele><time>2026-08-10T15:23:58Z</time></trkpt><trkpt lat="60.1479253639" lon="32.5504999515"><ele>17.69</ele><time>2026-08-10T15:24:15Z</time></trkpt><trkpt lat="60.1479721349" lon="32.5506584533"><ele>17.69</ele><time>2026-08-10T15:24:43Z</time></trkpt><trkpt lat="60.1480186544" lon="32.5508046336"><ele>17.68</ele><time>2026-08-10T15:24:55Z</time></trkpt><trkpt lat="60.1480365917" lon="32.5508824177"><ele>17.67</ele><time>2026-08-10T15:25:15Z</time></trkpt><trkpt lat="60.1480609830" lon="32.5507851876"><ele>18.34</ele><time>2026-08-10T15:26:50Z</time></trkpt><trkpt lat="60.1480375975" lon="32.5507271849"><ele>18.32</ele><time>2026-08-10T15:27:00Z</time></trkpt><trkpt lat="60.1480253600" lon="32.5508522429"><ele>18.31</ele><time>2026-08-10T15:27:24Z</time></trkpt><trkpt lat="60.1480452251" lon="32.5508218165"><ele>18.29</ele><time>2026-08-10T15:27:42Z</time></trkpt><trkpt lat="60.1480076741" lon="32.5505848601"><ele>18.26</ele><time>2026-08-10T15:28:00Z</time></trkpt><trkpt lat="60.1479971129" lon="32.5505965948"><ele>18.24</ele><time>2026-08-10T15:28:19Z</time></trkpt><trkpt lat="60.1480739750" lon="32.5509019475"><ele>18.10</ele><time>2026-08-10T15:29:03Z</time></trkpt><trkpt lat="60.1480871346" lon="32.5508712698"><ele>18.05</ele><time>2026-08-10T15:29:29Z</time></trkpt><trkpt lat="60.1480498351" lon="32.5507769734"><ele>18.04</ele><time>2026-08-10T15:29:36Z</time></trkpt><trkpt lat="60.1479980350" lon="32.5506642368"><ele>18.02</ele><time>2026-08-10T15:29:41Z</time></trkpt><trkpt lat="60.1479569636" lon="32.5505304616"><ele>18.01</ele><time>2026-08-10T15:29:53Z</time></trkpt><trkpt lat="60.1480292995" lon="32.5506410189"><ele>17.93</ele><time>2026-08-10T15:30:31Z</time></trkpt><trkpt lat="60.1479829475" lon="32.5505919009"><ele>17.83</ele><time>2026-08-10T15:31:05Z</time></trkpt><trkpt lat="60.1479829475" lon="32.5505919009"><ele>17.84</ele><time>2026-08-10T15:31:06Z</time></trkpt><trkpt lat="60.1480065007" lon="32.5506795757"><ele>17.85</ele><time>2026-08-10T15:31:09Z</time></trkpt><trkpt lat="60.1480381005" lon="32.5508056395"><ele>17.86</ele><time>2026-08-10T15:31:17Z</time></trkpt><trkpt lat="60.1480572950" lon="32.5509051327"><ele>17.81</ele><time>2026-08-10T15:31:35Z</time></trkpt><trkpt lat="60.1480080094" lon="32.5507745426"><ele>17.77</ele><time>2026-08-10T15:31:49Z</time></trkpt><trkpt lat="60.1480234321" lon="32.5506346487"><ele>17.33</ele><time>2026-08-10T15:36:31Z</time></trkpt><trkpt lat="60.1479564607" lon="32.5505271088"><ele>17.20</ele><time>2026-08-10T15:36:56Z</time></trkpt><trkpt lat="60.1480076741" lon="32.5506829284"><ele>17.09</ele><time>2026-08-10T15:37:13Z</time></trkpt><trkpt lat="60.1480432134" lon="32.5507972576"><ele>17.01</ele><time>2026-08-10T15:37:34Z</time></trkpt><trkpt lat="60.1480064169" lon="32.5507898815"><ele>16.48</ele><time>2026-08-10T15:39:10Z</time></trkpt><trkpt lat="60.1480235998" lon="32.5508141890"><ele>16.47</ele><time>2026-08-10T15:39:14Z</time></trkpt><trkpt lat="60.1481100172" lon="32.5508265942"><ele>13.92</ele><time>2026-08-10T15:42:45Z</time></trkpt><trkpt lat="60.1480137929" lon="32.5508234929"><ele>13.01</ele><time>2026-08-10T15:43:55Z</time></trkpt><trkpt lat="60.1480336580" lon="32.5509084016"><ele>12.23</ele><time>2026-08-10T15:45:15Z</time></trkpt><trkpt lat="60.1480199955" lon="32.5508899614"><ele>12.20</ele><time>2026-08-10T15:45:17Z</time></trkpt><trkpt lat="60.1480076741" lon="32.5508879498"><ele>12.10</ele><time>2026-08-10T15:45:28Z</time></trkpt><trkpt lat="60.1480339933" lon="32.5508670788"><ele>12.05</ele><time>2026-08-10T15:45:32Z</time></trkpt><trkpt lat="60.1479912456" lon="32.5508746225"><ele>11.03</ele><time>2026-08-10T15:47:47Z</time></trkpt><trkpt lat="60.1480174810" lon="32.5509541668"><ele>10.99</ele><time>2026-08-10T15:48:08Z</time></trkpt><trkpt lat="60.1480384357" lon="32.5507593714"><ele>10.95</ele><time>2026-08-10T15:48:51Z</time></trkpt><trkpt lat="60.1479840372" lon="32.5509001873"><ele>10.43</ele><time>2026-08-10T15:51:19Z</time></trkpt><trkpt lat="60.1480041537" lon="32.5507649034"><ele>9.74</ele><time>2026-08-10T15:53:57Z</time></trkpt><trkpt lat="60.1479707099" lon="32.5507863611"><ele>9.64</ele><time>2026-08-10T15:54:14Z</time></trkpt><trkpt lat="60.1480158884" lon="32.5509089045"><ele>9.47</ele><time>2026-08-10T15:54:49Z</time></trkpt><trkpt lat="60.1480321493" lon="32.5508338865"><ele>9.37</ele><time>2026-08-10T15:55:08Z</time></trkpt><trkpt lat="60.1479800139" lon="32.5510308612"><ele>10.13</ele><time>2026-08-10T15:59:14Z</time></trkpt><trkpt lat="60.1479812711" lon="32.5510110799"><ele>10.14</ele><time>2026-08-10T15:59:18Z</time></trkpt><trkpt lat="60.1480110269" lon="32.5508192182"><ele>10.29</ele><time>2026-08-10T16:00:26Z</time></trkpt><trkpt lat="60.1480142120" lon="32.5508966669"><ele>10.29</ele><time>2026-08-10T16:00:32Z</time></trkpt><trkpt lat="60.1479707938" lon="32.5508638937"><ele>11.10</ele><time>2026-08-10T16:00:51Z</time></trkpt><trkpt lat="60.1479669381" lon="32.5508509018"><ele>11.09</ele><time>2026-08-10T16:00:52Z</time></trkpt><trkpt lat="60.1479831990" lon="32.5506815873"><ele>11.06</ele><time>2026-08-10T16:01:20Z</time></trkpt><trkpt lat="60.1480225101" lon="32.5502413698"><ele>11.04</ele><time>2026-08-10T16:01:52Z</time></trkpt><trkpt lat="60.1480559539" lon="32.5502596423"><ele>11.02</ele><time>2026-08-10T16:02:05Z</time></trkpt><trkpt lat="60.1479926705" lon="32.5506703556"><ele>10.92</ele><time>2026-08-10T16:03:25Z</time></trkpt><trkpt lat="60.1480234321" lon="32.5508343894"><ele>10.90</ele><time>2026-08-10T16:03:50Z</time></trkpt><trkpt lat="60.1479974482" lon="32.5508213136"><ele>10.90</ele><time>2026-08-10T16:04:04Z</time></trkpt><trkpt lat="60.1479740627" lon="32.5506424438"><ele>10.95</ele><time>2026-08-10T16:04:32Z</time></trkpt><trkpt lat="60.1479749009" lon="32.5506235845"><ele>11.02</ele><time>2026-08-10T16:05:48Z</time></trkpt><trkpt lat="60.1480336580" lon="32.5506974291"><ele>11.21</ele><time>2026-08-10T16:06:51Z</time></trkpt><trkpt lat="60.1480671857" lon="32.5507399254"><ele>11.17</ele><time>2026-08-10T16:07:53Z</time></trkpt><trkpt lat="60.1480250247" lon="32.5506284460"><ele>11.20</ele><time>2026-08-10T16:08:04Z</time></trkpt><trkpt lat="60.1479823608" lon="32.5506105088"><ele>11.19</ele><time>2026-08-10T16:08:24Z</time></trkpt><trkpt lat="60.1479869708" lon="32.5506997760"><ele>11.18</ele><time>2026-08-10T16:08:45Z</time></trkpt><trkpt lat="60.1479998790" lon="32.5505491532"><ele>12.01</ele><time>2026-08-10T16:11:49Z</time></trkpt><trkpt lat="60.1480283774" lon="32.5506004505"><ele>12.04</ele><time>2026-08-10T16:11:53Z</time></trkpt><trkpt lat="60.1480344124" lon="32.5506203994"><ele>12.04</ele><time>2026-08-10T16:11:55Z</time></trkpt><trkpt lat="60.1480654255" lon="32.5507608801"><ele>12.05</ele><time>2026-08-10T16:12:02Z</time></trkpt><trkpt lat="60.1480760705" lon="32.5507988501"><ele>12.09</ele><time>2026-08-10T16:12:07Z</time></trkpt><trkpt lat="60.1480740588" lon="32.5507264305"><ele>12.08</ele><time>2026-08-10T16:12:11Z</time></trkpt><trkpt lat="60.1479829475" lon="32.5507126004"><ele>13.24</ele><time>2026-08-10T16:14:39Z</time></trkpt><trkpt lat="60.1479790919" lon="32.5507134385"><ele>13.40</ele><time>2026-08-10T16:14:58Z</time></trkpt><trkpt lat="60.1479762420" lon="32.5507208146"><ele>13.66</ele><time>2026-08-10T16:15:23Z</time></trkpt><trkpt lat="60.1480101049" lon="32.5507763028"><ele>14.02</ele><time>2026-08-10T16:16:00Z</time></trkpt><trkpt lat="60.1479812711" lon="32.5506930705"><ele>14.17</ele><time>2026-08-10T16:16:16Z</time></trkpt><trkpt lat="60.1479747333" lon="32.5506443717"><ele>14.33</ele><time>2026-08-10T16:16:33Z</time></trkpt><trkpt lat="60.1479794271" lon="32.5507515762"><ele>14.60</ele><time>2026-08-10T16:17:09Z</time></trkpt><trkpt lat="60.1479645073" lon="32.5507339742"><ele>14.76</ele><time>2026-08-10T16:17:26Z</time></trkpt><trkpt lat="60.1479392778" lon="32.5506058987"><ele>14.86</ele><time>2026-08-10T16:17:43Z</time></trkpt><trkpt lat="60.1479770802" lon="32.5506455451"><ele>15.08</ele><time>2026-08-10T16:18:13Z</time></trkpt><trkpt lat="60.1479916647" lon="32.5506907236"><ele>15.27</ele><time>2026-08-10T16:18:37Z</time></trkpt><trkpt lat="60.1479642559" lon="32.5507450383"><ele>15.62</ele><time>2026-08-10T16:19:28Z</time></trkpt><trkpt lat="60.1479919162" lon="32.5507872831"><ele>15.91</ele><time>2026-08-10T16:20:09Z</time></trkpt><trkpt lat="60.1480117813" lon="32.5506371632"><ele>16.47</ele><time>2026-08-10T16:21:33Z</time></trkpt><trkpt lat="60.1479704585" lon="32.5506536756"><ele>16.64</ele><time>2026-08-10T16:22:00Z</time></trkpt><trkpt lat="60.1479888149" lon="32.5506675057"><ele>16.85</ele><time>2026-08-10T16:22:32Z</time></trkpt><trkpt lat="60.1479446422" lon="32.5506815035"><ele>18.29</ele><time>2026-08-10T16:27:15Z</time></trkpt><trkpt lat="60.1479566284" lon="32.5509892870"><ele>18.53</ele><time>2026-08-10T16:29:48Z</time></trkpt><trkpt lat="60.1480445545" lon="32.5509442762"><ele>18.63</ele><time>2026-08-10T16:31:03Z</time></trkpt><trkpt lat="60.1479429659" lon="32.5507050566"><ele>18.72</ele><time>2026-08-10T16:31:33Z</time></trkpt><trkpt lat="60.1479041576" lon="32.5509070605"><ele>18.75</ele><time>2026-08-10T16:31:53Z</time></trkpt><trkpt lat="60.1479278784" lon="32.5511171948"><ele>18.77</ele><time>2026-08-10T16:32:04Z</time></trkpt><trkpt lat="60.1479374338" lon="32.5511535723"><ele>18.77</ele><time>2026-08-10T16:32:07Z</time></trkpt><trkpt lat="60.1479537785" lon="32.5506187230"><ele>18.89</ele><time>2026-08-10T16:32:52Z</time></trkpt><trkpt lat="60.1479303092" lon="32.5506621413"><ele>19.02</ele><time>2026-08-10T16:33:21Z</time></trkpt><trkpt lat="60.1480781659" lon="32.5505425315"><ele>19.68</ele><time>2026-08-10T16:36:02Z</time></trkpt><trkpt lat="60.1479459833" lon="32.5505893864"><ele>19.75</ele><time>2026-08-10T16:36:19Z</time></trkpt><trkpt lat="60.1480223425" lon="32.5507073198"><ele>19.92</ele><time>2026-08-10T16:37:05Z</time></trkpt><trkpt lat="60.1479745656" lon="32.5506605487"><ele>20.07</ele><time>2026-08-10T16:37:54Z</time></trkpt><trkpt lat="60.1479953527" lon="32.5506504066"><ele>20.12</ele><time>2026-08-10T16:38:06Z</time></trkpt><trkpt lat="60.1480719633" lon="32.5507342257"><ele>21.05</ele><time>2026-08-10T16:38:51Z</time></trkpt><trkpt lat="60.1479497552" lon="32.5507037155"><ele>21.28</ele><time>2026-08-10T16:41:03Z</time></trkpt><trkpt lat="60.1480114460" lon="32.5506511610"><ele>21.54</ele><time>2026-08-10T16:43:01Z</time></trkpt><trkpt lat="60.1479966938" lon="32.5507778116"><ele>21.64</ele><time>2026-08-10T16:43:39Z</time></trkpt><trkpt lat="60.1480752323" lon="32.5508390833"><ele>21.71</ele><time>2026-08-10T16:43:59Z</time></trkpt><trkpt lat="60.1480556186" lon="32.5508636422"><ele>21.74</ele><time>2026-08-10T16:44:19Z</time></trkpt><trkpt lat="60.1480463985" lon="32.5507394224"><ele>21.80</ele><time>2026-08-10T16:44:39Z</time></trkpt><trkpt lat="60.1480072550" lon="32.5506162923"><ele>21.83</ele><time>2026-08-10T16:44:49Z</time></trkpt><trkpt lat="60.1480274554" lon="32.5508872792"><ele>21.92</ele><time>2026-08-10T16:47:37Z</time></trkpt><trkpt lat="60.1479970291" lon="32.5510335434"><ele>21.94</ele><time>2026-08-10T16:49:30Z</time></trkpt><trkpt lat="60.1480011363" lon="32.5508602895"><ele>22.58</ele><time>2026-08-10T16:55:50Z</time></trkpt><trkpt lat="60.1479997952" lon="32.5508446153"><ele>22.58</ele><time>2026-08-10T16:56:05Z</time></trkpt><trkpt lat="60.1480237674" lon="32.5508259237"><ele>22.57</ele><time>2026-08-10T16:56:23Z</time></trkpt><trkpt lat="60.1479981188" lon="32.5508884527"><ele>22.58</ele><time>2026-08-10T16:56:42Z</time></trkpt><trkpt lat="60.1480137091" lon="32.5508276001"><ele>22.59</ele><time>2026-08-10T16:57:05Z</time></trkpt><trkpt lat="60.1480331551" lon="32.5507726148"><ele>22.59</ele><time>2026-08-10T16:57:20Z</time></trkpt><trkpt lat="60.1480174810" lon="32.5508189667"><ele>23.39</ele><time>2026-08-10T16:57:42Z</time></trkpt><trkpt lat="60.1480322331" lon="32.5509035401"><ele>23.39</ele><time>2026-08-10T16:57:47Z</time></trkpt><trkpt lat="60.1480593905" lon="32.5510190427"><ele>23.40</ele><time>2026-08-10T16:58:04Z</time></trkpt><trkpt lat="60.1479783375" lon="32.5507160369"><ele>23.40</ele><time>2026-08-10T16:58:56Z</time></trkpt><trkpt lat="60.1479298063" lon="32.5507609639"><ele>23.42</ele><time>2026-08-10T16:59:32Z</time></trkpt><trkpt lat="60.1479070075" lon="32.5508105848"><ele>23.40</ele><time>2026-08-10T17:00:20Z</time></trkpt><trkpt lat="60.1478647627" lon="32.5507753808"><ele>23.43</ele><time>2026-08-10T17:00:27Z</time></trkpt><trkpt lat="60.1478337497" lon="32.5507415179"><ele>23.43</ele><time>2026-08-10T17:00:29Z</time></trkpt><trkpt lat="60.1478636730" lon="32.5506369118"><ele>23.53</ele><time>2026-08-10T17:01:38Z</time></trkpt><trkpt lat="60.1479374338" lon="32.5508591998"><ele>23.56</ele><time>2026-08-10T17:02:22Z</time></trkpt><trkpt lat="60.1478404552" lon="32.5508788973"><ele>23.56</ele><time>2026-08-10T17:02:31Z</time></trkpt><trkpt lat="60.1479360927" lon="32.5507721957"><ele>23.72</ele><time>2026-08-10T17:05:21Z</time></trkpt><trkpt lat="60.1479387749" lon="32.5509374030"><ele>23.66</ele><time>2026-08-10T17:07:29Z</time></trkpt><trkpt lat="60.1479433011" lon="32.5508763827"><ele>23.66</ele><time>2026-08-10T17:07:33Z</time></trkpt><trkpt lat="60.1479522698" lon="32.5506390072"><ele>24.39</ele><time>2026-08-10T17:13:05Z</time></trkpt><trkpt lat="60.1480338257" lon="32.5508467108"><ele>24.09</ele><time>2026-08-10T17:15:31Z</time></trkpt><trkpt lat="60.1481447183" lon="32.5507282745"><ele>24.74</ele><time>2026-08-10T17:16:21Z</time></trkpt><trkpt lat="60.1481587160" lon="32.5507073198"><ele>24.70</ele><time>2026-08-10T17:16:28Z</time></trkpt><trkpt lat="60.1481214166" lon="32.5507094990"><ele>24.71</ele><time>2026-08-10T17:16:31Z</time></trkpt><trkpt lat="60.1480118651" lon="32.5506458804"><ele>24.62</ele><time>2026-08-10T17:17:10Z</time></trkpt><trkpt lat="60.1479855459" lon="32.5507742912"><ele>24.37</ele><time>2026-08-10T17:19:16Z</time></trkpt><trkpt lat="60.1479290519" lon="32.5510778837"><ele>24.32</ele><time>2026-08-10T17:19:58Z</time></trkpt><trkpt lat="60.1479259506" lon="32.5510183722"><ele>24.30</ele><time>2026-08-10T17:20:16Z</time></trkpt><trkpt lat="60.1479221787" lon="32.5509099942"><ele>24.25</ele><time>2026-08-10T17:20:57Z</time></trkpt><trkpt lat="60.1479349192" lon="32.5508560147"><ele>24.25</ele><time>2026-08-10T17:21:06Z</time></trkpt><trkpt lat="60.1479331590" lon="32.5507535879"><ele>24.25</ele><time>2026-08-10T17:21:10Z</time></trkpt><trkpt lat="60.1479457319" lon="32.5505982712"><ele>24.23</ele><time>2026-08-10T17:21:35Z</time></trkpt><trkpt lat="60.1479521021" lon="32.5506446231"><ele>24.21</ele><time>2026-08-10T17:21:39Z</time></trkpt><trkpt lat="60.1479763258" lon="32.5507704355"><ele>24.19</ele><time>2026-08-10T17:21:50Z</time></trkpt><trkpt lat="60.1479129586" lon="32.5506578665"><ele>24.02</ele><time>2026-08-10T17:23:03Z</time></trkpt><trkpt lat="60.1478203386" lon="32.5505588762"><ele>23.96</ele><time>2026-08-10T17:23:24Z</time></trkpt><trkpt lat="60.1479391940" lon="32.5508164521"><ele>23.90</ele><time>2026-08-10T17:23:48Z</time></trkpt><trkpt lat="60.1478059217" lon="32.5508112554"><ele>23.86</ele><time>2026-08-10T17:24:05Z</time></trkpt><trkpt lat="60.1478354260" lon="32.5508151110"><ele>23.85</ele><time>2026-08-10T17:24:22Z</time></trkpt><trkpt lat="60.1478088554" lon="32.5503189862"><ele>24.56</ele><time>2026-08-10T17:26:34Z</time></trkpt><trkpt lat="60.1479451451" lon="32.5506157055"><ele>24.66</ele><time>2026-08-10T17:26:59Z</time></trkpt><trkpt lat="60.1480260305" lon="32.5509862695"><ele>24.86</ele><time>2026-08-10T17:27:43Z</time></trkpt><trkpt lat="60.1480471529" lon="32.5509775523"><ele>24.85</ele><time>2026-08-10T17:27:45Z</time></trkpt><trkpt lat="60.1480615698" lon="32.5509752054"><ele>24.90</ele><time>2026-08-10T17:27:51Z</time></trkpt><trkpt lat="60.1480755676" lon="32.5510380697"><ele>24.92</ele><time>2026-08-10T17:27:55Z</time></trkpt><trkpt lat="60.1480921637" lon="32.5510659814"><ele>24.95</ele><time>2026-08-10T17:27:58Z</time></trkpt><trkpt lat="60.1481582969" lon="32.5512021873"><ele>24.96</ele><time>2026-08-10T17:28:16Z</time></trkpt></trkseg><trkseg><trkpt lat="59.3505807314" lon="34.6994975489"><ele>168.16</ele><time>2026-08-13T20:15:40Z</time></trkpt><trkpt lat="59.3505878560" lon="34.6994843893"><ele>168.12</ele><time>2026-08-13T20:16:04Z</time></trkpt><trkpt lat="59.3506059609" lon="34.6993905958"><ele>168.90</ele><time>2026-08-13T20:16:22Z</time></trkpt><trkpt lat="59.3505917117" lon="34.6993802022"><ele>166.68</ele><time>2026-08-13T20:16:40Z</time></trkpt><trkpt lat="59.3505864311" lon="34.6993490215"><ele>169.27</ele><time>2026-08-13T20:17:09Z</time></trkpt><trkpt lat="59.3505893648" lon="34.6993125603"><ele>170.16</ele><time>2026-08-13T20:17:46Z</time></trkpt><trkpt lat="59.3505793065" lon="34.6992998198"><ele>171.04</ele><time>2026-08-13T20:18:06Z</time></trkpt><trkpt lat="59.3505885266" lon="34.6993056033"><ele>171.03</ele><time>2026-08-13T20:18:23Z</time></trkpt><trkpt lat="59.3505878560" lon="34.6992884204"><ele>171.03</ele><time>2026-08-13T20:18:25Z</time></trkpt><trkpt lat="59.3505821563" lon="34.6991870832"><ele>172.09</ele><time>2026-08-13T20:18:30Z</time></trkpt><trkpt lat="59.3504845072" lon="34.6986006014"><ele>172.10</ele><time>2026-08-13T20:18:42Z</time></trkpt><trkpt lat="59.3503547553" lon="34.6977148019"><ele>172.86</ele><time>2026-08-13T20:18:56Z</time></trkpt><trkpt lat="59.3501935713" lon="34.6969786193"><ele>172.80</ele><time>2026-08-13T20:19:07Z</time></trkpt><trkpt lat="59.3499882147" lon="34.6960815042"><ele>172.75</ele><time>2026-08-13T20:19:19Z</time></trkpt><trkpt lat="59.3499831017" lon="34.6959939133"><ele>172.76</ele><time>2026-08-13T20:19:20Z</time></trkpt><trkpt lat="59.3499832693" lon="34.6959101781"><ele>172.76</ele><time>2026-08-13T20:19:21Z</time></trkpt><trkpt lat="59.3499806710" lon="34.6958268620"><ele>172.76</ele><time>2026-08-13T20:19:22Z</time></trkpt><trkpt lat="59.3499799166" lon="34.6957453899"><ele>172.76</ele><time>2026-08-13T20:19:23Z</time></trkpt><trkpt lat="59.3499798328" lon="34.6956654266"><ele>172.74</ele><time>2026-08-13T20:19:24Z</time></trkpt><trkpt lat="59.3499789108" lon="34.6955875587"><ele>172.73</ele><time>2026-08-13T20:19:25Z</time></trkpt><trkpt lat="59.3499306310" lon="34.6946977358"><ele>172.66</ele><time>2026-08-13T20:19:38Z</time></trkpt><trkpt lat="59.3498857878" lon="34.6938377526"><ele>172.61</ele><time>2026-08-13T20:19:50Z</time></trkpt><trkpt lat="59.3497967720" lon="34.6929585747"><ele>172.57</ele><time>2026-08-13T20:20:01Z</time></trkpt><trkpt lat="59.3497822713" lon="34.6928008273"><ele>172.58</ele><time>2026-08-13T20:20:03Z</time></trkpt><trkpt lat="59.3497810140" lon="34.6927180979"><ele>173.49</ele><time>2026-08-13T20:20:04Z</time></trkpt><trkpt lat="59.3497727998" lon="34.6921026986"><ele>173.44</ele><time>2026-08-13T20:20:12Z</time></trkpt><trkpt lat="59.3496987876" lon="34.6910956129"><ele>173.36</ele><time>2026-08-13T20:20:26Z</time></trkpt><trkpt lat="59.3495026510" lon="34.6901826560"><ele>173.32</ele><time>2026-08-13T20:20:40Z</time></trkpt><trkpt lat="59.3493524473" lon="34.6891764924"><ele>173.25</ele><time>2026-08-13T20:20:55Z</time></trkpt><trkpt lat="59.3492949475" lon="34.6886050981"><ele>173.21</ele><time>2026-08-13T20:21:07Z</time></trkpt><trkpt lat="59.3492889125" lon="34.6881118231"><ele>173.15</ele><time>2026-08-13T20:21:17Z</time></trkpt><trkpt lat="59.3492837995" lon="34.6880611964"><ele>173.14</ele><time>2026-08-13T20:21:18Z</time></trkpt><trkpt lat="59.3492760044" lon="34.6880114079"><ele>173.14</ele><time>2026-08-13T20:21:19Z</time></trkpt><trkpt lat="59.3492482603" lon="34.6877021994"><ele>172.98</ele><time>2026-08-13T20:21:32Z</time></trkpt><trkpt lat="59.3493022397" lon="34.6876653191"><ele>172.91</ele><time>2026-08-13T20:21:39Z</time></trkpt><trkpt lat="59.3492459133" lon="34.6875090804"><ele>172.74</ele><time>2026-08-13T20:22:09Z</time></trkpt><trkpt lat="59.3492351845" lon="34.6874652430"><ele>172.75</ele><time>2026-08-13T20:22:11Z</time></trkpt><trkpt lat="59.3492299877" lon="34.6874373313"><ele>172.75</ele><time>2026-08-13T20:22:12Z</time></trkpt><trkpt lat="59.3492302392" lon="34.6874043904"><ele>169.80</ele><time>2026-08-13T20:22:13Z</time></trkpt><trkpt lat="59.3492293172" lon="34.6873701923"><ele>169.80</ele><time>2026-08-13T20:22:14Z</time></trkpt><trkpt lat="59.3492213544" lon="34.6871054079"><ele>169.79</ele><time>2026-08-13T20:22:21Z</time></trkpt><trkpt lat="59.3492117152" lon="34.6866033319"><ele>169.76</ele><time>2026-08-13T20:22:33Z</time></trkpt><trkpt lat="59.3492710590" lon="34.6860015951"><ele>169.72</ele><time>2026-08-13T20:22:46Z</time></trkpt><trkpt lat="59.3493115436" lon="34.6856009401"><ele>169.69</ele><time>2026-08-13T20:22:56Z</time></trkpt><trkpt lat="59.3493052572" lon="34.6854691766"><ele>169.68</ele><time>2026-08-13T20:23:00Z</time></trkpt><trkpt lat="59.3492948636" lon="34.6854120959"><ele>169.67</ele><time>2026-08-13T20:23:01Z</time></trkpt><trkpt lat="59.3492949475" lon="34.6851135325"><ele>169.65</ele><time>2026-08-13T20:23:07Z</time></trkpt><trkpt lat="59.3493410479" lon="34.6848690324"><ele>169.63</ele><time>2026-08-13T20:23:12Z</time></trkpt><trkpt lat="59.3494055048" lon="34.6843227837"><ele>169.58</ele><time>2026-08-13T20:23:25Z</time></trkpt><trkpt lat="59.3494688720" lon="34.6836884413"><ele>169.53</ele><time>2026-08-13T20:23:39Z</time></trkpt><trkpt lat="59.3495635036" lon="34.6832462959"><ele>169.51</ele><time>2026-08-13T20:23:48Z</time></trkpt><trkpt lat="59.3495697901" lon="34.6831039712"><ele>169.50</ele><time>2026-08-13T20:23:51Z</time></trkpt><trkpt lat="59.3496184051" lon="34.6829195693"><ele>169.50</ele><time>2026-08-13T20:23:55Z</time></trkpt><trkpt lat="59.3496518489" lon="34.6826789249"><ele>169.50</ele><time>2026-08-13T20:24:00Z</time></trkpt><trkpt lat="59.3496823590" lon="34.6825868078"><ele>168.58</ele><time>2026-08-13T20:24:02Z</time></trkpt><trkpt lat="59.3497370929" lon="34.6824386157"><ele>168.58</ele><time>2026-08-13T20:24:07Z</time></trkpt><trkpt lat="59.3497418705" lon="34.6823931020"><ele>168.57</ele><time>2026-08-13T20:24:09Z</time></trkpt><trkpt lat="59.3498319760" lon="34.6818896849"><ele>168.58</ele><time>2026-08-13T20:24:23Z</time></trkpt><trkpt lat="59.3499255180" lon="34.6814190410"><ele>168.61</ele><time>2026-08-13T20:24:36Z</time></trkpt><trkpt lat="59.3499457184" lon="34.6812844276"><ele>168.62</ele><time>2026-08-13T20:24:41Z</time></trkpt><trkpt lat="59.3499621470" lon="34.6808533464"><ele>168.63</ele><time>2026-08-13T20:24:53Z</time></trkpt><trkpt lat="59.3499358278" lon="34.6805198304"><ele>167.01</ele><time>2026-08-13T20:25:03Z</time></trkpt><trkpt lat="59.3499455508" lon="34.6803831216"><ele>167.03</ele><time>2026-08-13T20:25:22Z</time></trkpt><trkpt lat="59.3499484006" lon="34.6803497616"><ele>167.09</ele><time>2026-08-13T20:25:47Z</time></trkpt><trkpt lat="59.3499452993" lon="34.6802507713"><ele>166.24</ele><time>2026-08-13T20:26:08Z</time></trkpt><trkpt lat="59.3499641586" lon="34.6801761724"><ele>166.30</ele><time>2026-08-13T20:26:33Z</time></trkpt><trkpt lat="59.3499701098" lon="34.6801188402"><ele>166.32</ele><time>2026-08-13T20:26:39Z</time></trkpt><trkpt lat="59.3499648292" lon="34.6800260525"><ele>165.60</ele><time>2026-08-13T20:26:50Z</time></trkpt><trkpt lat="59.3499087542" lon="34.6799251344"><ele>165.65</ele><time>2026-08-13T20:27:12Z</time></trkpt><trkpt lat="59.3499698583" lon="34.6798338555"><ele>164.94</ele><time>2026-08-13T20:27:40Z</time></trkpt><trkpt lat="59.3500022124" lon="34.6797774453"><ele>165.05</ele><time>2026-08-13T20:28:04Z</time></trkpt><trkpt lat="59.3500439543" lon="34.6796647087"><ele>164.37</ele><time>2026-08-13T20:28:18Z</time></trkpt><trkpt lat="59.3500453793" lon="34.6796361264"><ele>164.39</ele><time>2026-08-13T20:28:22Z</time></trkpt><trkpt lat="59.3500397634" lon="34.6796012577"><ele>164.40</ele><time>2026-08-13T20:28:24Z</time></trkpt><trkpt lat="59.3500040565" lon="34.6792705916"><ele>164.50</ele><time>2026-08-13T20:28:41Z</time></trkpt><trkpt lat="59.3500033859" lon="34.6792447753"><ele>164.51</ele><time>2026-08-13T20:28:43Z</time></trkpt><trkpt lat="59.3499991111" lon="34.6792001836"><ele>164.52</ele><time>2026-08-13T20:28:46Z</time></trkpt><trkpt lat="59.3500328902" lon="34.6789649874"><ele>164.60</ele><time>2026-08-13T20:29:03Z</time></trkpt><trkpt lat="59.3500551023" lon="34.6788142808"><ele>164.66</ele><time>2026-08-13T20:29:19Z</time></trkpt><trkpt lat="59.3500962574" lon="34.6785445511"><ele>164.74</ele><time>2026-08-13T20:29:38Z</time></trkpt><trkpt lat="59.3500965927" lon="34.6783071756"><ele>164.76</ele><time>2026-08-13T20:29:46Z</time></trkpt><trkpt lat="59.3501028791" lon="34.6782776713"><ele>164.77</ele><time>2026-08-13T20:29:48Z</time></trkpt><trkpt lat="59.3501721974" lon="34.6779200993"><ele>164.81</ele><time>2026-08-13T20:30:05Z</time></trkpt><trkpt lat="59.3501741253" lon="34.6773628704"><ele>164.83</ele><time>2026-08-13T20:30:21Z</time></trkpt><trkpt lat="59.3502175435" lon="34.6772052906"><ele>164.84</ele><time>2026-08-13T20:30:34Z</time></trkpt><trkpt lat="59.3502742890" lon="34.6770423464"><ele>164.85</ele><time>2026-08-13T20:30:47Z</time></trkpt><trkpt lat="59.3502781447" lon="34.6769933961"><ele>164.86</ele><time>2026-08-13T20:30:52Z</time></trkpt><trkpt lat="59.3503127620" lon="34.6768802404"><ele>164.87</ele><time>2026-08-13T20:31:00Z</time></trkpt><trkpt lat="59.3503217306" lon="34.6767768078"><ele>163.95</ele><time>2026-08-13T20:31:05Z</time></trkpt><trkpt lat="59.3503497262" lon="34.6765625663"><ele>163.15</ele><time>2026-08-13T20:31:18Z</time></trkpt><trkpt lat="59.3503515702" lon="34.6764739696"><ele>162.45</ele><time>2026-08-13T20:31:22Z</time></trkpt><trkpt lat="59.3503932282" lon="34.6763494145"><ele>162.51</ele><time>2026-08-13T20:31:34Z</time></trkpt><trkpt lat="59.3504182901" lon="34.6762476582"><ele>161.71</ele><time>2026-08-13T20:31:39Z</time></trkpt><trkpt lat="59.3504228164" lon="34.6761937626"><ele>161.72</ele><time>2026-08-13T20:31:41Z</time></trkpt><trkpt lat="59.3504189607" lon="34.6761099435"><ele>161.74</ele><time>2026-08-13T20:31:45Z</time></trkpt><trkpt lat="59.3504276779" lon="34.6759813651"><ele>160.93</ele><time>2026-08-13T20:32:03Z</time></trkpt><trkpt lat="59.3505254947" lon="34.6759744082"><ele>159.40</ele><time>2026-08-13T20:32:39Z</time></trkpt><trkpt lat="59.3505198788" lon="34.6760299802"><ele>158.71</ele><time>2026-08-13T20:33:06Z</time></trkpt><trkpt lat="59.3505572621" lon="34.6759900823"><ele>158.09</ele><time>2026-08-13T20:33:30Z</time></trkpt><trkpt lat="59.3505399954" lon="34.6760002244"><ele>157.57</ele><time>2026-08-13T20:34:00Z</time></trkpt><trkpt lat="59.3505191244" lon="34.6758594923"><ele>156.99</ele><time>2026-08-13T20:34:24Z</time></trkpt><trkpt lat="59.3505162746" lon="34.6758177504"><ele>157.02</ele><time>2026-08-13T20:34:27Z</time></trkpt><trkpt lat="59.3505079765" lon="34.6757623460"><ele>157.05</ele><time>2026-08-13T20:34:32Z</time></trkpt><trkpt lat="59.3505407497" lon="34.6754970588"><ele>157.17</ele><time>2026-08-13T20:34:48Z</time></trkpt><trkpt lat="59.3505568430" lon="34.6754828934"><ele>157.19</ele><time>2026-08-13T20:34:50Z</time></trkpt><trkpt lat="59.3506953120" lon="34.6751870960"><ele>156.43</ele><time>2026-08-13T20:35:06Z</time></trkpt><trkpt lat="59.3507509679" lon="34.6750113275"><ele>156.54</ele><time>2026-08-13T20:35:18Z</time></trkpt><trkpt lat="59.3508091383" lon="34.6746415179"><ele>156.68</ele><time>2026-08-13T20:35:37Z</time></trkpt><trkpt lat="59.3508301768" lon="34.6745260153"><ele>156.70</ele><time>2026-08-13T20:35:44Z</time></trkpt><trkpt lat="59.3508192804" lon="34.6742567886"><ele>156.76</ele><time>2026-08-13T20:35:56Z</time></trkpt><trkpt lat="59.3508057855" lon="34.6741121169"><ele>159.25</ele><time>2026-08-13T20:36:06Z</time></trkpt><trkpt lat="59.3508076295" lon="34.6740458999"><ele>159.23</ele><time>2026-08-13T20:36:13Z</time></trkpt><trkpt lat="59.3507893570" lon="34.6739843767"><ele>159.24</ele><time>2026-08-13T20:36:19Z</time></trkpt><trkpt lat="59.3507780414" lon="34.6739383601"><ele>159.31</ele><time>2026-08-13T20:36:22Z</time></trkpt><trkpt lat="59.3507921230" lon="34.6738976240"><ele>160.13</ele><time>2026-08-13T20:36:26Z</time></trkpt><trkpt lat="59.3507845793" lon="34.6738072671"><ele>160.09</ele><time>2026-08-13T20:36:34Z</time></trkpt><trkpt lat="59.3507787958" lon="34.6737744939"><ele>160.10</ele><time>2026-08-13T20:36:37Z</time></trkpt><trkpt lat="59.3507646304" lon="34.6735123079"><ele>160.11</ele><time>2026-08-13T20:36:51Z</time></trkpt><trkpt lat="59.3507476989" lon="34.6732282452"><ele>160.16</ele><time>2026-08-13T20:37:07Z</time></trkpt><trkpt lat="59.3507394008" lon="34.6729401592"><ele>161.16</ele><time>2026-08-13T20:37:19Z</time></trkpt><trkpt lat="59.3507434241" lon="34.6728964895"><ele>161.17</ele><time>2026-08-13T20:37:23Z</time></trkpt><trkpt lat="59.3507412449" lon="34.6728002653"><ele>161.20</ele><time>2026-08-13T20:37:29Z</time></trkpt><trkpt lat="59.3507616967" lon="34.6727493033"><ele>161.21</ele><time>2026-08-13T20:37:33Z</time></trkpt><trkpt lat="59.3507552426" lon="34.6724283602"><ele>161.24</ele><time>2026-08-13T20:37:52Z</time></trkpt><trkpt lat="59.3507260736" lon="34.6723364946"><ele>161.23</ele><time>2026-08-13T20:37:56Z</time></trkpt><trkpt lat="59.3507026043" lon="34.6721686050"><ele>162.12</ele><time>2026-08-13T20:38:06Z</time></trkpt><trkpt lat="59.3507076334" lon="34.6720686089"><ele>162.16</ele><time>2026-08-13T20:38:18Z</time></trkpt><trkpt lat="59.3506505527" lon="34.6717733145"><ele>162.25</ele><time>2026-08-13T20:38:34Z</time></trkpt><trkpt lat="59.3506373093" lon="34.6716855559"><ele>162.25</ele><time>2026-08-13T20:38:40Z</time></trkpt><trkpt lat="59.3505746964" lon="34.6712656226"><ele>163.33</ele><time>2026-08-13T20:38:59Z</time></trkpt><trkpt lat="59.3505712599" lon="34.6711777803"><ele>163.35</ele><time>2026-08-13T20:39:04Z</time></trkpt><trkpt lat="59.3505613692" lon="34.6706569288"><ele>163.44</ele><time>2026-08-13T20:39:24Z</time></trkpt><trkpt lat="59.3505746126" lon="34.6701733768"><ele>164.21</ele><time>2026-08-13T20:39:46Z</time></trkpt><trkpt lat="59.3506047036" lon="34.6698423754"><ele>166.97</ele><time>2026-08-13T20:40:01Z</time></trkpt><trkpt lat="59.3505533226" lon="34.6693926025"><ele>167.69</ele><time>2026-08-13T20:40:21Z</time></trkpt><trkpt lat="59.3505792227" lon="34.6690885071"><ele>169.11</ele><time>2026-08-13T20:40:42Z</time></trkpt><trkpt lat="59.3506037816" lon="34.6689543128"><ele>169.76</ele><time>2026-08-13T20:40:59Z</time></trkpt><trkpt lat="59.3505962379" lon="34.6688578371"><ele>169.74</ele><time>2026-08-13T20:41:02Z</time></trkpt><trkpt lat="59.3506000936" lon="34.6685794741"><ele>169.67</ele><time>2026-08-13T20:41:15Z</time></trkpt><trkpt lat="59.3506308552" lon="34.6685127541"><ele>169.65</ele><time>2026-08-13T20:41:19Z</time></trkpt><trkpt lat="59.3506436795" lon="34.6684736945"><ele>169.61</ele><time>2026-08-13T20:41:21Z</time></trkpt><trkpt lat="59.3506155163" lon="34.6682208963"><ele>169.55</ele><time>2026-08-13T20:41:34Z</time></trkpt><trkpt lat="59.3505976629" lon="34.6681132726"><ele>167.15</ele><time>2026-08-13T20:41:40Z</time></trkpt><trkpt lat="59.3507243972" lon="34.6677836962"><ele>166.31</ele><time>2026-08-13T20:41:59Z</time></trkpt><trkpt lat="59.3508353736" lon="34.6674295608"><ele>165.36</ele><time>2026-08-13T20:42:19Z</time></trkpt><trkpt lat="59.3508894369" lon="34.6671425644"><ele>164.43</ele><time>2026-08-13T20:42:32Z</time></trkpt><trkpt lat="59.3508959748" lon="34.6670351923"><ele>164.47</ele><time>2026-08-13T20:42:40Z</time></trkpt><trkpt lat="59.3509072065" lon="34.6670196019"><ele>164.46</ele><time>2026-08-13T20:42:42Z</time></trkpt><trkpt lat="59.3509520497" lon="34.6669035126"><ele>164.39</ele><time>2026-08-13T20:42:55Z</time></trkpt><trkpt lat="59.3509440031" lon="34.6667298395"><ele>163.50</ele><time>2026-08-13T20:43:05Z</time></trkpt><trkpt lat="59.3509336095" lon="34.6665765345"><ele>163.47</ele><time>2026-08-13T20:43:14Z</time></trkpt><trkpt lat="59.3509721663" lon="34.6662455332"><ele>163.43</ele><time>2026-08-13T20:43:34Z</time></trkpt><trkpt lat="59.3509968929" lon="34.6661621332"><ele>162.16</ele><time>2026-08-13T20:43:37Z</time></trkpt><trkpt lat="59.3510162551" lon="34.6661386639"><ele>162.16</ele><time>2026-08-13T20:43:39Z</time></trkpt><trkpt lat="59.3510564882" lon="34.6656969376"><ele>162.12</ele><time>2026-08-13T20:43:58Z</time></trkpt><trkpt lat="59.3510646187" lon="34.6656323969"><ele>162.11</ele><time>2026-08-13T20:44:01Z</time></trkpt><trkpt lat="59.3510251399" lon="34.6652086917"><ele>162.00</ele><time>2026-08-13T20:44:22Z</time></trkpt><trkpt lat="59.3510020897" lon="34.6650682110"><ele>161.93</ele><time>2026-08-13T20:44:33Z</time></trkpt><trkpt lat="59.3510529678" lon="34.6648109704"><ele>161.85</ele><time>2026-08-13T20:44:48Z</time></trkpt><trkpt lat="59.3511176761" lon="34.6645384748"><ele>161.75</ele><time>2026-08-13T20:45:03Z</time></trkpt><trkpt lat="59.3511705659" lon="34.6642730199"><ele>161.70</ele><time>2026-08-13T20:45:16Z</time></trkpt><trkpt lat="59.3512128945" lon="34.6641744487"><ele>161.66</ele><time>2026-08-13T20:45:22Z</time></trkpt><trkpt lat="59.3513459153" lon="34.6638853569"><ele>161.56</ele><time>2026-08-13T20:45:39Z</time></trkpt><trkpt lat="59.3514099531" lon="34.6636284515"><ele>161.51</ele><time>2026-08-13T20:45:59Z</time></trkpt><trkpt lat="59.3515862245" lon="34.6634345781"><ele>161.49</ele><time>2026-08-13T20:46:22Z</time></trkpt><trkpt lat="59.3517319020" lon="34.6631809417"><ele>163.84</ele><time>2026-08-13T20:46:44Z</time></trkpt><trkpt lat="59.3518386036" lon="34.6628958732"><ele>166.58</ele><time>2026-08-13T20:47:05Z</time></trkpt><trkpt lat="59.3518897332" lon="34.6625232138"><ele>169.10</ele><time>2026-08-13T20:47:29Z</time></trkpt><trkpt lat="59.3520057388" lon="34.6623486187"><ele>169.07</ele><time>2026-08-13T20:47:46Z</time></trkpt><trkpt lat="59.3521395978" lon="34.6621345449"><ele>169.04</ele><time>2026-08-13T20:48:06Z</time></trkpt><trkpt lat="59.3522663321" lon="34.6619613748"><ele>169.80</ele><time>2026-08-13T20:48:23Z</time></trkpt><trkpt lat="59.3523885403" lon="34.6618270967"><ele>169.75</ele><time>2026-08-13T20:48:43Z</time></trkpt><trkpt lat="59.3525407556" lon="34.6615395136"><ele>170.47</ele><time>2026-08-13T20:49:04Z</time></trkpt><trkpt lat="59.3526814878" lon="34.6611996274"><ele>170.22</ele><time>2026-08-13T20:49:27Z</time></trkpt><trkpt lat="59.3528614473" lon="34.6609662753"><ele>170.04</ele><time>2026-08-13T20:49:50Z</time></trkpt><trkpt lat="59.3529440928" lon="34.6607124712"><ele>169.82</ele><time>2026-08-13T20:50:15Z</time></trkpt><trkpt lat="59.3529778719" lon="34.6604621038"><ele>169.71</ele><time>2026-08-13T20:50:32Z</time></trkpt><trkpt lat="59.3530660495" lon="34.6602673922"><ele>169.63</ele><time>2026-08-13T20:50:47Z</time></trkpt><trkpt lat="59.3531384692" lon="34.6599975787"><ele>170.31</ele><time>2026-08-13T20:51:03Z</time></trkpt><trkpt lat="59.3531253934" lon="34.6598358918"><ele>170.95</ele><time>2026-08-13T20:51:21Z</time></trkpt><trkpt lat="59.3532178458" lon="34.6596544236"><ele>170.80</ele><time>2026-08-13T20:51:37Z</time></trkpt><trkpt lat="59.3533387966" lon="34.6595481411"><ele>170.69</ele><time>2026-08-13T20:51:47Z</time></trkpt><trkpt lat="59.3534242921" lon="34.6593824308"><ele>168.20</ele><time>2026-08-13T20:51:59Z</time></trkpt><trkpt lat="59.3535216060" lon="34.6591099352"><ele>167.20</ele><time>2026-08-13T20:52:18Z</time></trkpt><trkpt lat="59.3536213506" lon="34.6589293052"><ele>166.35</ele><time>2026-08-13T20:52:36Z</time></trkpt><trkpt lat="59.3537692912" lon="34.6586205997"><ele>165.44</ele><time>2026-08-13T20:52:58Z</time></trkpt><trkpt lat="59.3539373484" lon="34.6583455056"><ele>164.52</ele><time>2026-08-13T20:53:19Z</time></trkpt><trkpt lat="59.3539526872" lon="34.6581399813"><ele>164.29</ele><time>2026-08-13T20:53:42Z</time></trkpt><trkpt lat="59.3539730553" lon="34.6580973174"><ele>162.89</ele><time>2026-08-13T20:53:58Z</time></trkpt><trkpt lat="59.3539809342" lon="34.6579018515"><ele>162.77</ele><time>2026-08-13T20:54:21Z</time></trkpt><trkpt lat="59.3539736420" lon="34.6577480435"><ele>162.68</ele><time>2026-08-13T20:54:33Z</time></trkpt><trkpt lat="59.3539230153" lon="34.6576354746"><ele>162.68</ele><time>2026-08-13T20:54:41Z</time></trkpt><trkpt lat="59.3538774177" lon="34.6575529128"><ele>161.86</ele><time>2026-08-13T20:54:52Z</time></trkpt><trkpt lat="59.3538620789" lon="34.6575280186"><ele>160.99</ele><time>2026-08-13T20:55:20Z</time></trkpt><trkpt lat="59.3538925890" lon="34.6575488895"><ele>160.07</ele><time>2026-08-13T20:55:47Z</time></trkpt><trkpt lat="59.3538505957" lon="34.6573901363"><ele>159.23</ele><time>2026-08-13T20:56:06Z</time></trkpt><trkpt lat="59.3538857158" lon="34.6573923156"><ele>159.25</ele><time>2026-08-13T20:56:11Z</time></trkpt><trkpt lat="59.3538846262" lon="34.6573716961"><ele>159.29</ele><time>2026-08-13T20:56:15Z</time></trkpt><trkpt lat="59.3538445607" lon="34.6572269406"><ele>159.43</ele><time>2026-08-13T20:56:42Z</time></trkpt><trkpt lat="59.3537921738" lon="34.6571602207"><ele>159.57</ele><time>2026-08-13T20:57:01Z</time></trkpt><trkpt lat="59.3537392840" lon="34.6571245138"><ele>159.62</ele><time>2026-08-13T20:57:11Z</time></trkpt><trkpt lat="59.3536634278" lon="34.6570488252"><ele>159.78</ele><time>2026-08-13T20:57:36Z</time></trkpt><trkpt lat="59.3536300678" lon="34.6569935046"><ele>159.77</ele><time>2026-08-13T20:57:38Z</time></trkpt><trkpt lat="59.3535597436" lon="34.6567195002"><ele>159.87</ele><time>2026-08-13T20:57:58Z</time></trkpt><trkpt lat="59.3534965441" lon="34.6565808635"><ele>159.97</ele><time>2026-08-13T20:58:16Z</time></trkpt><trkpt lat="59.3534929398" lon="34.6564898361"><ele>160.12</ele><time>2026-08-13T20:58:35Z</time></trkpt><trkpt lat="59.3534377869" lon="34.6562891733"><ele>160.22</ele><time>2026-08-13T20:58:58Z</time></trkpt><trkpt lat="59.3533260562" lon="34.6560583357"><ele>160.30</ele><time>2026-08-13T20:59:20Z</time></trkpt><trkpt lat="59.3532737531" lon="34.6559316851"><ele>162.64</ele><time>2026-08-13T20:59:34Z</time></trkpt><trkpt lat="59.3532106373" lon="34.6557854209"><ele>162.72</ele><time>2026-08-13T20:59:54Z</time></trkpt><trkpt lat="59.3531742599" lon="34.6557023562"><ele>163.57</ele><time>2026-08-13T21:00:14Z</time></trkpt><trkpt lat="59.3531171791" lon="34.6555638872"><ele>163.61</ele><time>2026-08-13T21:00:31Z</time></trkpt><trkpt lat="59.3530558236" lon="34.6554216463"><ele>163.61</ele><time>2026-08-13T21:00:50Z</time></trkpt><trkpt lat="59.3529768661" lon="34.6551382542"><ele>164.43</ele><time>2026-08-13T21:01:10Z</time></trkpt><trkpt lat="59.3529129121" lon="34.6549626533"><ele>164.42</ele><time>2026-08-13T21:01:31Z</time></trkpt><trkpt lat="59.3528534006" lon="34.6548179816"><ele>161.89</ele><time>2026-08-13T21:01:45Z</time></trkpt><trkpt lat="59.3527576793" lon="34.6545820311"><ele>159.43</ele><time>2026-08-13T21:02:07Z</time></trkpt><trkpt lat="59.3526842538" lon="34.6543371119"><ele>157.59</ele><time>2026-08-13T21:02:28Z</time></trkpt><trkpt lat="59.3526639696" lon="34.6541491058"><ele>156.16</ele><time>2026-08-13T21:02:49Z</time></trkpt><trkpt lat="59.3525975011" lon="34.6538932063"><ele>155.42</ele><time>2026-08-13T21:03:08Z</time></trkpt><trkpt lat="59.3525633868" lon="34.6537731774"><ele>155.49</ele><time>2026-08-13T21:03:21Z</time></trkpt><trkpt lat="59.3525533285" lon="34.6536295116"><ele>155.55</ele><time>2026-08-13T21:03:38Z</time></trkpt><trkpt lat="59.3525152747" lon="34.6534967422"><ele>155.57</ele><time>2026-08-13T21:03:56Z</time></trkpt><trkpt lat="59.3524731975" lon="34.6534054633"><ele>158.06</ele><time>2026-08-13T21:04:12Z</time></trkpt><trkpt lat="59.3522070721" lon="34.6531520784"><ele>158.09</ele><time>2026-08-13T21:04:34Z</time></trkpt><trkpt lat="59.3519909866" lon="34.6528605558"><ele>158.16</ele><time>2026-08-13T21:04:57Z</time></trkpt><trkpt lat="59.3518598936" lon="34.6527297981"><ele>158.21</ele><time>2026-08-13T21:05:12Z</time></trkpt><trkpt lat="59.3517291360" lon="34.6526646707"><ele>159.08</ele><time>2026-08-13T21:05:32Z</time></trkpt><trkpt lat="59.3516780902" lon="34.6526322328"><ele>159.13</ele><time>2026-08-13T21:05:39Z</time></trkpt><trkpt lat="59.3516163155" lon="34.6526197437"><ele>160.81</ele><time>2026-08-13T21:05:53Z</time></trkpt><trkpt lat="59.3515461590" lon="34.6525336616"><ele>161.67</ele><time>2026-08-13T21:06:09Z</time></trkpt><trkpt lat="59.3515550438" lon="34.6524697077"><ele>163.28</ele><time>2026-08-13T21:06:26Z</time></trkpt><trkpt lat="59.3514630105" lon="34.6523744054"><ele>165.06</ele><time>2026-08-13T21:06:49Z</time></trkpt><trkpt lat="59.3514456600" lon="34.6523114573"><ele>165.06</ele><time>2026-08-13T21:06:55Z</time></trkpt><trkpt lat="59.3512823805" lon="34.6519529633"><ele>165.81</ele><time>2026-08-13T21:07:14Z</time></trkpt><trkpt lat="59.3511696439" lon="34.6514867619"><ele>167.44</ele><time>2026-08-13T21:07:34Z</time></trkpt><trkpt lat="59.3512001541" lon="34.6512191277"><ele>168.28</ele><time>2026-08-13T21:07:54Z</time></trkpt><trkpt lat="59.3512113020" lon="34.6509804949"><ele>169.03</ele><time>2026-08-13T21:08:15Z</time></trkpt><trkpt lat="59.3512089550" lon="34.6506820992"><ele>170.73</ele><time>2026-08-13T21:08:38Z</time></trkpt><trkpt lat="59.3511893414" lon="34.6505319793"><ele>170.62</ele><time>2026-08-13T21:09:01Z</time></trkpt><trkpt lat="59.3512004893" lon="34.6504196618"><ele>170.57</ele><time>2026-08-13T21:09:24Z</time></trkpt><trkpt lat="59.3511667941" lon="34.6502464078"><ele>170.55</ele><time>2026-08-13T21:09:44Z</time></trkpt><trkpt lat="59.3510421552" lon="34.6498685516"><ele>170.51</ele><time>2026-08-13T21:10:09Z</time></trkpt><trkpt lat="59.3509463500" lon="34.6496647876"><ele>170.50</ele><time>2026-08-13T21:10:29Z</time></trkpt><trkpt lat="59.3509082962" lon="34.6495087165"><ele>165.94</ele><time>2026-08-13T21:10:42Z</time></trkpt><trkpt lat="59.3509087153" lon="34.6495043579"><ele>169.44</ele><time>2026-08-13T21:10:43Z</time></trkpt><trkpt lat="59.3508626148" lon="34.6492037829"><ele>169.39</ele><time>2026-08-13T21:11:06Z</time></trkpt><trkpt lat="59.3508653808" lon="34.6491266694"><ele>167.09</ele><time>2026-08-13T21:11:11Z</time></trkpt><trkpt lat="59.3508072942" lon="34.6489689220"><ele>167.12</ele><time>2026-08-13T21:11:32Z</time></trkpt><trkpt lat="59.3507810589" lon="34.6488116775"><ele>167.15</ele><time>2026-08-13T21:11:57Z</time></trkpt><trkpt lat="59.3507052865" lon="34.6485559456"><ele>167.15</ele><time>2026-08-13T21:12:15Z</time></trkpt><trkpt lat="59.3506881036" lon="34.6484305523"><ele>167.15</ele><time>2026-08-13T21:12:34Z</time></trkpt><trkpt lat="59.3505802285" lon="34.6482892334"><ele>166.18</ele><time>2026-08-13T21:12:50Z</time></trkpt><trkpt lat="59.3505171966" lon="34.6481280494"><ele>164.58</ele><time>2026-08-13T21:13:13Z</time></trkpt><trkpt lat="59.3503708486" lon="34.6478384547"><ele>163.66</ele><time>2026-08-13T21:13:32Z</time></trkpt><trkpt lat="59.3503236584" lon="34.6476948727"><ele>162.90</ele><time>2026-08-13T21:13:52Z</time></trkpt><trkpt lat="59.3503676634" lon="34.6475367062"><ele>162.17</ele><time>2026-08-13T21:14:20Z</time></trkpt><trkpt lat="59.3503891211" lon="34.6475094650"><ele>162.20</ele><time>2026-08-13T21:14:23Z</time></trkpt><trkpt lat="59.3503716029" lon="34.6472449321"><ele>162.28</ele><time>2026-08-13T21:14:44Z</time></trkpt><trkpt lat="59.3503170367" lon="34.6470225602"><ele>162.35</ele><time>2026-08-13T21:15:01Z</time></trkpt><trkpt lat="59.3501729518" lon="34.6468312852"><ele>162.40</ele><time>2026-08-13T21:15:22Z</time></trkpt><trkpt lat="59.3500889651" lon="34.6468168683"><ele>164.77</ele><time>2026-08-13T21:15:30Z</time></trkpt><trkpt lat="59.3499996141" lon="34.6468604542"><ele>165.97</ele><time>2026-08-13T21:15:42Z</time></trkpt><trkpt lat="59.3498821836" lon="34.6469713468"><ele>165.95</ele><time>2026-08-13T21:16:02Z</time></trkpt><trkpt lat="59.3498561159" lon="34.6469936427"><ele>165.93</ele><time>2026-08-13T21:16:06Z</time></trkpt><trkpt lat="59.3497748114" lon="34.6469758730"><ele>165.91</ele><time>2026-08-13T21:16:16Z</time></trkpt><trkpt lat="59.3497078400" lon="34.6470145136"><ele>163.65</ele><time>2026-08-13T21:16:22Z</time></trkpt><trkpt lat="59.3496248592" lon="34.6471031941"><ele>162.85</ele><time>2026-08-13T21:16:28Z</time></trkpt><trkpt lat="59.3496054132" lon="34.6471199580"><ele>162.82</ele><time>2026-08-13T21:16:31Z</time></trkpt><trkpt lat="59.3494689558" lon="34.6471930481"><ele>161.97</ele><time>2026-08-13T21:16:46Z</time></trkpt><trkpt lat="59.3494597357" lon="34.6471847501"><ele>161.15</ele><time>2026-08-13T21:16:48Z</time></trkpt><trkpt lat="59.3493728992" lon="34.6470524836"><ele>160.35</ele><time>2026-08-13T21:17:01Z</time></trkpt><trkpt lat="59.3492966238" lon="34.6468799841"><ele>160.35</ele><time>2026-08-13T21:17:18Z</time></trkpt><trkpt lat="59.3491476774" lon="34.6468087379"><ele>160.38</ele><time>2026-08-13T21:17:40Z</time></trkpt><trkpt lat="59.3490339350" lon="34.6467282716"><ele>160.44</ele><time>2026-08-13T21:18:00Z</time></trkpt><trkpt lat="59.3489009980" lon="34.6466069855"><ele>162.87</ele><time>2026-08-13T21:18:19Z</time></trkpt><trkpt lat="59.3487049453" lon="34.6465283632"><ele>163.01</ele><time>2026-08-13T21:18:40Z</time></trkpt><trkpt lat="59.3485932145" lon="34.6466139425"><ele>164.75</ele><time>2026-08-13T21:18:57Z</time></trkpt><trkpt lat="59.3485360499" lon="34.6466362383"><ele>164.76</ele><time>2026-08-13T21:19:04Z</time></trkpt><trkpt lat="59.3483518995" lon="34.6466458775"><ele>165.60</ele><time>2026-08-13T21:19:27Z</time></trkpt><trkpt lat="59.3481902126" lon="34.6465844382"><ele>166.64</ele><time>2026-08-13T21:19:41Z</time></trkpt><trkpt lat="59.3481269293" lon="34.6465285309"><ele>167.56</ele><time>2026-08-13T21:20:03Z</time></trkpt><trkpt lat="59.3480664957" lon="34.6465113480"><ele>167.55</ele><time>2026-08-13T21:20:26Z</time></trkpt><trkpt lat="59.3479922321" lon="34.6464262716"><ele>167.56</ele><time>2026-08-13T21:20:36Z</time></trkpt><trkpt lat="59.3479198124" lon="34.6464014612"><ele>165.10</ele><time>2026-08-13T21:20:44Z</time></trkpt><trkpt lat="59.3478191458" lon="34.6463053208"><ele>163.58</ele><time>2026-08-13T21:20:56Z</time></trkpt><trkpt lat="59.3477451336" lon="34.6462266147"><ele>162.58</ele><time>2026-08-13T21:21:06Z</time></trkpt><trkpt lat="59.3476567883" lon="34.6460347530"><ele>160.96</ele><time>2026-08-13T21:21:20Z</time></trkpt><trkpt lat="59.3476473168" lon="34.6460007224"><ele>160.97</ele><time>2026-08-13T21:21:22Z</time></trkpt><trkpt lat="59.3475919124" lon="34.6458589844"><ele>160.27</ele><time>2026-08-13T21:21:38Z</time></trkpt><trkpt lat="59.3475166429" lon="34.6456781868"><ele>159.51</ele><time>2026-08-13T21:21:56Z</time></trkpt><trkpt lat="59.3474315666" lon="34.6454651188"><ele>159.60</ele><time>2026-08-13T21:22:12Z</time></trkpt><trkpt lat="59.3474260345" lon="34.6454543900"><ele>159.60</ele><time>2026-08-13T21:22:13Z</time></trkpt><trkpt lat="59.3474121206" lon="34.6451771166"><ele>159.74</ele><time>2026-08-13T21:22:36Z</time></trkpt><trkpt lat="59.3474055827" lon="34.6451351233"><ele>159.75</ele><time>2026-08-13T21:22:39Z</time></trkpt><trkpt lat="59.3473741505" lon="34.6448547486"><ele>159.89</ele><time>2026-08-13T21:23:04Z</time></trkpt><trkpt lat="59.3473761622" lon="34.6448531561"><ele>162.17</ele><time>2026-08-13T21:23:06Z</time></trkpt><trkpt lat="59.3473452330" lon="34.6445786487"><ele>164.01</ele><time>2026-08-13T21:23:41Z</time></trkpt><trkpt lat="59.3473593984" lon="34.6445799060"><ele>164.12</ele><time>2026-08-13T21:24:07Z</time></trkpt><trkpt lat="59.3472667783" lon="34.6445016190"><ele>164.24</ele><time>2026-08-13T21:24:27Z</time></trkpt><trkpt lat="59.3472975399" lon="34.6442660037"><ele>165.13</ele><time>2026-08-13T21:24:48Z</time></trkpt><trkpt lat="59.3473614100" lon="34.6439474076"><ele>165.19</ele><time>2026-08-13T21:25:11Z</time></trkpt><trkpt lat="59.3473701272" lon="34.6437313221"><ele>166.13</ele><time>2026-08-13T21:25:29Z</time></trkpt><trkpt lat="59.3474153057" lon="34.6433727443"><ele>168.73</ele><time>2026-08-13T21:25:53Z</time></trkpt><trkpt lat="59.3474215921" lon="34.6431791224"><ele>168.62</ele><time>2026-08-13T21:26:13Z</time></trkpt><trkpt lat="59.3474181555" lon="34.6429420821"><ele>169.45</ele><time>2026-08-13T21:26:37Z</time></trkpt><trkpt lat="59.3473943509" lon="34.6430355404"><ele>169.38</ele><time>2026-08-13T21:27:00Z</time></trkpt><trkpt lat="59.3473738991" lon="34.6433599200"><ele>169.30</ele><time>2026-08-13T21:27:22Z</time></trkpt><trkpt lat="59.3473410420" lon="34.6437078528"><ele>169.13</ele><time>2026-08-13T21:27:43Z</time></trkpt><trkpt lat="59.3473122921" lon="34.6439822763"><ele>166.81</ele><time>2026-08-13T21:28:08Z</time></trkpt><trkpt lat="59.3473145552" lon="34.6440057456"><ele>166.80</ele><time>2026-08-13T21:28:09Z</time></trkpt><trkpt lat="59.3473219313" lon="34.6444082446"><ele>165.90</ele><time>2026-08-13T21:28:33Z</time></trkpt><trkpt lat="59.3473386113" lon="34.6447163634"><ele>165.78</ele><time>2026-08-13T21:28:54Z</time></trkpt><trkpt lat="59.3473969493" lon="34.6450000070"><ele>164.92</ele><time>2026-08-13T21:29:15Z</time></trkpt><trkpt lat="59.3474964425" lon="34.6453216206"><ele>164.76</ele><time>2026-08-13T21:29:36Z</time></trkpt><trkpt lat="59.3475753162" lon="34.6456484310"><ele>164.62</ele><time>2026-08-13T21:29:59Z</time></trkpt><trkpt lat="59.3477122765" lon="34.6458994690"><ele>164.42</ele><time>2026-08-13T21:30:20Z</time></trkpt><trkpt lat="59.3478103448" lon="34.6461765748"><ele>164.19</ele><time>2026-08-13T21:30:41Z</time></trkpt><trkpt lat="59.3478780705" lon="34.6463446319"><ele>164.00</ele><time>2026-08-13T21:30:59Z</time></trkpt><trkpt lat="59.3479239196" lon="34.6464473940"><ele>163.83</ele><time>2026-08-13T21:31:11Z</time></trkpt><trkpt lat="59.3480528332" lon="34.6465622261"><ele>163.52</ele><time>2026-08-13T21:31:32Z</time></trkpt><trkpt lat="59.3481747899" lon="34.6465509944"><ele>163.34</ele><time>2026-08-13T21:31:46Z</time></trkpt><trkpt lat="59.3482410908" lon="34.6465717815"><ele>163.19</ele><time>2026-08-13T21:31:57Z</time></trkpt><trkpt lat="59.3484136742" lon="34.6465027146"><ele>162.89</ele><time>2026-08-13T21:32:16Z</time></trkpt><trkpt lat="59.3485830724" lon="34.6464968473"><ele>162.64</ele><time>2026-08-13T21:32:34Z</time></trkpt><trkpt lat="59.3487823941" lon="34.6465080790"><ele>162.40</ele><time>2026-08-13T21:32:51Z</time></trkpt><trkpt lat="59.3489799555" lon="34.6466473024"><ele>162.19</ele><time>2026-08-13T21:33:14Z</time></trkpt><trkpt lat="59.3491217773" lon="34.6468165331"><ele>161.29</ele><time>2026-08-13T21:33:36Z</time></trkpt><trkpt lat="59.3492950313" lon="34.6469803993"><ele>161.19</ele><time>2026-08-13T21:33:58Z</time></trkpt><trkpt lat="59.3494784273" lon="34.6470924653"><ele>161.15</ele><time>2026-08-13T21:34:19Z</time></trkpt><trkpt lat="59.3496665172" lon="34.6470632963"><ele>160.23</ele><time>2026-08-13T21:34:41Z</time></trkpt><trkpt lat="59.3497634120" lon="34.6469717659"><ele>159.45</ele><time>2026-08-13T21:34:56Z</time></trkpt><trkpt lat="59.3499643262" lon="34.6467566863"><ele>159.28</ele><time>2026-08-13T21:35:20Z</time></trkpt><trkpt lat="59.3501480576" lon="34.6468590293"><ele>158.43</ele><time>2026-08-13T21:35:41Z</time></trkpt><trkpt lat="59.3502144422" lon="34.6470507234"><ele>157.60</ele><time>2026-08-13T21:35:58Z</time></trkpt><trkpt lat="59.3502183817" lon="34.6472948883"><ele>157.53</ele><time>2026-08-13T21:36:16Z</time></trkpt><trkpt lat="59.3502207287" lon="34.6473270748"><ele>157.54</ele><time>2026-08-13T21:36:18Z</time></trkpt><trkpt lat="59.3502497301" lon="34.6475875843"><ele>157.44</ele><time>2026-08-13T21:36:39Z</time></trkpt><trkpt lat="59.3502741214" lon="34.6477027517"><ele>157.38</ele><time>2026-08-13T21:36:48Z</time></trkpt><trkpt lat="59.3503281008" lon="34.6479573101"><ele>157.28</ele><time>2026-08-13T21:37:07Z</time></trkpt><trkpt lat="59.3504604511" lon="34.6482194122"><ele>157.14</ele><time>2026-08-13T21:37:26Z</time></trkpt><trkpt lat="59.3505612854" lon="34.6485384274"><ele>156.97</ele><time>2026-08-13T21:37:47Z</time></trkpt><trkpt lat="59.3506390695" lon="34.6488109231"><ele>156.79</ele><time>2026-08-13T21:38:08Z</time></trkpt><trkpt lat="59.3506693281" lon="34.6490985900"><ele>159.04</ele><time>2026-08-13T21:38:26Z</time></trkpt><trkpt lat="59.3507609423" lon="34.6494088043"><ele>159.61</ele><time>2026-08-13T21:38:48Z</time></trkpt><trkpt lat="59.3508952204" lon="34.6497160848"><ele>159.32</ele><time>2026-08-13T21:39:11Z</time></trkpt><trkpt lat="59.3509721663" lon="34.6500381175"><ele>159.81</ele><time>2026-08-13T21:39:34Z</time></trkpt><trkpt lat="59.3510490283" lon="34.6502400376"><ele>159.51</ele><time>2026-08-13T21:39:57Z</time></trkpt><trkpt lat="59.3510555662" lon="34.6506862901"><ele>159.20</ele><time>2026-08-13T21:40:20Z</time></trkpt><trkpt lat="59.3510384671" lon="34.6509780642"><ele>158.98</ele><time>2026-08-13T21:40:36Z</time></trkpt><trkpt lat="59.3510414008" lon="34.6511902101"><ele>158.76</ele><time>2026-08-13T21:40:56Z</time></trkpt><trkpt lat="59.3510342762" lon="34.6514436789"><ele>158.51</ele><time>2026-08-13T21:41:19Z</time></trkpt><trkpt lat="59.3511099648" lon="34.6516445931"><ele>158.26</ele><time>2026-08-13T21:41:39Z</time></trkpt><trkpt lat="59.3511815462" lon="34.6519146580"><ele>158.01</ele><time>2026-08-13T21:42:01Z</time></trkpt><trkpt lat="59.3511922751" lon="34.6519222017"><ele>158.00</ele><time>2026-08-13T21:42:03Z</time></trkpt><trkpt lat="59.3513326719" lon="34.6523109544"><ele>157.78</ele><time>2026-08-13T21:42:26Z</time></trkpt><trkpt lat="59.3514683750" lon="34.6524778381"><ele>157.58</ele><time>2026-08-13T21:42:48Z</time></trkpt><trkpt lat="59.3515523616" lon="34.6525982022"><ele>155.24</ele><time>2026-08-13T21:43:01Z</time></trkpt><trkpt lat="59.3516969495" lon="34.6526818536"><ele>155.15</ele><time>2026-08-13T21:43:19Z</time></trkpt><trkpt lat="59.3517111149" lon="34.6527038142"><ele>155.13</ele><time>2026-08-13T21:43:22Z</time></trkpt><trkpt lat="59.3518009689" lon="34.6527834423"><ele>157.43</ele><time>2026-08-13T21:43:36Z</time></trkpt><trkpt lat="59.3519514240" lon="34.6529602166"><ele>158.07</ele><time>2026-08-13T21:44:01Z</time></trkpt><trkpt lat="59.3520229217" lon="34.6530226618"><ele>157.98</ele><time>2026-08-13T21:44:14Z</time></trkpt><trkpt lat="59.3522235006" lon="34.6532457042"><ele>157.84</ele><time>2026-08-13T21:44:37Z</time></trkpt><trkpt lat="59.3523544259" lon="34.6535811480"><ele>154.46</ele><time>2026-08-13T21:44:59Z</time></trkpt><trkpt lat="59.3523598742" lon="34.6535902843"><ele>154.46</ele><time>2026-08-13T21:45:00Z</time></trkpt><trkpt lat="59.3523598742" lon="34.6535910387"><ele>157.03</ele><time>2026-08-13T21:45:03Z</time></trkpt><trkpt lat="59.3524372391" lon="34.6538139135"><ele>154.49</ele><time>2026-08-13T21:45:24Z</time></trkpt><trkpt lat="59.3525562622" lon="34.6539607644"><ele>154.49</ele><time>2026-08-13T21:45:45Z</time></trkpt><trkpt lat="59.3525647279" lon="34.6540413145"><ele>153.35</ele><time>2026-08-13T21:46:00Z</time></trkpt><trkpt lat="59.3526094034" lon="34.6542127244"><ele>153.32</ele><time>2026-08-13T21:46:17Z</time></trkpt><trkpt lat="59.3526458647" lon="34.6544008143"><ele>155.62</ele><time>2026-08-13T21:46:32Z</time></trkpt><trkpt lat="59.3526754528" lon="34.6546609048"><ele>156.30</ele><time>2026-08-13T21:46:51Z</time></trkpt><trkpt lat="59.3527667318" lon="34.6548140422"><ele>157.10</ele><time>2026-08-13T21:47:08Z</time></trkpt><trkpt lat="59.3528372236" lon="34.6549197379"><ele>157.98</ele><time>2026-08-13T21:47:29Z</time></trkpt><trkpt lat="59.3528556637" lon="34.6549291257"><ele>157.98</ele><time>2026-08-13T21:47:45Z</time></trkpt><trkpt lat="59.3528924603" lon="34.6549437102"><ele>158.94</ele><time>2026-08-13T21:48:02Z</time></trkpt><trkpt lat="59.3529131636" lon="34.6550419461"><ele>159.83</ele><time>2026-08-13T21:48:21Z</time></trkpt><trkpt lat="59.3529413268" lon="34.6550892200"><ele>159.83</ele><time>2026-08-13T21:48:41Z</time></trkpt><trkpt lat="59.3529670592" lon="34.6552452073"><ele>160.72</ele><time>2026-08-13T21:48:59Z</time></trkpt><trkpt lat="59.3529599346" lon="34.6552533377"><ele>161.49</ele><time>2026-08-13T21:49:17Z</time></trkpt><trkpt lat="59.3529715855" lon="34.6553563513"><ele>161.48</ele><time>2026-08-13T21:49:47Z</time></trkpt><trkpt lat="59.3530077115" lon="34.6554534975"><ele>161.49</ele><time>2026-08-13T21:50:10Z</time></trkpt><trkpt lat="59.3530596793" lon="34.6556014381"><ele>161.46</ele><time>2026-08-13T21:50:32Z</time></trkpt><trkpt lat="59.3530937936" lon="34.6557712555"><ele>159.13</ele><time>2026-08-13T21:50:46Z</time></trkpt><trkpt lat="59.3531670514" lon="34.6559953876"><ele>159.12</ele><time>2026-08-13T21:51:06Z</time></trkpt><trkpt lat="59.3532502837" lon="34.6561567392"><ele>159.04</ele><time>2026-08-13T21:51:26Z</time></trkpt><trkpt lat="59.3533080351" lon="34.6563144028"><ele>158.96</ele><time>2026-08-13T21:51:45Z</time></trkpt><trkpt lat="59.3533315044" lon="34.6564191766"><ele>158.94</ele><time>2026-08-13T21:51:51Z</time></trkpt><trkpt lat="59.3534062710" lon="34.6565343440"><ele>158.86</ele><time>2026-08-13T21:52:13Z</time></trkpt><trkpt lat="59.3533877470" lon="34.6565456595"><ele>158.85</ele><time>2026-08-13T21:52:37Z</time></trkpt><trkpt lat="59.3534097075" lon="34.6565130539"><ele>158.84</ele><time>2026-08-13T21:52:57Z</time></trkpt><trkpt lat="59.3534791935" lon="34.6564810351"><ele>158.86</ele><time>2026-08-13T21:53:19Z</time></trkpt><trkpt lat="59.3534313329" lon="34.6565247886"><ele>158.88</ele><time>2026-08-13T21:53:41Z</time></trkpt><trkpt lat="59.3534940295" lon="34.6566309873"><ele>158.93</ele><time>2026-08-13T21:53:57Z</time></trkpt><trkpt lat="59.3535766751" lon="34.6568288002"><ele>158.94</ele><time>2026-08-13T21:54:18Z</time></trkpt><trkpt lat="59.3536840472" lon="34.6571157128"><ele>158.12</ele><time>2026-08-13T21:54:37Z</time></trkpt><trkpt lat="59.3538020644" lon="34.6574323811"><ele>156.57</ele><time>2026-08-13T21:54:56Z</time></trkpt><trkpt lat="59.3538469914" lon="34.6577565931"><ele>155.76</ele><time>2026-08-13T21:55:16Z</time></trkpt><trkpt lat="59.3538147211" lon="34.6581854112"><ele>155.72</ele><time>2026-08-13T21:55:39Z</time></trkpt><trkpt lat="59.3537743203" lon="34.6584256366"><ele>154.83</ele><time>2026-08-13T21:55:58Z</time></trkpt><trkpt lat="59.3537440617" lon="34.6584941167"><ele>154.81</ele><time>2026-08-13T21:56:08Z</time></trkpt><trkpt lat="59.3536868133" lon="34.6586639341"><ele>154.78</ele><time>2026-08-13T21:56:19Z</time></trkpt><trkpt lat="59.3536255416" lon="34.6587918419"><ele>154.73</ele><time>2026-08-13T21:56:34Z</time></trkpt><trkpt lat="59.3535626773" lon="34.6588401217"><ele>154.71</ele><time>2026-08-13T21:56:39Z</time></trkpt><trkpt lat="59.3535429798" lon="34.6588766668"><ele>154.69</ele><time>2026-08-13T21:56:42Z</time></trkpt><trkpt lat="59.3534526229" lon="34.6591184847"><ele>153.09</ele><time>2026-08-13T21:57:09Z</time></trkpt><trkpt lat="59.3533972185" lon="34.6591821034"><ele>152.20</ele><time>2026-08-13T21:57:15Z</time></trkpt><trkpt lat="59.3533574883" lon="34.6592411119"><ele>152.17</ele><time>2026-08-13T21:57:19Z</time></trkpt><trkpt lat="59.3533149082" lon="34.6593763120"><ele>151.40</ele><time>2026-08-13T21:57:25Z</time></trkpt><trkpt lat="59.3532123137" lon="34.6595064830"><ele>148.90</ele><time>2026-08-13T21:57:33Z</time></trkpt><trkpt lat="59.3532060273" lon="34.6595148649"><ele>148.92</ele><time>2026-08-13T21:57:34Z</time></trkpt><trkpt lat="59.3530542310" lon="34.6597004402"><ele>148.91</ele><time>2026-08-13T21:57:57Z</time></trkpt><trkpt lat="59.3529983237" lon="34.6598129254"><ele>148.91</ele><time>2026-08-13T21:58:06Z</time></trkpt><trkpt lat="59.3529279158" lon="34.6600343753"><ele>148.11</ele><time>2026-08-13T21:58:22Z</time></trkpt><trkpt lat="59.3529009260" lon="34.6602480300"><ele>148.08</ele><time>2026-08-13T21:58:34Z</time></trkpt><trkpt lat="59.3528598547" lon="34.6604817174"><ele>148.07</ele><time>2026-08-13T21:58:53Z</time></trkpt><trkpt lat="59.3528179452" lon="34.6606766805"><ele>148.07</ele><time>2026-08-13T21:59:03Z</time></trkpt><trkpt lat="59.3527834117" lon="34.6608876530"><ele>148.09</ele><time>2026-08-13T21:59:19Z</time></trkpt><trkpt lat="59.3526971620" lon="34.6611372661"><ele>148.15</ele><time>2026-08-13T21:59:43Z</time></trkpt><trkpt lat="59.3526685797" lon="34.6611514315"><ele>148.15</ele><time>2026-08-13T21:59:46Z</time></trkpt><trkpt lat="59.3525674101" lon="34.6613396890"><ele>148.20</ele><time>2026-08-13T22:00:01Z</time></trkpt><trkpt lat="59.3524855189" lon="34.6615136974"><ele>148.24</ele><time>2026-08-13T22:00:17Z</time></trkpt><trkpt lat="59.3524370715" lon="34.6615332272"><ele>148.26</ele><time>2026-08-13T22:00:27Z</time></trkpt><trkpt lat="59.3523540907" lon="34.6615608875"><ele>148.31</ele><time>2026-08-13T22:00:41Z</time></trkpt><trkpt lat="59.3523421045" lon="34.6615511645"><ele>150.74</ele><time>2026-08-13T22:00:44Z</time></trkpt><trkpt lat="59.3522981834" lon="34.6616869513"><ele>150.78</ele><time>2026-08-13T22:01:00Z</time></trkpt><trkpt lat="59.3522933219" lon="34.6616993565"><ele>150.78</ele><time>2026-08-13T22:01:01Z</time></trkpt><trkpt lat="59.3521968462" lon="34.6618700121"><ele>151.66</ele><time>2026-08-13T22:01:13Z</time></trkpt><trkpt lat="59.3521376699" lon="34.6620370634"><ele>152.46</ele><time>2026-08-13T22:01:27Z</time></trkpt><trkpt lat="59.3519722950" lon="34.6623295080"><ele>153.37</ele><time>2026-08-13T22:01:51Z</time></trkpt><trkpt lat="59.3518865481" lon="34.6625373792"><ele>153.41</ele><time>2026-08-13T22:02:08Z</time></trkpt><trkpt lat="59.3517671898" lon="34.6628035884"><ele>153.39</ele><time>2026-08-13T22:02:28Z</time></trkpt><trkpt lat="59.3517470732" lon="34.6629149839"><ele>151.13</ele><time>2026-08-13T22:02:36Z</time></trkpt><trkpt lat="59.3516616616" lon="34.6630599909"><ele>149.31</ele><time>2026-08-13T22:02:50Z</time></trkpt><trkpt lat="59.3515255395" lon="34.6633617394"><ele>145.94</ele><time>2026-08-13T22:03:16Z</time></trkpt><trkpt lat="59.3515148107" lon="34.6634048223"><ele>146.04</ele><time>2026-08-13T22:03:25Z</time></trkpt><trkpt lat="59.3514759187" lon="34.6634989511"><ele>146.13</ele><time>2026-08-13T22:03:42Z</time></trkpt><trkpt lat="59.3514190894" lon="34.6635755617"><ele>146.22</ele><time>2026-08-13T22:03:54Z</time></trkpt><trkpt lat="59.3514033314" lon="34.6636179741"><ele>146.24</ele><time>2026-08-13T22:04:00Z</time></trkpt><trkpt lat="59.3513949495" lon="34.6636897232"><ele>148.73</ele><time>2026-08-13T22:04:06Z</time></trkpt><trkpt lat="59.3513039220" lon="34.6638130210"><ele>149.54</ele><time>2026-08-13T22:04:20Z</time></trkpt><trkpt lat="59.3512398005" lon="34.6639672481"><ele>150.30</ele><time>2026-08-13T22:04:33Z</time></trkpt><trkpt lat="59.3510818854" lon="34.6642015222"><ele>151.19</ele><time>2026-08-13T22:04:52Z</time></trkpt><trkpt lat="59.3510019220" lon="34.6643903665"><ele>152.80</ele><time>2026-08-13T22:05:13Z</time></trkpt><trkpt lat="59.3509413209" lon="34.6645219624"><ele>154.45</ele><time>2026-08-13T22:05:34Z</time></trkpt><trkpt lat="59.3508894369" lon="34.6645854972"><ele>154.45</ele><time>2026-08-13T22:05:45Z</time></trkpt><trkpt lat="59.3508471083" lon="34.6647963859"><ele>156.06</ele><time>2026-08-13T22:06:07Z</time></trkpt><trkpt lat="59.3508916162" lon="34.6648543049"><ele>156.88</ele><time>2026-08-13T22:06:36Z</time></trkpt><trkpt lat="59.3509263173" lon="34.6648480184"><ele>156.94</ele><time>2026-08-13T22:07:04Z</time></trkpt><trkpt lat="59.3509307597" lon="34.6649806201"><ele>157.01</ele><time>2026-08-13T22:07:28Z</time></trkpt><trkpt lat="59.3509196956" lon="34.6650420595"><ele>157.15</ele><time>2026-08-13T22:07:59Z</time></trkpt><trkpt lat="59.3509154208" lon="34.6650167461"><ele>157.41</ele><time>2026-08-13T22:08:31Z</time></trkpt><trkpt lat="59.3509560730" lon="34.6649544686"><ele>158.52</ele><time>2026-08-13T22:09:11Z</time></trkpt><trkpt lat="59.3509543967" lon="34.6652371064"><ele>158.72</ele><time>2026-08-13T22:09:33Z</time></trkpt><trkpt lat="59.3509089667" lon="34.6654256992"><ele>158.84</ele><time>2026-08-13T22:09:54Z</time></trkpt><trkpt lat="59.3509151693" lon="34.6654630825"><ele>159.67</ele><time>2026-08-13T22:10:21Z</time></trkpt><trkpt lat="59.3509243894" lon="34.6654375177"><ele>159.87</ele><time>2026-08-13T22:10:47Z</time></trkpt><trkpt lat="59.3509480264" lon="34.6653557941"><ele>160.83</ele><time>2026-08-13T22:11:14Z</time></trkpt><trkpt lat="59.3509918638" lon="34.6654068399"><ele>161.00</ele><time>2026-08-13T22:11:44Z</time></trkpt><trkpt lat="59.3509676401" lon="34.6653915010"><ele>161.97</ele><time>2026-08-13T22:12:09Z</time></trkpt><trkpt lat="59.3509555701" lon="34.6653467417"><ele>162.09</ele><time>2026-08-13T22:12:36Z</time></trkpt><trkpt lat="59.3509124033" lon="34.6653770842"><ele>163.01</ele><time>2026-08-13T22:13:06Z</time></trkpt><trkpt lat="59.3509104755" lon="34.6653977036"><ele>163.85</ele><time>2026-08-13T22:13:32Z</time></trkpt><trkpt lat="59.3508973159" lon="34.6653976198"><ele>163.90</ele><time>2026-08-13T22:14:00Z</time></trkpt><trkpt lat="59.3509220425" lon="34.6654220112"><ele>163.93</ele><time>2026-08-13T22:14:17Z</time></trkpt><trkpt lat="59.3509391416" lon="34.6654554550"><ele>161.67</ele><time>2026-08-13T22:14:20Z</time></trkpt><trkpt lat="59.3509265687" lon="34.6656580456"><ele>161.03</ele><time>2026-08-13T22:14:42Z</time></trkpt><trkpt lat="59.3508678116" lon="34.6660260111"><ele>161.18</ele><time>2026-08-13T22:15:07Z</time></trkpt><trkpt lat="59.3508509640" lon="34.6661711857"><ele>160.16</ele><time>2026-08-13T22:15:22Z</time></trkpt><trkpt lat="59.3508483656" lon="34.6662124246"><ele>160.17</ele><time>2026-08-13T22:15:25Z</time></trkpt><trkpt lat="59.3508471083" lon="34.6663767099"><ele>160.22</ele><time>2026-08-13T22:15:38Z</time></trkpt><trkpt lat="59.3508402351" lon="34.6664730180"><ele>160.27</ele><time>2026-08-13T22:15:46Z</time></trkpt><trkpt lat="59.3508291710" lon="34.6665658057"><ele>160.31</ele><time>2026-08-13T22:15:53Z</time></trkpt><trkpt lat="59.3508217949" lon="34.6666201204"><ele>160.33</ele><time>2026-08-13T22:15:57Z</time></trkpt><trkpt lat="59.3507708330" lon="34.6669590008"><ele>160.43</ele><time>2026-08-13T22:16:14Z</time></trkpt><trkpt lat="59.3507163506" lon="34.6672635153"><ele>160.46</ele><time>2026-08-13T22:16:35Z</time></trkpt><trkpt lat="59.3506707530" lon="34.6673222724"><ele>160.47</ele><time>2026-08-13T22:16:44Z</time></trkpt><trkpt lat="59.3505694997" lon="34.6676246077"><ele>160.46</ele><time>2026-08-13T22:17:02Z</time></trkpt><trkpt lat="59.3505230639" lon="34.6677753143"><ele>162.75</ele><time>2026-08-13T22:17:13Z</time></trkpt><trkpt lat="59.3504555058" lon="34.6678946726"><ele>163.51</ele><time>2026-08-13T22:17:32Z</time></trkpt><trkpt lat="59.3504545838" lon="34.6681514103"><ele>163.46</ele><time>2026-08-13T22:17:51Z</time></trkpt><trkpt lat="59.3504588585" lon="34.6681674197"><ele>163.45</ele><time>2026-08-13T22:17:53Z</time></trkpt><trkpt lat="59.3504838366" lon="34.6683631372"><ele>161.02</ele><time>2026-08-13T22:18:03Z</time></trkpt><trkpt lat="59.3504649773" lon="34.6684876084"><ele>158.47</ele><time>2026-08-13T22:18:16Z</time></trkpt><trkpt lat="59.3504620437" lon="34.6686862595"><ele>156.74</ele><time>2026-08-13T22:18:34Z</time></trkpt><trkpt lat="59.3504623789" lon="34.6688797139"><ele>155.95</ele><time>2026-08-13T22:18:49Z</time></trkpt><trkpt lat="59.3504728563" lon="34.6690580808"><ele>154.32</ele><time>2026-08-13T22:19:06Z</time></trkpt><trkpt lat="59.3504763767" lon="34.6691290755"><ele>152.61</ele><time>2026-08-13T22:19:17Z</time></trkpt><trkpt lat="59.3504772987" lon="34.6692262217"><ele>151.84</ele><time>2026-08-13T22:19:21Z</time></trkpt><trkpt lat="59.3504244927" lon="34.6696055867"><ele>151.00</ele><time>2026-08-13T22:19:38Z</time></trkpt><trkpt lat="59.3503864389" lon="34.6697873063"><ele>150.23</ele><time>2026-08-13T22:19:50Z</time></trkpt><trkpt lat="59.3503624666" lon="34.6698623244"><ele>150.23</ele><time>2026-08-13T22:19:56Z</time></trkpt><trkpt lat="59.3503552582" lon="34.6701479796"><ele>150.28</ele><time>2026-08-13T22:20:15Z</time></trkpt><trkpt lat="59.3503596168" lon="34.6702119336"><ele>150.27</ele><time>2026-08-13T22:20:20Z</time></trkpt><trkpt lat="59.3503711838" lon="34.6703372430"><ele>152.62</ele><time>2026-08-13T22:20:27Z</time></trkpt><trkpt lat="59.3503613770" lon="34.6705080662"><ele>154.45</ele><time>2026-08-13T22:20:42Z</time></trkpt><trkpt lat="59.3503495585" lon="34.6707272530"><ele>155.15</ele><time>2026-08-13T22:20:59Z</time></trkpt><trkpt lat="59.3504348025" lon="34.6709694061"><ele>155.90</ele><time>2026-08-13T22:21:16Z</time></trkpt><trkpt lat="59.3504420947" lon="34.6710133273"><ele>155.85</ele><time>2026-08-13T22:21:19Z</time></trkpt><trkpt lat="59.3504721019" lon="34.6712910198"><ele>155.79</ele><time>2026-08-13T22:21:35Z</time></trkpt><trkpt lat="59.3504922185" lon="34.6715024952"><ele>155.76</ele><time>2026-08-13T22:21:43Z</time></trkpt><trkpt lat="59.3505177833" lon="34.6716496814"><ele>155.70</ele><time>2026-08-13T22:21:52Z</time></trkpt><trkpt lat="59.3505566753" lon="34.6719493344"><ele>155.55</ele><time>2026-08-13T22:22:12Z</time></trkpt><trkpt lat="59.3505549151" lon="34.6721966844"><ele>157.13</ele><time>2026-08-13T22:22:26Z</time></trkpt><trkpt lat="59.3505708408" lon="34.6723578684"><ele>157.00</ele><time>2026-08-13T22:22:36Z</time></trkpt><trkpt lat="59.3505826592" lon="34.6726913005"><ele>156.81</ele><time>2026-08-13T22:22:52Z</time></trkpt><trkpt lat="59.3505845033" lon="34.6727723535"><ele>156.79</ele><time>2026-08-13T22:22:56Z</time></trkpt><trkpt lat="59.3506198749" lon="34.6730943024"><ele>158.12</ele><time>2026-08-13T22:23:18Z</time></trkpt><trkpt lat="59.3506268319" lon="34.6731175203"><ele>158.05</ele><time>2026-08-13T22:23:21Z</time></trkpt><trkpt lat="59.3506352976" lon="34.6732211206"><ele>158.03</ele><time>2026-08-13T22:23:24Z</time></trkpt><trkpt lat="59.3506671488" lon="34.6733896807"><ele>157.93</ele><time>2026-08-13T22:23:32Z</time></trkpt><trkpt lat="59.3506642990" lon="34.6734278183"><ele>157.87</ele><time>2026-08-13T22:23:34Z</time></trkpt><trkpt lat="59.3506529834" lon="34.6736025810"><ele>155.32</ele><time>2026-08-13T22:23:44Z</time></trkpt><trkpt lat="59.3506358843" lon="34.6737871505"><ele>154.36</ele><time>2026-08-13T22:24:05Z</time></trkpt><trkpt lat="59.3506700825" lon="34.6738552954"><ele>153.95</ele><time>2026-08-13T22:24:38Z</time></trkpt><trkpt lat="59.3506861757" lon="34.6739526093"><ele>153.75</ele><time>2026-08-13T22:25:01Z</time></trkpt><trkpt lat="59.3506723456" lon="34.6740312316"><ele>153.50</ele><time>2026-08-13T22:25:43Z</time></trkpt><trkpt lat="59.3507265765" lon="34.6740336623"><ele>153.47</ele><time>2026-08-13T22:25:48Z</time></trkpt><trkpt lat="59.3506648019" lon="34.6740305610"><ele>153.39</ele><time>2026-08-13T22:26:09Z</time></trkpt><trkpt lat="59.3507213797" lon="34.6742244344"><ele>153.32</ele><time>2026-08-13T22:26:28Z</time></trkpt><trkpt lat="59.3507692404" lon="34.6745262668"><ele>153.27</ele><time>2026-08-13T22:26:51Z</time></trkpt><trkpt lat="59.3507542368" lon="34.6745992731"><ele>153.25</ele><time>2026-08-13T22:26:55Z</time></trkpt><trkpt lat="59.3507177755" lon="34.6746608801"><ele>153.25</ele><time>2026-08-13T22:26:58Z</time></trkpt><trkpt lat="59.3507005088" lon="34.6747056395"><ele>153.25</ele><time>2026-08-13T22:27:02Z</time></trkpt><trkpt lat="59.3506733514" lon="34.6747560985"><ele>153.24</ele><time>2026-08-13T22:27:08Z</time></trkpt><trkpt lat="59.3506383989" lon="34.6749063022"><ele>155.50</ele><time>2026-08-13T22:27:17Z</time></trkpt><trkpt lat="59.3506333698" lon="34.6749529056"><ele>155.49</ele><time>2026-08-13T22:27:21Z</time></trkpt><trkpt lat="59.3506269995" lon="34.6749754529"><ele>155.49</ele><time>2026-08-13T22:27:23Z</time></trkpt><trkpt lat="59.3504710961" lon="34.6751638781"><ele>156.34</ele><time>2026-08-13T22:27:42Z</time></trkpt><trkpt lat="59.3504491355" lon="34.6753442567"><ele>158.00</ele><time>2026-08-13T22:27:54Z</time></trkpt><trkpt lat="59.3504225649" lon="34.6754476056"><ele>157.95</ele><time>2026-08-13T22:28:02Z</time></trkpt><trkpt lat="59.3504001852" lon="34.6755129006"><ele>157.93</ele><time>2026-08-13T22:28:07Z</time></trkpt><trkpt lat="59.3503687531" lon="34.6756024193"><ele>157.88</ele><time>2026-08-13T22:28:13Z</time></trkpt><trkpt lat="59.3503668252" lon="34.6757169161"><ele>157.83</ele><time>2026-08-13T22:28:21Z</time></trkpt><trkpt lat="59.3503547553" lon="34.6759626735"><ele>158.48</ele><time>2026-08-13T22:28:41Z</time></trkpt><trkpt lat="59.3503204733" lon="34.6760841273"><ele>158.42</ele><time>2026-08-13T22:28:52Z</time></trkpt><trkpt lat="59.3503214791" lon="34.6761595644"><ele>158.40</ele><time>2026-08-13T22:28:57Z</time></trkpt><trkpt lat="59.3503134325" lon="34.6762321517"><ele>158.39</ele><time>2026-08-13T22:29:01Z</time></trkpt><trkpt lat="59.3502302840" lon="34.6765629854"><ele>158.32</ele><time>2026-08-13T22:29:19Z</time></trkpt><trkpt lat="59.3502319604" lon="34.6766566113"><ele>158.29</ele><time>2026-08-13T22:29:26Z</time></trkpt><trkpt lat="59.3502278533" lon="34.6768023726"><ele>158.23</ele><time>2026-08-13T22:29:34Z</time></trkpt><trkpt lat="59.3502178788" lon="34.6768670809"><ele>158.22</ele><time>2026-08-13T22:29:37Z</time></trkpt><trkpt lat="59.3501508236" lon="34.6771518141"><ele>158.09</ele><time>2026-08-13T22:29:58Z</time></trkpt><trkpt lat="59.3500030506" lon="34.6773447655"><ele>157.99</ele><time>2026-08-13T22:30:28Z</time></trkpt><trkpt lat="59.3499805871" lon="34.6774813905"><ele>157.93</ele><time>2026-08-13T22:30:43Z</time></trkpt><trkpt lat="59.3500012904" lon="34.6776451729"><ele>157.88</ele><time>2026-08-13T22:30:58Z</time></trkpt><trkpt lat="59.3499691878" lon="34.6778619289"><ele>157.83</ele><time>2026-08-13T22:31:13Z</time></trkpt><trkpt lat="59.3499627337" lon="34.6778942831"><ele>157.82</ele><time>2026-08-13T22:31:15Z</time></trkpt><trkpt lat="59.3499430362" lon="34.6781346761"><ele>155.48</ele><time>2026-08-13T22:31:29Z</time></trkpt><trkpt lat="59.3499206565" lon="34.6783484146"><ele>155.44</ele><time>2026-08-13T22:31:43Z</time></trkpt><trkpt lat="59.3499131966" lon="34.6786700282"><ele>155.36</ele><time>2026-08-13T22:32:05Z</time></trkpt><trkpt lat="59.3499136157" lon="34.6786825173"><ele>155.35</ele><time>2026-08-13T22:32:06Z</time></trkpt><trkpt lat="59.3499425333" lon="34.6791713499"><ele>155.24</ele><time>2026-08-13T22:32:28Z</time></trkpt><trkpt lat="59.3499846105" lon="34.6794008464"><ele>155.15</ele><time>2026-08-13T22:32:42Z</time></trkpt><trkpt lat="59.3499417789" lon="34.6798148286"><ele>155.05</ele><time>2026-08-13T22:32:56Z</time></trkpt><trkpt lat="59.3499324750" lon="34.6798469312"><ele>155.04</ele><time>2026-08-13T22:32:58Z</time></trkpt><trkpt lat="59.3498570379" lon="34.6801418066"><ele>154.11</ele><time>2026-08-13T22:33:15Z</time></trkpt><trkpt lat="59.3498705328" lon="34.6804382745"><ele>153.09</ele><time>2026-08-13T22:33:34Z</time></trkpt><trkpt lat="59.3498644140" lon="34.6804678626"><ele>153.08</ele><time>2026-08-13T22:33:36Z</time></trkpt><trkpt lat="59.3498427048" lon="34.6806788351"><ele>152.15</ele><time>2026-08-13T22:33:55Z</time></trkpt><trkpt lat="59.3498422857" lon="34.6807082556"><ele>152.13</ele><time>2026-08-13T22:33:57Z</time></trkpt><trkpt lat="59.3498384301" lon="34.6809785720"><ele>151.22</ele><time>2026-08-13T22:34:11Z</time></trkpt><trkpt lat="59.3498271983" lon="34.6812396683"><ele>149.28</ele><time>2026-08-13T22:34:27Z</time></trkpt><trkpt lat="59.3498151284" lon="34.6813627984"><ele>149.22</ele><time>2026-08-13T22:34:42Z</time></trkpt><trkpt lat="59.3498209957" lon="34.6816042811"><ele>149.16</ele><time>2026-08-13T22:35:01Z</time></trkpt><trkpt lat="59.3497374281" lon="34.6819250565"><ele>149.15</ele><time>2026-08-13T22:35:24Z</time></trkpt><trkpt lat="59.3497129530" lon="34.6821002383"><ele>151.59</ele><time>2026-08-13T22:35:37Z</time></trkpt><trkpt lat="59.3496398628" lon="34.6825502627"><ele>152.35</ele><time>2026-08-13T22:35:59Z</time></trkpt><trkpt lat="59.3496414553" lon="34.6826066729"><ele>152.35</ele><time>2026-08-13T22:36:03Z</time></trkpt><trkpt lat="59.3495797645" lon="34.6829271130"><ele>153.14</ele><time>2026-08-13T22:36:23Z</time></trkpt><trkpt lat="59.3494946044" lon="34.6832506545"><ele>153.14</ele><time>2026-08-13T22:36:44Z</time></trkpt><trkpt lat="59.3494470790" lon="34.6835924685"><ele>153.13</ele><time>2026-08-13T22:37:01Z</time></trkpt><trkpt lat="59.3493987992" lon="34.6838263236"><ele>153.12</ele><time>2026-08-13T22:37:16Z</time></trkpt><trkpt lat="59.3493802752" lon="34.6840567421"><ele>153.10</ele><time>2026-08-13T22:37:29Z</time></trkpt><trkpt lat="59.3493785150" lon="34.6842553932"><ele>153.07</ele><time>2026-08-13T22:37:40Z</time></trkpt><trkpt lat="59.3493635114" lon="34.6846392844"><ele>153.06</ele><time>2026-08-13T22:38:01Z</time></trkpt><trkpt lat="59.3493305705" lon="34.6851197351"><ele>153.02</ele><time>2026-08-13T22:38:24Z</time></trkpt><trkpt lat="59.3493226077" lon="34.6852979343"><ele>153.00</ele><time>2026-08-13T22:38:36Z</time></trkpt><trkpt lat="59.3493113760" lon="34.6855474636"><ele>142.27</ele><time>2026-08-13T22:38:51Z</time></trkpt></trkseg></trk></gpx>